<?xml version="1.0" encoding="UTF-8" standalone="no" ?>
<gpx xmlns="http://www.topografix.com/GPX/1/1" xmlns:xsi="http://www.w3.org/2001/XMLSchema-instance" xsi:schemaLocation="http://www.topografix.com/GPX/1/1 http://www.topografix.com/GPX/1/1/gpx.xsd" version="1.1" creator="VisuGPX - https://www.visugpx.com">
  <metadata>
    <name>VTT autour de Tarbes</name>
    <desc><![CDATA[Sortie inter-clubs CAF Tarbes - CAF Pau]]></desc>
  </metadata>
  <trk>
    <name><![CDATA[Barbazan debat]]></name>
    <cmt><![CDATA[advtt]]></cmt>
    <desc><![CDATA[comment ...]]></desc>
    <trkseg>
      <trkpt lat="43.19668" lon="0.11737">
        <ele>351</ele>
        <time>2018-09-30T07:07:10Z</time>
      </trkpt>
      <trkpt lat="43.19668" lon="0.11737">
        <ele>351</ele>
        <time>2018-09-30T07:07:11Z</time>
      </trkpt>
      <trkpt lat="43.19668" lon="0.11737">
        <ele>351</ele>
        <time>2018-09-30T07:07:12Z</time>
      </trkpt>
      <trkpt lat="43.19668" lon="0.11737">
        <ele>351</ele>
        <time>2018-09-30T07:07:13Z</time>
      </trkpt>
      <trkpt lat="43.19668" lon="0.11737">
        <ele>351</ele>
        <time>2018-09-30T07:07:14Z</time>
      </trkpt>
      <trkpt lat="43.19668" lon="0.11737">
        <ele>351</ele>
        <time>2018-09-30T07:07:15Z</time>
      </trkpt>
      <trkpt lat="43.19668" lon="0.11736">
        <ele>351</ele>
        <time>2018-09-30T07:07:16Z</time>
      </trkpt>
      <trkpt lat="43.19668" lon="0.11736">
        <ele>351</ele>
        <time>2018-09-30T07:07:17Z</time>
      </trkpt>
      <trkpt lat="43.19668" lon="0.11736">
        <ele>351</ele>
        <time>2018-09-30T07:07:18Z</time>
      </trkpt>
      <trkpt lat="43.19668" lon="0.11737">
        <ele>351</ele>
        <time>2018-09-30T07:07:19Z</time>
      </trkpt>
      <trkpt lat="43.19668" lon="0.11736">
        <ele>351</ele>
        <time>2018-09-30T07:07:20Z</time>
      </trkpt>
      <trkpt lat="43.19668" lon="0.11736">
        <ele>351</ele>
        <time>2018-09-30T07:07:21Z</time>
      </trkpt>
      <trkpt lat="43.19668" lon="0.11736">
        <ele>351</ele>
        <time>2018-09-30T07:07:22Z</time>
      </trkpt>
      <trkpt lat="43.19668" lon="0.11736">
        <ele>351</ele>
        <time>2018-09-30T07:07:23Z</time>
      </trkpt>
      <trkpt lat="43.19667" lon="0.11737">
        <ele>351</ele>
        <time>2018-09-30T07:07:24Z</time>
      </trkpt>
      <trkpt lat="43.19667" lon="0.11737">
        <ele>351</ele>
        <time>2018-09-30T07:07:25Z</time>
      </trkpt>
      <trkpt lat="43.19667" lon="0.11737">
        <ele>351</ele>
        <time>2018-09-30T07:07:26Z</time>
      </trkpt>
      <trkpt lat="43.19667" lon="0.11737">
        <ele>352</ele>
        <time>2018-09-30T07:07:27Z</time>
      </trkpt>
      <trkpt lat="43.19667" lon="0.11737">
        <ele>352</ele>
        <time>2018-09-30T07:07:28Z</time>
      </trkpt>
      <trkpt lat="43.19667" lon="0.11737">
        <ele>352</ele>
        <time>2018-09-30T07:07:29Z</time>
      </trkpt>
      <trkpt lat="43.19667" lon="0.11737">
        <ele>352</ele>
        <time>2018-09-30T07:07:30Z</time>
      </trkpt>
      <trkpt lat="43.19667" lon="0.11737">
        <ele>352</ele>
        <time>2018-09-30T07:07:31Z</time>
      </trkpt>
      <trkpt lat="43.19667" lon="0.11737">
        <ele>352</ele>
        <time>2018-09-30T07:07:32Z</time>
      </trkpt>
      <trkpt lat="43.19667" lon="0.11737">
        <ele>352</ele>
        <time>2018-09-30T07:07:33Z</time>
      </trkpt>
      <trkpt lat="43.19667" lon="0.11737">
        <ele>352</ele>
        <time>2018-09-30T07:07:34Z</time>
      </trkpt>
      <trkpt lat="43.19667" lon="0.11737">
        <ele>352</ele>
        <time>2018-09-30T07:07:35Z</time>
      </trkpt>
      <trkpt lat="43.19667" lon="0.11737">
        <ele>352</ele>
        <time>2018-09-30T07:07:36Z</time>
      </trkpt>
      <trkpt lat="43.19667" lon="0.11737">
        <ele>352</ele>
        <time>2018-09-30T07:07:37Z</time>
      </trkpt>
      <trkpt lat="43.19667" lon="0.11737">
        <ele>352</ele>
        <time>2018-09-30T07:07:38Z</time>
      </trkpt>
      <trkpt lat="43.19667" lon="0.11737">
        <ele>352</ele>
        <time>2018-09-30T07:07:39Z</time>
      </trkpt>
      <trkpt lat="43.19667" lon="0.11737">
        <ele>352</ele>
        <time>2018-09-30T07:07:40Z</time>
      </trkpt>
      <trkpt lat="43.19667" lon="0.11737">
        <ele>352</ele>
        <time>2018-09-30T07:07:41Z</time>
      </trkpt>
      <trkpt lat="43.19667" lon="0.11737">
        <ele>352</ele>
        <time>2018-09-30T07:07:42Z</time>
      </trkpt>
      <trkpt lat="43.19667" lon="0.11737">
        <ele>352</ele>
        <time>2018-09-30T07:07:43Z</time>
      </trkpt>
      <trkpt lat="43.19667" lon="0.11737">
        <ele>352</ele>
        <time>2018-09-30T07:07:44Z</time>
      </trkpt>
      <trkpt lat="43.19667" lon="0.11737">
        <ele>352</ele>
        <time>2018-09-30T07:07:45Z</time>
      </trkpt>
      <trkpt lat="43.19667" lon="0.11737">
        <ele>352</ele>
        <time>2018-09-30T07:07:46Z</time>
      </trkpt>
      <trkpt lat="43.19667" lon="0.11737">
        <ele>352</ele>
        <time>2018-09-30T07:07:47Z</time>
      </trkpt>
      <trkpt lat="43.19667" lon="0.11737">
        <ele>352</ele>
        <time>2018-09-30T07:07:48Z</time>
      </trkpt>
      <trkpt lat="43.19667" lon="0.11737">
        <ele>352</ele>
        <time>2018-09-30T07:07:49Z</time>
      </trkpt>
      <trkpt lat="43.19667" lon="0.11737">
        <ele>352</ele>
        <time>2018-09-30T07:07:50Z</time>
      </trkpt>
      <trkpt lat="43.19667" lon="0.11737">
        <ele>352</ele>
        <time>2018-09-30T07:07:51Z</time>
      </trkpt>
      <trkpt lat="43.19667" lon="0.11737">
        <ele>352</ele>
        <time>2018-09-30T07:07:52Z</time>
      </trkpt>
      <trkpt lat="43.19667" lon="0.11737">
        <ele>352</ele>
        <time>2018-09-30T07:07:53Z</time>
      </trkpt>
      <trkpt lat="43.19667" lon="0.11737">
        <ele>352</ele>
        <time>2018-09-30T07:07:54Z</time>
      </trkpt>
      <trkpt lat="43.19667" lon="0.11737">
        <ele>352</ele>
        <time>2018-09-30T07:07:55Z</time>
      </trkpt>
      <trkpt lat="43.19667" lon="0.11737">
        <ele>352</ele>
        <time>2018-09-30T07:07:56Z</time>
      </trkpt>
      <trkpt lat="43.19667" lon="0.11737">
        <ele>352</ele>
        <time>2018-09-30T07:07:57Z</time>
      </trkpt>
      <trkpt lat="43.19667" lon="0.11737">
        <ele>352</ele>
        <time>2018-09-30T07:07:58Z</time>
      </trkpt>
      <trkpt lat="43.19667" lon="0.11737">
        <ele>352</ele>
        <time>2018-09-30T07:07:59Z</time>
      </trkpt>
      <trkpt lat="43.19667" lon="0.11737">
        <ele>352</ele>
        <time>2018-09-30T07:08:00Z</time>
      </trkpt>
      <trkpt lat="43.19666" lon="0.11737">
        <ele>352</ele>
        <time>2018-09-30T07:08:01Z</time>
      </trkpt>
      <trkpt lat="43.19666" lon="0.11737">
        <ele>352</ele>
        <time>2018-09-30T07:08:02Z</time>
      </trkpt>
      <trkpt lat="43.19665" lon="0.11737">
        <ele>352</ele>
        <time>2018-09-30T07:08:03Z</time>
      </trkpt>
      <trkpt lat="43.19665" lon="0.11736">
        <ele>352</ele>
        <time>2018-09-30T07:08:04Z</time>
      </trkpt>
      <trkpt lat="43.19664" lon="0.11736">
        <ele>352</ele>
        <time>2018-09-30T07:08:05Z</time>
      </trkpt>
      <trkpt lat="43.19664" lon="0.11736">
        <ele>352</ele>
        <time>2018-09-30T07:08:06Z</time>
      </trkpt>
      <trkpt lat="43.19664" lon="0.11736">
        <ele>352</ele>
        <time>2018-09-30T07:08:07Z</time>
      </trkpt>
      <trkpt lat="43.19664" lon="0.11736">
        <ele>352</ele>
        <time>2018-09-30T07:08:08Z</time>
      </trkpt>
      <trkpt lat="43.19664" lon="0.11736">
        <ele>352</ele>
        <time>2018-09-30T07:08:09Z</time>
      </trkpt>
      <trkpt lat="43.19664" lon="0.11736">
        <ele>352</ele>
        <time>2018-09-30T07:08:10Z</time>
      </trkpt>
      <trkpt lat="43.19664" lon="0.11736">
        <ele>352</ele>
        <time>2018-09-30T07:08:11Z</time>
      </trkpt>
      <trkpt lat="43.19664" lon="0.11736">
        <ele>352</ele>
        <time>2018-09-30T07:08:12Z</time>
      </trkpt>
      <trkpt lat="43.19664" lon="0.11736">
        <ele>352</ele>
        <time>2018-09-30T07:08:13Z</time>
      </trkpt>
      <trkpt lat="43.19664" lon="0.11736">
        <ele>352</ele>
        <time>2018-09-30T07:08:14Z</time>
      </trkpt>
      <trkpt lat="43.19664" lon="0.11736">
        <ele>352</ele>
        <time>2018-09-30T07:08:15Z</time>
      </trkpt>
      <trkpt lat="43.19664" lon="0.11736">
        <ele>352</ele>
        <time>2018-09-30T07:08:16Z</time>
      </trkpt>
      <trkpt lat="43.19664" lon="0.11736">
        <ele>352</ele>
        <time>2018-09-30T07:08:17Z</time>
      </trkpt>
      <trkpt lat="43.19664" lon="0.11736">
        <ele>352</ele>
        <time>2018-09-30T07:08:18Z</time>
      </trkpt>
      <trkpt lat="43.19664" lon="0.11736">
        <ele>352</ele>
        <time>2018-09-30T07:08:19Z</time>
      </trkpt>
      <trkpt lat="43.19664" lon="0.11736">
        <ele>352</ele>
        <time>2018-09-30T07:08:20Z</time>
      </trkpt>
      <trkpt lat="43.19664" lon="0.11736">
        <ele>352</ele>
        <time>2018-09-30T07:08:21Z</time>
      </trkpt>
      <trkpt lat="43.19664" lon="0.11736">
        <ele>352</ele>
        <time>2018-09-30T07:08:22Z</time>
      </trkpt>
      <trkpt lat="43.19664" lon="0.11736">
        <ele>352</ele>
        <time>2018-09-30T07:08:23Z</time>
      </trkpt>
      <trkpt lat="43.19664" lon="0.11736">
        <ele>352</ele>
        <time>2018-09-30T07:08:24Z</time>
      </trkpt>
      <trkpt lat="43.19663" lon="0.11735">
        <ele>352</ele>
        <time>2018-09-30T07:08:25Z</time>
      </trkpt>
      <trkpt lat="43.19663" lon="0.11735">
        <ele>353</ele>
        <time>2018-09-30T07:08:26Z</time>
      </trkpt>
      <trkpt lat="43.19664" lon="0.11733">
        <ele>353</ele>
        <time>2018-09-30T07:08:27Z</time>
      </trkpt>
      <trkpt lat="43.19663" lon="0.11732">
        <ele>353</ele>
        <time>2018-09-30T07:08:28Z</time>
      </trkpt>
      <trkpt lat="43.19663" lon="0.1173">
        <ele>353</ele>
        <time>2018-09-30T07:08:29Z</time>
      </trkpt>
      <trkpt lat="43.19663" lon="0.11728">
        <ele>353</ele>
        <time>2018-09-30T07:08:30Z</time>
      </trkpt>
      <trkpt lat="43.19663" lon="0.11725">
        <ele>353</ele>
        <time>2018-09-30T07:08:31Z</time>
      </trkpt>
      <trkpt lat="43.19663" lon="0.11723">
        <ele>353</ele>
        <time>2018-09-30T07:08:32Z</time>
      </trkpt>
      <trkpt lat="43.19662" lon="0.1172">
        <ele>353</ele>
        <time>2018-09-30T07:08:33Z</time>
      </trkpt>
      <trkpt lat="43.19662" lon="0.11717">
        <ele>353</ele>
        <time>2018-09-30T07:08:34Z</time>
      </trkpt>
      <trkpt lat="43.19663" lon="0.11715">
        <ele>353</ele>
        <time>2018-09-30T07:08:35Z</time>
      </trkpt>
      <trkpt lat="43.19664" lon="0.11713">
        <ele>353</ele>
        <time>2018-09-30T07:08:36Z</time>
      </trkpt>
      <trkpt lat="43.19664" lon="0.1171">
        <ele>354</ele>
        <time>2018-09-30T07:08:37Z</time>
      </trkpt>
      <trkpt lat="43.19663" lon="0.11707">
        <ele>354</ele>
        <time>2018-09-30T07:08:38Z</time>
      </trkpt>
      <trkpt lat="43.19662" lon="0.11704">
        <ele>354</ele>
        <time>2018-09-30T07:08:39Z</time>
      </trkpt>
      <trkpt lat="43.19663" lon="0.11701">
        <ele>354</ele>
        <time>2018-09-30T07:08:40Z</time>
      </trkpt>
      <trkpt lat="43.19663" lon="0.11698">
        <ele>354</ele>
        <time>2018-09-30T07:08:41Z</time>
      </trkpt>
      <trkpt lat="43.19664" lon="0.11697">
        <ele>354</ele>
        <time>2018-09-30T07:08:42Z</time>
      </trkpt>
      <trkpt lat="43.19665" lon="0.11695">
        <ele>354</ele>
        <time>2018-09-30T07:08:43Z</time>
      </trkpt>
      <trkpt lat="43.19665" lon="0.11694">
        <ele>354</ele>
        <time>2018-09-30T07:08:44Z</time>
      </trkpt>
      <trkpt lat="43.19666" lon="0.11693">
        <ele>354</ele>
        <time>2018-09-30T07:08:45Z</time>
      </trkpt>
      <trkpt lat="43.19666" lon="0.11692">
        <ele>354</ele>
        <time>2018-09-30T07:08:46Z</time>
      </trkpt>
      <trkpt lat="43.19666" lon="0.11692">
        <ele>354</ele>
        <time>2018-09-30T07:08:47Z</time>
      </trkpt>
      <trkpt lat="43.19667" lon="0.11692">
        <ele>354</ele>
        <time>2018-09-30T07:08:48Z</time>
      </trkpt>
      <trkpt lat="43.19667" lon="0.11691">
        <ele>354</ele>
        <time>2018-09-30T07:08:49Z</time>
      </trkpt>
      <trkpt lat="43.19667" lon="0.11691">
        <ele>354</ele>
        <time>2018-09-30T07:08:50Z</time>
      </trkpt>
      <trkpt lat="43.19667" lon="0.11691">
        <ele>354</ele>
        <time>2018-09-30T07:08:51Z</time>
      </trkpt>
      <trkpt lat="43.19667" lon="0.11691">
        <ele>354</ele>
        <time>2018-09-30T07:08:52Z</time>
      </trkpt>
      <trkpt lat="43.19667" lon="0.11692">
        <ele>354</ele>
        <time>2018-09-30T07:08:53Z</time>
      </trkpt>
      <trkpt lat="43.19667" lon="0.11692">
        <ele>354</ele>
        <time>2018-09-30T07:08:54Z</time>
      </trkpt>
      <trkpt lat="43.19667" lon="0.11692">
        <ele>354</ele>
        <time>2018-09-30T07:08:55Z</time>
      </trkpt>
      <trkpt lat="43.19667" lon="0.11692">
        <ele>354</ele>
        <time>2018-09-30T07:08:56Z</time>
      </trkpt>
      <trkpt lat="43.19667" lon="0.11692">
        <ele>354</ele>
        <time>2018-09-30T07:08:57Z</time>
      </trkpt>
      <trkpt lat="43.19667" lon="0.11692">
        <ele>354</ele>
        <time>2018-09-30T07:08:58Z</time>
      </trkpt>
      <trkpt lat="43.19667" lon="0.11692">
        <ele>354</ele>
        <time>2018-09-30T07:08:59Z</time>
      </trkpt>
      <trkpt lat="43.19667" lon="0.11692">
        <ele>354</ele>
        <time>2018-09-30T07:09:00Z</time>
      </trkpt>
      <trkpt lat="43.19667" lon="0.11692">
        <ele>354</ele>
        <time>2018-09-30T07:09:01Z</time>
      </trkpt>
      <trkpt lat="43.19668" lon="0.11692">
        <ele>354</ele>
        <time>2018-09-30T07:09:02Z</time>
      </trkpt>
      <trkpt lat="43.19668" lon="0.11692">
        <ele>354</ele>
        <time>2018-09-30T07:09:03Z</time>
      </trkpt>
      <trkpt lat="43.19668" lon="0.11692">
        <ele>354</ele>
        <time>2018-09-30T07:09:04Z</time>
      </trkpt>
      <trkpt lat="43.19668" lon="0.11692">
        <ele>354</ele>
        <time>2018-09-30T07:09:05Z</time>
      </trkpt>
      <trkpt lat="43.19668" lon="0.11692">
        <ele>354</ele>
        <time>2018-09-30T07:09:06Z</time>
      </trkpt>
      <trkpt lat="43.19668" lon="0.11692">
        <ele>354</ele>
        <time>2018-09-30T07:09:07Z</time>
      </trkpt>
      <trkpt lat="43.19668" lon="0.11691">
        <ele>354</ele>
        <time>2018-09-30T07:09:08Z</time>
      </trkpt>
      <trkpt lat="43.19668" lon="0.11691">
        <ele>354</ele>
        <time>2018-09-30T07:09:09Z</time>
      </trkpt>
      <trkpt lat="43.19668" lon="0.11691">
        <ele>354</ele>
        <time>2018-09-30T07:09:10Z</time>
      </trkpt>
      <trkpt lat="43.19668" lon="0.11691">
        <ele>354</ele>
        <time>2018-09-30T07:09:11Z</time>
      </trkpt>
      <trkpt lat="43.19668" lon="0.11691">
        <ele>354</ele>
        <time>2018-09-30T07:09:12Z</time>
      </trkpt>
      <trkpt lat="43.19668" lon="0.11691">
        <ele>354</ele>
        <time>2018-09-30T07:09:13Z</time>
      </trkpt>
      <trkpt lat="43.19668" lon="0.11691">
        <ele>354</ele>
        <time>2018-09-30T07:09:14Z</time>
      </trkpt>
      <trkpt lat="43.19668" lon="0.11691">
        <ele>354</ele>
        <time>2018-09-30T07:09:15Z</time>
      </trkpt>
      <trkpt lat="43.19668" lon="0.11691">
        <ele>354</ele>
        <time>2018-09-30T07:09:16Z</time>
      </trkpt>
      <trkpt lat="43.19668" lon="0.11691">
        <ele>354</ele>
        <time>2018-09-30T07:09:17Z</time>
      </trkpt>
      <trkpt lat="43.19668" lon="0.11691">
        <ele>354</ele>
        <time>2018-09-30T07:09:18Z</time>
      </trkpt>
      <trkpt lat="43.19668" lon="0.11691">
        <ele>354</ele>
        <time>2018-09-30T07:09:19Z</time>
      </trkpt>
      <trkpt lat="43.19668" lon="0.11691">
        <ele>354</ele>
        <time>2018-09-30T07:09:20Z</time>
      </trkpt>
      <trkpt lat="43.19668" lon="0.11691">
        <ele>354</ele>
        <time>2018-09-30T07:09:21Z</time>
      </trkpt>
      <trkpt lat="43.19668" lon="0.11691">
        <ele>354</ele>
        <time>2018-09-30T07:09:22Z</time>
      </trkpt>
      <trkpt lat="43.19668" lon="0.11691">
        <ele>354</ele>
        <time>2018-09-30T07:09:23Z</time>
      </trkpt>
      <trkpt lat="43.19668" lon="0.11691">
        <ele>354</ele>
        <time>2018-09-30T07:09:24Z</time>
      </trkpt>
      <trkpt lat="43.19668" lon="0.11691">
        <ele>354</ele>
        <time>2018-09-30T07:09:25Z</time>
      </trkpt>
      <trkpt lat="43.19668" lon="0.11691">
        <ele>354</ele>
        <time>2018-09-30T07:09:26Z</time>
      </trkpt>
      <trkpt lat="43.19668" lon="0.11691">
        <ele>354</ele>
        <time>2018-09-30T07:09:27Z</time>
      </trkpt>
      <trkpt lat="43.19668" lon="0.11691">
        <ele>354</ele>
        <time>2018-09-30T07:09:28Z</time>
      </trkpt>
      <trkpt lat="43.19668" lon="0.11691">
        <ele>355</ele>
        <time>2018-09-30T07:09:29Z</time>
      </trkpt>
      <trkpt lat="43.19668" lon="0.11691">
        <ele>355</ele>
        <time>2018-09-30T07:09:30Z</time>
      </trkpt>
      <trkpt lat="43.19668" lon="0.11691">
        <ele>355</ele>
        <time>2018-09-30T07:09:31Z</time>
      </trkpt>
      <trkpt lat="43.19668" lon="0.11691">
        <ele>355</ele>
        <time>2018-09-30T07:09:32Z</time>
      </trkpt>
      <trkpt lat="43.19668" lon="0.11691">
        <ele>355</ele>
        <time>2018-09-30T07:09:33Z</time>
      </trkpt>
      <trkpt lat="43.19668" lon="0.11691">
        <ele>355</ele>
        <time>2018-09-30T07:09:34Z</time>
      </trkpt>
      <trkpt lat="43.19668" lon="0.11691">
        <ele>355</ele>
        <time>2018-09-30T07:09:35Z</time>
      </trkpt>
      <trkpt lat="43.19668" lon="0.11691">
        <ele>355</ele>
        <time>2018-09-30T07:09:36Z</time>
      </trkpt>
      <trkpt lat="43.19668" lon="0.11691">
        <ele>355</ele>
        <time>2018-09-30T07:09:37Z</time>
      </trkpt>
      <trkpt lat="43.19668" lon="0.11691">
        <ele>355</ele>
        <time>2018-09-30T07:09:38Z</time>
      </trkpt>
      <trkpt lat="43.19668" lon="0.11691">
        <ele>355</ele>
        <time>2018-09-30T07:09:39Z</time>
      </trkpt>
      <trkpt lat="43.19668" lon="0.11691">
        <ele>355</ele>
        <time>2018-09-30T07:09:40Z</time>
      </trkpt>
      <trkpt lat="43.19668" lon="0.11691">
        <ele>355</ele>
        <time>2018-09-30T07:09:41Z</time>
      </trkpt>
      <trkpt lat="43.19668" lon="0.11691">
        <ele>355</ele>
        <time>2018-09-30T07:09:42Z</time>
      </trkpt>
      <trkpt lat="43.19668" lon="0.11691">
        <ele>355</ele>
        <time>2018-09-30T07:09:43Z</time>
      </trkpt>
      <trkpt lat="43.19668" lon="0.11691">
        <ele>355</ele>
        <time>2018-09-30T07:09:44Z</time>
      </trkpt>
      <trkpt lat="43.19668" lon="0.1169">
        <ele>355</ele>
        <time>2018-09-30T07:09:45Z</time>
      </trkpt>
      <trkpt lat="43.19668" lon="0.1169">
        <ele>355</ele>
        <time>2018-09-30T07:09:46Z</time>
      </trkpt>
      <trkpt lat="43.19668" lon="0.1169">
        <ele>355</ele>
        <time>2018-09-30T07:09:47Z</time>
      </trkpt>
      <trkpt lat="43.19668" lon="0.1169">
        <ele>355</ele>
        <time>2018-09-30T07:09:48Z</time>
      </trkpt>
      <trkpt lat="43.19669" lon="0.1169">
        <ele>355</ele>
        <time>2018-09-30T07:09:49Z</time>
      </trkpt>
      <trkpt lat="43.19669" lon="0.1169">
        <ele>355</ele>
        <time>2018-09-30T07:09:50Z</time>
      </trkpt>
      <trkpt lat="43.19669" lon="0.1169">
        <ele>355</ele>
        <time>2018-09-30T07:09:51Z</time>
      </trkpt>
      <trkpt lat="43.19669" lon="0.1169">
        <ele>355</ele>
        <time>2018-09-30T07:09:52Z</time>
      </trkpt>
      <trkpt lat="43.19669" lon="0.1169">
        <ele>355</ele>
        <time>2018-09-30T07:09:53Z</time>
      </trkpt>
      <trkpt lat="43.19669" lon="0.1169">
        <ele>355</ele>
        <time>2018-09-30T07:09:54Z</time>
      </trkpt>
      <trkpt lat="43.19669" lon="0.1169">
        <ele>355</ele>
        <time>2018-09-30T07:09:55Z</time>
      </trkpt>
      <trkpt lat="43.19669" lon="0.1169">
        <ele>355</ele>
        <time>2018-09-30T07:09:56Z</time>
      </trkpt>
      <trkpt lat="43.19669" lon="0.1169">
        <ele>355</ele>
        <time>2018-09-30T07:09:57Z</time>
      </trkpt>
      <trkpt lat="43.19669" lon="0.1169">
        <ele>355</ele>
        <time>2018-09-30T07:09:58Z</time>
      </trkpt>
      <trkpt lat="43.19669" lon="0.1169">
        <ele>355</ele>
        <time>2018-09-30T07:09:59Z</time>
      </trkpt>
      <trkpt lat="43.19669" lon="0.1169">
        <ele>355</ele>
        <time>2018-09-30T07:10:00Z</time>
      </trkpt>
      <trkpt lat="43.19669" lon="0.1169">
        <ele>355</ele>
        <time>2018-09-30T07:10:01Z</time>
      </trkpt>
      <trkpt lat="43.19669" lon="0.1169">
        <ele>355</ele>
        <time>2018-09-30T07:10:02Z</time>
      </trkpt>
      <trkpt lat="43.19669" lon="0.11689">
        <ele>355</ele>
        <time>2018-09-30T07:10:03Z</time>
      </trkpt>
      <trkpt lat="43.19669" lon="0.11689">
        <ele>355</ele>
        <time>2018-09-30T07:10:04Z</time>
      </trkpt>
      <trkpt lat="43.19669" lon="0.11689">
        <ele>355</ele>
        <time>2018-09-30T07:10:05Z</time>
      </trkpt>
      <trkpt lat="43.19669" lon="0.11689">
        <ele>355</ele>
        <time>2018-09-30T07:10:06Z</time>
      </trkpt>
      <trkpt lat="43.19669" lon="0.11689">
        <ele>355</ele>
        <time>2018-09-30T07:10:07Z</time>
      </trkpt>
      <trkpt lat="43.19669" lon="0.11689">
        <ele>355</ele>
        <time>2018-09-30T07:10:08Z</time>
      </trkpt>
      <trkpt lat="43.19669" lon="0.11689">
        <ele>355</ele>
        <time>2018-09-30T07:10:09Z</time>
      </trkpt>
      <trkpt lat="43.19669" lon="0.11689">
        <ele>355</ele>
        <time>2018-09-30T07:10:10Z</time>
      </trkpt>
      <trkpt lat="43.19669" lon="0.11689">
        <ele>355</ele>
        <time>2018-09-30T07:10:11Z</time>
      </trkpt>
      <trkpt lat="43.19669" lon="0.11689">
        <ele>355</ele>
        <time>2018-09-30T07:10:12Z</time>
      </trkpt>
      <trkpt lat="43.19669" lon="0.11689">
        <ele>355</ele>
        <time>2018-09-30T07:10:13Z</time>
      </trkpt>
      <trkpt lat="43.19669" lon="0.11689">
        <ele>355</ele>
        <time>2018-09-30T07:10:14Z</time>
      </trkpt>
      <trkpt lat="43.19669" lon="0.11689">
        <ele>355</ele>
        <time>2018-09-30T07:10:15Z</time>
      </trkpt>
      <trkpt lat="43.19669" lon="0.11689">
        <ele>355</ele>
        <time>2018-09-30T07:10:16Z</time>
      </trkpt>
      <trkpt lat="43.19669" lon="0.11689">
        <ele>355</ele>
        <time>2018-09-30T07:10:17Z</time>
      </trkpt>
      <trkpt lat="43.19669" lon="0.11689">
        <ele>355</ele>
        <time>2018-09-30T07:10:18Z</time>
      </trkpt>
      <trkpt lat="43.19669" lon="0.11689">
        <ele>355</ele>
        <time>2018-09-30T07:10:19Z</time>
      </trkpt>
      <trkpt lat="43.19669" lon="0.11689">
        <ele>355</ele>
        <time>2018-09-30T07:10:20Z</time>
      </trkpt>
      <trkpt lat="43.19669" lon="0.11689">
        <ele>355</ele>
        <time>2018-09-30T07:10:21Z</time>
      </trkpt>
      <trkpt lat="43.19669" lon="0.11689">
        <ele>355</ele>
        <time>2018-09-30T07:10:22Z</time>
      </trkpt>
      <trkpt lat="43.19669" lon="0.11689">
        <ele>355</ele>
        <time>2018-09-30T07:10:23Z</time>
      </trkpt>
      <trkpt lat="43.19669" lon="0.11689">
        <ele>355</ele>
        <time>2018-09-30T07:10:24Z</time>
      </trkpt>
      <trkpt lat="43.19669" lon="0.11689">
        <ele>355</ele>
        <time>2018-09-30T07:10:25Z</time>
      </trkpt>
      <trkpt lat="43.19669" lon="0.11689">
        <ele>355</ele>
        <time>2018-09-30T07:10:26Z</time>
      </trkpt>
      <trkpt lat="43.19669" lon="0.11689">
        <ele>355</ele>
        <time>2018-09-30T07:10:27Z</time>
      </trkpt>
      <trkpt lat="43.19669" lon="0.11689">
        <ele>355</ele>
        <time>2018-09-30T07:10:28Z</time>
      </trkpt>
      <trkpt lat="43.19669" lon="0.11689">
        <ele>355</ele>
        <time>2018-09-30T07:10:29Z</time>
      </trkpt>
      <trkpt lat="43.19669" lon="0.11689">
        <ele>355</ele>
        <time>2018-09-30T07:10:30Z</time>
      </trkpt>
      <trkpt lat="43.19669" lon="0.11689">
        <ele>355</ele>
        <time>2018-09-30T07:10:31Z</time>
      </trkpt>
      <trkpt lat="43.19669" lon="0.11689">
        <ele>355</ele>
        <time>2018-09-30T07:10:32Z</time>
      </trkpt>
      <trkpt lat="43.19669" lon="0.11689">
        <ele>355</ele>
        <time>2018-09-30T07:10:33Z</time>
      </trkpt>
      <trkpt lat="43.19669" lon="0.1169">
        <ele>355</ele>
        <time>2018-09-30T07:10:34Z</time>
      </trkpt>
      <trkpt lat="43.19669" lon="0.1169">
        <ele>355</ele>
        <time>2018-09-30T07:10:35Z</time>
      </trkpt>
      <trkpt lat="43.19669" lon="0.1169">
        <ele>355</ele>
        <time>2018-09-30T07:10:36Z</time>
      </trkpt>
      <trkpt lat="43.19669" lon="0.1169">
        <ele>355</ele>
        <time>2018-09-30T07:10:37Z</time>
      </trkpt>
      <trkpt lat="43.19669" lon="0.1169">
        <ele>355</ele>
        <time>2018-09-30T07:10:38Z</time>
      </trkpt>
      <trkpt lat="43.19669" lon="0.1169">
        <ele>355</ele>
        <time>2018-09-30T07:10:39Z</time>
      </trkpt>
      <trkpt lat="43.19669" lon="0.1169">
        <ele>355</ele>
        <time>2018-09-30T07:10:40Z</time>
      </trkpt>
      <trkpt lat="43.19669" lon="0.1169">
        <ele>355</ele>
        <time>2018-09-30T07:10:41Z</time>
      </trkpt>
      <trkpt lat="43.19669" lon="0.1169">
        <ele>355</ele>
        <time>2018-09-30T07:10:42Z</time>
      </trkpt>
      <trkpt lat="43.19669" lon="0.1169">
        <ele>355</ele>
        <time>2018-09-30T07:10:43Z</time>
      </trkpt>
      <trkpt lat="43.19669" lon="0.1169">
        <ele>355</ele>
        <time>2018-09-30T07:10:44Z</time>
      </trkpt>
      <trkpt lat="43.19669" lon="0.1169">
        <ele>355</ele>
        <time>2018-09-30T07:10:45Z</time>
      </trkpt>
      <trkpt lat="43.19669" lon="0.1169">
        <ele>355</ele>
        <time>2018-09-30T07:10:46Z</time>
      </trkpt>
      <trkpt lat="43.19669" lon="0.1169">
        <ele>355</ele>
        <time>2018-09-30T07:10:47Z</time>
      </trkpt>
      <trkpt lat="43.19669" lon="0.1169">
        <ele>355</ele>
        <time>2018-09-30T07:10:48Z</time>
      </trkpt>
      <trkpt lat="43.19669" lon="0.1169">
        <ele>355</ele>
        <time>2018-09-30T07:10:49Z</time>
      </trkpt>
      <trkpt lat="43.19669" lon="0.1169">
        <ele>355</ele>
        <time>2018-09-30T07:10:50Z</time>
      </trkpt>
      <trkpt lat="43.19669" lon="0.1169">
        <ele>355</ele>
        <time>2018-09-30T07:10:51Z</time>
      </trkpt>
      <trkpt lat="43.19669" lon="0.1169">
        <ele>355</ele>
        <time>2018-09-30T07:10:52Z</time>
      </trkpt>
      <trkpt lat="43.19669" lon="0.1169">
        <ele>355</ele>
        <time>2018-09-30T07:10:53Z</time>
      </trkpt>
      <trkpt lat="43.19669" lon="0.1169">
        <ele>355</ele>
        <time>2018-09-30T07:10:54Z</time>
      </trkpt>
      <trkpt lat="43.19669" lon="0.1169">
        <ele>355</ele>
        <time>2018-09-30T07:10:55Z</time>
      </trkpt>
      <trkpt lat="43.19669" lon="0.1169">
        <ele>355</ele>
        <time>2018-09-30T07:10:56Z</time>
      </trkpt>
      <trkpt lat="43.19669" lon="0.1169">
        <ele>355</ele>
        <time>2018-09-30T07:10:57Z</time>
      </trkpt>
      <trkpt lat="43.19669" lon="0.1169">
        <ele>355</ele>
        <time>2018-09-30T07:10:58Z</time>
      </trkpt>
      <trkpt lat="43.19669" lon="0.1169">
        <ele>355</ele>
        <time>2018-09-30T07:10:59Z</time>
      </trkpt>
      <trkpt lat="43.19669" lon="0.1169">
        <ele>355</ele>
        <time>2018-09-30T07:11:00Z</time>
      </trkpt>
      <trkpt lat="43.19669" lon="0.1169">
        <ele>355</ele>
        <time>2018-09-30T07:11:01Z</time>
      </trkpt>
      <trkpt lat="43.19669" lon="0.1169">
        <ele>355</ele>
        <time>2018-09-30T07:11:02Z</time>
      </trkpt>
      <trkpt lat="43.19669" lon="0.1169">
        <ele>355</ele>
        <time>2018-09-30T07:11:03Z</time>
      </trkpt>
      <trkpt lat="43.19669" lon="0.1169">
        <ele>355</ele>
        <time>2018-09-30T07:11:04Z</time>
      </trkpt>
      <trkpt lat="43.19669" lon="0.1169">
        <ele>355</ele>
        <time>2018-09-30T07:11:05Z</time>
      </trkpt>
      <trkpt lat="43.19669" lon="0.1169">
        <ele>355</ele>
        <time>2018-09-30T07:11:06Z</time>
      </trkpt>
      <trkpt lat="43.19669" lon="0.1169">
        <ele>355</ele>
        <time>2018-09-30T07:11:07Z</time>
      </trkpt>
      <trkpt lat="43.19669" lon="0.1169">
        <ele>355</ele>
        <time>2018-09-30T07:11:08Z</time>
      </trkpt>
      <trkpt lat="43.19669" lon="0.1169">
        <ele>355</ele>
        <time>2018-09-30T07:11:09Z</time>
      </trkpt>
      <trkpt lat="43.19669" lon="0.1169">
        <ele>355</ele>
        <time>2018-09-30T07:11:10Z</time>
      </trkpt>
      <trkpt lat="43.19669" lon="0.1169">
        <ele>355</ele>
        <time>2018-09-30T07:11:11Z</time>
      </trkpt>
      <trkpt lat="43.19669" lon="0.1169">
        <ele>355</ele>
        <time>2018-09-30T07:11:12Z</time>
      </trkpt>
      <trkpt lat="43.19669" lon="0.1169">
        <ele>355</ele>
        <time>2018-09-30T07:11:13Z</time>
      </trkpt>
      <trkpt lat="43.19669" lon="0.1169">
        <ele>355</ele>
        <time>2018-09-30T07:11:14Z</time>
      </trkpt>
      <trkpt lat="43.19669" lon="0.1169">
        <ele>355</ele>
        <time>2018-09-30T07:11:15Z</time>
      </trkpt>
      <trkpt lat="43.19669" lon="0.1169">
        <ele>355</ele>
        <time>2018-09-30T07:11:16Z</time>
      </trkpt>
      <trkpt lat="43.19669" lon="0.1169">
        <ele>355</ele>
        <time>2018-09-30T07:11:17Z</time>
      </trkpt>
      <trkpt lat="43.19669" lon="0.1169">
        <ele>355</ele>
        <time>2018-09-30T07:11:18Z</time>
      </trkpt>
      <trkpt lat="43.19669" lon="0.1169">
        <ele>355</ele>
        <time>2018-09-30T07:11:19Z</time>
      </trkpt>
      <trkpt lat="43.19669" lon="0.1169">
        <ele>355</ele>
        <time>2018-09-30T07:11:20Z</time>
      </trkpt>
      <trkpt lat="43.19669" lon="0.1169">
        <ele>355</ele>
        <time>2018-09-30T07:11:21Z</time>
      </trkpt>
      <trkpt lat="43.19669" lon="0.1169">
        <ele>355</ele>
        <time>2018-09-30T07:11:22Z</time>
      </trkpt>
      <trkpt lat="43.19669" lon="0.1169">
        <ele>355</ele>
        <time>2018-09-30T07:11:23Z</time>
      </trkpt>
      <trkpt lat="43.19669" lon="0.1169">
        <ele>355</ele>
        <time>2018-09-30T07:11:24Z</time>
      </trkpt>
      <trkpt lat="43.19669" lon="0.1169">
        <ele>355</ele>
        <time>2018-09-30T07:11:25Z</time>
      </trkpt>
      <trkpt lat="43.19669" lon="0.1169">
        <ele>355</ele>
        <time>2018-09-30T07:11:26Z</time>
      </trkpt>
      <trkpt lat="43.19669" lon="0.1169">
        <ele>355</ele>
        <time>2018-09-30T07:11:27Z</time>
      </trkpt>
      <trkpt lat="43.19669" lon="0.1169">
        <ele>355</ele>
        <time>2018-09-30T07:11:28Z</time>
      </trkpt>
      <trkpt lat="43.19669" lon="0.1169">
        <ele>355</ele>
        <time>2018-09-30T07:11:29Z</time>
      </trkpt>
      <trkpt lat="43.19669" lon="0.1169">
        <ele>355</ele>
        <time>2018-09-30T07:11:30Z</time>
      </trkpt>
      <trkpt lat="43.19669" lon="0.1169">
        <ele>355</ele>
        <time>2018-09-30T07:11:31Z</time>
      </trkpt>
      <trkpt lat="43.19669" lon="0.1169">
        <ele>355</ele>
        <time>2018-09-30T07:11:32Z</time>
      </trkpt>
      <trkpt lat="43.19669" lon="0.1169">
        <ele>355</ele>
        <time>2018-09-30T07:11:33Z</time>
      </trkpt>
      <trkpt lat="43.19669" lon="0.1169">
        <ele>355</ele>
        <time>2018-09-30T07:11:34Z</time>
      </trkpt>
      <trkpt lat="43.1967" lon="0.1169">
        <ele>355</ele>
        <time>2018-09-30T07:11:35Z</time>
      </trkpt>
      <trkpt lat="43.1967" lon="0.1169">
        <ele>355</ele>
        <time>2018-09-30T07:11:36Z</time>
      </trkpt>
      <trkpt lat="43.1967" lon="0.1169">
        <ele>355</ele>
        <time>2018-09-30T07:11:37Z</time>
      </trkpt>
      <trkpt lat="43.1967" lon="0.1169">
        <ele>355</ele>
        <time>2018-09-30T07:11:38Z</time>
      </trkpt>
      <trkpt lat="43.1967" lon="0.1169">
        <ele>355</ele>
        <time>2018-09-30T07:11:39Z</time>
      </trkpt>
      <trkpt lat="43.1967" lon="0.1169">
        <ele>355</ele>
        <time>2018-09-30T07:11:40Z</time>
      </trkpt>
      <trkpt lat="43.1967" lon="0.1169">
        <ele>355</ele>
        <time>2018-09-30T07:11:41Z</time>
      </trkpt>
      <trkpt lat="43.1967" lon="0.1169">
        <ele>355</ele>
        <time>2018-09-30T07:11:42Z</time>
      </trkpt>
      <trkpt lat="43.1967" lon="0.1169">
        <ele>355</ele>
        <time>2018-09-30T07:11:43Z</time>
      </trkpt>
      <trkpt lat="43.1967" lon="0.1169">
        <ele>355</ele>
        <time>2018-09-30T07:11:44Z</time>
      </trkpt>
      <trkpt lat="43.1967" lon="0.1169">
        <ele>355</ele>
        <time>2018-09-30T07:11:45Z</time>
      </trkpt>
      <trkpt lat="43.1967" lon="0.1169">
        <ele>355</ele>
        <time>2018-09-30T07:11:46Z</time>
      </trkpt>
      <trkpt lat="43.1967" lon="0.1169">
        <ele>355</ele>
        <time>2018-09-30T07:11:47Z</time>
      </trkpt>
      <trkpt lat="43.1967" lon="0.1169">
        <ele>355</ele>
        <time>2018-09-30T07:11:48Z</time>
      </trkpt>
      <trkpt lat="43.1967" lon="0.1169">
        <ele>355</ele>
        <time>2018-09-30T07:11:49Z</time>
      </trkpt>
      <trkpt lat="43.1967" lon="0.1169">
        <ele>355</ele>
        <time>2018-09-30T07:11:50Z</time>
      </trkpt>
      <trkpt lat="43.1967" lon="0.1169">
        <ele>355</ele>
        <time>2018-09-30T07:11:51Z</time>
      </trkpt>
      <trkpt lat="43.1967" lon="0.1169">
        <ele>355</ele>
        <time>2018-09-30T07:11:52Z</time>
      </trkpt>
      <trkpt lat="43.1967" lon="0.1169">
        <ele>355</ele>
        <time>2018-09-30T07:11:53Z</time>
      </trkpt>
      <trkpt lat="43.1967" lon="0.1169">
        <ele>355</ele>
        <time>2018-09-30T07:11:54Z</time>
      </trkpt>
      <trkpt lat="43.1967" lon="0.1169">
        <ele>355</ele>
        <time>2018-09-30T07:11:55Z</time>
      </trkpt>
      <trkpt lat="43.1967" lon="0.1169">
        <ele>355</ele>
        <time>2018-09-30T07:11:56Z</time>
      </trkpt>
      <trkpt lat="43.1967" lon="0.1169">
        <ele>355</ele>
        <time>2018-09-30T07:11:57Z</time>
      </trkpt>
      <trkpt lat="43.1967" lon="0.1169">
        <ele>355</ele>
        <time>2018-09-30T07:11:58Z</time>
      </trkpt>
      <trkpt lat="43.1967" lon="0.1169">
        <ele>355</ele>
        <time>2018-09-30T07:11:59Z</time>
      </trkpt>
      <trkpt lat="43.1967" lon="0.1169">
        <ele>355</ele>
        <time>2018-09-30T07:12:00Z</time>
      </trkpt>
      <trkpt lat="43.1967" lon="0.1169">
        <ele>355</ele>
        <time>2018-09-30T07:12:01Z</time>
      </trkpt>
      <trkpt lat="43.1967" lon="0.1169">
        <ele>355</ele>
        <time>2018-09-30T07:12:02Z</time>
      </trkpt>
      <trkpt lat="43.1967" lon="0.1169">
        <ele>355</ele>
        <time>2018-09-30T07:12:03Z</time>
      </trkpt>
      <trkpt lat="43.1967" lon="0.1169">
        <ele>355</ele>
        <time>2018-09-30T07:12:04Z</time>
      </trkpt>
      <trkpt lat="43.1967" lon="0.1169">
        <ele>355</ele>
        <time>2018-09-30T07:12:05Z</time>
      </trkpt>
      <trkpt lat="43.1967" lon="0.1169">
        <ele>355</ele>
        <time>2018-09-30T07:12:06Z</time>
      </trkpt>
      <trkpt lat="43.1967" lon="0.1169">
        <ele>355</ele>
        <time>2018-09-30T07:12:07Z</time>
      </trkpt>
      <trkpt lat="43.1967" lon="0.1169">
        <ele>355</ele>
        <time>2018-09-30T07:12:08Z</time>
      </trkpt>
      <trkpt lat="43.1967" lon="0.1169">
        <ele>355</ele>
        <time>2018-09-30T07:12:09Z</time>
      </trkpt>
      <trkpt lat="43.1967" lon="0.1169">
        <ele>355</ele>
        <time>2018-09-30T07:12:10Z</time>
      </trkpt>
      <trkpt lat="43.1967" lon="0.1169">
        <ele>355</ele>
        <time>2018-09-30T07:12:11Z</time>
      </trkpt>
      <trkpt lat="43.1967" lon="0.1169">
        <ele>355</ele>
        <time>2018-09-30T07:12:12Z</time>
      </trkpt>
      <trkpt lat="43.1967" lon="0.1169">
        <ele>355</ele>
        <time>2018-09-30T07:12:13Z</time>
      </trkpt>
      <trkpt lat="43.1967" lon="0.1169">
        <ele>355</ele>
        <time>2018-09-30T07:12:14Z</time>
      </trkpt>
      <trkpt lat="43.1967" lon="0.1169">
        <ele>355</ele>
        <time>2018-09-30T07:12:15Z</time>
      </trkpt>
      <trkpt lat="43.1967" lon="0.1169">
        <ele>355</ele>
        <time>2018-09-30T07:12:16Z</time>
      </trkpt>
      <trkpt lat="43.1967" lon="0.1169">
        <ele>355</ele>
        <time>2018-09-30T07:12:17Z</time>
      </trkpt>
      <trkpt lat="43.1967" lon="0.11689">
        <ele>355</ele>
        <time>2018-09-30T07:12:18Z</time>
      </trkpt>
      <trkpt lat="43.1967" lon="0.11689">
        <ele>355</ele>
        <time>2018-09-30T07:12:19Z</time>
      </trkpt>
      <trkpt lat="43.1967" lon="0.11689">
        <ele>355</ele>
        <time>2018-09-30T07:12:20Z</time>
      </trkpt>
      <trkpt lat="43.1967" lon="0.11689">
        <ele>355</ele>
        <time>2018-09-30T07:12:21Z</time>
      </trkpt>
      <trkpt lat="43.1967" lon="0.11689">
        <ele>355</ele>
        <time>2018-09-30T07:12:22Z</time>
      </trkpt>
      <trkpt lat="43.1967" lon="0.11689">
        <ele>355</ele>
        <time>2018-09-30T07:12:23Z</time>
      </trkpt>
      <trkpt lat="43.1967" lon="0.11689">
        <ele>355</ele>
        <time>2018-09-30T07:12:24Z</time>
      </trkpt>
      <trkpt lat="43.1967" lon="0.11689">
        <ele>355</ele>
        <time>2018-09-30T07:12:25Z</time>
      </trkpt>
      <trkpt lat="43.1967" lon="0.11689">
        <ele>356</ele>
        <time>2018-09-30T07:12:26Z</time>
      </trkpt>
      <trkpt lat="43.1967" lon="0.11689">
        <ele>356</ele>
        <time>2018-09-30T07:12:27Z</time>
      </trkpt>
      <trkpt lat="43.1967" lon="0.11689">
        <ele>356</ele>
        <time>2018-09-30T07:12:28Z</time>
      </trkpt>
      <trkpt lat="43.1967" lon="0.11689">
        <ele>356</ele>
        <time>2018-09-30T07:12:29Z</time>
      </trkpt>
      <trkpt lat="43.1967" lon="0.11689">
        <ele>356</ele>
        <time>2018-09-30T07:12:30Z</time>
      </trkpt>
      <trkpt lat="43.1967" lon="0.11689">
        <ele>356</ele>
        <time>2018-09-30T07:12:31Z</time>
      </trkpt>
      <trkpt lat="43.1967" lon="0.11689">
        <ele>356</ele>
        <time>2018-09-30T07:12:32Z</time>
      </trkpt>
      <trkpt lat="43.1967" lon="0.11689">
        <ele>356</ele>
        <time>2018-09-30T07:12:33Z</time>
      </trkpt>
      <trkpt lat="43.1967" lon="0.11689">
        <ele>356</ele>
        <time>2018-09-30T07:12:34Z</time>
      </trkpt>
      <trkpt lat="43.1967" lon="0.11689">
        <ele>356</ele>
        <time>2018-09-30T07:12:35Z</time>
      </trkpt>
      <trkpt lat="43.1967" lon="0.11689">
        <ele>356</ele>
        <time>2018-09-30T07:12:36Z</time>
      </trkpt>
      <trkpt lat="43.1967" lon="0.11688">
        <ele>356</ele>
        <time>2018-09-30T07:12:37Z</time>
      </trkpt>
      <trkpt lat="43.19671" lon="0.11687">
        <ele>356</ele>
        <time>2018-09-30T07:12:38Z</time>
      </trkpt>
      <trkpt lat="43.19671" lon="0.11686">
        <ele>356</ele>
        <time>2018-09-30T07:12:39Z</time>
      </trkpt>
      <trkpt lat="43.19671" lon="0.11685">
        <ele>357</ele>
        <time>2018-09-30T07:12:40Z</time>
      </trkpt>
      <trkpt lat="43.19671" lon="0.11684">
        <ele>357</ele>
        <time>2018-09-30T07:12:41Z</time>
      </trkpt>
      <trkpt lat="43.19672" lon="0.11683">
        <ele>357</ele>
        <time>2018-09-30T07:12:42Z</time>
      </trkpt>
      <trkpt lat="43.19672" lon="0.11682">
        <ele>357</ele>
        <time>2018-09-30T07:12:43Z</time>
      </trkpt>
      <trkpt lat="43.19673" lon="0.1168">
        <ele>357</ele>
        <time>2018-09-30T07:12:44Z</time>
      </trkpt>
      <trkpt lat="43.19673" lon="0.11678">
        <ele>357</ele>
        <time>2018-09-30T07:12:45Z</time>
      </trkpt>
      <trkpt lat="43.19673" lon="0.11676">
        <ele>358</ele>
        <time>2018-09-30T07:12:47Z</time>
      </trkpt>
      <trkpt lat="43.19674" lon="0.11674">
        <ele>358</ele>
        <time>2018-09-30T07:12:48Z</time>
      </trkpt>
      <trkpt lat="43.19673" lon="0.11672">
        <ele>358</ele>
        <time>2018-09-30T07:12:49Z</time>
      </trkpt>
      <trkpt lat="43.19672" lon="0.11669">
        <ele>358</ele>
        <time>2018-09-30T07:12:50Z</time>
      </trkpt>
      <trkpt lat="43.19671" lon="0.11667">
        <ele>358</ele>
        <time>2018-09-30T07:12:51Z</time>
      </trkpt>
      <trkpt lat="43.1967" lon="0.11664">
        <ele>358</ele>
        <time>2018-09-30T07:12:52Z</time>
      </trkpt>
      <trkpt lat="43.19668" lon="0.11662">
        <ele>358</ele>
        <time>2018-09-30T07:12:53Z</time>
      </trkpt>
      <trkpt lat="43.19665" lon="0.11661">
        <ele>358</ele>
        <time>2018-09-30T07:12:54Z</time>
      </trkpt>
      <trkpt lat="43.19662" lon="0.1166">
        <ele>358</ele>
        <time>2018-09-30T07:12:55Z</time>
      </trkpt>
      <trkpt lat="43.1966" lon="0.1166">
        <ele>358</ele>
        <time>2018-09-30T07:12:56Z</time>
      </trkpt>
      <trkpt lat="43.19657" lon="0.1166">
        <ele>358</ele>
        <time>2018-09-30T07:12:57Z</time>
      </trkpt>
      <trkpt lat="43.19654" lon="0.11661">
        <ele>358</ele>
        <time>2018-09-30T07:12:58Z</time>
      </trkpt>
      <trkpt lat="43.19651" lon="0.11661">
        <ele>358</ele>
        <time>2018-09-30T07:12:59Z</time>
      </trkpt>
      <trkpt lat="43.19648" lon="0.11661">
        <ele>358</ele>
        <time>2018-09-30T07:13:00Z</time>
      </trkpt>
      <trkpt lat="43.19645" lon="0.11662">
        <ele>358</ele>
        <time>2018-09-30T07:13:01Z</time>
      </trkpt>
      <trkpt lat="43.19642" lon="0.11662">
        <ele>358</ele>
        <time>2018-09-30T07:13:02Z</time>
      </trkpt>
      <trkpt lat="43.19639" lon="0.11662">
        <ele>358</ele>
        <time>2018-09-30T07:13:03Z</time>
      </trkpt>
      <trkpt lat="43.19636" lon="0.11662">
        <ele>358</ele>
        <time>2018-09-30T07:13:04Z</time>
      </trkpt>
      <trkpt lat="43.19633" lon="0.11663">
        <ele>358</ele>
        <time>2018-09-30T07:13:05Z</time>
      </trkpt>
      <trkpt lat="43.1963" lon="0.11663">
        <ele>358</ele>
        <time>2018-09-30T07:13:06Z</time>
      </trkpt>
      <trkpt lat="43.19627" lon="0.11664">
        <ele>358</ele>
        <time>2018-09-30T07:13:07Z</time>
      </trkpt>
      <trkpt lat="43.19624" lon="0.11664">
        <ele>358</ele>
        <time>2018-09-30T07:13:08Z</time>
      </trkpt>
      <trkpt lat="43.19621" lon="0.11664">
        <ele>358</ele>
        <time>2018-09-30T07:13:09Z</time>
      </trkpt>
      <trkpt lat="43.19618" lon="0.11665">
        <ele>358</ele>
        <time>2018-09-30T07:13:10Z</time>
      </trkpt>
      <trkpt lat="43.19615" lon="0.11665">
        <ele>358</ele>
        <time>2018-09-30T07:13:11Z</time>
      </trkpt>
      <trkpt lat="43.19612" lon="0.11666">
        <ele>358</ele>
        <time>2018-09-30T07:13:12Z</time>
      </trkpt>
      <trkpt lat="43.19609" lon="0.11667">
        <ele>358</ele>
        <time>2018-09-30T07:13:13Z</time>
      </trkpt>
      <trkpt lat="43.19607" lon="0.11669">
        <ele>358</ele>
        <time>2018-09-30T07:13:14Z</time>
      </trkpt>
      <trkpt lat="43.19605" lon="0.11672">
        <ele>358</ele>
        <time>2018-09-30T07:13:15Z</time>
      </trkpt>
      <trkpt lat="43.19605" lon="0.11676">
        <ele>358</ele>
        <time>2018-09-30T07:13:16Z</time>
      </trkpt>
      <trkpt lat="43.19604" lon="0.11682">
        <ele>358</ele>
        <time>2018-09-30T07:13:17Z</time>
      </trkpt>
      <trkpt lat="43.19604" lon="0.11687">
        <ele>358</ele>
        <time>2018-09-30T07:13:18Z</time>
      </trkpt>
      <trkpt lat="43.19604" lon="0.11693">
        <ele>358</ele>
        <time>2018-09-30T07:13:19Z</time>
      </trkpt>
      <trkpt lat="43.19604" lon="0.11699">
        <ele>358</ele>
        <time>2018-09-30T07:13:20Z</time>
      </trkpt>
      <trkpt lat="43.19604" lon="0.11704">
        <ele>358</ele>
        <time>2018-09-30T07:13:21Z</time>
      </trkpt>
      <trkpt lat="43.19604" lon="0.11709">
        <ele>358</ele>
        <time>2018-09-30T07:13:22Z</time>
      </trkpt>
      <trkpt lat="43.19603" lon="0.11713">
        <ele>358</ele>
        <time>2018-09-30T07:13:23Z</time>
      </trkpt>
      <trkpt lat="43.19602" lon="0.11718">
        <ele>358</ele>
        <time>2018-09-30T07:13:24Z</time>
      </trkpt>
      <trkpt lat="43.196" lon="0.11721">
        <ele>358</ele>
        <time>2018-09-30T07:13:25Z</time>
      </trkpt>
      <trkpt lat="43.19597" lon="0.11723">
        <ele>358</ele>
        <time>2018-09-30T07:13:26Z</time>
      </trkpt>
      <trkpt lat="43.19593" lon="0.11724">
        <ele>358</ele>
        <time>2018-09-30T07:13:27Z</time>
      </trkpt>
      <trkpt lat="43.1959" lon="0.11723">
        <ele>358</ele>
        <time>2018-09-30T07:13:28Z</time>
      </trkpt>
      <trkpt lat="43.19586" lon="0.11723">
        <ele>358</ele>
        <time>2018-09-30T07:13:29Z</time>
      </trkpt>
      <trkpt lat="43.19582" lon="0.11723">
        <ele>358</ele>
        <time>2018-09-30T07:13:30Z</time>
      </trkpt>
      <trkpt lat="43.19578" lon="0.11723">
        <ele>358</ele>
        <time>2018-09-30T07:13:31Z</time>
      </trkpt>
      <trkpt lat="43.19575" lon="0.11723">
        <ele>358</ele>
        <time>2018-09-30T07:13:32Z</time>
      </trkpt>
      <trkpt lat="43.19571" lon="0.11723">
        <ele>358</ele>
        <time>2018-09-30T07:13:33Z</time>
      </trkpt>
      <trkpt lat="43.19567" lon="0.11724">
        <ele>358</ele>
        <time>2018-09-30T07:13:34Z</time>
      </trkpt>
      <trkpt lat="43.19564" lon="0.11724">
        <ele>358</ele>
        <time>2018-09-30T07:13:35Z</time>
      </trkpt>
      <trkpt lat="43.1956" lon="0.11724">
        <ele>358</ele>
        <time>2018-09-30T07:13:36Z</time>
      </trkpt>
      <trkpt lat="43.19556" lon="0.11724">
        <ele>358</ele>
        <time>2018-09-30T07:13:37Z</time>
      </trkpt>
      <trkpt lat="43.19552" lon="0.11724">
        <ele>358</ele>
        <time>2018-09-30T07:13:38Z</time>
      </trkpt>
      <trkpt lat="43.19548" lon="0.11724">
        <ele>359</ele>
        <time>2018-09-30T07:13:39Z</time>
      </trkpt>
      <trkpt lat="43.19544" lon="0.11724">
        <ele>359</ele>
        <time>2018-09-30T07:13:40Z</time>
      </trkpt>
      <trkpt lat="43.19541" lon="0.11724">
        <ele>359</ele>
        <time>2018-09-30T07:13:41Z</time>
      </trkpt>
      <trkpt lat="43.19537" lon="0.11724">
        <ele>359</ele>
        <time>2018-09-30T07:13:42Z</time>
      </trkpt>
      <trkpt lat="43.19534" lon="0.11724">
        <ele>359</ele>
        <time>2018-09-30T07:13:43Z</time>
      </trkpt>
      <trkpt lat="43.19531" lon="0.11722">
        <ele>359</ele>
        <time>2018-09-30T07:13:44Z</time>
      </trkpt>
      <trkpt lat="43.19529" lon="0.1172">
        <ele>359</ele>
        <time>2018-09-30T07:13:45Z</time>
      </trkpt>
      <trkpt lat="43.19528" lon="0.11715">
        <ele>359</ele>
        <time>2018-09-30T07:13:46Z</time>
      </trkpt>
      <trkpt lat="43.19527" lon="0.1171">
        <ele>359</ele>
        <time>2018-09-30T07:13:47Z</time>
      </trkpt>
      <trkpt lat="43.19526" lon="0.11703">
        <ele>359</ele>
        <time>2018-09-30T07:13:48Z</time>
      </trkpt>
      <trkpt lat="43.19526" lon="0.11697">
        <ele>359</ele>
        <time>2018-09-30T07:13:49Z</time>
      </trkpt>
      <trkpt lat="43.19526" lon="0.11691">
        <ele>359</ele>
        <time>2018-09-30T07:13:50Z</time>
      </trkpt>
      <trkpt lat="43.19526" lon="0.11685">
        <ele>359</ele>
        <time>2018-09-30T07:13:51Z</time>
      </trkpt>
      <trkpt lat="43.19525" lon="0.11679">
        <ele>359</ele>
        <time>2018-09-30T07:13:52Z</time>
      </trkpt>
      <trkpt lat="43.19525" lon="0.11673">
        <ele>358</ele>
        <time>2018-09-30T07:13:53Z</time>
      </trkpt>
      <trkpt lat="43.19525" lon="0.11667">
        <ele>358</ele>
        <time>2018-09-30T07:13:54Z</time>
      </trkpt>
      <trkpt lat="43.19525" lon="0.11661">
        <ele>358</ele>
        <time>2018-09-30T07:13:55Z</time>
      </trkpt>
      <trkpt lat="43.19525" lon="0.11654">
        <ele>358</ele>
        <time>2018-09-30T07:13:56Z</time>
      </trkpt>
      <trkpt lat="43.19524" lon="0.11648">
        <ele>358</ele>
        <time>2018-09-30T07:13:57Z</time>
      </trkpt>
      <trkpt lat="43.19524" lon="0.11642">
        <ele>358</ele>
        <time>2018-09-30T07:13:58Z</time>
      </trkpt>
      <trkpt lat="43.19524" lon="0.11636">
        <ele>358</ele>
        <time>2018-09-30T07:13:59Z</time>
      </trkpt>
      <trkpt lat="43.19524" lon="0.11629">
        <ele>358</ele>
        <time>2018-09-30T07:14:00Z</time>
      </trkpt>
      <trkpt lat="43.19524" lon="0.11624">
        <ele>358</ele>
        <time>2018-09-30T07:14:01Z</time>
      </trkpt>
      <trkpt lat="43.19523" lon="0.11618">
        <ele>358</ele>
        <time>2018-09-30T07:14:02Z</time>
      </trkpt>
      <trkpt lat="43.19523" lon="0.11611">
        <ele>358</ele>
        <time>2018-09-30T07:14:03Z</time>
      </trkpt>
      <trkpt lat="43.19523" lon="0.11605">
        <ele>358</ele>
        <time>2018-09-30T07:14:04Z</time>
      </trkpt>
      <trkpt lat="43.19523" lon="0.11599">
        <ele>358</ele>
        <time>2018-09-30T07:14:05Z</time>
      </trkpt>
      <trkpt lat="43.19522" lon="0.11592">
        <ele>358</ele>
        <time>2018-09-30T07:14:06Z</time>
      </trkpt>
      <trkpt lat="43.19522" lon="0.11586">
        <ele>358</ele>
        <time>2018-09-30T07:14:07Z</time>
      </trkpt>
      <trkpt lat="43.19523" lon="0.11579">
        <ele>358</ele>
        <time>2018-09-30T07:14:08Z</time>
      </trkpt>
      <trkpt lat="43.19523" lon="0.11572">
        <ele>358</ele>
        <time>2018-09-30T07:14:09Z</time>
      </trkpt>
      <trkpt lat="43.19523" lon="0.11565">
        <ele>358</ele>
        <time>2018-09-30T07:14:10Z</time>
      </trkpt>
      <trkpt lat="43.19523" lon="0.11558">
        <ele>358</ele>
        <time>2018-09-30T07:14:11Z</time>
      </trkpt>
      <trkpt lat="43.19522" lon="0.1155">
        <ele>358</ele>
        <time>2018-09-30T07:14:12Z</time>
      </trkpt>
      <trkpt lat="43.19522" lon="0.11543">
        <ele>358</ele>
        <time>2018-09-30T07:14:13Z</time>
      </trkpt>
      <trkpt lat="43.19522" lon="0.11536">
        <ele>358</ele>
        <time>2018-09-30T07:14:14Z</time>
      </trkpt>
      <trkpt lat="43.19522" lon="0.1153">
        <ele>358</ele>
        <time>2018-09-30T07:14:15Z</time>
      </trkpt>
      <trkpt lat="43.19522" lon="0.11523">
        <ele>358</ele>
        <time>2018-09-30T07:14:16Z</time>
      </trkpt>
      <trkpt lat="43.19522" lon="0.11517">
        <ele>358</ele>
        <time>2018-09-30T07:14:17Z</time>
      </trkpt>
      <trkpt lat="43.19521" lon="0.1151">
        <ele>358</ele>
        <time>2018-09-30T07:14:18Z</time>
      </trkpt>
      <trkpt lat="43.19522" lon="0.11503">
        <ele>358</ele>
        <time>2018-09-30T07:14:19Z</time>
      </trkpt>
      <trkpt lat="43.19522" lon="0.11496">
        <ele>358</ele>
        <time>2018-09-30T07:14:20Z</time>
      </trkpt>
      <trkpt lat="43.19522" lon="0.1149">
        <ele>358</ele>
        <time>2018-09-30T07:14:21Z</time>
      </trkpt>
      <trkpt lat="43.19522" lon="0.11483">
        <ele>358</ele>
        <time>2018-09-30T07:14:22Z</time>
      </trkpt>
      <trkpt lat="43.19522" lon="0.11476">
        <ele>358</ele>
        <time>2018-09-30T07:14:23Z</time>
      </trkpt>
      <trkpt lat="43.19522" lon="0.11469">
        <ele>358</ele>
        <time>2018-09-30T07:14:24Z</time>
      </trkpt>
      <trkpt lat="43.19522" lon="0.11463">
        <ele>358</ele>
        <time>2018-09-30T07:14:25Z</time>
      </trkpt>
      <trkpt lat="43.19521" lon="0.11456">
        <ele>358</ele>
        <time>2018-09-30T07:14:26Z</time>
      </trkpt>
      <trkpt lat="43.19521" lon="0.11449">
        <ele>358</ele>
        <time>2018-09-30T07:14:27Z</time>
      </trkpt>
      <trkpt lat="43.19521" lon="0.11443">
        <ele>358</ele>
        <time>2018-09-30T07:14:28Z</time>
      </trkpt>
      <trkpt lat="43.19522" lon="0.11436">
        <ele>358</ele>
        <time>2018-09-30T07:14:29Z</time>
      </trkpt>
      <trkpt lat="43.19522" lon="0.11429">
        <ele>358</ele>
        <time>2018-09-30T07:14:30Z</time>
      </trkpt>
      <trkpt lat="43.19522" lon="0.11422">
        <ele>358</ele>
        <time>2018-09-30T07:14:31Z</time>
      </trkpt>
      <trkpt lat="43.19522" lon="0.11415">
        <ele>357</ele>
        <time>2018-09-30T07:14:32Z</time>
      </trkpt>
      <trkpt lat="43.19522" lon="0.11409">
        <ele>357</ele>
        <time>2018-09-30T07:14:33Z</time>
      </trkpt>
      <trkpt lat="43.19521" lon="0.11402">
        <ele>357</ele>
        <time>2018-09-30T07:14:34Z</time>
      </trkpt>
      <trkpt lat="43.19521" lon="0.11395">
        <ele>357</ele>
        <time>2018-09-30T07:14:35Z</time>
      </trkpt>
      <trkpt lat="43.1952" lon="0.11387">
        <ele>357</ele>
        <time>2018-09-30T07:14:36Z</time>
      </trkpt>
      <trkpt lat="43.1952" lon="0.1138">
        <ele>357</ele>
        <time>2018-09-30T07:14:37Z</time>
      </trkpt>
      <trkpt lat="43.19519" lon="0.11373">
        <ele>357</ele>
        <time>2018-09-30T07:14:38Z</time>
      </trkpt>
      <trkpt lat="43.19519" lon="0.11366">
        <ele>357</ele>
        <time>2018-09-30T07:14:39Z</time>
      </trkpt>
      <trkpt lat="43.19519" lon="0.11359">
        <ele>357</ele>
        <time>2018-09-30T07:14:40Z</time>
      </trkpt>
      <trkpt lat="43.19519" lon="0.11352">
        <ele>357</ele>
        <time>2018-09-30T07:14:41Z</time>
      </trkpt>
      <trkpt lat="43.19519" lon="0.11346">
        <ele>357</ele>
        <time>2018-09-30T07:14:42Z</time>
      </trkpt>
      <trkpt lat="43.19519" lon="0.11339">
        <ele>357</ele>
        <time>2018-09-30T07:14:43Z</time>
      </trkpt>
      <trkpt lat="43.19519" lon="0.11333">
        <ele>357</ele>
        <time>2018-09-30T07:14:44Z</time>
      </trkpt>
      <trkpt lat="43.19519" lon="0.11326">
        <ele>357</ele>
        <time>2018-09-30T07:14:45Z</time>
      </trkpt>
      <trkpt lat="43.19519" lon="0.1132">
        <ele>357</ele>
        <time>2018-09-30T07:14:46Z</time>
      </trkpt>
      <trkpt lat="43.19519" lon="0.11313">
        <ele>357</ele>
        <time>2018-09-30T07:14:47Z</time>
      </trkpt>
      <trkpt lat="43.19518" lon="0.11307">
        <ele>357</ele>
        <time>2018-09-30T07:14:48Z</time>
      </trkpt>
      <trkpt lat="43.19517" lon="0.113">
        <ele>357</ele>
        <time>2018-09-30T07:14:49Z</time>
      </trkpt>
      <trkpt lat="43.19517" lon="0.11294">
        <ele>357</ele>
        <time>2018-09-30T07:14:50Z</time>
      </trkpt>
      <trkpt lat="43.19516" lon="0.11288">
        <ele>357</ele>
        <time>2018-09-30T07:14:51Z</time>
      </trkpt>
      <trkpt lat="43.19514" lon="0.11281">
        <ele>357</ele>
        <time>2018-09-30T07:14:52Z</time>
      </trkpt>
      <trkpt lat="43.19512" lon="0.11275">
        <ele>357</ele>
        <time>2018-09-30T07:14:53Z</time>
      </trkpt>
      <trkpt lat="43.1951" lon="0.11269">
        <ele>358</ele>
        <time>2018-09-30T07:14:54Z</time>
      </trkpt>
      <trkpt lat="43.19508" lon="0.11262">
        <ele>358</ele>
        <time>2018-09-30T07:14:55Z</time>
      </trkpt>
      <trkpt lat="43.19506" lon="0.11256">
        <ele>358</ele>
        <time>2018-09-30T07:14:56Z</time>
      </trkpt>
      <trkpt lat="43.19503" lon="0.11251">
        <ele>358</ele>
        <time>2018-09-30T07:14:57Z</time>
      </trkpt>
      <trkpt lat="43.19499" lon="0.11247">
        <ele>358</ele>
        <time>2018-09-30T07:14:58Z</time>
      </trkpt>
      <trkpt lat="43.19494" lon="0.11244">
        <ele>358</ele>
        <time>2018-09-30T07:14:59Z</time>
      </trkpt>
      <trkpt lat="43.19489" lon="0.11241">
        <ele>358</ele>
        <time>2018-09-30T07:15:00Z</time>
      </trkpt>
      <trkpt lat="43.19484" lon="0.11239">
        <ele>358</ele>
        <time>2018-09-30T07:15:01Z</time>
      </trkpt>
      <trkpt lat="43.19479" lon="0.11236">
        <ele>358</ele>
        <time>2018-09-30T07:15:02Z</time>
      </trkpt>
      <trkpt lat="43.19474" lon="0.11233">
        <ele>358</ele>
        <time>2018-09-30T07:15:03Z</time>
      </trkpt>
      <trkpt lat="43.19469" lon="0.1123">
        <ele>358</ele>
        <time>2018-09-30T07:15:04Z</time>
      </trkpt>
      <trkpt lat="43.19465" lon="0.11227">
        <ele>358</ele>
        <time>2018-09-30T07:15:05Z</time>
      </trkpt>
      <trkpt lat="43.1946" lon="0.11224">
        <ele>359</ele>
        <time>2018-09-30T07:15:06Z</time>
      </trkpt>
      <trkpt lat="43.19456" lon="0.11221">
        <ele>359</ele>
        <time>2018-09-30T07:15:07Z</time>
      </trkpt>
      <trkpt lat="43.19451" lon="0.11218">
        <ele>359</ele>
        <time>2018-09-30T07:15:08Z</time>
      </trkpt>
      <trkpt lat="43.19447" lon="0.11214">
        <ele>359</ele>
        <time>2018-09-30T07:15:09Z</time>
      </trkpt>
      <trkpt lat="43.19442" lon="0.11211">
        <ele>359</ele>
        <time>2018-09-30T07:15:10Z</time>
      </trkpt>
      <trkpt lat="43.19437" lon="0.11208">
        <ele>358</ele>
        <time>2018-09-30T07:15:11Z</time>
      </trkpt>
      <trkpt lat="43.19433" lon="0.11204">
        <ele>358</ele>
        <time>2018-09-30T07:15:12Z</time>
      </trkpt>
      <trkpt lat="43.19429" lon="0.112">
        <ele>358</ele>
        <time>2018-09-30T07:15:13Z</time>
      </trkpt>
      <trkpt lat="43.19424" lon="0.11197">
        <ele>358</ele>
        <time>2018-09-30T07:15:14Z</time>
      </trkpt>
      <trkpt lat="43.1942" lon="0.11193">
        <ele>358</ele>
        <time>2018-09-30T07:15:15Z</time>
      </trkpt>
      <trkpt lat="43.19416" lon="0.11189">
        <ele>357</ele>
        <time>2018-09-30T07:15:16Z</time>
      </trkpt>
      <trkpt lat="43.19413" lon="0.11186">
        <ele>357</ele>
        <time>2018-09-30T07:15:17Z</time>
      </trkpt>
      <trkpt lat="43.19409" lon="0.11181">
        <ele>357</ele>
        <time>2018-09-30T07:15:18Z</time>
      </trkpt>
      <trkpt lat="43.19404" lon="0.11177">
        <ele>357</ele>
        <time>2018-09-30T07:15:19Z</time>
      </trkpt>
      <trkpt lat="43.194" lon="0.11173">
        <ele>358</ele>
        <time>2018-09-30T07:15:20Z</time>
      </trkpt>
      <trkpt lat="43.19396" lon="0.11169">
        <ele>358</ele>
        <time>2018-09-30T07:15:21Z</time>
      </trkpt>
      <trkpt lat="43.19392" lon="0.11165">
        <ele>358</ele>
        <time>2018-09-30T07:15:22Z</time>
      </trkpt>
      <trkpt lat="43.19387" lon="0.1116">
        <ele>358</ele>
        <time>2018-09-30T07:15:23Z</time>
      </trkpt>
      <trkpt lat="43.19383" lon="0.11156">
        <ele>358</ele>
        <time>2018-09-30T07:15:24Z</time>
      </trkpt>
      <trkpt lat="43.19378" lon="0.11152">
        <ele>358</ele>
        <time>2018-09-30T07:15:25Z</time>
      </trkpt>
      <trkpt lat="43.19373" lon="0.11148">
        <ele>358</ele>
        <time>2018-09-30T07:15:26Z</time>
      </trkpt>
      <trkpt lat="43.19369" lon="0.11145">
        <ele>358</ele>
        <time>2018-09-30T07:15:27Z</time>
      </trkpt>
      <trkpt lat="43.19364" lon="0.11141">
        <ele>358</ele>
        <time>2018-09-30T07:15:28Z</time>
      </trkpt>
      <trkpt lat="43.1936" lon="0.11137">
        <ele>358</ele>
        <time>2018-09-30T07:15:29Z</time>
      </trkpt>
      <trkpt lat="43.19355" lon="0.11134">
        <ele>359</ele>
        <time>2018-09-30T07:15:30Z</time>
      </trkpt>
      <trkpt lat="43.19351" lon="0.1113">
        <ele>359</ele>
        <time>2018-09-30T07:15:31Z</time>
      </trkpt>
      <trkpt lat="43.19347" lon="0.11127">
        <ele>359</ele>
        <time>2018-09-30T07:15:32Z</time>
      </trkpt>
      <trkpt lat="43.19343" lon="0.11123">
        <ele>358</ele>
        <time>2018-09-30T07:15:33Z</time>
      </trkpt>
      <trkpt lat="43.19339" lon="0.11119">
        <ele>358</ele>
        <time>2018-09-30T07:15:34Z</time>
      </trkpt>
      <trkpt lat="43.19335" lon="0.11115">
        <ele>358</ele>
        <time>2018-09-30T07:15:35Z</time>
      </trkpt>
      <trkpt lat="43.19331" lon="0.11111">
        <ele>358</ele>
        <time>2018-09-30T07:15:36Z</time>
      </trkpt>
      <trkpt lat="43.19327" lon="0.11107">
        <ele>358</ele>
        <time>2018-09-30T07:15:37Z</time>
      </trkpt>
      <trkpt lat="43.19323" lon="0.11102">
        <ele>358</ele>
        <time>2018-09-30T07:15:38Z</time>
      </trkpt>
      <trkpt lat="43.19319" lon="0.11098">
        <ele>358</ele>
        <time>2018-09-30T07:15:39Z</time>
      </trkpt>
      <trkpt lat="43.19315" lon="0.11093">
        <ele>358</ele>
        <time>2018-09-30T07:15:40Z</time>
      </trkpt>
      <trkpt lat="43.19311" lon="0.11089">
        <ele>358</ele>
        <time>2018-09-30T07:15:41Z</time>
      </trkpt>
      <trkpt lat="43.19308" lon="0.11085">
        <ele>358</ele>
        <time>2018-09-30T07:15:42Z</time>
      </trkpt>
      <trkpt lat="43.19304" lon="0.1108">
        <ele>359</ele>
        <time>2018-09-30T07:15:43Z</time>
      </trkpt>
      <trkpt lat="43.193" lon="0.11076">
        <ele>359</ele>
        <time>2018-09-30T07:15:44Z</time>
      </trkpt>
      <trkpt lat="43.19296" lon="0.11071">
        <ele>359</ele>
        <time>2018-09-30T07:15:45Z</time>
      </trkpt>
      <trkpt lat="43.19292" lon="0.11067">
        <ele>359</ele>
        <time>2018-09-30T07:15:46Z</time>
      </trkpt>
      <trkpt lat="43.19289" lon="0.11062">
        <ele>359</ele>
        <time>2018-09-30T07:15:47Z</time>
      </trkpt>
      <trkpt lat="43.19285" lon="0.11058">
        <ele>360</ele>
        <time>2018-09-30T07:15:48Z</time>
      </trkpt>
      <trkpt lat="43.19282" lon="0.11053">
        <ele>360</ele>
        <time>2018-09-30T07:15:49Z</time>
      </trkpt>
      <trkpt lat="43.19278" lon="0.11048">
        <ele>360</ele>
        <time>2018-09-30T07:15:50Z</time>
      </trkpt>
      <trkpt lat="43.19275" lon="0.11043">
        <ele>360</ele>
        <time>2018-09-30T07:15:51Z</time>
      </trkpt>
      <trkpt lat="43.19272" lon="0.11037">
        <ele>360</ele>
        <time>2018-09-30T07:15:52Z</time>
      </trkpt>
      <trkpt lat="43.1927" lon="0.11031">
        <ele>360</ele>
        <time>2018-09-30T07:15:53Z</time>
      </trkpt>
      <trkpt lat="43.19267" lon="0.11025">
        <ele>360</ele>
        <time>2018-09-30T07:15:54Z</time>
      </trkpt>
      <trkpt lat="43.19266" lon="0.11018">
        <ele>360</ele>
        <time>2018-09-30T07:15:55Z</time>
      </trkpt>
      <trkpt lat="43.19264" lon="0.11012">
        <ele>360</ele>
        <time>2018-09-30T07:15:56Z</time>
      </trkpt>
      <trkpt lat="43.19263" lon="0.11005">
        <ele>360</ele>
        <time>2018-09-30T07:15:57Z</time>
      </trkpt>
      <trkpt lat="43.19261" lon="0.10999">
        <ele>360</ele>
        <time>2018-09-30T07:15:58Z</time>
      </trkpt>
      <trkpt lat="43.1926" lon="0.10993">
        <ele>360</ele>
        <time>2018-09-30T07:15:59Z</time>
      </trkpt>
      <trkpt lat="43.19258" lon="0.10987">
        <ele>360</ele>
        <time>2018-09-30T07:16:00Z</time>
      </trkpt>
      <trkpt lat="43.19255" lon="0.10981">
        <ele>359</ele>
        <time>2018-09-30T07:16:01Z</time>
      </trkpt>
      <trkpt lat="43.19251" lon="0.10975">
        <ele>359</ele>
        <time>2018-09-30T07:16:02Z</time>
      </trkpt>
      <trkpt lat="43.19248" lon="0.10971">
        <ele>359</ele>
        <time>2018-09-30T07:16:03Z</time>
      </trkpt>
      <trkpt lat="43.19243" lon="0.10967">
        <ele>359</ele>
        <time>2018-09-30T07:16:04Z</time>
      </trkpt>
      <trkpt lat="43.19238" lon="0.10965">
        <ele>359</ele>
        <time>2018-09-30T07:16:05Z</time>
      </trkpt>
      <trkpt lat="43.19233" lon="0.10963">
        <ele>359</ele>
        <time>2018-09-30T07:16:06Z</time>
      </trkpt>
      <trkpt lat="43.19228" lon="0.10961">
        <ele>359</ele>
        <time>2018-09-30T07:16:07Z</time>
      </trkpt>
      <trkpt lat="43.19224" lon="0.10958">
        <ele>359</ele>
        <time>2018-09-30T07:16:08Z</time>
      </trkpt>
      <trkpt lat="43.1922" lon="0.10954">
        <ele>359</ele>
        <time>2018-09-30T07:16:09Z</time>
      </trkpt>
      <trkpt lat="43.19217" lon="0.10949">
        <ele>359</ele>
        <time>2018-09-30T07:16:10Z</time>
      </trkpt>
      <trkpt lat="43.19214" lon="0.10943">
        <ele>359</ele>
        <time>2018-09-30T07:16:11Z</time>
      </trkpt>
      <trkpt lat="43.19211" lon="0.10936">
        <ele>359</ele>
        <time>2018-09-30T07:16:12Z</time>
      </trkpt>
      <trkpt lat="43.19209" lon="0.10929">
        <ele>359</ele>
        <time>2018-09-30T07:16:13Z</time>
      </trkpt>
      <trkpt lat="43.19207" lon="0.10922">
        <ele>359</ele>
        <time>2018-09-30T07:16:14Z</time>
      </trkpt>
      <trkpt lat="43.19206" lon="0.10916">
        <ele>360</ele>
        <time>2018-09-30T07:16:15Z</time>
      </trkpt>
      <trkpt lat="43.19204" lon="0.10909">
        <ele>360</ele>
        <time>2018-09-30T07:16:16Z</time>
      </trkpt>
      <trkpt lat="43.19203" lon="0.10902">
        <ele>360</ele>
        <time>2018-09-30T07:16:17Z</time>
      </trkpt>
      <trkpt lat="43.19201" lon="0.10895">
        <ele>360</ele>
        <time>2018-09-30T07:16:18Z</time>
      </trkpt>
      <trkpt lat="43.19199" lon="0.10888">
        <ele>361</ele>
        <time>2018-09-30T07:16:19Z</time>
      </trkpt>
      <trkpt lat="43.19198" lon="0.10881">
        <ele>361</ele>
        <time>2018-09-30T07:16:20Z</time>
      </trkpt>
      <trkpt lat="43.19196" lon="0.10874">
        <ele>362</ele>
        <time>2018-09-30T07:16:21Z</time>
      </trkpt>
      <trkpt lat="43.19193" lon="0.10868">
        <ele>362</ele>
        <time>2018-09-30T07:16:22Z</time>
      </trkpt>
      <trkpt lat="43.1919" lon="0.10861">
        <ele>362</ele>
        <time>2018-09-30T07:16:23Z</time>
      </trkpt>
      <trkpt lat="43.19188" lon="0.10854">
        <ele>363</ele>
        <time>2018-09-30T07:16:24Z</time>
      </trkpt>
      <trkpt lat="43.19186" lon="0.10848">
        <ele>363</ele>
        <time>2018-09-30T07:16:25Z</time>
      </trkpt>
      <trkpt lat="43.19183" lon="0.10841">
        <ele>363</ele>
        <time>2018-09-30T07:16:26Z</time>
      </trkpt>
      <trkpt lat="43.19181" lon="0.10834">
        <ele>363</ele>
        <time>2018-09-30T07:16:27Z</time>
      </trkpt>
      <trkpt lat="43.19178" lon="0.10828">
        <ele>363</ele>
        <time>2018-09-30T07:16:28Z</time>
      </trkpt>
      <trkpt lat="43.19176" lon="0.10822">
        <ele>363</ele>
        <time>2018-09-30T07:16:29Z</time>
      </trkpt>
      <trkpt lat="43.19174" lon="0.10817">
        <ele>363</ele>
        <time>2018-09-30T07:16:30Z</time>
      </trkpt>
      <trkpt lat="43.19172" lon="0.10812">
        <ele>363</ele>
        <time>2018-09-30T07:16:31Z</time>
      </trkpt>
      <trkpt lat="43.1917" lon="0.10806">
        <ele>363</ele>
        <time>2018-09-30T07:16:32Z</time>
      </trkpt>
      <trkpt lat="43.19166" lon="0.108">
        <ele>363</ele>
        <time>2018-09-30T07:16:33Z</time>
      </trkpt>
      <trkpt lat="43.19164" lon="0.10794">
        <ele>363</ele>
        <time>2018-09-30T07:16:34Z</time>
      </trkpt>
      <trkpt lat="43.1916" lon="0.10788">
        <ele>363</ele>
        <time>2018-09-30T07:16:35Z</time>
      </trkpt>
      <trkpt lat="43.19157" lon="0.10782">
        <ele>363</ele>
        <time>2018-09-30T07:16:36Z</time>
      </trkpt>
      <trkpt lat="43.19153" lon="0.10776">
        <ele>362</ele>
        <time>2018-09-30T07:16:37Z</time>
      </trkpt>
      <trkpt lat="43.1915" lon="0.10769">
        <ele>362</ele>
        <time>2018-09-30T07:16:38Z</time>
      </trkpt>
      <trkpt lat="43.19146" lon="0.10763">
        <ele>362</ele>
        <time>2018-09-30T07:16:39Z</time>
      </trkpt>
      <trkpt lat="43.19143" lon="0.10756">
        <ele>362</ele>
        <time>2018-09-30T07:16:40Z</time>
      </trkpt>
      <trkpt lat="43.19139" lon="0.1075">
        <ele>362</ele>
        <time>2018-09-30T07:16:41Z</time>
      </trkpt>
      <trkpt lat="43.19136" lon="0.10744">
        <ele>362</ele>
        <time>2018-09-30T07:16:42Z</time>
      </trkpt>
      <trkpt lat="43.19132" lon="0.10738">
        <ele>362</ele>
        <time>2018-09-30T07:16:43Z</time>
      </trkpt>
      <trkpt lat="43.19129" lon="0.10732">
        <ele>362</ele>
        <time>2018-09-30T07:16:44Z</time>
      </trkpt>
      <trkpt lat="43.19126" lon="0.10726">
        <ele>362</ele>
        <time>2018-09-30T07:16:45Z</time>
      </trkpt>
      <trkpt lat="43.19122" lon="0.1072">
        <ele>362</ele>
        <time>2018-09-30T07:16:46Z</time>
      </trkpt>
      <trkpt lat="43.19119" lon="0.10715">
        <ele>362</ele>
        <time>2018-09-30T07:16:47Z</time>
      </trkpt>
      <trkpt lat="43.19115" lon="0.10709">
        <ele>362</ele>
        <time>2018-09-30T07:16:48Z</time>
      </trkpt>
      <trkpt lat="43.19111" lon="0.10704">
        <ele>362</ele>
        <time>2018-09-30T07:16:49Z</time>
      </trkpt>
      <trkpt lat="43.19107" lon="0.10698">
        <ele>362</ele>
        <time>2018-09-30T07:16:50Z</time>
      </trkpt>
      <trkpt lat="43.19104" lon="0.10693">
        <ele>362</ele>
        <time>2018-09-30T07:16:51Z</time>
      </trkpt>
      <trkpt lat="43.191" lon="0.10688">
        <ele>362</ele>
        <time>2018-09-30T07:16:52Z</time>
      </trkpt>
      <trkpt lat="43.19096" lon="0.10682">
        <ele>362</ele>
        <time>2018-09-30T07:16:53Z</time>
      </trkpt>
      <trkpt lat="43.19092" lon="0.10677">
        <ele>362</ele>
        <time>2018-09-30T07:16:54Z</time>
      </trkpt>
      <trkpt lat="43.19088" lon="0.10672">
        <ele>362</ele>
        <time>2018-09-30T07:16:55Z</time>
      </trkpt>
      <trkpt lat="43.19084" lon="0.10666">
        <ele>362</ele>
        <time>2018-09-30T07:16:56Z</time>
      </trkpt>
      <trkpt lat="43.1908" lon="0.10661">
        <ele>362</ele>
        <time>2018-09-30T07:16:57Z</time>
      </trkpt>
      <trkpt lat="43.19076" lon="0.10656">
        <ele>363</ele>
        <time>2018-09-30T07:16:58Z</time>
      </trkpt>
      <trkpt lat="43.19071" lon="0.10651">
        <ele>363</ele>
        <time>2018-09-30T07:16:59Z</time>
      </trkpt>
      <trkpt lat="43.19067" lon="0.10646">
        <ele>363</ele>
        <time>2018-09-30T07:17:00Z</time>
      </trkpt>
      <trkpt lat="43.19063" lon="0.10641">
        <ele>363</ele>
        <time>2018-09-30T07:17:01Z</time>
      </trkpt>
      <trkpt lat="43.1906" lon="0.10636">
        <ele>363</ele>
        <time>2018-09-30T07:17:02Z</time>
      </trkpt>
      <trkpt lat="43.19056" lon="0.1063">
        <ele>363</ele>
        <time>2018-09-30T07:17:03Z</time>
      </trkpt>
      <trkpt lat="43.19052" lon="0.10625">
        <ele>363</ele>
        <time>2018-09-30T07:17:04Z</time>
      </trkpt>
      <trkpt lat="43.19048" lon="0.1062">
        <ele>363</ele>
        <time>2018-09-30T07:17:05Z</time>
      </trkpt>
      <trkpt lat="43.19043" lon="0.10615">
        <ele>364</ele>
        <time>2018-09-30T07:17:06Z</time>
      </trkpt>
      <trkpt lat="43.19039" lon="0.1061">
        <ele>364</ele>
        <time>2018-09-30T07:17:07Z</time>
      </trkpt>
      <trkpt lat="43.19035" lon="0.10605">
        <ele>364</ele>
        <time>2018-09-30T07:17:08Z</time>
      </trkpt>
      <trkpt lat="43.19031" lon="0.106">
        <ele>364</ele>
        <time>2018-09-30T07:17:09Z</time>
      </trkpt>
      <trkpt lat="43.19027" lon="0.10595">
        <ele>364</ele>
        <time>2018-09-30T07:17:10Z</time>
      </trkpt>
      <trkpt lat="43.19023" lon="0.1059">
        <ele>364</ele>
        <time>2018-09-30T07:17:11Z</time>
      </trkpt>
      <trkpt lat="43.19019" lon="0.10585">
        <ele>364</ele>
        <time>2018-09-30T07:17:12Z</time>
      </trkpt>
      <trkpt lat="43.19015" lon="0.1058">
        <ele>364</ele>
        <time>2018-09-30T07:17:13Z</time>
      </trkpt>
      <trkpt lat="43.19011" lon="0.10575">
        <ele>364</ele>
        <time>2018-09-30T07:17:14Z</time>
      </trkpt>
      <trkpt lat="43.19007" lon="0.1057">
        <ele>364</ele>
        <time>2018-09-30T07:17:15Z</time>
      </trkpt>
      <trkpt lat="43.19003" lon="0.10564">
        <ele>365</ele>
        <time>2018-09-30T07:17:16Z</time>
      </trkpt>
      <trkpt lat="43.19" lon="0.10559">
        <ele>365</ele>
        <time>2018-09-30T07:17:17Z</time>
      </trkpt>
      <trkpt lat="43.18996" lon="0.10554">
        <ele>365</ele>
        <time>2018-09-30T07:17:18Z</time>
      </trkpt>
      <trkpt lat="43.18992" lon="0.10549">
        <ele>365</ele>
        <time>2018-09-30T07:17:19Z</time>
      </trkpt>
      <trkpt lat="43.18989" lon="0.10544">
        <ele>365</ele>
        <time>2018-09-30T07:17:20Z</time>
      </trkpt>
      <trkpt lat="43.18985" lon="0.10538">
        <ele>365</ele>
        <time>2018-09-30T07:17:21Z</time>
      </trkpt>
      <trkpt lat="43.18981" lon="0.10533">
        <ele>365</ele>
        <time>2018-09-30T07:17:22Z</time>
      </trkpt>
      <trkpt lat="43.18978" lon="0.10527">
        <ele>365</ele>
        <time>2018-09-30T07:17:23Z</time>
      </trkpt>
      <trkpt lat="43.18974" lon="0.10521">
        <ele>365</ele>
        <time>2018-09-30T07:17:24Z</time>
      </trkpt>
      <trkpt lat="43.18971" lon="0.10516">
        <ele>365</ele>
        <time>2018-09-30T07:17:25Z</time>
      </trkpt>
      <trkpt lat="43.18967" lon="0.1051">
        <ele>365</ele>
        <time>2018-09-30T07:17:26Z</time>
      </trkpt>
      <trkpt lat="43.18964" lon="0.10504">
        <ele>365</ele>
        <time>2018-09-30T07:17:27Z</time>
      </trkpt>
      <trkpt lat="43.1896" lon="0.10498">
        <ele>365</ele>
        <time>2018-09-30T07:17:28Z</time>
      </trkpt>
      <trkpt lat="43.18957" lon="0.10492">
        <ele>365</ele>
        <time>2018-09-30T07:17:29Z</time>
      </trkpt>
      <trkpt lat="43.18953" lon="0.10486">
        <ele>365</ele>
        <time>2018-09-30T07:17:30Z</time>
      </trkpt>
      <trkpt lat="43.1895" lon="0.1048">
        <ele>365</ele>
        <time>2018-09-30T07:17:31Z</time>
      </trkpt>
      <trkpt lat="43.18947" lon="0.10474">
        <ele>365</ele>
        <time>2018-09-30T07:17:32Z</time>
      </trkpt>
      <trkpt lat="43.18944" lon="0.10468">
        <ele>365</ele>
        <time>2018-09-30T07:17:33Z</time>
      </trkpt>
      <trkpt lat="43.18941" lon="0.10462">
        <ele>365</ele>
        <time>2018-09-30T07:17:34Z</time>
      </trkpt>
      <trkpt lat="43.18937" lon="0.10455">
        <ele>365</ele>
        <time>2018-09-30T07:17:35Z</time>
      </trkpt>
      <trkpt lat="43.18934" lon="0.10449">
        <ele>365</ele>
        <time>2018-09-30T07:17:36Z</time>
      </trkpt>
      <trkpt lat="43.18931" lon="0.10443">
        <ele>365</ele>
        <time>2018-09-30T07:17:37Z</time>
      </trkpt>
      <trkpt lat="43.18928" lon="0.10436">
        <ele>365</ele>
        <time>2018-09-30T07:17:38Z</time>
      </trkpt>
      <trkpt lat="43.18925" lon="0.10429">
        <ele>365</ele>
        <time>2018-09-30T07:17:39Z</time>
      </trkpt>
      <trkpt lat="43.18922" lon="0.10422">
        <ele>365</ele>
        <time>2018-09-30T07:17:40Z</time>
      </trkpt>
      <trkpt lat="43.1892" lon="0.10415">
        <ele>365</ele>
        <time>2018-09-30T07:17:41Z</time>
      </trkpt>
      <trkpt lat="43.18918" lon="0.10408">
        <ele>365</ele>
        <time>2018-09-30T07:17:42Z</time>
      </trkpt>
      <trkpt lat="43.18916" lon="0.104">
        <ele>365</ele>
        <time>2018-09-30T07:17:43Z</time>
      </trkpt>
      <trkpt lat="43.18914" lon="0.10393">
        <ele>365</ele>
        <time>2018-09-30T07:17:44Z</time>
      </trkpt>
      <trkpt lat="43.18913" lon="0.10385">
        <ele>365</ele>
        <time>2018-09-30T07:17:45Z</time>
      </trkpt>
      <trkpt lat="43.18913" lon="0.10378">
        <ele>365</ele>
        <time>2018-09-30T07:17:46Z</time>
      </trkpt>
      <trkpt lat="43.18912" lon="0.1037">
        <ele>365</ele>
        <time>2018-09-30T07:17:47Z</time>
      </trkpt>
      <trkpt lat="43.18911" lon="0.10362">
        <ele>365</ele>
        <time>2018-09-30T07:17:48Z</time>
      </trkpt>
      <trkpt lat="43.18911" lon="0.10354">
        <ele>365</ele>
        <time>2018-09-30T07:17:49Z</time>
      </trkpt>
      <trkpt lat="43.1891" lon="0.10347">
        <ele>365</ele>
        <time>2018-09-30T07:17:50Z</time>
      </trkpt>
      <trkpt lat="43.18909" lon="0.10339">
        <ele>365</ele>
        <time>2018-09-30T07:17:51Z</time>
      </trkpt>
      <trkpt lat="43.18909" lon="0.10331">
        <ele>365</ele>
        <time>2018-09-30T07:17:52Z</time>
      </trkpt>
      <trkpt lat="43.18909" lon="0.10324">
        <ele>365</ele>
        <time>2018-09-30T07:17:53Z</time>
      </trkpt>
      <trkpt lat="43.18909" lon="0.10317">
        <ele>365</ele>
        <time>2018-09-30T07:17:54Z</time>
      </trkpt>
      <trkpt lat="43.18909" lon="0.1031">
        <ele>365</ele>
        <time>2018-09-30T07:17:55Z</time>
      </trkpt>
      <trkpt lat="43.18909" lon="0.10303">
        <ele>365</ele>
        <time>2018-09-30T07:17:56Z</time>
      </trkpt>
      <trkpt lat="43.18909" lon="0.10297">
        <ele>365</ele>
        <time>2018-09-30T07:17:57Z</time>
      </trkpt>
      <trkpt lat="43.18908" lon="0.10291">
        <ele>364</ele>
        <time>2018-09-30T07:17:58Z</time>
      </trkpt>
      <trkpt lat="43.18908" lon="0.10285">
        <ele>364</ele>
        <time>2018-09-30T07:17:59Z</time>
      </trkpt>
      <trkpt lat="43.18908" lon="0.1028">
        <ele>364</ele>
        <time>2018-09-30T07:18:00Z</time>
      </trkpt>
      <trkpt lat="43.18909" lon="0.10274">
        <ele>364</ele>
        <time>2018-09-30T07:18:01Z</time>
      </trkpt>
      <trkpt lat="43.18909" lon="0.10269">
        <ele>363</ele>
        <time>2018-09-30T07:18:02Z</time>
      </trkpt>
      <trkpt lat="43.18909" lon="0.10263">
        <ele>363</ele>
        <time>2018-09-30T07:18:03Z</time>
      </trkpt>
      <trkpt lat="43.18909" lon="0.10258">
        <ele>363</ele>
        <time>2018-09-30T07:18:04Z</time>
      </trkpt>
      <trkpt lat="43.18909" lon="0.10252">
        <ele>363</ele>
        <time>2018-09-30T07:18:05Z</time>
      </trkpt>
      <trkpt lat="43.18908" lon="0.10246">
        <ele>363</ele>
        <time>2018-09-30T07:18:06Z</time>
      </trkpt>
      <trkpt lat="43.18905" lon="0.1024">
        <ele>363</ele>
        <time>2018-09-30T07:18:07Z</time>
      </trkpt>
      <trkpt lat="43.18902" lon="0.10235">
        <ele>363</ele>
        <time>2018-09-30T07:18:08Z</time>
      </trkpt>
      <trkpt lat="43.18899" lon="0.1023">
        <ele>363</ele>
        <time>2018-09-30T07:18:09Z</time>
      </trkpt>
      <trkpt lat="43.18894" lon="0.10227">
        <ele>363</ele>
        <time>2018-09-30T07:18:10Z</time>
      </trkpt>
      <trkpt lat="43.1889" lon="0.10224">
        <ele>363</ele>
        <time>2018-09-30T07:18:11Z</time>
      </trkpt>
      <trkpt lat="43.18885" lon="0.10223">
        <ele>363</ele>
        <time>2018-09-30T07:18:12Z</time>
      </trkpt>
      <trkpt lat="43.18879" lon="0.10222">
        <ele>363</ele>
        <time>2018-09-30T07:18:13Z</time>
      </trkpt>
      <trkpt lat="43.18874" lon="0.10222">
        <ele>363</ele>
        <time>2018-09-30T07:18:14Z</time>
      </trkpt>
      <trkpt lat="43.18869" lon="0.10223">
        <ele>363</ele>
        <time>2018-09-30T07:18:15Z</time>
      </trkpt>
      <trkpt lat="43.18864" lon="0.10225">
        <ele>363</ele>
        <time>2018-09-30T07:18:16Z</time>
      </trkpt>
      <trkpt lat="43.18859" lon="0.10226">
        <ele>363</ele>
        <time>2018-09-30T07:18:17Z</time>
      </trkpt>
      <trkpt lat="43.18853" lon="0.10227">
        <ele>363</ele>
        <time>2018-09-30T07:18:18Z</time>
      </trkpt>
      <trkpt lat="43.18848" lon="0.10227">
        <ele>363</ele>
        <time>2018-09-30T07:18:19Z</time>
      </trkpt>
      <trkpt lat="43.18844" lon="0.10229">
        <ele>363</ele>
        <time>2018-09-30T07:18:20Z</time>
      </trkpt>
      <trkpt lat="43.18839" lon="0.1023">
        <ele>363</ele>
        <time>2018-09-30T07:18:21Z</time>
      </trkpt>
      <trkpt lat="43.18835" lon="0.10231">
        <ele>364</ele>
        <time>2018-09-30T07:18:22Z</time>
      </trkpt>
      <trkpt lat="43.18831" lon="0.10232">
        <ele>364</ele>
        <time>2018-09-30T07:18:23Z</time>
      </trkpt>
      <trkpt lat="43.18826" lon="0.10234">
        <ele>364</ele>
        <time>2018-09-30T07:18:24Z</time>
      </trkpt>
      <trkpt lat="43.18823" lon="0.10237">
        <ele>364</ele>
        <time>2018-09-30T07:18:25Z</time>
      </trkpt>
      <trkpt lat="43.1882" lon="0.10241">
        <ele>365</ele>
        <time>2018-09-30T07:18:26Z</time>
      </trkpt>
      <trkpt lat="43.18818" lon="0.10247">
        <ele>365</ele>
        <time>2018-09-30T07:18:27Z</time>
      </trkpt>
      <trkpt lat="43.18817" lon="0.10253">
        <ele>365</ele>
        <time>2018-09-30T07:18:28Z</time>
      </trkpt>
      <trkpt lat="43.18816" lon="0.1026">
        <ele>365</ele>
        <time>2018-09-30T07:18:29Z</time>
      </trkpt>
      <trkpt lat="43.18816" lon="0.10267">
        <ele>366</ele>
        <time>2018-09-30T07:18:30Z</time>
      </trkpt>
      <trkpt lat="43.18816" lon="0.10275">
        <ele>366</ele>
        <time>2018-09-30T07:18:31Z</time>
      </trkpt>
      <trkpt lat="43.18816" lon="0.10282">
        <ele>366</ele>
        <time>2018-09-30T07:18:32Z</time>
      </trkpt>
      <trkpt lat="43.18817" lon="0.1029">
        <ele>366</ele>
        <time>2018-09-30T07:18:33Z</time>
      </trkpt>
      <trkpt lat="43.18817" lon="0.10298">
        <ele>366</ele>
        <time>2018-09-30T07:18:34Z</time>
      </trkpt>
      <trkpt lat="43.18817" lon="0.10305">
        <ele>366</ele>
        <time>2018-09-30T07:18:35Z</time>
      </trkpt>
      <trkpt lat="43.18818" lon="0.10313">
        <ele>366</ele>
        <time>2018-09-30T07:18:36Z</time>
      </trkpt>
      <trkpt lat="43.18818" lon="0.10321">
        <ele>366</ele>
        <time>2018-09-30T07:18:37Z</time>
      </trkpt>
      <trkpt lat="43.18818" lon="0.10329">
        <ele>367</ele>
        <time>2018-09-30T07:18:38Z</time>
      </trkpt>
      <trkpt lat="43.18818" lon="0.10337">
        <ele>367</ele>
        <time>2018-09-30T07:18:39Z</time>
      </trkpt>
      <trkpt lat="43.18818" lon="0.10344">
        <ele>367</ele>
        <time>2018-09-30T07:18:40Z</time>
      </trkpt>
      <trkpt lat="43.18819" lon="0.10351">
        <ele>367</ele>
        <time>2018-09-30T07:18:41Z</time>
      </trkpt>
      <trkpt lat="43.18819" lon="0.10359">
        <ele>368</ele>
        <time>2018-09-30T07:18:42Z</time>
      </trkpt>
      <trkpt lat="43.18819" lon="0.10366">
        <ele>368</ele>
        <time>2018-09-30T07:18:43Z</time>
      </trkpt>
      <trkpt lat="43.18819" lon="0.10373">
        <ele>368</ele>
        <time>2018-09-30T07:18:44Z</time>
      </trkpt>
      <trkpt lat="43.1882" lon="0.1038">
        <ele>369</ele>
        <time>2018-09-30T07:18:45Z</time>
      </trkpt>
      <trkpt lat="43.1882" lon="0.10388">
        <ele>369</ele>
        <time>2018-09-30T07:18:46Z</time>
      </trkpt>
      <trkpt lat="43.18821" lon="0.10396">
        <ele>370</ele>
        <time>2018-09-30T07:18:47Z</time>
      </trkpt>
      <trkpt lat="43.18821" lon="0.10404">
        <ele>370</ele>
        <time>2018-09-30T07:18:48Z</time>
      </trkpt>
      <trkpt lat="43.18821" lon="0.10412">
        <ele>371</ele>
        <time>2018-09-30T07:18:49Z</time>
      </trkpt>
      <trkpt lat="43.18821" lon="0.10419">
        <ele>371</ele>
        <time>2018-09-30T07:18:50Z</time>
      </trkpt>
      <trkpt lat="43.18821" lon="0.10427">
        <ele>371</ele>
        <time>2018-09-30T07:18:51Z</time>
      </trkpt>
      <trkpt lat="43.18821" lon="0.10434">
        <ele>372</ele>
        <time>2018-09-30T07:18:52Z</time>
      </trkpt>
      <trkpt lat="43.18821" lon="0.10441">
        <ele>372</ele>
        <time>2018-09-30T07:18:53Z</time>
      </trkpt>
      <trkpt lat="43.18821" lon="0.10448">
        <ele>372</ele>
        <time>2018-09-30T07:18:54Z</time>
      </trkpt>
      <trkpt lat="43.18821" lon="0.10455">
        <ele>372</ele>
        <time>2018-09-30T07:18:55Z</time>
      </trkpt>
      <trkpt lat="43.18821" lon="0.10462">
        <ele>372</ele>
        <time>2018-09-30T07:18:56Z</time>
      </trkpt>
      <trkpt lat="43.18821" lon="0.10469">
        <ele>372</ele>
        <time>2018-09-30T07:18:57Z</time>
      </trkpt>
      <trkpt lat="43.18821" lon="0.10477">
        <ele>372</ele>
        <time>2018-09-30T07:18:58Z</time>
      </trkpt>
      <trkpt lat="43.18821" lon="0.10484">
        <ele>372</ele>
        <time>2018-09-30T07:18:59Z</time>
      </trkpt>
      <trkpt lat="43.18821" lon="0.10492">
        <ele>372</ele>
        <time>2018-09-30T07:19:00Z</time>
      </trkpt>
      <trkpt lat="43.1882" lon="0.10499">
        <ele>372</ele>
        <time>2018-09-30T07:19:01Z</time>
      </trkpt>
      <trkpt lat="43.1882" lon="0.10506">
        <ele>372</ele>
        <time>2018-09-30T07:19:02Z</time>
      </trkpt>
      <trkpt lat="43.1882" lon="0.10513">
        <ele>372</ele>
        <time>2018-09-30T07:19:03Z</time>
      </trkpt>
      <trkpt lat="43.1882" lon="0.1052">
        <ele>372</ele>
        <time>2018-09-30T07:19:04Z</time>
      </trkpt>
      <trkpt lat="43.18819" lon="0.10527">
        <ele>372</ele>
        <time>2018-09-30T07:19:05Z</time>
      </trkpt>
      <trkpt lat="43.18819" lon="0.10534">
        <ele>372</ele>
        <time>2018-09-30T07:19:06Z</time>
      </trkpt>
      <trkpt lat="43.18818" lon="0.10541">
        <ele>372</ele>
        <time>2018-09-30T07:19:07Z</time>
      </trkpt>
      <trkpt lat="43.18818" lon="0.10548">
        <ele>371</ele>
        <time>2018-09-30T07:19:08Z</time>
      </trkpt>
      <trkpt lat="43.18818" lon="0.10556">
        <ele>371</ele>
        <time>2018-09-30T07:19:09Z</time>
      </trkpt>
      <trkpt lat="43.18817" lon="0.10563">
        <ele>371</ele>
        <time>2018-09-30T07:19:10Z</time>
      </trkpt>
      <trkpt lat="43.18817" lon="0.10569">
        <ele>371</ele>
        <time>2018-09-30T07:19:11Z</time>
      </trkpt>
      <trkpt lat="43.18816" lon="0.10576">
        <ele>371</ele>
        <time>2018-09-30T07:19:12Z</time>
      </trkpt>
      <trkpt lat="43.18815" lon="0.10583">
        <ele>371</ele>
        <time>2018-09-30T07:19:13Z</time>
      </trkpt>
      <trkpt lat="43.18815" lon="0.1059">
        <ele>370</ele>
        <time>2018-09-30T07:19:14Z</time>
      </trkpt>
      <trkpt lat="43.18814" lon="0.10596">
        <ele>370</ele>
        <time>2018-09-30T07:19:15Z</time>
      </trkpt>
      <trkpt lat="43.18813" lon="0.10603">
        <ele>370</ele>
        <time>2018-09-30T07:19:16Z</time>
      </trkpt>
      <trkpt lat="43.18813" lon="0.1061">
        <ele>370</ele>
        <time>2018-09-30T07:19:17Z</time>
      </trkpt>
      <trkpt lat="43.18812" lon="0.10616">
        <ele>370</ele>
        <time>2018-09-30T07:19:18Z</time>
      </trkpt>
      <trkpt lat="43.18811" lon="0.10623">
        <ele>370</ele>
        <time>2018-09-30T07:19:19Z</time>
      </trkpt>
      <trkpt lat="43.18811" lon="0.10629">
        <ele>370</ele>
        <time>2018-09-30T07:19:20Z</time>
      </trkpt>
      <trkpt lat="43.18811" lon="0.10636">
        <ele>370</ele>
        <time>2018-09-30T07:19:21Z</time>
      </trkpt>
      <trkpt lat="43.1881" lon="0.10642">
        <ele>370</ele>
        <time>2018-09-30T07:19:22Z</time>
      </trkpt>
      <trkpt lat="43.18808" lon="0.10648">
        <ele>370</ele>
        <time>2018-09-30T07:19:23Z</time>
      </trkpt>
      <trkpt lat="43.18806" lon="0.10655">
        <ele>370</ele>
        <time>2018-09-30T07:19:24Z</time>
      </trkpt>
      <trkpt lat="43.18804" lon="0.10661">
        <ele>370</ele>
        <time>2018-09-30T07:19:25Z</time>
      </trkpt>
      <trkpt lat="43.18802" lon="0.10668">
        <ele>370</ele>
        <time>2018-09-30T07:19:26Z</time>
      </trkpt>
      <trkpt lat="43.188" lon="0.10674">
        <ele>370</ele>
        <time>2018-09-30T07:19:27Z</time>
      </trkpt>
      <trkpt lat="43.18798" lon="0.10679">
        <ele>370</ele>
        <time>2018-09-30T07:19:28Z</time>
      </trkpt>
      <trkpt lat="43.18796" lon="0.10685">
        <ele>370</ele>
        <time>2018-09-30T07:19:29Z</time>
      </trkpt>
      <trkpt lat="43.18794" lon="0.10692">
        <ele>370</ele>
        <time>2018-09-30T07:19:30Z</time>
      </trkpt>
      <trkpt lat="43.18792" lon="0.10698">
        <ele>370</ele>
        <time>2018-09-30T07:19:31Z</time>
      </trkpt>
      <trkpt lat="43.18791" lon="0.10704">
        <ele>370</ele>
        <time>2018-09-30T07:19:32Z</time>
      </trkpt>
      <trkpt lat="43.18789" lon="0.1071">
        <ele>370</ele>
        <time>2018-09-30T07:19:33Z</time>
      </trkpt>
      <trkpt lat="43.18786" lon="0.10716">
        <ele>370</ele>
        <time>2018-09-30T07:19:34Z</time>
      </trkpt>
      <trkpt lat="43.18785" lon="0.10722">
        <ele>370</ele>
        <time>2018-09-30T07:19:35Z</time>
      </trkpt>
      <trkpt lat="43.18783" lon="0.10727">
        <ele>370</ele>
        <time>2018-09-30T07:19:36Z</time>
      </trkpt>
      <trkpt lat="43.18781" lon="0.10733">
        <ele>370</ele>
        <time>2018-09-30T07:19:37Z</time>
      </trkpt>
      <trkpt lat="43.18779" lon="0.10739">
        <ele>370</ele>
        <time>2018-09-30T07:19:38Z</time>
      </trkpt>
      <trkpt lat="43.18777" lon="0.10746">
        <ele>370</ele>
        <time>2018-09-30T07:19:39Z</time>
      </trkpt>
      <trkpt lat="43.18775" lon="0.10752">
        <ele>370</ele>
        <time>2018-09-30T07:19:40Z</time>
      </trkpt>
      <trkpt lat="43.18773" lon="0.10759">
        <ele>369</ele>
        <time>2018-09-30T07:19:41Z</time>
      </trkpt>
      <trkpt lat="43.18771" lon="0.10765">
        <ele>369</ele>
        <time>2018-09-30T07:19:42Z</time>
      </trkpt>
      <trkpt lat="43.18769" lon="0.10771">
        <ele>369</ele>
        <time>2018-09-30T07:19:43Z</time>
      </trkpt>
      <trkpt lat="43.18767" lon="0.10778">
        <ele>369</ele>
        <time>2018-09-30T07:19:44Z</time>
      </trkpt>
      <trkpt lat="43.18766" lon="0.10784">
        <ele>369</ele>
        <time>2018-09-30T07:19:45Z</time>
      </trkpt>
      <trkpt lat="43.18764" lon="0.10789">
        <ele>369</ele>
        <time>2018-09-30T07:19:46Z</time>
      </trkpt>
      <trkpt lat="43.18763" lon="0.10795">
        <ele>370</ele>
        <time>2018-09-30T07:19:47Z</time>
      </trkpt>
      <trkpt lat="43.18761" lon="0.10801">
        <ele>370</ele>
        <time>2018-09-30T07:19:48Z</time>
      </trkpt>
      <trkpt lat="43.1876" lon="0.10807">
        <ele>370</ele>
        <time>2018-09-30T07:19:49Z</time>
      </trkpt>
      <trkpt lat="43.18759" lon="0.10814">
        <ele>370</ele>
        <time>2018-09-30T07:19:50Z</time>
      </trkpt>
      <trkpt lat="43.18758" lon="0.1082">
        <ele>369</ele>
        <time>2018-09-30T07:19:51Z</time>
      </trkpt>
      <trkpt lat="43.18757" lon="0.10826">
        <ele>369</ele>
        <time>2018-09-30T07:19:52Z</time>
      </trkpt>
      <trkpt lat="43.18756" lon="0.10833">
        <ele>369</ele>
        <time>2018-09-30T07:19:53Z</time>
      </trkpt>
      <trkpt lat="43.18755" lon="0.1084">
        <ele>369</ele>
        <time>2018-09-30T07:19:54Z</time>
      </trkpt>
      <trkpt lat="43.18753" lon="0.10846">
        <ele>368</ele>
        <time>2018-09-30T07:19:55Z</time>
      </trkpt>
      <trkpt lat="43.18752" lon="0.10853">
        <ele>368</ele>
        <time>2018-09-30T07:19:56Z</time>
      </trkpt>
      <trkpt lat="43.18751" lon="0.1086">
        <ele>368</ele>
        <time>2018-09-30T07:19:57Z</time>
      </trkpt>
      <trkpt lat="43.18749" lon="0.10867">
        <ele>368</ele>
        <time>2018-09-30T07:19:58Z</time>
      </trkpt>
      <trkpt lat="43.18748" lon="0.10873">
        <ele>369</ele>
        <time>2018-09-30T07:19:59Z</time>
      </trkpt>
      <trkpt lat="43.18747" lon="0.10879">
        <ele>369</ele>
        <time>2018-09-30T07:20:00Z</time>
      </trkpt>
      <trkpt lat="43.18746" lon="0.10886">
        <ele>369</ele>
        <time>2018-09-30T07:20:01Z</time>
      </trkpt>
      <trkpt lat="43.18745" lon="0.10893">
        <ele>370</ele>
        <time>2018-09-30T07:20:02Z</time>
      </trkpt>
      <trkpt lat="43.18743" lon="0.10899">
        <ele>370</ele>
        <time>2018-09-30T07:20:03Z</time>
      </trkpt>
      <trkpt lat="43.18742" lon="0.10905">
        <ele>370</ele>
        <time>2018-09-30T07:20:04Z</time>
      </trkpt>
      <trkpt lat="43.18742" lon="0.10911">
        <ele>370</ele>
        <time>2018-09-30T07:20:05Z</time>
      </trkpt>
      <trkpt lat="43.18741" lon="0.10918">
        <ele>371</ele>
        <time>2018-09-30T07:20:06Z</time>
      </trkpt>
      <trkpt lat="43.18739" lon="0.10926">
        <ele>371</ele>
        <time>2018-09-30T07:20:07Z</time>
      </trkpt>
      <trkpt lat="43.18739" lon="0.10933">
        <ele>371</ele>
        <time>2018-09-30T07:20:08Z</time>
      </trkpt>
      <trkpt lat="43.18738" lon="0.1094">
        <ele>372</ele>
        <time>2018-09-30T07:20:09Z</time>
      </trkpt>
      <trkpt lat="43.18737" lon="0.10947">
        <ele>372</ele>
        <time>2018-09-30T07:20:10Z</time>
      </trkpt>
      <trkpt lat="43.18735" lon="0.10954">
        <ele>372</ele>
        <time>2018-09-30T07:20:11Z</time>
      </trkpt>
      <trkpt lat="43.18734" lon="0.10962">
        <ele>372</ele>
        <time>2018-09-30T07:20:12Z</time>
      </trkpt>
      <trkpt lat="43.18733" lon="0.10968">
        <ele>373</ele>
        <time>2018-09-30T07:20:13Z</time>
      </trkpt>
      <trkpt lat="43.18732" lon="0.10974">
        <ele>373</ele>
        <time>2018-09-30T07:20:14Z</time>
      </trkpt>
      <trkpt lat="43.18731" lon="0.10979">
        <ele>373</ele>
        <time>2018-09-30T07:20:15Z</time>
      </trkpt>
      <trkpt lat="43.1873" lon="0.10985">
        <ele>373</ele>
        <time>2018-09-30T07:20:16Z</time>
      </trkpt>
      <trkpt lat="43.18728" lon="0.10992">
        <ele>373</ele>
        <time>2018-09-30T07:20:17Z</time>
      </trkpt>
      <trkpt lat="43.18726" lon="0.10999">
        <ele>373</ele>
        <time>2018-09-30T07:20:18Z</time>
      </trkpt>
      <trkpt lat="43.18724" lon="0.11005">
        <ele>373</ele>
        <time>2018-09-30T07:20:19Z</time>
      </trkpt>
      <trkpt lat="43.18721" lon="0.11011">
        <ele>373</ele>
        <time>2018-09-30T07:20:20Z</time>
      </trkpt>
      <trkpt lat="43.1872" lon="0.11018">
        <ele>373</ele>
        <time>2018-09-30T07:20:21Z</time>
      </trkpt>
      <trkpt lat="43.18718" lon="0.11026">
        <ele>374</ele>
        <time>2018-09-30T07:20:22Z</time>
      </trkpt>
      <trkpt lat="43.18716" lon="0.11033">
        <ele>374</ele>
        <time>2018-09-30T07:20:23Z</time>
      </trkpt>
      <trkpt lat="43.18714" lon="0.11039">
        <ele>374</ele>
        <time>2018-09-30T07:20:24Z</time>
      </trkpt>
      <trkpt lat="43.18712" lon="0.11045">
        <ele>375</ele>
        <time>2018-09-30T07:20:25Z</time>
      </trkpt>
      <trkpt lat="43.1871" lon="0.11052">
        <ele>375</ele>
        <time>2018-09-30T07:20:26Z</time>
      </trkpt>
      <trkpt lat="43.18708" lon="0.11057">
        <ele>375</ele>
        <time>2018-09-30T07:20:27Z</time>
      </trkpt>
      <trkpt lat="43.18706" lon="0.11062">
        <ele>375</ele>
        <time>2018-09-30T07:20:28Z</time>
      </trkpt>
      <trkpt lat="43.18704" lon="0.11067">
        <ele>375</ele>
        <time>2018-09-30T07:20:29Z</time>
      </trkpt>
      <trkpt lat="43.18702" lon="0.11074">
        <ele>375</ele>
        <time>2018-09-30T07:20:30Z</time>
      </trkpt>
      <trkpt lat="43.187" lon="0.11079">
        <ele>375</ele>
        <time>2018-09-30T07:20:31Z</time>
      </trkpt>
      <trkpt lat="43.18698" lon="0.11085">
        <ele>375</ele>
        <time>2018-09-30T07:20:32Z</time>
      </trkpt>
      <trkpt lat="43.18697" lon="0.11091">
        <ele>375</ele>
        <time>2018-09-30T07:20:33Z</time>
      </trkpt>
      <trkpt lat="43.18695" lon="0.11096">
        <ele>375</ele>
        <time>2018-09-30T07:20:34Z</time>
      </trkpt>
      <trkpt lat="43.18693" lon="0.11103">
        <ele>375</ele>
        <time>2018-09-30T07:20:35Z</time>
      </trkpt>
      <trkpt lat="43.18691" lon="0.1111">
        <ele>375</ele>
        <time>2018-09-30T07:20:36Z</time>
      </trkpt>
      <trkpt lat="43.18689" lon="0.11117">
        <ele>376</ele>
        <time>2018-09-30T07:20:37Z</time>
      </trkpt>
      <trkpt lat="43.18687" lon="0.11125">
        <ele>376</ele>
        <time>2018-09-30T07:20:38Z</time>
      </trkpt>
      <trkpt lat="43.18685" lon="0.11132">
        <ele>377</ele>
        <time>2018-09-30T07:20:39Z</time>
      </trkpt>
      <trkpt lat="43.18683" lon="0.11138">
        <ele>377</ele>
        <time>2018-09-30T07:20:40Z</time>
      </trkpt>
      <trkpt lat="43.18681" lon="0.11144">
        <ele>377</ele>
        <time>2018-09-30T07:20:41Z</time>
      </trkpt>
      <trkpt lat="43.1868" lon="0.11149">
        <ele>377</ele>
        <time>2018-09-30T07:20:42Z</time>
      </trkpt>
      <trkpt lat="43.18678" lon="0.11156">
        <ele>377</ele>
        <time>2018-09-30T07:20:43Z</time>
      </trkpt>
      <trkpt lat="43.18677" lon="0.11162">
        <ele>377</ele>
        <time>2018-09-30T07:20:44Z</time>
      </trkpt>
      <trkpt lat="43.18676" lon="0.11169">
        <ele>377</ele>
        <time>2018-09-30T07:20:45Z</time>
      </trkpt>
      <trkpt lat="43.18676" lon="0.11176">
        <ele>377</ele>
        <time>2018-09-30T07:20:46Z</time>
      </trkpt>
      <trkpt lat="43.18675" lon="0.11182">
        <ele>378</ele>
        <time>2018-09-30T07:20:47Z</time>
      </trkpt>
      <trkpt lat="43.18675" lon="0.11188">
        <ele>378</ele>
        <time>2018-09-30T07:20:48Z</time>
      </trkpt>
      <trkpt lat="43.18674" lon="0.11195">
        <ele>378</ele>
        <time>2018-09-30T07:20:49Z</time>
      </trkpt>
      <trkpt lat="43.18674" lon="0.11201">
        <ele>378</ele>
        <time>2018-09-30T07:20:50Z</time>
      </trkpt>
      <trkpt lat="43.18674" lon="0.11208">
        <ele>378</ele>
        <time>2018-09-30T07:20:51Z</time>
      </trkpt>
      <trkpt lat="43.18673" lon="0.11216">
        <ele>378</ele>
        <time>2018-09-30T07:20:52Z</time>
      </trkpt>
      <trkpt lat="43.18673" lon="0.11223">
        <ele>378</ele>
        <time>2018-09-30T07:20:53Z</time>
      </trkpt>
      <trkpt lat="43.18673" lon="0.11229">
        <ele>378</ele>
        <time>2018-09-30T07:20:54Z</time>
      </trkpt>
      <trkpt lat="43.18673" lon="0.11236">
        <ele>379</ele>
        <time>2018-09-30T07:20:55Z</time>
      </trkpt>
      <trkpt lat="43.18673" lon="0.11242">
        <ele>379</ele>
        <time>2018-09-30T07:20:56Z</time>
      </trkpt>
      <trkpt lat="43.18674" lon="0.11249">
        <ele>379</ele>
        <time>2018-09-30T07:20:57Z</time>
      </trkpt>
      <trkpt lat="43.18675" lon="0.11256">
        <ele>379</ele>
        <time>2018-09-30T07:20:58Z</time>
      </trkpt>
      <trkpt lat="43.18675" lon="0.11262">
        <ele>379</ele>
        <time>2018-09-30T07:20:59Z</time>
      </trkpt>
      <trkpt lat="43.18675" lon="0.11268">
        <ele>378</ele>
        <time>2018-09-30T07:21:00Z</time>
      </trkpt>
      <trkpt lat="43.18675" lon="0.11275">
        <ele>378</ele>
        <time>2018-09-30T07:21:01Z</time>
      </trkpt>
      <trkpt lat="43.18676" lon="0.11281">
        <ele>378</ele>
        <time>2018-09-30T07:21:02Z</time>
      </trkpt>
      <trkpt lat="43.18676" lon="0.11289">
        <ele>378</ele>
        <time>2018-09-30T07:21:03Z</time>
      </trkpt>
      <trkpt lat="43.18676" lon="0.11295">
        <ele>378</ele>
        <time>2018-09-30T07:21:04Z</time>
      </trkpt>
      <trkpt lat="43.18676" lon="0.11302">
        <ele>378</ele>
        <time>2018-09-30T07:21:05Z</time>
      </trkpt>
      <trkpt lat="43.18676" lon="0.11308">
        <ele>378</ele>
        <time>2018-09-30T07:21:06Z</time>
      </trkpt>
      <trkpt lat="43.18675" lon="0.11314">
        <ele>378</ele>
        <time>2018-09-30T07:21:07Z</time>
      </trkpt>
      <trkpt lat="43.18674" lon="0.1132">
        <ele>378</ele>
        <time>2018-09-30T07:21:08Z</time>
      </trkpt>
      <trkpt lat="43.18673" lon="0.11327">
        <ele>378</ele>
        <time>2018-09-30T07:21:09Z</time>
      </trkpt>
      <trkpt lat="43.18673" lon="0.11333">
        <ele>378</ele>
        <time>2018-09-30T07:21:10Z</time>
      </trkpt>
      <trkpt lat="43.18672" lon="0.11341">
        <ele>378</ele>
        <time>2018-09-30T07:21:11Z</time>
      </trkpt>
      <trkpt lat="43.18671" lon="0.11348">
        <ele>378</ele>
        <time>2018-09-30T07:21:12Z</time>
      </trkpt>
      <trkpt lat="43.18671" lon="0.11353">
        <ele>378</ele>
        <time>2018-09-30T07:21:13Z</time>
      </trkpt>
      <trkpt lat="43.18671" lon="0.11358">
        <ele>379</ele>
        <time>2018-09-30T07:21:14Z</time>
      </trkpt>
      <trkpt lat="43.1867" lon="0.11364">
        <ele>379</ele>
        <time>2018-09-30T07:21:15Z</time>
      </trkpt>
      <trkpt lat="43.18669" lon="0.11372">
        <ele>379</ele>
        <time>2018-09-30T07:21:16Z</time>
      </trkpt>
      <trkpt lat="43.18669" lon="0.11379">
        <ele>379</ele>
        <time>2018-09-30T07:21:17Z</time>
      </trkpt>
      <trkpt lat="43.18668" lon="0.11386">
        <ele>379</ele>
        <time>2018-09-30T07:21:18Z</time>
      </trkpt>
      <trkpt lat="43.18668" lon="0.11392">
        <ele>380</ele>
        <time>2018-09-30T07:21:19Z</time>
      </trkpt>
      <trkpt lat="43.18668" lon="0.11398">
        <ele>380</ele>
        <time>2018-09-30T07:21:20Z</time>
      </trkpt>
      <trkpt lat="43.18667" lon="0.11403">
        <ele>381</ele>
        <time>2018-09-30T07:21:21Z</time>
      </trkpt>
      <trkpt lat="43.18666" lon="0.1141">
        <ele>381</ele>
        <time>2018-09-30T07:21:22Z</time>
      </trkpt>
      <trkpt lat="43.18666" lon="0.11415">
        <ele>381</ele>
        <time>2018-09-30T07:21:23Z</time>
      </trkpt>
      <trkpt lat="43.18665" lon="0.11422">
        <ele>381</ele>
        <time>2018-09-30T07:21:24Z</time>
      </trkpt>
      <trkpt lat="43.18665" lon="0.11428">
        <ele>381</ele>
        <time>2018-09-30T07:21:25Z</time>
      </trkpt>
      <trkpt lat="43.18664" lon="0.11434">
        <ele>381</ele>
        <time>2018-09-30T07:21:26Z</time>
      </trkpt>
      <trkpt lat="43.18664" lon="0.11441">
        <ele>382</ele>
        <time>2018-09-30T07:21:27Z</time>
      </trkpt>
      <trkpt lat="43.18663" lon="0.11448">
        <ele>382</ele>
        <time>2018-09-30T07:21:28Z</time>
      </trkpt>
      <trkpt lat="43.18663" lon="0.11455">
        <ele>382</ele>
        <time>2018-09-30T07:21:29Z</time>
      </trkpt>
      <trkpt lat="43.18662" lon="0.11462">
        <ele>383</ele>
        <time>2018-09-30T07:21:30Z</time>
      </trkpt>
      <trkpt lat="43.18662" lon="0.11469">
        <ele>383</ele>
        <time>2018-09-30T07:21:31Z</time>
      </trkpt>
      <trkpt lat="43.18661" lon="0.11478">
        <ele>383</ele>
        <time>2018-09-30T07:21:32Z</time>
      </trkpt>
      <trkpt lat="43.1866" lon="0.11485">
        <ele>383</ele>
        <time>2018-09-30T07:21:33Z</time>
      </trkpt>
      <trkpt lat="43.1866" lon="0.11491">
        <ele>383</ele>
        <time>2018-09-30T07:21:34Z</time>
      </trkpt>
      <trkpt lat="43.1866" lon="0.11498">
        <ele>383</ele>
        <time>2018-09-30T07:21:35Z</time>
      </trkpt>
      <trkpt lat="43.1866" lon="0.11505">
        <ele>383</ele>
        <time>2018-09-30T07:21:36Z</time>
      </trkpt>
      <trkpt lat="43.1866" lon="0.11512">
        <ele>383</ele>
        <time>2018-09-30T07:21:37Z</time>
      </trkpt>
      <trkpt lat="43.1866" lon="0.11519">
        <ele>383</ele>
        <time>2018-09-30T07:21:38Z</time>
      </trkpt>
      <trkpt lat="43.18661" lon="0.11526">
        <ele>383</ele>
        <time>2018-09-30T07:21:39Z</time>
      </trkpt>
      <trkpt lat="43.18661" lon="0.11533">
        <ele>383</ele>
        <time>2018-09-30T07:21:40Z</time>
      </trkpt>
      <trkpt lat="43.18662" lon="0.1154">
        <ele>383</ele>
        <time>2018-09-30T07:21:41Z</time>
      </trkpt>
      <trkpt lat="43.18662" lon="0.11546">
        <ele>383</ele>
        <time>2018-09-30T07:21:42Z</time>
      </trkpt>
      <trkpt lat="43.18663" lon="0.11553">
        <ele>383</ele>
        <time>2018-09-30T07:21:43Z</time>
      </trkpt>
      <trkpt lat="43.18663" lon="0.11559">
        <ele>383</ele>
        <time>2018-09-30T07:21:44Z</time>
      </trkpt>
      <trkpt lat="43.18663" lon="0.11566">
        <ele>383</ele>
        <time>2018-09-30T07:21:45Z</time>
      </trkpt>
      <trkpt lat="43.18664" lon="0.11573">
        <ele>383</ele>
        <time>2018-09-30T07:21:46Z</time>
      </trkpt>
      <trkpt lat="43.18663" lon="0.1158">
        <ele>383</ele>
        <time>2018-09-30T07:21:47Z</time>
      </trkpt>
      <trkpt lat="43.18663" lon="0.11587">
        <ele>383</ele>
        <time>2018-09-30T07:21:48Z</time>
      </trkpt>
      <trkpt lat="43.18663" lon="0.11594">
        <ele>383</ele>
        <time>2018-09-30T07:21:49Z</time>
      </trkpt>
      <trkpt lat="43.18663" lon="0.11601">
        <ele>383</ele>
        <time>2018-09-30T07:21:50Z</time>
      </trkpt>
      <trkpt lat="43.18662" lon="0.11609">
        <ele>383</ele>
        <time>2018-09-30T07:21:51Z</time>
      </trkpt>
      <trkpt lat="43.18662" lon="0.11616">
        <ele>383</ele>
        <time>2018-09-30T07:21:52Z</time>
      </trkpt>
      <trkpt lat="43.18661" lon="0.11623">
        <ele>382</ele>
        <time>2018-09-30T07:21:53Z</time>
      </trkpt>
      <trkpt lat="43.18661" lon="0.1163">
        <ele>382</ele>
        <time>2018-09-30T07:21:54Z</time>
      </trkpt>
      <trkpt lat="43.1866" lon="0.11637">
        <ele>382</ele>
        <time>2018-09-30T07:21:55Z</time>
      </trkpt>
      <trkpt lat="43.18659" lon="0.11645">
        <ele>381</ele>
        <time>2018-09-30T07:21:56Z</time>
      </trkpt>
      <trkpt lat="43.18658" lon="0.11652">
        <ele>381</ele>
        <time>2018-09-30T07:21:57Z</time>
      </trkpt>
      <trkpt lat="43.18657" lon="0.11659">
        <ele>381</ele>
        <time>2018-09-30T07:21:58Z</time>
      </trkpt>
      <trkpt lat="43.18655" lon="0.11666">
        <ele>380</ele>
        <time>2018-09-30T07:21:59Z</time>
      </trkpt>
      <trkpt lat="43.18654" lon="0.11672">
        <ele>380</ele>
        <time>2018-09-30T07:22:00Z</time>
      </trkpt>
      <trkpt lat="43.18653" lon="0.11678">
        <ele>380</ele>
        <time>2018-09-30T07:22:01Z</time>
      </trkpt>
      <trkpt lat="43.18653" lon="0.11683">
        <ele>380</ele>
        <time>2018-09-30T07:22:02Z</time>
      </trkpt>
      <trkpt lat="43.18652" lon="0.11689">
        <ele>380</ele>
        <time>2018-09-30T07:22:03Z</time>
      </trkpt>
      <trkpt lat="43.1865" lon="0.11697">
        <ele>379</ele>
        <time>2018-09-30T07:22:04Z</time>
      </trkpt>
      <trkpt lat="43.18649" lon="0.11704">
        <ele>379</ele>
        <time>2018-09-30T07:22:05Z</time>
      </trkpt>
      <trkpt lat="43.18649" lon="0.11709">
        <ele>379</ele>
        <time>2018-09-30T07:22:06Z</time>
      </trkpt>
      <trkpt lat="43.18648" lon="0.11715">
        <ele>379</ele>
        <time>2018-09-30T07:22:07Z</time>
      </trkpt>
      <trkpt lat="43.18647" lon="0.11722">
        <ele>379</ele>
        <time>2018-09-30T07:22:08Z</time>
      </trkpt>
      <trkpt lat="43.18647" lon="0.11729">
        <ele>379</ele>
        <time>2018-09-30T07:22:09Z</time>
      </trkpt>
      <trkpt lat="43.18646" lon="0.11736">
        <ele>379</ele>
        <time>2018-09-30T07:22:10Z</time>
      </trkpt>
      <trkpt lat="43.18645" lon="0.11743">
        <ele>379</ele>
        <time>2018-09-30T07:22:11Z</time>
      </trkpt>
      <trkpt lat="43.18645" lon="0.1175">
        <ele>379</ele>
        <time>2018-09-30T07:22:12Z</time>
      </trkpt>
      <trkpt lat="43.18644" lon="0.11757">
        <ele>379</ele>
        <time>2018-09-30T07:22:13Z</time>
      </trkpt>
      <trkpt lat="43.18645" lon="0.11765">
        <ele>379</ele>
        <time>2018-09-30T07:22:14Z</time>
      </trkpt>
      <trkpt lat="43.18645" lon="0.11772">
        <ele>379</ele>
        <time>2018-09-30T07:22:15Z</time>
      </trkpt>
      <trkpt lat="43.18645" lon="0.1178">
        <ele>379</ele>
        <time>2018-09-30T07:22:16Z</time>
      </trkpt>
      <trkpt lat="43.18646" lon="0.11788">
        <ele>379</ele>
        <time>2018-09-30T07:22:17Z</time>
      </trkpt>
      <trkpt lat="43.18646" lon="0.11796">
        <ele>379</ele>
        <time>2018-09-30T07:22:18Z</time>
      </trkpt>
      <trkpt lat="43.18646" lon="0.11804">
        <ele>379</ele>
        <time>2018-09-30T07:22:19Z</time>
      </trkpt>
      <trkpt lat="43.18646" lon="0.1181">
        <ele>379</ele>
        <time>2018-09-30T07:22:20Z</time>
      </trkpt>
      <trkpt lat="43.18646" lon="0.11817">
        <ele>379</ele>
        <time>2018-09-30T07:22:21Z</time>
      </trkpt>
      <trkpt lat="43.18647" lon="0.11824">
        <ele>379</ele>
        <time>2018-09-30T07:22:22Z</time>
      </trkpt>
      <trkpt lat="43.18647" lon="0.11831">
        <ele>379</ele>
        <time>2018-09-30T07:22:23Z</time>
      </trkpt>
      <trkpt lat="43.18647" lon="0.11838">
        <ele>379</ele>
        <time>2018-09-30T07:22:24Z</time>
      </trkpt>
      <trkpt lat="43.18647" lon="0.11846">
        <ele>380</ele>
        <time>2018-09-30T07:22:25Z</time>
      </trkpt>
      <trkpt lat="43.18647" lon="0.11853">
        <ele>380</ele>
        <time>2018-09-30T07:22:26Z</time>
      </trkpt>
      <trkpt lat="43.18647" lon="0.11862">
        <ele>380</ele>
        <time>2018-09-30T07:22:27Z</time>
      </trkpt>
      <trkpt lat="43.18647" lon="0.1187">
        <ele>380</ele>
        <time>2018-09-30T07:22:28Z</time>
      </trkpt>
      <trkpt lat="43.18648" lon="0.11877">
        <ele>381</ele>
        <time>2018-09-30T07:22:29Z</time>
      </trkpt>
      <trkpt lat="43.18648" lon="0.11885">
        <ele>381</ele>
        <time>2018-09-30T07:22:30Z</time>
      </trkpt>
      <trkpt lat="43.18649" lon="0.11892">
        <ele>381</ele>
        <time>2018-09-30T07:22:31Z</time>
      </trkpt>
      <trkpt lat="43.18649" lon="0.11901">
        <ele>381</ele>
        <time>2018-09-30T07:22:32Z</time>
      </trkpt>
      <trkpt lat="43.18649" lon="0.11908">
        <ele>381</ele>
        <time>2018-09-30T07:22:33Z</time>
      </trkpt>
      <trkpt lat="43.1865" lon="0.11915">
        <ele>381</ele>
        <time>2018-09-30T07:22:34Z</time>
      </trkpt>
      <trkpt lat="43.18651" lon="0.11922">
        <ele>381</ele>
        <time>2018-09-30T07:22:35Z</time>
      </trkpt>
      <trkpt lat="43.18651" lon="0.11929">
        <ele>381</ele>
        <time>2018-09-30T07:22:36Z</time>
      </trkpt>
      <trkpt lat="43.18652" lon="0.11936">
        <ele>380</ele>
        <time>2018-09-30T07:22:37Z</time>
      </trkpt>
      <trkpt lat="43.18653" lon="0.11944">
        <ele>380</ele>
        <time>2018-09-30T07:22:38Z</time>
      </trkpt>
      <trkpt lat="43.18654" lon="0.1195">
        <ele>380</ele>
        <time>2018-09-30T07:22:39Z</time>
      </trkpt>
      <trkpt lat="43.18654" lon="0.11957">
        <ele>380</ele>
        <time>2018-09-30T07:22:40Z</time>
      </trkpt>
      <trkpt lat="43.18655" lon="0.11965">
        <ele>380</ele>
        <time>2018-09-30T07:22:41Z</time>
      </trkpt>
      <trkpt lat="43.18655" lon="0.11972">
        <ele>380</ele>
        <time>2018-09-30T07:22:42Z</time>
      </trkpt>
      <trkpt lat="43.18656" lon="0.1198">
        <ele>379</ele>
        <time>2018-09-30T07:22:43Z</time>
      </trkpt>
      <trkpt lat="43.18657" lon="0.11987">
        <ele>379</ele>
        <time>2018-09-30T07:22:44Z</time>
      </trkpt>
      <trkpt lat="43.18658" lon="0.11995">
        <ele>379</ele>
        <time>2018-09-30T07:22:45Z</time>
      </trkpt>
      <trkpt lat="43.18659" lon="0.12002">
        <ele>378</ele>
        <time>2018-09-30T07:22:46Z</time>
      </trkpt>
      <trkpt lat="43.1866" lon="0.12009">
        <ele>378</ele>
        <time>2018-09-30T07:22:47Z</time>
      </trkpt>
      <trkpt lat="43.18661" lon="0.12015">
        <ele>377</ele>
        <time>2018-09-30T07:22:48Z</time>
      </trkpt>
      <trkpt lat="43.18661" lon="0.12022">
        <ele>377</ele>
        <time>2018-09-30T07:22:49Z</time>
      </trkpt>
      <trkpt lat="43.18662" lon="0.12028">
        <ele>376</ele>
        <time>2018-09-30T07:22:50Z</time>
      </trkpt>
      <trkpt lat="43.18663" lon="0.12035">
        <ele>376</ele>
        <time>2018-09-30T07:22:51Z</time>
      </trkpt>
      <trkpt lat="43.18664" lon="0.12041">
        <ele>376</ele>
        <time>2018-09-30T07:22:52Z</time>
      </trkpt>
      <trkpt lat="43.18664" lon="0.12047">
        <ele>375</ele>
        <time>2018-09-30T07:22:53Z</time>
      </trkpt>
      <trkpt lat="43.18664" lon="0.12053">
        <ele>375</ele>
        <time>2018-09-30T07:22:54Z</time>
      </trkpt>
      <trkpt lat="43.18665" lon="0.12059">
        <ele>375</ele>
        <time>2018-09-30T07:22:55Z</time>
      </trkpt>
      <trkpt lat="43.18665" lon="0.12065">
        <ele>375</ele>
        <time>2018-09-30T07:22:56Z</time>
      </trkpt>
      <trkpt lat="43.18666" lon="0.12073">
        <ele>375</ele>
        <time>2018-09-30T07:22:57Z</time>
      </trkpt>
      <trkpt lat="43.18666" lon="0.1208">
        <ele>374</ele>
        <time>2018-09-30T07:22:58Z</time>
      </trkpt>
      <trkpt lat="43.18666" lon="0.12086">
        <ele>374</ele>
        <time>2018-09-30T07:22:59Z</time>
      </trkpt>
      <trkpt lat="43.18667" lon="0.12094">
        <ele>374</ele>
        <time>2018-09-30T07:23:00Z</time>
      </trkpt>
      <trkpt lat="43.18667" lon="0.12102">
        <ele>374</ele>
        <time>2018-09-30T07:23:01Z</time>
      </trkpt>
      <trkpt lat="43.18668" lon="0.12109">
        <ele>374</ele>
        <time>2018-09-30T07:23:02Z</time>
      </trkpt>
      <trkpt lat="43.18669" lon="0.12118">
        <ele>374</ele>
        <time>2018-09-30T07:23:03Z</time>
      </trkpt>
      <trkpt lat="43.18669" lon="0.12126">
        <ele>374</ele>
        <time>2018-09-30T07:23:04Z</time>
      </trkpt>
      <trkpt lat="43.18669" lon="0.12133">
        <ele>374</ele>
        <time>2018-09-30T07:23:05Z</time>
      </trkpt>
      <trkpt lat="43.18668" lon="0.1214">
        <ele>374</ele>
        <time>2018-09-30T07:23:06Z</time>
      </trkpt>
      <trkpt lat="43.18667" lon="0.12147">
        <ele>374</ele>
        <time>2018-09-30T07:23:07Z</time>
      </trkpt>
      <trkpt lat="43.18665" lon="0.12151">
        <ele>374</ele>
        <time>2018-09-30T07:23:08Z</time>
      </trkpt>
      <trkpt lat="43.18663" lon="0.12157">
        <ele>374</ele>
        <time>2018-09-30T07:23:09Z</time>
      </trkpt>
      <trkpt lat="43.18662" lon="0.12163">
        <ele>374</ele>
        <time>2018-09-30T07:23:10Z</time>
      </trkpt>
      <trkpt lat="43.1866" lon="0.12169">
        <ele>374</ele>
        <time>2018-09-30T07:23:11Z</time>
      </trkpt>
      <trkpt lat="43.18658" lon="0.12175">
        <ele>374</ele>
        <time>2018-09-30T07:23:12Z</time>
      </trkpt>
      <trkpt lat="43.18656" lon="0.12182">
        <ele>374</ele>
        <time>2018-09-30T07:23:13Z</time>
      </trkpt>
      <trkpt lat="43.18652" lon="0.12188">
        <ele>374</ele>
        <time>2018-09-30T07:23:14Z</time>
      </trkpt>
      <trkpt lat="43.18649" lon="0.12194">
        <ele>373</ele>
        <time>2018-09-30T07:23:15Z</time>
      </trkpt>
      <trkpt lat="43.18646" lon="0.122">
        <ele>373</ele>
        <time>2018-09-30T07:23:16Z</time>
      </trkpt>
      <trkpt lat="43.18643" lon="0.12205">
        <ele>373</ele>
        <time>2018-09-30T07:23:17Z</time>
      </trkpt>
      <trkpt lat="43.1864" lon="0.12211">
        <ele>373</ele>
        <time>2018-09-30T07:23:18Z</time>
      </trkpt>
      <trkpt lat="43.18637" lon="0.12218">
        <ele>373</ele>
        <time>2018-09-30T07:23:19Z</time>
      </trkpt>
      <trkpt lat="43.18634" lon="0.12223">
        <ele>373</ele>
        <time>2018-09-30T07:23:20Z</time>
      </trkpt>
      <trkpt lat="43.18631" lon="0.12229">
        <ele>372</ele>
        <time>2018-09-30T07:23:21Z</time>
      </trkpt>
      <trkpt lat="43.18629" lon="0.12233">
        <ele>372</ele>
        <time>2018-09-30T07:23:22Z</time>
      </trkpt>
      <trkpt lat="43.18626" lon="0.12237">
        <ele>372</ele>
        <time>2018-09-30T07:23:23Z</time>
      </trkpt>
      <trkpt lat="43.18624" lon="0.12243">
        <ele>372</ele>
        <time>2018-09-30T07:23:24Z</time>
      </trkpt>
      <trkpt lat="43.18621" lon="0.12248">
        <ele>372</ele>
        <time>2018-09-30T07:23:25Z</time>
      </trkpt>
      <trkpt lat="43.18619" lon="0.12253">
        <ele>372</ele>
        <time>2018-09-30T07:23:26Z</time>
      </trkpt>
      <trkpt lat="43.18616" lon="0.12259">
        <ele>372</ele>
        <time>2018-09-30T07:23:27Z</time>
      </trkpt>
      <trkpt lat="43.18614" lon="0.12263">
        <ele>372</ele>
        <time>2018-09-30T07:23:28Z</time>
      </trkpt>
      <trkpt lat="43.18612" lon="0.12268">
        <ele>372</ele>
        <time>2018-09-30T07:23:29Z</time>
      </trkpt>
      <trkpt lat="43.18609" lon="0.12273">
        <ele>372</ele>
        <time>2018-09-30T07:23:30Z</time>
      </trkpt>
      <trkpt lat="43.18606" lon="0.12279">
        <ele>372</ele>
        <time>2018-09-30T07:23:31Z</time>
      </trkpt>
      <trkpt lat="43.18603" lon="0.12284">
        <ele>372</ele>
        <time>2018-09-30T07:23:32Z</time>
      </trkpt>
      <trkpt lat="43.186" lon="0.1229">
        <ele>372</ele>
        <time>2018-09-30T07:23:33Z</time>
      </trkpt>
      <trkpt lat="43.18597" lon="0.12295">
        <ele>372</ele>
        <time>2018-09-30T07:23:34Z</time>
      </trkpt>
      <trkpt lat="43.18594" lon="0.12299">
        <ele>372</ele>
        <time>2018-09-30T07:23:35Z</time>
      </trkpt>
      <trkpt lat="43.18592" lon="0.12304">
        <ele>372</ele>
        <time>2018-09-30T07:23:36Z</time>
      </trkpt>
      <trkpt lat="43.1859" lon="0.1231">
        <ele>372</ele>
        <time>2018-09-30T07:23:37Z</time>
      </trkpt>
      <trkpt lat="43.18587" lon="0.12317">
        <ele>372</ele>
        <time>2018-09-30T07:23:38Z</time>
      </trkpt>
      <trkpt lat="43.18584" lon="0.12323">
        <ele>373</ele>
        <time>2018-09-30T07:23:39Z</time>
      </trkpt>
      <trkpt lat="43.18581" lon="0.12329">
        <ele>373</ele>
        <time>2018-09-30T07:23:40Z</time>
      </trkpt>
      <trkpt lat="43.18578" lon="0.12335">
        <ele>373</ele>
        <time>2018-09-30T07:23:41Z</time>
      </trkpt>
      <trkpt lat="43.18575" lon="0.12341">
        <ele>374</ele>
        <time>2018-09-30T07:23:42Z</time>
      </trkpt>
      <trkpt lat="43.18572" lon="0.12347">
        <ele>374</ele>
        <time>2018-09-30T07:23:43Z</time>
      </trkpt>
      <trkpt lat="43.18569" lon="0.12353">
        <ele>374</ele>
        <time>2018-09-30T07:23:44Z</time>
      </trkpt>
      <trkpt lat="43.18565" lon="0.12358">
        <ele>375</ele>
        <time>2018-09-30T07:23:45Z</time>
      </trkpt>
      <trkpt lat="43.18562" lon="0.12361">
        <ele>375</ele>
        <time>2018-09-30T07:23:46Z</time>
      </trkpt>
      <trkpt lat="43.1856" lon="0.12365">
        <ele>375</ele>
        <time>2018-09-30T07:23:47Z</time>
      </trkpt>
      <trkpt lat="43.18558" lon="0.1237">
        <ele>375</ele>
        <time>2018-09-30T07:23:48Z</time>
      </trkpt>
      <trkpt lat="43.18556" lon="0.12375">
        <ele>375</ele>
        <time>2018-09-30T07:23:49Z</time>
      </trkpt>
      <trkpt lat="43.18553" lon="0.12382">
        <ele>375</ele>
        <time>2018-09-30T07:23:50Z</time>
      </trkpt>
      <trkpt lat="43.18552" lon="0.12388">
        <ele>375</ele>
        <time>2018-09-30T07:23:51Z</time>
      </trkpt>
      <trkpt lat="43.1855" lon="0.12394">
        <ele>376</ele>
        <time>2018-09-30T07:23:52Z</time>
      </trkpt>
      <trkpt lat="43.18549" lon="0.124">
        <ele>376</ele>
        <time>2018-09-30T07:23:53Z</time>
      </trkpt>
      <trkpt lat="43.18549" lon="0.12405">
        <ele>376</ele>
        <time>2018-09-30T07:23:54Z</time>
      </trkpt>
      <trkpt lat="43.1855" lon="0.1241">
        <ele>376</ele>
        <time>2018-09-30T07:23:55Z</time>
      </trkpt>
      <trkpt lat="43.18551" lon="0.12414">
        <ele>377</ele>
        <time>2018-09-30T07:23:56Z</time>
      </trkpt>
      <trkpt lat="43.18552" lon="0.12419">
        <ele>377</ele>
        <time>2018-09-30T07:23:57Z</time>
      </trkpt>
      <trkpt lat="43.18553" lon="0.12424">
        <ele>377</ele>
        <time>2018-09-30T07:23:58Z</time>
      </trkpt>
      <trkpt lat="43.18554" lon="0.12428">
        <ele>377</ele>
        <time>2018-09-30T07:23:59Z</time>
      </trkpt>
      <trkpt lat="43.18555" lon="0.12434">
        <ele>378</ele>
        <time>2018-09-30T07:24:00Z</time>
      </trkpt>
      <trkpt lat="43.18554" lon="0.1244">
        <ele>378</ele>
        <time>2018-09-30T07:24:01Z</time>
      </trkpt>
      <trkpt lat="43.18553" lon="0.12445">
        <ele>378</ele>
        <time>2018-09-30T07:24:02Z</time>
      </trkpt>
      <trkpt lat="43.18551" lon="0.12449">
        <ele>379</ele>
        <time>2018-09-30T07:24:03Z</time>
      </trkpt>
      <trkpt lat="43.1855" lon="0.12452">
        <ele>379</ele>
        <time>2018-09-30T07:24:04Z</time>
      </trkpt>
      <trkpt lat="43.18548" lon="0.12455">
        <ele>379</ele>
        <time>2018-09-30T07:24:05Z</time>
      </trkpt>
      <trkpt lat="43.18546" lon="0.12458">
        <ele>379</ele>
        <time>2018-09-30T07:24:06Z</time>
      </trkpt>
      <trkpt lat="43.18545" lon="0.1246">
        <ele>380</ele>
        <time>2018-09-30T07:24:07Z</time>
      </trkpt>
      <trkpt lat="43.18543" lon="0.12463">
        <ele>380</ele>
        <time>2018-09-30T07:24:08Z</time>
      </trkpt>
      <trkpt lat="43.18541" lon="0.12465">
        <ele>380</ele>
        <time>2018-09-30T07:24:09Z</time>
      </trkpt>
      <trkpt lat="43.18539" lon="0.12467">
        <ele>380</ele>
        <time>2018-09-30T07:24:10Z</time>
      </trkpt>
      <trkpt lat="43.18537" lon="0.12469">
        <ele>380</ele>
        <time>2018-09-30T07:24:11Z</time>
      </trkpt>
      <trkpt lat="43.18535" lon="0.1247">
        <ele>380</ele>
        <time>2018-09-30T07:24:12Z</time>
      </trkpt>
      <trkpt lat="43.18533" lon="0.12472">
        <ele>380</ele>
        <time>2018-09-30T07:24:13Z</time>
      </trkpt>
      <trkpt lat="43.18531" lon="0.12475">
        <ele>380</ele>
        <time>2018-09-30T07:24:14Z</time>
      </trkpt>
      <trkpt lat="43.18529" lon="0.12476">
        <ele>380</ele>
        <time>2018-09-30T07:24:15Z</time>
      </trkpt>
      <trkpt lat="43.18527" lon="0.12479">
        <ele>381</ele>
        <time>2018-09-30T07:24:16Z</time>
      </trkpt>
      <trkpt lat="43.18526" lon="0.12481">
        <ele>381</ele>
        <time>2018-09-30T07:24:17Z</time>
      </trkpt>
      <trkpt lat="43.18525" lon="0.12483">
        <ele>381</ele>
        <time>2018-09-30T07:24:18Z</time>
      </trkpt>
      <trkpt lat="43.18524" lon="0.12484">
        <ele>381</ele>
        <time>2018-09-30T07:24:19Z</time>
      </trkpt>
      <trkpt lat="43.18523" lon="0.12488">
        <ele>381</ele>
        <time>2018-09-30T07:24:20Z</time>
      </trkpt>
      <trkpt lat="43.18522" lon="0.1249">
        <ele>381</ele>
        <time>2018-09-30T07:24:21Z</time>
      </trkpt>
      <trkpt lat="43.18521" lon="0.12493">
        <ele>381</ele>
        <time>2018-09-30T07:24:22Z</time>
      </trkpt>
      <trkpt lat="43.18521" lon="0.12496">
        <ele>381</ele>
        <time>2018-09-30T07:24:23Z</time>
      </trkpt>
      <trkpt lat="43.18521" lon="0.12499">
        <ele>381</ele>
        <time>2018-09-30T07:24:24Z</time>
      </trkpt>
      <trkpt lat="43.18522" lon="0.12501">
        <ele>381</ele>
        <time>2018-09-30T07:24:25Z</time>
      </trkpt>
      <trkpt lat="43.18523" lon="0.12503">
        <ele>381</ele>
        <time>2018-09-30T07:24:26Z</time>
      </trkpt>
      <trkpt lat="43.18524" lon="0.12504">
        <ele>381</ele>
        <time>2018-09-30T07:24:27Z</time>
      </trkpt>
      <trkpt lat="43.18525" lon="0.12506">
        <ele>381</ele>
        <time>2018-09-30T07:24:28Z</time>
      </trkpt>
      <trkpt lat="43.18527" lon="0.12507">
        <ele>381</ele>
        <time>2018-09-30T07:24:29Z</time>
      </trkpt>
      <trkpt lat="43.18528" lon="0.12508">
        <ele>382</ele>
        <time>2018-09-30T07:24:30Z</time>
      </trkpt>
      <trkpt lat="43.18529" lon="0.12509">
        <ele>382</ele>
        <time>2018-09-30T07:24:31Z</time>
      </trkpt>
      <trkpt lat="43.18531" lon="0.12509">
        <ele>382</ele>
        <time>2018-09-30T07:24:32Z</time>
      </trkpt>
      <trkpt lat="43.18532" lon="0.12509">
        <ele>382</ele>
        <time>2018-09-30T07:24:33Z</time>
      </trkpt>
      <trkpt lat="43.18534" lon="0.12509">
        <ele>382</ele>
        <time>2018-09-30T07:24:34Z</time>
      </trkpt>
      <trkpt lat="43.18535" lon="0.12509">
        <ele>382</ele>
        <time>2018-09-30T07:24:35Z</time>
      </trkpt>
      <trkpt lat="43.18536" lon="0.1251">
        <ele>382</ele>
        <time>2018-09-30T07:24:36Z</time>
      </trkpt>
      <trkpt lat="43.18537" lon="0.12511">
        <ele>382</ele>
        <time>2018-09-30T07:24:37Z</time>
      </trkpt>
      <trkpt lat="43.18538" lon="0.12513">
        <ele>382</ele>
        <time>2018-09-30T07:24:38Z</time>
      </trkpt>
      <trkpt lat="43.1854" lon="0.12515">
        <ele>382</ele>
        <time>2018-09-30T07:24:39Z</time>
      </trkpt>
      <trkpt lat="43.18542" lon="0.12517">
        <ele>382</ele>
        <time>2018-09-30T07:24:40Z</time>
      </trkpt>
      <trkpt lat="43.18543" lon="0.12519">
        <ele>382</ele>
        <time>2018-09-30T07:24:41Z</time>
      </trkpt>
      <trkpt lat="43.18545" lon="0.12521">
        <ele>382</ele>
        <time>2018-09-30T07:24:42Z</time>
      </trkpt>
      <trkpt lat="43.18547" lon="0.12523">
        <ele>382</ele>
        <time>2018-09-30T07:24:43Z</time>
      </trkpt>
      <trkpt lat="43.18549" lon="0.12524">
        <ele>382</ele>
        <time>2018-09-30T07:24:44Z</time>
      </trkpt>
      <trkpt lat="43.1855" lon="0.12526">
        <ele>382</ele>
        <time>2018-09-30T07:24:45Z</time>
      </trkpt>
      <trkpt lat="43.18552" lon="0.12526">
        <ele>382</ele>
        <time>2018-09-30T07:24:46Z</time>
      </trkpt>
      <trkpt lat="43.18554" lon="0.12528">
        <ele>382</ele>
        <time>2018-09-30T07:24:47Z</time>
      </trkpt>
      <trkpt lat="43.18556" lon="0.12529">
        <ele>382</ele>
        <time>2018-09-30T07:24:48Z</time>
      </trkpt>
      <trkpt lat="43.18558" lon="0.1253">
        <ele>382</ele>
        <time>2018-09-30T07:24:49Z</time>
      </trkpt>
      <trkpt lat="43.18559" lon="0.12532">
        <ele>382</ele>
        <time>2018-09-30T07:24:50Z</time>
      </trkpt>
      <trkpt lat="43.18562" lon="0.12533">
        <ele>382</ele>
        <time>2018-09-30T07:24:51Z</time>
      </trkpt>
      <trkpt lat="43.18564" lon="0.12535">
        <ele>382</ele>
        <time>2018-09-30T07:24:52Z</time>
      </trkpt>
      <trkpt lat="43.18565" lon="0.12537">
        <ele>382</ele>
        <time>2018-09-30T07:24:53Z</time>
      </trkpt>
      <trkpt lat="43.18567" lon="0.1254">
        <ele>382</ele>
        <time>2018-09-30T07:24:54Z</time>
      </trkpt>
      <trkpt lat="43.18567" lon="0.12543">
        <ele>382</ele>
        <time>2018-09-30T07:24:55Z</time>
      </trkpt>
      <trkpt lat="43.18567" lon="0.12546">
        <ele>382</ele>
        <time>2018-09-30T07:24:56Z</time>
      </trkpt>
      <trkpt lat="43.18567" lon="0.12549">
        <ele>382</ele>
        <time>2018-09-30T07:24:57Z</time>
      </trkpt>
      <trkpt lat="43.18566" lon="0.12551">
        <ele>382</ele>
        <time>2018-09-30T07:24:58Z</time>
      </trkpt>
      <trkpt lat="43.18564" lon="0.12553">
        <ele>382</ele>
        <time>2018-09-30T07:24:59Z</time>
      </trkpt>
      <trkpt lat="43.18563" lon="0.12554">
        <ele>383</ele>
        <time>2018-09-30T07:25:00Z</time>
      </trkpt>
      <trkpt lat="43.18561" lon="0.12555">
        <ele>383</ele>
        <time>2018-09-30T07:25:01Z</time>
      </trkpt>
      <trkpt lat="43.1856" lon="0.12556">
        <ele>383</ele>
        <time>2018-09-30T07:25:02Z</time>
      </trkpt>
      <trkpt lat="43.18558" lon="0.12557">
        <ele>383</ele>
        <time>2018-09-30T07:25:03Z</time>
      </trkpt>
      <trkpt lat="43.18557" lon="0.12558">
        <ele>383</ele>
        <time>2018-09-30T07:25:04Z</time>
      </trkpt>
      <trkpt lat="43.18556" lon="0.12558">
        <ele>383</ele>
        <time>2018-09-30T07:25:05Z</time>
      </trkpt>
      <trkpt lat="43.18554" lon="0.12559">
        <ele>383</ele>
        <time>2018-09-30T07:25:06Z</time>
      </trkpt>
      <trkpt lat="43.18553" lon="0.1256">
        <ele>383</ele>
        <time>2018-09-30T07:25:07Z</time>
      </trkpt>
      <trkpt lat="43.18551" lon="0.12561">
        <ele>384</ele>
        <time>2018-09-30T07:25:08Z</time>
      </trkpt>
      <trkpt lat="43.18548" lon="0.12563">
        <ele>384</ele>
        <time>2018-09-30T07:25:09Z</time>
      </trkpt>
      <trkpt lat="43.18546" lon="0.12565">
        <ele>384</ele>
        <time>2018-09-30T07:25:10Z</time>
      </trkpt>
      <trkpt lat="43.18545" lon="0.12565">
        <ele>384</ele>
        <time>2018-09-30T07:25:11Z</time>
      </trkpt>
      <trkpt lat="43.18543" lon="0.12567">
        <ele>384</ele>
        <time>2018-09-30T07:25:12Z</time>
      </trkpt>
      <trkpt lat="43.18541" lon="0.12568">
        <ele>384</ele>
        <time>2018-09-30T07:25:13Z</time>
      </trkpt>
      <trkpt lat="43.18539" lon="0.12568">
        <ele>384</ele>
        <time>2018-09-30T07:25:14Z</time>
      </trkpt>
      <trkpt lat="43.18538" lon="0.12569">
        <ele>385</ele>
        <time>2018-09-30T07:25:15Z</time>
      </trkpt>
      <trkpt lat="43.18536" lon="0.12569">
        <ele>385</ele>
        <time>2018-09-30T07:25:16Z</time>
      </trkpt>
      <trkpt lat="43.18534" lon="0.12569">
        <ele>385</ele>
        <time>2018-09-30T07:25:17Z</time>
      </trkpt>
      <trkpt lat="43.18532" lon="0.12569">
        <ele>385</ele>
        <time>2018-09-30T07:25:18Z</time>
      </trkpt>
      <trkpt lat="43.1853" lon="0.12569">
        <ele>385</ele>
        <time>2018-09-30T07:25:19Z</time>
      </trkpt>
      <trkpt lat="43.18528" lon="0.12569">
        <ele>385</ele>
        <time>2018-09-30T07:25:20Z</time>
      </trkpt>
      <trkpt lat="43.18526" lon="0.12569">
        <ele>385</ele>
        <time>2018-09-30T07:25:21Z</time>
      </trkpt>
      <trkpt lat="43.18524" lon="0.12569">
        <ele>385</ele>
        <time>2018-09-30T07:25:22Z</time>
      </trkpt>
      <trkpt lat="43.18522" lon="0.12569">
        <ele>386</ele>
        <time>2018-09-30T07:25:23Z</time>
      </trkpt>
      <trkpt lat="43.1852" lon="0.12569">
        <ele>386</ele>
        <time>2018-09-30T07:25:24Z</time>
      </trkpt>
      <trkpt lat="43.18518" lon="0.12569">
        <ele>386</ele>
        <time>2018-09-30T07:25:25Z</time>
      </trkpt>
      <trkpt lat="43.18516" lon="0.1257">
        <ele>386</ele>
        <time>2018-09-30T07:25:26Z</time>
      </trkpt>
      <trkpt lat="43.18514" lon="0.12571">
        <ele>386</ele>
        <time>2018-09-30T07:25:27Z</time>
      </trkpt>
      <trkpt lat="43.18512" lon="0.12571">
        <ele>386</ele>
        <time>2018-09-30T07:25:28Z</time>
      </trkpt>
      <trkpt lat="43.1851" lon="0.12571">
        <ele>386</ele>
        <time>2018-09-30T07:25:29Z</time>
      </trkpt>
      <trkpt lat="43.18509" lon="0.12572">
        <ele>386</ele>
        <time>2018-09-30T07:25:30Z</time>
      </trkpt>
      <trkpt lat="43.18507" lon="0.12574">
        <ele>386</ele>
        <time>2018-09-30T07:25:31Z</time>
      </trkpt>
      <trkpt lat="43.18505" lon="0.12575">
        <ele>387</ele>
        <time>2018-09-30T07:25:32Z</time>
      </trkpt>
      <trkpt lat="43.18503" lon="0.12576">
        <ele>387</ele>
        <time>2018-09-30T07:25:33Z</time>
      </trkpt>
      <trkpt lat="43.18501" lon="0.12577">
        <ele>387</ele>
        <time>2018-09-30T07:25:34Z</time>
      </trkpt>
      <trkpt lat="43.185" lon="0.12578">
        <ele>387</ele>
        <time>2018-09-30T07:25:35Z</time>
      </trkpt>
      <trkpt lat="43.18498" lon="0.12579">
        <ele>387</ele>
        <time>2018-09-30T07:25:36Z</time>
      </trkpt>
      <trkpt lat="43.18496" lon="0.12579">
        <ele>387</ele>
        <time>2018-09-30T07:25:37Z</time>
      </trkpt>
      <trkpt lat="43.18495" lon="0.12581">
        <ele>387</ele>
        <time>2018-09-30T07:25:38Z</time>
      </trkpt>
      <trkpt lat="43.18494" lon="0.12581">
        <ele>387</ele>
        <time>2018-09-30T07:25:39Z</time>
      </trkpt>
      <trkpt lat="43.18492" lon="0.12583">
        <ele>387</ele>
        <time>2018-09-30T07:25:40Z</time>
      </trkpt>
      <trkpt lat="43.18491" lon="0.12584">
        <ele>387</ele>
        <time>2018-09-30T07:25:41Z</time>
      </trkpt>
      <trkpt lat="43.1849" lon="0.12585">
        <ele>387</ele>
        <time>2018-09-30T07:25:42Z</time>
      </trkpt>
      <trkpt lat="43.18489" lon="0.12586">
        <ele>387</ele>
        <time>2018-09-30T07:25:43Z</time>
      </trkpt>
      <trkpt lat="43.18488" lon="0.12587">
        <ele>388</ele>
        <time>2018-09-30T07:25:44Z</time>
      </trkpt>
      <trkpt lat="43.18486" lon="0.12587">
        <ele>388</ele>
        <time>2018-09-30T07:25:45Z</time>
      </trkpt>
      <trkpt lat="43.18485" lon="0.12588">
        <ele>388</ele>
        <time>2018-09-30T07:25:46Z</time>
      </trkpt>
      <trkpt lat="43.18483" lon="0.12589">
        <ele>388</ele>
        <time>2018-09-30T07:25:47Z</time>
      </trkpt>
      <trkpt lat="43.18482" lon="0.1259">
        <ele>388</ele>
        <time>2018-09-30T07:25:48Z</time>
      </trkpt>
      <trkpt lat="43.1848" lon="0.1259">
        <ele>388</ele>
        <time>2018-09-30T07:25:49Z</time>
      </trkpt>
      <trkpt lat="43.18479" lon="0.12592">
        <ele>388</ele>
        <time>2018-09-30T07:25:50Z</time>
      </trkpt>
      <trkpt lat="43.18477" lon="0.12594">
        <ele>389</ele>
        <time>2018-09-30T07:25:51Z</time>
      </trkpt>
      <trkpt lat="43.18475" lon="0.12596">
        <ele>389</ele>
        <time>2018-09-30T07:25:52Z</time>
      </trkpt>
      <trkpt lat="43.18474" lon="0.12598">
        <ele>389</ele>
        <time>2018-09-30T07:25:53Z</time>
      </trkpt>
      <trkpt lat="43.18473" lon="0.126">
        <ele>389</ele>
        <time>2018-09-30T07:25:54Z</time>
      </trkpt>
      <trkpt lat="43.18471" lon="0.12601">
        <ele>389</ele>
        <time>2018-09-30T07:25:55Z</time>
      </trkpt>
      <trkpt lat="43.1847" lon="0.12603">
        <ele>389</ele>
        <time>2018-09-30T07:25:56Z</time>
      </trkpt>
      <trkpt lat="43.18468" lon="0.12604">
        <ele>390</ele>
        <time>2018-09-30T07:25:57Z</time>
      </trkpt>
      <trkpt lat="43.18467" lon="0.12605">
        <ele>390</ele>
        <time>2018-09-30T07:25:58Z</time>
      </trkpt>
      <trkpt lat="43.18466" lon="0.12606">
        <ele>390</ele>
        <time>2018-09-30T07:25:59Z</time>
      </trkpt>
      <trkpt lat="43.18464" lon="0.12608">
        <ele>390</ele>
        <time>2018-09-30T07:26:00Z</time>
      </trkpt>
      <trkpt lat="43.18463" lon="0.12609">
        <ele>391</ele>
        <time>2018-09-30T07:26:01Z</time>
      </trkpt>
      <trkpt lat="43.18462" lon="0.1261">
        <ele>391</ele>
        <time>2018-09-30T07:26:02Z</time>
      </trkpt>
      <trkpt lat="43.1846" lon="0.12612">
        <ele>391</ele>
        <time>2018-09-30T07:26:03Z</time>
      </trkpt>
      <trkpt lat="43.18459" lon="0.12612">
        <ele>391</ele>
        <time>2018-09-30T07:26:04Z</time>
      </trkpt>
      <trkpt lat="43.18457" lon="0.12613">
        <ele>392</ele>
        <time>2018-09-30T07:26:05Z</time>
      </trkpt>
      <trkpt lat="43.18454" lon="0.12615">
        <ele>392</ele>
        <time>2018-09-30T07:26:06Z</time>
      </trkpt>
      <trkpt lat="43.18452" lon="0.12617">
        <ele>392</ele>
        <time>2018-09-30T07:26:07Z</time>
      </trkpt>
      <trkpt lat="43.1845" lon="0.12618">
        <ele>392</ele>
        <time>2018-09-30T07:26:08Z</time>
      </trkpt>
      <trkpt lat="43.18448" lon="0.1262">
        <ele>392</ele>
        <time>2018-09-30T07:26:09Z</time>
      </trkpt>
      <trkpt lat="43.18446" lon="0.12621">
        <ele>393</ele>
        <time>2018-09-30T07:26:10Z</time>
      </trkpt>
      <trkpt lat="43.18444" lon="0.12622">
        <ele>393</ele>
        <time>2018-09-30T07:26:11Z</time>
      </trkpt>
      <trkpt lat="43.18442" lon="0.12624">
        <ele>393</ele>
        <time>2018-09-30T07:26:12Z</time>
      </trkpt>
      <trkpt lat="43.1844" lon="0.12625">
        <ele>393</ele>
        <time>2018-09-30T07:26:13Z</time>
      </trkpt>
      <trkpt lat="43.18438" lon="0.12626">
        <ele>394</ele>
        <time>2018-09-30T07:26:14Z</time>
      </trkpt>
      <trkpt lat="43.18436" lon="0.12627">
        <ele>394</ele>
        <time>2018-09-30T07:26:15Z</time>
      </trkpt>
      <trkpt lat="43.18434" lon="0.12628">
        <ele>394</ele>
        <time>2018-09-30T07:26:16Z</time>
      </trkpt>
      <trkpt lat="43.18432" lon="0.12629">
        <ele>394</ele>
        <time>2018-09-30T07:26:17Z</time>
      </trkpt>
      <trkpt lat="43.1843" lon="0.1263">
        <ele>394</ele>
        <time>2018-09-30T07:26:18Z</time>
      </trkpt>
      <trkpt lat="43.18429" lon="0.12631">
        <ele>395</ele>
        <time>2018-09-30T07:26:19Z</time>
      </trkpt>
      <trkpt lat="43.18427" lon="0.12633">
        <ele>395</ele>
        <time>2018-09-30T07:26:20Z</time>
      </trkpt>
      <trkpt lat="43.18424" lon="0.12635">
        <ele>395</ele>
        <time>2018-09-30T07:26:21Z</time>
      </trkpt>
      <trkpt lat="43.18422" lon="0.12636">
        <ele>395</ele>
        <time>2018-09-30T07:26:22Z</time>
      </trkpt>
      <trkpt lat="43.1842" lon="0.12637">
        <ele>395</ele>
        <time>2018-09-30T07:26:23Z</time>
      </trkpt>
      <trkpt lat="43.18418" lon="0.12639">
        <ele>395</ele>
        <time>2018-09-30T07:26:24Z</time>
      </trkpt>
      <trkpt lat="43.18416" lon="0.12641">
        <ele>396</ele>
        <time>2018-09-30T07:26:25Z</time>
      </trkpt>
      <trkpt lat="43.18415" lon="0.12643">
        <ele>396</ele>
        <time>2018-09-30T07:26:26Z</time>
      </trkpt>
      <trkpt lat="43.18414" lon="0.12645">
        <ele>396</ele>
        <time>2018-09-30T07:26:27Z</time>
      </trkpt>
      <trkpt lat="43.18415" lon="0.12644">
        <ele>396</ele>
        <time>2018-09-30T07:26:28Z</time>
      </trkpt>
      <trkpt lat="43.18416" lon="0.12645">
        <ele>396</ele>
        <time>2018-09-30T07:26:29Z</time>
      </trkpt>
      <trkpt lat="43.18417" lon="0.12645">
        <ele>396</ele>
        <time>2018-09-30T07:26:30Z</time>
      </trkpt>
      <trkpt lat="43.18418" lon="0.12646">
        <ele>396</ele>
        <time>2018-09-30T07:26:31Z</time>
      </trkpt>
      <trkpt lat="43.18419" lon="0.12646">
        <ele>396</ele>
        <time>2018-09-30T07:26:32Z</time>
      </trkpt>
      <trkpt lat="43.18421" lon="0.12647">
        <ele>396</ele>
        <time>2018-09-30T07:26:33Z</time>
      </trkpt>
      <trkpt lat="43.18422" lon="0.12647">
        <ele>396</ele>
        <time>2018-09-30T07:26:34Z</time>
      </trkpt>
      <trkpt lat="43.18423" lon="0.12647">
        <ele>396</ele>
        <time>2018-09-30T07:26:35Z</time>
      </trkpt>
      <trkpt lat="43.18425" lon="0.12647">
        <ele>396</ele>
        <time>2018-09-30T07:26:36Z</time>
      </trkpt>
      <trkpt lat="43.18426" lon="0.12647">
        <ele>397</ele>
        <time>2018-09-30T07:26:37Z</time>
      </trkpt>
      <trkpt lat="43.18427" lon="0.12647">
        <ele>397</ele>
        <time>2018-09-30T07:26:38Z</time>
      </trkpt>
      <trkpt lat="43.18429" lon="0.12647">
        <ele>397</ele>
        <time>2018-09-30T07:26:39Z</time>
      </trkpt>
      <trkpt lat="43.18431" lon="0.12647">
        <ele>397</ele>
        <time>2018-09-30T07:26:40Z</time>
      </trkpt>
      <trkpt lat="43.18432" lon="0.12647">
        <ele>397</ele>
        <time>2018-09-30T07:26:41Z</time>
      </trkpt>
      <trkpt lat="43.18433" lon="0.12646">
        <ele>397</ele>
        <time>2018-09-30T07:26:42Z</time>
      </trkpt>
      <trkpt lat="43.18435" lon="0.12646">
        <ele>397</ele>
        <time>2018-09-30T07:26:43Z</time>
      </trkpt>
      <trkpt lat="43.18437" lon="0.12645">
        <ele>397</ele>
        <time>2018-09-30T07:26:44Z</time>
      </trkpt>
      <trkpt lat="43.18438" lon="0.12645">
        <ele>398</ele>
        <time>2018-09-30T07:26:45Z</time>
      </trkpt>
      <trkpt lat="43.1844" lon="0.12646">
        <ele>398</ele>
        <time>2018-09-30T07:26:46Z</time>
      </trkpt>
      <trkpt lat="43.18441" lon="0.12646">
        <ele>398</ele>
        <time>2018-09-30T07:26:47Z</time>
      </trkpt>
      <trkpt lat="43.18443" lon="0.12646">
        <ele>398</ele>
        <time>2018-09-30T07:26:48Z</time>
      </trkpt>
      <trkpt lat="43.18444" lon="0.12647">
        <ele>398</ele>
        <time>2018-09-30T07:26:49Z</time>
      </trkpt>
      <trkpt lat="43.18445" lon="0.12649">
        <ele>398</ele>
        <time>2018-09-30T07:26:50Z</time>
      </trkpt>
      <trkpt lat="43.18447" lon="0.1265">
        <ele>398</ele>
        <time>2018-09-30T07:26:51Z</time>
      </trkpt>
      <trkpt lat="43.18449" lon="0.1265">
        <ele>399</ele>
        <time>2018-09-30T07:26:52Z</time>
      </trkpt>
      <trkpt lat="43.18452" lon="0.1265">
        <ele>399</ele>
        <time>2018-09-30T07:26:53Z</time>
      </trkpt>
      <trkpt lat="43.18455" lon="0.1265">
        <ele>399</ele>
        <time>2018-09-30T07:26:54Z</time>
      </trkpt>
      <trkpt lat="43.18456" lon="0.12651">
        <ele>399</ele>
        <time>2018-09-30T07:26:55Z</time>
      </trkpt>
      <trkpt lat="43.18458" lon="0.12652">
        <ele>399</ele>
        <time>2018-09-30T07:26:56Z</time>
      </trkpt>
      <trkpt lat="43.1846" lon="0.12651">
        <ele>399</ele>
        <time>2018-09-30T07:26:57Z</time>
      </trkpt>
      <trkpt lat="43.18462" lon="0.12651">
        <ele>399</ele>
        <time>2018-09-30T07:26:58Z</time>
      </trkpt>
      <trkpt lat="43.18463" lon="0.12653">
        <ele>399</ele>
        <time>2018-09-30T07:26:59Z</time>
      </trkpt>
      <trkpt lat="43.18464" lon="0.12654">
        <ele>399</ele>
        <time>2018-09-30T07:27:00Z</time>
      </trkpt>
      <trkpt lat="43.18465" lon="0.12654">
        <ele>400</ele>
        <time>2018-09-30T07:27:01Z</time>
      </trkpt>
      <trkpt lat="43.18467" lon="0.12653">
        <ele>400</ele>
        <time>2018-09-30T07:27:02Z</time>
      </trkpt>
      <trkpt lat="43.18468" lon="0.12653">
        <ele>400</ele>
        <time>2018-09-30T07:27:03Z</time>
      </trkpt>
      <trkpt lat="43.18469" lon="0.12653">
        <ele>400</ele>
        <time>2018-09-30T07:27:04Z</time>
      </trkpt>
      <trkpt lat="43.18471" lon="0.12654">
        <ele>400</ele>
        <time>2018-09-30T07:27:05Z</time>
      </trkpt>
      <trkpt lat="43.18472" lon="0.12655">
        <ele>400</ele>
        <time>2018-09-30T07:27:06Z</time>
      </trkpt>
      <trkpt lat="43.18474" lon="0.12656">
        <ele>400</ele>
        <time>2018-09-30T07:27:07Z</time>
      </trkpt>
      <trkpt lat="43.18476" lon="0.12657">
        <ele>400</ele>
        <time>2018-09-30T07:27:08Z</time>
      </trkpt>
      <trkpt lat="43.18477" lon="0.12658">
        <ele>400</ele>
        <time>2018-09-30T07:27:09Z</time>
      </trkpt>
      <trkpt lat="43.18479" lon="0.1266">
        <ele>401</ele>
        <time>2018-09-30T07:27:10Z</time>
      </trkpt>
      <trkpt lat="43.18481" lon="0.12661">
        <ele>401</ele>
        <time>2018-09-30T07:27:11Z</time>
      </trkpt>
      <trkpt lat="43.18483" lon="0.12662">
        <ele>401</ele>
        <time>2018-09-30T07:27:12Z</time>
      </trkpt>
      <trkpt lat="43.18485" lon="0.12664">
        <ele>401</ele>
        <time>2018-09-30T07:27:13Z</time>
      </trkpt>
      <trkpt lat="43.18487" lon="0.12666">
        <ele>401</ele>
        <time>2018-09-30T07:27:14Z</time>
      </trkpt>
      <trkpt lat="43.18489" lon="0.12668">
        <ele>401</ele>
        <time>2018-09-30T07:27:15Z</time>
      </trkpt>
      <trkpt lat="43.18492" lon="0.12669">
        <ele>400</ele>
        <time>2018-09-30T07:27:16Z</time>
      </trkpt>
      <trkpt lat="43.18493" lon="0.1267">
        <ele>400</ele>
        <time>2018-09-30T07:27:17Z</time>
      </trkpt>
      <trkpt lat="43.18498" lon="0.12671">
        <ele>400</ele>
        <time>2018-09-30T07:27:18Z</time>
      </trkpt>
      <trkpt lat="43.18501" lon="0.12672">
        <ele>400</ele>
        <time>2018-09-30T07:27:19Z</time>
      </trkpt>
      <trkpt lat="43.18504" lon="0.12673">
        <ele>400</ele>
        <time>2018-09-30T07:27:20Z</time>
      </trkpt>
      <trkpt lat="43.18507" lon="0.12675">
        <ele>400</ele>
        <time>2018-09-30T07:27:21Z</time>
      </trkpt>
      <trkpt lat="43.18508" lon="0.12677">
        <ele>400</ele>
        <time>2018-09-30T07:27:22Z</time>
      </trkpt>
      <trkpt lat="43.18509" lon="0.1268">
        <ele>400</ele>
        <time>2018-09-30T07:27:23Z</time>
      </trkpt>
      <trkpt lat="43.1851" lon="0.12682">
        <ele>400</ele>
        <time>2018-09-30T07:27:24Z</time>
      </trkpt>
      <trkpt lat="43.18512" lon="0.12684">
        <ele>400</ele>
        <time>2018-09-30T07:27:25Z</time>
      </trkpt>
      <trkpt lat="43.18514" lon="0.12687">
        <ele>400</ele>
        <time>2018-09-30T07:27:26Z</time>
      </trkpt>
      <trkpt lat="43.18516" lon="0.1269">
        <ele>400</ele>
        <time>2018-09-30T07:27:27Z</time>
      </trkpt>
      <trkpt lat="43.18517" lon="0.12692">
        <ele>400</ele>
        <time>2018-09-30T07:27:28Z</time>
      </trkpt>
      <trkpt lat="43.18518" lon="0.12694">
        <ele>400</ele>
        <time>2018-09-30T07:27:29Z</time>
      </trkpt>
      <trkpt lat="43.1852" lon="0.12696">
        <ele>400</ele>
        <time>2018-09-30T07:27:30Z</time>
      </trkpt>
      <trkpt lat="43.18522" lon="0.12698">
        <ele>400</ele>
        <time>2018-09-30T07:27:31Z</time>
      </trkpt>
      <trkpt lat="43.18524" lon="0.127">
        <ele>400</ele>
        <time>2018-09-30T07:27:32Z</time>
      </trkpt>
      <trkpt lat="43.18526" lon="0.12702">
        <ele>400</ele>
        <time>2018-09-30T07:27:33Z</time>
      </trkpt>
      <trkpt lat="43.18528" lon="0.12706">
        <ele>400</ele>
        <time>2018-09-30T07:27:34Z</time>
      </trkpt>
      <trkpt lat="43.18529" lon="0.12709">
        <ele>401</ele>
        <time>2018-09-30T07:27:35Z</time>
      </trkpt>
      <trkpt lat="43.18531" lon="0.12712">
        <ele>401</ele>
        <time>2018-09-30T07:27:36Z</time>
      </trkpt>
      <trkpt lat="43.18534" lon="0.12715">
        <ele>401</ele>
        <time>2018-09-30T07:27:37Z</time>
      </trkpt>
      <trkpt lat="43.18536" lon="0.12717">
        <ele>401</ele>
        <time>2018-09-30T07:27:38Z</time>
      </trkpt>
      <trkpt lat="43.18539" lon="0.12719">
        <ele>401</ele>
        <time>2018-09-30T07:27:39Z</time>
      </trkpt>
      <trkpt lat="43.1854" lon="0.12722">
        <ele>401</ele>
        <time>2018-09-30T07:27:40Z</time>
      </trkpt>
      <trkpt lat="43.18541" lon="0.12724">
        <ele>401</ele>
        <time>2018-09-30T07:27:41Z</time>
      </trkpt>
      <trkpt lat="43.18544" lon="0.12725">
        <ele>402</ele>
        <time>2018-09-30T07:27:42Z</time>
      </trkpt>
      <trkpt lat="43.18546" lon="0.12727">
        <ele>402</ele>
        <time>2018-09-30T07:27:43Z</time>
      </trkpt>
      <trkpt lat="43.18546" lon="0.12729">
        <ele>402</ele>
        <time>2018-09-30T07:27:44Z</time>
      </trkpt>
      <trkpt lat="43.18547" lon="0.12731">
        <ele>402</ele>
        <time>2018-09-30T07:27:45Z</time>
      </trkpt>
      <trkpt lat="43.18547" lon="0.12733">
        <ele>402</ele>
        <time>2018-09-30T07:27:46Z</time>
      </trkpt>
      <trkpt lat="43.18547" lon="0.12736">
        <ele>402</ele>
        <time>2018-09-30T07:27:47Z</time>
      </trkpt>
      <trkpt lat="43.18548" lon="0.12738">
        <ele>402</ele>
        <time>2018-09-30T07:27:48Z</time>
      </trkpt>
      <trkpt lat="43.18549" lon="0.1274">
        <ele>403</ele>
        <time>2018-09-30T07:27:49Z</time>
      </trkpt>
      <trkpt lat="43.1855" lon="0.12742">
        <ele>403</ele>
        <time>2018-09-30T07:27:50Z</time>
      </trkpt>
      <trkpt lat="43.1855" lon="0.12744">
        <ele>403</ele>
        <time>2018-09-30T07:27:51Z</time>
      </trkpt>
      <trkpt lat="43.18549" lon="0.12746">
        <ele>403</ele>
        <time>2018-09-30T07:27:52Z</time>
      </trkpt>
      <trkpt lat="43.18548" lon="0.12747">
        <ele>403</ele>
        <time>2018-09-30T07:27:53Z</time>
      </trkpt>
      <trkpt lat="43.18547" lon="0.12748">
        <ele>403</ele>
        <time>2018-09-30T07:27:54Z</time>
      </trkpt>
      <trkpt lat="43.18546" lon="0.1275">
        <ele>403</ele>
        <time>2018-09-30T07:27:55Z</time>
      </trkpt>
      <trkpt lat="43.18545" lon="0.12751">
        <ele>403</ele>
        <time>2018-09-30T07:27:56Z</time>
      </trkpt>
      <trkpt lat="43.18543" lon="0.12752">
        <ele>403</ele>
        <time>2018-09-30T07:27:57Z</time>
      </trkpt>
      <trkpt lat="43.18542" lon="0.12753">
        <ele>403</ele>
        <time>2018-09-30T07:27:58Z</time>
      </trkpt>
      <trkpt lat="43.1854" lon="0.12755">
        <ele>403</ele>
        <time>2018-09-30T07:27:59Z</time>
      </trkpt>
      <trkpt lat="43.18539" lon="0.12756">
        <ele>403</ele>
        <time>2018-09-30T07:28:00Z</time>
      </trkpt>
      <trkpt lat="43.18537" lon="0.12757">
        <ele>403</ele>
        <time>2018-09-30T07:28:01Z</time>
      </trkpt>
      <trkpt lat="43.18535" lon="0.12758">
        <ele>403</ele>
        <time>2018-09-30T07:28:02Z</time>
      </trkpt>
      <trkpt lat="43.18534" lon="0.12759">
        <ele>403</ele>
        <time>2018-09-30T07:28:03Z</time>
      </trkpt>
      <trkpt lat="43.18532" lon="0.1276">
        <ele>403</ele>
        <time>2018-09-30T07:28:04Z</time>
      </trkpt>
      <trkpt lat="43.18531" lon="0.12761">
        <ele>403</ele>
        <time>2018-09-30T07:28:05Z</time>
      </trkpt>
      <trkpt lat="43.18529" lon="0.12762">
        <ele>403</ele>
        <time>2018-09-30T07:28:06Z</time>
      </trkpt>
      <trkpt lat="43.18527" lon="0.12762">
        <ele>403</ele>
        <time>2018-09-30T07:28:07Z</time>
      </trkpt>
      <trkpt lat="43.18525" lon="0.12763">
        <ele>403</ele>
        <time>2018-09-30T07:28:08Z</time>
      </trkpt>
      <trkpt lat="43.18523" lon="0.12762">
        <ele>403</ele>
        <time>2018-09-30T07:28:09Z</time>
      </trkpt>
      <trkpt lat="43.18519" lon="0.12762">
        <ele>403</ele>
        <time>2018-09-30T07:28:10Z</time>
      </trkpt>
      <trkpt lat="43.18516" lon="0.12762">
        <ele>404</ele>
        <time>2018-09-30T07:28:11Z</time>
      </trkpt>
      <trkpt lat="43.18513" lon="0.12762">
        <ele>404</ele>
        <time>2018-09-30T07:28:12Z</time>
      </trkpt>
      <trkpt lat="43.18511" lon="0.12762">
        <ele>404</ele>
        <time>2018-09-30T07:28:13Z</time>
      </trkpt>
      <trkpt lat="43.18508" lon="0.12762">
        <ele>404</ele>
        <time>2018-09-30T07:28:14Z</time>
      </trkpt>
      <trkpt lat="43.18505" lon="0.12762">
        <ele>404</ele>
        <time>2018-09-30T07:28:15Z</time>
      </trkpt>
      <trkpt lat="43.18503" lon="0.12763">
        <ele>404</ele>
        <time>2018-09-30T07:28:16Z</time>
      </trkpt>
      <trkpt lat="43.18501" lon="0.12764">
        <ele>405</ele>
        <time>2018-09-30T07:28:17Z</time>
      </trkpt>
      <trkpt lat="43.18499" lon="0.12765">
        <ele>405</ele>
        <time>2018-09-30T07:28:18Z</time>
      </trkpt>
      <trkpt lat="43.18497" lon="0.12765">
        <ele>405</ele>
        <time>2018-09-30T07:28:19Z</time>
      </trkpt>
      <trkpt lat="43.18496" lon="0.12764">
        <ele>405</ele>
        <time>2018-09-30T07:28:20Z</time>
      </trkpt>
      <trkpt lat="43.18494" lon="0.12764">
        <ele>406</ele>
        <time>2018-09-30T07:28:21Z</time>
      </trkpt>
      <trkpt lat="43.18492" lon="0.12763">
        <ele>406</ele>
        <time>2018-09-30T07:28:22Z</time>
      </trkpt>
      <trkpt lat="43.18491" lon="0.12764">
        <ele>406</ele>
        <time>2018-09-30T07:28:23Z</time>
      </trkpt>
      <trkpt lat="43.18489" lon="0.12764">
        <ele>406</ele>
        <time>2018-09-30T07:28:24Z</time>
      </trkpt>
      <trkpt lat="43.18488" lon="0.12765">
        <ele>407</ele>
        <time>2018-09-30T07:28:25Z</time>
      </trkpt>
      <trkpt lat="43.18485" lon="0.12763">
        <ele>407</ele>
        <time>2018-09-30T07:28:26Z</time>
      </trkpt>
      <trkpt lat="43.18482" lon="0.12762">
        <ele>407</ele>
        <time>2018-09-30T07:28:27Z</time>
      </trkpt>
      <trkpt lat="43.18479" lon="0.1276">
        <ele>408</ele>
        <time>2018-09-30T07:28:28Z</time>
      </trkpt>
      <trkpt lat="43.18476" lon="0.12759">
        <ele>408</ele>
        <time>2018-09-30T07:28:29Z</time>
      </trkpt>
      <trkpt lat="43.18474" lon="0.12758">
        <ele>408</ele>
        <time>2018-09-30T07:28:30Z</time>
      </trkpt>
      <trkpt lat="43.18472" lon="0.12758">
        <ele>409</ele>
        <time>2018-09-30T07:28:31Z</time>
      </trkpt>
      <trkpt lat="43.18469" lon="0.12757">
        <ele>409</ele>
        <time>2018-09-30T07:28:32Z</time>
      </trkpt>
      <trkpt lat="43.18467" lon="0.12755">
        <ele>409</ele>
        <time>2018-09-30T07:28:33Z</time>
      </trkpt>
      <trkpt lat="43.18466" lon="0.12754">
        <ele>410</ele>
        <time>2018-09-30T07:28:34Z</time>
      </trkpt>
      <trkpt lat="43.18464" lon="0.12754">
        <ele>410</ele>
        <time>2018-09-30T07:28:35Z</time>
      </trkpt>
      <trkpt lat="43.18462" lon="0.12753">
        <ele>411</ele>
        <time>2018-09-30T07:28:36Z</time>
      </trkpt>
      <trkpt lat="43.1846" lon="0.12753">
        <ele>411</ele>
        <time>2018-09-30T07:28:37Z</time>
      </trkpt>
      <trkpt lat="43.18458" lon="0.12754">
        <ele>411</ele>
        <time>2018-09-30T07:28:38Z</time>
      </trkpt>
      <trkpt lat="43.18457" lon="0.12755">
        <ele>412</ele>
        <time>2018-09-30T07:28:39Z</time>
      </trkpt>
      <trkpt lat="43.18456" lon="0.12756">
        <ele>412</ele>
        <time>2018-09-30T07:28:40Z</time>
      </trkpt>
      <trkpt lat="43.18454" lon="0.12757">
        <ele>412</ele>
        <time>2018-09-30T07:28:41Z</time>
      </trkpt>
      <trkpt lat="43.18452" lon="0.12757">
        <ele>413</ele>
        <time>2018-09-30T07:28:42Z</time>
      </trkpt>
      <trkpt lat="43.18449" lon="0.12757">
        <ele>413</ele>
        <time>2018-09-30T07:28:43Z</time>
      </trkpt>
      <trkpt lat="43.18445" lon="0.12756">
        <ele>413</ele>
        <time>2018-09-30T07:28:44Z</time>
      </trkpt>
      <trkpt lat="43.18442" lon="0.12755">
        <ele>413</ele>
        <time>2018-09-30T07:28:45Z</time>
      </trkpt>
      <trkpt lat="43.18439" lon="0.12754">
        <ele>414</ele>
        <time>2018-09-30T07:28:46Z</time>
      </trkpt>
      <trkpt lat="43.18437" lon="0.12756">
        <ele>414</ele>
        <time>2018-09-30T07:28:47Z</time>
      </trkpt>
      <trkpt lat="43.18436" lon="0.12757">
        <ele>414</ele>
        <time>2018-09-30T07:28:48Z</time>
      </trkpt>
      <trkpt lat="43.18436" lon="0.12758">
        <ele>414</ele>
        <time>2018-09-30T07:28:49Z</time>
      </trkpt>
      <trkpt lat="43.18436" lon="0.12759">
        <ele>414</ele>
        <time>2018-09-30T07:28:50Z</time>
      </trkpt>
      <trkpt lat="43.18437" lon="0.1276">
        <ele>414</ele>
        <time>2018-09-30T07:28:51Z</time>
      </trkpt>
      <trkpt lat="43.18438" lon="0.1276">
        <ele>414</ele>
        <time>2018-09-30T07:28:52Z</time>
      </trkpt>
      <trkpt lat="43.18439" lon="0.12762">
        <ele>415</ele>
        <time>2018-09-30T07:28:53Z</time>
      </trkpt>
      <trkpt lat="43.1844" lon="0.12762">
        <ele>415</ele>
        <time>2018-09-30T07:28:54Z</time>
      </trkpt>
      <trkpt lat="43.18441" lon="0.12762">
        <ele>415</ele>
        <time>2018-09-30T07:28:55Z</time>
      </trkpt>
      <trkpt lat="43.18442" lon="0.12762">
        <ele>415</ele>
        <time>2018-09-30T07:28:56Z</time>
      </trkpt>
      <trkpt lat="43.18443" lon="0.12762">
        <ele>415</ele>
        <time>2018-09-30T07:28:57Z</time>
      </trkpt>
      <trkpt lat="43.18444" lon="0.12763">
        <ele>415</ele>
        <time>2018-09-30T07:28:58Z</time>
      </trkpt>
      <trkpt lat="43.18445" lon="0.12764">
        <ele>416</ele>
        <time>2018-09-30T07:28:59Z</time>
      </trkpt>
      <trkpt lat="43.18447" lon="0.12765">
        <ele>416</ele>
        <time>2018-09-30T07:29:00Z</time>
      </trkpt>
      <trkpt lat="43.18449" lon="0.12766">
        <ele>416</ele>
        <time>2018-09-30T07:29:01Z</time>
      </trkpt>
      <trkpt lat="43.1845" lon="0.12767">
        <ele>417</ele>
        <time>2018-09-30T07:29:02Z</time>
      </trkpt>
      <trkpt lat="43.18452" lon="0.12768">
        <ele>417</ele>
        <time>2018-09-30T07:29:03Z</time>
      </trkpt>
      <trkpt lat="43.18454" lon="0.12769">
        <ele>417</ele>
        <time>2018-09-30T07:29:04Z</time>
      </trkpt>
      <trkpt lat="43.18455" lon="0.12771">
        <ele>417</ele>
        <time>2018-09-30T07:29:05Z</time>
      </trkpt>
      <trkpt lat="43.18457" lon="0.12772">
        <ele>417</ele>
        <time>2018-09-30T07:29:06Z</time>
      </trkpt>
      <trkpt lat="43.18459" lon="0.12773">
        <ele>418</ele>
        <time>2018-09-30T07:29:07Z</time>
      </trkpt>
      <trkpt lat="43.1846" lon="0.12774">
        <ele>418</ele>
        <time>2018-09-30T07:29:08Z</time>
      </trkpt>
      <trkpt lat="43.18462" lon="0.12776">
        <ele>418</ele>
        <time>2018-09-30T07:29:09Z</time>
      </trkpt>
      <trkpt lat="43.18464" lon="0.12778">
        <ele>418</ele>
        <time>2018-09-30T07:29:10Z</time>
      </trkpt>
      <trkpt lat="43.18466" lon="0.12779">
        <ele>419</ele>
        <time>2018-09-30T07:29:11Z</time>
      </trkpt>
      <trkpt lat="43.18468" lon="0.1278">
        <ele>419</ele>
        <time>2018-09-30T07:29:12Z</time>
      </trkpt>
      <trkpt lat="43.18471" lon="0.12781">
        <ele>419</ele>
        <time>2018-09-30T07:29:13Z</time>
      </trkpt>
      <trkpt lat="43.18473" lon="0.12782">
        <ele>419</ele>
        <time>2018-09-30T07:29:14Z</time>
      </trkpt>
      <trkpt lat="43.18475" lon="0.12784">
        <ele>419</ele>
        <time>2018-09-30T07:29:15Z</time>
      </trkpt>
      <trkpt lat="43.18476" lon="0.12786">
        <ele>419</ele>
        <time>2018-09-30T07:29:16Z</time>
      </trkpt>
      <trkpt lat="43.18478" lon="0.12787">
        <ele>420</ele>
        <time>2018-09-30T07:29:17Z</time>
      </trkpt>
      <trkpt lat="43.1848" lon="0.12789">
        <ele>420</ele>
        <time>2018-09-30T07:29:18Z</time>
      </trkpt>
      <trkpt lat="43.18481" lon="0.1279">
        <ele>420</ele>
        <time>2018-09-30T07:29:19Z</time>
      </trkpt>
      <trkpt lat="43.18483" lon="0.12791">
        <ele>420</ele>
        <time>2018-09-30T07:29:20Z</time>
      </trkpt>
      <trkpt lat="43.18484" lon="0.12792">
        <ele>420</ele>
        <time>2018-09-30T07:29:21Z</time>
      </trkpt>
      <trkpt lat="43.18486" lon="0.12793">
        <ele>420</ele>
        <time>2018-09-30T07:29:22Z</time>
      </trkpt>
      <trkpt lat="43.18487" lon="0.12793">
        <ele>420</ele>
        <time>2018-09-30T07:29:23Z</time>
      </trkpt>
      <trkpt lat="43.18488" lon="0.12793">
        <ele>420</ele>
        <time>2018-09-30T07:29:24Z</time>
      </trkpt>
      <trkpt lat="43.18489" lon="0.12794">
        <ele>421</ele>
        <time>2018-09-30T07:29:25Z</time>
      </trkpt>
      <trkpt lat="43.18491" lon="0.12795">
        <ele>421</ele>
        <time>2018-09-30T07:29:26Z</time>
      </trkpt>
      <trkpt lat="43.18493" lon="0.12796">
        <ele>421</ele>
        <time>2018-09-30T07:29:27Z</time>
      </trkpt>
      <trkpt lat="43.18495" lon="0.12797">
        <ele>421</ele>
        <time>2018-09-30T07:29:28Z</time>
      </trkpt>
      <trkpt lat="43.18497" lon="0.12798">
        <ele>421</ele>
        <time>2018-09-30T07:29:29Z</time>
      </trkpt>
      <trkpt lat="43.185" lon="0.128">
        <ele>421</ele>
        <time>2018-09-30T07:29:30Z</time>
      </trkpt>
      <trkpt lat="43.18502" lon="0.12801">
        <ele>421</ele>
        <time>2018-09-30T07:29:31Z</time>
      </trkpt>
      <trkpt lat="43.18504" lon="0.12802">
        <ele>421</ele>
        <time>2018-09-30T07:29:32Z</time>
      </trkpt>
      <trkpt lat="43.18506" lon="0.12804">
        <ele>422</ele>
        <time>2018-09-30T07:29:33Z</time>
      </trkpt>
      <trkpt lat="43.18508" lon="0.12806">
        <ele>422</ele>
        <time>2018-09-30T07:29:34Z</time>
      </trkpt>
      <trkpt lat="43.1851" lon="0.12807">
        <ele>422</ele>
        <time>2018-09-30T07:29:35Z</time>
      </trkpt>
      <trkpt lat="43.18511" lon="0.12808">
        <ele>422</ele>
        <time>2018-09-30T07:29:36Z</time>
      </trkpt>
      <trkpt lat="43.18513" lon="0.12809">
        <ele>422</ele>
        <time>2018-09-30T07:29:37Z</time>
      </trkpt>
      <trkpt lat="43.18515" lon="0.12811">
        <ele>422</ele>
        <time>2018-09-30T07:29:38Z</time>
      </trkpt>
      <trkpt lat="43.18517" lon="0.12813">
        <ele>422</ele>
        <time>2018-09-30T07:29:39Z</time>
      </trkpt>
      <trkpt lat="43.18519" lon="0.12815">
        <ele>422</ele>
        <time>2018-09-30T07:29:40Z</time>
      </trkpt>
      <trkpt lat="43.18522" lon="0.12817">
        <ele>422</ele>
        <time>2018-09-30T07:29:41Z</time>
      </trkpt>
      <trkpt lat="43.18523" lon="0.12819">
        <ele>422</ele>
        <time>2018-09-30T07:29:42Z</time>
      </trkpt>
      <trkpt lat="43.18525" lon="0.12821">
        <ele>422</ele>
        <time>2018-09-30T07:29:43Z</time>
      </trkpt>
      <trkpt lat="43.18527" lon="0.12823">
        <ele>422</ele>
        <time>2018-09-30T07:29:44Z</time>
      </trkpt>
      <trkpt lat="43.18529" lon="0.12825">
        <ele>422</ele>
        <time>2018-09-30T07:29:45Z</time>
      </trkpt>
      <trkpt lat="43.1853" lon="0.12828">
        <ele>422</ele>
        <time>2018-09-30T07:29:46Z</time>
      </trkpt>
      <trkpt lat="43.18532" lon="0.12831">
        <ele>422</ele>
        <time>2018-09-30T07:29:47Z</time>
      </trkpt>
      <trkpt lat="43.18533" lon="0.12834">
        <ele>422</ele>
        <time>2018-09-30T07:29:48Z</time>
      </trkpt>
      <trkpt lat="43.18535" lon="0.12836">
        <ele>422</ele>
        <time>2018-09-30T07:29:49Z</time>
      </trkpt>
      <trkpt lat="43.18537" lon="0.12839">
        <ele>422</ele>
        <time>2018-09-30T07:29:50Z</time>
      </trkpt>
      <trkpt lat="43.18538" lon="0.12842">
        <ele>422</ele>
        <time>2018-09-30T07:29:51Z</time>
      </trkpt>
      <trkpt lat="43.18539" lon="0.12844">
        <ele>422</ele>
        <time>2018-09-30T07:29:52Z</time>
      </trkpt>
      <trkpt lat="43.18541" lon="0.12847">
        <ele>422</ele>
        <time>2018-09-30T07:29:53Z</time>
      </trkpt>
      <trkpt lat="43.18541" lon="0.1285">
        <ele>423</ele>
        <time>2018-09-30T07:29:54Z</time>
      </trkpt>
      <trkpt lat="43.18541" lon="0.12852">
        <ele>423</ele>
        <time>2018-09-30T07:29:55Z</time>
      </trkpt>
      <trkpt lat="43.18541" lon="0.12855">
        <ele>423</ele>
        <time>2018-09-30T07:29:56Z</time>
      </trkpt>
      <trkpt lat="43.18541" lon="0.12857">
        <ele>423</ele>
        <time>2018-09-30T07:29:57Z</time>
      </trkpt>
      <trkpt lat="43.18541" lon="0.12858">
        <ele>423</ele>
        <time>2018-09-30T07:29:58Z</time>
      </trkpt>
      <trkpt lat="43.1854" lon="0.12859">
        <ele>423</ele>
        <time>2018-09-30T07:29:59Z</time>
      </trkpt>
      <trkpt lat="43.1854" lon="0.12862">
        <ele>423</ele>
        <time>2018-09-30T07:30:00Z</time>
      </trkpt>
      <trkpt lat="43.18539" lon="0.12864">
        <ele>423</ele>
        <time>2018-09-30T07:30:01Z</time>
      </trkpt>
      <trkpt lat="43.18539" lon="0.12867">
        <ele>424</ele>
        <time>2018-09-30T07:30:02Z</time>
      </trkpt>
      <trkpt lat="43.18539" lon="0.12869">
        <ele>424</ele>
        <time>2018-09-30T07:30:03Z</time>
      </trkpt>
      <trkpt lat="43.18539" lon="0.12872">
        <ele>424</ele>
        <time>2018-09-30T07:30:04Z</time>
      </trkpt>
      <trkpt lat="43.18539" lon="0.12874">
        <ele>424</ele>
        <time>2018-09-30T07:30:05Z</time>
      </trkpt>
      <trkpt lat="43.18539" lon="0.12876">
        <ele>424</ele>
        <time>2018-09-30T07:30:06Z</time>
      </trkpt>
      <trkpt lat="43.1854" lon="0.12879">
        <ele>424</ele>
        <time>2018-09-30T07:30:07Z</time>
      </trkpt>
      <trkpt lat="43.1854" lon="0.12881">
        <ele>424</ele>
        <time>2018-09-30T07:30:08Z</time>
      </trkpt>
      <trkpt lat="43.1854" lon="0.12883">
        <ele>424</ele>
        <time>2018-09-30T07:30:09Z</time>
      </trkpt>
      <trkpt lat="43.18539" lon="0.12884">
        <ele>424</ele>
        <time>2018-09-30T07:30:10Z</time>
      </trkpt>
      <trkpt lat="43.18538" lon="0.12885">
        <ele>424</ele>
        <time>2018-09-30T07:30:11Z</time>
      </trkpt>
      <trkpt lat="43.18538" lon="0.12886">
        <ele>424</ele>
        <time>2018-09-30T07:30:12Z</time>
      </trkpt>
      <trkpt lat="43.18538" lon="0.12886">
        <ele>424</ele>
        <time>2018-09-30T07:30:13Z</time>
      </trkpt>
      <trkpt lat="43.18537" lon="0.12887">
        <ele>424</ele>
        <time>2018-09-30T07:30:14Z</time>
      </trkpt>
      <trkpt lat="43.18538" lon="0.12886">
        <ele>424</ele>
        <time>2018-09-30T07:30:15Z</time>
      </trkpt>
      <trkpt lat="43.18538" lon="0.12885">
        <ele>424</ele>
        <time>2018-09-30T07:30:16Z</time>
      </trkpt>
      <trkpt lat="43.18538" lon="0.12883">
        <ele>425</ele>
        <time>2018-09-30T07:30:17Z</time>
      </trkpt>
      <trkpt lat="43.18537" lon="0.12879">
        <ele>425</ele>
        <time>2018-09-30T07:30:18Z</time>
      </trkpt>
      <trkpt lat="43.18537" lon="0.12875">
        <ele>425</ele>
        <time>2018-09-30T07:30:19Z</time>
      </trkpt>
      <trkpt lat="43.18537" lon="0.12872">
        <ele>425</ele>
        <time>2018-09-30T07:30:20Z</time>
      </trkpt>
      <trkpt lat="43.18537" lon="0.12868">
        <ele>426</ele>
        <time>2018-09-30T07:30:21Z</time>
      </trkpt>
      <trkpt lat="43.18537" lon="0.12864">
        <ele>426</ele>
        <time>2018-09-30T07:30:22Z</time>
      </trkpt>
      <trkpt lat="43.18535" lon="0.12859">
        <ele>426</ele>
        <time>2018-09-30T07:30:23Z</time>
      </trkpt>
      <trkpt lat="43.18533" lon="0.12854">
        <ele>427</ele>
        <time>2018-09-30T07:30:24Z</time>
      </trkpt>
      <trkpt lat="43.18531" lon="0.1285">
        <ele>427</ele>
        <time>2018-09-30T07:30:25Z</time>
      </trkpt>
      <trkpt lat="43.18529" lon="0.12847">
        <ele>428</ele>
        <time>2018-09-30T07:30:26Z</time>
      </trkpt>
      <trkpt lat="43.18528" lon="0.12845">
        <ele>428</ele>
        <time>2018-09-30T07:30:27Z</time>
      </trkpt>
      <trkpt lat="43.18527" lon="0.12843">
        <ele>428</ele>
        <time>2018-09-30T07:30:28Z</time>
      </trkpt>
      <trkpt lat="43.18525" lon="0.1284">
        <ele>429</ele>
        <time>2018-09-30T07:30:29Z</time>
      </trkpt>
      <trkpt lat="43.18524" lon="0.12839">
        <ele>429</ele>
        <time>2018-09-30T07:30:30Z</time>
      </trkpt>
      <trkpt lat="43.18522" lon="0.12838">
        <ele>429</ele>
        <time>2018-09-30T07:30:31Z</time>
      </trkpt>
      <trkpt lat="43.18521" lon="0.12838">
        <ele>429</ele>
        <time>2018-09-30T07:30:32Z</time>
      </trkpt>
      <trkpt lat="43.18519" lon="0.12838">
        <ele>430</ele>
        <time>2018-09-30T07:30:33Z</time>
      </trkpt>
      <trkpt lat="43.18518" lon="0.12837">
        <ele>430</ele>
        <time>2018-09-30T07:30:34Z</time>
      </trkpt>
      <trkpt lat="43.18516" lon="0.12837">
        <ele>430</ele>
        <time>2018-09-30T07:30:35Z</time>
      </trkpt>
      <trkpt lat="43.18515" lon="0.12837">
        <ele>431</ele>
        <time>2018-09-30T07:30:36Z</time>
      </trkpt>
      <trkpt lat="43.18513" lon="0.12837">
        <ele>431</ele>
        <time>2018-09-30T07:30:37Z</time>
      </trkpt>
      <trkpt lat="43.18512" lon="0.12837">
        <ele>431</ele>
        <time>2018-09-30T07:30:38Z</time>
      </trkpt>
      <trkpt lat="43.18511" lon="0.12837">
        <ele>432</ele>
        <time>2018-09-30T07:30:39Z</time>
      </trkpt>
      <trkpt lat="43.18509" lon="0.12837">
        <ele>432</ele>
        <time>2018-09-30T07:30:40Z</time>
      </trkpt>
      <trkpt lat="43.18506" lon="0.12836">
        <ele>432</ele>
        <time>2018-09-30T07:30:41Z</time>
      </trkpt>
      <trkpt lat="43.18504" lon="0.12837">
        <ele>432</ele>
        <time>2018-09-30T07:30:42Z</time>
      </trkpt>
      <trkpt lat="43.18502" lon="0.12837">
        <ele>433</ele>
        <time>2018-09-30T07:30:43Z</time>
      </trkpt>
      <trkpt lat="43.185" lon="0.12837">
        <ele>433</ele>
        <time>2018-09-30T07:30:44Z</time>
      </trkpt>
      <trkpt lat="43.18498" lon="0.12838">
        <ele>433</ele>
        <time>2018-09-30T07:30:45Z</time>
      </trkpt>
      <trkpt lat="43.18497" lon="0.12838">
        <ele>433</ele>
        <time>2018-09-30T07:30:46Z</time>
      </trkpt>
      <trkpt lat="43.18496" lon="0.12838">
        <ele>433</ele>
        <time>2018-09-30T07:30:47Z</time>
      </trkpt>
      <trkpt lat="43.18495" lon="0.12838">
        <ele>433</ele>
        <time>2018-09-30T07:30:48Z</time>
      </trkpt>
      <trkpt lat="43.18493" lon="0.12839">
        <ele>434</ele>
        <time>2018-09-30T07:30:49Z</time>
      </trkpt>
      <trkpt lat="43.18491" lon="0.12839">
        <ele>434</ele>
        <time>2018-09-30T07:30:50Z</time>
      </trkpt>
      <trkpt lat="43.18489" lon="0.12839">
        <ele>434</ele>
        <time>2018-09-30T07:30:51Z</time>
      </trkpt>
      <trkpt lat="43.18487" lon="0.12839">
        <ele>434</ele>
        <time>2018-09-30T07:30:52Z</time>
      </trkpt>
      <trkpt lat="43.18485" lon="0.1284">
        <ele>434</ele>
        <time>2018-09-30T07:30:53Z</time>
      </trkpt>
      <trkpt lat="43.18484" lon="0.1284">
        <ele>434</ele>
        <time>2018-09-30T07:30:54Z</time>
      </trkpt>
      <trkpt lat="43.18482" lon="0.12842">
        <ele>434</ele>
        <time>2018-09-30T07:30:55Z</time>
      </trkpt>
      <trkpt lat="43.1848" lon="0.12844">
        <ele>434</ele>
        <time>2018-09-30T07:30:56Z</time>
      </trkpt>
      <trkpt lat="43.18477" lon="0.12846">
        <ele>434</ele>
        <time>2018-09-30T07:30:57Z</time>
      </trkpt>
      <trkpt lat="43.18475" lon="0.12845">
        <ele>434</ele>
        <time>2018-09-30T07:30:58Z</time>
      </trkpt>
      <trkpt lat="43.18473" lon="0.12846">
        <ele>434</ele>
        <time>2018-09-30T07:30:59Z</time>
      </trkpt>
      <trkpt lat="43.18472" lon="0.12846">
        <ele>434</ele>
        <time>2018-09-30T07:31:00Z</time>
      </trkpt>
      <trkpt lat="43.18469" lon="0.12846">
        <ele>434</ele>
        <time>2018-09-30T07:31:01Z</time>
      </trkpt>
      <trkpt lat="43.18468" lon="0.12847">
        <ele>434</ele>
        <time>2018-09-30T07:31:02Z</time>
      </trkpt>
      <trkpt lat="43.18468" lon="0.12847">
        <ele>435</ele>
        <time>2018-09-30T07:31:03Z</time>
      </trkpt>
      <trkpt lat="43.18467" lon="0.12848">
        <ele>435</ele>
        <time>2018-09-30T07:31:04Z</time>
      </trkpt>
      <trkpt lat="43.18467" lon="0.12846">
        <ele>435</ele>
        <time>2018-09-30T07:31:05Z</time>
      </trkpt>
      <trkpt lat="43.18467" lon="0.12848">
        <ele>435</ele>
        <time>2018-09-30T07:31:06Z</time>
      </trkpt>
      <trkpt lat="43.18467" lon="0.12848">
        <ele>435</ele>
        <time>2018-09-30T07:31:07Z</time>
      </trkpt>
      <trkpt lat="43.18467" lon="0.12848">
        <ele>435</ele>
        <time>2018-09-30T07:31:08Z</time>
      </trkpt>
      <trkpt lat="43.18466" lon="0.12848">
        <ele>435</ele>
        <time>2018-09-30T07:31:09Z</time>
      </trkpt>
      <trkpt lat="43.18467" lon="0.12848">
        <ele>435</ele>
        <time>2018-09-30T07:31:10Z</time>
      </trkpt>
      <trkpt lat="43.18467" lon="0.12848">
        <ele>435</ele>
        <time>2018-09-30T07:31:11Z</time>
      </trkpt>
      <trkpt lat="43.18467" lon="0.12848">
        <ele>435</ele>
        <time>2018-09-30T07:31:12Z</time>
      </trkpt>
      <trkpt lat="43.18467" lon="0.12848">
        <ele>435</ele>
        <time>2018-09-30T07:31:13Z</time>
      </trkpt>
      <trkpt lat="43.18467" lon="0.12848">
        <ele>435</ele>
        <time>2018-09-30T07:31:14Z</time>
      </trkpt>
      <trkpt lat="43.18467" lon="0.12849">
        <ele>435</ele>
        <time>2018-09-30T07:31:15Z</time>
      </trkpt>
      <trkpt lat="43.18467" lon="0.12849">
        <ele>435</ele>
        <time>2018-09-30T07:31:16Z</time>
      </trkpt>
      <trkpt lat="43.18467" lon="0.1285">
        <ele>435</ele>
        <time>2018-09-30T07:31:17Z</time>
      </trkpt>
      <trkpt lat="43.18467" lon="0.1285">
        <ele>435</ele>
        <time>2018-09-30T07:31:18Z</time>
      </trkpt>
      <trkpt lat="43.18467" lon="0.1285">
        <ele>435</ele>
        <time>2018-09-30T07:31:19Z</time>
      </trkpt>
      <trkpt lat="43.18467" lon="0.1285">
        <ele>435</ele>
        <time>2018-09-30T07:31:20Z</time>
      </trkpt>
      <trkpt lat="43.18467" lon="0.1285">
        <ele>435</ele>
        <time>2018-09-30T07:31:21Z</time>
      </trkpt>
      <trkpt lat="43.18467" lon="0.12851">
        <ele>435</ele>
        <time>2018-09-30T07:31:22Z</time>
      </trkpt>
      <trkpt lat="43.18467" lon="0.12851">
        <ele>435</ele>
        <time>2018-09-30T07:31:23Z</time>
      </trkpt>
      <trkpt lat="43.18467" lon="0.12851">
        <ele>435</ele>
        <time>2018-09-30T07:31:24Z</time>
      </trkpt>
      <trkpt lat="43.18466" lon="0.12851">
        <ele>435</ele>
        <time>2018-09-30T07:31:25Z</time>
      </trkpt>
      <trkpt lat="43.18466" lon="0.12851">
        <ele>435</ele>
        <time>2018-09-30T07:31:26Z</time>
      </trkpt>
      <trkpt lat="43.18466" lon="0.12851">
        <ele>435</ele>
        <time>2018-09-30T07:31:27Z</time>
      </trkpt>
      <trkpt lat="43.18466" lon="0.12851">
        <ele>435</ele>
        <time>2018-09-30T07:31:28Z</time>
      </trkpt>
      <trkpt lat="43.18466" lon="0.12851">
        <ele>435</ele>
        <time>2018-09-30T07:31:29Z</time>
      </trkpt>
      <trkpt lat="43.18466" lon="0.12851">
        <ele>435</ele>
        <time>2018-09-30T07:31:30Z</time>
      </trkpt>
      <trkpt lat="43.18466" lon="0.12851">
        <ele>435</ele>
        <time>2018-09-30T07:31:31Z</time>
      </trkpt>
      <trkpt lat="43.18466" lon="0.12851">
        <ele>435</ele>
        <time>2018-09-30T07:31:32Z</time>
      </trkpt>
      <trkpt lat="43.18466" lon="0.12851">
        <ele>435</ele>
        <time>2018-09-30T07:31:33Z</time>
      </trkpt>
      <trkpt lat="43.18466" lon="0.12851">
        <ele>435</ele>
        <time>2018-09-30T07:31:34Z</time>
      </trkpt>
      <trkpt lat="43.18466" lon="0.12851">
        <ele>435</ele>
        <time>2018-09-30T07:31:35Z</time>
      </trkpt>
      <trkpt lat="43.18466" lon="0.12852">
        <ele>435</ele>
        <time>2018-09-30T07:31:36Z</time>
      </trkpt>
      <trkpt lat="43.18466" lon="0.12852">
        <ele>435</ele>
        <time>2018-09-30T07:31:37Z</time>
      </trkpt>
      <trkpt lat="43.18466" lon="0.12852">
        <ele>435</ele>
        <time>2018-09-30T07:31:38Z</time>
      </trkpt>
      <trkpt lat="43.18466" lon="0.12852">
        <ele>436</ele>
        <time>2018-09-30T07:31:39Z</time>
      </trkpt>
      <trkpt lat="43.18466" lon="0.12852">
        <ele>436</ele>
        <time>2018-09-30T07:31:40Z</time>
      </trkpt>
      <trkpt lat="43.18466" lon="0.12852">
        <ele>436</ele>
        <time>2018-09-30T07:31:41Z</time>
      </trkpt>
      <trkpt lat="43.18466" lon="0.12852">
        <ele>436</ele>
        <time>2018-09-30T07:31:42Z</time>
      </trkpt>
      <trkpt lat="43.18466" lon="0.12853">
        <ele>436</ele>
        <time>2018-09-30T07:31:43Z</time>
      </trkpt>
      <trkpt lat="43.18466" lon="0.12853">
        <ele>436</ele>
        <time>2018-09-30T07:31:44Z</time>
      </trkpt>
      <trkpt lat="43.18466" lon="0.12853">
        <ele>436</ele>
        <time>2018-09-30T07:31:45Z</time>
      </trkpt>
      <trkpt lat="43.18466" lon="0.12853">
        <ele>436</ele>
        <time>2018-09-30T07:31:46Z</time>
      </trkpt>
      <trkpt lat="43.18466" lon="0.12853">
        <ele>436</ele>
        <time>2018-09-30T07:31:47Z</time>
      </trkpt>
      <trkpt lat="43.18466" lon="0.12853">
        <ele>436</ele>
        <time>2018-09-30T07:31:48Z</time>
      </trkpt>
      <trkpt lat="43.18465" lon="0.12854">
        <ele>436</ele>
        <time>2018-09-30T07:31:49Z</time>
      </trkpt>
      <trkpt lat="43.18465" lon="0.12854">
        <ele>436</ele>
        <time>2018-09-30T07:31:50Z</time>
      </trkpt>
      <trkpt lat="43.18464" lon="0.12854">
        <ele>436</ele>
        <time>2018-09-30T07:31:51Z</time>
      </trkpt>
      <trkpt lat="43.18463" lon="0.12854">
        <ele>436</ele>
        <time>2018-09-30T07:31:52Z</time>
      </trkpt>
      <trkpt lat="43.18463" lon="0.12855">
        <ele>436</ele>
        <time>2018-09-30T07:31:53Z</time>
      </trkpt>
      <trkpt lat="43.18463" lon="0.12855">
        <ele>436</ele>
        <time>2018-09-30T07:31:54Z</time>
      </trkpt>
      <trkpt lat="43.18463" lon="0.12855">
        <ele>436</ele>
        <time>2018-09-30T07:31:55Z</time>
      </trkpt>
      <trkpt lat="43.18463" lon="0.12855">
        <ele>436</ele>
        <time>2018-09-30T07:31:56Z</time>
      </trkpt>
      <trkpt lat="43.18463" lon="0.12855">
        <ele>436</ele>
        <time>2018-09-30T07:31:57Z</time>
      </trkpt>
      <trkpt lat="43.18461" lon="0.12855">
        <ele>436</ele>
        <time>2018-09-30T07:31:58Z</time>
      </trkpt>
      <trkpt lat="43.1846" lon="0.12857">
        <ele>438</ele>
        <time>2018-09-30T07:31:59Z</time>
      </trkpt>
      <trkpt lat="43.18459" lon="0.12858">
        <ele>438</ele>
        <time>2018-09-30T07:32:00Z</time>
      </trkpt>
      <trkpt lat="43.18458" lon="0.12859">
        <ele>438</ele>
        <time>2018-09-30T07:32:01Z</time>
      </trkpt>
      <trkpt lat="43.18457" lon="0.1286">
        <ele>439</ele>
        <time>2018-09-30T07:32:02Z</time>
      </trkpt>
      <trkpt lat="43.18456" lon="0.12862">
        <ele>439</ele>
        <time>2018-09-30T07:32:03Z</time>
      </trkpt>
      <trkpt lat="43.18455" lon="0.12863">
        <ele>439</ele>
        <time>2018-09-30T07:32:04Z</time>
      </trkpt>
      <trkpt lat="43.18454" lon="0.12865">
        <ele>440</ele>
        <time>2018-09-30T07:32:05Z</time>
      </trkpt>
      <trkpt lat="43.18454" lon="0.12865">
        <ele>440</ele>
        <time>2018-09-30T07:32:06Z</time>
      </trkpt>
      <trkpt lat="43.18452" lon="0.12865">
        <ele>440</ele>
        <time>2018-09-30T07:32:07Z</time>
      </trkpt>
      <trkpt lat="43.18452" lon="0.12865">
        <ele>440</ele>
        <time>2018-09-30T07:32:08Z</time>
      </trkpt>
      <trkpt lat="43.18451" lon="0.12864">
        <ele>440</ele>
        <time>2018-09-30T07:32:09Z</time>
      </trkpt>
      <trkpt lat="43.1845" lon="0.12863">
        <ele>440</ele>
        <time>2018-09-30T07:32:10Z</time>
      </trkpt>
      <trkpt lat="43.18449" lon="0.12862">
        <ele>440</ele>
        <time>2018-09-30T07:32:11Z</time>
      </trkpt>
      <trkpt lat="43.18448" lon="0.12862">
        <ele>441</ele>
        <time>2018-09-30T07:32:12Z</time>
      </trkpt>
      <trkpt lat="43.18447" lon="0.12862">
        <ele>441</ele>
        <time>2018-09-30T07:32:13Z</time>
      </trkpt>
      <trkpt lat="43.18446" lon="0.12862">
        <ele>441</ele>
        <time>2018-09-30T07:32:14Z</time>
      </trkpt>
      <trkpt lat="43.18446" lon="0.12862">
        <ele>441</ele>
        <time>2018-09-30T07:32:15Z</time>
      </trkpt>
      <trkpt lat="43.18445" lon="0.12862">
        <ele>441</ele>
        <time>2018-09-30T07:32:16Z</time>
      </trkpt>
      <trkpt lat="43.18444" lon="0.12862">
        <ele>441</ele>
        <time>2018-09-30T07:32:17Z</time>
      </trkpt>
      <trkpt lat="43.18444" lon="0.12863">
        <ele>441</ele>
        <time>2018-09-30T07:32:18Z</time>
      </trkpt>
      <trkpt lat="43.18443" lon="0.12863">
        <ele>441</ele>
        <time>2018-09-30T07:32:19Z</time>
      </trkpt>
      <trkpt lat="43.18442" lon="0.12863">
        <ele>441</ele>
        <time>2018-09-30T07:32:20Z</time>
      </trkpt>
      <trkpt lat="43.18442" lon="0.12863">
        <ele>441</ele>
        <time>2018-09-30T07:32:21Z</time>
      </trkpt>
      <trkpt lat="43.1844" lon="0.12863">
        <ele>441</ele>
        <time>2018-09-30T07:32:22Z</time>
      </trkpt>
      <trkpt lat="43.18439" lon="0.12863">
        <ele>441</ele>
        <time>2018-09-30T07:32:23Z</time>
      </trkpt>
      <trkpt lat="43.18438" lon="0.12862">
        <ele>441</ele>
        <time>2018-09-30T07:32:24Z</time>
      </trkpt>
      <trkpt lat="43.18436" lon="0.12863">
        <ele>441</ele>
        <time>2018-09-30T07:32:25Z</time>
      </trkpt>
      <trkpt lat="43.18435" lon="0.12864">
        <ele>440</ele>
        <time>2018-09-30T07:32:26Z</time>
      </trkpt>
      <trkpt lat="43.18434" lon="0.12864">
        <ele>440</ele>
        <time>2018-09-30T07:32:27Z</time>
      </trkpt>
      <trkpt lat="43.18432" lon="0.12864">
        <ele>440</ele>
        <time>2018-09-30T07:32:28Z</time>
      </trkpt>
      <trkpt lat="43.18431" lon="0.12864">
        <ele>440</ele>
        <time>2018-09-30T07:32:29Z</time>
      </trkpt>
      <trkpt lat="43.1843" lon="0.12865">
        <ele>440</ele>
        <time>2018-09-30T07:32:30Z</time>
      </trkpt>
      <trkpt lat="43.18428" lon="0.12863">
        <ele>440</ele>
        <time>2018-09-30T07:32:31Z</time>
      </trkpt>
      <trkpt lat="43.18427" lon="0.12862">
        <ele>440</ele>
        <time>2018-09-30T07:32:32Z</time>
      </trkpt>
      <trkpt lat="43.18427" lon="0.12862">
        <ele>440</ele>
        <time>2018-09-30T07:32:33Z</time>
      </trkpt>
      <trkpt lat="43.18425" lon="0.12863">
        <ele>440</ele>
        <time>2018-09-30T07:32:34Z</time>
      </trkpt>
      <trkpt lat="43.18425" lon="0.12863">
        <ele>440</ele>
        <time>2018-09-30T07:32:35Z</time>
      </trkpt>
      <trkpt lat="43.18423" lon="0.12863">
        <ele>440</ele>
        <time>2018-09-30T07:32:36Z</time>
      </trkpt>
      <trkpt lat="43.18422" lon="0.12863">
        <ele>440</ele>
        <time>2018-09-30T07:32:37Z</time>
      </trkpt>
      <trkpt lat="43.18421" lon="0.12863">
        <ele>440</ele>
        <time>2018-09-30T07:32:38Z</time>
      </trkpt>
      <trkpt lat="43.1842" lon="0.12863">
        <ele>440</ele>
        <time>2018-09-30T07:32:39Z</time>
      </trkpt>
      <trkpt lat="43.1842" lon="0.12863">
        <ele>440</ele>
        <time>2018-09-30T07:32:40Z</time>
      </trkpt>
      <trkpt lat="43.18419" lon="0.12864">
        <ele>439</ele>
        <time>2018-09-30T07:32:41Z</time>
      </trkpt>
      <trkpt lat="43.18418" lon="0.12864">
        <ele>439</ele>
        <time>2018-09-30T07:32:42Z</time>
      </trkpt>
      <trkpt lat="43.18418" lon="0.12865">
        <ele>439</ele>
        <time>2018-09-30T07:32:43Z</time>
      </trkpt>
      <trkpt lat="43.18418" lon="0.12865">
        <ele>439</ele>
        <time>2018-09-30T07:32:44Z</time>
      </trkpt>
      <trkpt lat="43.18417" lon="0.12865">
        <ele>439</ele>
        <time>2018-09-30T07:32:45Z</time>
      </trkpt>
      <trkpt lat="43.18417" lon="0.12865">
        <ele>439</ele>
        <time>2018-09-30T07:32:46Z</time>
      </trkpt>
      <trkpt lat="43.18417" lon="0.12865">
        <ele>439</ele>
        <time>2018-09-30T07:32:47Z</time>
      </trkpt>
      <trkpt lat="43.18417" lon="0.12865">
        <ele>439</ele>
        <time>2018-09-30T07:32:48Z</time>
      </trkpt>
      <trkpt lat="43.18417" lon="0.12865">
        <ele>439</ele>
        <time>2018-09-30T07:32:49Z</time>
      </trkpt>
      <trkpt lat="43.18417" lon="0.12865">
        <ele>439</ele>
        <time>2018-09-30T07:32:50Z</time>
      </trkpt>
      <trkpt lat="43.18417" lon="0.12865">
        <ele>439</ele>
        <time>2018-09-30T07:32:51Z</time>
      </trkpt>
      <trkpt lat="43.18417" lon="0.12865">
        <ele>439</ele>
        <time>2018-09-30T07:32:52Z</time>
      </trkpt>
      <trkpt lat="43.18417" lon="0.12865">
        <ele>439</ele>
        <time>2018-09-30T07:32:53Z</time>
      </trkpt>
      <trkpt lat="43.18417" lon="0.12865">
        <ele>439</ele>
        <time>2018-09-30T07:32:54Z</time>
      </trkpt>
      <trkpt lat="43.18417" lon="0.12865">
        <ele>439</ele>
        <time>2018-09-30T07:32:55Z</time>
      </trkpt>
      <trkpt lat="43.18417" lon="0.12865">
        <ele>439</ele>
        <time>2018-09-30T07:32:56Z</time>
      </trkpt>
      <trkpt lat="43.18417" lon="0.12865">
        <ele>439</ele>
        <time>2018-09-30T07:32:57Z</time>
      </trkpt>
      <trkpt lat="43.18417" lon="0.12865">
        <ele>439</ele>
        <time>2018-09-30T07:32:58Z</time>
      </trkpt>
      <trkpt lat="43.18417" lon="0.12865">
        <ele>439</ele>
        <time>2018-09-30T07:32:59Z</time>
      </trkpt>
      <trkpt lat="43.18417" lon="0.12865">
        <ele>439</ele>
        <time>2018-09-30T07:33:00Z</time>
      </trkpt>
      <trkpt lat="43.18417" lon="0.12865">
        <ele>439</ele>
        <time>2018-09-30T07:33:01Z</time>
      </trkpt>
      <trkpt lat="43.18417" lon="0.12865">
        <ele>439</ele>
        <time>2018-09-30T07:33:02Z</time>
      </trkpt>
      <trkpt lat="43.18417" lon="0.12865">
        <ele>439</ele>
        <time>2018-09-30T07:33:03Z</time>
      </trkpt>
      <trkpt lat="43.18417" lon="0.12865">
        <ele>439</ele>
        <time>2018-09-30T07:33:04Z</time>
      </trkpt>
      <trkpt lat="43.18417" lon="0.12865">
        <ele>439</ele>
        <time>2018-09-30T07:33:05Z</time>
      </trkpt>
      <trkpt lat="43.18417" lon="0.12865">
        <ele>439</ele>
        <time>2018-09-30T07:33:06Z</time>
      </trkpt>
      <trkpt lat="43.18417" lon="0.12865">
        <ele>439</ele>
        <time>2018-09-30T07:33:07Z</time>
      </trkpt>
      <trkpt lat="43.18417" lon="0.12865">
        <ele>439</ele>
        <time>2018-09-30T07:33:08Z</time>
      </trkpt>
      <trkpt lat="43.18417" lon="0.12865">
        <ele>439</ele>
        <time>2018-09-30T07:33:09Z</time>
      </trkpt>
      <trkpt lat="43.18416" lon="0.12865">
        <ele>439</ele>
        <time>2018-09-30T07:33:10Z</time>
      </trkpt>
      <trkpt lat="43.18416" lon="0.12865">
        <ele>439</ele>
        <time>2018-09-30T07:33:11Z</time>
      </trkpt>
      <trkpt lat="43.18416" lon="0.12865">
        <ele>439</ele>
        <time>2018-09-30T07:33:12Z</time>
      </trkpt>
      <trkpt lat="43.18416" lon="0.12865">
        <ele>439</ele>
        <time>2018-09-30T07:33:13Z</time>
      </trkpt>
      <trkpt lat="43.18416" lon="0.12865">
        <ele>439</ele>
        <time>2018-09-30T07:33:14Z</time>
      </trkpt>
      <trkpt lat="43.18416" lon="0.12865">
        <ele>439</ele>
        <time>2018-09-30T07:33:15Z</time>
      </trkpt>
      <trkpt lat="43.18416" lon="0.12865">
        <ele>439</ele>
        <time>2018-09-30T07:33:16Z</time>
      </trkpt>
      <trkpt lat="43.18416" lon="0.12865">
        <ele>439</ele>
        <time>2018-09-30T07:33:17Z</time>
      </trkpt>
      <trkpt lat="43.18416" lon="0.12865">
        <ele>439</ele>
        <time>2018-09-30T07:33:18Z</time>
      </trkpt>
      <trkpt lat="43.18416" lon="0.12865">
        <ele>439</ele>
        <time>2018-09-30T07:33:19Z</time>
      </trkpt>
      <trkpt lat="43.18416" lon="0.12865">
        <ele>439</ele>
        <time>2018-09-30T07:33:20Z</time>
      </trkpt>
      <trkpt lat="43.18416" lon="0.12865">
        <ele>439</ele>
        <time>2018-09-30T07:33:21Z</time>
      </trkpt>
      <trkpt lat="43.18416" lon="0.12865">
        <ele>439</ele>
        <time>2018-09-30T07:33:22Z</time>
      </trkpt>
      <trkpt lat="43.18416" lon="0.12865">
        <ele>439</ele>
        <time>2018-09-30T07:33:23Z</time>
      </trkpt>
      <trkpt lat="43.18416" lon="0.12865">
        <ele>439</ele>
        <time>2018-09-30T07:33:24Z</time>
      </trkpt>
      <trkpt lat="43.18416" lon="0.12865">
        <ele>439</ele>
        <time>2018-09-30T07:33:25Z</time>
      </trkpt>
      <trkpt lat="43.18416" lon="0.12865">
        <ele>439</ele>
        <time>2018-09-30T07:33:26Z</time>
      </trkpt>
      <trkpt lat="43.18416" lon="0.12865">
        <ele>439</ele>
        <time>2018-09-30T07:33:27Z</time>
      </trkpt>
      <trkpt lat="43.18416" lon="0.12866">
        <ele>439</ele>
        <time>2018-09-30T07:33:28Z</time>
      </trkpt>
      <trkpt lat="43.18416" lon="0.12866">
        <ele>439</ele>
        <time>2018-09-30T07:33:29Z</time>
      </trkpt>
      <trkpt lat="43.18416" lon="0.12866">
        <ele>439</ele>
        <time>2018-09-30T07:33:30Z</time>
      </trkpt>
      <trkpt lat="43.18416" lon="0.12866">
        <ele>439</ele>
        <time>2018-09-30T07:33:31Z</time>
      </trkpt>
      <trkpt lat="43.18416" lon="0.12866">
        <ele>439</ele>
        <time>2018-09-30T07:33:32Z</time>
      </trkpt>
      <trkpt lat="43.18416" lon="0.12866">
        <ele>439</ele>
        <time>2018-09-30T07:33:33Z</time>
      </trkpt>
      <trkpt lat="43.18415" lon="0.12866">
        <ele>439</ele>
        <time>2018-09-30T07:33:34Z</time>
      </trkpt>
      <trkpt lat="43.18415" lon="0.12866">
        <ele>439</ele>
        <time>2018-09-30T07:33:35Z</time>
      </trkpt>
      <trkpt lat="43.18415" lon="0.12866">
        <ele>439</ele>
        <time>2018-09-30T07:33:36Z</time>
      </trkpt>
      <trkpt lat="43.18415" lon="0.12866">
        <ele>439</ele>
        <time>2018-09-30T07:33:37Z</time>
      </trkpt>
      <trkpt lat="43.18415" lon="0.12866">
        <ele>439</ele>
        <time>2018-09-30T07:33:38Z</time>
      </trkpt>
      <trkpt lat="43.18415" lon="0.12866">
        <ele>439</ele>
        <time>2018-09-30T07:33:39Z</time>
      </trkpt>
      <trkpt lat="43.18415" lon="0.12866">
        <ele>439</ele>
        <time>2018-09-30T07:33:40Z</time>
      </trkpt>
      <trkpt lat="43.18415" lon="0.12866">
        <ele>439</ele>
        <time>2018-09-30T07:33:41Z</time>
      </trkpt>
      <trkpt lat="43.18415" lon="0.12866">
        <ele>439</ele>
        <time>2018-09-30T07:33:42Z</time>
      </trkpt>
      <trkpt lat="43.18415" lon="0.12866">
        <ele>439</ele>
        <time>2018-09-30T07:33:43Z</time>
      </trkpt>
      <trkpt lat="43.18415" lon="0.12866">
        <ele>439</ele>
        <time>2018-09-30T07:33:44Z</time>
      </trkpt>
      <trkpt lat="43.18415" lon="0.12866">
        <ele>439</ele>
        <time>2018-09-30T07:33:45Z</time>
      </trkpt>
      <trkpt lat="43.18415" lon="0.12866">
        <ele>439</ele>
        <time>2018-09-30T07:33:46Z</time>
      </trkpt>
      <trkpt lat="43.18414" lon="0.12865">
        <ele>439</ele>
        <time>2018-09-30T07:33:47Z</time>
      </trkpt>
      <trkpt lat="43.18413" lon="0.12865">
        <ele>439</ele>
        <time>2018-09-30T07:33:48Z</time>
      </trkpt>
      <trkpt lat="43.18413" lon="0.12864">
        <ele>439</ele>
        <time>2018-09-30T07:33:49Z</time>
      </trkpt>
      <trkpt lat="43.18413" lon="0.12864">
        <ele>439</ele>
        <time>2018-09-30T07:33:50Z</time>
      </trkpt>
      <trkpt lat="43.18412" lon="0.12864">
        <ele>439</ele>
        <time>2018-09-30T07:33:51Z</time>
      </trkpt>
      <trkpt lat="43.18412" lon="0.12862">
        <ele>439</ele>
        <time>2018-09-30T07:33:52Z</time>
      </trkpt>
      <trkpt lat="43.18411" lon="0.1286">
        <ele>439</ele>
        <time>2018-09-30T07:33:53Z</time>
      </trkpt>
      <trkpt lat="43.1841" lon="0.12858">
        <ele>439</ele>
        <time>2018-09-30T07:33:54Z</time>
      </trkpt>
      <trkpt lat="43.18409" lon="0.12857">
        <ele>439</ele>
        <time>2018-09-30T07:33:55Z</time>
      </trkpt>
      <trkpt lat="43.18409" lon="0.12857">
        <ele>439</ele>
        <time>2018-09-30T07:33:56Z</time>
      </trkpt>
      <trkpt lat="43.18408" lon="0.12858">
        <ele>439</ele>
        <time>2018-09-30T07:33:57Z</time>
      </trkpt>
      <trkpt lat="43.18408" lon="0.12858">
        <ele>439</ele>
        <time>2018-09-30T07:33:58Z</time>
      </trkpt>
      <trkpt lat="43.18407" lon="0.12859">
        <ele>439</ele>
        <time>2018-09-30T07:33:59Z</time>
      </trkpt>
      <trkpt lat="43.18405" lon="0.12859">
        <ele>439</ele>
        <time>2018-09-30T07:34:00Z</time>
      </trkpt>
      <trkpt lat="43.18404" lon="0.1286">
        <ele>439</ele>
        <time>2018-09-30T07:34:01Z</time>
      </trkpt>
      <trkpt lat="43.18402" lon="0.1286">
        <ele>439</ele>
        <time>2018-09-30T07:34:02Z</time>
      </trkpt>
      <trkpt lat="43.18401" lon="0.12861">
        <ele>439</ele>
        <time>2018-09-30T07:34:03Z</time>
      </trkpt>
      <trkpt lat="43.18401" lon="0.12861">
        <ele>439</ele>
        <time>2018-09-30T07:34:04Z</time>
      </trkpt>
      <trkpt lat="43.184" lon="0.12861">
        <ele>439</ele>
        <time>2018-09-30T07:34:05Z</time>
      </trkpt>
      <trkpt lat="43.184" lon="0.12861">
        <ele>439</ele>
        <time>2018-09-30T07:34:06Z</time>
      </trkpt>
      <trkpt lat="43.184" lon="0.12861">
        <ele>439</ele>
        <time>2018-09-30T07:34:07Z</time>
      </trkpt>
      <trkpt lat="43.184" lon="0.12861">
        <ele>439</ele>
        <time>2018-09-30T07:34:08Z</time>
      </trkpt>
      <trkpt lat="43.184" lon="0.12861">
        <ele>439</ele>
        <time>2018-09-30T07:34:09Z</time>
      </trkpt>
      <trkpt lat="43.184" lon="0.12861">
        <ele>439</ele>
        <time>2018-09-30T07:34:10Z</time>
      </trkpt>
      <trkpt lat="43.184" lon="0.12861">
        <ele>439</ele>
        <time>2018-09-30T07:34:11Z</time>
      </trkpt>
      <trkpt lat="43.184" lon="0.12861">
        <ele>439</ele>
        <time>2018-09-30T07:34:12Z</time>
      </trkpt>
      <trkpt lat="43.184" lon="0.12861">
        <ele>439</ele>
        <time>2018-09-30T07:34:13Z</time>
      </trkpt>
      <trkpt lat="43.184" lon="0.12861">
        <ele>439</ele>
        <time>2018-09-30T07:34:14Z</time>
      </trkpt>
      <trkpt lat="43.184" lon="0.12861">
        <ele>439</ele>
        <time>2018-09-30T07:34:15Z</time>
      </trkpt>
      <trkpt lat="43.184" lon="0.12861">
        <ele>439</ele>
        <time>2018-09-30T07:34:16Z</time>
      </trkpt>
      <trkpt lat="43.184" lon="0.12861">
        <ele>439</ele>
        <time>2018-09-30T07:34:17Z</time>
      </trkpt>
      <trkpt lat="43.18399" lon="0.12861">
        <ele>439</ele>
        <time>2018-09-30T07:34:18Z</time>
      </trkpt>
      <trkpt lat="43.18399" lon="0.12861">
        <ele>439</ele>
        <time>2018-09-30T07:34:19Z</time>
      </trkpt>
      <trkpt lat="43.18399" lon="0.12861">
        <ele>439</ele>
        <time>2018-09-30T07:34:20Z</time>
      </trkpt>
      <trkpt lat="43.18399" lon="0.12861">
        <ele>439</ele>
        <time>2018-09-30T07:34:21Z</time>
      </trkpt>
      <trkpt lat="43.18399" lon="0.12861">
        <ele>439</ele>
        <time>2018-09-30T07:34:22Z</time>
      </trkpt>
      <trkpt lat="43.18399" lon="0.12861">
        <ele>438</ele>
        <time>2018-09-30T07:34:23Z</time>
      </trkpt>
      <trkpt lat="43.18399" lon="0.12861">
        <ele>438</ele>
        <time>2018-09-30T07:34:24Z</time>
      </trkpt>
      <trkpt lat="43.18399" lon="0.12861">
        <ele>438</ele>
        <time>2018-09-30T07:34:25Z</time>
      </trkpt>
      <trkpt lat="43.18399" lon="0.12861">
        <ele>438</ele>
        <time>2018-09-30T07:34:26Z</time>
      </trkpt>
      <trkpt lat="43.18399" lon="0.12861">
        <ele>438</ele>
        <time>2018-09-30T07:34:27Z</time>
      </trkpt>
      <trkpt lat="43.18399" lon="0.12861">
        <ele>438</ele>
        <time>2018-09-30T07:34:28Z</time>
      </trkpt>
      <trkpt lat="43.18399" lon="0.12861">
        <ele>438</ele>
        <time>2018-09-30T07:34:29Z</time>
      </trkpt>
      <trkpt lat="43.18399" lon="0.12861">
        <ele>438</ele>
        <time>2018-09-30T07:34:30Z</time>
      </trkpt>
      <trkpt lat="43.18399" lon="0.12861">
        <ele>438</ele>
        <time>2018-09-30T07:34:31Z</time>
      </trkpt>
      <trkpt lat="43.18399" lon="0.12861">
        <ele>438</ele>
        <time>2018-09-30T07:34:32Z</time>
      </trkpt>
      <trkpt lat="43.18399" lon="0.12861">
        <ele>438</ele>
        <time>2018-09-30T07:34:33Z</time>
      </trkpt>
      <trkpt lat="43.18399" lon="0.12861">
        <ele>438</ele>
        <time>2018-09-30T07:34:34Z</time>
      </trkpt>
      <trkpt lat="43.18399" lon="0.12861">
        <ele>438</ele>
        <time>2018-09-30T07:34:35Z</time>
      </trkpt>
      <trkpt lat="43.18398" lon="0.12861">
        <ele>438</ele>
        <time>2018-09-30T07:34:36Z</time>
      </trkpt>
      <trkpt lat="43.18398" lon="0.12861">
        <ele>438</ele>
        <time>2018-09-30T07:34:37Z</time>
      </trkpt>
      <trkpt lat="43.18398" lon="0.12861">
        <ele>438</ele>
        <time>2018-09-30T07:34:38Z</time>
      </trkpt>
      <trkpt lat="43.18398" lon="0.12861">
        <ele>438</ele>
        <time>2018-09-30T07:34:39Z</time>
      </trkpt>
      <trkpt lat="43.18398" lon="0.12861">
        <ele>438</ele>
        <time>2018-09-30T07:34:40Z</time>
      </trkpt>
      <trkpt lat="43.18398" lon="0.12861">
        <ele>438</ele>
        <time>2018-09-30T07:34:41Z</time>
      </trkpt>
      <trkpt lat="43.18398" lon="0.12861">
        <ele>438</ele>
        <time>2018-09-30T07:34:42Z</time>
      </trkpt>
      <trkpt lat="43.18398" lon="0.12861">
        <ele>438</ele>
        <time>2018-09-30T07:34:43Z</time>
      </trkpt>
      <trkpt lat="43.18398" lon="0.12861">
        <ele>438</ele>
        <time>2018-09-30T07:34:44Z</time>
      </trkpt>
      <trkpt lat="43.18398" lon="0.12861">
        <ele>438</ele>
        <time>2018-09-30T07:34:45Z</time>
      </trkpt>
      <trkpt lat="43.18398" lon="0.12861">
        <ele>438</ele>
        <time>2018-09-30T07:34:46Z</time>
      </trkpt>
      <trkpt lat="43.18398" lon="0.12861">
        <ele>438</ele>
        <time>2018-09-30T07:34:47Z</time>
      </trkpt>
      <trkpt lat="43.18397" lon="0.12861">
        <ele>438</ele>
        <time>2018-09-30T07:34:48Z</time>
      </trkpt>
      <trkpt lat="43.18398" lon="0.12862">
        <ele>438</ele>
        <time>2018-09-30T07:34:49Z</time>
      </trkpt>
      <trkpt lat="43.18397" lon="0.12862">
        <ele>438</ele>
        <time>2018-09-30T07:34:50Z</time>
      </trkpt>
      <trkpt lat="43.18397" lon="0.12862">
        <ele>438</ele>
        <time>2018-09-30T07:34:51Z</time>
      </trkpt>
      <trkpt lat="43.18397" lon="0.12862">
        <ele>438</ele>
        <time>2018-09-30T07:34:52Z</time>
      </trkpt>
      <trkpt lat="43.18397" lon="0.12862">
        <ele>438</ele>
        <time>2018-09-30T07:34:53Z</time>
      </trkpt>
      <trkpt lat="43.18397" lon="0.12862">
        <ele>438</ele>
        <time>2018-09-30T07:34:54Z</time>
      </trkpt>
      <trkpt lat="43.18397" lon="0.12862">
        <ele>438</ele>
        <time>2018-09-30T07:34:55Z</time>
      </trkpt>
      <trkpt lat="43.18397" lon="0.12862">
        <ele>438</ele>
        <time>2018-09-30T07:34:56Z</time>
      </trkpt>
      <trkpt lat="43.18397" lon="0.12862">
        <ele>438</ele>
        <time>2018-09-30T07:34:57Z</time>
      </trkpt>
      <trkpt lat="43.18397" lon="0.12862">
        <ele>438</ele>
        <time>2018-09-30T07:34:58Z</time>
      </trkpt>
      <trkpt lat="43.18397" lon="0.12862">
        <ele>438</ele>
        <time>2018-09-30T07:34:59Z</time>
      </trkpt>
      <trkpt lat="43.18397" lon="0.12862">
        <ele>438</ele>
        <time>2018-09-30T07:35:00Z</time>
      </trkpt>
      <trkpt lat="43.18397" lon="0.12862">
        <ele>438</ele>
        <time>2018-09-30T07:35:01Z</time>
      </trkpt>
      <trkpt lat="43.18397" lon="0.12862">
        <ele>438</ele>
        <time>2018-09-30T07:35:02Z</time>
      </trkpt>
      <trkpt lat="43.18395" lon="0.12862">
        <ele>438</ele>
        <time>2018-09-30T07:35:03Z</time>
      </trkpt>
      <trkpt lat="43.18394" lon="0.12861">
        <ele>438</ele>
        <time>2018-09-30T07:35:04Z</time>
      </trkpt>
      <trkpt lat="43.18392" lon="0.12861">
        <ele>438</ele>
        <time>2018-09-30T07:35:05Z</time>
      </trkpt>
      <trkpt lat="43.18391" lon="0.12861">
        <ele>438</ele>
        <time>2018-09-30T07:35:06Z</time>
      </trkpt>
      <trkpt lat="43.1839" lon="0.12861">
        <ele>438</ele>
        <time>2018-09-30T07:35:07Z</time>
      </trkpt>
      <trkpt lat="43.18388" lon="0.12859">
        <ele>438</ele>
        <time>2018-09-30T07:35:08Z</time>
      </trkpt>
      <trkpt lat="43.18388" lon="0.12859">
        <ele>438</ele>
        <time>2018-09-30T07:35:09Z</time>
      </trkpt>
      <trkpt lat="43.18387" lon="0.12858">
        <ele>438</ele>
        <time>2018-09-30T07:35:10Z</time>
      </trkpt>
      <trkpt lat="43.18386" lon="0.12857">
        <ele>438</ele>
        <time>2018-09-30T07:35:11Z</time>
      </trkpt>
      <trkpt lat="43.18386" lon="0.12857">
        <ele>438</ele>
        <time>2018-09-30T07:35:12Z</time>
      </trkpt>
      <trkpt lat="43.18386" lon="0.12857">
        <ele>438</ele>
        <time>2018-09-30T07:35:13Z</time>
      </trkpt>
      <trkpt lat="43.18386" lon="0.12857">
        <ele>438</ele>
        <time>2018-09-30T07:35:14Z</time>
      </trkpt>
      <trkpt lat="43.18386" lon="0.12857">
        <ele>438</ele>
        <time>2018-09-30T07:35:15Z</time>
      </trkpt>
      <trkpt lat="43.18386" lon="0.12857">
        <ele>438</ele>
        <time>2018-09-30T07:35:16Z</time>
      </trkpt>
      <trkpt lat="43.18386" lon="0.12857">
        <ele>438</ele>
        <time>2018-09-30T07:35:17Z</time>
      </trkpt>
      <trkpt lat="43.18386" lon="0.12857">
        <ele>438</ele>
        <time>2018-09-30T07:35:18Z</time>
      </trkpt>
      <trkpt lat="43.18386" lon="0.12857">
        <ele>438</ele>
        <time>2018-09-30T07:35:19Z</time>
      </trkpt>
      <trkpt lat="43.18387" lon="0.12857">
        <ele>438</ele>
        <time>2018-09-30T07:35:20Z</time>
      </trkpt>
      <trkpt lat="43.18387" lon="0.12857">
        <ele>438</ele>
        <time>2018-09-30T07:35:21Z</time>
      </trkpt>
      <trkpt lat="43.18387" lon="0.12857">
        <ele>438</ele>
        <time>2018-09-30T07:35:22Z</time>
      </trkpt>
      <trkpt lat="43.18387" lon="0.12857">
        <ele>438</ele>
        <time>2018-09-30T07:35:23Z</time>
      </trkpt>
      <trkpt lat="43.18387" lon="0.12857">
        <ele>438</ele>
        <time>2018-09-30T07:35:24Z</time>
      </trkpt>
      <trkpt lat="43.18387" lon="0.12857">
        <ele>438</ele>
        <time>2018-09-30T07:35:25Z</time>
      </trkpt>
      <trkpt lat="43.18387" lon="0.12857">
        <ele>438</ele>
        <time>2018-09-30T07:35:26Z</time>
      </trkpt>
      <trkpt lat="43.18387" lon="0.12857">
        <ele>438</ele>
        <time>2018-09-30T07:35:27Z</time>
      </trkpt>
      <trkpt lat="43.18387" lon="0.12857">
        <ele>438</ele>
        <time>2018-09-30T07:35:28Z</time>
      </trkpt>
      <trkpt lat="43.18386" lon="0.12857">
        <ele>438</ele>
        <time>2018-09-30T07:35:29Z</time>
      </trkpt>
      <trkpt lat="43.18386" lon="0.12857">
        <ele>438</ele>
        <time>2018-09-30T07:35:30Z</time>
      </trkpt>
      <trkpt lat="43.18386" lon="0.12857">
        <ele>438</ele>
        <time>2018-09-30T07:35:31Z</time>
      </trkpt>
      <trkpt lat="43.18386" lon="0.12857">
        <ele>437</ele>
        <time>2018-09-30T07:35:32Z</time>
      </trkpt>
      <trkpt lat="43.18386" lon="0.12857">
        <ele>437</ele>
        <time>2018-09-30T07:35:33Z</time>
      </trkpt>
      <trkpt lat="43.18386" lon="0.12857">
        <ele>437</ele>
        <time>2018-09-30T07:35:34Z</time>
      </trkpt>
      <trkpt lat="43.18386" lon="0.12857">
        <ele>437</ele>
        <time>2018-09-30T07:35:35Z</time>
      </trkpt>
      <trkpt lat="43.18386" lon="0.12857">
        <ele>437</ele>
        <time>2018-09-30T07:35:36Z</time>
      </trkpt>
      <trkpt lat="43.18386" lon="0.12856">
        <ele>437</ele>
        <time>2018-09-30T07:35:37Z</time>
      </trkpt>
      <trkpt lat="43.18386" lon="0.12856">
        <ele>437</ele>
        <time>2018-09-30T07:35:38Z</time>
      </trkpt>
      <trkpt lat="43.18385" lon="0.12856">
        <ele>436</ele>
        <time>2018-09-30T07:35:39Z</time>
      </trkpt>
      <trkpt lat="43.18384" lon="0.12856">
        <ele>436</ele>
        <time>2018-09-30T07:35:40Z</time>
      </trkpt>
      <trkpt lat="43.18384" lon="0.12857">
        <ele>436</ele>
        <time>2018-09-30T07:35:41Z</time>
      </trkpt>
      <trkpt lat="43.18382" lon="0.12857">
        <ele>435</ele>
        <time>2018-09-30T07:35:42Z</time>
      </trkpt>
      <trkpt lat="43.18381" lon="0.12857">
        <ele>435</ele>
        <time>2018-09-30T07:35:43Z</time>
      </trkpt>
      <trkpt lat="43.1838" lon="0.12857">
        <ele>435</ele>
        <time>2018-09-30T07:35:44Z</time>
      </trkpt>
      <trkpt lat="43.18379" lon="0.12858">
        <ele>435</ele>
        <time>2018-09-30T07:35:45Z</time>
      </trkpt>
      <trkpt lat="43.18378" lon="0.12859">
        <ele>435</ele>
        <time>2018-09-30T07:35:46Z</time>
      </trkpt>
      <trkpt lat="43.18377" lon="0.12859">
        <ele>435</ele>
        <time>2018-09-30T07:35:47Z</time>
      </trkpt>
      <trkpt lat="43.18376" lon="0.12858">
        <ele>435</ele>
        <time>2018-09-30T07:35:48Z</time>
      </trkpt>
      <trkpt lat="43.18374" lon="0.12858">
        <ele>435</ele>
        <time>2018-09-30T07:35:49Z</time>
      </trkpt>
      <trkpt lat="43.18373" lon="0.12859">
        <ele>435</ele>
        <time>2018-09-30T07:35:50Z</time>
      </trkpt>
      <trkpt lat="43.18371" lon="0.12859">
        <ele>435</ele>
        <time>2018-09-30T07:35:51Z</time>
      </trkpt>
      <trkpt lat="43.1837" lon="0.1286">
        <ele>435</ele>
        <time>2018-09-30T07:35:52Z</time>
      </trkpt>
      <trkpt lat="43.18369" lon="0.1286">
        <ele>435</ele>
        <time>2018-09-30T07:35:53Z</time>
      </trkpt>
      <trkpt lat="43.18368" lon="0.12861">
        <ele>435</ele>
        <time>2018-09-30T07:35:54Z</time>
      </trkpt>
      <trkpt lat="43.18367" lon="0.12863">
        <ele>435</ele>
        <time>2018-09-30T07:35:55Z</time>
      </trkpt>
      <trkpt lat="43.18366" lon="0.12864">
        <ele>435</ele>
        <time>2018-09-30T07:35:56Z</time>
      </trkpt>
      <trkpt lat="43.18366" lon="0.12864">
        <ele>435</ele>
        <time>2018-09-30T07:35:57Z</time>
      </trkpt>
      <trkpt lat="43.18366" lon="0.12864">
        <ele>435</ele>
        <time>2018-09-30T07:35:58Z</time>
      </trkpt>
      <trkpt lat="43.18366" lon="0.12864">
        <ele>435</ele>
        <time>2018-09-30T07:35:59Z</time>
      </trkpt>
      <trkpt lat="43.18366" lon="0.12864">
        <ele>434</ele>
        <time>2018-09-30T07:36:00Z</time>
      </trkpt>
      <trkpt lat="43.18366" lon="0.12864">
        <ele>434</ele>
        <time>2018-09-30T07:36:01Z</time>
      </trkpt>
      <trkpt lat="43.18366" lon="0.12864">
        <ele>434</ele>
        <time>2018-09-30T07:36:02Z</time>
      </trkpt>
      <trkpt lat="43.18366" lon="0.12864">
        <ele>434</ele>
        <time>2018-09-30T07:36:03Z</time>
      </trkpt>
      <trkpt lat="43.18366" lon="0.12864">
        <ele>434</ele>
        <time>2018-09-30T07:36:04Z</time>
      </trkpt>
      <trkpt lat="43.18366" lon="0.12864">
        <ele>434</ele>
        <time>2018-09-30T07:36:05Z</time>
      </trkpt>
      <trkpt lat="43.18366" lon="0.12864">
        <ele>434</ele>
        <time>2018-09-30T07:36:06Z</time>
      </trkpt>
      <trkpt lat="43.18366" lon="0.12864">
        <ele>434</ele>
        <time>2018-09-30T07:36:07Z</time>
      </trkpt>
      <trkpt lat="43.18365" lon="0.12865">
        <ele>434</ele>
        <time>2018-09-30T07:36:08Z</time>
      </trkpt>
      <trkpt lat="43.18365" lon="0.12865">
        <ele>434</ele>
        <time>2018-09-30T07:36:09Z</time>
      </trkpt>
      <trkpt lat="43.18365" lon="0.12865">
        <ele>434</ele>
        <time>2018-09-30T07:36:10Z</time>
      </trkpt>
      <trkpt lat="43.18363" lon="0.12865">
        <ele>434</ele>
        <time>2018-09-30T07:36:11Z</time>
      </trkpt>
      <trkpt lat="43.18362" lon="0.12867">
        <ele>434</ele>
        <time>2018-09-30T07:36:12Z</time>
      </trkpt>
      <trkpt lat="43.18361" lon="0.12867">
        <ele>434</ele>
        <time>2018-09-30T07:36:13Z</time>
      </trkpt>
      <trkpt lat="43.18359" lon="0.12868">
        <ele>434</ele>
        <time>2018-09-30T07:36:14Z</time>
      </trkpt>
      <trkpt lat="43.18358" lon="0.12869">
        <ele>433</ele>
        <time>2018-09-30T07:36:15Z</time>
      </trkpt>
      <trkpt lat="43.18357" lon="0.1287">
        <ele>433</ele>
        <time>2018-09-30T07:36:16Z</time>
      </trkpt>
      <trkpt lat="43.18356" lon="0.12871">
        <ele>433</ele>
        <time>2018-09-30T07:36:17Z</time>
      </trkpt>
      <trkpt lat="43.18356" lon="0.12871">
        <ele>433</ele>
        <time>2018-09-30T07:36:18Z</time>
      </trkpt>
      <trkpt lat="43.18354" lon="0.1287">
        <ele>433</ele>
        <time>2018-09-30T07:36:19Z</time>
      </trkpt>
      <trkpt lat="43.18351" lon="0.12871">
        <ele>432</ele>
        <time>2018-09-30T07:36:20Z</time>
      </trkpt>
      <trkpt lat="43.1835" lon="0.12872">
        <ele>432</ele>
        <time>2018-09-30T07:36:21Z</time>
      </trkpt>
      <trkpt lat="43.18349" lon="0.12872">
        <ele>432</ele>
        <time>2018-09-30T07:36:22Z</time>
      </trkpt>
      <trkpt lat="43.18347" lon="0.12872">
        <ele>432</ele>
        <time>2018-09-30T07:36:23Z</time>
      </trkpt>
      <trkpt lat="43.18346" lon="0.12872">
        <ele>432</ele>
        <time>2018-09-30T07:36:24Z</time>
      </trkpt>
      <trkpt lat="43.18345" lon="0.12872">
        <ele>432</ele>
        <time>2018-09-30T07:36:25Z</time>
      </trkpt>
      <trkpt lat="43.18344" lon="0.12872">
        <ele>432</ele>
        <time>2018-09-30T07:36:26Z</time>
      </trkpt>
      <trkpt lat="43.18342" lon="0.12873">
        <ele>432</ele>
        <time>2018-09-30T07:36:27Z</time>
      </trkpt>
      <trkpt lat="43.18341" lon="0.12874">
        <ele>431</ele>
        <time>2018-09-30T07:36:28Z</time>
      </trkpt>
      <trkpt lat="43.1834" lon="0.12874">
        <ele>431</ele>
        <time>2018-09-30T07:36:29Z</time>
      </trkpt>
      <trkpt lat="43.18339" lon="0.12875">
        <ele>431</ele>
        <time>2018-09-30T07:36:30Z</time>
      </trkpt>
      <trkpt lat="43.18339" lon="0.12875">
        <ele>431</ele>
        <time>2018-09-30T07:36:31Z</time>
      </trkpt>
      <trkpt lat="43.18338" lon="0.12875">
        <ele>431</ele>
        <time>2018-09-30T07:36:32Z</time>
      </trkpt>
      <trkpt lat="43.18336" lon="0.12876">
        <ele>431</ele>
        <time>2018-09-30T07:36:33Z</time>
      </trkpt>
      <trkpt lat="43.18335" lon="0.12877">
        <ele>431</ele>
        <time>2018-09-30T07:36:34Z</time>
      </trkpt>
      <trkpt lat="43.18334" lon="0.12878">
        <ele>431</ele>
        <time>2018-09-30T07:36:35Z</time>
      </trkpt>
      <trkpt lat="43.18333" lon="0.12879">
        <ele>431</ele>
        <time>2018-09-30T07:36:36Z</time>
      </trkpt>
      <trkpt lat="43.18332" lon="0.12879">
        <ele>430</ele>
        <time>2018-09-30T07:36:37Z</time>
      </trkpt>
      <trkpt lat="43.18331" lon="0.12878">
        <ele>430</ele>
        <time>2018-09-30T07:36:38Z</time>
      </trkpt>
      <trkpt lat="43.1833" lon="0.12878">
        <ele>430</ele>
        <time>2018-09-30T07:36:39Z</time>
      </trkpt>
      <trkpt lat="43.1833" lon="0.12878">
        <ele>430</ele>
        <time>2018-09-30T07:36:40Z</time>
      </trkpt>
      <trkpt lat="43.1833" lon="0.12878">
        <ele>430</ele>
        <time>2018-09-30T07:36:41Z</time>
      </trkpt>
      <trkpt lat="43.18329" lon="0.12878">
        <ele>429</ele>
        <time>2018-09-30T07:36:42Z</time>
      </trkpt>
      <trkpt lat="43.18329" lon="0.12878">
        <ele>429</ele>
        <time>2018-09-30T07:36:43Z</time>
      </trkpt>
      <trkpt lat="43.18329" lon="0.12878">
        <ele>428</ele>
        <time>2018-09-30T07:36:44Z</time>
      </trkpt>
      <trkpt lat="43.18329" lon="0.12878">
        <ele>428</ele>
        <time>2018-09-30T07:36:45Z</time>
      </trkpt>
      <trkpt lat="43.18329" lon="0.12878">
        <ele>428</ele>
        <time>2018-09-30T07:36:46Z</time>
      </trkpt>
      <trkpt lat="43.18329" lon="0.12878">
        <ele>428</ele>
        <time>2018-09-30T07:36:47Z</time>
      </trkpt>
      <trkpt lat="43.18329" lon="0.12878">
        <ele>428</ele>
        <time>2018-09-30T07:36:48Z</time>
      </trkpt>
      <trkpt lat="43.18329" lon="0.12878">
        <ele>428</ele>
        <time>2018-09-30T07:36:49Z</time>
      </trkpt>
      <trkpt lat="43.18329" lon="0.12878">
        <ele>428</ele>
        <time>2018-09-30T07:36:50Z</time>
      </trkpt>
      <trkpt lat="43.18329" lon="0.12878">
        <ele>428</ele>
        <time>2018-09-30T07:36:51Z</time>
      </trkpt>
      <trkpt lat="43.18329" lon="0.12878">
        <ele>428</ele>
        <time>2018-09-30T07:36:52Z</time>
      </trkpt>
      <trkpt lat="43.18329" lon="0.12878">
        <ele>428</ele>
        <time>2018-09-30T07:36:53Z</time>
      </trkpt>
      <trkpt lat="43.18329" lon="0.12878">
        <ele>428</ele>
        <time>2018-09-30T07:36:54Z</time>
      </trkpt>
      <trkpt lat="43.18329" lon="0.12878">
        <ele>428</ele>
        <time>2018-09-30T07:36:55Z</time>
      </trkpt>
      <trkpt lat="43.18329" lon="0.12878">
        <ele>428</ele>
        <time>2018-09-30T07:36:56Z</time>
      </trkpt>
      <trkpt lat="43.18328" lon="0.12878">
        <ele>428</ele>
        <time>2018-09-30T07:36:57Z</time>
      </trkpt>
      <trkpt lat="43.18328" lon="0.12877">
        <ele>428</ele>
        <time>2018-09-30T07:36:58Z</time>
      </trkpt>
      <trkpt lat="43.18326" lon="0.12876">
        <ele>428</ele>
        <time>2018-09-30T07:36:59Z</time>
      </trkpt>
      <trkpt lat="43.18325" lon="0.12876">
        <ele>428</ele>
        <time>2018-09-30T07:37:00Z</time>
      </trkpt>
      <trkpt lat="43.18324" lon="0.12876">
        <ele>428</ele>
        <time>2018-09-30T07:37:01Z</time>
      </trkpt>
      <trkpt lat="43.18323" lon="0.12876">
        <ele>428</ele>
        <time>2018-09-30T07:37:02Z</time>
      </trkpt>
      <trkpt lat="43.18323" lon="0.12876">
        <ele>428</ele>
        <time>2018-09-30T07:37:03Z</time>
      </trkpt>
      <trkpt lat="43.18323" lon="0.12876">
        <ele>428</ele>
        <time>2018-09-30T07:37:04Z</time>
      </trkpt>
      <trkpt lat="43.18323" lon="0.12876">
        <ele>428</ele>
        <time>2018-09-30T07:37:05Z</time>
      </trkpt>
      <trkpt lat="43.18323" lon="0.12876">
        <ele>428</ele>
        <time>2018-09-30T07:37:06Z</time>
      </trkpt>
      <trkpt lat="43.18323" lon="0.12876">
        <ele>428</ele>
        <time>2018-09-30T07:37:07Z</time>
      </trkpt>
      <trkpt lat="43.18323" lon="0.12876">
        <ele>428</ele>
        <time>2018-09-30T07:37:08Z</time>
      </trkpt>
      <trkpt lat="43.18321" lon="0.12876">
        <ele>428</ele>
        <time>2018-09-30T07:37:09Z</time>
      </trkpt>
      <trkpt lat="43.18319" lon="0.12875">
        <ele>428</ele>
        <time>2018-09-30T07:37:10Z</time>
      </trkpt>
      <trkpt lat="43.18318" lon="0.12875">
        <ele>428</ele>
        <time>2018-09-30T07:37:11Z</time>
      </trkpt>
      <trkpt lat="43.18317" lon="0.12875">
        <ele>428</ele>
        <time>2018-09-30T07:37:12Z</time>
      </trkpt>
      <trkpt lat="43.18316" lon="0.12875">
        <ele>428</ele>
        <time>2018-09-30T07:37:13Z</time>
      </trkpt>
      <trkpt lat="43.18315" lon="0.12875">
        <ele>427</ele>
        <time>2018-09-30T07:37:14Z</time>
      </trkpt>
      <trkpt lat="43.18314" lon="0.12876">
        <ele>427</ele>
        <time>2018-09-30T07:37:15Z</time>
      </trkpt>
      <trkpt lat="43.18314" lon="0.12876">
        <ele>427</ele>
        <time>2018-09-30T07:37:16Z</time>
      </trkpt>
      <trkpt lat="43.18313" lon="0.12876">
        <ele>427</ele>
        <time>2018-09-30T07:37:17Z</time>
      </trkpt>
      <trkpt lat="43.18312" lon="0.12876">
        <ele>427</ele>
        <time>2018-09-30T07:37:18Z</time>
      </trkpt>
      <trkpt lat="43.18311" lon="0.12876">
        <ele>427</ele>
        <time>2018-09-30T07:37:19Z</time>
      </trkpt>
      <trkpt lat="43.1831" lon="0.12876">
        <ele>427</ele>
        <time>2018-09-30T07:37:20Z</time>
      </trkpt>
      <trkpt lat="43.1831" lon="0.12876">
        <ele>427</ele>
        <time>2018-09-30T07:37:21Z</time>
      </trkpt>
      <trkpt lat="43.18309" lon="0.12876">
        <ele>427</ele>
        <time>2018-09-30T07:37:22Z</time>
      </trkpt>
      <trkpt lat="43.18308" lon="0.12876">
        <ele>427</ele>
        <time>2018-09-30T07:37:23Z</time>
      </trkpt>
      <trkpt lat="43.18307" lon="0.12876">
        <ele>427</ele>
        <time>2018-09-30T07:37:24Z</time>
      </trkpt>
      <trkpt lat="43.18306" lon="0.12876">
        <ele>427</ele>
        <time>2018-09-30T07:37:25Z</time>
      </trkpt>
      <trkpt lat="43.18305" lon="0.12875">
        <ele>427</ele>
        <time>2018-09-30T07:37:26Z</time>
      </trkpt>
      <trkpt lat="43.18305" lon="0.12875">
        <ele>427</ele>
        <time>2018-09-30T07:37:27Z</time>
      </trkpt>
      <trkpt lat="43.18305" lon="0.12875">
        <ele>427</ele>
        <time>2018-09-30T07:37:28Z</time>
      </trkpt>
      <trkpt lat="43.18303" lon="0.12874">
        <ele>427</ele>
        <time>2018-09-30T07:37:29Z</time>
      </trkpt>
      <trkpt lat="43.18303" lon="0.12873">
        <ele>427</ele>
        <time>2018-09-30T07:37:30Z</time>
      </trkpt>
      <trkpt lat="43.18302" lon="0.12873">
        <ele>427</ele>
        <time>2018-09-30T07:37:31Z</time>
      </trkpt>
      <trkpt lat="43.18301" lon="0.12872">
        <ele>427</ele>
        <time>2018-09-30T07:37:32Z</time>
      </trkpt>
      <trkpt lat="43.18301" lon="0.12871">
        <ele>427</ele>
        <time>2018-09-30T07:37:33Z</time>
      </trkpt>
      <trkpt lat="43.183" lon="0.1287">
        <ele>427</ele>
        <time>2018-09-30T07:37:34Z</time>
      </trkpt>
      <trkpt lat="43.183" lon="0.12868">
        <ele>427</ele>
        <time>2018-09-30T07:37:35Z</time>
      </trkpt>
      <trkpt lat="43.18299" lon="0.12867">
        <ele>426</ele>
        <time>2018-09-30T07:37:36Z</time>
      </trkpt>
      <trkpt lat="43.18298" lon="0.12866">
        <ele>426</ele>
        <time>2018-09-30T07:37:37Z</time>
      </trkpt>
      <trkpt lat="43.18298" lon="0.12865">
        <ele>426</ele>
        <time>2018-09-30T07:37:38Z</time>
      </trkpt>
      <trkpt lat="43.18296" lon="0.12862">
        <ele>426</ele>
        <time>2018-09-30T07:37:39Z</time>
      </trkpt>
      <trkpt lat="43.18295" lon="0.1286">
        <ele>426</ele>
        <time>2018-09-30T07:37:40Z</time>
      </trkpt>
      <trkpt lat="43.18295" lon="0.12858">
        <ele>426</ele>
        <time>2018-09-30T07:37:41Z</time>
      </trkpt>
      <trkpt lat="43.18294" lon="0.12857">
        <ele>426</ele>
        <time>2018-09-30T07:37:42Z</time>
      </trkpt>
      <trkpt lat="43.18294" lon="0.12856">
        <ele>426</ele>
        <time>2018-09-30T07:37:43Z</time>
      </trkpt>
      <trkpt lat="43.18294" lon="0.12854">
        <ele>426</ele>
        <time>2018-09-30T07:37:44Z</time>
      </trkpt>
      <trkpt lat="43.18294" lon="0.12853">
        <ele>426</ele>
        <time>2018-09-30T07:37:45Z</time>
      </trkpt>
      <trkpt lat="43.18295" lon="0.1285">
        <ele>426</ele>
        <time>2018-09-30T07:37:46Z</time>
      </trkpt>
      <trkpt lat="43.18295" lon="0.12847">
        <ele>426</ele>
        <time>2018-09-30T07:37:47Z</time>
      </trkpt>
      <trkpt lat="43.18295" lon="0.12845">
        <ele>426</ele>
        <time>2018-09-30T07:37:48Z</time>
      </trkpt>
      <trkpt lat="43.18295" lon="0.12845">
        <ele>425</ele>
        <time>2018-09-30T07:37:49Z</time>
      </trkpt>
      <trkpt lat="43.18294" lon="0.12844">
        <ele>425</ele>
        <time>2018-09-30T07:37:50Z</time>
      </trkpt>
      <trkpt lat="43.18293" lon="0.12843">
        <ele>425</ele>
        <time>2018-09-30T07:37:51Z</time>
      </trkpt>
      <trkpt lat="43.18292" lon="0.12843">
        <ele>425</ele>
        <time>2018-09-30T07:37:52Z</time>
      </trkpt>
      <trkpt lat="43.18292" lon="0.12844">
        <ele>425</ele>
        <time>2018-09-30T07:37:53Z</time>
      </trkpt>
      <trkpt lat="43.18291" lon="0.12845">
        <ele>425</ele>
        <time>2018-09-30T07:37:54Z</time>
      </trkpt>
      <trkpt lat="43.1829" lon="0.12847">
        <ele>425</ele>
        <time>2018-09-30T07:37:55Z</time>
      </trkpt>
      <trkpt lat="43.18288" lon="0.12848">
        <ele>425</ele>
        <time>2018-09-30T07:37:56Z</time>
      </trkpt>
      <trkpt lat="43.18288" lon="0.12848">
        <ele>425</ele>
        <time>2018-09-30T07:37:57Z</time>
      </trkpt>
      <trkpt lat="43.18288" lon="0.12848">
        <ele>425</ele>
        <time>2018-09-30T07:37:58Z</time>
      </trkpt>
      <trkpt lat="43.18288" lon="0.12848">
        <ele>425</ele>
        <time>2018-09-30T07:37:59Z</time>
      </trkpt>
      <trkpt lat="43.18288" lon="0.12848">
        <ele>424</ele>
        <time>2018-09-30T07:38:00Z</time>
      </trkpt>
      <trkpt lat="43.18286" lon="0.12848">
        <ele>424</ele>
        <time>2018-09-30T07:38:01Z</time>
      </trkpt>
      <trkpt lat="43.18284" lon="0.1285">
        <ele>424</ele>
        <time>2018-09-30T07:38:02Z</time>
      </trkpt>
      <trkpt lat="43.18282" lon="0.12851">
        <ele>424</ele>
        <time>2018-09-30T07:38:03Z</time>
      </trkpt>
      <trkpt lat="43.18281" lon="0.12852">
        <ele>424</ele>
        <time>2018-09-30T07:38:04Z</time>
      </trkpt>
      <trkpt lat="43.1828" lon="0.12853">
        <ele>424</ele>
        <time>2018-09-30T07:38:05Z</time>
      </trkpt>
      <trkpt lat="43.18278" lon="0.12853">
        <ele>424</ele>
        <time>2018-09-30T07:38:06Z</time>
      </trkpt>
      <trkpt lat="43.18277" lon="0.12854">
        <ele>424</ele>
        <time>2018-09-30T07:38:07Z</time>
      </trkpt>
      <trkpt lat="43.18276" lon="0.12854">
        <ele>424</ele>
        <time>2018-09-30T07:38:08Z</time>
      </trkpt>
      <trkpt lat="43.18276" lon="0.12854">
        <ele>424</ele>
        <time>2018-09-30T07:38:09Z</time>
      </trkpt>
      <trkpt lat="43.18275" lon="0.12854">
        <ele>424</ele>
        <time>2018-09-30T07:38:10Z</time>
      </trkpt>
      <trkpt lat="43.18273" lon="0.12854">
        <ele>419</ele>
        <time>2018-09-30T07:38:11Z</time>
      </trkpt>
      <trkpt lat="43.18272" lon="0.12854">
        <ele>418</ele>
        <time>2018-09-30T07:38:12Z</time>
      </trkpt>
      <trkpt lat="43.1827" lon="0.12855">
        <ele>417</ele>
        <time>2018-09-30T07:38:13Z</time>
      </trkpt>
      <trkpt lat="43.18268" lon="0.12856">
        <ele>417</ele>
        <time>2018-09-30T07:38:14Z</time>
      </trkpt>
      <trkpt lat="43.18266" lon="0.12856">
        <ele>417</ele>
        <time>2018-09-30T07:38:15Z</time>
      </trkpt>
      <trkpt lat="43.18264" lon="0.12857">
        <ele>416</ele>
        <time>2018-09-30T07:38:16Z</time>
      </trkpt>
      <trkpt lat="43.18262" lon="0.12857">
        <ele>416</ele>
        <time>2018-09-30T07:38:17Z</time>
      </trkpt>
      <trkpt lat="43.18259" lon="0.12855">
        <ele>416</ele>
        <time>2018-09-30T07:38:18Z</time>
      </trkpt>
      <trkpt lat="43.18257" lon="0.12855">
        <ele>416</ele>
        <time>2018-09-30T07:38:19Z</time>
      </trkpt>
      <trkpt lat="43.18254" lon="0.12853">
        <ele>416</ele>
        <time>2018-09-30T07:38:20Z</time>
      </trkpt>
      <trkpt lat="43.18253" lon="0.12852">
        <ele>416</ele>
        <time>2018-09-30T07:38:21Z</time>
      </trkpt>
      <trkpt lat="43.1825" lon="0.1285">
        <ele>415</ele>
        <time>2018-09-30T07:38:22Z</time>
      </trkpt>
      <trkpt lat="43.18248" lon="0.12848">
        <ele>415</ele>
        <time>2018-09-30T07:38:23Z</time>
      </trkpt>
      <trkpt lat="43.18247" lon="0.12846">
        <ele>415</ele>
        <time>2018-09-30T07:38:24Z</time>
      </trkpt>
      <trkpt lat="43.18245" lon="0.12845">
        <ele>415</ele>
        <time>2018-09-30T07:38:25Z</time>
      </trkpt>
      <trkpt lat="43.18245" lon="0.12843">
        <ele>415</ele>
        <time>2018-09-30T07:38:26Z</time>
      </trkpt>
      <trkpt lat="43.18244" lon="0.12841">
        <ele>415</ele>
        <time>2018-09-30T07:38:27Z</time>
      </trkpt>
      <trkpt lat="43.18243" lon="0.12839">
        <ele>415</ele>
        <time>2018-09-30T07:38:28Z</time>
      </trkpt>
      <trkpt lat="43.18242" lon="0.12838">
        <ele>413</ele>
        <time>2018-09-30T07:38:28Z</time>
      </trkpt>
      <trkpt lat="43.18242" lon="0.12837">
        <ele>413</ele>
        <time>2018-09-30T07:38:29Z</time>
      </trkpt>
      <trkpt lat="43.18241" lon="0.12836">
        <ele>413</ele>
        <time>2018-09-30T07:38:30Z</time>
      </trkpt>
      <trkpt lat="43.1824" lon="0.12835">
        <ele>413</ele>
        <time>2018-09-30T07:38:31Z</time>
      </trkpt>
      <trkpt lat="43.18239" lon="0.12834">
        <ele>413</ele>
        <time>2018-09-30T07:38:32Z</time>
      </trkpt>
      <trkpt lat="43.18238" lon="0.12833">
        <ele>413</ele>
        <time>2018-09-30T07:38:33Z</time>
      </trkpt>
      <trkpt lat="43.18236" lon="0.12832">
        <ele>413</ele>
        <time>2018-09-30T07:38:34Z</time>
      </trkpt>
      <trkpt lat="43.18235" lon="0.1283">
        <ele>413</ele>
        <time>2018-09-30T07:38:35Z</time>
      </trkpt>
      <trkpt lat="43.18235" lon="0.1283">
        <ele>413</ele>
        <time>2018-09-30T07:38:36Z</time>
      </trkpt>
      <trkpt lat="43.18234" lon="0.12829">
        <ele>412</ele>
        <time>2018-09-30T07:38:37Z</time>
      </trkpt>
      <trkpt lat="43.18233" lon="0.12829">
        <ele>412</ele>
        <time>2018-09-30T07:38:38Z</time>
      </trkpt>
      <trkpt lat="43.18233" lon="0.12828">
        <ele>412</ele>
        <time>2018-09-30T07:38:39Z</time>
      </trkpt>
      <trkpt lat="43.18233" lon="0.12828">
        <ele>412</ele>
        <time>2018-09-30T07:38:40Z</time>
      </trkpt>
      <trkpt lat="43.18233" lon="0.12828">
        <ele>412</ele>
        <time>2018-09-30T07:38:41Z</time>
      </trkpt>
      <trkpt lat="43.18232" lon="0.12826">
        <ele>412</ele>
        <time>2018-09-30T07:38:42Z</time>
      </trkpt>
      <trkpt lat="43.18231" lon="0.12825">
        <ele>412</ele>
        <time>2018-09-30T07:38:43Z</time>
      </trkpt>
      <trkpt lat="43.1823" lon="0.12824">
        <ele>412</ele>
        <time>2018-09-30T07:38:44Z</time>
      </trkpt>
      <trkpt lat="43.18229" lon="0.12823">
        <ele>412</ele>
        <time>2018-09-30T07:38:45Z</time>
      </trkpt>
      <trkpt lat="43.18229" lon="0.12821">
        <ele>412</ele>
        <time>2018-09-30T07:38:46Z</time>
      </trkpt>
      <trkpt lat="43.18228" lon="0.1282">
        <ele>412</ele>
        <time>2018-09-30T07:38:47Z</time>
      </trkpt>
      <trkpt lat="43.18228" lon="0.12818">
        <ele>412</ele>
        <time>2018-09-30T07:38:48Z</time>
      </trkpt>
      <trkpt lat="43.18227" lon="0.12817">
        <ele>412</ele>
        <time>2018-09-30T07:38:49Z</time>
      </trkpt>
      <trkpt lat="43.18227" lon="0.12815">
        <ele>412</ele>
        <time>2018-09-30T07:38:50Z</time>
      </trkpt>
      <trkpt lat="43.18226" lon="0.12814">
        <ele>412</ele>
        <time>2018-09-30T07:38:51Z</time>
      </trkpt>
      <trkpt lat="43.18226" lon="0.12812">
        <ele>412</ele>
        <time>2018-09-30T07:38:52Z</time>
      </trkpt>
      <trkpt lat="43.18226" lon="0.12811">
        <ele>412</ele>
        <time>2018-09-30T07:38:53Z</time>
      </trkpt>
      <trkpt lat="43.18225" lon="0.1281">
        <ele>412</ele>
        <time>2018-09-30T07:38:54Z</time>
      </trkpt>
      <trkpt lat="43.18225" lon="0.12809">
        <ele>412</ele>
        <time>2018-09-30T07:38:55Z</time>
      </trkpt>
      <trkpt lat="43.18224" lon="0.12807">
        <ele>412</ele>
        <time>2018-09-30T07:38:56Z</time>
      </trkpt>
      <trkpt lat="43.18224" lon="0.12805">
        <ele>412</ele>
        <time>2018-09-30T07:38:57Z</time>
      </trkpt>
      <trkpt lat="43.18223" lon="0.12804">
        <ele>412</ele>
        <time>2018-09-30T07:38:58Z</time>
      </trkpt>
      <trkpt lat="43.18222" lon="0.12803">
        <ele>411</ele>
        <time>2018-09-30T07:38:59Z</time>
      </trkpt>
      <trkpt lat="43.18221" lon="0.128">
        <ele>411</ele>
        <time>2018-09-30T07:39:00Z</time>
      </trkpt>
      <trkpt lat="43.1822" lon="0.12798">
        <ele>411</ele>
        <time>2018-09-30T07:39:01Z</time>
      </trkpt>
      <trkpt lat="43.18219" lon="0.12797">
        <ele>411</ele>
        <time>2018-09-30T07:39:02Z</time>
      </trkpt>
      <trkpt lat="43.18219" lon="0.12796">
        <ele>411</ele>
        <time>2018-09-30T07:39:03Z</time>
      </trkpt>
      <trkpt lat="43.18218" lon="0.12794">
        <ele>411</ele>
        <time>2018-09-30T07:39:04Z</time>
      </trkpt>
      <trkpt lat="43.18217" lon="0.12794">
        <ele>411</ele>
        <time>2018-09-30T07:39:05Z</time>
      </trkpt>
      <trkpt lat="43.18216" lon="0.12793">
        <ele>411</ele>
        <time>2018-09-30T07:39:06Z</time>
      </trkpt>
      <trkpt lat="43.18215" lon="0.12791">
        <ele>411</ele>
        <time>2018-09-30T07:39:07Z</time>
      </trkpt>
      <trkpt lat="43.18214" lon="0.1279">
        <ele>411</ele>
        <time>2018-09-30T07:39:08Z</time>
      </trkpt>
      <trkpt lat="43.18213" lon="0.1279">
        <ele>411</ele>
        <time>2018-09-30T07:39:09Z</time>
      </trkpt>
      <trkpt lat="43.18212" lon="0.1279">
        <ele>411</ele>
        <time>2018-09-30T07:39:10Z</time>
      </trkpt>
      <trkpt lat="43.18212" lon="0.12789">
        <ele>411</ele>
        <time>2018-09-30T07:39:11Z</time>
      </trkpt>
      <trkpt lat="43.18211" lon="0.12789">
        <ele>411</ele>
        <time>2018-09-30T07:39:12Z</time>
      </trkpt>
      <trkpt lat="43.18209" lon="0.12788">
        <ele>411</ele>
        <time>2018-09-30T07:39:13Z</time>
      </trkpt>
      <trkpt lat="43.18208" lon="0.12787">
        <ele>411</ele>
        <time>2018-09-30T07:39:14Z</time>
      </trkpt>
      <trkpt lat="43.18207" lon="0.12787">
        <ele>411</ele>
        <time>2018-09-30T07:39:15Z</time>
      </trkpt>
      <trkpt lat="43.18207" lon="0.12787">
        <ele>411</ele>
        <time>2018-09-30T07:39:16Z</time>
      </trkpt>
      <trkpt lat="43.18206" lon="0.12787">
        <ele>411</ele>
        <time>2018-09-30T07:39:17Z</time>
      </trkpt>
      <trkpt lat="43.18205" lon="0.12787">
        <ele>410</ele>
        <time>2018-09-30T07:39:18Z</time>
      </trkpt>
      <trkpt lat="43.18203" lon="0.12786">
        <ele>410</ele>
        <time>2018-09-30T07:39:19Z</time>
      </trkpt>
      <trkpt lat="43.18202" lon="0.12786">
        <ele>410</ele>
        <time>2018-09-30T07:39:20Z</time>
      </trkpt>
      <trkpt lat="43.18201" lon="0.12785">
        <ele>410</ele>
        <time>2018-09-30T07:39:21Z</time>
      </trkpt>
      <trkpt lat="43.18199" lon="0.12785">
        <ele>409</ele>
        <time>2018-09-30T07:39:22Z</time>
      </trkpt>
      <trkpt lat="43.18198" lon="0.12784">
        <ele>408</ele>
        <time>2018-09-30T07:39:23Z</time>
      </trkpt>
      <trkpt lat="43.18196" lon="0.12784">
        <ele>408</ele>
        <time>2018-09-30T07:39:24Z</time>
      </trkpt>
      <trkpt lat="43.18196" lon="0.12784">
        <ele>408</ele>
        <time>2018-09-30T07:39:25Z</time>
      </trkpt>
      <trkpt lat="43.18195" lon="0.12784">
        <ele>408</ele>
        <time>2018-09-30T07:39:26Z</time>
      </trkpt>
      <trkpt lat="43.18194" lon="0.12784">
        <ele>408</ele>
        <time>2018-09-30T07:39:27Z</time>
      </trkpt>
      <trkpt lat="43.18194" lon="0.12784">
        <ele>408</ele>
        <time>2018-09-30T07:39:28Z</time>
      </trkpt>
      <trkpt lat="43.18194" lon="0.12784">
        <ele>408</ele>
        <time>2018-09-30T07:39:29Z</time>
      </trkpt>
      <trkpt lat="43.18193" lon="0.12783">
        <ele>407</ele>
        <time>2018-09-30T07:39:30Z</time>
      </trkpt>
      <trkpt lat="43.18192" lon="0.12783">
        <ele>407</ele>
        <time>2018-09-30T07:39:31Z</time>
      </trkpt>
      <trkpt lat="43.18191" lon="0.12783">
        <ele>407</ele>
        <time>2018-09-30T07:39:32Z</time>
      </trkpt>
      <trkpt lat="43.18189" lon="0.12784">
        <ele>407</ele>
        <time>2018-09-30T07:39:33Z</time>
      </trkpt>
      <trkpt lat="43.18188" lon="0.12784">
        <ele>407</ele>
        <time>2018-09-30T07:39:34Z</time>
      </trkpt>
      <trkpt lat="43.18187" lon="0.12784">
        <ele>407</ele>
        <time>2018-09-30T07:39:35Z</time>
      </trkpt>
      <trkpt lat="43.18185" lon="0.12784">
        <ele>407</ele>
        <time>2018-09-30T07:39:36Z</time>
      </trkpt>
      <trkpt lat="43.18184" lon="0.12784">
        <ele>407</ele>
        <time>2018-09-30T07:39:37Z</time>
      </trkpt>
      <trkpt lat="43.18184" lon="0.12784">
        <ele>407</ele>
        <time>2018-09-30T07:39:38Z</time>
      </trkpt>
      <trkpt lat="43.18184" lon="0.12784">
        <ele>407</ele>
        <time>2018-09-30T07:39:39Z</time>
      </trkpt>
      <trkpt lat="43.18183" lon="0.12783">
        <ele>407</ele>
        <time>2018-09-30T07:39:40Z</time>
      </trkpt>
      <trkpt lat="43.18181" lon="0.12783">
        <ele>407</ele>
        <time>2018-09-30T07:39:41Z</time>
      </trkpt>
      <trkpt lat="43.1818" lon="0.12784">
        <ele>407</ele>
        <time>2018-09-30T07:39:42Z</time>
      </trkpt>
      <trkpt lat="43.18178" lon="0.12784">
        <ele>407</ele>
        <time>2018-09-30T07:39:43Z</time>
      </trkpt>
      <trkpt lat="43.18176" lon="0.12785">
        <ele>407</ele>
        <time>2018-09-30T07:39:44Z</time>
      </trkpt>
      <trkpt lat="43.18175" lon="0.12785">
        <ele>407</ele>
        <time>2018-09-30T07:39:45Z</time>
      </trkpt>
      <trkpt lat="43.18174" lon="0.12785">
        <ele>407</ele>
        <time>2018-09-30T07:39:46Z</time>
      </trkpt>
      <trkpt lat="43.18174" lon="0.12785">
        <ele>407</ele>
        <time>2018-09-30T07:39:47Z</time>
      </trkpt>
      <trkpt lat="43.18174" lon="0.12785">
        <ele>407</ele>
        <time>2018-09-30T07:39:48Z</time>
      </trkpt>
      <trkpt lat="43.18174" lon="0.12785">
        <ele>407</ele>
        <time>2018-09-30T07:39:49Z</time>
      </trkpt>
      <trkpt lat="43.18174" lon="0.12785">
        <ele>406</ele>
        <time>2018-09-30T07:39:50Z</time>
      </trkpt>
      <trkpt lat="43.18173" lon="0.12785">
        <ele>406</ele>
        <time>2018-09-30T07:39:51Z</time>
      </trkpt>
      <trkpt lat="43.18172" lon="0.12786">
        <ele>406</ele>
        <time>2018-09-30T07:39:52Z</time>
      </trkpt>
      <trkpt lat="43.1817" lon="0.12786">
        <ele>406</ele>
        <time>2018-09-30T07:39:53Z</time>
      </trkpt>
      <trkpt lat="43.18169" lon="0.12787">
        <ele>406</ele>
        <time>2018-09-30T07:39:54Z</time>
      </trkpt>
      <trkpt lat="43.18167" lon="0.12787">
        <ele>405</ele>
        <time>2018-09-30T07:39:55Z</time>
      </trkpt>
      <trkpt lat="43.18165" lon="0.12786">
        <ele>405</ele>
        <time>2018-09-30T07:39:56Z</time>
      </trkpt>
      <trkpt lat="43.18164" lon="0.12787">
        <ele>405</ele>
        <time>2018-09-30T07:39:57Z</time>
      </trkpt>
      <trkpt lat="43.18163" lon="0.12787">
        <ele>405</ele>
        <time>2018-09-30T07:39:58Z</time>
      </trkpt>
      <trkpt lat="43.18162" lon="0.12787">
        <ele>405</ele>
        <time>2018-09-30T07:39:59Z</time>
      </trkpt>
      <trkpt lat="43.18161" lon="0.12788">
        <ele>405</ele>
        <time>2018-09-30T07:40:00Z</time>
      </trkpt>
      <trkpt lat="43.1816" lon="0.12787">
        <ele>405</ele>
        <time>2018-09-30T07:40:01Z</time>
      </trkpt>
      <trkpt lat="43.18159" lon="0.12787">
        <ele>405</ele>
        <time>2018-09-30T07:40:02Z</time>
      </trkpt>
      <trkpt lat="43.18159" lon="0.12787">
        <ele>405</ele>
        <time>2018-09-30T07:40:03Z</time>
      </trkpt>
      <trkpt lat="43.18158" lon="0.12786">
        <ele>405</ele>
        <time>2018-09-30T07:40:04Z</time>
      </trkpt>
      <trkpt lat="43.18156" lon="0.12785">
        <ele>405</ele>
        <time>2018-09-30T07:40:05Z</time>
      </trkpt>
      <trkpt lat="43.18156" lon="0.12784">
        <ele>405</ele>
        <time>2018-09-30T07:40:06Z</time>
      </trkpt>
      <trkpt lat="43.18154" lon="0.12783">
        <ele>405</ele>
        <time>2018-09-30T07:40:07Z</time>
      </trkpt>
      <trkpt lat="43.18154" lon="0.12782">
        <ele>405</ele>
        <time>2018-09-30T07:40:08Z</time>
      </trkpt>
      <trkpt lat="43.18153" lon="0.12781">
        <ele>405</ele>
        <time>2018-09-30T07:40:09Z</time>
      </trkpt>
      <trkpt lat="43.18152" lon="0.1278">
        <ele>405</ele>
        <time>2018-09-30T07:40:10Z</time>
      </trkpt>
      <trkpt lat="43.1815" lon="0.12778">
        <ele>405</ele>
        <time>2018-09-30T07:40:11Z</time>
      </trkpt>
      <trkpt lat="43.18148" lon="0.12777">
        <ele>405</ele>
        <time>2018-09-30T07:40:12Z</time>
      </trkpt>
      <trkpt lat="43.18147" lon="0.12776">
        <ele>404</ele>
        <time>2018-09-30T07:40:13Z</time>
      </trkpt>
      <trkpt lat="43.18145" lon="0.12776">
        <ele>404</ele>
        <time>2018-09-30T07:40:14Z</time>
      </trkpt>
      <trkpt lat="43.18144" lon="0.12775">
        <ele>404</ele>
        <time>2018-09-30T07:40:15Z</time>
      </trkpt>
      <trkpt lat="43.18142" lon="0.12774">
        <ele>404</ele>
        <time>2018-09-30T07:40:16Z</time>
      </trkpt>
      <trkpt lat="43.18141" lon="0.12773">
        <ele>404</ele>
        <time>2018-09-30T07:40:17Z</time>
      </trkpt>
      <trkpt lat="43.1814" lon="0.12773">
        <ele>404</ele>
        <time>2018-09-30T07:40:18Z</time>
      </trkpt>
      <trkpt lat="43.18139" lon="0.12772">
        <ele>404</ele>
        <time>2018-09-30T07:40:19Z</time>
      </trkpt>
      <trkpt lat="43.18139" lon="0.12772">
        <ele>404</ele>
        <time>2018-09-30T07:40:20Z</time>
      </trkpt>
      <trkpt lat="43.18138" lon="0.12772">
        <ele>404</ele>
        <time>2018-09-30T07:40:21Z</time>
      </trkpt>
      <trkpt lat="43.18138" lon="0.12771">
        <ele>404</ele>
        <time>2018-09-30T07:40:22Z</time>
      </trkpt>
      <trkpt lat="43.18137" lon="0.12772">
        <ele>404</ele>
        <time>2018-09-30T07:40:23Z</time>
      </trkpt>
      <trkpt lat="43.18137" lon="0.12772">
        <ele>404</ele>
        <time>2018-09-30T07:40:24Z</time>
      </trkpt>
      <trkpt lat="43.18136" lon="0.12772">
        <ele>404</ele>
        <time>2018-09-30T07:40:25Z</time>
      </trkpt>
      <trkpt lat="43.18136" lon="0.12773">
        <ele>404</ele>
        <time>2018-09-30T07:40:26Z</time>
      </trkpt>
      <trkpt lat="43.18136" lon="0.12774">
        <ele>404</ele>
        <time>2018-09-30T07:40:27Z</time>
      </trkpt>
      <trkpt lat="43.18136" lon="0.12776">
        <ele>404</ele>
        <time>2018-09-30T07:40:28Z</time>
      </trkpt>
      <trkpt lat="43.18136" lon="0.12778">
        <ele>404</ele>
        <time>2018-09-30T07:40:29Z</time>
      </trkpt>
      <trkpt lat="43.18136" lon="0.1278">
        <ele>404</ele>
        <time>2018-09-30T07:40:30Z</time>
      </trkpt>
      <trkpt lat="43.18136" lon="0.12783">
        <ele>404</ele>
        <time>2018-09-30T07:40:31Z</time>
      </trkpt>
      <trkpt lat="43.18136" lon="0.12784">
        <ele>403</ele>
        <time>2018-09-30T07:40:32Z</time>
      </trkpt>
      <trkpt lat="43.18136" lon="0.12787">
        <ele>403</ele>
        <time>2018-09-30T07:40:33Z</time>
      </trkpt>
      <trkpt lat="43.18136" lon="0.12789">
        <ele>403</ele>
        <time>2018-09-30T07:40:34Z</time>
      </trkpt>
      <trkpt lat="43.18136" lon="0.12791">
        <ele>403</ele>
        <time>2018-09-30T07:40:35Z</time>
      </trkpt>
      <trkpt lat="43.18137" lon="0.12794">
        <ele>403</ele>
        <time>2018-09-30T07:40:36Z</time>
      </trkpt>
      <trkpt lat="43.18137" lon="0.12797">
        <ele>403</ele>
        <time>2018-09-30T07:40:37Z</time>
      </trkpt>
      <trkpt lat="43.18138" lon="0.128">
        <ele>403</ele>
        <time>2018-09-30T07:40:38Z</time>
      </trkpt>
      <trkpt lat="43.18139" lon="0.12802">
        <ele>403</ele>
        <time>2018-09-30T07:40:39Z</time>
      </trkpt>
      <trkpt lat="43.1814" lon="0.12805">
        <ele>403</ele>
        <time>2018-09-30T07:40:40Z</time>
      </trkpt>
      <trkpt lat="43.1814" lon="0.12807">
        <ele>403</ele>
        <time>2018-09-30T07:40:41Z</time>
      </trkpt>
      <trkpt lat="43.18141" lon="0.1281">
        <ele>403</ele>
        <time>2018-09-30T07:40:42Z</time>
      </trkpt>
      <trkpt lat="43.18141" lon="0.12814">
        <ele>401</ele>
        <time>2018-09-30T07:40:43Z</time>
      </trkpt>
      <trkpt lat="43.18142" lon="0.12817">
        <ele>401</ele>
        <time>2018-09-30T07:40:44Z</time>
      </trkpt>
      <trkpt lat="43.18143" lon="0.1282">
        <ele>400</ele>
        <time>2018-09-30T07:40:45Z</time>
      </trkpt>
      <trkpt lat="43.18143" lon="0.12824">
        <ele>400</ele>
        <time>2018-09-30T07:40:46Z</time>
      </trkpt>
      <trkpt lat="43.18144" lon="0.12828">
        <ele>400</ele>
        <time>2018-09-30T07:40:47Z</time>
      </trkpt>
      <trkpt lat="43.18145" lon="0.12832">
        <ele>400</ele>
        <time>2018-09-30T07:40:48Z</time>
      </trkpt>
      <trkpt lat="43.18146" lon="0.12835">
        <ele>399</ele>
        <time>2018-09-30T07:40:49Z</time>
      </trkpt>
      <trkpt lat="43.18146" lon="0.12838">
        <ele>399</ele>
        <time>2018-09-30T07:40:50Z</time>
      </trkpt>
      <trkpt lat="43.18147" lon="0.12843">
        <ele>399</ele>
        <time>2018-09-30T07:40:51Z</time>
      </trkpt>
      <trkpt lat="43.18148" lon="0.12846">
        <ele>399</ele>
        <time>2018-09-30T07:40:52Z</time>
      </trkpt>
      <trkpt lat="43.18149" lon="0.1285">
        <ele>399</ele>
        <time>2018-09-30T07:40:53Z</time>
      </trkpt>
      <trkpt lat="43.1815" lon="0.12854">
        <ele>397</ele>
        <time>2018-09-30T07:40:54Z</time>
      </trkpt>
      <trkpt lat="43.18151" lon="0.12858">
        <ele>397</ele>
        <time>2018-09-30T07:40:55Z</time>
      </trkpt>
      <trkpt lat="43.18151" lon="0.12863">
        <ele>396</ele>
        <time>2018-09-30T07:40:56Z</time>
      </trkpt>
      <trkpt lat="43.18152" lon="0.12868">
        <ele>396</ele>
        <time>2018-09-30T07:40:57Z</time>
      </trkpt>
      <trkpt lat="43.18153" lon="0.12873">
        <ele>396</ele>
        <time>2018-09-30T07:40:58Z</time>
      </trkpt>
      <trkpt lat="43.18155" lon="0.12878">
        <ele>396</ele>
        <time>2018-09-30T07:40:59Z</time>
      </trkpt>
      <trkpt lat="43.18156" lon="0.12882">
        <ele>395</ele>
        <time>2018-09-30T07:41:00Z</time>
      </trkpt>
      <trkpt lat="43.18158" lon="0.12886">
        <ele>395</ele>
        <time>2018-09-30T07:41:01Z</time>
      </trkpt>
      <trkpt lat="43.18159" lon="0.1289">
        <ele>395</ele>
        <time>2018-09-30T07:41:02Z</time>
      </trkpt>
      <trkpt lat="43.1816" lon="0.12894">
        <ele>395</ele>
        <time>2018-09-30T07:41:03Z</time>
      </trkpt>
      <trkpt lat="43.18162" lon="0.12898">
        <ele>395</ele>
        <time>2018-09-30T07:41:04Z</time>
      </trkpt>
      <trkpt lat="43.18164" lon="0.12903">
        <ele>395</ele>
        <time>2018-09-30T07:41:05Z</time>
      </trkpt>
      <trkpt lat="43.18167" lon="0.12909">
        <ele>395</ele>
        <time>2018-09-30T07:41:06Z</time>
      </trkpt>
      <trkpt lat="43.18169" lon="0.12915">
        <ele>395</ele>
        <time>2018-09-30T07:41:07Z</time>
      </trkpt>
      <trkpt lat="43.18172" lon="0.12921">
        <ele>395</ele>
        <time>2018-09-30T07:41:08Z</time>
      </trkpt>
      <trkpt lat="43.18174" lon="0.12926">
        <ele>394</ele>
        <time>2018-09-30T07:41:09Z</time>
      </trkpt>
      <trkpt lat="43.18177" lon="0.12933">
        <ele>393</ele>
        <time>2018-09-30T07:41:10Z</time>
      </trkpt>
      <trkpt lat="43.18181" lon="0.1294">
        <ele>393</ele>
        <time>2018-09-30T07:41:11Z</time>
      </trkpt>
      <trkpt lat="43.18185" lon="0.12947">
        <ele>393</ele>
        <time>2018-09-30T07:41:12Z</time>
      </trkpt>
      <trkpt lat="43.18187" lon="0.12952">
        <ele>393</ele>
        <time>2018-09-30T07:41:13Z</time>
      </trkpt>
      <trkpt lat="43.18189" lon="0.12957">
        <ele>393</ele>
        <time>2018-09-30T07:41:14Z</time>
      </trkpt>
      <trkpt lat="43.18191" lon="0.1296">
        <ele>393</ele>
        <time>2018-09-30T07:41:15Z</time>
      </trkpt>
      <trkpt lat="43.18192" lon="0.12963">
        <ele>393</ele>
        <time>2018-09-30T07:41:16Z</time>
      </trkpt>
      <trkpt lat="43.18193" lon="0.12966">
        <ele>393</ele>
        <time>2018-09-30T07:41:17Z</time>
      </trkpt>
      <trkpt lat="43.18194" lon="0.12969">
        <ele>393</ele>
        <time>2018-09-30T07:41:18Z</time>
      </trkpt>
      <trkpt lat="43.18195" lon="0.12972">
        <ele>393</ele>
        <time>2018-09-30T07:41:19Z</time>
      </trkpt>
      <trkpt lat="43.18196" lon="0.12975">
        <ele>393</ele>
        <time>2018-09-30T07:41:20Z</time>
      </trkpt>
      <trkpt lat="43.18197" lon="0.12978">
        <ele>393</ele>
        <time>2018-09-30T07:41:21Z</time>
      </trkpt>
      <trkpt lat="43.18197" lon="0.12981">
        <ele>393</ele>
        <time>2018-09-30T07:41:22Z</time>
      </trkpt>
      <trkpt lat="43.18198" lon="0.12983">
        <ele>393</ele>
        <time>2018-09-30T07:41:23Z</time>
      </trkpt>
      <trkpt lat="43.18199" lon="0.12987">
        <ele>393</ele>
        <time>2018-09-30T07:41:24Z</time>
      </trkpt>
      <trkpt lat="43.182" lon="0.12991">
        <ele>393</ele>
        <time>2018-09-30T07:41:25Z</time>
      </trkpt>
      <trkpt lat="43.18202" lon="0.12994">
        <ele>393</ele>
        <time>2018-09-30T07:41:26Z</time>
      </trkpt>
      <trkpt lat="43.18203" lon="0.12998">
        <ele>393</ele>
        <time>2018-09-30T07:41:27Z</time>
      </trkpt>
      <trkpt lat="43.18204" lon="0.13">
        <ele>393</ele>
        <time>2018-09-30T07:41:28Z</time>
      </trkpt>
      <trkpt lat="43.18205" lon="0.13003">
        <ele>394</ele>
        <time>2018-09-30T07:41:29Z</time>
      </trkpt>
      <trkpt lat="43.18206" lon="0.13005">
        <ele>394</ele>
        <time>2018-09-30T07:41:30Z</time>
      </trkpt>
      <trkpt lat="43.18207" lon="0.13006">
        <ele>394</ele>
        <time>2018-09-30T07:41:31Z</time>
      </trkpt>
      <trkpt lat="43.18207" lon="0.13009">
        <ele>394</ele>
        <time>2018-09-30T07:41:32Z</time>
      </trkpt>
      <trkpt lat="43.18208" lon="0.13011">
        <ele>394</ele>
        <time>2018-09-30T07:41:33Z</time>
      </trkpt>
      <trkpt lat="43.18208" lon="0.13013">
        <ele>394</ele>
        <time>2018-09-30T07:41:34Z</time>
      </trkpt>
      <trkpt lat="43.18209" lon="0.13016">
        <ele>394</ele>
        <time>2018-09-30T07:41:35Z</time>
      </trkpt>
      <trkpt lat="43.18209" lon="0.13018">
        <ele>395</ele>
        <time>2018-09-30T07:41:36Z</time>
      </trkpt>
      <trkpt lat="43.18209" lon="0.13021">
        <ele>395</ele>
        <time>2018-09-30T07:41:37Z</time>
      </trkpt>
      <trkpt lat="43.1821" lon="0.13023">
        <ele>395</ele>
        <time>2018-09-30T07:41:38Z</time>
      </trkpt>
      <trkpt lat="43.1821" lon="0.13026">
        <ele>395</ele>
        <time>2018-09-30T07:41:39Z</time>
      </trkpt>
      <trkpt lat="43.1821" lon="0.13029">
        <ele>395</ele>
        <time>2018-09-30T07:41:40Z</time>
      </trkpt>
      <trkpt lat="43.1821" lon="0.13033">
        <ele>395</ele>
        <time>2018-09-30T07:41:41Z</time>
      </trkpt>
      <trkpt lat="43.1821" lon="0.13035">
        <ele>395</ele>
        <time>2018-09-30T07:41:42Z</time>
      </trkpt>
      <trkpt lat="43.1821" lon="0.13038">
        <ele>395</ele>
        <time>2018-09-30T07:41:43Z</time>
      </trkpt>
      <trkpt lat="43.1821" lon="0.13041">
        <ele>396</ele>
        <time>2018-09-30T07:41:44Z</time>
      </trkpt>
      <trkpt lat="43.1821" lon="0.13043">
        <ele>396</ele>
        <time>2018-09-30T07:41:45Z</time>
      </trkpt>
      <trkpt lat="43.1821" lon="0.13045">
        <ele>396</ele>
        <time>2018-09-30T07:41:46Z</time>
      </trkpt>
      <trkpt lat="43.1821" lon="0.13047">
        <ele>396</ele>
        <time>2018-09-30T07:41:47Z</time>
      </trkpt>
      <trkpt lat="43.18209" lon="0.1305">
        <ele>396</ele>
        <time>2018-09-30T07:41:48Z</time>
      </trkpt>
      <trkpt lat="43.18209" lon="0.13052">
        <ele>396</ele>
        <time>2018-09-30T07:41:49Z</time>
      </trkpt>
      <trkpt lat="43.18209" lon="0.13054">
        <ele>397</ele>
        <time>2018-09-30T07:41:50Z</time>
      </trkpt>
      <trkpt lat="43.18209" lon="0.13057">
        <ele>397</ele>
        <time>2018-09-30T07:41:51Z</time>
      </trkpt>
      <trkpt lat="43.18208" lon="0.13059">
        <ele>397</ele>
        <time>2018-09-30T07:41:52Z</time>
      </trkpt>
      <trkpt lat="43.18208" lon="0.13062">
        <ele>397</ele>
        <time>2018-09-30T07:41:53Z</time>
      </trkpt>
      <trkpt lat="43.18208" lon="0.13064">
        <ele>397</ele>
        <time>2018-09-30T07:41:54Z</time>
      </trkpt>
      <trkpt lat="43.18207" lon="0.13066">
        <ele>397</ele>
        <time>2018-09-30T07:41:55Z</time>
      </trkpt>
      <trkpt lat="43.18207" lon="0.13068">
        <ele>398</ele>
        <time>2018-09-30T07:41:56Z</time>
      </trkpt>
      <trkpt lat="43.18206" lon="0.13069">
        <ele>398</ele>
        <time>2018-09-30T07:41:57Z</time>
      </trkpt>
      <trkpt lat="43.18206" lon="0.1307">
        <ele>398</ele>
        <time>2018-09-30T07:41:58Z</time>
      </trkpt>
      <trkpt lat="43.18205" lon="0.13072">
        <ele>398</ele>
        <time>2018-09-30T07:41:59Z</time>
      </trkpt>
      <trkpt lat="43.18204" lon="0.13074">
        <ele>398</ele>
        <time>2018-09-30T07:42:00Z</time>
      </trkpt>
      <trkpt lat="43.18204" lon="0.13075">
        <ele>399</ele>
        <time>2018-09-30T07:42:01Z</time>
      </trkpt>
      <trkpt lat="43.18203" lon="0.13077">
        <ele>402</ele>
        <time>2018-09-30T07:42:02Z</time>
      </trkpt>
      <trkpt lat="43.18202" lon="0.13078">
        <ele>404</ele>
        <time>2018-09-30T07:42:03Z</time>
      </trkpt>
      <trkpt lat="43.18202" lon="0.13079">
        <ele>404</ele>
        <time>2018-09-30T07:42:04Z</time>
      </trkpt>
      <trkpt lat="43.18202" lon="0.13081">
        <ele>405</ele>
        <time>2018-09-30T07:42:05Z</time>
      </trkpt>
      <trkpt lat="43.18201" lon="0.13083">
        <ele>405</ele>
        <time>2018-09-30T07:42:06Z</time>
      </trkpt>
      <trkpt lat="43.18201" lon="0.13084">
        <ele>405</ele>
        <time>2018-09-30T07:42:07Z</time>
      </trkpt>
      <trkpt lat="43.18201" lon="0.13085">
        <ele>406</ele>
        <time>2018-09-30T07:42:08Z</time>
      </trkpt>
      <trkpt lat="43.182" lon="0.13086">
        <ele>406</ele>
        <time>2018-09-30T07:42:09Z</time>
      </trkpt>
      <trkpt lat="43.182" lon="0.13087">
        <ele>406</ele>
        <time>2018-09-30T07:42:10Z</time>
      </trkpt>
      <trkpt lat="43.182" lon="0.13088">
        <ele>407</ele>
        <time>2018-09-30T07:42:11Z</time>
      </trkpt>
      <trkpt lat="43.18199" lon="0.1309">
        <ele>407</ele>
        <time>2018-09-30T07:42:12Z</time>
      </trkpt>
      <trkpt lat="43.18199" lon="0.13091">
        <ele>407</ele>
        <time>2018-09-30T07:42:13Z</time>
      </trkpt>
      <trkpt lat="43.18199" lon="0.13092">
        <ele>407</ele>
        <time>2018-09-30T07:42:14Z</time>
      </trkpt>
      <trkpt lat="43.18199" lon="0.13093">
        <ele>407</ele>
        <time>2018-09-30T07:42:15Z</time>
      </trkpt>
      <trkpt lat="43.18198" lon="0.13095">
        <ele>408</ele>
        <time>2018-09-30T07:42:16Z</time>
      </trkpt>
      <trkpt lat="43.18198" lon="0.13097">
        <ele>408</ele>
        <time>2018-09-30T07:42:17Z</time>
      </trkpt>
      <trkpt lat="43.18197" lon="0.13098">
        <ele>408</ele>
        <time>2018-09-30T07:42:18Z</time>
      </trkpt>
      <trkpt lat="43.18197" lon="0.131">
        <ele>408</ele>
        <time>2018-09-30T07:42:19Z</time>
      </trkpt>
      <trkpt lat="43.18196" lon="0.13101">
        <ele>408</ele>
        <time>2018-09-30T07:42:20Z</time>
      </trkpt>
      <trkpt lat="43.18196" lon="0.13103">
        <ele>409</ele>
        <time>2018-09-30T07:42:21Z</time>
      </trkpt>
      <trkpt lat="43.18195" lon="0.13104">
        <ele>409</ele>
        <time>2018-09-30T07:42:22Z</time>
      </trkpt>
      <trkpt lat="43.18195" lon="0.13106">
        <ele>409</ele>
        <time>2018-09-30T07:42:23Z</time>
      </trkpt>
      <trkpt lat="43.18195" lon="0.13107">
        <ele>409</ele>
        <time>2018-09-30T07:42:24Z</time>
      </trkpt>
      <trkpt lat="43.18195" lon="0.13109">
        <ele>409</ele>
        <time>2018-09-30T07:42:25Z</time>
      </trkpt>
      <trkpt lat="43.18194" lon="0.13111">
        <ele>410</ele>
        <time>2018-09-30T07:42:26Z</time>
      </trkpt>
      <trkpt lat="43.18194" lon="0.13113">
        <ele>410</ele>
        <time>2018-09-30T07:42:27Z</time>
      </trkpt>
      <trkpt lat="43.18194" lon="0.13115">
        <ele>412</ele>
        <time>2018-09-30T07:42:28Z</time>
      </trkpt>
      <trkpt lat="43.18195" lon="0.13117">
        <ele>413</ele>
        <time>2018-09-30T07:42:29Z</time>
      </trkpt>
      <trkpt lat="43.18195" lon="0.13118">
        <ele>414</ele>
        <time>2018-09-30T07:42:30Z</time>
      </trkpt>
      <trkpt lat="43.18195" lon="0.1312">
        <ele>414</ele>
        <time>2018-09-30T07:42:31Z</time>
      </trkpt>
      <trkpt lat="43.18195" lon="0.13124">
        <ele>414</ele>
        <time>2018-09-30T07:42:32Z</time>
      </trkpt>
      <trkpt lat="43.18196" lon="0.13126">
        <ele>414</ele>
        <time>2018-09-30T07:42:33Z</time>
      </trkpt>
      <trkpt lat="43.18196" lon="0.13128">
        <ele>415</ele>
        <time>2018-09-30T07:42:34Z</time>
      </trkpt>
      <trkpt lat="43.18196" lon="0.1313">
        <ele>415</ele>
        <time>2018-09-30T07:42:35Z</time>
      </trkpt>
      <trkpt lat="43.18197" lon="0.13132">
        <ele>415</ele>
        <time>2018-09-30T07:42:36Z</time>
      </trkpt>
      <trkpt lat="43.18197" lon="0.13134">
        <ele>415</ele>
        <time>2018-09-30T07:42:37Z</time>
      </trkpt>
      <trkpt lat="43.18196" lon="0.13136">
        <ele>415</ele>
        <time>2018-09-30T07:42:38Z</time>
      </trkpt>
      <trkpt lat="43.18196" lon="0.13138">
        <ele>415</ele>
        <time>2018-09-30T07:42:39Z</time>
      </trkpt>
      <trkpt lat="43.18196" lon="0.1314">
        <ele>415</ele>
        <time>2018-09-30T07:42:40Z</time>
      </trkpt>
      <trkpt lat="43.18196" lon="0.13143">
        <ele>416</ele>
        <time>2018-09-30T07:42:41Z</time>
      </trkpt>
      <trkpt lat="43.18196" lon="0.13145">
        <ele>416</ele>
        <time>2018-09-30T07:42:42Z</time>
      </trkpt>
      <trkpt lat="43.18196" lon="0.13147">
        <ele>416</ele>
        <time>2018-09-30T07:42:43Z</time>
      </trkpt>
      <trkpt lat="43.18196" lon="0.13149">
        <ele>416</ele>
        <time>2018-09-30T07:42:44Z</time>
      </trkpt>
      <trkpt lat="43.18196" lon="0.1315">
        <ele>416</ele>
        <time>2018-09-30T07:42:45Z</time>
      </trkpt>
      <trkpt lat="43.18195" lon="0.13152">
        <ele>416</ele>
        <time>2018-09-30T07:42:46Z</time>
      </trkpt>
      <trkpt lat="43.18195" lon="0.13154">
        <ele>416</ele>
        <time>2018-09-30T07:42:47Z</time>
      </trkpt>
      <trkpt lat="43.18195" lon="0.13157">
        <ele>417</ele>
        <time>2018-09-30T07:42:48Z</time>
      </trkpt>
      <trkpt lat="43.18194" lon="0.13159">
        <ele>418</ele>
        <time>2018-09-30T07:42:49Z</time>
      </trkpt>
      <trkpt lat="43.18194" lon="0.13162">
        <ele>418</ele>
        <time>2018-09-30T07:42:50Z</time>
      </trkpt>
      <trkpt lat="43.18194" lon="0.13164">
        <ele>418</ele>
        <time>2018-09-30T07:42:51Z</time>
      </trkpt>
      <trkpt lat="43.18193" lon="0.13166">
        <ele>418</ele>
        <time>2018-09-30T07:42:52Z</time>
      </trkpt>
      <trkpt lat="43.18193" lon="0.13168">
        <ele>419</ele>
        <time>2018-09-30T07:42:53Z</time>
      </trkpt>
      <trkpt lat="43.18192" lon="0.13171">
        <ele>419</ele>
        <time>2018-09-30T07:42:54Z</time>
      </trkpt>
      <trkpt lat="43.18191" lon="0.13173">
        <ele>419</ele>
        <time>2018-09-30T07:42:55Z</time>
      </trkpt>
      <trkpt lat="43.18191" lon="0.13175">
        <ele>419</ele>
        <time>2018-09-30T07:42:56Z</time>
      </trkpt>
      <trkpt lat="43.1819" lon="0.13177">
        <ele>419</ele>
        <time>2018-09-30T07:42:57Z</time>
      </trkpt>
      <trkpt lat="43.1819" lon="0.13178">
        <ele>419</ele>
        <time>2018-09-30T07:42:58Z</time>
      </trkpt>
      <trkpt lat="43.1819" lon="0.13179">
        <ele>419</ele>
        <time>2018-09-30T07:42:59Z</time>
      </trkpt>
      <trkpt lat="43.1819" lon="0.1318">
        <ele>419</ele>
        <time>2018-09-30T07:43:00Z</time>
      </trkpt>
      <trkpt lat="43.18189" lon="0.13183">
        <ele>419</ele>
        <time>2018-09-30T07:43:01Z</time>
      </trkpt>
      <trkpt lat="43.18189" lon="0.13185">
        <ele>420</ele>
        <time>2018-09-30T07:43:02Z</time>
      </trkpt>
      <trkpt lat="43.18189" lon="0.13188">
        <ele>420</ele>
        <time>2018-09-30T07:43:03Z</time>
      </trkpt>
      <trkpt lat="43.18189" lon="0.13189">
        <ele>420</ele>
        <time>2018-09-30T07:43:04Z</time>
      </trkpt>
      <trkpt lat="43.18189" lon="0.13191">
        <ele>420</ele>
        <time>2018-09-30T07:43:05Z</time>
      </trkpt>
      <trkpt lat="43.18188" lon="0.13193">
        <ele>420</ele>
        <time>2018-09-30T07:43:06Z</time>
      </trkpt>
      <trkpt lat="43.18188" lon="0.13194">
        <ele>420</ele>
        <time>2018-09-30T07:43:07Z</time>
      </trkpt>
      <trkpt lat="43.18187" lon="0.13195">
        <ele>421</ele>
        <time>2018-09-30T07:43:08Z</time>
      </trkpt>
      <trkpt lat="43.18187" lon="0.13198">
        <ele>422</ele>
        <time>2018-09-30T07:43:09Z</time>
      </trkpt>
      <trkpt lat="43.18187" lon="0.13201">
        <ele>422</ele>
        <time>2018-09-30T07:43:10Z</time>
      </trkpt>
      <trkpt lat="43.18187" lon="0.13204">
        <ele>422</ele>
        <time>2018-09-30T07:43:11Z</time>
      </trkpt>
      <trkpt lat="43.18187" lon="0.13206">
        <ele>423</ele>
        <time>2018-09-30T07:43:12Z</time>
      </trkpt>
      <trkpt lat="43.18187" lon="0.13209">
        <ele>423</ele>
        <time>2018-09-30T07:43:13Z</time>
      </trkpt>
      <trkpt lat="43.18187" lon="0.13211">
        <ele>423</ele>
        <time>2018-09-30T07:43:14Z</time>
      </trkpt>
      <trkpt lat="43.18188" lon="0.13213">
        <ele>423</ele>
        <time>2018-09-30T07:43:15Z</time>
      </trkpt>
      <trkpt lat="43.18189" lon="0.13216">
        <ele>423</ele>
        <time>2018-09-30T07:43:16Z</time>
      </trkpt>
      <trkpt lat="43.1819" lon="0.13218">
        <ele>423</ele>
        <time>2018-09-30T07:43:17Z</time>
      </trkpt>
      <trkpt lat="43.1819" lon="0.1322">
        <ele>423</ele>
        <time>2018-09-30T07:43:18Z</time>
      </trkpt>
      <trkpt lat="43.18191" lon="0.13222">
        <ele>424</ele>
        <time>2018-09-30T07:43:19Z</time>
      </trkpt>
      <trkpt lat="43.18191" lon="0.13225">
        <ele>424</ele>
        <time>2018-09-30T07:43:20Z</time>
      </trkpt>
      <trkpt lat="43.18191" lon="0.13228">
        <ele>424</ele>
        <time>2018-09-30T07:43:21Z</time>
      </trkpt>
      <trkpt lat="43.18191" lon="0.13231">
        <ele>424</ele>
        <time>2018-09-30T07:43:22Z</time>
      </trkpt>
      <trkpt lat="43.18191" lon="0.13234">
        <ele>424</ele>
        <time>2018-09-30T07:43:23Z</time>
      </trkpt>
      <trkpt lat="43.18192" lon="0.13238">
        <ele>425</ele>
        <time>2018-09-30T07:43:24Z</time>
      </trkpt>
      <trkpt lat="43.18193" lon="0.1324">
        <ele>426</ele>
        <time>2018-09-30T07:43:25Z</time>
      </trkpt>
      <trkpt lat="43.18194" lon="0.13243">
        <ele>426</ele>
        <time>2018-09-30T07:43:26Z</time>
      </trkpt>
      <trkpt lat="43.18195" lon="0.13246">
        <ele>426</ele>
        <time>2018-09-30T07:43:27Z</time>
      </trkpt>
      <trkpt lat="43.18196" lon="0.13249">
        <ele>427</ele>
        <time>2018-09-30T07:43:28Z</time>
      </trkpt>
      <trkpt lat="43.18197" lon="0.13251">
        <ele>427</ele>
        <time>2018-09-30T07:43:29Z</time>
      </trkpt>
      <trkpt lat="43.18197" lon="0.13254">
        <ele>427</ele>
        <time>2018-09-30T07:43:30Z</time>
      </trkpt>
      <trkpt lat="43.18198" lon="0.13255">
        <ele>427</ele>
        <time>2018-09-30T07:43:31Z</time>
      </trkpt>
      <trkpt lat="43.18199" lon="0.13257">
        <ele>428</ele>
        <time>2018-09-30T07:43:32Z</time>
      </trkpt>
      <trkpt lat="43.18201" lon="0.1326">
        <ele>428</ele>
        <time>2018-09-30T07:43:33Z</time>
      </trkpt>
      <trkpt lat="43.18202" lon="0.13262">
        <ele>429</ele>
        <time>2018-09-30T07:43:34Z</time>
      </trkpt>
      <trkpt lat="43.18203" lon="0.13265">
        <ele>429</ele>
        <time>2018-09-30T07:43:35Z</time>
      </trkpt>
      <trkpt lat="43.18204" lon="0.13269">
        <ele>430</ele>
        <time>2018-09-30T07:43:36Z</time>
      </trkpt>
      <trkpt lat="43.18205" lon="0.13271">
        <ele>430</ele>
        <time>2018-09-30T07:43:37Z</time>
      </trkpt>
      <trkpt lat="43.18206" lon="0.13273">
        <ele>430</ele>
        <time>2018-09-30T07:43:38Z</time>
      </trkpt>
      <trkpt lat="43.18207" lon="0.13276">
        <ele>431</ele>
        <time>2018-09-30T07:43:39Z</time>
      </trkpt>
      <trkpt lat="43.18209" lon="0.13278">
        <ele>431</ele>
        <time>2018-09-30T07:43:40Z</time>
      </trkpt>
      <trkpt lat="43.1821" lon="0.13281">
        <ele>431</ele>
        <time>2018-09-30T07:43:41Z</time>
      </trkpt>
      <trkpt lat="43.18212" lon="0.13283">
        <ele>432</ele>
        <time>2018-09-30T07:43:42Z</time>
      </trkpt>
      <trkpt lat="43.18212" lon="0.13285">
        <ele>432</ele>
        <time>2018-09-30T07:43:43Z</time>
      </trkpt>
      <trkpt lat="43.18213" lon="0.13287">
        <ele>432</ele>
        <time>2018-09-30T07:43:44Z</time>
      </trkpt>
      <trkpt lat="43.18214" lon="0.13289">
        <ele>433</ele>
        <time>2018-09-30T07:43:45Z</time>
      </trkpt>
      <trkpt lat="43.18215" lon="0.13292">
        <ele>433</ele>
        <time>2018-09-30T07:43:46Z</time>
      </trkpt>
      <trkpt lat="43.18216" lon="0.13295">
        <ele>433</ele>
        <time>2018-09-30T07:43:47Z</time>
      </trkpt>
      <trkpt lat="43.18217" lon="0.13297">
        <ele>434</ele>
        <time>2018-09-30T07:43:48Z</time>
      </trkpt>
      <trkpt lat="43.18217" lon="0.133">
        <ele>434</ele>
        <time>2018-09-30T07:43:49Z</time>
      </trkpt>
      <trkpt lat="43.18217" lon="0.13303">
        <ele>434</ele>
        <time>2018-09-30T07:43:50Z</time>
      </trkpt>
      <trkpt lat="43.18218" lon="0.13306">
        <ele>435</ele>
        <time>2018-09-30T07:43:51Z</time>
      </trkpt>
      <trkpt lat="43.18219" lon="0.13308">
        <ele>435</ele>
        <time>2018-09-30T07:43:52Z</time>
      </trkpt>
      <trkpt lat="43.18219" lon="0.13311">
        <ele>435</ele>
        <time>2018-09-30T07:43:53Z</time>
      </trkpt>
      <trkpt lat="43.18218" lon="0.13313">
        <ele>436</ele>
        <time>2018-09-30T07:43:54Z</time>
      </trkpt>
      <trkpt lat="43.18217" lon="0.13314">
        <ele>436</ele>
        <time>2018-09-30T07:43:55Z</time>
      </trkpt>
      <trkpt lat="43.18216" lon="0.13315">
        <ele>436</ele>
        <time>2018-09-30T07:43:56Z</time>
      </trkpt>
      <trkpt lat="43.18214" lon="0.13316">
        <ele>437</ele>
        <time>2018-09-30T07:43:57Z</time>
      </trkpt>
      <trkpt lat="43.18213" lon="0.13317">
        <ele>437</ele>
        <time>2018-09-30T07:43:58Z</time>
      </trkpt>
      <trkpt lat="43.18211" lon="0.13318">
        <ele>437</ele>
        <time>2018-09-30T07:43:59Z</time>
      </trkpt>
      <trkpt lat="43.18209" lon="0.13318">
        <ele>438</ele>
        <time>2018-09-30T07:44:00Z</time>
      </trkpt>
      <trkpt lat="43.18207" lon="0.1332">
        <ele>438</ele>
        <time>2018-09-30T07:44:01Z</time>
      </trkpt>
      <trkpt lat="43.18205" lon="0.1332">
        <ele>439</ele>
        <time>2018-09-30T07:44:02Z</time>
      </trkpt>
      <trkpt lat="43.18202" lon="0.1332">
        <ele>439</ele>
        <time>2018-09-30T07:44:03Z</time>
      </trkpt>
      <trkpt lat="43.182" lon="0.1332">
        <ele>440</ele>
        <time>2018-09-30T07:44:04Z</time>
      </trkpt>
      <trkpt lat="43.18197" lon="0.1332">
        <ele>440</ele>
        <time>2018-09-30T07:44:05Z</time>
      </trkpt>
      <trkpt lat="43.18195" lon="0.1332">
        <ele>440</ele>
        <time>2018-09-30T07:44:06Z</time>
      </trkpt>
      <trkpt lat="43.18192" lon="0.13321">
        <ele>441</ele>
        <time>2018-09-30T07:44:07Z</time>
      </trkpt>
      <trkpt lat="43.18189" lon="0.13321">
        <ele>441</ele>
        <time>2018-09-30T07:44:08Z</time>
      </trkpt>
      <trkpt lat="43.18186" lon="0.1332">
        <ele>442</ele>
        <time>2018-09-30T07:44:09Z</time>
      </trkpt>
      <trkpt lat="43.18183" lon="0.1332">
        <ele>442</ele>
        <time>2018-09-30T07:44:10Z</time>
      </trkpt>
      <trkpt lat="43.18179" lon="0.13319">
        <ele>443</ele>
        <time>2018-09-30T07:44:11Z</time>
      </trkpt>
      <trkpt lat="43.18176" lon="0.13319">
        <ele>443</ele>
        <time>2018-09-30T07:44:12Z</time>
      </trkpt>
      <trkpt lat="43.18172" lon="0.13319">
        <ele>444</ele>
        <time>2018-09-30T07:44:13Z</time>
      </trkpt>
      <trkpt lat="43.18168" lon="0.13319">
        <ele>444</ele>
        <time>2018-09-30T07:44:14Z</time>
      </trkpt>
      <trkpt lat="43.18164" lon="0.1332">
        <ele>445</ele>
        <time>2018-09-30T07:44:15Z</time>
      </trkpt>
      <trkpt lat="43.18161" lon="0.13318">
        <ele>445</ele>
        <time>2018-09-30T07:44:16Z</time>
      </trkpt>
      <trkpt lat="43.18157" lon="0.13318">
        <ele>445</ele>
        <time>2018-09-30T07:44:17Z</time>
      </trkpt>
      <trkpt lat="43.18155" lon="0.13318">
        <ele>446</ele>
        <time>2018-09-30T07:44:18Z</time>
      </trkpt>
      <trkpt lat="43.18152" lon="0.13318">
        <ele>446</ele>
        <time>2018-09-30T07:44:19Z</time>
      </trkpt>
      <trkpt lat="43.1815" lon="0.13318">
        <ele>446</ele>
        <time>2018-09-30T07:44:20Z</time>
      </trkpt>
      <trkpt lat="43.18144" lon="0.13316">
        <ele>447</ele>
        <time>2018-09-30T07:44:21Z</time>
      </trkpt>
      <trkpt lat="43.18139" lon="0.13315">
        <ele>448</ele>
        <time>2018-09-30T07:44:22Z</time>
      </trkpt>
      <trkpt lat="43.18136" lon="0.13315">
        <ele>448</ele>
        <time>2018-09-30T07:44:23Z</time>
      </trkpt>
      <trkpt lat="43.18132" lon="0.13314">
        <ele>449</ele>
        <time>2018-09-30T07:44:24Z</time>
      </trkpt>
      <trkpt lat="43.18129" lon="0.13313">
        <ele>449</ele>
        <time>2018-09-30T07:44:25Z</time>
      </trkpt>
      <trkpt lat="43.18125" lon="0.1331">
        <ele>450</ele>
        <time>2018-09-30T07:44:26Z</time>
      </trkpt>
      <trkpt lat="43.18123" lon="0.13309">
        <ele>450</ele>
        <time>2018-09-30T07:44:27Z</time>
      </trkpt>
      <trkpt lat="43.18118" lon="0.13309">
        <ele>451</ele>
        <time>2018-09-30T07:44:28Z</time>
      </trkpt>
      <trkpt lat="43.18114" lon="0.13308">
        <ele>451</ele>
        <time>2018-09-30T07:44:29Z</time>
      </trkpt>
      <trkpt lat="43.18109" lon="0.13307">
        <ele>452</ele>
        <time>2018-09-30T07:44:30Z</time>
      </trkpt>
      <trkpt lat="43.18105" lon="0.13307">
        <ele>452</ele>
        <time>2018-09-30T07:44:31Z</time>
      </trkpt>
      <trkpt lat="43.181" lon="0.13305">
        <ele>453</ele>
        <time>2018-09-30T07:44:32Z</time>
      </trkpt>
      <trkpt lat="43.18096" lon="0.13304">
        <ele>453</ele>
        <time>2018-09-30T07:44:33Z</time>
      </trkpt>
      <trkpt lat="43.18092" lon="0.133">
        <ele>453</ele>
        <time>2018-09-30T07:44:34Z</time>
      </trkpt>
      <trkpt lat="43.18087" lon="0.13298">
        <ele>454</ele>
        <time>2018-09-30T07:44:35Z</time>
      </trkpt>
      <trkpt lat="43.18083" lon="0.13295">
        <ele>454</ele>
        <time>2018-09-30T07:44:36Z</time>
      </trkpt>
      <trkpt lat="43.18079" lon="0.13293">
        <ele>454</ele>
        <time>2018-09-30T07:44:37Z</time>
      </trkpt>
      <trkpt lat="43.18076" lon="0.13291">
        <ele>455</ele>
        <time>2018-09-30T07:44:38Z</time>
      </trkpt>
      <trkpt lat="43.18072" lon="0.13288">
        <ele>455</ele>
        <time>2018-09-30T07:44:39Z</time>
      </trkpt>
      <trkpt lat="43.18068" lon="0.13285">
        <ele>455</ele>
        <time>2018-09-30T07:44:40Z</time>
      </trkpt>
      <trkpt lat="43.18063" lon="0.13282">
        <ele>456</ele>
        <time>2018-09-30T07:44:41Z</time>
      </trkpt>
      <trkpt lat="43.18059" lon="0.1328">
        <ele>456</ele>
        <time>2018-09-30T07:44:42Z</time>
      </trkpt>
      <trkpt lat="43.18055" lon="0.13278">
        <ele>456</ele>
        <time>2018-09-30T07:44:43Z</time>
      </trkpt>
      <trkpt lat="43.18051" lon="0.13277">
        <ele>457</ele>
        <time>2018-09-30T07:44:44Z</time>
      </trkpt>
      <trkpt lat="43.18045" lon="0.13274">
        <ele>457</ele>
        <time>2018-09-30T07:44:45Z</time>
      </trkpt>
      <trkpt lat="43.18041" lon="0.13271">
        <ele>457</ele>
        <time>2018-09-30T07:44:46Z</time>
      </trkpt>
      <trkpt lat="43.18037" lon="0.13267">
        <ele>457</ele>
        <time>2018-09-30T07:44:47Z</time>
      </trkpt>
      <trkpt lat="43.18033" lon="0.13265">
        <ele>458</ele>
        <time>2018-09-30T07:44:48Z</time>
      </trkpt>
      <trkpt lat="43.18029" lon="0.13263">
        <ele>458</ele>
        <time>2018-09-30T07:44:49Z</time>
      </trkpt>
      <trkpt lat="43.18026" lon="0.13261">
        <ele>458</ele>
        <time>2018-09-30T07:44:50Z</time>
      </trkpt>
      <trkpt lat="43.18023" lon="0.1326">
        <ele>458</ele>
        <time>2018-09-30T07:44:51Z</time>
      </trkpt>
      <trkpt lat="43.1802" lon="0.13258">
        <ele>459</ele>
        <time>2018-09-30T07:44:52Z</time>
      </trkpt>
      <trkpt lat="43.18017" lon="0.13255">
        <ele>459</ele>
        <time>2018-09-30T07:44:53Z</time>
      </trkpt>
      <trkpt lat="43.18013" lon="0.13253">
        <ele>459</ele>
        <time>2018-09-30T07:44:54Z</time>
      </trkpt>
      <trkpt lat="43.1801" lon="0.13251">
        <ele>459</ele>
        <time>2018-09-30T07:44:55Z</time>
      </trkpt>
      <trkpt lat="43.18006" lon="0.13249">
        <ele>460</ele>
        <time>2018-09-30T07:44:56Z</time>
      </trkpt>
      <trkpt lat="43.18002" lon="0.13247">
        <ele>460</ele>
        <time>2018-09-30T07:44:57Z</time>
      </trkpt>
      <trkpt lat="43.17998" lon="0.13245">
        <ele>460</ele>
        <time>2018-09-30T07:44:58Z</time>
      </trkpt>
      <trkpt lat="43.17994" lon="0.13243">
        <ele>460</ele>
        <time>2018-09-30T07:44:59Z</time>
      </trkpt>
      <trkpt lat="43.17991" lon="0.13241">
        <ele>461</ele>
        <time>2018-09-30T07:45:00Z</time>
      </trkpt>
      <trkpt lat="43.17987" lon="0.13239">
        <ele>461</ele>
        <time>2018-09-30T07:45:01Z</time>
      </trkpt>
      <trkpt lat="43.17982" lon="0.13238">
        <ele>461</ele>
        <time>2018-09-30T07:45:02Z</time>
      </trkpt>
      <trkpt lat="43.17979" lon="0.13236">
        <ele>462</ele>
        <time>2018-09-30T07:45:03Z</time>
      </trkpt>
      <trkpt lat="43.17975" lon="0.13234">
        <ele>462</ele>
        <time>2018-09-30T07:45:04Z</time>
      </trkpt>
      <trkpt lat="43.17972" lon="0.13233">
        <ele>462</ele>
        <time>2018-09-30T07:45:05Z</time>
      </trkpt>
      <trkpt lat="43.1797" lon="0.13232">
        <ele>463</ele>
        <time>2018-09-30T07:45:06Z</time>
      </trkpt>
      <trkpt lat="43.17967" lon="0.13231">
        <ele>463</ele>
        <time>2018-09-30T07:45:07Z</time>
      </trkpt>
      <trkpt lat="43.17963" lon="0.1323">
        <ele>464</ele>
        <time>2018-09-30T07:45:08Z</time>
      </trkpt>
      <trkpt lat="43.17961" lon="0.1323">
        <ele>464</ele>
        <time>2018-09-30T07:45:09Z</time>
      </trkpt>
      <trkpt lat="43.17958" lon="0.13229">
        <ele>464</ele>
        <time>2018-09-30T07:45:10Z</time>
      </trkpt>
      <trkpt lat="43.17954" lon="0.13229">
        <ele>465</ele>
        <time>2018-09-30T07:45:11Z</time>
      </trkpt>
      <trkpt lat="43.1795" lon="0.13228">
        <ele>465</ele>
        <time>2018-09-30T07:45:12Z</time>
      </trkpt>
      <trkpt lat="43.17946" lon="0.13228">
        <ele>465</ele>
        <time>2018-09-30T07:45:13Z</time>
      </trkpt>
      <trkpt lat="43.17942" lon="0.13227">
        <ele>466</ele>
        <time>2018-09-30T07:45:14Z</time>
      </trkpt>
      <trkpt lat="43.17938" lon="0.13225">
        <ele>468</ele>
        <time>2018-09-30T07:45:15Z</time>
      </trkpt>
      <trkpt lat="43.17933" lon="0.13225">
        <ele>469</ele>
        <time>2018-09-30T07:45:16Z</time>
      </trkpt>
      <trkpt lat="43.17928" lon="0.13224">
        <ele>472</ele>
        <time>2018-09-30T07:45:17Z</time>
      </trkpt>
      <trkpt lat="43.17923" lon="0.13224">
        <ele>473</ele>
        <time>2018-09-30T07:45:18Z</time>
      </trkpt>
      <trkpt lat="43.17917" lon="0.13223">
        <ele>475</ele>
        <time>2018-09-30T07:45:19Z</time>
      </trkpt>
      <trkpt lat="43.17911" lon="0.13223">
        <ele>477</ele>
        <time>2018-09-30T07:45:20Z</time>
      </trkpt>
      <trkpt lat="43.17906" lon="0.13223">
        <ele>478</ele>
        <time>2018-09-30T07:45:21Z</time>
      </trkpt>
      <trkpt lat="43.179" lon="0.13222">
        <ele>479</ele>
        <time>2018-09-30T07:45:22Z</time>
      </trkpt>
      <trkpt lat="43.17893" lon="0.13221">
        <ele>480</ele>
        <time>2018-09-30T07:45:23Z</time>
      </trkpt>
      <trkpt lat="43.17887" lon="0.1322">
        <ele>480</ele>
        <time>2018-09-30T07:45:24Z</time>
      </trkpt>
      <trkpt lat="43.17881" lon="0.1322">
        <ele>481</ele>
        <time>2018-09-30T07:45:25Z</time>
      </trkpt>
      <trkpt lat="43.17874" lon="0.1322">
        <ele>481</ele>
        <time>2018-09-30T07:45:26Z</time>
      </trkpt>
      <trkpt lat="43.17868" lon="0.13219">
        <ele>481</ele>
        <time>2018-09-30T07:45:27Z</time>
      </trkpt>
      <trkpt lat="43.17862" lon="0.13219">
        <ele>480</ele>
        <time>2018-09-30T07:45:28Z</time>
      </trkpt>
      <trkpt lat="43.17856" lon="0.13219">
        <ele>480</ele>
        <time>2018-09-30T07:45:29Z</time>
      </trkpt>
      <trkpt lat="43.1785" lon="0.1322">
        <ele>480</ele>
        <time>2018-09-30T07:45:30Z</time>
      </trkpt>
      <trkpt lat="43.17844" lon="0.13221">
        <ele>480</ele>
        <time>2018-09-30T07:45:31Z</time>
      </trkpt>
      <trkpt lat="43.17838" lon="0.13222">
        <ele>479</ele>
        <time>2018-09-30T07:45:32Z</time>
      </trkpt>
      <trkpt lat="43.17833" lon="0.13223">
        <ele>479</ele>
        <time>2018-09-30T07:45:33Z</time>
      </trkpt>
      <trkpt lat="43.17827" lon="0.13224">
        <ele>479</ele>
        <time>2018-09-30T07:45:34Z</time>
      </trkpt>
      <trkpt lat="43.17822" lon="0.13226">
        <ele>478</ele>
        <time>2018-09-30T07:45:35Z</time>
      </trkpt>
      <trkpt lat="43.17817" lon="0.13227">
        <ele>478</ele>
        <time>2018-09-30T07:45:36Z</time>
      </trkpt>
      <trkpt lat="43.17813" lon="0.1323">
        <ele>477</ele>
        <time>2018-09-30T07:45:37Z</time>
      </trkpt>
      <trkpt lat="43.17809" lon="0.13233">
        <ele>477</ele>
        <time>2018-09-30T07:45:38Z</time>
      </trkpt>
      <trkpt lat="43.17805" lon="0.13236">
        <ele>476</ele>
        <time>2018-09-30T07:45:39Z</time>
      </trkpt>
      <trkpt lat="43.17801" lon="0.1324">
        <ele>476</ele>
        <time>2018-09-30T07:45:40Z</time>
      </trkpt>
      <trkpt lat="43.17798" lon="0.13245">
        <ele>475</ele>
        <time>2018-09-30T07:45:41Z</time>
      </trkpt>
      <trkpt lat="43.17794" lon="0.1325">
        <ele>475</ele>
        <time>2018-09-30T07:45:42Z</time>
      </trkpt>
      <trkpt lat="43.17791" lon="0.13254">
        <ele>475</ele>
        <time>2018-09-30T07:45:43Z</time>
      </trkpt>
      <trkpt lat="43.17787" lon="0.13258">
        <ele>475</ele>
        <time>2018-09-30T07:45:44Z</time>
      </trkpt>
      <trkpt lat="43.17784" lon="0.13261">
        <ele>475</ele>
        <time>2018-09-30T07:45:45Z</time>
      </trkpt>
      <trkpt lat="43.1778" lon="0.13265">
        <ele>475</ele>
        <time>2018-09-30T07:45:46Z</time>
      </trkpt>
      <trkpt lat="43.17777" lon="0.13267">
        <ele>475</ele>
        <time>2018-09-30T07:45:47Z</time>
      </trkpt>
      <trkpt lat="43.17774" lon="0.13269">
        <ele>475</ele>
        <time>2018-09-30T07:45:48Z</time>
      </trkpt>
      <trkpt lat="43.17772" lon="0.13271">
        <ele>475</ele>
        <time>2018-09-30T07:45:49Z</time>
      </trkpt>
      <trkpt lat="43.17769" lon="0.13272">
        <ele>476</ele>
        <time>2018-09-30T07:45:50Z</time>
      </trkpt>
      <trkpt lat="43.17766" lon="0.13273">
        <ele>476</ele>
        <time>2018-09-30T07:45:51Z</time>
      </trkpt>
      <trkpt lat="43.17764" lon="0.13273">
        <ele>476</ele>
        <time>2018-09-30T07:45:52Z</time>
      </trkpt>
      <trkpt lat="43.17762" lon="0.13274">
        <ele>476</ele>
        <time>2018-09-30T07:45:53Z</time>
      </trkpt>
      <trkpt lat="43.17761" lon="0.13275">
        <ele>476</ele>
        <time>2018-09-30T07:45:54Z</time>
      </trkpt>
      <trkpt lat="43.17759" lon="0.13277">
        <ele>476</ele>
        <time>2018-09-30T07:45:55Z</time>
      </trkpt>
      <trkpt lat="43.17758" lon="0.13279">
        <ele>476</ele>
        <time>2018-09-30T07:45:56Z</time>
      </trkpt>
      <trkpt lat="43.17757" lon="0.13281">
        <ele>476</ele>
        <time>2018-09-30T07:45:57Z</time>
      </trkpt>
      <trkpt lat="43.17755" lon="0.13284">
        <ele>476</ele>
        <time>2018-09-30T07:45:58Z</time>
      </trkpt>
      <trkpt lat="43.17753" lon="0.13288">
        <ele>476</ele>
        <time>2018-09-30T07:45:59Z</time>
      </trkpt>
      <trkpt lat="43.17751" lon="0.13293">
        <ele>476</ele>
        <time>2018-09-30T07:46:00Z</time>
      </trkpt>
      <trkpt lat="43.17749" lon="0.13299">
        <ele>476</ele>
        <time>2018-09-30T07:46:01Z</time>
      </trkpt>
      <trkpt lat="43.17748" lon="0.13304">
        <ele>476</ele>
        <time>2018-09-30T07:46:02Z</time>
      </trkpt>
      <trkpt lat="43.17747" lon="0.13308">
        <ele>476</ele>
        <time>2018-09-30T07:46:03Z</time>
      </trkpt>
      <trkpt lat="43.17746" lon="0.13313">
        <ele>476</ele>
        <time>2018-09-30T07:46:04Z</time>
      </trkpt>
      <trkpt lat="43.17745" lon="0.13317">
        <ele>477</ele>
        <time>2018-09-30T07:46:05Z</time>
      </trkpt>
      <trkpt lat="43.17744" lon="0.13321">
        <ele>477</ele>
        <time>2018-09-30T07:46:06Z</time>
      </trkpt>
      <trkpt lat="43.17743" lon="0.13325">
        <ele>477</ele>
        <time>2018-09-30T07:46:07Z</time>
      </trkpt>
      <trkpt lat="43.17741" lon="0.1333">
        <ele>477</ele>
        <time>2018-09-30T07:46:08Z</time>
      </trkpt>
      <trkpt lat="43.1774" lon="0.13334">
        <ele>478</ele>
        <time>2018-09-30T07:46:09Z</time>
      </trkpt>
      <trkpt lat="43.1774" lon="0.13337">
        <ele>478</ele>
        <time>2018-09-30T07:46:10Z</time>
      </trkpt>
      <trkpt lat="43.17739" lon="0.1334">
        <ele>478</ele>
        <time>2018-09-30T07:46:11Z</time>
      </trkpt>
      <trkpt lat="43.17738" lon="0.13344">
        <ele>478</ele>
        <time>2018-09-30T07:46:12Z</time>
      </trkpt>
      <trkpt lat="43.17737" lon="0.13347">
        <ele>478</ele>
        <time>2018-09-30T07:46:13Z</time>
      </trkpt>
      <trkpt lat="43.17736" lon="0.1335">
        <ele>479</ele>
        <time>2018-09-30T07:46:14Z</time>
      </trkpt>
      <trkpt lat="43.17735" lon="0.13353">
        <ele>479</ele>
        <time>2018-09-30T07:46:15Z</time>
      </trkpt>
      <trkpt lat="43.17733" lon="0.13355">
        <ele>479</ele>
        <time>2018-09-30T07:46:16Z</time>
      </trkpt>
      <trkpt lat="43.17732" lon="0.13358">
        <ele>479</ele>
        <time>2018-09-30T07:46:17Z</time>
      </trkpt>
      <trkpt lat="43.1773" lon="0.1336">
        <ele>480</ele>
        <time>2018-09-30T07:46:18Z</time>
      </trkpt>
      <trkpt lat="43.17728" lon="0.13363">
        <ele>480</ele>
        <time>2018-09-30T07:46:19Z</time>
      </trkpt>
      <trkpt lat="43.17727" lon="0.13366">
        <ele>480</ele>
        <time>2018-09-30T07:46:20Z</time>
      </trkpt>
      <trkpt lat="43.17726" lon="0.13368">
        <ele>481</ele>
        <time>2018-09-30T07:46:21Z</time>
      </trkpt>
      <trkpt lat="43.17725" lon="0.13369">
        <ele>481</ele>
        <time>2018-09-30T07:46:22Z</time>
      </trkpt>
      <trkpt lat="43.17723" lon="0.13371">
        <ele>481</ele>
        <time>2018-09-30T07:46:23Z</time>
      </trkpt>
      <trkpt lat="43.17721" lon="0.13373">
        <ele>481</ele>
        <time>2018-09-30T07:46:24Z</time>
      </trkpt>
      <trkpt lat="43.1772" lon="0.13376">
        <ele>482</ele>
        <time>2018-09-30T07:46:25Z</time>
      </trkpt>
      <trkpt lat="43.17718" lon="0.13379">
        <ele>482</ele>
        <time>2018-09-30T07:46:26Z</time>
      </trkpt>
      <trkpt lat="43.17716" lon="0.13382">
        <ele>482</ele>
        <time>2018-09-30T07:46:27Z</time>
      </trkpt>
      <trkpt lat="43.17714" lon="0.13385">
        <ele>482</ele>
        <time>2018-09-30T07:46:28Z</time>
      </trkpt>
      <trkpt lat="43.17712" lon="0.13388">
        <ele>482</ele>
        <time>2018-09-30T07:46:29Z</time>
      </trkpt>
      <trkpt lat="43.17711" lon="0.13391">
        <ele>483</ele>
        <time>2018-09-30T07:46:30Z</time>
      </trkpt>
      <trkpt lat="43.17709" lon="0.13394">
        <ele>483</ele>
        <time>2018-09-30T07:46:31Z</time>
      </trkpt>
      <trkpt lat="43.17707" lon="0.13397">
        <ele>483</ele>
        <time>2018-09-30T07:46:32Z</time>
      </trkpt>
      <trkpt lat="43.17705" lon="0.13399">
        <ele>483</ele>
        <time>2018-09-30T07:46:33Z</time>
      </trkpt>
      <trkpt lat="43.17704" lon="0.13402">
        <ele>483</ele>
        <time>2018-09-30T07:46:34Z</time>
      </trkpt>
      <trkpt lat="43.17702" lon="0.13404">
        <ele>483</ele>
        <time>2018-09-30T07:46:35Z</time>
      </trkpt>
      <trkpt lat="43.177" lon="0.13407">
        <ele>484</ele>
        <time>2018-09-30T07:46:36Z</time>
      </trkpt>
      <trkpt lat="43.17699" lon="0.13409">
        <ele>484</ele>
        <time>2018-09-30T07:46:37Z</time>
      </trkpt>
      <trkpt lat="43.17697" lon="0.13412">
        <ele>484</ele>
        <time>2018-09-30T07:46:38Z</time>
      </trkpt>
      <trkpt lat="43.17695" lon="0.13414">
        <ele>484</ele>
        <time>2018-09-30T07:46:39Z</time>
      </trkpt>
      <trkpt lat="43.17694" lon="0.13416">
        <ele>484</ele>
        <time>2018-09-30T07:46:40Z</time>
      </trkpt>
      <trkpt lat="43.17693" lon="0.13419">
        <ele>484</ele>
        <time>2018-09-30T07:46:41Z</time>
      </trkpt>
      <trkpt lat="43.17691" lon="0.13422">
        <ele>484</ele>
        <time>2018-09-30T07:46:42Z</time>
      </trkpt>
      <trkpt lat="43.1769" lon="0.13424">
        <ele>484</ele>
        <time>2018-09-30T07:46:43Z</time>
      </trkpt>
      <trkpt lat="43.17688" lon="0.13427">
        <ele>484</ele>
        <time>2018-09-30T07:46:44Z</time>
      </trkpt>
      <trkpt lat="43.17686" lon="0.1343">
        <ele>484</ele>
        <time>2018-09-30T07:46:45Z</time>
      </trkpt>
      <trkpt lat="43.17684" lon="0.13432">
        <ele>485</ele>
        <time>2018-09-30T07:46:46Z</time>
      </trkpt>
      <trkpt lat="43.17683" lon="0.13435">
        <ele>485</ele>
        <time>2018-09-30T07:46:47Z</time>
      </trkpt>
      <trkpt lat="43.17681" lon="0.13437">
        <ele>485</ele>
        <time>2018-09-30T07:46:48Z</time>
      </trkpt>
      <trkpt lat="43.1768" lon="0.13439">
        <ele>485</ele>
        <time>2018-09-30T07:46:49Z</time>
      </trkpt>
      <trkpt lat="43.17678" lon="0.13441">
        <ele>485</ele>
        <time>2018-09-30T07:46:50Z</time>
      </trkpt>
      <trkpt lat="43.17677" lon="0.13444">
        <ele>485</ele>
        <time>2018-09-30T07:46:51Z</time>
      </trkpt>
      <trkpt lat="43.17675" lon="0.13447">
        <ele>485</ele>
        <time>2018-09-30T07:46:52Z</time>
      </trkpt>
      <trkpt lat="43.17674" lon="0.1345">
        <ele>485</ele>
        <time>2018-09-30T07:46:53Z</time>
      </trkpt>
      <trkpt lat="43.17672" lon="0.13453">
        <ele>485</ele>
        <time>2018-09-30T07:46:54Z</time>
      </trkpt>
      <trkpt lat="43.17671" lon="0.13455">
        <ele>485</ele>
        <time>2018-09-30T07:46:55Z</time>
      </trkpt>
      <trkpt lat="43.17669" lon="0.13458">
        <ele>485</ele>
        <time>2018-09-30T07:46:56Z</time>
      </trkpt>
      <trkpt lat="43.17667" lon="0.13459">
        <ele>485</ele>
        <time>2018-09-30T07:46:57Z</time>
      </trkpt>
      <trkpt lat="43.17664" lon="0.1346">
        <ele>485</ele>
        <time>2018-09-30T07:46:58Z</time>
      </trkpt>
      <trkpt lat="43.17662" lon="0.1346">
        <ele>485</ele>
        <time>2018-09-30T07:46:59Z</time>
      </trkpt>
      <trkpt lat="43.1766" lon="0.1346">
        <ele>485</ele>
        <time>2018-09-30T07:47:00Z</time>
      </trkpt>
      <trkpt lat="43.17657" lon="0.13461">
        <ele>485</ele>
        <time>2018-09-30T07:47:01Z</time>
      </trkpt>
      <trkpt lat="43.17655" lon="0.13462">
        <ele>485</ele>
        <time>2018-09-30T07:47:02Z</time>
      </trkpt>
      <trkpt lat="43.17652" lon="0.13464">
        <ele>486</ele>
        <time>2018-09-30T07:47:03Z</time>
      </trkpt>
      <trkpt lat="43.17649" lon="0.13464">
        <ele>486</ele>
        <time>2018-09-30T07:47:04Z</time>
      </trkpt>
      <trkpt lat="43.17647" lon="0.13465">
        <ele>486</ele>
        <time>2018-09-30T07:47:05Z</time>
      </trkpt>
      <trkpt lat="43.17645" lon="0.13465">
        <ele>486</ele>
        <time>2018-09-30T07:47:06Z</time>
      </trkpt>
      <trkpt lat="43.17642" lon="0.13465">
        <ele>486</ele>
        <time>2018-09-30T07:47:07Z</time>
      </trkpt>
      <trkpt lat="43.17639" lon="0.13465">
        <ele>486</ele>
        <time>2018-09-30T07:47:08Z</time>
      </trkpt>
      <trkpt lat="43.17635" lon="0.13465">
        <ele>486</ele>
        <time>2018-09-30T07:47:09Z</time>
      </trkpt>
      <trkpt lat="43.17631" lon="0.13466">
        <ele>486</ele>
        <time>2018-09-30T07:47:10Z</time>
      </trkpt>
      <trkpt lat="43.17627" lon="0.13467">
        <ele>486</ele>
        <time>2018-09-30T07:47:11Z</time>
      </trkpt>
      <trkpt lat="43.17623" lon="0.13468">
        <ele>486</ele>
        <time>2018-09-30T07:47:12Z</time>
      </trkpt>
      <trkpt lat="43.17619" lon="0.1347">
        <ele>487</ele>
        <time>2018-09-30T07:47:13Z</time>
      </trkpt>
      <trkpt lat="43.17614" lon="0.13473">
        <ele>487</ele>
        <time>2018-09-30T07:47:14Z</time>
      </trkpt>
      <trkpt lat="43.1761" lon="0.13474">
        <ele>487</ele>
        <time>2018-09-30T07:47:15Z</time>
      </trkpt>
      <trkpt lat="43.17606" lon="0.13475">
        <ele>487</ele>
        <time>2018-09-30T07:47:16Z</time>
      </trkpt>
      <trkpt lat="43.17601" lon="0.13476">
        <ele>487</ele>
        <time>2018-09-30T07:47:17Z</time>
      </trkpt>
      <trkpt lat="43.17597" lon="0.13476">
        <ele>487</ele>
        <time>2018-09-30T07:47:18Z</time>
      </trkpt>
      <trkpt lat="43.17591" lon="0.1348">
        <ele>488</ele>
        <time>2018-09-30T07:47:19Z</time>
      </trkpt>
      <trkpt lat="43.17585" lon="0.13483">
        <ele>488</ele>
        <time>2018-09-30T07:47:20Z</time>
      </trkpt>
      <trkpt lat="43.1758" lon="0.13481">
        <ele>488</ele>
        <time>2018-09-30T07:47:21Z</time>
      </trkpt>
      <trkpt lat="43.17576" lon="0.1348">
        <ele>488</ele>
        <time>2018-09-30T07:47:22Z</time>
      </trkpt>
      <trkpt lat="43.17572" lon="0.13479">
        <ele>488</ele>
        <time>2018-09-30T07:47:23Z</time>
      </trkpt>
      <trkpt lat="43.17568" lon="0.13477">
        <ele>488</ele>
        <time>2018-09-30T07:47:24Z</time>
      </trkpt>
      <trkpt lat="43.17563" lon="0.13476">
        <ele>488</ele>
        <time>2018-09-30T07:47:25Z</time>
      </trkpt>
      <trkpt lat="43.17559" lon="0.13475">
        <ele>488</ele>
        <time>2018-09-30T07:47:26Z</time>
      </trkpt>
      <trkpt lat="43.17555" lon="0.13473">
        <ele>488</ele>
        <time>2018-09-30T07:47:27Z</time>
      </trkpt>
      <trkpt lat="43.17552" lon="0.1347">
        <ele>489</ele>
        <time>2018-09-30T07:47:28Z</time>
      </trkpt>
      <trkpt lat="43.17549" lon="0.13467">
        <ele>489</ele>
        <time>2018-09-30T07:47:29Z</time>
      </trkpt>
      <trkpt lat="43.17545" lon="0.13465">
        <ele>489</ele>
        <time>2018-09-30T07:47:30Z</time>
      </trkpt>
      <trkpt lat="43.17542" lon="0.13462">
        <ele>489</ele>
        <time>2018-09-30T07:47:31Z</time>
      </trkpt>
      <trkpt lat="43.1754" lon="0.13459">
        <ele>489</ele>
        <time>2018-09-30T07:47:32Z</time>
      </trkpt>
      <trkpt lat="43.17536" lon="0.13459">
        <ele>489</ele>
        <time>2018-09-30T07:47:33Z</time>
      </trkpt>
      <trkpt lat="43.17534" lon="0.13453">
        <ele>488</ele>
        <time>2018-09-30T07:47:34Z</time>
      </trkpt>
      <trkpt lat="43.17532" lon="0.13448">
        <ele>488</ele>
        <time>2018-09-30T07:47:35Z</time>
      </trkpt>
      <trkpt lat="43.17531" lon="0.13439">
        <ele>487</ele>
        <time>2018-09-30T07:47:36Z</time>
      </trkpt>
      <trkpt lat="43.17528" lon="0.13431">
        <ele>487</ele>
        <time>2018-09-30T07:47:37Z</time>
      </trkpt>
      <trkpt lat="43.17526" lon="0.13426">
        <ele>487</ele>
        <time>2018-09-30T07:47:38Z</time>
      </trkpt>
      <trkpt lat="43.17524" lon="0.13421">
        <ele>486</ele>
        <time>2018-09-30T07:47:39Z</time>
      </trkpt>
      <trkpt lat="43.17522" lon="0.13413">
        <ele>485</ele>
        <time>2018-09-30T07:47:40Z</time>
      </trkpt>
      <trkpt lat="43.17519" lon="0.13405">
        <ele>484</ele>
        <time>2018-09-30T07:47:41Z</time>
      </trkpt>
      <trkpt lat="43.17515" lon="0.13397">
        <ele>484</ele>
        <time>2018-09-30T07:47:42Z</time>
      </trkpt>
      <trkpt lat="43.17511" lon="0.13385">
        <ele>483</ele>
        <time>2018-09-30T07:47:43Z</time>
      </trkpt>
      <trkpt lat="43.17509" lon="0.13377">
        <ele>482</ele>
        <time>2018-09-30T07:47:44Z</time>
      </trkpt>
      <trkpt lat="43.17506" lon="0.13367">
        <ele>481</ele>
        <time>2018-09-30T07:47:45Z</time>
      </trkpt>
      <trkpt lat="43.17505" lon="0.13359">
        <ele>481</ele>
        <time>2018-09-30T07:47:46Z</time>
      </trkpt>
      <trkpt lat="43.17503" lon="0.13351">
        <ele>480</ele>
        <time>2018-09-30T07:47:47Z</time>
      </trkpt>
      <trkpt lat="43.175" lon="0.13343">
        <ele>479</ele>
        <time>2018-09-30T07:47:48Z</time>
      </trkpt>
      <trkpt lat="43.17497" lon="0.13332">
        <ele>479</ele>
        <time>2018-09-30T07:47:49Z</time>
      </trkpt>
      <trkpt lat="43.17496" lon="0.13323">
        <ele>478</ele>
        <time>2018-09-30T07:47:50Z</time>
      </trkpt>
      <trkpt lat="43.17496" lon="0.13315">
        <ele>478</ele>
        <time>2018-09-30T07:47:51Z</time>
      </trkpt>
      <trkpt lat="43.17497" lon="0.13307">
        <ele>477</ele>
        <time>2018-09-30T07:47:52Z</time>
      </trkpt>
      <trkpt lat="43.17497" lon="0.13297">
        <ele>477</ele>
        <time>2018-09-30T07:47:53Z</time>
      </trkpt>
      <trkpt lat="43.17498" lon="0.13286">
        <ele>476</ele>
        <time>2018-09-30T07:47:54Z</time>
      </trkpt>
      <trkpt lat="43.17499" lon="0.13276">
        <ele>476</ele>
        <time>2018-09-30T07:47:55Z</time>
      </trkpt>
      <trkpt lat="43.17499" lon="0.13267">
        <ele>476</ele>
        <time>2018-09-30T07:47:56Z</time>
      </trkpt>
      <trkpt lat="43.17499" lon="0.13259">
        <ele>476</ele>
        <time>2018-09-30T07:47:57Z</time>
      </trkpt>
      <trkpt lat="43.17499" lon="0.13252">
        <ele>476</ele>
        <time>2018-09-30T07:47:58Z</time>
      </trkpt>
      <trkpt lat="43.17498" lon="0.13246">
        <ele>475</ele>
        <time>2018-09-30T07:47:59Z</time>
      </trkpt>
      <trkpt lat="43.17496" lon="0.13239">
        <ele>475</ele>
        <time>2018-09-30T07:48:00Z</time>
      </trkpt>
      <trkpt lat="43.17497" lon="0.13231">
        <ele>475</ele>
        <time>2018-09-30T07:48:01Z</time>
      </trkpt>
      <trkpt lat="43.17497" lon="0.13223">
        <ele>474</ele>
        <time>2018-09-30T07:48:02Z</time>
      </trkpt>
      <trkpt lat="43.17498" lon="0.13216">
        <ele>474</ele>
        <time>2018-09-30T07:48:03Z</time>
      </trkpt>
      <trkpt lat="43.17499" lon="0.1321">
        <ele>474</ele>
        <time>2018-09-30T07:48:04Z</time>
      </trkpt>
      <trkpt lat="43.17498" lon="0.13203">
        <ele>473</ele>
        <time>2018-09-30T07:48:05Z</time>
      </trkpt>
      <trkpt lat="43.17497" lon="0.13194">
        <ele>472</ele>
        <time>2018-09-30T07:48:06Z</time>
      </trkpt>
      <trkpt lat="43.17496" lon="0.13185">
        <ele>472</ele>
        <time>2018-09-30T07:48:07Z</time>
      </trkpt>
      <trkpt lat="43.17495" lon="0.13177">
        <ele>471</ele>
        <time>2018-09-30T07:48:08Z</time>
      </trkpt>
      <trkpt lat="43.17493" lon="0.13168">
        <ele>471</ele>
        <time>2018-09-30T07:48:09Z</time>
      </trkpt>
      <trkpt lat="43.1749" lon="0.1316">
        <ele>470</ele>
        <time>2018-09-30T07:48:10Z</time>
      </trkpt>
      <trkpt lat="43.17487" lon="0.13153">
        <ele>470</ele>
        <time>2018-09-30T07:48:11Z</time>
      </trkpt>
      <trkpt lat="43.17484" lon="0.13146">
        <ele>469</ele>
        <time>2018-09-30T07:48:12Z</time>
      </trkpt>
      <trkpt lat="43.17482" lon="0.1314">
        <ele>469</ele>
        <time>2018-09-30T07:48:13Z</time>
      </trkpt>
      <trkpt lat="43.1748" lon="0.13134">
        <ele>468</ele>
        <time>2018-09-30T07:48:14Z</time>
      </trkpt>
      <trkpt lat="43.17478" lon="0.13127">
        <ele>467</ele>
        <time>2018-09-30T07:48:15Z</time>
      </trkpt>
      <trkpt lat="43.17476" lon="0.13122">
        <ele>467</ele>
        <time>2018-09-30T07:48:16Z</time>
      </trkpt>
      <trkpt lat="43.17473" lon="0.13119">
        <ele>467</ele>
        <time>2018-09-30T07:48:17Z</time>
      </trkpt>
      <trkpt lat="43.1747" lon="0.13117">
        <ele>466</ele>
        <time>2018-09-30T07:48:18Z</time>
      </trkpt>
      <trkpt lat="43.17466" lon="0.13114">
        <ele>465</ele>
        <time>2018-09-30T07:48:19Z</time>
      </trkpt>
      <trkpt lat="43.17462" lon="0.1311">
        <ele>464</ele>
        <time>2018-09-30T07:48:20Z</time>
      </trkpt>
      <trkpt lat="43.17459" lon="0.13105">
        <ele>464</ele>
        <time>2018-09-30T07:48:21Z</time>
      </trkpt>
      <trkpt lat="43.17456" lon="0.13101">
        <ele>463</ele>
        <time>2018-09-30T07:48:22Z</time>
      </trkpt>
      <trkpt lat="43.17454" lon="0.13097">
        <ele>462</ele>
        <time>2018-09-30T07:48:23Z</time>
      </trkpt>
      <trkpt lat="43.17452" lon="0.13091">
        <ele>461</ele>
        <time>2018-09-30T07:48:24Z</time>
      </trkpt>
      <trkpt lat="43.17449" lon="0.13085">
        <ele>460</ele>
        <time>2018-09-30T07:48:25Z</time>
      </trkpt>
      <trkpt lat="43.17448" lon="0.13079">
        <ele>459</ele>
        <time>2018-09-30T07:48:26Z</time>
      </trkpt>
      <trkpt lat="43.17446" lon="0.13075">
        <ele>459</ele>
        <time>2018-09-30T07:48:27Z</time>
      </trkpt>
      <trkpt lat="43.17443" lon="0.13072">
        <ele>458</ele>
        <time>2018-09-30T07:48:28Z</time>
      </trkpt>
      <trkpt lat="43.1744" lon="0.13071">
        <ele>458</ele>
        <time>2018-09-30T07:48:29Z</time>
      </trkpt>
      <trkpt lat="43.17436" lon="0.13068">
        <ele>455</ele>
        <time>2018-09-30T07:48:30Z</time>
      </trkpt>
      <trkpt lat="43.17432" lon="0.13063">
        <ele>454</ele>
        <time>2018-09-30T07:48:31Z</time>
      </trkpt>
      <trkpt lat="43.17427" lon="0.13059">
        <ele>451</ele>
        <time>2018-09-30T07:48:32Z</time>
      </trkpt>
      <trkpt lat="43.17422" lon="0.13057">
        <ele>450</ele>
        <time>2018-09-30T07:48:33Z</time>
      </trkpt>
      <trkpt lat="43.17417" lon="0.13054">
        <ele>448</ele>
        <time>2018-09-30T07:48:34Z</time>
      </trkpt>
      <trkpt lat="43.17413" lon="0.13053">
        <ele>447</ele>
        <time>2018-09-30T07:48:35Z</time>
      </trkpt>
      <trkpt lat="43.17408" lon="0.13051">
        <ele>446</ele>
        <time>2018-09-30T07:48:36Z</time>
      </trkpt>
      <trkpt lat="43.17405" lon="0.13051">
        <ele>446</ele>
        <time>2018-09-30T07:48:37Z</time>
      </trkpt>
      <trkpt lat="43.17402" lon="0.1305">
        <ele>446</ele>
        <time>2018-09-30T07:48:38Z</time>
      </trkpt>
      <trkpt lat="43.17398" lon="0.1305">
        <ele>445</ele>
        <time>2018-09-30T07:48:39Z</time>
      </trkpt>
      <trkpt lat="43.17395" lon="0.1305">
        <ele>445</ele>
        <time>2018-09-30T07:48:40Z</time>
      </trkpt>
      <trkpt lat="43.17392" lon="0.13047">
        <ele>445</ele>
        <time>2018-09-30T07:48:41Z</time>
      </trkpt>
      <trkpt lat="43.1739" lon="0.13043">
        <ele>445</ele>
        <time>2018-09-30T07:48:42Z</time>
      </trkpt>
      <trkpt lat="43.17387" lon="0.13039">
        <ele>444</ele>
        <time>2018-09-30T07:48:43Z</time>
      </trkpt>
      <trkpt lat="43.17383" lon="0.13036">
        <ele>444</ele>
        <time>2018-09-30T07:48:44Z</time>
      </trkpt>
      <trkpt lat="43.1738" lon="0.13032">
        <ele>444</ele>
        <time>2018-09-30T07:48:45Z</time>
      </trkpt>
      <trkpt lat="43.17376" lon="0.1303">
        <ele>443</ele>
        <time>2018-09-30T07:48:46Z</time>
      </trkpt>
      <trkpt lat="43.17372" lon="0.13027">
        <ele>442</ele>
        <time>2018-09-30T07:48:47Z</time>
      </trkpt>
      <trkpt lat="43.17367" lon="0.1302">
        <ele>441</ele>
        <time>2018-09-30T07:48:48Z</time>
      </trkpt>
      <trkpt lat="43.17364" lon="0.13016">
        <ele>440</ele>
        <time>2018-09-30T07:48:49Z</time>
      </trkpt>
      <trkpt lat="43.17361" lon="0.13013">
        <ele>440</ele>
        <time>2018-09-30T07:48:50Z</time>
      </trkpt>
      <trkpt lat="43.17358" lon="0.13012">
        <ele>439</ele>
        <time>2018-09-30T07:48:51Z</time>
      </trkpt>
      <trkpt lat="43.17355" lon="0.13013">
        <ele>439</ele>
        <time>2018-09-30T07:48:52Z</time>
      </trkpt>
      <trkpt lat="43.17351" lon="0.13014">
        <ele>439</ele>
        <time>2018-09-30T07:48:53Z</time>
      </trkpt>
      <trkpt lat="43.17349" lon="0.13017">
        <ele>438</ele>
        <time>2018-09-30T07:48:54Z</time>
      </trkpt>
      <trkpt lat="43.17346" lon="0.1302">
        <ele>438</ele>
        <time>2018-09-30T07:48:55Z</time>
      </trkpt>
      <trkpt lat="43.17344" lon="0.13025">
        <ele>438</ele>
        <time>2018-09-30T07:48:56Z</time>
      </trkpt>
      <trkpt lat="43.17342" lon="0.1303">
        <ele>437</ele>
        <time>2018-09-30T07:48:57Z</time>
      </trkpt>
      <trkpt lat="43.1734" lon="0.13034">
        <ele>437</ele>
        <time>2018-09-30T07:48:58Z</time>
      </trkpt>
      <trkpt lat="43.17338" lon="0.13037">
        <ele>436</ele>
        <time>2018-09-30T07:48:59Z</time>
      </trkpt>
      <trkpt lat="43.17336" lon="0.13038">
        <ele>436</ele>
        <time>2018-09-30T07:49:00Z</time>
      </trkpt>
      <trkpt lat="43.17335" lon="0.13038">
        <ele>436</ele>
        <time>2018-09-30T07:49:01Z</time>
      </trkpt>
      <trkpt lat="43.17334" lon="0.13036">
        <ele>436</ele>
        <time>2018-09-30T07:49:02Z</time>
      </trkpt>
      <trkpt lat="43.17334" lon="0.13034">
        <ele>436</ele>
        <time>2018-09-30T07:49:03Z</time>
      </trkpt>
      <trkpt lat="43.17334" lon="0.13032">
        <ele>435</ele>
        <time>2018-09-30T07:49:04Z</time>
      </trkpt>
      <trkpt lat="43.17335" lon="0.1303">
        <ele>435</ele>
        <time>2018-09-30T07:49:05Z</time>
      </trkpt>
      <trkpt lat="43.17335" lon="0.13026">
        <ele>434</ele>
        <time>2018-09-30T07:49:06Z</time>
      </trkpt>
      <trkpt lat="43.17336" lon="0.13022">
        <ele>434</ele>
        <time>2018-09-30T07:49:07Z</time>
      </trkpt>
      <trkpt lat="43.17337" lon="0.13017">
        <ele>432</ele>
        <time>2018-09-30T07:49:08Z</time>
      </trkpt>
      <trkpt lat="43.17338" lon="0.1301">
        <ele>427</ele>
        <time>2018-09-30T07:49:09Z</time>
      </trkpt>
      <trkpt lat="43.17339" lon="0.13">
        <ele>424</ele>
        <time>2018-09-30T07:49:10Z</time>
      </trkpt>
      <trkpt lat="43.17341" lon="0.1299">
        <ele>419</ele>
        <time>2018-09-30T07:49:11Z</time>
      </trkpt>
      <trkpt lat="43.17343" lon="0.12982">
        <ele>417</ele>
        <time>2018-09-30T07:49:12Z</time>
      </trkpt>
      <trkpt lat="43.17343" lon="0.12972">
        <ele>416</ele>
        <time>2018-09-30T07:49:13Z</time>
      </trkpt>
      <trkpt lat="43.17342" lon="0.12964">
        <ele>416</ele>
        <time>2018-09-30T07:49:14Z</time>
      </trkpt>
      <trkpt lat="43.1734" lon="0.12957">
        <ele>415</ele>
        <time>2018-09-30T07:49:15Z</time>
      </trkpt>
      <trkpt lat="43.17338" lon="0.1295">
        <ele>415</ele>
        <time>2018-09-30T07:49:16Z</time>
      </trkpt>
      <trkpt lat="43.17336" lon="0.12944">
        <ele>415</ele>
        <time>2018-09-30T07:49:17Z</time>
      </trkpt>
      <trkpt lat="43.17335" lon="0.12939">
        <ele>414</ele>
        <time>2018-09-30T07:49:18Z</time>
      </trkpt>
      <trkpt lat="43.17333" lon="0.12934">
        <ele>414</ele>
        <time>2018-09-30T07:49:19Z</time>
      </trkpt>
      <trkpt lat="43.17332" lon="0.12931">
        <ele>414</ele>
        <time>2018-09-30T07:49:20Z</time>
      </trkpt>
      <trkpt lat="43.1733" lon="0.12926">
        <ele>414</ele>
        <time>2018-09-30T07:49:21Z</time>
      </trkpt>
      <trkpt lat="43.17327" lon="0.12922">
        <ele>413</ele>
        <time>2018-09-30T07:49:22Z</time>
      </trkpt>
      <trkpt lat="43.17324" lon="0.12917">
        <ele>413</ele>
        <time>2018-09-30T07:49:23Z</time>
      </trkpt>
      <trkpt lat="43.17322" lon="0.12912">
        <ele>411</ele>
        <time>2018-09-30T07:49:24Z</time>
      </trkpt>
      <trkpt lat="43.1732" lon="0.12908">
        <ele>411</ele>
        <time>2018-09-30T07:49:25Z</time>
      </trkpt>
      <trkpt lat="43.17318" lon="0.12904">
        <ele>410</ele>
        <time>2018-09-30T07:49:26Z</time>
      </trkpt>
      <trkpt lat="43.17315" lon="0.12899">
        <ele>410</ele>
        <time>2018-09-30T07:49:27Z</time>
      </trkpt>
      <trkpt lat="43.17313" lon="0.12894">
        <ele>410</ele>
        <time>2018-09-30T07:49:28Z</time>
      </trkpt>
      <trkpt lat="43.1731" lon="0.12891">
        <ele>409</ele>
        <time>2018-09-30T07:49:29Z</time>
      </trkpt>
      <trkpt lat="43.17307" lon="0.12887">
        <ele>409</ele>
        <time>2018-09-30T07:49:30Z</time>
      </trkpt>
      <trkpt lat="43.17304" lon="0.12884">
        <ele>409</ele>
        <time>2018-09-30T07:49:31Z</time>
      </trkpt>
      <trkpt lat="43.17302" lon="0.1288">
        <ele>409</ele>
        <time>2018-09-30T07:49:32Z</time>
      </trkpt>
      <trkpt lat="43.173" lon="0.12877">
        <ele>409</ele>
        <time>2018-09-30T07:49:33Z</time>
      </trkpt>
      <trkpt lat="43.17297" lon="0.12873">
        <ele>408</ele>
        <time>2018-09-30T07:49:34Z</time>
      </trkpt>
      <trkpt lat="43.17294" lon="0.12867">
        <ele>408</ele>
        <time>2018-09-30T07:49:35Z</time>
      </trkpt>
      <trkpt lat="43.17288" lon="0.12858">
        <ele>408</ele>
        <time>2018-09-30T07:49:36Z</time>
      </trkpt>
      <trkpt lat="43.17284" lon="0.12851">
        <ele>407</ele>
        <time>2018-09-30T07:49:37Z</time>
      </trkpt>
      <trkpt lat="43.17281" lon="0.12846">
        <ele>406</ele>
        <time>2018-09-30T07:49:38Z</time>
      </trkpt>
      <trkpt lat="43.17278" lon="0.1284">
        <ele>406</ele>
        <time>2018-09-30T07:49:39Z</time>
      </trkpt>
      <trkpt lat="43.17275" lon="0.12837">
        <ele>406</ele>
        <time>2018-09-30T07:49:40Z</time>
      </trkpt>
      <trkpt lat="43.17273" lon="0.12833">
        <ele>405</ele>
        <time>2018-09-30T07:49:41Z</time>
      </trkpt>
      <trkpt lat="43.1727" lon="0.12829">
        <ele>405</ele>
        <time>2018-09-30T07:49:42Z</time>
      </trkpt>
      <trkpt lat="43.17268" lon="0.12825">
        <ele>405</ele>
        <time>2018-09-30T07:49:43Z</time>
      </trkpt>
      <trkpt lat="43.17266" lon="0.12822">
        <ele>405</ele>
        <time>2018-09-30T07:49:44Z</time>
      </trkpt>
      <trkpt lat="43.17264" lon="0.12819">
        <ele>405</ele>
        <time>2018-09-30T07:49:45Z</time>
      </trkpt>
      <trkpt lat="43.17262" lon="0.12816">
        <ele>405</ele>
        <time>2018-09-30T07:49:46Z</time>
      </trkpt>
      <trkpt lat="43.1726" lon="0.12813">
        <ele>405</ele>
        <time>2018-09-30T07:49:47Z</time>
      </trkpt>
      <trkpt lat="43.17258" lon="0.12811">
        <ele>405</ele>
        <time>2018-09-30T07:49:48Z</time>
      </trkpt>
      <trkpt lat="43.17256" lon="0.12808">
        <ele>405</ele>
        <time>2018-09-30T07:49:49Z</time>
      </trkpt>
      <trkpt lat="43.17254" lon="0.12805">
        <ele>405</ele>
        <time>2018-09-30T07:49:50Z</time>
      </trkpt>
      <trkpt lat="43.17252" lon="0.12802">
        <ele>405</ele>
        <time>2018-09-30T07:49:51Z</time>
      </trkpt>
      <trkpt lat="43.17251" lon="0.12798">
        <ele>404</ele>
        <time>2018-09-30T07:49:52Z</time>
      </trkpt>
      <trkpt lat="43.17249" lon="0.12795">
        <ele>404</ele>
        <time>2018-09-30T07:49:53Z</time>
      </trkpt>
      <trkpt lat="43.17247" lon="0.12793">
        <ele>404</ele>
        <time>2018-09-30T07:49:54Z</time>
      </trkpt>
      <trkpt lat="43.17245" lon="0.12789">
        <ele>404</ele>
        <time>2018-09-30T07:49:55Z</time>
      </trkpt>
      <trkpt lat="43.17244" lon="0.12787">
        <ele>404</ele>
        <time>2018-09-30T07:49:56Z</time>
      </trkpt>
      <trkpt lat="43.17243" lon="0.12785">
        <ele>404</ele>
        <time>2018-09-30T07:49:57Z</time>
      </trkpt>
      <trkpt lat="43.17242" lon="0.12784">
        <ele>404</ele>
        <time>2018-09-30T07:49:58Z</time>
      </trkpt>
      <trkpt lat="43.17241" lon="0.12782">
        <ele>403</ele>
        <time>2018-09-30T07:49:59Z</time>
      </trkpt>
      <trkpt lat="43.1724" lon="0.1278">
        <ele>403</ele>
        <time>2018-09-30T07:50:00Z</time>
      </trkpt>
      <trkpt lat="43.17238" lon="0.12778">
        <ele>403</ele>
        <time>2018-09-30T07:50:01Z</time>
      </trkpt>
      <trkpt lat="43.17237" lon="0.12776">
        <ele>403</ele>
        <time>2018-09-30T07:50:02Z</time>
      </trkpt>
      <trkpt lat="43.17236" lon="0.12773">
        <ele>403</ele>
        <time>2018-09-30T07:50:03Z</time>
      </trkpt>
      <trkpt lat="43.17234" lon="0.12771">
        <ele>403</ele>
        <time>2018-09-30T07:50:04Z</time>
      </trkpt>
      <trkpt lat="43.17233" lon="0.12769">
        <ele>403</ele>
        <time>2018-09-30T07:50:05Z</time>
      </trkpt>
      <trkpt lat="43.17231" lon="0.12767">
        <ele>403</ele>
        <time>2018-09-30T07:50:06Z</time>
      </trkpt>
      <trkpt lat="43.1723" lon="0.12765">
        <ele>403</ele>
        <time>2018-09-30T07:50:07Z</time>
      </trkpt>
      <trkpt lat="43.17229" lon="0.12762">
        <ele>403</ele>
        <time>2018-09-30T07:50:08Z</time>
      </trkpt>
      <trkpt lat="43.17228" lon="0.1276">
        <ele>403</ele>
        <time>2018-09-30T07:50:09Z</time>
      </trkpt>
      <trkpt lat="43.17226" lon="0.12758">
        <ele>403</ele>
        <time>2018-09-30T07:50:10Z</time>
      </trkpt>
      <trkpt lat="43.17224" lon="0.12755">
        <ele>403</ele>
        <time>2018-09-30T07:50:11Z</time>
      </trkpt>
      <trkpt lat="43.17223" lon="0.12752">
        <ele>403</ele>
        <time>2018-09-30T07:50:12Z</time>
      </trkpt>
      <trkpt lat="43.17221" lon="0.12749">
        <ele>403</ele>
        <time>2018-09-30T07:50:13Z</time>
      </trkpt>
      <trkpt lat="43.1722" lon="0.12747">
        <ele>403</ele>
        <time>2018-09-30T07:50:14Z</time>
      </trkpt>
      <trkpt lat="43.17218" lon="0.12745">
        <ele>403</ele>
        <time>2018-09-30T07:50:15Z</time>
      </trkpt>
      <trkpt lat="43.17216" lon="0.12742">
        <ele>403</ele>
        <time>2018-09-30T07:50:16Z</time>
      </trkpt>
      <trkpt lat="43.17214" lon="0.1274">
        <ele>403</ele>
        <time>2018-09-30T07:50:17Z</time>
      </trkpt>
      <trkpt lat="43.17212" lon="0.12738">
        <ele>403</ele>
        <time>2018-09-30T07:50:18Z</time>
      </trkpt>
      <trkpt lat="43.17209" lon="0.12736">
        <ele>403</ele>
        <time>2018-09-30T07:50:19Z</time>
      </trkpt>
      <trkpt lat="43.17207" lon="0.12734">
        <ele>403</ele>
        <time>2018-09-30T07:50:20Z</time>
      </trkpt>
      <trkpt lat="43.17204" lon="0.12732">
        <ele>404</ele>
        <time>2018-09-30T07:50:21Z</time>
      </trkpt>
      <trkpt lat="43.17202" lon="0.12729">
        <ele>404</ele>
        <time>2018-09-30T07:50:22Z</time>
      </trkpt>
      <trkpt lat="43.172" lon="0.12727">
        <ele>404</ele>
        <time>2018-09-30T07:50:23Z</time>
      </trkpt>
      <trkpt lat="43.17197" lon="0.12725">
        <ele>404</ele>
        <time>2018-09-30T07:50:24Z</time>
      </trkpt>
      <trkpt lat="43.17195" lon="0.12722">
        <ele>404</ele>
        <time>2018-09-30T07:50:25Z</time>
      </trkpt>
      <trkpt lat="43.17193" lon="0.1272">
        <ele>404</ele>
        <time>2018-09-30T07:50:26Z</time>
      </trkpt>
      <trkpt lat="43.1719" lon="0.12717">
        <ele>404</ele>
        <time>2018-09-30T07:50:27Z</time>
      </trkpt>
      <trkpt lat="43.17188" lon="0.12715">
        <ele>404</ele>
        <time>2018-09-30T07:50:28Z</time>
      </trkpt>
      <trkpt lat="43.17186" lon="0.12713">
        <ele>404</ele>
        <time>2018-09-30T07:50:29Z</time>
      </trkpt>
      <trkpt lat="43.17184" lon="0.12711">
        <ele>404</ele>
        <time>2018-09-30T07:50:30Z</time>
      </trkpt>
      <trkpt lat="43.17181" lon="0.1271">
        <ele>404</ele>
        <time>2018-09-30T07:50:31Z</time>
      </trkpt>
      <trkpt lat="43.17179" lon="0.12708">
        <ele>404</ele>
        <time>2018-09-30T07:50:32Z</time>
      </trkpt>
      <trkpt lat="43.17177" lon="0.12706">
        <ele>404</ele>
        <time>2018-09-30T07:50:33Z</time>
      </trkpt>
      <trkpt lat="43.17174" lon="0.12704">
        <ele>404</ele>
        <time>2018-09-30T07:50:34Z</time>
      </trkpt>
      <trkpt lat="43.17172" lon="0.12703">
        <ele>404</ele>
        <time>2018-09-30T07:50:35Z</time>
      </trkpt>
      <trkpt lat="43.1717" lon="0.12701">
        <ele>404</ele>
        <time>2018-09-30T07:50:36Z</time>
      </trkpt>
      <trkpt lat="43.17168" lon="0.12699">
        <ele>404</ele>
        <time>2018-09-30T07:50:37Z</time>
      </trkpt>
      <trkpt lat="43.17166" lon="0.12697">
        <ele>404</ele>
        <time>2018-09-30T07:50:38Z</time>
      </trkpt>
      <trkpt lat="43.17164" lon="0.12695">
        <ele>404</ele>
        <time>2018-09-30T07:50:39Z</time>
      </trkpt>
      <trkpt lat="43.17161" lon="0.12692">
        <ele>404</ele>
        <time>2018-09-30T07:50:40Z</time>
      </trkpt>
      <trkpt lat="43.17159" lon="0.1269">
        <ele>404</ele>
        <time>2018-09-30T07:50:41Z</time>
      </trkpt>
      <trkpt lat="43.17156" lon="0.12689">
        <ele>405</ele>
        <time>2018-09-30T07:50:42Z</time>
      </trkpt>
      <trkpt lat="43.17154" lon="0.12687">
        <ele>405</ele>
        <time>2018-09-30T07:50:43Z</time>
      </trkpt>
      <trkpt lat="43.17151" lon="0.12685">
        <ele>405</ele>
        <time>2018-09-30T07:50:44Z</time>
      </trkpt>
      <trkpt lat="43.17148" lon="0.12683">
        <ele>405</ele>
        <time>2018-09-30T07:50:45Z</time>
      </trkpt>
      <trkpt lat="43.17146" lon="0.12681">
        <ele>405</ele>
        <time>2018-09-30T07:50:46Z</time>
      </trkpt>
      <trkpt lat="43.17144" lon="0.1268">
        <ele>405</ele>
        <time>2018-09-30T07:50:47Z</time>
      </trkpt>
      <trkpt lat="43.17141" lon="0.12678">
        <ele>405</ele>
        <time>2018-09-30T07:50:48Z</time>
      </trkpt>
      <trkpt lat="43.17139" lon="0.12676">
        <ele>405</ele>
        <time>2018-09-30T07:50:49Z</time>
      </trkpt>
      <trkpt lat="43.17136" lon="0.12674">
        <ele>405</ele>
        <time>2018-09-30T07:50:50Z</time>
      </trkpt>
      <trkpt lat="43.17133" lon="0.12673">
        <ele>405</ele>
        <time>2018-09-30T07:50:51Z</time>
      </trkpt>
      <trkpt lat="43.17131" lon="0.12671">
        <ele>406</ele>
        <time>2018-09-30T07:50:52Z</time>
      </trkpt>
      <trkpt lat="43.17128" lon="0.12669">
        <ele>406</ele>
        <time>2018-09-30T07:50:53Z</time>
      </trkpt>
      <trkpt lat="43.17126" lon="0.12667">
        <ele>406</ele>
        <time>2018-09-30T07:50:54Z</time>
      </trkpt>
      <trkpt lat="43.17123" lon="0.12665">
        <ele>406</ele>
        <time>2018-09-30T07:50:55Z</time>
      </trkpt>
      <trkpt lat="43.17121" lon="0.12664">
        <ele>406</ele>
        <time>2018-09-30T07:50:56Z</time>
      </trkpt>
      <trkpt lat="43.17119" lon="0.12662">
        <ele>406</ele>
        <time>2018-09-30T07:50:57Z</time>
      </trkpt>
      <trkpt lat="43.17116" lon="0.12661">
        <ele>406</ele>
        <time>2018-09-30T07:50:58Z</time>
      </trkpt>
      <trkpt lat="43.17114" lon="0.12659">
        <ele>406</ele>
        <time>2018-09-30T07:50:59Z</time>
      </trkpt>
      <trkpt lat="43.17112" lon="0.12658">
        <ele>406</ele>
        <time>2018-09-30T07:51:00Z</time>
      </trkpt>
      <trkpt lat="43.1711" lon="0.12657">
        <ele>406</ele>
        <time>2018-09-30T07:51:01Z</time>
      </trkpt>
      <trkpt lat="43.17107" lon="0.12655">
        <ele>406</ele>
        <time>2018-09-30T07:51:02Z</time>
      </trkpt>
      <trkpt lat="43.17105" lon="0.12654">
        <ele>406</ele>
        <time>2018-09-30T07:51:03Z</time>
      </trkpt>
      <trkpt lat="43.17102" lon="0.12652">
        <ele>407</ele>
        <time>2018-09-30T07:51:04Z</time>
      </trkpt>
      <trkpt lat="43.171" lon="0.1265">
        <ele>407</ele>
        <time>2018-09-30T07:51:05Z</time>
      </trkpt>
      <trkpt lat="43.17097" lon="0.12648">
        <ele>408</ele>
        <time>2018-09-30T07:51:06Z</time>
      </trkpt>
      <trkpt lat="43.17094" lon="0.12647">
        <ele>408</ele>
        <time>2018-09-30T07:51:07Z</time>
      </trkpt>
      <trkpt lat="43.17092" lon="0.12645">
        <ele>408</ele>
        <time>2018-09-30T07:51:08Z</time>
      </trkpt>
      <trkpt lat="43.17089" lon="0.12643">
        <ele>408</ele>
        <time>2018-09-30T07:51:09Z</time>
      </trkpt>
      <trkpt lat="43.17087" lon="0.12641">
        <ele>408</ele>
        <time>2018-09-30T07:51:10Z</time>
      </trkpt>
      <trkpt lat="43.17084" lon="0.12639">
        <ele>408</ele>
        <time>2018-09-30T07:51:11Z</time>
      </trkpt>
      <trkpt lat="43.17082" lon="0.12637">
        <ele>408</ele>
        <time>2018-09-30T07:51:12Z</time>
      </trkpt>
      <trkpt lat="43.1708" lon="0.12634">
        <ele>408</ele>
        <time>2018-09-30T07:51:13Z</time>
      </trkpt>
      <trkpt lat="43.17078" lon="0.12632">
        <ele>408</ele>
        <time>2018-09-30T07:51:14Z</time>
      </trkpt>
      <trkpt lat="43.17076" lon="0.1263">
        <ele>409</ele>
        <time>2018-09-30T07:51:15Z</time>
      </trkpt>
      <trkpt lat="43.17075" lon="0.12629">
        <ele>409</ele>
        <time>2018-09-30T07:51:16Z</time>
      </trkpt>
      <trkpt lat="43.17073" lon="0.12628">
        <ele>409</ele>
        <time>2018-09-30T07:51:17Z</time>
      </trkpt>
      <trkpt lat="43.17071" lon="0.12626">
        <ele>409</ele>
        <time>2018-09-30T07:51:18Z</time>
      </trkpt>
      <trkpt lat="43.17069" lon="0.12624">
        <ele>410</ele>
        <time>2018-09-30T07:51:19Z</time>
      </trkpt>
      <trkpt lat="43.17067" lon="0.12622">
        <ele>410</ele>
        <time>2018-09-30T07:51:20Z</time>
      </trkpt>
      <trkpt lat="43.17064" lon="0.12621">
        <ele>410</ele>
        <time>2018-09-30T07:51:21Z</time>
      </trkpt>
      <trkpt lat="43.17062" lon="0.1262">
        <ele>410</ele>
        <time>2018-09-30T07:51:22Z</time>
      </trkpt>
      <trkpt lat="43.17059" lon="0.12618">
        <ele>410</ele>
        <time>2018-09-30T07:51:23Z</time>
      </trkpt>
      <trkpt lat="43.17057" lon="0.12617">
        <ele>410</ele>
        <time>2018-09-30T07:51:24Z</time>
      </trkpt>
      <trkpt lat="43.17054" lon="0.12615">
        <ele>411</ele>
        <time>2018-09-30T07:51:25Z</time>
      </trkpt>
      <trkpt lat="43.17051" lon="0.12613">
        <ele>411</ele>
        <time>2018-09-30T07:51:26Z</time>
      </trkpt>
      <trkpt lat="43.17048" lon="0.12611">
        <ele>411</ele>
        <time>2018-09-30T07:51:27Z</time>
      </trkpt>
      <trkpt lat="43.17045" lon="0.12609">
        <ele>411</ele>
        <time>2018-09-30T07:51:28Z</time>
      </trkpt>
      <trkpt lat="43.17042" lon="0.12607">
        <ele>411</ele>
        <time>2018-09-30T07:51:29Z</time>
      </trkpt>
      <trkpt lat="43.17039" lon="0.12604">
        <ele>411</ele>
        <time>2018-09-30T07:51:30Z</time>
      </trkpt>
      <trkpt lat="43.17037" lon="0.12602">
        <ele>411</ele>
        <time>2018-09-30T07:51:31Z</time>
      </trkpt>
      <trkpt lat="43.17034" lon="0.126">
        <ele>411</ele>
        <time>2018-09-30T07:51:32Z</time>
      </trkpt>
      <trkpt lat="43.17032" lon="0.12598">
        <ele>412</ele>
        <time>2018-09-30T07:51:33Z</time>
      </trkpt>
      <trkpt lat="43.17029" lon="0.12596">
        <ele>412</ele>
        <time>2018-09-30T07:51:34Z</time>
      </trkpt>
      <trkpt lat="43.17026" lon="0.12594">
        <ele>412</ele>
        <time>2018-09-30T07:51:35Z</time>
      </trkpt>
      <trkpt lat="43.17024" lon="0.12592">
        <ele>412</ele>
        <time>2018-09-30T07:51:36Z</time>
      </trkpt>
      <trkpt lat="43.17021" lon="0.1259">
        <ele>412</ele>
        <time>2018-09-30T07:51:37Z</time>
      </trkpt>
      <trkpt lat="43.17019" lon="0.12588">
        <ele>412</ele>
        <time>2018-09-30T07:51:38Z</time>
      </trkpt>
      <trkpt lat="43.17016" lon="0.12586">
        <ele>413</ele>
        <time>2018-09-30T07:51:39Z</time>
      </trkpt>
      <trkpt lat="43.17014" lon="0.12584">
        <ele>413</ele>
        <time>2018-09-30T07:51:40Z</time>
      </trkpt>
      <trkpt lat="43.17011" lon="0.12581">
        <ele>413</ele>
        <time>2018-09-30T07:51:41Z</time>
      </trkpt>
      <trkpt lat="43.17009" lon="0.12579">
        <ele>413</ele>
        <time>2018-09-30T07:51:42Z</time>
      </trkpt>
      <trkpt lat="43.17006" lon="0.12576">
        <ele>413</ele>
        <time>2018-09-30T07:51:43Z</time>
      </trkpt>
      <trkpt lat="43.17003" lon="0.12574">
        <ele>414</ele>
        <time>2018-09-30T07:51:44Z</time>
      </trkpt>
      <trkpt lat="43.17001" lon="0.12573">
        <ele>414</ele>
        <time>2018-09-30T07:51:45Z</time>
      </trkpt>
      <trkpt lat="43.16998" lon="0.12571">
        <ele>414</ele>
        <time>2018-09-30T07:51:46Z</time>
      </trkpt>
      <trkpt lat="43.16996" lon="0.12568">
        <ele>414</ele>
        <time>2018-09-30T07:51:47Z</time>
      </trkpt>
      <trkpt lat="43.16994" lon="0.12565">
        <ele>414</ele>
        <time>2018-09-30T07:51:48Z</time>
      </trkpt>
      <trkpt lat="43.16992" lon="0.12562">
        <ele>414</ele>
        <time>2018-09-30T07:51:49Z</time>
      </trkpt>
      <trkpt lat="43.16991" lon="0.12559">
        <ele>415</ele>
        <time>2018-09-30T07:51:50Z</time>
      </trkpt>
      <trkpt lat="43.16989" lon="0.12556">
        <ele>415</ele>
        <time>2018-09-30T07:51:51Z</time>
      </trkpt>
      <trkpt lat="43.16987" lon="0.12552">
        <ele>415</ele>
        <time>2018-09-30T07:51:52Z</time>
      </trkpt>
      <trkpt lat="43.16985" lon="0.12549">
        <ele>415</ele>
        <time>2018-09-30T07:51:53Z</time>
      </trkpt>
      <trkpt lat="43.16984" lon="0.12546">
        <ele>415</ele>
        <time>2018-09-30T07:51:54Z</time>
      </trkpt>
      <trkpt lat="43.16982" lon="0.12542">
        <ele>415</ele>
        <time>2018-09-30T07:51:55Z</time>
      </trkpt>
      <trkpt lat="43.1698" lon="0.12539">
        <ele>416</ele>
        <time>2018-09-30T07:51:56Z</time>
      </trkpt>
      <trkpt lat="43.16978" lon="0.12536">
        <ele>416</ele>
        <time>2018-09-30T07:51:57Z</time>
      </trkpt>
      <trkpt lat="43.16976" lon="0.12532">
        <ele>416</ele>
        <time>2018-09-30T07:51:58Z</time>
      </trkpt>
      <trkpt lat="43.16974" lon="0.12529">
        <ele>416</ele>
        <time>2018-09-30T07:51:59Z</time>
      </trkpt>
      <trkpt lat="43.16972" lon="0.12526">
        <ele>416</ele>
        <time>2018-09-30T07:52:00Z</time>
      </trkpt>
      <trkpt lat="43.1697" lon="0.12523">
        <ele>416</ele>
        <time>2018-09-30T07:52:01Z</time>
      </trkpt>
      <trkpt lat="43.16968" lon="0.1252">
        <ele>416</ele>
        <time>2018-09-30T07:52:02Z</time>
      </trkpt>
      <trkpt lat="43.16966" lon="0.12517">
        <ele>417</ele>
        <time>2018-09-30T07:52:03Z</time>
      </trkpt>
      <trkpt lat="43.16964" lon="0.12514">
        <ele>417</ele>
        <time>2018-09-30T07:52:04Z</time>
      </trkpt>
      <trkpt lat="43.16963" lon="0.12511">
        <ele>417</ele>
        <time>2018-09-30T07:52:05Z</time>
      </trkpt>
      <trkpt lat="43.16961" lon="0.12508">
        <ele>417</ele>
        <time>2018-09-30T07:52:06Z</time>
      </trkpt>
      <trkpt lat="43.16959" lon="0.12504">
        <ele>417</ele>
        <time>2018-09-30T07:52:07Z</time>
      </trkpt>
      <trkpt lat="43.16957" lon="0.12501">
        <ele>417</ele>
        <time>2018-09-30T07:52:08Z</time>
      </trkpt>
      <trkpt lat="43.16955" lon="0.12497">
        <ele>417</ele>
        <time>2018-09-30T07:52:09Z</time>
      </trkpt>
      <trkpt lat="43.16953" lon="0.12494">
        <ele>417</ele>
        <time>2018-09-30T07:52:10Z</time>
      </trkpt>
      <trkpt lat="43.16951" lon="0.1249">
        <ele>418</ele>
        <time>2018-09-30T07:52:11Z</time>
      </trkpt>
      <trkpt lat="43.16948" lon="0.12486">
        <ele>418</ele>
        <time>2018-09-30T07:52:12Z</time>
      </trkpt>
      <trkpt lat="43.16947" lon="0.12484">
        <ele>418</ele>
        <time>2018-09-30T07:52:13Z</time>
      </trkpt>
      <trkpt lat="43.16945" lon="0.12481">
        <ele>418</ele>
        <time>2018-09-30T07:52:14Z</time>
      </trkpt>
      <trkpt lat="43.16943" lon="0.12478">
        <ele>418</ele>
        <time>2018-09-30T07:52:15Z</time>
      </trkpt>
      <trkpt lat="43.16941" lon="0.12475">
        <ele>418</ele>
        <time>2018-09-30T07:52:16Z</time>
      </trkpt>
      <trkpt lat="43.16939" lon="0.12471">
        <ele>418</ele>
        <time>2018-09-30T07:52:17Z</time>
      </trkpt>
      <trkpt lat="43.16938" lon="0.12468">
        <ele>418</ele>
        <time>2018-09-30T07:52:18Z</time>
      </trkpt>
      <trkpt lat="43.16936" lon="0.12465">
        <ele>419</ele>
        <time>2018-09-30T07:52:19Z</time>
      </trkpt>
      <trkpt lat="43.16934" lon="0.12462">
        <ele>419</ele>
        <time>2018-09-30T07:52:20Z</time>
      </trkpt>
      <trkpt lat="43.16932" lon="0.12459">
        <ele>419</ele>
        <time>2018-09-30T07:52:21Z</time>
      </trkpt>
      <trkpt lat="43.16931" lon="0.12456">
        <ele>419</ele>
        <time>2018-09-30T07:52:22Z</time>
      </trkpt>
      <trkpt lat="43.16929" lon="0.12453">
        <ele>419</ele>
        <time>2018-09-30T07:52:23Z</time>
      </trkpt>
      <trkpt lat="43.16927" lon="0.1245">
        <ele>419</ele>
        <time>2018-09-30T07:52:24Z</time>
      </trkpt>
      <trkpt lat="43.16925" lon="0.12447">
        <ele>420</ele>
        <time>2018-09-30T07:52:25Z</time>
      </trkpt>
      <trkpt lat="43.16924" lon="0.12444">
        <ele>420</ele>
        <time>2018-09-30T07:52:26Z</time>
      </trkpt>
      <trkpt lat="43.16922" lon="0.12441">
        <ele>420</ele>
        <time>2018-09-30T07:52:27Z</time>
      </trkpt>
      <trkpt lat="43.16921" lon="0.12438">
        <ele>420</ele>
        <time>2018-09-30T07:52:28Z</time>
      </trkpt>
      <trkpt lat="43.1692" lon="0.12434">
        <ele>420</ele>
        <time>2018-09-30T07:52:29Z</time>
      </trkpt>
      <trkpt lat="43.16919" lon="0.1243">
        <ele>420</ele>
        <time>2018-09-30T07:52:30Z</time>
      </trkpt>
      <trkpt lat="43.16918" lon="0.12427">
        <ele>420</ele>
        <time>2018-09-30T07:52:31Z</time>
      </trkpt>
      <trkpt lat="43.16916" lon="0.12424">
        <ele>420</ele>
        <time>2018-09-30T07:52:32Z</time>
      </trkpt>
      <trkpt lat="43.16916" lon="0.1242">
        <ele>421</ele>
        <time>2018-09-30T07:52:33Z</time>
      </trkpt>
      <trkpt lat="43.16915" lon="0.12416">
        <ele>421</ele>
        <time>2018-09-30T07:52:34Z</time>
      </trkpt>
      <trkpt lat="43.16914" lon="0.12412">
        <ele>421</ele>
        <time>2018-09-30T07:52:35Z</time>
      </trkpt>
      <trkpt lat="43.16913" lon="0.12409">
        <ele>421</ele>
        <time>2018-09-30T07:52:36Z</time>
      </trkpt>
      <trkpt lat="43.16912" lon="0.12405">
        <ele>421</ele>
        <time>2018-09-30T07:52:37Z</time>
      </trkpt>
      <trkpt lat="43.16911" lon="0.12401">
        <ele>421</ele>
        <time>2018-09-30T07:52:38Z</time>
      </trkpt>
      <trkpt lat="43.1691" lon="0.12397">
        <ele>421</ele>
        <time>2018-09-30T07:52:39Z</time>
      </trkpt>
      <trkpt lat="43.16909" lon="0.12394">
        <ele>421</ele>
        <time>2018-09-30T07:52:40Z</time>
      </trkpt>
      <trkpt lat="43.16907" lon="0.1239">
        <ele>422</ele>
        <time>2018-09-30T07:52:41Z</time>
      </trkpt>
      <trkpt lat="43.16906" lon="0.12387">
        <ele>422</ele>
        <time>2018-09-30T07:52:42Z</time>
      </trkpt>
      <trkpt lat="43.16905" lon="0.12383">
        <ele>422</ele>
        <time>2018-09-30T07:52:43Z</time>
      </trkpt>
      <trkpt lat="43.16904" lon="0.12379">
        <ele>422</ele>
        <time>2018-09-30T07:52:44Z</time>
      </trkpt>
      <trkpt lat="43.16904" lon="0.12376">
        <ele>422</ele>
        <time>2018-09-30T07:52:45Z</time>
      </trkpt>
      <trkpt lat="43.16903" lon="0.12372">
        <ele>422</ele>
        <time>2018-09-30T07:52:46Z</time>
      </trkpt>
      <trkpt lat="43.16902" lon="0.12368">
        <ele>422</ele>
        <time>2018-09-30T07:52:47Z</time>
      </trkpt>
      <trkpt lat="43.169" lon="0.12365">
        <ele>422</ele>
        <time>2018-09-30T07:52:48Z</time>
      </trkpt>
      <trkpt lat="43.16899" lon="0.12361">
        <ele>423</ele>
        <time>2018-09-30T07:52:49Z</time>
      </trkpt>
      <trkpt lat="43.16899" lon="0.12357">
        <ele>423</ele>
        <time>2018-09-30T07:52:50Z</time>
      </trkpt>
      <trkpt lat="43.16898" lon="0.12353">
        <ele>423</ele>
        <time>2018-09-30T07:52:51Z</time>
      </trkpt>
      <trkpt lat="43.16898" lon="0.1235">
        <ele>423</ele>
        <time>2018-09-30T07:52:52Z</time>
      </trkpt>
      <trkpt lat="43.16897" lon="0.12346">
        <ele>423</ele>
        <time>2018-09-30T07:52:53Z</time>
      </trkpt>
      <trkpt lat="43.16897" lon="0.12342">
        <ele>423</ele>
        <time>2018-09-30T07:52:54Z</time>
      </trkpt>
      <trkpt lat="43.16897" lon="0.12338">
        <ele>423</ele>
        <time>2018-09-30T07:52:55Z</time>
      </trkpt>
      <trkpt lat="43.16897" lon="0.12335">
        <ele>423</ele>
        <time>2018-09-30T07:52:56Z</time>
      </trkpt>
      <trkpt lat="43.16897" lon="0.12332">
        <ele>424</ele>
        <time>2018-09-30T07:52:57Z</time>
      </trkpt>
      <trkpt lat="43.16897" lon="0.12329">
        <ele>424</ele>
        <time>2018-09-30T07:52:58Z</time>
      </trkpt>
      <trkpt lat="43.16896" lon="0.12326">
        <ele>424</ele>
        <time>2018-09-30T07:52:59Z</time>
      </trkpt>
      <trkpt lat="43.16896" lon="0.12324">
        <ele>424</ele>
        <time>2018-09-30T07:53:00Z</time>
      </trkpt>
      <trkpt lat="43.16896" lon="0.12321">
        <ele>424</ele>
        <time>2018-09-30T07:53:01Z</time>
      </trkpt>
      <trkpt lat="43.16897" lon="0.12318">
        <ele>425</ele>
        <time>2018-09-30T07:53:02Z</time>
      </trkpt>
      <trkpt lat="43.16896" lon="0.12314">
        <ele>425</ele>
        <time>2018-09-30T07:53:03Z</time>
      </trkpt>
      <trkpt lat="43.16896" lon="0.12308">
        <ele>426</ele>
        <time>2018-09-30T07:53:04Z</time>
      </trkpt>
      <trkpt lat="43.16895" lon="0.123">
        <ele>426</ele>
        <time>2018-09-30T07:53:05Z</time>
      </trkpt>
      <trkpt lat="43.16894" lon="0.12292">
        <ele>427</ele>
        <time>2018-09-30T07:53:06Z</time>
      </trkpt>
      <trkpt lat="43.16892" lon="0.12284">
        <ele>428</ele>
        <time>2018-09-30T07:53:07Z</time>
      </trkpt>
      <trkpt lat="43.1689" lon="0.12277">
        <ele>428</ele>
        <time>2018-09-30T07:53:08Z</time>
      </trkpt>
      <trkpt lat="43.16887" lon="0.12269">
        <ele>428</ele>
        <time>2018-09-30T07:53:09Z</time>
      </trkpt>
      <trkpt lat="43.16884" lon="0.12263">
        <ele>428</ele>
        <time>2018-09-30T07:53:10Z</time>
      </trkpt>
      <trkpt lat="43.16881" lon="0.12256">
        <ele>428</ele>
        <time>2018-09-30T07:53:11Z</time>
      </trkpt>
      <trkpt lat="43.16877" lon="0.12249">
        <ele>428</ele>
        <time>2018-09-30T07:53:12Z</time>
      </trkpt>
      <trkpt lat="43.16874" lon="0.12242">
        <ele>428</ele>
        <time>2018-09-30T07:53:13Z</time>
      </trkpt>
      <trkpt lat="43.16871" lon="0.12236">
        <ele>428</ele>
        <time>2018-09-30T07:53:14Z</time>
      </trkpt>
      <trkpt lat="43.16868" lon="0.12229">
        <ele>427</ele>
        <time>2018-09-30T07:53:15Z</time>
      </trkpt>
      <trkpt lat="43.16864" lon="0.12224">
        <ele>427</ele>
        <time>2018-09-30T07:53:16Z</time>
      </trkpt>
      <trkpt lat="43.1686" lon="0.12217">
        <ele>426</ele>
        <time>2018-09-30T07:53:17Z</time>
      </trkpt>
      <trkpt lat="43.16857" lon="0.12211">
        <ele>425</ele>
        <time>2018-09-30T07:53:18Z</time>
      </trkpt>
      <trkpt lat="43.16854" lon="0.12203">
        <ele>425</ele>
        <time>2018-09-30T07:53:19Z</time>
      </trkpt>
      <trkpt lat="43.16851" lon="0.12197">
        <ele>423</ele>
        <time>2018-09-30T07:53:20Z</time>
      </trkpt>
      <trkpt lat="43.16848" lon="0.12192">
        <ele>423</ele>
        <time>2018-09-30T07:53:21Z</time>
      </trkpt>
      <trkpt lat="43.16844" lon="0.12187">
        <ele>422</ele>
        <time>2018-09-30T07:53:22Z</time>
      </trkpt>
      <trkpt lat="43.16841" lon="0.12183">
        <ele>422</ele>
        <time>2018-09-30T07:53:23Z</time>
      </trkpt>
      <trkpt lat="43.16836" lon="0.1218">
        <ele>422</ele>
        <time>2018-09-30T07:53:24Z</time>
      </trkpt>
      <trkpt lat="43.16831" lon="0.12177">
        <ele>421</ele>
        <time>2018-09-30T07:53:25Z</time>
      </trkpt>
      <trkpt lat="43.16826" lon="0.12175">
        <ele>420</ele>
        <time>2018-09-30T07:53:26Z</time>
      </trkpt>
      <trkpt lat="43.16819" lon="0.12173">
        <ele>419</ele>
        <time>2018-09-30T07:53:27Z</time>
      </trkpt>
      <trkpt lat="43.16813" lon="0.12171">
        <ele>417</ele>
        <time>2018-09-30T07:53:28Z</time>
      </trkpt>
      <trkpt lat="43.16807" lon="0.1217">
        <ele>416</ele>
        <time>2018-09-30T07:53:29Z</time>
      </trkpt>
      <trkpt lat="43.168" lon="0.12169">
        <ele>415</ele>
        <time>2018-09-30T07:53:30Z</time>
      </trkpt>
      <trkpt lat="43.16791" lon="0.1217">
        <ele>413</ele>
        <time>2018-09-30T07:53:31Z</time>
      </trkpt>
      <trkpt lat="43.16783" lon="0.12169">
        <ele>411</ele>
        <time>2018-09-30T07:53:32Z</time>
      </trkpt>
      <trkpt lat="43.16776" lon="0.12169">
        <ele>410</ele>
        <time>2018-09-30T07:53:33Z</time>
      </trkpt>
      <trkpt lat="43.16768" lon="0.12168">
        <ele>408</ele>
        <time>2018-09-30T07:53:34Z</time>
      </trkpt>
      <trkpt lat="43.16758" lon="0.12166">
        <ele>407</ele>
        <time>2018-09-30T07:53:35Z</time>
      </trkpt>
      <trkpt lat="43.16747" lon="0.12163">
        <ele>405</ele>
        <time>2018-09-30T07:53:36Z</time>
      </trkpt>
      <trkpt lat="43.16736" lon="0.1216">
        <ele>404</ele>
        <time>2018-09-30T07:53:37Z</time>
      </trkpt>
      <trkpt lat="43.16726" lon="0.12156">
        <ele>403</ele>
        <time>2018-09-30T07:53:38Z</time>
      </trkpt>
      <trkpt lat="43.16717" lon="0.1215">
        <ele>402</ele>
        <time>2018-09-30T07:53:39Z</time>
      </trkpt>
      <trkpt lat="43.16708" lon="0.12145">
        <ele>401</ele>
        <time>2018-09-30T07:53:40Z</time>
      </trkpt>
      <trkpt lat="43.16702" lon="0.1214">
        <ele>400</ele>
        <time>2018-09-30T07:53:41Z</time>
      </trkpt>
      <trkpt lat="43.16694" lon="0.12136">
        <ele>400</ele>
        <time>2018-09-30T07:53:42Z</time>
      </trkpt>
      <trkpt lat="43.16687" lon="0.1213">
        <ele>399</ele>
        <time>2018-09-30T07:53:43Z</time>
      </trkpt>
      <trkpt lat="43.16683" lon="0.12125">
        <ele>399</ele>
        <time>2018-09-30T07:53:44Z</time>
      </trkpt>
      <trkpt lat="43.16678" lon="0.12122">
        <ele>399</ele>
        <time>2018-09-30T07:53:45Z</time>
      </trkpt>
      <trkpt lat="43.16672" lon="0.12119">
        <ele>399</ele>
        <time>2018-09-30T07:53:46Z</time>
      </trkpt>
      <trkpt lat="43.16667" lon="0.12121">
        <ele>399</ele>
        <time>2018-09-30T07:53:47Z</time>
      </trkpt>
      <trkpt lat="43.16663" lon="0.12124">
        <ele>398</ele>
        <time>2018-09-30T07:53:48Z</time>
      </trkpt>
      <trkpt lat="43.16659" lon="0.12127">
        <ele>398</ele>
        <time>2018-09-30T07:53:49Z</time>
      </trkpt>
      <trkpt lat="43.16655" lon="0.12131">
        <ele>399</ele>
        <time>2018-09-30T07:53:50Z</time>
      </trkpt>
      <trkpt lat="43.16652" lon="0.12135">
        <ele>399</ele>
        <time>2018-09-30T07:53:51Z</time>
      </trkpt>
      <trkpt lat="43.16649" lon="0.12138">
        <ele>399</ele>
        <time>2018-09-30T07:53:52Z</time>
      </trkpt>
      <trkpt lat="43.16647" lon="0.12142">
        <ele>399</ele>
        <time>2018-09-30T07:53:53Z</time>
      </trkpt>
      <trkpt lat="43.16644" lon="0.12145">
        <ele>399</ele>
        <time>2018-09-30T07:53:54Z</time>
      </trkpt>
      <trkpt lat="43.16641" lon="0.1215">
        <ele>399</ele>
        <time>2018-09-30T07:53:55Z</time>
      </trkpt>
      <trkpt lat="43.16638" lon="0.12153">
        <ele>399</ele>
        <time>2018-09-30T07:53:56Z</time>
      </trkpt>
      <trkpt lat="43.16635" lon="0.12157">
        <ele>399</ele>
        <time>2018-09-30T07:53:57Z</time>
      </trkpt>
      <trkpt lat="43.16632" lon="0.12161">
        <ele>399</ele>
        <time>2018-09-30T07:53:58Z</time>
      </trkpt>
      <trkpt lat="43.1663" lon="0.12165">
        <ele>400</ele>
        <time>2018-09-30T07:53:59Z</time>
      </trkpt>
      <trkpt lat="43.16627" lon="0.1217">
        <ele>400</ele>
        <time>2018-09-30T07:54:00Z</time>
      </trkpt>
      <trkpt lat="43.16625" lon="0.12174">
        <ele>400</ele>
        <time>2018-09-30T07:54:01Z</time>
      </trkpt>
      <trkpt lat="43.16622" lon="0.12177">
        <ele>401</ele>
        <time>2018-09-30T07:54:02Z</time>
      </trkpt>
      <trkpt lat="43.16619" lon="0.12181">
        <ele>401</ele>
        <time>2018-09-30T07:54:03Z</time>
      </trkpt>
      <trkpt lat="43.16616" lon="0.12185">
        <ele>401</ele>
        <time>2018-09-30T07:54:04Z</time>
      </trkpt>
      <trkpt lat="43.16614" lon="0.1219">
        <ele>401</ele>
        <time>2018-09-30T07:54:05Z</time>
      </trkpt>
      <trkpt lat="43.16611" lon="0.12195">
        <ele>402</ele>
        <time>2018-09-30T07:54:06Z</time>
      </trkpt>
      <trkpt lat="43.16609" lon="0.122">
        <ele>403</ele>
        <time>2018-09-30T07:54:07Z</time>
      </trkpt>
      <trkpt lat="43.16607" lon="0.12205">
        <ele>403</ele>
        <time>2018-09-30T07:54:08Z</time>
      </trkpt>
      <trkpt lat="43.16605" lon="0.12209">
        <ele>403</ele>
        <time>2018-09-30T07:54:09Z</time>
      </trkpt>
      <trkpt lat="43.16603" lon="0.12214">
        <ele>403</ele>
        <time>2018-09-30T07:54:10Z</time>
      </trkpt>
      <trkpt lat="43.16602" lon="0.12218">
        <ele>403</ele>
        <time>2018-09-30T07:54:11Z</time>
      </trkpt>
      <trkpt lat="43.16601" lon="0.12223">
        <ele>404</ele>
        <time>2018-09-30T07:54:12Z</time>
      </trkpt>
      <trkpt lat="43.16599" lon="0.12227">
        <ele>404</ele>
        <time>2018-09-30T07:54:13Z</time>
      </trkpt>
      <trkpt lat="43.16597" lon="0.12229">
        <ele>404</ele>
        <time>2018-09-30T07:54:14Z</time>
      </trkpt>
      <trkpt lat="43.16595" lon="0.12232">
        <ele>404</ele>
        <time>2018-09-30T07:54:15Z</time>
      </trkpt>
      <trkpt lat="43.16593" lon="0.12235">
        <ele>404</ele>
        <time>2018-09-30T07:54:16Z</time>
      </trkpt>
      <trkpt lat="43.16592" lon="0.12238">
        <ele>404</ele>
        <time>2018-09-30T07:54:17Z</time>
      </trkpt>
      <trkpt lat="43.16591" lon="0.12241">
        <ele>404</ele>
        <time>2018-09-30T07:54:18Z</time>
      </trkpt>
      <trkpt lat="43.16589" lon="0.12244">
        <ele>404</ele>
        <time>2018-09-30T07:54:19Z</time>
      </trkpt>
      <trkpt lat="43.16587" lon="0.12246">
        <ele>404</ele>
        <time>2018-09-30T07:54:20Z</time>
      </trkpt>
      <trkpt lat="43.16586" lon="0.12248">
        <ele>404</ele>
        <time>2018-09-30T07:54:21Z</time>
      </trkpt>
      <trkpt lat="43.16584" lon="0.12249">
        <ele>404</ele>
        <time>2018-09-30T07:54:22Z</time>
      </trkpt>
      <trkpt lat="43.16582" lon="0.1225">
        <ele>404</ele>
        <time>2018-09-30T07:54:23Z</time>
      </trkpt>
      <trkpt lat="43.16579" lon="0.1225">
        <ele>405</ele>
        <time>2018-09-30T07:54:24Z</time>
      </trkpt>
      <trkpt lat="43.16577" lon="0.12249">
        <ele>405</ele>
        <time>2018-09-30T07:54:25Z</time>
      </trkpt>
      <trkpt lat="43.16575" lon="0.1225">
        <ele>405</ele>
        <time>2018-09-30T07:54:26Z</time>
      </trkpt>
      <trkpt lat="43.16573" lon="0.12249">
        <ele>405</ele>
        <time>2018-09-30T07:54:27Z</time>
      </trkpt>
      <trkpt lat="43.1657" lon="0.12249">
        <ele>405</ele>
        <time>2018-09-30T07:54:28Z</time>
      </trkpt>
      <trkpt lat="43.16568" lon="0.12251">
        <ele>405</ele>
        <time>2018-09-30T07:54:29Z</time>
      </trkpt>
      <trkpt lat="43.16565" lon="0.12253">
        <ele>405</ele>
        <time>2018-09-30T07:54:30Z</time>
      </trkpt>
      <trkpt lat="43.16561" lon="0.12255">
        <ele>405</ele>
        <time>2018-09-30T07:54:31Z</time>
      </trkpt>
      <trkpt lat="43.16558" lon="0.12257">
        <ele>405</ele>
        <time>2018-09-30T07:54:32Z</time>
      </trkpt>
      <trkpt lat="43.16555" lon="0.12257">
        <ele>405</ele>
        <time>2018-09-30T07:54:33Z</time>
      </trkpt>
      <trkpt lat="43.16551" lon="0.12258">
        <ele>405</ele>
        <time>2018-09-30T07:54:34Z</time>
      </trkpt>
      <trkpt lat="43.16547" lon="0.12257">
        <ele>405</ele>
        <time>2018-09-30T07:54:35Z</time>
      </trkpt>
      <trkpt lat="43.16544" lon="0.12254">
        <ele>405</ele>
        <time>2018-09-30T07:54:36Z</time>
      </trkpt>
      <trkpt lat="43.16541" lon="0.12253">
        <ele>405</ele>
        <time>2018-09-30T07:54:37Z</time>
      </trkpt>
      <trkpt lat="43.16538" lon="0.12252">
        <ele>406</ele>
        <time>2018-09-30T07:54:38Z</time>
      </trkpt>
      <trkpt lat="43.16536" lon="0.12251">
        <ele>406</ele>
        <time>2018-09-30T07:54:39Z</time>
      </trkpt>
      <trkpt lat="43.16533" lon="0.12249">
        <ele>406</ele>
        <time>2018-09-30T07:54:40Z</time>
      </trkpt>
      <trkpt lat="43.16531" lon="0.12247">
        <ele>406</ele>
        <time>2018-09-30T07:54:41Z</time>
      </trkpt>
      <trkpt lat="43.16528" lon="0.12244">
        <ele>406</ele>
        <time>2018-09-30T07:54:42Z</time>
      </trkpt>
      <trkpt lat="43.16525" lon="0.12245">
        <ele>406</ele>
        <time>2018-09-30T07:54:43Z</time>
      </trkpt>
      <trkpt lat="43.16522" lon="0.12245">
        <ele>406</ele>
        <time>2018-09-30T07:54:44Z</time>
      </trkpt>
      <trkpt lat="43.16516" lon="0.12243">
        <ele>406</ele>
        <time>2018-09-30T07:54:45Z</time>
      </trkpt>
      <trkpt lat="43.1651" lon="0.12243">
        <ele>406</ele>
        <time>2018-09-30T07:54:46Z</time>
      </trkpt>
      <trkpt lat="43.16504" lon="0.12242">
        <ele>406</ele>
        <time>2018-09-30T07:54:47Z</time>
      </trkpt>
      <trkpt lat="43.16497" lon="0.12243">
        <ele>406</ele>
        <time>2018-09-30T07:54:48Z</time>
      </trkpt>
      <trkpt lat="43.16486" lon="0.12249">
        <ele>406</ele>
        <time>2018-09-30T07:54:49Z</time>
      </trkpt>
      <trkpt lat="43.16475" lon="0.12253">
        <ele>405</ele>
        <time>2018-09-30T07:54:50Z</time>
      </trkpt>
      <trkpt lat="43.16468" lon="0.12256">
        <ele>405</ele>
        <time>2018-09-30T07:54:51Z</time>
      </trkpt>
      <trkpt lat="43.16461" lon="0.12258">
        <ele>405</ele>
        <time>2018-09-30T07:54:52Z</time>
      </trkpt>
      <trkpt lat="43.16457" lon="0.12259">
        <ele>405</ele>
        <time>2018-09-30T07:54:53Z</time>
      </trkpt>
      <trkpt lat="43.16452" lon="0.1226">
        <ele>404</ele>
        <time>2018-09-30T07:54:54Z</time>
      </trkpt>
      <trkpt lat="43.16445" lon="0.12263">
        <ele>404</ele>
        <time>2018-09-30T07:54:55Z</time>
      </trkpt>
      <trkpt lat="43.1644" lon="0.12266">
        <ele>404</ele>
        <time>2018-09-30T07:54:56Z</time>
      </trkpt>
      <trkpt lat="43.16435" lon="0.12269">
        <ele>404</ele>
        <time>2018-09-30T07:54:57Z</time>
      </trkpt>
      <trkpt lat="43.1643" lon="0.12272">
        <ele>404</ele>
        <time>2018-09-30T07:54:58Z</time>
      </trkpt>
      <trkpt lat="43.16425" lon="0.12273">
        <ele>404</ele>
        <time>2018-09-30T07:54:59Z</time>
      </trkpt>
      <trkpt lat="43.1642" lon="0.12275">
        <ele>403</ele>
        <time>2018-09-30T07:55:00Z</time>
      </trkpt>
      <trkpt lat="43.16416" lon="0.12275">
        <ele>403</ele>
        <time>2018-09-30T07:55:01Z</time>
      </trkpt>
      <trkpt lat="43.1641" lon="0.12277">
        <ele>402</ele>
        <time>2018-09-30T07:55:02Z</time>
      </trkpt>
      <trkpt lat="43.16407" lon="0.12278">
        <ele>402</ele>
        <time>2018-09-30T07:55:03Z</time>
      </trkpt>
      <trkpt lat="43.16403" lon="0.12279">
        <ele>402</ele>
        <time>2018-09-30T07:55:04Z</time>
      </trkpt>
      <trkpt lat="43.16396" lon="0.12283">
        <ele>402</ele>
        <time>2018-09-30T07:55:05Z</time>
      </trkpt>
      <trkpt lat="43.1639" lon="0.12286">
        <ele>402</ele>
        <time>2018-09-30T07:55:06Z</time>
      </trkpt>
      <trkpt lat="43.16385" lon="0.12289">
        <ele>402</ele>
        <time>2018-09-30T07:55:07Z</time>
      </trkpt>
      <trkpt lat="43.16378" lon="0.12292">
        <ele>402</ele>
        <time>2018-09-30T07:55:08Z</time>
      </trkpt>
      <trkpt lat="43.16373" lon="0.12294">
        <ele>402</ele>
        <time>2018-09-30T07:55:09Z</time>
      </trkpt>
      <trkpt lat="43.16368" lon="0.12296">
        <ele>402</ele>
        <time>2018-09-30T07:55:10Z</time>
      </trkpt>
      <trkpt lat="43.16362" lon="0.12298">
        <ele>402</ele>
        <time>2018-09-30T07:55:11Z</time>
      </trkpt>
      <trkpt lat="43.16357" lon="0.123">
        <ele>403</ele>
        <time>2018-09-30T07:55:12Z</time>
      </trkpt>
      <trkpt lat="43.16354" lon="0.12301">
        <ele>403</ele>
        <time>2018-09-30T07:55:13Z</time>
      </trkpt>
      <trkpt lat="43.1635" lon="0.12301">
        <ele>403</ele>
        <time>2018-09-30T07:55:14Z</time>
      </trkpt>
      <trkpt lat="43.16345" lon="0.12303">
        <ele>403</ele>
        <time>2018-09-30T07:55:15Z</time>
      </trkpt>
      <trkpt lat="43.1634" lon="0.12304">
        <ele>403</ele>
        <time>2018-09-30T07:55:16Z</time>
      </trkpt>
      <trkpt lat="43.16334" lon="0.12306">
        <ele>403</ele>
        <time>2018-09-30T07:55:17Z</time>
      </trkpt>
      <trkpt lat="43.16329" lon="0.12306">
        <ele>404</ele>
        <time>2018-09-30T07:55:18Z</time>
      </trkpt>
      <trkpt lat="43.16325" lon="0.12308">
        <ele>404</ele>
        <time>2018-09-30T07:55:19Z</time>
      </trkpt>
      <trkpt lat="43.1632" lon="0.1231">
        <ele>404</ele>
        <time>2018-09-30T07:55:20Z</time>
      </trkpt>
      <trkpt lat="43.16315" lon="0.12311">
        <ele>404</ele>
        <time>2018-09-30T07:55:21Z</time>
      </trkpt>
      <trkpt lat="43.16311" lon="0.12312">
        <ele>404</ele>
        <time>2018-09-30T07:55:22Z</time>
      </trkpt>
      <trkpt lat="43.16306" lon="0.12313">
        <ele>404</ele>
        <time>2018-09-30T07:55:23Z</time>
      </trkpt>
      <trkpt lat="43.16301" lon="0.12313">
        <ele>404</ele>
        <time>2018-09-30T07:55:24Z</time>
      </trkpt>
      <trkpt lat="43.16296" lon="0.12315">
        <ele>405</ele>
        <time>2018-09-30T07:55:25Z</time>
      </trkpt>
      <trkpt lat="43.16292" lon="0.12316">
        <ele>405</ele>
        <time>2018-09-30T07:55:26Z</time>
      </trkpt>
      <trkpt lat="43.16286" lon="0.12317">
        <ele>406</ele>
        <time>2018-09-30T07:55:27Z</time>
      </trkpt>
      <trkpt lat="43.16281" lon="0.12318">
        <ele>406</ele>
        <time>2018-09-30T07:55:28Z</time>
      </trkpt>
      <trkpt lat="43.16276" lon="0.12319">
        <ele>406</ele>
        <time>2018-09-30T07:55:29Z</time>
      </trkpt>
      <trkpt lat="43.16271" lon="0.12319">
        <ele>406</ele>
        <time>2018-09-30T07:55:30Z</time>
      </trkpt>
      <trkpt lat="43.16266" lon="0.1232">
        <ele>406</ele>
        <time>2018-09-30T07:55:31Z</time>
      </trkpt>
      <trkpt lat="43.16263" lon="0.1232">
        <ele>406</ele>
        <time>2018-09-30T07:55:32Z</time>
      </trkpt>
      <trkpt lat="43.1626" lon="0.1232">
        <ele>406</ele>
        <time>2018-09-30T07:55:33Z</time>
      </trkpt>
      <trkpt lat="43.1626" lon="0.1232">
        <ele>406</ele>
        <time>2018-09-30T07:55:34Z</time>
      </trkpt>
      <trkpt lat="43.1626" lon="0.1232">
        <ele>406</ele>
        <time>2018-09-30T07:55:35Z</time>
      </trkpt>
      <trkpt lat="43.1626" lon="0.1232">
        <ele>406</ele>
        <time>2018-09-30T07:55:36Z</time>
      </trkpt>
      <trkpt lat="43.1626" lon="0.1232">
        <ele>406</ele>
        <time>2018-09-30T07:55:37Z</time>
      </trkpt>
      <trkpt lat="43.1626" lon="0.1232">
        <ele>406</ele>
        <time>2018-09-30T07:55:38Z</time>
      </trkpt>
      <trkpt lat="43.1626" lon="0.1232">
        <ele>406</ele>
        <time>2018-09-30T07:55:39Z</time>
      </trkpt>
      <trkpt lat="43.1626" lon="0.1232">
        <ele>406</ele>
        <time>2018-09-30T07:55:40Z</time>
      </trkpt>
      <trkpt lat="43.1626" lon="0.1232">
        <ele>406</ele>
        <time>2018-09-30T07:55:41Z</time>
      </trkpt>
      <trkpt lat="43.1626" lon="0.1232">
        <ele>406</ele>
        <time>2018-09-30T07:55:42Z</time>
      </trkpt>
      <trkpt lat="43.16255" lon="0.12308">
        <ele>406</ele>
        <time>2018-09-30T07:55:43Z</time>
      </trkpt>
      <trkpt lat="43.16255" lon="0.12308">
        <ele>406</ele>
        <time>2018-09-30T07:55:44Z</time>
      </trkpt>
      <trkpt lat="43.16255" lon="0.12308">
        <ele>406</ele>
        <time>2018-09-30T07:55:45Z</time>
      </trkpt>
      <trkpt lat="43.16255" lon="0.12308">
        <ele>406</ele>
        <time>2018-09-30T07:55:46Z</time>
      </trkpt>
      <trkpt lat="43.16255" lon="0.12308">
        <ele>406</ele>
        <time>2018-09-30T07:55:47Z</time>
      </trkpt>
      <trkpt lat="43.16246" lon="0.12294">
        <ele>406</ele>
        <time>2018-09-30T07:55:48Z</time>
      </trkpt>
      <trkpt lat="43.16246" lon="0.12294">
        <ele>406</ele>
        <time>2018-09-30T07:55:49Z</time>
      </trkpt>
      <trkpt lat="43.16246" lon="0.12294">
        <ele>406</ele>
        <time>2018-09-30T07:55:50Z</time>
      </trkpt>
      <trkpt lat="43.1624" lon="0.12286">
        <ele>406</ele>
        <time>2018-09-30T07:55:51Z</time>
      </trkpt>
      <trkpt lat="43.16239" lon="0.12282">
        <ele>406</ele>
        <time>2018-09-30T07:55:52Z</time>
      </trkpt>
      <trkpt lat="43.16237" lon="0.12277">
        <ele>406</ele>
        <time>2018-09-30T07:55:53Z</time>
      </trkpt>
      <trkpt lat="43.16236" lon="0.12271">
        <ele>406</ele>
        <time>2018-09-30T07:55:54Z</time>
      </trkpt>
      <trkpt lat="43.16234" lon="0.12268">
        <ele>406</ele>
        <time>2018-09-30T07:55:55Z</time>
      </trkpt>
      <trkpt lat="43.16232" lon="0.12263">
        <ele>405</ele>
        <time>2018-09-30T07:55:56Z</time>
      </trkpt>
      <trkpt lat="43.16228" lon="0.12249">
        <ele>405</ele>
        <time>2018-09-30T07:55:57Z</time>
      </trkpt>
      <trkpt lat="43.16228" lon="0.12249">
        <ele>405</ele>
        <time>2018-09-30T07:55:58Z</time>
      </trkpt>
      <trkpt lat="43.16224" lon="0.12233">
        <ele>405</ele>
        <time>2018-09-30T07:55:59Z</time>
      </trkpt>
      <trkpt lat="43.16221" lon="0.12221">
        <ele>405</ele>
        <time>2018-09-30T07:56:00Z</time>
      </trkpt>
      <trkpt lat="43.16219" lon="0.12213">
        <ele>405</ele>
        <time>2018-09-30T07:56:01Z</time>
      </trkpt>
      <trkpt lat="43.16219" lon="0.12213">
        <ele>405</ele>
        <time>2018-09-30T07:56:02Z</time>
      </trkpt>
      <trkpt lat="43.16219" lon="0.12213">
        <ele>405</ele>
        <time>2018-09-30T07:56:03Z</time>
      </trkpt>
      <trkpt lat="43.16219" lon="0.12213">
        <ele>405</ele>
        <time>2018-09-30T07:56:04Z</time>
      </trkpt>
      <trkpt lat="43.16216" lon="0.12198">
        <ele>404</ele>
        <time>2018-09-30T07:56:05Z</time>
      </trkpt>
      <trkpt lat="43.16216" lon="0.12198">
        <ele>404</ele>
        <time>2018-09-30T07:56:06Z</time>
      </trkpt>
      <trkpt lat="43.16216" lon="0.12198">
        <ele>404</ele>
        <time>2018-09-30T07:56:07Z</time>
      </trkpt>
      <trkpt lat="43.1621" lon="0.12184">
        <ele>404</ele>
        <time>2018-09-30T07:56:08Z</time>
      </trkpt>
      <trkpt lat="43.16208" lon="0.12182">
        <ele>404</ele>
        <time>2018-09-30T07:56:09Z</time>
      </trkpt>
      <trkpt lat="43.16203" lon="0.12179">
        <ele>404</ele>
        <time>2018-09-30T07:56:10Z</time>
      </trkpt>
      <trkpt lat="43.162" lon="0.12177">
        <ele>404</ele>
        <time>2018-09-30T07:56:11Z</time>
      </trkpt>
      <trkpt lat="43.162" lon="0.12177">
        <ele>404</ele>
        <time>2018-09-30T07:56:12Z</time>
      </trkpt>
      <trkpt lat="43.162" lon="0.12177">
        <ele>404</ele>
        <time>2018-09-30T07:56:13Z</time>
      </trkpt>
      <trkpt lat="43.162" lon="0.12177">
        <ele>404</ele>
        <time>2018-09-30T07:56:14Z</time>
      </trkpt>
      <trkpt lat="43.162" lon="0.12177">
        <ele>404</ele>
        <time>2018-09-30T07:56:15Z</time>
      </trkpt>
      <trkpt lat="43.16192" lon="0.12168">
        <ele>404</ele>
        <time>2018-09-30T07:56:16Z</time>
      </trkpt>
      <trkpt lat="43.1619" lon="0.12164">
        <ele>404</ele>
        <time>2018-09-30T07:56:17Z</time>
      </trkpt>
      <trkpt lat="43.16188" lon="0.1216">
        <ele>404</ele>
        <time>2018-09-30T07:56:18Z</time>
      </trkpt>
      <trkpt lat="43.16186" lon="0.12157">
        <ele>404</ele>
        <time>2018-09-30T07:56:19Z</time>
      </trkpt>
      <trkpt lat="43.16184" lon="0.12154">
        <ele>404</ele>
        <time>2018-09-30T07:56:20Z</time>
      </trkpt>
      <trkpt lat="43.16182" lon="0.12148">
        <ele>404</ele>
        <time>2018-09-30T07:56:21Z</time>
      </trkpt>
      <trkpt lat="43.16181" lon="0.12145">
        <ele>404</ele>
        <time>2018-09-30T07:56:22Z</time>
      </trkpt>
      <trkpt lat="43.16179" lon="0.1214">
        <ele>404</ele>
        <time>2018-09-30T07:56:23Z</time>
      </trkpt>
      <trkpt lat="43.16178" lon="0.12137">
        <ele>404</ele>
        <time>2018-09-30T07:56:24Z</time>
      </trkpt>
      <trkpt lat="43.16178" lon="0.12134">
        <ele>404</ele>
        <time>2018-09-30T07:56:25Z</time>
      </trkpt>
      <trkpt lat="43.16177" lon="0.12131">
        <ele>404</ele>
        <time>2018-09-30T07:56:26Z</time>
      </trkpt>
      <trkpt lat="43.16174" lon="0.12126">
        <ele>404</ele>
        <time>2018-09-30T07:56:27Z</time>
      </trkpt>
      <trkpt lat="43.16173" lon="0.12124">
        <ele>404</ele>
        <time>2018-09-30T07:56:28Z</time>
      </trkpt>
      <trkpt lat="43.16171" lon="0.12122">
        <ele>404</ele>
        <time>2018-09-30T07:56:29Z</time>
      </trkpt>
      <trkpt lat="43.16169" lon="0.12121">
        <ele>404</ele>
        <time>2018-09-30T07:56:30Z</time>
      </trkpt>
      <trkpt lat="43.16166" lon="0.12119">
        <ele>404</ele>
        <time>2018-09-30T07:56:31Z</time>
      </trkpt>
      <trkpt lat="43.16159" lon="0.12116">
        <ele>404</ele>
        <time>2018-09-30T07:56:32Z</time>
      </trkpt>
      <trkpt lat="43.16155" lon="0.12116">
        <ele>404</ele>
        <time>2018-09-30T07:56:33Z</time>
      </trkpt>
      <trkpt lat="43.1615" lon="0.12114">
        <ele>405</ele>
        <time>2018-09-30T07:56:34Z</time>
      </trkpt>
      <trkpt lat="43.16146" lon="0.12113">
        <ele>405</ele>
        <time>2018-09-30T07:56:35Z</time>
      </trkpt>
      <trkpt lat="43.16142" lon="0.12113">
        <ele>405</ele>
        <time>2018-09-30T07:56:36Z</time>
      </trkpt>
      <trkpt lat="43.16138" lon="0.12112">
        <ele>405</ele>
        <time>2018-09-30T07:56:37Z</time>
      </trkpt>
      <trkpt lat="43.16135" lon="0.1211">
        <ele>405</ele>
        <time>2018-09-30T07:56:38Z</time>
      </trkpt>
      <trkpt lat="43.16131" lon="0.12109">
        <ele>405</ele>
        <time>2018-09-30T07:56:39Z</time>
      </trkpt>
      <trkpt lat="43.16126" lon="0.12109">
        <ele>405</ele>
        <time>2018-09-30T07:56:40Z</time>
      </trkpt>
      <trkpt lat="43.16121" lon="0.12107">
        <ele>405</ele>
        <time>2018-09-30T07:56:41Z</time>
      </trkpt>
      <trkpt lat="43.16116" lon="0.12104">
        <ele>405</ele>
        <time>2018-09-30T07:56:42Z</time>
      </trkpt>
      <trkpt lat="43.16112" lon="0.12102">
        <ele>405</ele>
        <time>2018-09-30T07:56:43Z</time>
      </trkpt>
      <trkpt lat="43.16109" lon="0.12101">
        <ele>405</ele>
        <time>2018-09-30T07:56:44Z</time>
      </trkpt>
      <trkpt lat="43.16107" lon="0.12098">
        <ele>405</ele>
        <time>2018-09-30T07:56:45Z</time>
      </trkpt>
      <trkpt lat="43.16105" lon="0.12095">
        <ele>405</ele>
        <time>2018-09-30T07:56:46Z</time>
      </trkpt>
      <trkpt lat="43.16103" lon="0.1209">
        <ele>405</ele>
        <time>2018-09-30T07:56:47Z</time>
      </trkpt>
      <trkpt lat="43.16102" lon="0.12087">
        <ele>405</ele>
        <time>2018-09-30T07:56:48Z</time>
      </trkpt>
      <trkpt lat="43.16101" lon="0.12083">
        <ele>404</ele>
        <time>2018-09-30T07:56:49Z</time>
      </trkpt>
      <trkpt lat="43.16098" lon="0.12075">
        <ele>404</ele>
        <time>2018-09-30T07:56:50Z</time>
      </trkpt>
      <trkpt lat="43.16096" lon="0.1207">
        <ele>404</ele>
        <time>2018-09-30T07:56:51Z</time>
      </trkpt>
      <trkpt lat="43.16094" lon="0.12066">
        <ele>404</ele>
        <time>2018-09-30T07:56:52Z</time>
      </trkpt>
      <trkpt lat="43.16092" lon="0.1206">
        <ele>404</ele>
        <time>2018-09-30T07:56:53Z</time>
      </trkpt>
      <trkpt lat="43.1609" lon="0.12055">
        <ele>404</ele>
        <time>2018-09-30T07:56:54Z</time>
      </trkpt>
      <trkpt lat="43.16089" lon="0.12051">
        <ele>404</ele>
        <time>2018-09-30T07:56:55Z</time>
      </trkpt>
      <trkpt lat="43.16087" lon="0.12044">
        <ele>404</ele>
        <time>2018-09-30T07:56:56Z</time>
      </trkpt>
      <trkpt lat="43.16086" lon="0.12037">
        <ele>404</ele>
        <time>2018-09-30T07:56:57Z</time>
      </trkpt>
      <trkpt lat="43.16085" lon="0.12027">
        <ele>404</ele>
        <time>2018-09-30T07:56:58Z</time>
      </trkpt>
      <trkpt lat="43.16084" lon="0.12019">
        <ele>404</ele>
        <time>2018-09-30T07:56:59Z</time>
      </trkpt>
      <trkpt lat="43.16083" lon="0.12012">
        <ele>403</ele>
        <time>2018-09-30T07:57:00Z</time>
      </trkpt>
      <trkpt lat="43.16081" lon="0.12006">
        <ele>403</ele>
        <time>2018-09-30T07:57:01Z</time>
      </trkpt>
      <trkpt lat="43.16077" lon="0.12">
        <ele>403</ele>
        <time>2018-09-30T07:57:02Z</time>
      </trkpt>
      <trkpt lat="43.16073" lon="0.11998">
        <ele>403</ele>
        <time>2018-09-30T07:57:03Z</time>
      </trkpt>
      <trkpt lat="43.1607" lon="0.11999">
        <ele>403</ele>
        <time>2018-09-30T07:57:04Z</time>
      </trkpt>
      <trkpt lat="43.16067" lon="0.11999">
        <ele>403</ele>
        <time>2018-09-30T07:57:05Z</time>
      </trkpt>
      <trkpt lat="43.16063" lon="0.11998">
        <ele>403</ele>
        <time>2018-09-30T07:57:06Z</time>
      </trkpt>
      <trkpt lat="43.16059" lon="0.11998">
        <ele>403</ele>
        <time>2018-09-30T07:57:07Z</time>
      </trkpt>
      <trkpt lat="43.16056" lon="0.11998">
        <ele>403</ele>
        <time>2018-09-30T07:57:08Z</time>
      </trkpt>
      <trkpt lat="43.16052" lon="0.11998">
        <ele>403</ele>
        <time>2018-09-30T07:57:09Z</time>
      </trkpt>
      <trkpt lat="43.16047" lon="0.11997">
        <ele>403</ele>
        <time>2018-09-30T07:57:10Z</time>
      </trkpt>
      <trkpt lat="43.16042" lon="0.11996">
        <ele>403</ele>
        <time>2018-09-30T07:57:11Z</time>
      </trkpt>
      <trkpt lat="43.16038" lon="0.11996">
        <ele>403</ele>
        <time>2018-09-30T07:57:12Z</time>
      </trkpt>
      <trkpt lat="43.16035" lon="0.11994">
        <ele>402</ele>
        <time>2018-09-30T07:57:13Z</time>
      </trkpt>
      <trkpt lat="43.16031" lon="0.11993">
        <ele>402</ele>
        <time>2018-09-30T07:57:14Z</time>
      </trkpt>
      <trkpt lat="43.16026" lon="0.11992">
        <ele>402</ele>
        <time>2018-09-30T07:57:15Z</time>
      </trkpt>
      <trkpt lat="43.16022" lon="0.11991">
        <ele>402</ele>
        <time>2018-09-30T07:57:16Z</time>
      </trkpt>
      <trkpt lat="43.16018" lon="0.11991">
        <ele>402</ele>
        <time>2018-09-30T07:57:17Z</time>
      </trkpt>
      <trkpt lat="43.16014" lon="0.1199">
        <ele>402</ele>
        <time>2018-09-30T07:57:18Z</time>
      </trkpt>
      <trkpt lat="43.1601" lon="0.1199">
        <ele>402</ele>
        <time>2018-09-30T07:57:19Z</time>
      </trkpt>
      <trkpt lat="43.16006" lon="0.11989">
        <ele>402</ele>
        <time>2018-09-30T07:57:20Z</time>
      </trkpt>
      <trkpt lat="43.16001" lon="0.11988">
        <ele>402</ele>
        <time>2018-09-30T07:57:21Z</time>
      </trkpt>
      <trkpt lat="43.15997" lon="0.11987">
        <ele>402</ele>
        <time>2018-09-30T07:57:22Z</time>
      </trkpt>
      <trkpt lat="43.15993" lon="0.11985">
        <ele>402</ele>
        <time>2018-09-30T07:57:23Z</time>
      </trkpt>
      <trkpt lat="43.15989" lon="0.11984">
        <ele>402</ele>
        <time>2018-09-30T07:57:24Z</time>
      </trkpt>
      <trkpt lat="43.15984" lon="0.11982">
        <ele>402</ele>
        <time>2018-09-30T07:57:25Z</time>
      </trkpt>
      <trkpt lat="43.1598" lon="0.1198">
        <ele>402</ele>
        <time>2018-09-30T07:57:26Z</time>
      </trkpt>
      <trkpt lat="43.15976" lon="0.11979">
        <ele>402</ele>
        <time>2018-09-30T07:57:27Z</time>
      </trkpt>
      <trkpt lat="43.15972" lon="0.11978">
        <ele>402</ele>
        <time>2018-09-30T07:57:28Z</time>
      </trkpt>
      <trkpt lat="43.15968" lon="0.11977">
        <ele>403</ele>
        <time>2018-09-30T07:57:29Z</time>
      </trkpt>
      <trkpt lat="43.15963" lon="0.11976">
        <ele>403</ele>
        <time>2018-09-30T07:57:30Z</time>
      </trkpt>
      <trkpt lat="43.15958" lon="0.11975">
        <ele>403</ele>
        <time>2018-09-30T07:57:31Z</time>
      </trkpt>
      <trkpt lat="43.15954" lon="0.11975">
        <ele>403</ele>
        <time>2018-09-30T07:57:32Z</time>
      </trkpt>
      <trkpt lat="43.1595" lon="0.11974">
        <ele>403</ele>
        <time>2018-09-30T07:57:33Z</time>
      </trkpt>
      <trkpt lat="43.15947" lon="0.11973">
        <ele>403</ele>
        <time>2018-09-30T07:57:34Z</time>
      </trkpt>
      <trkpt lat="43.15943" lon="0.11972">
        <ele>403</ele>
        <time>2018-09-30T07:57:35Z</time>
      </trkpt>
      <trkpt lat="43.15939" lon="0.1197">
        <ele>403</ele>
        <time>2018-09-30T07:57:36Z</time>
      </trkpt>
      <trkpt lat="43.15934" lon="0.11968">
        <ele>403</ele>
        <time>2018-09-30T07:57:37Z</time>
      </trkpt>
      <trkpt lat="43.15931" lon="0.11968">
        <ele>403</ele>
        <time>2018-09-30T07:57:38Z</time>
      </trkpt>
      <trkpt lat="43.15927" lon="0.11968">
        <ele>403</ele>
        <time>2018-09-30T07:57:39Z</time>
      </trkpt>
      <trkpt lat="43.15924" lon="0.11967">
        <ele>403</ele>
        <time>2018-09-30T07:57:40Z</time>
      </trkpt>
      <trkpt lat="43.1592" lon="0.11965">
        <ele>403</ele>
        <time>2018-09-30T07:57:41Z</time>
      </trkpt>
      <trkpt lat="43.15916" lon="0.11963">
        <ele>403</ele>
        <time>2018-09-30T07:57:42Z</time>
      </trkpt>
      <trkpt lat="43.15911" lon="0.11962">
        <ele>403</ele>
        <time>2018-09-30T07:57:43Z</time>
      </trkpt>
      <trkpt lat="43.15907" lon="0.11962">
        <ele>403</ele>
        <time>2018-09-30T07:57:44Z</time>
      </trkpt>
      <trkpt lat="43.15903" lon="0.11962">
        <ele>403</ele>
        <time>2018-09-30T07:57:45Z</time>
      </trkpt>
      <trkpt lat="43.15898" lon="0.11963">
        <ele>403</ele>
        <time>2018-09-30T07:57:46Z</time>
      </trkpt>
      <trkpt lat="43.15895" lon="0.11966">
        <ele>403</ele>
        <time>2018-09-30T07:57:47Z</time>
      </trkpt>
      <trkpt lat="43.15892" lon="0.11969">
        <ele>403</ele>
        <time>2018-09-30T07:57:48Z</time>
      </trkpt>
      <trkpt lat="43.15888" lon="0.11972">
        <ele>403</ele>
        <time>2018-09-30T07:57:49Z</time>
      </trkpt>
      <trkpt lat="43.15886" lon="0.11976">
        <ele>403</ele>
        <time>2018-09-30T07:57:50Z</time>
      </trkpt>
      <trkpt lat="43.15883" lon="0.1198">
        <ele>403</ele>
        <time>2018-09-30T07:57:51Z</time>
      </trkpt>
      <trkpt lat="43.1588" lon="0.11984">
        <ele>403</ele>
        <time>2018-09-30T07:57:52Z</time>
      </trkpt>
      <trkpt lat="43.15877" lon="0.1199">
        <ele>403</ele>
        <time>2018-09-30T07:57:53Z</time>
      </trkpt>
      <trkpt lat="43.15875" lon="0.11995">
        <ele>403</ele>
        <time>2018-09-30T07:57:54Z</time>
      </trkpt>
      <trkpt lat="43.15871" lon="0.12002">
        <ele>404</ele>
        <time>2018-09-30T07:57:55Z</time>
      </trkpt>
      <trkpt lat="43.15868" lon="0.12007">
        <ele>404</ele>
        <time>2018-09-30T07:57:56Z</time>
      </trkpt>
      <trkpt lat="43.15866" lon="0.12012">
        <ele>406</ele>
        <time>2018-09-30T07:57:57Z</time>
      </trkpt>
      <trkpt lat="43.15863" lon="0.12017">
        <ele>406</ele>
        <time>2018-09-30T07:57:58Z</time>
      </trkpt>
      <trkpt lat="43.1586" lon="0.12022">
        <ele>407</ele>
        <time>2018-09-30T07:57:59Z</time>
      </trkpt>
      <trkpt lat="43.15857" lon="0.12024">
        <ele>407</ele>
        <time>2018-09-30T07:58:00Z</time>
      </trkpt>
      <trkpt lat="43.15853" lon="0.12024">
        <ele>407</ele>
        <time>2018-09-30T07:58:01Z</time>
      </trkpt>
      <trkpt lat="43.1585" lon="0.12022">
        <ele>407</ele>
        <time>2018-09-30T07:58:02Z</time>
      </trkpt>
      <trkpt lat="43.15846" lon="0.12021">
        <ele>407</ele>
        <time>2018-09-30T07:58:03Z</time>
      </trkpt>
      <trkpt lat="43.15842" lon="0.12019">
        <ele>407</ele>
        <time>2018-09-30T07:58:04Z</time>
      </trkpt>
      <trkpt lat="43.15838" lon="0.12016">
        <ele>407</ele>
        <time>2018-09-30T07:58:05Z</time>
      </trkpt>
      <trkpt lat="43.15834" lon="0.12013">
        <ele>408</ele>
        <time>2018-09-30T07:58:06Z</time>
      </trkpt>
      <trkpt lat="43.1583" lon="0.1201">
        <ele>408</ele>
        <time>2018-09-30T07:58:07Z</time>
      </trkpt>
      <trkpt lat="43.15826" lon="0.12008">
        <ele>408</ele>
        <time>2018-09-30T07:58:08Z</time>
      </trkpt>
      <trkpt lat="43.15821" lon="0.12005">
        <ele>408</ele>
        <time>2018-09-30T07:58:09Z</time>
      </trkpt>
      <trkpt lat="43.15817" lon="0.12002">
        <ele>408</ele>
        <time>2018-09-30T07:58:10Z</time>
      </trkpt>
      <trkpt lat="43.15813" lon="0.11999">
        <ele>408</ele>
        <time>2018-09-30T07:58:11Z</time>
      </trkpt>
      <trkpt lat="43.15808" lon="0.11996">
        <ele>408</ele>
        <time>2018-09-30T07:58:12Z</time>
      </trkpt>
      <trkpt lat="43.15804" lon="0.11993">
        <ele>408</ele>
        <time>2018-09-30T07:58:13Z</time>
      </trkpt>
      <trkpt lat="43.15799" lon="0.1199">
        <ele>408</ele>
        <time>2018-09-30T07:58:14Z</time>
      </trkpt>
      <trkpt lat="43.15795" lon="0.11988">
        <ele>408</ele>
        <time>2018-09-30T07:58:15Z</time>
      </trkpt>
      <trkpt lat="43.15791" lon="0.11985">
        <ele>408</ele>
        <time>2018-09-30T07:58:16Z</time>
      </trkpt>
      <trkpt lat="43.15787" lon="0.11983">
        <ele>408</ele>
        <time>2018-09-30T07:58:17Z</time>
      </trkpt>
      <trkpt lat="43.15783" lon="0.1198">
        <ele>408</ele>
        <time>2018-09-30T07:58:18Z</time>
      </trkpt>
      <trkpt lat="43.15779" lon="0.11978">
        <ele>408</ele>
        <time>2018-09-30T07:58:19Z</time>
      </trkpt>
      <trkpt lat="43.15775" lon="0.11976">
        <ele>409</ele>
        <time>2018-09-30T07:58:20Z</time>
      </trkpt>
      <trkpt lat="43.15771" lon="0.11973">
        <ele>409</ele>
        <time>2018-09-30T07:58:21Z</time>
      </trkpt>
      <trkpt lat="43.15766" lon="0.1197">
        <ele>409</ele>
        <time>2018-09-30T07:58:22Z</time>
      </trkpt>
      <trkpt lat="43.15762" lon="0.11968">
        <ele>409</ele>
        <time>2018-09-30T07:58:23Z</time>
      </trkpt>
      <trkpt lat="43.15758" lon="0.11965">
        <ele>409</ele>
        <time>2018-09-30T07:58:24Z</time>
      </trkpt>
      <trkpt lat="43.15754" lon="0.11963">
        <ele>409</ele>
        <time>2018-09-30T07:58:25Z</time>
      </trkpt>
      <trkpt lat="43.1575" lon="0.1196">
        <ele>409</ele>
        <time>2018-09-30T07:58:26Z</time>
      </trkpt>
      <trkpt lat="43.15745" lon="0.11958">
        <ele>409</ele>
        <time>2018-09-30T07:58:27Z</time>
      </trkpt>
      <trkpt lat="43.15741" lon="0.11955">
        <ele>409</ele>
        <time>2018-09-30T07:58:28Z</time>
      </trkpt>
      <trkpt lat="43.15737" lon="0.11953">
        <ele>409</ele>
        <time>2018-09-30T07:58:29Z</time>
      </trkpt>
      <trkpt lat="43.15733" lon="0.1195">
        <ele>408</ele>
        <time>2018-09-30T07:58:30Z</time>
      </trkpt>
      <trkpt lat="43.15729" lon="0.11948">
        <ele>408</ele>
        <time>2018-09-30T07:58:31Z</time>
      </trkpt>
      <trkpt lat="43.15725" lon="0.11946">
        <ele>408</ele>
        <time>2018-09-30T07:58:32Z</time>
      </trkpt>
      <trkpt lat="43.15722" lon="0.11944">
        <ele>408</ele>
        <time>2018-09-30T07:58:33Z</time>
      </trkpt>
      <trkpt lat="43.15719" lon="0.11941">
        <ele>408</ele>
        <time>2018-09-30T07:58:34Z</time>
      </trkpt>
      <trkpt lat="43.15716" lon="0.11939">
        <ele>408</ele>
        <time>2018-09-30T07:58:35Z</time>
      </trkpt>
      <trkpt lat="43.15713" lon="0.11938">
        <ele>408</ele>
        <time>2018-09-30T07:58:36Z</time>
      </trkpt>
      <trkpt lat="43.15709" lon="0.11936">
        <ele>408</ele>
        <time>2018-09-30T07:58:37Z</time>
      </trkpt>
      <trkpt lat="43.15705" lon="0.11933">
        <ele>408</ele>
        <time>2018-09-30T07:58:38Z</time>
      </trkpt>
      <trkpt lat="43.157" lon="0.1193">
        <ele>408</ele>
        <time>2018-09-30T07:58:39Z</time>
      </trkpt>
      <trkpt lat="43.15696" lon="0.11928">
        <ele>407</ele>
        <time>2018-09-30T07:58:40Z</time>
      </trkpt>
      <trkpt lat="43.15691" lon="0.11925">
        <ele>407</ele>
        <time>2018-09-30T07:58:41Z</time>
      </trkpt>
      <trkpt lat="43.15687" lon="0.11922">
        <ele>407</ele>
        <time>2018-09-30T07:58:42Z</time>
      </trkpt>
      <trkpt lat="43.15682" lon="0.1192">
        <ele>406</ele>
        <time>2018-09-30T07:58:43Z</time>
      </trkpt>
      <trkpt lat="43.15678" lon="0.11917">
        <ele>406</ele>
        <time>2018-09-30T07:58:44Z</time>
      </trkpt>
      <trkpt lat="43.15674" lon="0.11915">
        <ele>406</ele>
        <time>2018-09-30T07:58:45Z</time>
      </trkpt>
      <trkpt lat="43.15669" lon="0.11912">
        <ele>405</ele>
        <time>2018-09-30T07:58:46Z</time>
      </trkpt>
      <trkpt lat="43.15666" lon="0.11909">
        <ele>405</ele>
        <time>2018-09-30T07:58:47Z</time>
      </trkpt>
      <trkpt lat="43.15662" lon="0.11906">
        <ele>405</ele>
        <time>2018-09-30T07:58:48Z</time>
      </trkpt>
      <trkpt lat="43.15658" lon="0.11903">
        <ele>405</ele>
        <time>2018-09-30T07:58:49Z</time>
      </trkpt>
      <trkpt lat="43.15654" lon="0.119">
        <ele>405</ele>
        <time>2018-09-30T07:58:50Z</time>
      </trkpt>
      <trkpt lat="43.15651" lon="0.11899">
        <ele>405</ele>
        <time>2018-09-30T07:58:51Z</time>
      </trkpt>
      <trkpt lat="43.15646" lon="0.11899">
        <ele>405</ele>
        <time>2018-09-30T07:58:52Z</time>
      </trkpt>
      <trkpt lat="43.15642" lon="0.11901">
        <ele>405</ele>
        <time>2018-09-30T07:58:53Z</time>
      </trkpt>
      <trkpt lat="43.15638" lon="0.11904">
        <ele>405</ele>
        <time>2018-09-30T07:58:54Z</time>
      </trkpt>
      <trkpt lat="43.15635" lon="0.11908">
        <ele>406</ele>
        <time>2018-09-30T07:58:55Z</time>
      </trkpt>
      <trkpt lat="43.15631" lon="0.11912">
        <ele>406</ele>
        <time>2018-09-30T07:58:56Z</time>
      </trkpt>
      <trkpt lat="43.15627" lon="0.11916">
        <ele>407</ele>
        <time>2018-09-30T07:58:57Z</time>
      </trkpt>
      <trkpt lat="43.15623" lon="0.11919">
        <ele>407</ele>
        <time>2018-09-30T07:58:58Z</time>
      </trkpt>
      <trkpt lat="43.15619" lon="0.11922">
        <ele>407</ele>
        <time>2018-09-30T07:58:59Z</time>
      </trkpt>
      <trkpt lat="43.15615" lon="0.11926">
        <ele>408</ele>
        <time>2018-09-30T07:59:00Z</time>
      </trkpt>
      <trkpt lat="43.15611" lon="0.11929">
        <ele>408</ele>
        <time>2018-09-30T07:59:01Z</time>
      </trkpt>
      <trkpt lat="43.15607" lon="0.11933">
        <ele>408</ele>
        <time>2018-09-30T07:59:02Z</time>
      </trkpt>
      <trkpt lat="43.15603" lon="0.11937">
        <ele>409</ele>
        <time>2018-09-30T07:59:03Z</time>
      </trkpt>
      <trkpt lat="43.15599" lon="0.1194">
        <ele>409</ele>
        <time>2018-09-30T07:59:04Z</time>
      </trkpt>
      <trkpt lat="43.15595" lon="0.11942">
        <ele>410</ele>
        <time>2018-09-30T07:59:05Z</time>
      </trkpt>
      <trkpt lat="43.15592" lon="0.11945">
        <ele>410</ele>
        <time>2018-09-30T07:59:06Z</time>
      </trkpt>
      <trkpt lat="43.15589" lon="0.11949">
        <ele>411</ele>
        <time>2018-09-30T07:59:07Z</time>
      </trkpt>
      <trkpt lat="43.15585" lon="0.11953">
        <ele>411</ele>
        <time>2018-09-30T07:59:08Z</time>
      </trkpt>
      <trkpt lat="43.15582" lon="0.11956">
        <ele>411</ele>
        <time>2018-09-30T07:59:09Z</time>
      </trkpt>
      <trkpt lat="43.15579" lon="0.1196">
        <ele>411</ele>
        <time>2018-09-30T07:59:10Z</time>
      </trkpt>
      <trkpt lat="43.15576" lon="0.11965">
        <ele>412</ele>
        <time>2018-09-30T07:59:11Z</time>
      </trkpt>
      <trkpt lat="43.15574" lon="0.11969">
        <ele>412</ele>
        <time>2018-09-30T07:59:12Z</time>
      </trkpt>
      <trkpt lat="43.15571" lon="0.11973">
        <ele>412</ele>
        <time>2018-09-30T07:59:13Z</time>
      </trkpt>
      <trkpt lat="43.15568" lon="0.11977">
        <ele>412</ele>
        <time>2018-09-30T07:59:14Z</time>
      </trkpt>
      <trkpt lat="43.15565" lon="0.11981">
        <ele>412</ele>
        <time>2018-09-30T07:59:15Z</time>
      </trkpt>
      <trkpt lat="43.15562" lon="0.11984">
        <ele>412</ele>
        <time>2018-09-30T07:59:16Z</time>
      </trkpt>
      <trkpt lat="43.15559" lon="0.11989">
        <ele>413</ele>
        <time>2018-09-30T07:59:17Z</time>
      </trkpt>
      <trkpt lat="43.15556" lon="0.11993">
        <ele>413</ele>
        <time>2018-09-30T07:59:18Z</time>
      </trkpt>
      <trkpt lat="43.15553" lon="0.11998">
        <ele>413</ele>
        <time>2018-09-30T07:59:19Z</time>
      </trkpt>
      <trkpt lat="43.1555" lon="0.12002">
        <ele>413</ele>
        <time>2018-09-30T07:59:20Z</time>
      </trkpt>
      <trkpt lat="43.15547" lon="0.12006">
        <ele>414</ele>
        <time>2018-09-30T07:59:21Z</time>
      </trkpt>
      <trkpt lat="43.15544" lon="0.1201">
        <ele>414</ele>
        <time>2018-09-30T07:59:22Z</time>
      </trkpt>
      <trkpt lat="43.15541" lon="0.12014">
        <ele>415</ele>
        <time>2018-09-30T07:59:23Z</time>
      </trkpt>
      <trkpt lat="43.15538" lon="0.12018">
        <ele>415</ele>
        <time>2018-09-30T07:59:24Z</time>
      </trkpt>
      <trkpt lat="43.15536" lon="0.12022">
        <ele>415</ele>
        <time>2018-09-30T07:59:25Z</time>
      </trkpt>
      <trkpt lat="43.15533" lon="0.12025">
        <ele>415</ele>
        <time>2018-09-30T07:59:26Z</time>
      </trkpt>
      <trkpt lat="43.1553" lon="0.1203">
        <ele>416</ele>
        <time>2018-09-30T07:59:27Z</time>
      </trkpt>
      <trkpt lat="43.15528" lon="0.12034">
        <ele>416</ele>
        <time>2018-09-30T07:59:28Z</time>
      </trkpt>
      <trkpt lat="43.15525" lon="0.12037">
        <ele>416</ele>
        <time>2018-09-30T07:59:29Z</time>
      </trkpt>
      <trkpt lat="43.15522" lon="0.12041">
        <ele>416</ele>
        <time>2018-09-30T07:59:30Z</time>
      </trkpt>
      <trkpt lat="43.15519" lon="0.12044">
        <ele>416</ele>
        <time>2018-09-30T07:59:31Z</time>
      </trkpt>
      <trkpt lat="43.15517" lon="0.12047">
        <ele>416</ele>
        <time>2018-09-30T07:59:32Z</time>
      </trkpt>
      <trkpt lat="43.15514" lon="0.12052">
        <ele>416</ele>
        <time>2018-09-30T07:59:33Z</time>
      </trkpt>
      <trkpt lat="43.15512" lon="0.12056">
        <ele>416</ele>
        <time>2018-09-30T07:59:34Z</time>
      </trkpt>
      <trkpt lat="43.15509" lon="0.1206">
        <ele>417</ele>
        <time>2018-09-30T07:59:35Z</time>
      </trkpt>
      <trkpt lat="43.15506" lon="0.12064">
        <ele>417</ele>
        <time>2018-09-30T07:59:36Z</time>
      </trkpt>
      <trkpt lat="43.15503" lon="0.12067">
        <ele>417</ele>
        <time>2018-09-30T07:59:37Z</time>
      </trkpt>
      <trkpt lat="43.155" lon="0.12071">
        <ele>417</ele>
        <time>2018-09-30T07:59:38Z</time>
      </trkpt>
      <trkpt lat="43.15498" lon="0.12074">
        <ele>417</ele>
        <time>2018-09-30T07:59:39Z</time>
      </trkpt>
      <trkpt lat="43.15494" lon="0.12078">
        <ele>417</ele>
        <time>2018-09-30T07:59:40Z</time>
      </trkpt>
      <trkpt lat="43.15492" lon="0.12081">
        <ele>417</ele>
        <time>2018-09-30T07:59:41Z</time>
      </trkpt>
      <trkpt lat="43.15489" lon="0.12084">
        <ele>417</ele>
        <time>2018-09-30T07:59:42Z</time>
      </trkpt>
      <trkpt lat="43.15487" lon="0.12087">
        <ele>417</ele>
        <time>2018-09-30T07:59:43Z</time>
      </trkpt>
      <trkpt lat="43.15484" lon="0.1209">
        <ele>417</ele>
        <time>2018-09-30T07:59:44Z</time>
      </trkpt>
      <trkpt lat="43.15482" lon="0.12093">
        <ele>417</ele>
        <time>2018-09-30T07:59:45Z</time>
      </trkpt>
      <trkpt lat="43.1548" lon="0.12097">
        <ele>418</ele>
        <time>2018-09-30T07:59:46Z</time>
      </trkpt>
      <trkpt lat="43.15478" lon="0.12101">
        <ele>418</ele>
        <time>2018-09-30T07:59:47Z</time>
      </trkpt>
      <trkpt lat="43.15475" lon="0.12104">
        <ele>418</ele>
        <time>2018-09-30T07:59:48Z</time>
      </trkpt>
      <trkpt lat="43.15473" lon="0.12108">
        <ele>418</ele>
        <time>2018-09-30T07:59:49Z</time>
      </trkpt>
      <trkpt lat="43.15471" lon="0.12111">
        <ele>418</ele>
        <time>2018-09-30T07:59:50Z</time>
      </trkpt>
      <trkpt lat="43.15469" lon="0.12115">
        <ele>418</ele>
        <time>2018-09-30T07:59:51Z</time>
      </trkpt>
      <trkpt lat="43.15466" lon="0.12118">
        <ele>418</ele>
        <time>2018-09-30T07:59:52Z</time>
      </trkpt>
      <trkpt lat="43.15464" lon="0.12122">
        <ele>419</ele>
        <time>2018-09-30T07:59:53Z</time>
      </trkpt>
      <trkpt lat="43.15461" lon="0.12124">
        <ele>419</ele>
        <time>2018-09-30T07:59:54Z</time>
      </trkpt>
      <trkpt lat="43.15459" lon="0.12127">
        <ele>419</ele>
        <time>2018-09-30T07:59:55Z</time>
      </trkpt>
      <trkpt lat="43.15457" lon="0.1213">
        <ele>419</ele>
        <time>2018-09-30T07:59:56Z</time>
      </trkpt>
      <trkpt lat="43.15455" lon="0.12133">
        <ele>419</ele>
        <time>2018-09-30T07:59:57Z</time>
      </trkpt>
      <trkpt lat="43.15453" lon="0.12136">
        <ele>419</ele>
        <time>2018-09-30T07:59:58Z</time>
      </trkpt>
      <trkpt lat="43.1545" lon="0.12139">
        <ele>419</ele>
        <time>2018-09-30T07:59:59Z</time>
      </trkpt>
      <trkpt lat="43.15447" lon="0.12143">
        <ele>419</ele>
        <time>2018-09-30T08:00:00Z</time>
      </trkpt>
      <trkpt lat="43.15445" lon="0.12145">
        <ele>419</ele>
        <time>2018-09-30T08:00:01Z</time>
      </trkpt>
      <trkpt lat="43.15443" lon="0.12148">
        <ele>420</ele>
        <time>2018-09-30T08:00:02Z</time>
      </trkpt>
      <trkpt lat="43.15441" lon="0.1215">
        <ele>420</ele>
        <time>2018-09-30T08:00:03Z</time>
      </trkpt>
      <trkpt lat="43.1544" lon="0.12153">
        <ele>420</ele>
        <time>2018-09-30T08:00:04Z</time>
      </trkpt>
      <trkpt lat="43.15438" lon="0.12156">
        <ele>420</ele>
        <time>2018-09-30T08:00:05Z</time>
      </trkpt>
      <trkpt lat="43.15438" lon="0.1216">
        <ele>420</ele>
        <time>2018-09-30T08:00:06Z</time>
      </trkpt>
      <trkpt lat="43.15438" lon="0.12164">
        <ele>420</ele>
        <time>2018-09-30T08:00:07Z</time>
      </trkpt>
      <trkpt lat="43.15439" lon="0.12168">
        <ele>420</ele>
        <time>2018-09-30T08:00:08Z</time>
      </trkpt>
      <trkpt lat="43.15441" lon="0.12172">
        <ele>420</ele>
        <time>2018-09-30T08:00:09Z</time>
      </trkpt>
      <trkpt lat="43.15444" lon="0.12174">
        <ele>421</ele>
        <time>2018-09-30T08:00:10Z</time>
      </trkpt>
      <trkpt lat="43.15446" lon="0.12174">
        <ele>421</ele>
        <time>2018-09-30T08:00:11Z</time>
      </trkpt>
      <trkpt lat="43.15449" lon="0.12174">
        <ele>421</ele>
        <time>2018-09-30T08:00:12Z</time>
      </trkpt>
      <trkpt lat="43.15452" lon="0.12174">
        <ele>421</ele>
        <time>2018-09-30T08:00:13Z</time>
      </trkpt>
      <trkpt lat="43.15455" lon="0.12174">
        <ele>421</ele>
        <time>2018-09-30T08:00:14Z</time>
      </trkpt>
      <trkpt lat="43.15458" lon="0.12174">
        <ele>421</ele>
        <time>2018-09-30T08:00:15Z</time>
      </trkpt>
      <trkpt lat="43.1546" lon="0.12174">
        <ele>421</ele>
        <time>2018-09-30T08:00:16Z</time>
      </trkpt>
      <trkpt lat="43.15463" lon="0.12175">
        <ele>421</ele>
        <time>2018-09-30T08:00:17Z</time>
      </trkpt>
      <trkpt lat="43.15465" lon="0.12176">
        <ele>421</ele>
        <time>2018-09-30T08:00:18Z</time>
      </trkpt>
      <trkpt lat="43.15467" lon="0.12175">
        <ele>422</ele>
        <time>2018-09-30T08:00:19Z</time>
      </trkpt>
      <trkpt lat="43.1547" lon="0.12175">
        <ele>422</ele>
        <time>2018-09-30T08:00:20Z</time>
      </trkpt>
      <trkpt lat="43.15472" lon="0.12174">
        <ele>422</ele>
        <time>2018-09-30T08:00:21Z</time>
      </trkpt>
      <trkpt lat="43.15475" lon="0.12173">
        <ele>422</ele>
        <time>2018-09-30T08:00:22Z</time>
      </trkpt>
      <trkpt lat="43.15477" lon="0.12173">
        <ele>422</ele>
        <time>2018-09-30T08:00:23Z</time>
      </trkpt>
      <trkpt lat="43.1548" lon="0.12174">
        <ele>422</ele>
        <time>2018-09-30T08:00:24Z</time>
      </trkpt>
      <trkpt lat="43.15483" lon="0.12174">
        <ele>422</ele>
        <time>2018-09-30T08:00:25Z</time>
      </trkpt>
      <trkpt lat="43.15485" lon="0.12175">
        <ele>422</ele>
        <time>2018-09-30T08:00:26Z</time>
      </trkpt>
      <trkpt lat="43.15488" lon="0.12175">
        <ele>422</ele>
        <time>2018-09-30T08:00:27Z</time>
      </trkpt>
      <trkpt lat="43.15491" lon="0.12176">
        <ele>422</ele>
        <time>2018-09-30T08:00:28Z</time>
      </trkpt>
      <trkpt lat="43.15494" lon="0.12177">
        <ele>422</ele>
        <time>2018-09-30T08:00:29Z</time>
      </trkpt>
      <trkpt lat="43.15497" lon="0.12178">
        <ele>422</ele>
        <time>2018-09-30T08:00:30Z</time>
      </trkpt>
      <trkpt lat="43.155" lon="0.1218">
        <ele>422</ele>
        <time>2018-09-30T08:00:31Z</time>
      </trkpt>
      <trkpt lat="43.15503" lon="0.12181">
        <ele>422</ele>
        <time>2018-09-30T08:00:32Z</time>
      </trkpt>
      <trkpt lat="43.15506" lon="0.12182">
        <ele>421</ele>
        <time>2018-09-30T08:00:33Z</time>
      </trkpt>
      <trkpt lat="43.1551" lon="0.12183">
        <ele>421</ele>
        <time>2018-09-30T08:00:34Z</time>
      </trkpt>
      <trkpt lat="43.15514" lon="0.12185">
        <ele>421</ele>
        <time>2018-09-30T08:00:35Z</time>
      </trkpt>
      <trkpt lat="43.15518" lon="0.12186">
        <ele>421</ele>
        <time>2018-09-30T08:00:36Z</time>
      </trkpt>
      <trkpt lat="43.15523" lon="0.12188">
        <ele>420</ele>
        <time>2018-09-30T08:00:37Z</time>
      </trkpt>
      <trkpt lat="43.15528" lon="0.12189">
        <ele>420</ele>
        <time>2018-09-30T08:00:38Z</time>
      </trkpt>
      <trkpt lat="43.15534" lon="0.1219">
        <ele>419</ele>
        <time>2018-09-30T08:00:39Z</time>
      </trkpt>
      <trkpt lat="43.15541" lon="0.12192">
        <ele>419</ele>
        <time>2018-09-30T08:00:40Z</time>
      </trkpt>
      <trkpt lat="43.15546" lon="0.12193">
        <ele>418</ele>
        <time>2018-09-30T08:00:41Z</time>
      </trkpt>
      <trkpt lat="43.15552" lon="0.12194">
        <ele>418</ele>
        <time>2018-09-30T08:00:42Z</time>
      </trkpt>
      <trkpt lat="43.15557" lon="0.12195">
        <ele>418</ele>
        <time>2018-09-30T08:00:43Z</time>
      </trkpt>
      <trkpt lat="43.15562" lon="0.12195">
        <ele>418</ele>
        <time>2018-09-30T08:00:44Z</time>
      </trkpt>
      <trkpt lat="43.15567" lon="0.12196">
        <ele>418</ele>
        <time>2018-09-30T08:00:45Z</time>
      </trkpt>
      <trkpt lat="43.15572" lon="0.12196">
        <ele>418</ele>
        <time>2018-09-30T08:00:46Z</time>
      </trkpt>
      <trkpt lat="43.15576" lon="0.12196">
        <ele>418</ele>
        <time>2018-09-30T08:00:47Z</time>
      </trkpt>
      <trkpt lat="43.15581" lon="0.12197">
        <ele>418</ele>
        <time>2018-09-30T08:00:48Z</time>
      </trkpt>
      <trkpt lat="43.15585" lon="0.12197">
        <ele>418</ele>
        <time>2018-09-30T08:00:49Z</time>
      </trkpt>
      <trkpt lat="43.1559" lon="0.12198">
        <ele>418</ele>
        <time>2018-09-30T08:00:50Z</time>
      </trkpt>
      <trkpt lat="43.15594" lon="0.12199">
        <ele>418</ele>
        <time>2018-09-30T08:00:51Z</time>
      </trkpt>
      <trkpt lat="43.15599" lon="0.12199">
        <ele>418</ele>
        <time>2018-09-30T08:00:52Z</time>
      </trkpt>
      <trkpt lat="43.15604" lon="0.122">
        <ele>418</ele>
        <time>2018-09-30T08:00:53Z</time>
      </trkpt>
      <trkpt lat="43.15607" lon="0.122">
        <ele>418</ele>
        <time>2018-09-30T08:00:54Z</time>
      </trkpt>
      <trkpt lat="43.1561" lon="0.12201">
        <ele>418</ele>
        <time>2018-09-30T08:00:55Z</time>
      </trkpt>
      <trkpt lat="43.15613" lon="0.12202">
        <ele>419</ele>
        <time>2018-09-30T08:00:56Z</time>
      </trkpt>
      <trkpt lat="43.15617" lon="0.12203">
        <ele>419</ele>
        <time>2018-09-30T08:00:57Z</time>
      </trkpt>
      <trkpt lat="43.1562" lon="0.12204">
        <ele>419</ele>
        <time>2018-09-30T08:00:58Z</time>
      </trkpt>
      <trkpt lat="43.15624" lon="0.12206">
        <ele>419</ele>
        <time>2018-09-30T08:00:59Z</time>
      </trkpt>
      <trkpt lat="43.15627" lon="0.12207">
        <ele>419</ele>
        <time>2018-09-30T08:01:00Z</time>
      </trkpt>
      <trkpt lat="43.15632" lon="0.12208">
        <ele>419</ele>
        <time>2018-09-30T08:01:01Z</time>
      </trkpt>
      <trkpt lat="43.15635" lon="0.12209">
        <ele>419</ele>
        <time>2018-09-30T08:01:02Z</time>
      </trkpt>
      <trkpt lat="43.15639" lon="0.12209">
        <ele>419</ele>
        <time>2018-09-30T08:01:03Z</time>
      </trkpt>
      <trkpt lat="43.15643" lon="0.1221">
        <ele>419</ele>
        <time>2018-09-30T08:01:04Z</time>
      </trkpt>
      <trkpt lat="43.15647" lon="0.1221">
        <ele>419</ele>
        <time>2018-09-30T08:01:05Z</time>
      </trkpt>
      <trkpt lat="43.15652" lon="0.12209">
        <ele>419</ele>
        <time>2018-09-30T08:01:06Z</time>
      </trkpt>
      <trkpt lat="43.15657" lon="0.12208">
        <ele>419</ele>
        <time>2018-09-30T08:01:07Z</time>
      </trkpt>
      <trkpt lat="43.15662" lon="0.12208">
        <ele>419</ele>
        <time>2018-09-30T08:01:08Z</time>
      </trkpt>
      <trkpt lat="43.15666" lon="0.12206">
        <ele>419</ele>
        <time>2018-09-30T08:01:09Z</time>
      </trkpt>
      <trkpt lat="43.1567" lon="0.12205">
        <ele>420</ele>
        <time>2018-09-30T08:01:10Z</time>
      </trkpt>
      <trkpt lat="43.15675" lon="0.12205">
        <ele>420</ele>
        <time>2018-09-30T08:01:11Z</time>
      </trkpt>
      <trkpt lat="43.1568" lon="0.12205">
        <ele>420</ele>
        <time>2018-09-30T08:01:12Z</time>
      </trkpt>
      <trkpt lat="43.15686" lon="0.12206">
        <ele>420</ele>
        <time>2018-09-30T08:01:13Z</time>
      </trkpt>
      <trkpt lat="43.15692" lon="0.12207">
        <ele>420</ele>
        <time>2018-09-30T08:01:14Z</time>
      </trkpt>
      <trkpt lat="43.15697" lon="0.12207">
        <ele>420</ele>
        <time>2018-09-30T08:01:15Z</time>
      </trkpt>
      <trkpt lat="43.15703" lon="0.12208">
        <ele>419</ele>
        <time>2018-09-30T08:01:16Z</time>
      </trkpt>
      <trkpt lat="43.15709" lon="0.12208">
        <ele>419</ele>
        <time>2018-09-30T08:01:17Z</time>
      </trkpt>
      <trkpt lat="43.15716" lon="0.12208">
        <ele>418</ele>
        <time>2018-09-30T08:01:18Z</time>
      </trkpt>
      <trkpt lat="43.15721" lon="0.12208">
        <ele>418</ele>
        <time>2018-09-30T08:01:19Z</time>
      </trkpt>
      <trkpt lat="43.15727" lon="0.12209">
        <ele>417</ele>
        <time>2018-09-30T08:01:20Z</time>
      </trkpt>
      <trkpt lat="43.15732" lon="0.12209">
        <ele>416</ele>
        <time>2018-09-30T08:01:21Z</time>
      </trkpt>
      <trkpt lat="43.15738" lon="0.12208">
        <ele>416</ele>
        <time>2018-09-30T08:01:22Z</time>
      </trkpt>
      <trkpt lat="43.15743" lon="0.12207">
        <ele>415</ele>
        <time>2018-09-30T08:01:23Z</time>
      </trkpt>
      <trkpt lat="43.15747" lon="0.12207">
        <ele>415</ele>
        <time>2018-09-30T08:01:24Z</time>
      </trkpt>
      <trkpt lat="43.15751" lon="0.12209">
        <ele>415</ele>
        <time>2018-09-30T08:01:25Z</time>
      </trkpt>
      <trkpt lat="43.15754" lon="0.12212">
        <ele>414</ele>
        <time>2018-09-30T08:01:26Z</time>
      </trkpt>
      <trkpt lat="43.15755" lon="0.12216">
        <ele>414</ele>
        <time>2018-09-30T08:01:27Z</time>
      </trkpt>
      <trkpt lat="43.15754" lon="0.12219">
        <ele>414</ele>
        <time>2018-09-30T08:01:28Z</time>
      </trkpt>
      <trkpt lat="43.15753" lon="0.12223">
        <ele>414</ele>
        <time>2018-09-30T08:01:29Z</time>
      </trkpt>
      <trkpt lat="43.15752" lon="0.12227">
        <ele>414</ele>
        <time>2018-09-30T08:01:30Z</time>
      </trkpt>
      <trkpt lat="43.15752" lon="0.12231">
        <ele>414</ele>
        <time>2018-09-30T08:01:31Z</time>
      </trkpt>
      <trkpt lat="43.15751" lon="0.12236">
        <ele>414</ele>
        <time>2018-09-30T08:01:32Z</time>
      </trkpt>
      <trkpt lat="43.15751" lon="0.1224">
        <ele>414</ele>
        <time>2018-09-30T08:01:33Z</time>
      </trkpt>
      <trkpt lat="43.15751" lon="0.12244">
        <ele>414</ele>
        <time>2018-09-30T08:01:34Z</time>
      </trkpt>
      <trkpt lat="43.15751" lon="0.12249">
        <ele>414</ele>
        <time>2018-09-30T08:01:35Z</time>
      </trkpt>
      <trkpt lat="43.15751" lon="0.12253">
        <ele>414</ele>
        <time>2018-09-30T08:01:36Z</time>
      </trkpt>
      <trkpt lat="43.15751" lon="0.12257">
        <ele>414</ele>
        <time>2018-09-30T08:01:37Z</time>
      </trkpt>
      <trkpt lat="43.15751" lon="0.12262">
        <ele>414</ele>
        <time>2018-09-30T08:01:38Z</time>
      </trkpt>
      <trkpt lat="43.15751" lon="0.12266">
        <ele>414</ele>
        <time>2018-09-30T08:01:39Z</time>
      </trkpt>
      <trkpt lat="43.15752" lon="0.12271">
        <ele>414</ele>
        <time>2018-09-30T08:01:40Z</time>
      </trkpt>
      <trkpt lat="43.15752" lon="0.12275">
        <ele>414</ele>
        <time>2018-09-30T08:01:41Z</time>
      </trkpt>
      <trkpt lat="43.15752" lon="0.12279">
        <ele>414</ele>
        <time>2018-09-30T08:01:42Z</time>
      </trkpt>
      <trkpt lat="43.15752" lon="0.12284">
        <ele>415</ele>
        <time>2018-09-30T08:01:43Z</time>
      </trkpt>
      <trkpt lat="43.15752" lon="0.12288">
        <ele>415</ele>
        <time>2018-09-30T08:01:44Z</time>
      </trkpt>
      <trkpt lat="43.15752" lon="0.12291">
        <ele>415</ele>
        <time>2018-09-30T08:01:45Z</time>
      </trkpt>
      <trkpt lat="43.15751" lon="0.12295">
        <ele>415</ele>
        <time>2018-09-30T08:01:46Z</time>
      </trkpt>
      <trkpt lat="43.15751" lon="0.12298">
        <ele>415</ele>
        <time>2018-09-30T08:01:47Z</time>
      </trkpt>
      <trkpt lat="43.15751" lon="0.12302">
        <ele>415</ele>
        <time>2018-09-30T08:01:48Z</time>
      </trkpt>
      <trkpt lat="43.1575" lon="0.12306">
        <ele>415</ele>
        <time>2018-09-30T08:01:49Z</time>
      </trkpt>
      <trkpt lat="43.1575" lon="0.1231">
        <ele>415</ele>
        <time>2018-09-30T08:01:50Z</time>
      </trkpt>
      <trkpt lat="43.1575" lon="0.12313">
        <ele>416</ele>
        <time>2018-09-30T08:01:51Z</time>
      </trkpt>
      <trkpt lat="43.1575" lon="0.12317">
        <ele>416</ele>
        <time>2018-09-30T08:01:52Z</time>
      </trkpt>
      <trkpt lat="43.1575" lon="0.1232">
        <ele>416</ele>
        <time>2018-09-30T08:01:53Z</time>
      </trkpt>
      <trkpt lat="43.15749" lon="0.12325">
        <ele>416</ele>
        <time>2018-09-30T08:01:54Z</time>
      </trkpt>
      <trkpt lat="43.15748" lon="0.12328">
        <ele>417</ele>
        <time>2018-09-30T08:01:55Z</time>
      </trkpt>
      <trkpt lat="43.15748" lon="0.12332">
        <ele>417</ele>
        <time>2018-09-30T08:01:56Z</time>
      </trkpt>
      <trkpt lat="43.15747" lon="0.12335">
        <ele>417</ele>
        <time>2018-09-30T08:01:57Z</time>
      </trkpt>
      <trkpt lat="43.15747" lon="0.12339">
        <ele>417</ele>
        <time>2018-09-30T08:01:58Z</time>
      </trkpt>
      <trkpt lat="43.15747" lon="0.12343">
        <ele>418</ele>
        <time>2018-09-30T08:01:59Z</time>
      </trkpt>
      <trkpt lat="43.15746" lon="0.12346">
        <ele>418</ele>
        <time>2018-09-30T08:02:00Z</time>
      </trkpt>
      <trkpt lat="43.15746" lon="0.1235">
        <ele>418</ele>
        <time>2018-09-30T08:02:01Z</time>
      </trkpt>
      <trkpt lat="43.15745" lon="0.12354">
        <ele>418</ele>
        <time>2018-09-30T08:02:02Z</time>
      </trkpt>
      <trkpt lat="43.15745" lon="0.12359">
        <ele>419</ele>
        <time>2018-09-30T08:02:03Z</time>
      </trkpt>
      <trkpt lat="43.15744" lon="0.12362">
        <ele>419</ele>
        <time>2018-09-30T08:02:04Z</time>
      </trkpt>
      <trkpt lat="43.15743" lon="0.12366">
        <ele>419</ele>
        <time>2018-09-30T08:02:05Z</time>
      </trkpt>
      <trkpt lat="43.15742" lon="0.12369">
        <ele>420</ele>
        <time>2018-09-30T08:02:06Z</time>
      </trkpt>
      <trkpt lat="43.15742" lon="0.12373">
        <ele>420</ele>
        <time>2018-09-30T08:02:07Z</time>
      </trkpt>
      <trkpt lat="43.15741" lon="0.12376">
        <ele>420</ele>
        <time>2018-09-30T08:02:08Z</time>
      </trkpt>
      <trkpt lat="43.1574" lon="0.12379">
        <ele>420</ele>
        <time>2018-09-30T08:02:09Z</time>
      </trkpt>
      <trkpt lat="43.15739" lon="0.12383">
        <ele>421</ele>
        <time>2018-09-30T08:02:10Z</time>
      </trkpt>
      <trkpt lat="43.15739" lon="0.12386">
        <ele>421</ele>
        <time>2018-09-30T08:02:11Z</time>
      </trkpt>
      <trkpt lat="43.15739" lon="0.12389">
        <ele>421</ele>
        <time>2018-09-30T08:02:12Z</time>
      </trkpt>
      <trkpt lat="43.1574" lon="0.12391">
        <ele>421</ele>
        <time>2018-09-30T08:02:13Z</time>
      </trkpt>
      <trkpt lat="43.15742" lon="0.12392">
        <ele>422</ele>
        <time>2018-09-30T08:02:14Z</time>
      </trkpt>
      <trkpt lat="43.15744" lon="0.12392">
        <ele>422</ele>
        <time>2018-09-30T08:02:15Z</time>
      </trkpt>
      <trkpt lat="43.15746" lon="0.12391">
        <ele>422</ele>
        <time>2018-09-30T08:02:16Z</time>
      </trkpt>
      <trkpt lat="43.15748" lon="0.12389">
        <ele>423</ele>
        <time>2018-09-30T08:02:17Z</time>
      </trkpt>
      <trkpt lat="43.15749" lon="0.12387">
        <ele>423</ele>
        <time>2018-09-30T08:02:18Z</time>
      </trkpt>
      <trkpt lat="43.15752" lon="0.12385">
        <ele>423</ele>
        <time>2018-09-30T08:02:19Z</time>
      </trkpt>
      <trkpt lat="43.15754" lon="0.12383">
        <ele>423</ele>
        <time>2018-09-30T08:02:20Z</time>
      </trkpt>
      <trkpt lat="43.15755" lon="0.1238">
        <ele>423</ele>
        <time>2018-09-30T08:02:21Z</time>
      </trkpt>
      <trkpt lat="43.15757" lon="0.12377">
        <ele>424</ele>
        <time>2018-09-30T08:02:22Z</time>
      </trkpt>
      <trkpt lat="43.15759" lon="0.12373">
        <ele>424</ele>
        <time>2018-09-30T08:02:23Z</time>
      </trkpt>
      <trkpt lat="43.15761" lon="0.1237">
        <ele>424</ele>
        <time>2018-09-30T08:02:24Z</time>
      </trkpt>
      <trkpt lat="43.15763" lon="0.12365">
        <ele>424</ele>
        <time>2018-09-30T08:02:25Z</time>
      </trkpt>
      <trkpt lat="43.15766" lon="0.12359">
        <ele>425</ele>
        <time>2018-09-30T08:02:26Z</time>
      </trkpt>
      <trkpt lat="43.15768" lon="0.12354">
        <ele>425</ele>
        <time>2018-09-30T08:02:27Z</time>
      </trkpt>
      <trkpt lat="43.15769" lon="0.12349">
        <ele>425</ele>
        <time>2018-09-30T08:02:28Z</time>
      </trkpt>
      <trkpt lat="43.15771" lon="0.12346">
        <ele>425</ele>
        <time>2018-09-30T08:02:29Z</time>
      </trkpt>
      <trkpt lat="43.15772" lon="0.12343">
        <ele>425</ele>
        <time>2018-09-30T08:02:30Z</time>
      </trkpt>
      <trkpt lat="43.15774" lon="0.12341">
        <ele>426</ele>
        <time>2018-09-30T08:02:32Z</time>
      </trkpt>
      <trkpt lat="43.15776" lon="0.12338">
        <ele>426</ele>
        <time>2018-09-30T08:02:33Z</time>
      </trkpt>
      <trkpt lat="43.15778" lon="0.12336">
        <ele>426</ele>
        <time>2018-09-30T08:02:34Z</time>
      </trkpt>
      <trkpt lat="43.15781" lon="0.12336">
        <ele>426</ele>
        <time>2018-09-30T08:02:35Z</time>
      </trkpt>
      <trkpt lat="43.15784" lon="0.12335">
        <ele>427</ele>
        <time>2018-09-30T08:02:36Z</time>
      </trkpt>
      <trkpt lat="43.15788" lon="0.12337">
        <ele>427</ele>
        <time>2018-09-30T08:02:37Z</time>
      </trkpt>
      <trkpt lat="43.1579" lon="0.12339">
        <ele>427</ele>
        <time>2018-09-30T08:02:38Z</time>
      </trkpt>
      <trkpt lat="43.15793" lon="0.1234">
        <ele>427</ele>
        <time>2018-09-30T08:02:39Z</time>
      </trkpt>
      <trkpt lat="43.15795" lon="0.12341">
        <ele>427</ele>
        <time>2018-09-30T08:02:40Z</time>
      </trkpt>
      <trkpt lat="43.15798" lon="0.12343">
        <ele>428</ele>
        <time>2018-09-30T08:02:41Z</time>
      </trkpt>
      <trkpt lat="43.158" lon="0.12345">
        <ele>428</ele>
        <time>2018-09-30T08:02:42Z</time>
      </trkpt>
      <trkpt lat="43.15802" lon="0.12348">
        <ele>428</ele>
        <time>2018-09-30T08:02:43Z</time>
      </trkpt>
      <trkpt lat="43.15804" lon="0.12351">
        <ele>428</ele>
        <time>2018-09-30T08:02:44Z</time>
      </trkpt>
      <trkpt lat="43.15806" lon="0.12352">
        <ele>428</ele>
        <time>2018-09-30T08:02:45Z</time>
      </trkpt>
      <trkpt lat="43.15808" lon="0.12354">
        <ele>429</ele>
        <time>2018-09-30T08:02:46Z</time>
      </trkpt>
      <trkpt lat="43.1581" lon="0.12355">
        <ele>429</ele>
        <time>2018-09-30T08:02:47Z</time>
      </trkpt>
      <trkpt lat="43.15812" lon="0.12356">
        <ele>429</ele>
        <time>2018-09-30T08:02:48Z</time>
      </trkpt>
      <trkpt lat="43.15814" lon="0.12358">
        <ele>429</ele>
        <time>2018-09-30T08:02:49Z</time>
      </trkpt>
      <trkpt lat="43.15816" lon="0.12359">
        <ele>429</ele>
        <time>2018-09-30T08:02:50Z</time>
      </trkpt>
      <trkpt lat="43.15818" lon="0.12361">
        <ele>430</ele>
        <time>2018-09-30T08:02:51Z</time>
      </trkpt>
      <trkpt lat="43.1582" lon="0.12362">
        <ele>430</ele>
        <time>2018-09-30T08:02:52Z</time>
      </trkpt>
      <trkpt lat="43.15821" lon="0.12364">
        <ele>430</ele>
        <time>2018-09-30T08:02:53Z</time>
      </trkpt>
      <trkpt lat="43.15823" lon="0.12365">
        <ele>430</ele>
        <time>2018-09-30T08:02:54Z</time>
      </trkpt>
      <trkpt lat="43.15825" lon="0.12367">
        <ele>431</ele>
        <time>2018-09-30T08:02:55Z</time>
      </trkpt>
      <trkpt lat="43.15828" lon="0.12368">
        <ele>431</ele>
        <time>2018-09-30T08:02:56Z</time>
      </trkpt>
      <trkpt lat="43.1583" lon="0.1237">
        <ele>431</ele>
        <time>2018-09-30T08:02:57Z</time>
      </trkpt>
      <trkpt lat="43.15833" lon="0.12372">
        <ele>432</ele>
        <time>2018-09-30T08:02:58Z</time>
      </trkpt>
      <trkpt lat="43.15836" lon="0.12375">
        <ele>432</ele>
        <time>2018-09-30T08:02:59Z</time>
      </trkpt>
      <trkpt lat="43.15838" lon="0.12376">
        <ele>432</ele>
        <time>2018-09-30T08:03:00Z</time>
      </trkpt>
      <trkpt lat="43.1584" lon="0.12378">
        <ele>433</ele>
        <time>2018-09-30T08:03:01Z</time>
      </trkpt>
      <trkpt lat="43.15842" lon="0.12379">
        <ele>433</ele>
        <time>2018-09-30T08:03:02Z</time>
      </trkpt>
      <trkpt lat="43.15844" lon="0.12381">
        <ele>433</ele>
        <time>2018-09-30T08:03:03Z</time>
      </trkpt>
      <trkpt lat="43.15845" lon="0.12382">
        <ele>434</ele>
        <time>2018-09-30T08:03:04Z</time>
      </trkpt>
      <trkpt lat="43.15847" lon="0.12384">
        <ele>434</ele>
        <time>2018-09-30T08:03:05Z</time>
      </trkpt>
      <trkpt lat="43.1585" lon="0.12387">
        <ele>435</ele>
        <time>2018-09-30T08:03:06Z</time>
      </trkpt>
      <trkpt lat="43.15852" lon="0.1239">
        <ele>435</ele>
        <time>2018-09-30T08:03:07Z</time>
      </trkpt>
      <trkpt lat="43.15854" lon="0.12393">
        <ele>435</ele>
        <time>2018-09-30T08:03:08Z</time>
      </trkpt>
      <trkpt lat="43.15856" lon="0.12395">
        <ele>436</ele>
        <time>2018-09-30T08:03:09Z</time>
      </trkpt>
      <trkpt lat="43.15858" lon="0.12398">
        <ele>436</ele>
        <time>2018-09-30T08:03:10Z</time>
      </trkpt>
      <trkpt lat="43.1586" lon="0.12401">
        <ele>437</ele>
        <time>2018-09-30T08:03:11Z</time>
      </trkpt>
      <trkpt lat="43.15861" lon="0.12404">
        <ele>437</ele>
        <time>2018-09-30T08:03:12Z</time>
      </trkpt>
      <trkpt lat="43.15863" lon="0.12406">
        <ele>438</ele>
        <time>2018-09-30T08:03:13Z</time>
      </trkpt>
      <trkpt lat="43.15864" lon="0.12408">
        <ele>438</ele>
        <time>2018-09-30T08:03:14Z</time>
      </trkpt>
      <trkpt lat="43.15865" lon="0.1241">
        <ele>439</ele>
        <time>2018-09-30T08:03:15Z</time>
      </trkpt>
      <trkpt lat="43.15866" lon="0.12414">
        <ele>439</ele>
        <time>2018-09-30T08:03:16Z</time>
      </trkpt>
      <trkpt lat="43.15868" lon="0.12416">
        <ele>439</ele>
        <time>2018-09-30T08:03:17Z</time>
      </trkpt>
      <trkpt lat="43.1587" lon="0.12417">
        <ele>440</ele>
        <time>2018-09-30T08:03:18Z</time>
      </trkpt>
      <trkpt lat="43.15871" lon="0.12419">
        <ele>440</ele>
        <time>2018-09-30T08:03:19Z</time>
      </trkpt>
      <trkpt lat="43.15873" lon="0.1242">
        <ele>440</ele>
        <time>2018-09-30T08:03:20Z</time>
      </trkpt>
      <trkpt lat="43.15874" lon="0.12422">
        <ele>441</ele>
        <time>2018-09-30T08:03:21Z</time>
      </trkpt>
      <trkpt lat="43.15876" lon="0.12424">
        <ele>441</ele>
        <time>2018-09-30T08:03:22Z</time>
      </trkpt>
      <trkpt lat="43.15878" lon="0.12426">
        <ele>441</ele>
        <time>2018-09-30T08:03:23Z</time>
      </trkpt>
      <trkpt lat="43.15881" lon="0.12428">
        <ele>442</ele>
        <time>2018-09-30T08:03:24Z</time>
      </trkpt>
      <trkpt lat="43.15884" lon="0.12431">
        <ele>442</ele>
        <time>2018-09-30T08:03:25Z</time>
      </trkpt>
      <trkpt lat="43.15887" lon="0.12435">
        <ele>443</ele>
        <time>2018-09-30T08:03:26Z</time>
      </trkpt>
      <trkpt lat="43.15888" lon="0.12436">
        <ele>443</ele>
        <time>2018-09-30T08:03:27Z</time>
      </trkpt>
      <trkpt lat="43.15889" lon="0.12437">
        <ele>443</ele>
        <time>2018-09-30T08:03:28Z</time>
      </trkpt>
      <trkpt lat="43.1589" lon="0.12439">
        <ele>443</ele>
        <time>2018-09-30T08:03:29Z</time>
      </trkpt>
      <trkpt lat="43.1589" lon="0.12439">
        <ele>444</ele>
        <time>2018-09-30T08:03:30Z</time>
      </trkpt>
      <trkpt lat="43.15893" lon="0.1244">
        <ele>444</ele>
        <time>2018-09-30T08:03:31Z</time>
      </trkpt>
      <trkpt lat="43.15895" lon="0.12441">
        <ele>444</ele>
        <time>2018-09-30T08:03:32Z</time>
      </trkpt>
      <trkpt lat="43.15895" lon="0.12441">
        <ele>444</ele>
        <time>2018-09-30T08:03:33Z</time>
      </trkpt>
      <trkpt lat="43.15896" lon="0.12441">
        <ele>444</ele>
        <time>2018-09-30T08:03:34Z</time>
      </trkpt>
      <trkpt lat="43.15896" lon="0.12441">
        <ele>444</ele>
        <time>2018-09-30T08:03:35Z</time>
      </trkpt>
      <trkpt lat="43.15896" lon="0.12441">
        <ele>445</ele>
        <time>2018-09-30T08:03:36Z</time>
      </trkpt>
      <trkpt lat="43.15896" lon="0.12441">
        <ele>445</ele>
        <time>2018-09-30T08:03:37Z</time>
      </trkpt>
      <trkpt lat="43.15896" lon="0.12441">
        <ele>445</ele>
        <time>2018-09-30T08:03:38Z</time>
      </trkpt>
      <trkpt lat="43.15896" lon="0.12442">
        <ele>445</ele>
        <time>2018-09-30T08:03:39Z</time>
      </trkpt>
      <trkpt lat="43.15896" lon="0.12442">
        <ele>445</ele>
        <time>2018-09-30T08:03:40Z</time>
      </trkpt>
      <trkpt lat="43.15897" lon="0.12443">
        <ele>445</ele>
        <time>2018-09-30T08:03:41Z</time>
      </trkpt>
      <trkpt lat="43.15898" lon="0.12444">
        <ele>445</ele>
        <time>2018-09-30T08:03:42Z</time>
      </trkpt>
      <trkpt lat="43.159" lon="0.12446">
        <ele>445</ele>
        <time>2018-09-30T08:03:43Z</time>
      </trkpt>
      <trkpt lat="43.15902" lon="0.12448">
        <ele>447</ele>
        <time>2018-09-30T08:03:44Z</time>
      </trkpt>
      <trkpt lat="43.15904" lon="0.1245">
        <ele>447</ele>
        <time>2018-09-30T08:03:45Z</time>
      </trkpt>
      <trkpt lat="43.15906" lon="0.12451">
        <ele>447</ele>
        <time>2018-09-30T08:03:46Z</time>
      </trkpt>
      <trkpt lat="43.15908" lon="0.12453">
        <ele>448</ele>
        <time>2018-09-30T08:03:47Z</time>
      </trkpt>
      <trkpt lat="43.1591" lon="0.12455">
        <ele>448</ele>
        <time>2018-09-30T08:03:48Z</time>
      </trkpt>
      <trkpt lat="43.15912" lon="0.12457">
        <ele>448</ele>
        <time>2018-09-30T08:03:49Z</time>
      </trkpt>
      <trkpt lat="43.15915" lon="0.12459">
        <ele>449</ele>
        <time>2018-09-30T08:03:50Z</time>
      </trkpt>
      <trkpt lat="43.15917" lon="0.12461">
        <ele>449</ele>
        <time>2018-09-30T08:03:51Z</time>
      </trkpt>
      <trkpt lat="43.1592" lon="0.12462">
        <ele>449</ele>
        <time>2018-09-30T08:03:52Z</time>
      </trkpt>
      <trkpt lat="43.15922" lon="0.12464">
        <ele>449</ele>
        <time>2018-09-30T08:03:53Z</time>
      </trkpt>
      <trkpt lat="43.15925" lon="0.12466">
        <ele>449</ele>
        <time>2018-09-30T08:03:54Z</time>
      </trkpt>
      <trkpt lat="43.15927" lon="0.12469">
        <ele>449</ele>
        <time>2018-09-30T08:03:55Z</time>
      </trkpt>
      <trkpt lat="43.15929" lon="0.12471">
        <ele>450</ele>
        <time>2018-09-30T08:03:56Z</time>
      </trkpt>
      <trkpt lat="43.1593" lon="0.12474">
        <ele>450</ele>
        <time>2018-09-30T08:03:57Z</time>
      </trkpt>
      <trkpt lat="43.15932" lon="0.12476">
        <ele>450</ele>
        <time>2018-09-30T08:03:58Z</time>
      </trkpt>
      <trkpt lat="43.15934" lon="0.12478">
        <ele>450</ele>
        <time>2018-09-30T08:03:59Z</time>
      </trkpt>
      <trkpt lat="43.15936" lon="0.1248">
        <ele>450</ele>
        <time>2018-09-30T08:04:00Z</time>
      </trkpt>
      <trkpt lat="43.15938" lon="0.12482">
        <ele>450</ele>
        <time>2018-09-30T08:04:01Z</time>
      </trkpt>
      <trkpt lat="43.15941" lon="0.12483">
        <ele>451</ele>
        <time>2018-09-30T08:04:02Z</time>
      </trkpt>
      <trkpt lat="43.15943" lon="0.12485">
        <ele>451</ele>
        <time>2018-09-30T08:04:03Z</time>
      </trkpt>
      <trkpt lat="43.15945" lon="0.12486">
        <ele>451</ele>
        <time>2018-09-30T08:04:04Z</time>
      </trkpt>
      <trkpt lat="43.15946" lon="0.12487">
        <ele>451</ele>
        <time>2018-09-30T08:04:05Z</time>
      </trkpt>
      <trkpt lat="43.15948" lon="0.12488">
        <ele>451</ele>
        <time>2018-09-30T08:04:06Z</time>
      </trkpt>
      <trkpt lat="43.15949" lon="0.12489">
        <ele>451</ele>
        <time>2018-09-30T08:04:07Z</time>
      </trkpt>
      <trkpt lat="43.15951" lon="0.1249">
        <ele>451</ele>
        <time>2018-09-30T08:04:08Z</time>
      </trkpt>
      <trkpt lat="43.15952" lon="0.12492">
        <ele>452</ele>
        <time>2018-09-30T08:04:09Z</time>
      </trkpt>
      <trkpt lat="43.15954" lon="0.12493">
        <ele>452</ele>
        <time>2018-09-30T08:04:10Z</time>
      </trkpt>
      <trkpt lat="43.15955" lon="0.12494">
        <ele>452</ele>
        <time>2018-09-30T08:04:11Z</time>
      </trkpt>
      <trkpt lat="43.15957" lon="0.12495">
        <ele>452</ele>
        <time>2018-09-30T08:04:12Z</time>
      </trkpt>
      <trkpt lat="43.15958" lon="0.12496">
        <ele>452</ele>
        <time>2018-09-30T08:04:13Z</time>
      </trkpt>
      <trkpt lat="43.1596" lon="0.12497">
        <ele>452</ele>
        <time>2018-09-30T08:04:14Z</time>
      </trkpt>
      <trkpt lat="43.15961" lon="0.12498">
        <ele>452</ele>
        <time>2018-09-30T08:04:15Z</time>
      </trkpt>
      <trkpt lat="43.15963" lon="0.12499">
        <ele>452</ele>
        <time>2018-09-30T08:04:16Z</time>
      </trkpt>
      <trkpt lat="43.15965" lon="0.125">
        <ele>453</ele>
        <time>2018-09-30T08:04:17Z</time>
      </trkpt>
      <trkpt lat="43.15966" lon="0.12501">
        <ele>453</ele>
        <time>2018-09-30T08:04:18Z</time>
      </trkpt>
      <trkpt lat="43.15968" lon="0.12502">
        <ele>453</ele>
        <time>2018-09-30T08:04:19Z</time>
      </trkpt>
      <trkpt lat="43.1597" lon="0.12503">
        <ele>453</ele>
        <time>2018-09-30T08:04:20Z</time>
      </trkpt>
      <trkpt lat="43.15972" lon="0.12505">
        <ele>453</ele>
        <time>2018-09-30T08:04:21Z</time>
      </trkpt>
      <trkpt lat="43.15973" lon="0.12506">
        <ele>453</ele>
        <time>2018-09-30T08:04:22Z</time>
      </trkpt>
      <trkpt lat="43.15975" lon="0.12507">
        <ele>453</ele>
        <time>2018-09-30T08:04:23Z</time>
      </trkpt>
      <trkpt lat="43.15977" lon="0.12508">
        <ele>454</ele>
        <time>2018-09-30T08:04:24Z</time>
      </trkpt>
      <trkpt lat="43.15979" lon="0.1251">
        <ele>454</ele>
        <time>2018-09-30T08:04:25Z</time>
      </trkpt>
      <trkpt lat="43.1598" lon="0.12511">
        <ele>454</ele>
        <time>2018-09-30T08:04:26Z</time>
      </trkpt>
      <trkpt lat="43.15982" lon="0.12513">
        <ele>454</ele>
        <time>2018-09-30T08:04:27Z</time>
      </trkpt>
      <trkpt lat="43.15984" lon="0.12515">
        <ele>454</ele>
        <time>2018-09-30T08:04:28Z</time>
      </trkpt>
      <trkpt lat="43.15985" lon="0.12517">
        <ele>454</ele>
        <time>2018-09-30T08:04:29Z</time>
      </trkpt>
      <trkpt lat="43.15988" lon="0.12518">
        <ele>454</ele>
        <time>2018-09-30T08:04:30Z</time>
      </trkpt>
      <trkpt lat="43.1599" lon="0.12521">
        <ele>454</ele>
        <time>2018-09-30T08:04:31Z</time>
      </trkpt>
      <trkpt lat="43.15992" lon="0.12523">
        <ele>454</ele>
        <time>2018-09-30T08:04:32Z</time>
      </trkpt>
      <trkpt lat="43.15993" lon="0.12525">
        <ele>455</ele>
        <time>2018-09-30T08:04:33Z</time>
      </trkpt>
      <trkpt lat="43.15994" lon="0.12526">
        <ele>455</ele>
        <time>2018-09-30T08:04:34Z</time>
      </trkpt>
      <trkpt lat="43.15995" lon="0.12528">
        <ele>455</ele>
        <time>2018-09-30T08:04:35Z</time>
      </trkpt>
      <trkpt lat="43.15997" lon="0.12529">
        <ele>455</ele>
        <time>2018-09-30T08:04:36Z</time>
      </trkpt>
      <trkpt lat="43.15998" lon="0.1253">
        <ele>455</ele>
        <time>2018-09-30T08:04:37Z</time>
      </trkpt>
      <trkpt lat="43.16" lon="0.12532">
        <ele>455</ele>
        <time>2018-09-30T08:04:38Z</time>
      </trkpt>
      <trkpt lat="43.16003" lon="0.12532">
        <ele>455</ele>
        <time>2018-09-30T08:04:39Z</time>
      </trkpt>
      <trkpt lat="43.16006" lon="0.12534">
        <ele>456</ele>
        <time>2018-09-30T08:04:40Z</time>
      </trkpt>
      <trkpt lat="43.16008" lon="0.12536">
        <ele>456</ele>
        <time>2018-09-30T08:04:41Z</time>
      </trkpt>
      <trkpt lat="43.1601" lon="0.12537">
        <ele>456</ele>
        <time>2018-09-30T08:04:42Z</time>
      </trkpt>
      <trkpt lat="43.16012" lon="0.12538">
        <ele>456</ele>
        <time>2018-09-30T08:04:43Z</time>
      </trkpt>
      <trkpt lat="43.16014" lon="0.12539">
        <ele>456</ele>
        <time>2018-09-30T08:04:44Z</time>
      </trkpt>
      <trkpt lat="43.16017" lon="0.12541">
        <ele>457</ele>
        <time>2018-09-30T08:04:45Z</time>
      </trkpt>
      <trkpt lat="43.16019" lon="0.12542">
        <ele>457</ele>
        <time>2018-09-30T08:04:46Z</time>
      </trkpt>
      <trkpt lat="43.16021" lon="0.12543">
        <ele>457</ele>
        <time>2018-09-30T08:04:47Z</time>
      </trkpt>
      <trkpt lat="43.16022" lon="0.12544">
        <ele>457</ele>
        <time>2018-09-30T08:04:48Z</time>
      </trkpt>
      <trkpt lat="43.16024" lon="0.12545">
        <ele>457</ele>
        <time>2018-09-30T08:04:49Z</time>
      </trkpt>
      <trkpt lat="43.16026" lon="0.12546">
        <ele>458</ele>
        <time>2018-09-30T08:04:50Z</time>
      </trkpt>
      <trkpt lat="43.16029" lon="0.12547">
        <ele>458</ele>
        <time>2018-09-30T08:04:51Z</time>
      </trkpt>
      <trkpt lat="43.1603" lon="0.12547">
        <ele>458</ele>
        <time>2018-09-30T08:04:52Z</time>
      </trkpt>
      <trkpt lat="43.16032" lon="0.12548">
        <ele>458</ele>
        <time>2018-09-30T08:04:53Z</time>
      </trkpt>
      <trkpt lat="43.16035" lon="0.1255">
        <ele>458</ele>
        <time>2018-09-30T08:04:54Z</time>
      </trkpt>
      <trkpt lat="43.16038" lon="0.12552">
        <ele>459</ele>
        <time>2018-09-30T08:04:55Z</time>
      </trkpt>
      <trkpt lat="43.1604" lon="0.12553">
        <ele>459</ele>
        <time>2018-09-30T08:04:56Z</time>
      </trkpt>
      <trkpt lat="43.16042" lon="0.12554">
        <ele>459</ele>
        <time>2018-09-30T08:04:57Z</time>
      </trkpt>
      <trkpt lat="43.16044" lon="0.12556">
        <ele>459</ele>
        <time>2018-09-30T08:04:58Z</time>
      </trkpt>
      <trkpt lat="43.16046" lon="0.12557">
        <ele>460</ele>
        <time>2018-09-30T08:04:59Z</time>
      </trkpt>
      <trkpt lat="43.16048" lon="0.12558">
        <ele>460</ele>
        <time>2018-09-30T08:05:00Z</time>
      </trkpt>
      <trkpt lat="43.16049" lon="0.12559">
        <ele>460</ele>
        <time>2018-09-30T08:05:01Z</time>
      </trkpt>
      <trkpt lat="43.16051" lon="0.1256">
        <ele>460</ele>
        <time>2018-09-30T08:05:02Z</time>
      </trkpt>
      <trkpt lat="43.16053" lon="0.12562">
        <ele>460</ele>
        <time>2018-09-30T08:05:03Z</time>
      </trkpt>
      <trkpt lat="43.16055" lon="0.12563">
        <ele>461</ele>
        <time>2018-09-30T08:05:04Z</time>
      </trkpt>
      <trkpt lat="43.16057" lon="0.12564">
        <ele>461</ele>
        <time>2018-09-30T08:05:05Z</time>
      </trkpt>
      <trkpt lat="43.16059" lon="0.12565">
        <ele>461</ele>
        <time>2018-09-30T08:05:06Z</time>
      </trkpt>
      <trkpt lat="43.1606" lon="0.12567">
        <ele>462</ele>
        <time>2018-09-30T08:05:07Z</time>
      </trkpt>
      <trkpt lat="43.16062" lon="0.12568">
        <ele>462</ele>
        <time>2018-09-30T08:05:08Z</time>
      </trkpt>
      <trkpt lat="43.16064" lon="0.12569">
        <ele>462</ele>
        <time>2018-09-30T08:05:09Z</time>
      </trkpt>
      <trkpt lat="43.16067" lon="0.12571">
        <ele>462</ele>
        <time>2018-09-30T08:05:10Z</time>
      </trkpt>
      <trkpt lat="43.16069" lon="0.12573">
        <ele>462</ele>
        <time>2018-09-30T08:05:11Z</time>
      </trkpt>
      <trkpt lat="43.16071" lon="0.12576">
        <ele>462</ele>
        <time>2018-09-30T08:05:12Z</time>
      </trkpt>
      <trkpt lat="43.16073" lon="0.12579">
        <ele>463</ele>
        <time>2018-09-30T08:05:13Z</time>
      </trkpt>
      <trkpt lat="43.16075" lon="0.12582">
        <ele>463</ele>
        <time>2018-09-30T08:05:14Z</time>
      </trkpt>
      <trkpt lat="43.16077" lon="0.12585">
        <ele>463</ele>
        <time>2018-09-30T08:05:15Z</time>
      </trkpt>
      <trkpt lat="43.16079" lon="0.12589">
        <ele>463</ele>
        <time>2018-09-30T08:05:16Z</time>
      </trkpt>
      <trkpt lat="43.1608" lon="0.12591">
        <ele>463</ele>
        <time>2018-09-30T08:05:17Z</time>
      </trkpt>
      <trkpt lat="43.16081" lon="0.12594">
        <ele>463</ele>
        <time>2018-09-30T08:05:18Z</time>
      </trkpt>
      <trkpt lat="43.16082" lon="0.12597">
        <ele>463</ele>
        <time>2018-09-30T08:05:19Z</time>
      </trkpt>
      <trkpt lat="43.16083" lon="0.12601">
        <ele>463</ele>
        <time>2018-09-30T08:05:20Z</time>
      </trkpt>
      <trkpt lat="43.16083" lon="0.12604">
        <ele>464</ele>
        <time>2018-09-30T08:05:21Z</time>
      </trkpt>
      <trkpt lat="43.16084" lon="0.12607">
        <ele>464</ele>
        <time>2018-09-30T08:05:22Z</time>
      </trkpt>
      <trkpt lat="43.16084" lon="0.12611">
        <ele>464</ele>
        <time>2018-09-30T08:05:23Z</time>
      </trkpt>
      <trkpt lat="43.16085" lon="0.12615">
        <ele>464</ele>
        <time>2018-09-30T08:05:24Z</time>
      </trkpt>
      <trkpt lat="43.16085" lon="0.12619">
        <ele>464</ele>
        <time>2018-09-30T08:05:25Z</time>
      </trkpt>
      <trkpt lat="43.16085" lon="0.12624">
        <ele>465</ele>
        <time>2018-09-30T08:05:26Z</time>
      </trkpt>
      <trkpt lat="43.16084" lon="0.12629">
        <ele>465</ele>
        <time>2018-09-30T08:05:27Z</time>
      </trkpt>
      <trkpt lat="43.16084" lon="0.12633">
        <ele>465</ele>
        <time>2018-09-30T08:05:28Z</time>
      </trkpt>
      <trkpt lat="43.16083" lon="0.12637">
        <ele>465</ele>
        <time>2018-09-30T08:05:29Z</time>
      </trkpt>
      <trkpt lat="43.16082" lon="0.12642">
        <ele>465</ele>
        <time>2018-09-30T08:05:30Z</time>
      </trkpt>
      <trkpt lat="43.16081" lon="0.12646">
        <ele>466</ele>
        <time>2018-09-30T08:05:31Z</time>
      </trkpt>
      <trkpt lat="43.1608" lon="0.12649">
        <ele>466</ele>
        <time>2018-09-30T08:05:32Z</time>
      </trkpt>
      <trkpt lat="43.16079" lon="0.12653">
        <ele>466</ele>
        <time>2018-09-30T08:05:33Z</time>
      </trkpt>
      <trkpt lat="43.16078" lon="0.12656">
        <ele>466</ele>
        <time>2018-09-30T08:05:34Z</time>
      </trkpt>
      <trkpt lat="43.16077" lon="0.12659">
        <ele>467</ele>
        <time>2018-09-30T08:05:35Z</time>
      </trkpt>
      <trkpt lat="43.16076" lon="0.12661">
        <ele>467</ele>
        <time>2018-09-30T08:05:36Z</time>
      </trkpt>
      <trkpt lat="43.16074" lon="0.12664">
        <ele>467</ele>
        <time>2018-09-30T08:05:37Z</time>
      </trkpt>
      <trkpt lat="43.16073" lon="0.12665">
        <ele>467</ele>
        <time>2018-09-30T08:05:38Z</time>
      </trkpt>
      <trkpt lat="43.16073" lon="0.12667">
        <ele>468</ele>
        <time>2018-09-30T08:05:39Z</time>
      </trkpt>
      <trkpt lat="43.16072" lon="0.12668">
        <ele>468</ele>
        <time>2018-09-30T08:05:40Z</time>
      </trkpt>
      <trkpt lat="43.16072" lon="0.12669">
        <ele>468</ele>
        <time>2018-09-30T08:05:41Z</time>
      </trkpt>
      <trkpt lat="43.16071" lon="0.1267">
        <ele>469</ele>
        <time>2018-09-30T08:05:42Z</time>
      </trkpt>
      <trkpt lat="43.16071" lon="0.12672">
        <ele>469</ele>
        <time>2018-09-30T08:05:43Z</time>
      </trkpt>
      <trkpt lat="43.16069" lon="0.12673">
        <ele>469</ele>
        <time>2018-09-30T08:05:44Z</time>
      </trkpt>
      <trkpt lat="43.16068" lon="0.12675">
        <ele>469</ele>
        <time>2018-09-30T08:05:45Z</time>
      </trkpt>
      <trkpt lat="43.16066" lon="0.12677">
        <ele>469</ele>
        <time>2018-09-30T08:05:46Z</time>
      </trkpt>
      <trkpt lat="43.16063" lon="0.12679">
        <ele>470</ele>
        <time>2018-09-30T08:05:47Z</time>
      </trkpt>
      <trkpt lat="43.16061" lon="0.12682">
        <ele>470</ele>
        <time>2018-09-30T08:05:48Z</time>
      </trkpt>
      <trkpt lat="43.16058" lon="0.12684">
        <ele>470</ele>
        <time>2018-09-30T08:05:49Z</time>
      </trkpt>
      <trkpt lat="43.16055" lon="0.12687">
        <ele>470</ele>
        <time>2018-09-30T08:05:50Z</time>
      </trkpt>
      <trkpt lat="43.16051" lon="0.12689">
        <ele>470</ele>
        <time>2018-09-30T08:05:51Z</time>
      </trkpt>
      <trkpt lat="43.16047" lon="0.12691">
        <ele>470</ele>
        <time>2018-09-30T08:05:52Z</time>
      </trkpt>
      <trkpt lat="43.16044" lon="0.12694">
        <ele>470</ele>
        <time>2018-09-30T08:05:53Z</time>
      </trkpt>
      <trkpt lat="43.1604" lon="0.12696">
        <ele>470</ele>
        <time>2018-09-30T08:05:54Z</time>
      </trkpt>
      <trkpt lat="43.16036" lon="0.12699">
        <ele>470</ele>
        <time>2018-09-30T08:05:55Z</time>
      </trkpt>
      <trkpt lat="43.16032" lon="0.12701">
        <ele>470</ele>
        <time>2018-09-30T08:05:56Z</time>
      </trkpt>
      <trkpt lat="43.16027" lon="0.12705">
        <ele>470</ele>
        <time>2018-09-30T08:05:57Z</time>
      </trkpt>
      <trkpt lat="43.16023" lon="0.12708">
        <ele>470</ele>
        <time>2018-09-30T08:05:58Z</time>
      </trkpt>
      <trkpt lat="43.16017" lon="0.12711">
        <ele>470</ele>
        <time>2018-09-30T08:05:59Z</time>
      </trkpt>
      <trkpt lat="43.16012" lon="0.12715">
        <ele>470</ele>
        <time>2018-09-30T08:06:00Z</time>
      </trkpt>
      <trkpt lat="43.16008" lon="0.12717">
        <ele>470</ele>
        <time>2018-09-30T08:06:01Z</time>
      </trkpt>
      <trkpt lat="43.16004" lon="0.12721">
        <ele>470</ele>
        <time>2018-09-30T08:06:02Z</time>
      </trkpt>
      <trkpt lat="43.16" lon="0.12724">
        <ele>470</ele>
        <time>2018-09-30T08:06:03Z</time>
      </trkpt>
      <trkpt lat="43.15995" lon="0.12726">
        <ele>470</ele>
        <time>2018-09-30T08:06:04Z</time>
      </trkpt>
      <trkpt lat="43.15991" lon="0.12729">
        <ele>470</ele>
        <time>2018-09-30T08:06:05Z</time>
      </trkpt>
      <trkpt lat="43.15989" lon="0.12729">
        <ele>470</ele>
        <time>2018-09-30T08:06:06Z</time>
      </trkpt>
      <trkpt lat="43.15986" lon="0.12729">
        <ele>470</ele>
        <time>2018-09-30T08:06:07Z</time>
      </trkpt>
      <trkpt lat="43.1598" lon="0.12735">
        <ele>470</ele>
        <time>2018-09-30T08:06:08Z</time>
      </trkpt>
      <trkpt lat="43.15975" lon="0.1274">
        <ele>470</ele>
        <time>2018-09-30T08:06:09Z</time>
      </trkpt>
      <trkpt lat="43.15972" lon="0.12744">
        <ele>470</ele>
        <time>2018-09-30T08:06:10Z</time>
      </trkpt>
      <trkpt lat="43.15972" lon="0.1275">
        <ele>470</ele>
        <time>2018-09-30T08:06:11Z</time>
      </trkpt>
      <trkpt lat="43.15973" lon="0.12756">
        <ele>470</ele>
        <time>2018-09-30T08:06:12Z</time>
      </trkpt>
      <trkpt lat="43.15975" lon="0.12762">
        <ele>470</ele>
        <time>2018-09-30T08:06:13Z</time>
      </trkpt>
      <trkpt lat="43.15978" lon="0.12767">
        <ele>469</ele>
        <time>2018-09-30T08:06:14Z</time>
      </trkpt>
      <trkpt lat="43.15982" lon="0.12773">
        <ele>469</ele>
        <time>2018-09-30T08:06:15Z</time>
      </trkpt>
      <trkpt lat="43.15985" lon="0.1278">
        <ele>469</ele>
        <time>2018-09-30T08:06:16Z</time>
      </trkpt>
      <trkpt lat="43.15988" lon="0.12787">
        <ele>468</ele>
        <time>2018-09-30T08:06:17Z</time>
      </trkpt>
      <trkpt lat="43.15991" lon="0.12794">
        <ele>468</ele>
        <time>2018-09-30T08:06:18Z</time>
      </trkpt>
      <trkpt lat="43.15993" lon="0.12802">
        <ele>468</ele>
        <time>2018-09-30T08:06:19Z</time>
      </trkpt>
      <trkpt lat="43.15995" lon="0.12809">
        <ele>467</ele>
        <time>2018-09-30T08:06:20Z</time>
      </trkpt>
      <trkpt lat="43.15996" lon="0.12817">
        <ele>467</ele>
        <time>2018-09-30T08:06:21Z</time>
      </trkpt>
      <trkpt lat="43.15996" lon="0.12826">
        <ele>468</ele>
        <time>2018-09-30T08:06:22Z</time>
      </trkpt>
      <trkpt lat="43.15996" lon="0.12834">
        <ele>468</ele>
        <time>2018-09-30T08:06:23Z</time>
      </trkpt>
      <trkpt lat="43.15995" lon="0.12843">
        <ele>468</ele>
        <time>2018-09-30T08:06:24Z</time>
      </trkpt>
      <trkpt lat="43.15995" lon="0.1285">
        <ele>468</ele>
        <time>2018-09-30T08:06:25Z</time>
      </trkpt>
      <trkpt lat="43.15995" lon="0.12857">
        <ele>469</ele>
        <time>2018-09-30T08:06:26Z</time>
      </trkpt>
      <trkpt lat="43.15996" lon="0.12864">
        <ele>469</ele>
        <time>2018-09-30T08:06:27Z</time>
      </trkpt>
      <trkpt lat="43.15995" lon="0.12871">
        <ele>469</ele>
        <time>2018-09-30T08:06:28Z</time>
      </trkpt>
      <trkpt lat="43.15996" lon="0.12878">
        <ele>470</ele>
        <time>2018-09-30T08:06:29Z</time>
      </trkpt>
      <trkpt lat="43.15995" lon="0.12884">
        <ele>470</ele>
        <time>2018-09-30T08:06:30Z</time>
      </trkpt>
      <trkpt lat="43.15995" lon="0.1289">
        <ele>470</ele>
        <time>2018-09-30T08:06:31Z</time>
      </trkpt>
      <trkpt lat="43.15996" lon="0.12897">
        <ele>471</ele>
        <time>2018-09-30T08:06:32Z</time>
      </trkpt>
      <trkpt lat="43.15996" lon="0.12903">
        <ele>471</ele>
        <time>2018-09-30T08:06:33Z</time>
      </trkpt>
      <trkpt lat="43.15996" lon="0.12908">
        <ele>471</ele>
        <time>2018-09-30T08:06:34Z</time>
      </trkpt>
      <trkpt lat="43.15996" lon="0.12913">
        <ele>471</ele>
        <time>2018-09-30T08:06:35Z</time>
      </trkpt>
      <trkpt lat="43.15996" lon="0.12918">
        <ele>471</ele>
        <time>2018-09-30T08:06:36Z</time>
      </trkpt>
      <trkpt lat="43.15996" lon="0.12923">
        <ele>471</ele>
        <time>2018-09-30T08:06:37Z</time>
      </trkpt>
      <trkpt lat="43.15997" lon="0.1293">
        <ele>471</ele>
        <time>2018-09-30T08:06:38Z</time>
      </trkpt>
      <trkpt lat="43.15997" lon="0.12935">
        <ele>471</ele>
        <time>2018-09-30T08:06:39Z</time>
      </trkpt>
      <trkpt lat="43.15998" lon="0.1294">
        <ele>471</ele>
        <time>2018-09-30T08:06:40Z</time>
      </trkpt>
      <trkpt lat="43.15998" lon="0.12944">
        <ele>471</ele>
        <time>2018-09-30T08:06:41Z</time>
      </trkpt>
      <trkpt lat="43.15999" lon="0.12948">
        <ele>471</ele>
        <time>2018-09-30T08:06:42Z</time>
      </trkpt>
      <trkpt lat="43.15999" lon="0.12951">
        <ele>471</ele>
        <time>2018-09-30T08:06:43Z</time>
      </trkpt>
      <trkpt lat="43.15999" lon="0.12956">
        <ele>472</ele>
        <time>2018-09-30T08:06:44Z</time>
      </trkpt>
      <trkpt lat="43.16" lon="0.1296">
        <ele>472</ele>
        <time>2018-09-30T08:06:45Z</time>
      </trkpt>
      <trkpt lat="43.16" lon="0.12965">
        <ele>472</ele>
        <time>2018-09-30T08:06:46Z</time>
      </trkpt>
      <trkpt lat="43.16002" lon="0.1297">
        <ele>472</ele>
        <time>2018-09-30T08:06:47Z</time>
      </trkpt>
      <trkpt lat="43.16003" lon="0.12975">
        <ele>472</ele>
        <time>2018-09-30T08:06:48Z</time>
      </trkpt>
      <trkpt lat="43.16004" lon="0.12978">
        <ele>472</ele>
        <time>2018-09-30T08:06:49Z</time>
      </trkpt>
      <trkpt lat="43.16005" lon="0.12981">
        <ele>472</ele>
        <time>2018-09-30T08:06:50Z</time>
      </trkpt>
      <trkpt lat="43.16005" lon="0.12983">
        <ele>472</ele>
        <time>2018-09-30T08:06:51Z</time>
      </trkpt>
      <trkpt lat="43.16005" lon="0.12985">
        <ele>472</ele>
        <time>2018-09-30T08:06:52Z</time>
      </trkpt>
      <trkpt lat="43.16005" lon="0.12987">
        <ele>472</ele>
        <time>2018-09-30T08:06:53Z</time>
      </trkpt>
      <trkpt lat="43.16005" lon="0.1299">
        <ele>473</ele>
        <time>2018-09-30T08:06:54Z</time>
      </trkpt>
      <trkpt lat="43.16005" lon="0.12993">
        <ele>473</ele>
        <time>2018-09-30T08:06:55Z</time>
      </trkpt>
      <trkpt lat="43.16004" lon="0.12997">
        <ele>473</ele>
        <time>2018-09-30T08:06:56Z</time>
      </trkpt>
      <trkpt lat="43.16003" lon="0.13001">
        <ele>473</ele>
        <time>2018-09-30T08:06:57Z</time>
      </trkpt>
      <trkpt lat="43.16002" lon="0.13006">
        <ele>473</ele>
        <time>2018-09-30T08:06:58Z</time>
      </trkpt>
      <trkpt lat="43.16002" lon="0.13011">
        <ele>473</ele>
        <time>2018-09-30T08:06:59Z</time>
      </trkpt>
      <trkpt lat="43.16002" lon="0.13016">
        <ele>473</ele>
        <time>2018-09-30T08:07:00Z</time>
      </trkpt>
      <trkpt lat="43.16001" lon="0.13022">
        <ele>474</ele>
        <time>2018-09-30T08:07:01Z</time>
      </trkpt>
      <trkpt lat="43.16" lon="0.13028">
        <ele>475</ele>
        <time>2018-09-30T08:07:02Z</time>
      </trkpt>
      <trkpt lat="43.15999" lon="0.13034">
        <ele>475</ele>
        <time>2018-09-30T08:07:03Z</time>
      </trkpt>
      <trkpt lat="43.15998" lon="0.1304">
        <ele>476</ele>
        <time>2018-09-30T08:07:04Z</time>
      </trkpt>
      <trkpt lat="43.15997" lon="0.13045">
        <ele>477</ele>
        <time>2018-09-30T08:07:05Z</time>
      </trkpt>
      <trkpt lat="43.15995" lon="0.13052">
        <ele>477</ele>
        <time>2018-09-30T08:07:06Z</time>
      </trkpt>
      <trkpt lat="43.15994" lon="0.13058">
        <ele>478</ele>
        <time>2018-09-30T08:07:07Z</time>
      </trkpt>
      <trkpt lat="43.15992" lon="0.13064">
        <ele>478</ele>
        <time>2018-09-30T08:07:08Z</time>
      </trkpt>
      <trkpt lat="43.15991" lon="0.1307">
        <ele>478</ele>
        <time>2018-09-30T08:07:09Z</time>
      </trkpt>
      <trkpt lat="43.15989" lon="0.13075">
        <ele>479</ele>
        <time>2018-09-30T08:07:10Z</time>
      </trkpt>
      <trkpt lat="43.15987" lon="0.13079">
        <ele>479</ele>
        <time>2018-09-30T08:07:11Z</time>
      </trkpt>
      <trkpt lat="43.15985" lon="0.13083">
        <ele>479</ele>
        <time>2018-09-30T08:07:12Z</time>
      </trkpt>
      <trkpt lat="43.15983" lon="0.13087">
        <ele>479</ele>
        <time>2018-09-30T08:07:13Z</time>
      </trkpt>
      <trkpt lat="43.15981" lon="0.13092">
        <ele>479</ele>
        <time>2018-09-30T08:07:14Z</time>
      </trkpt>
      <trkpt lat="43.1598" lon="0.13097">
        <ele>479</ele>
        <time>2018-09-30T08:07:15Z</time>
      </trkpt>
      <trkpt lat="43.15978" lon="0.13102">
        <ele>479</ele>
        <time>2018-09-30T08:07:16Z</time>
      </trkpt>
      <trkpt lat="43.15975" lon="0.13107">
        <ele>479</ele>
        <time>2018-09-30T08:07:17Z</time>
      </trkpt>
      <trkpt lat="43.15973" lon="0.1311">
        <ele>480</ele>
        <time>2018-09-30T08:07:18Z</time>
      </trkpt>
      <trkpt lat="43.1597" lon="0.13114">
        <ele>480</ele>
        <time>2018-09-30T08:07:19Z</time>
      </trkpt>
      <trkpt lat="43.15967" lon="0.13118">
        <ele>480</ele>
        <time>2018-09-30T08:07:20Z</time>
      </trkpt>
      <trkpt lat="43.15965" lon="0.13122">
        <ele>480</ele>
        <time>2018-09-30T08:07:21Z</time>
      </trkpt>
      <trkpt lat="43.15963" lon="0.13126">
        <ele>480</ele>
        <time>2018-09-30T08:07:22Z</time>
      </trkpt>
      <trkpt lat="43.15962" lon="0.13132">
        <ele>480</ele>
        <time>2018-09-30T08:07:23Z</time>
      </trkpt>
      <trkpt lat="43.15961" lon="0.13136">
        <ele>480</ele>
        <time>2018-09-30T08:07:24Z</time>
      </trkpt>
      <trkpt lat="43.1596" lon="0.13141">
        <ele>480</ele>
        <time>2018-09-30T08:07:25Z</time>
      </trkpt>
      <trkpt lat="43.15959" lon="0.13146">
        <ele>481</ele>
        <time>2018-09-30T08:07:26Z</time>
      </trkpt>
      <trkpt lat="43.15957" lon="0.13152">
        <ele>481</ele>
        <time>2018-09-30T08:07:27Z</time>
      </trkpt>
      <trkpt lat="43.15955" lon="0.13157">
        <ele>480</ele>
        <time>2018-09-30T08:07:28Z</time>
      </trkpt>
      <trkpt lat="43.15953" lon="0.13162">
        <ele>480</ele>
        <time>2018-09-30T08:07:29Z</time>
      </trkpt>
      <trkpt lat="43.15951" lon="0.13167">
        <ele>480</ele>
        <time>2018-09-30T08:07:30Z</time>
      </trkpt>
      <trkpt lat="43.15949" lon="0.13173">
        <ele>480</ele>
        <time>2018-09-30T08:07:31Z</time>
      </trkpt>
      <trkpt lat="43.15948" lon="0.13178">
        <ele>480</ele>
        <time>2018-09-30T08:07:32Z</time>
      </trkpt>
      <trkpt lat="43.15946" lon="0.13184">
        <ele>480</ele>
        <time>2018-09-30T08:07:33Z</time>
      </trkpt>
      <trkpt lat="43.15944" lon="0.13189">
        <ele>480</ele>
        <time>2018-09-30T08:07:34Z</time>
      </trkpt>
      <trkpt lat="43.15942" lon="0.13194">
        <ele>480</ele>
        <time>2018-09-30T08:07:35Z</time>
      </trkpt>
      <trkpt lat="43.1594" lon="0.13199">
        <ele>480</ele>
        <time>2018-09-30T08:07:36Z</time>
      </trkpt>
      <trkpt lat="43.15937" lon="0.13204">
        <ele>480</ele>
        <time>2018-09-30T08:07:37Z</time>
      </trkpt>
      <trkpt lat="43.15935" lon="0.13209">
        <ele>480</ele>
        <time>2018-09-30T08:07:38Z</time>
      </trkpt>
      <trkpt lat="43.15932" lon="0.13212">
        <ele>480</ele>
        <time>2018-09-30T08:07:39Z</time>
      </trkpt>
      <trkpt lat="43.1593" lon="0.13216">
        <ele>481</ele>
        <time>2018-09-30T08:07:40Z</time>
      </trkpt>
      <trkpt lat="43.15929" lon="0.13218">
        <ele>481</ele>
        <time>2018-09-30T08:07:41Z</time>
      </trkpt>
      <trkpt lat="43.15928" lon="0.1322">
        <ele>481</ele>
        <time>2018-09-30T08:07:42Z</time>
      </trkpt>
      <trkpt lat="43.15926" lon="0.13222">
        <ele>481</ele>
        <time>2018-09-30T08:07:43Z</time>
      </trkpt>
      <trkpt lat="43.15924" lon="0.13224">
        <ele>481</ele>
        <time>2018-09-30T08:07:44Z</time>
      </trkpt>
      <trkpt lat="43.15922" lon="0.13226">
        <ele>481</ele>
        <time>2018-09-30T08:07:45Z</time>
      </trkpt>
      <trkpt lat="43.1592" lon="0.13229">
        <ele>481</ele>
        <time>2018-09-30T08:07:46Z</time>
      </trkpt>
      <trkpt lat="43.15919" lon="0.13232">
        <ele>481</ele>
        <time>2018-09-30T08:07:47Z</time>
      </trkpt>
      <trkpt lat="43.15917" lon="0.13234">
        <ele>481</ele>
        <time>2018-09-30T08:07:48Z</time>
      </trkpt>
      <trkpt lat="43.15915" lon="0.13236">
        <ele>481</ele>
        <time>2018-09-30T08:07:49Z</time>
      </trkpt>
      <trkpt lat="43.15912" lon="0.13239">
        <ele>481</ele>
        <time>2018-09-30T08:07:50Z</time>
      </trkpt>
      <trkpt lat="43.15909" lon="0.13241">
        <ele>481</ele>
        <time>2018-09-30T08:07:51Z</time>
      </trkpt>
      <trkpt lat="43.15906" lon="0.13242">
        <ele>481</ele>
        <time>2018-09-30T08:07:52Z</time>
      </trkpt>
      <trkpt lat="43.15903" lon="0.13244">
        <ele>481</ele>
        <time>2018-09-30T08:07:53Z</time>
      </trkpt>
      <trkpt lat="43.15901" lon="0.13246">
        <ele>481</ele>
        <time>2018-09-30T08:07:54Z</time>
      </trkpt>
      <trkpt lat="43.15898" lon="0.13247">
        <ele>481</ele>
        <time>2018-09-30T08:07:55Z</time>
      </trkpt>
      <trkpt lat="43.15895" lon="0.13248">
        <ele>481</ele>
        <time>2018-09-30T08:07:56Z</time>
      </trkpt>
      <trkpt lat="43.15892" lon="0.13247">
        <ele>481</ele>
        <time>2018-09-30T08:07:57Z</time>
      </trkpt>
      <trkpt lat="43.15889" lon="0.13247">
        <ele>481</ele>
        <time>2018-09-30T08:07:58Z</time>
      </trkpt>
      <trkpt lat="43.15886" lon="0.13246">
        <ele>481</ele>
        <time>2018-09-30T08:07:59Z</time>
      </trkpt>
      <trkpt lat="43.15884" lon="0.13245">
        <ele>481</ele>
        <time>2018-09-30T08:08:00Z</time>
      </trkpt>
      <trkpt lat="43.15881" lon="0.13244">
        <ele>481</ele>
        <time>2018-09-30T08:08:01Z</time>
      </trkpt>
      <trkpt lat="43.15879" lon="0.13243">
        <ele>481</ele>
        <time>2018-09-30T08:08:02Z</time>
      </trkpt>
      <trkpt lat="43.15876" lon="0.13242">
        <ele>481</ele>
        <time>2018-09-30T08:08:03Z</time>
      </trkpt>
      <trkpt lat="43.15874" lon="0.1324">
        <ele>481</ele>
        <time>2018-09-30T08:08:04Z</time>
      </trkpt>
      <trkpt lat="43.15871" lon="0.13239">
        <ele>481</ele>
        <time>2018-09-30T08:08:05Z</time>
      </trkpt>
      <trkpt lat="43.15869" lon="0.13238">
        <ele>481</ele>
        <time>2018-09-30T08:08:06Z</time>
      </trkpt>
      <trkpt lat="43.15866" lon="0.13236">
        <ele>481</ele>
        <time>2018-09-30T08:08:07Z</time>
      </trkpt>
      <trkpt lat="43.15864" lon="0.13234">
        <ele>481</ele>
        <time>2018-09-30T08:08:08Z</time>
      </trkpt>
      <trkpt lat="43.15861" lon="0.13233">
        <ele>481</ele>
        <time>2018-09-30T08:08:09Z</time>
      </trkpt>
      <trkpt lat="43.15859" lon="0.13232">
        <ele>482</ele>
        <time>2018-09-30T08:08:10Z</time>
      </trkpt>
      <trkpt lat="43.15857" lon="0.13231">
        <ele>482</ele>
        <time>2018-09-30T08:08:11Z</time>
      </trkpt>
      <trkpt lat="43.15855" lon="0.1323">
        <ele>482</ele>
        <time>2018-09-30T08:08:12Z</time>
      </trkpt>
      <trkpt lat="43.15852" lon="0.13229">
        <ele>482</ele>
        <time>2018-09-30T08:08:13Z</time>
      </trkpt>
      <trkpt lat="43.1585" lon="0.13227">
        <ele>482</ele>
        <time>2018-09-30T08:08:14Z</time>
      </trkpt>
      <trkpt lat="43.15848" lon="0.13226">
        <ele>482</ele>
        <time>2018-09-30T08:08:15Z</time>
      </trkpt>
      <trkpt lat="43.15845" lon="0.13224">
        <ele>482</ele>
        <time>2018-09-30T08:08:16Z</time>
      </trkpt>
      <trkpt lat="43.15843" lon="0.13223">
        <ele>482</ele>
        <time>2018-09-30T08:08:17Z</time>
      </trkpt>
      <trkpt lat="43.15841" lon="0.13221">
        <ele>483</ele>
        <time>2018-09-30T08:08:18Z</time>
      </trkpt>
      <trkpt lat="43.15838" lon="0.1322">
        <ele>483</ele>
        <time>2018-09-30T08:08:19Z</time>
      </trkpt>
      <trkpt lat="43.15836" lon="0.13218">
        <ele>483</ele>
        <time>2018-09-30T08:08:20Z</time>
      </trkpt>
      <trkpt lat="43.15833" lon="0.13216">
        <ele>483</ele>
        <time>2018-09-30T08:08:21Z</time>
      </trkpt>
      <trkpt lat="43.15831" lon="0.13215">
        <ele>483</ele>
        <time>2018-09-30T08:08:22Z</time>
      </trkpt>
      <trkpt lat="43.15828" lon="0.13213">
        <ele>483</ele>
        <time>2018-09-30T08:08:23Z</time>
      </trkpt>
      <trkpt lat="43.15825" lon="0.13212">
        <ele>483</ele>
        <time>2018-09-30T08:08:24Z</time>
      </trkpt>
      <trkpt lat="43.15822" lon="0.13211">
        <ele>484</ele>
        <time>2018-09-30T08:08:25Z</time>
      </trkpt>
      <trkpt lat="43.1582" lon="0.13209">
        <ele>484</ele>
        <time>2018-09-30T08:08:26Z</time>
      </trkpt>
      <trkpt lat="43.15817" lon="0.13208">
        <ele>484</ele>
        <time>2018-09-30T08:08:27Z</time>
      </trkpt>
      <trkpt lat="43.15815" lon="0.13207">
        <ele>484</ele>
        <time>2018-09-30T08:08:28Z</time>
      </trkpt>
      <trkpt lat="43.15812" lon="0.13206">
        <ele>484</ele>
        <time>2018-09-30T08:08:29Z</time>
      </trkpt>
      <trkpt lat="43.1581" lon="0.13205">
        <ele>485</ele>
        <time>2018-09-30T08:08:30Z</time>
      </trkpt>
      <trkpt lat="43.15807" lon="0.13204">
        <ele>485</ele>
        <time>2018-09-30T08:08:31Z</time>
      </trkpt>
      <trkpt lat="43.15805" lon="0.13203">
        <ele>485</ele>
        <time>2018-09-30T08:08:32Z</time>
      </trkpt>
      <trkpt lat="43.15803" lon="0.13202">
        <ele>485</ele>
        <time>2018-09-30T08:08:33Z</time>
      </trkpt>
      <trkpt lat="43.158" lon="0.13201">
        <ele>485</ele>
        <time>2018-09-30T08:08:34Z</time>
      </trkpt>
      <trkpt lat="43.15798" lon="0.132">
        <ele>485</ele>
        <time>2018-09-30T08:08:35Z</time>
      </trkpt>
      <trkpt lat="43.15795" lon="0.13199">
        <ele>486</ele>
        <time>2018-09-30T08:08:36Z</time>
      </trkpt>
      <trkpt lat="43.15793" lon="0.13198">
        <ele>486</ele>
        <time>2018-09-30T08:08:37Z</time>
      </trkpt>
      <trkpt lat="43.15791" lon="0.13197">
        <ele>486</ele>
        <time>2018-09-30T08:08:38Z</time>
      </trkpt>
      <trkpt lat="43.15788" lon="0.13195">
        <ele>486</ele>
        <time>2018-09-30T08:08:39Z</time>
      </trkpt>
      <trkpt lat="43.15786" lon="0.13194">
        <ele>486</ele>
        <time>2018-09-30T08:08:40Z</time>
      </trkpt>
      <trkpt lat="43.15783" lon="0.13193">
        <ele>486</ele>
        <time>2018-09-30T08:08:41Z</time>
      </trkpt>
      <trkpt lat="43.15781" lon="0.13192">
        <ele>487</ele>
        <time>2018-09-30T08:08:42Z</time>
      </trkpt>
      <trkpt lat="43.15779" lon="0.1319">
        <ele>487</ele>
        <time>2018-09-30T08:08:43Z</time>
      </trkpt>
      <trkpt lat="43.15777" lon="0.13188">
        <ele>487</ele>
        <time>2018-09-30T08:08:44Z</time>
      </trkpt>
      <trkpt lat="43.15775" lon="0.13187">
        <ele>487</ele>
        <time>2018-09-30T08:08:45Z</time>
      </trkpt>
      <trkpt lat="43.15772" lon="0.13185">
        <ele>487</ele>
        <time>2018-09-30T08:08:46Z</time>
      </trkpt>
      <trkpt lat="43.1577" lon="0.13183">
        <ele>487</ele>
        <time>2018-09-30T08:08:47Z</time>
      </trkpt>
      <trkpt lat="43.15768" lon="0.13182">
        <ele>488</ele>
        <time>2018-09-30T08:08:48Z</time>
      </trkpt>
      <trkpt lat="43.15765" lon="0.13181">
        <ele>488</ele>
        <time>2018-09-30T08:08:49Z</time>
      </trkpt>
      <trkpt lat="43.15763" lon="0.1318">
        <ele>488</ele>
        <time>2018-09-30T08:08:50Z</time>
      </trkpt>
      <trkpt lat="43.1576" lon="0.13178">
        <ele>489</ele>
        <time>2018-09-30T08:08:51Z</time>
      </trkpt>
      <trkpt lat="43.15758" lon="0.13177">
        <ele>489</ele>
        <time>2018-09-30T08:08:52Z</time>
      </trkpt>
      <trkpt lat="43.15756" lon="0.13176">
        <ele>489</ele>
        <time>2018-09-30T08:08:53Z</time>
      </trkpt>
      <trkpt lat="43.15754" lon="0.13174">
        <ele>489</ele>
        <time>2018-09-30T08:08:54Z</time>
      </trkpt>
      <trkpt lat="43.15751" lon="0.13173">
        <ele>490</ele>
        <time>2018-09-30T08:08:55Z</time>
      </trkpt>
      <trkpt lat="43.15749" lon="0.13171">
        <ele>490</ele>
        <time>2018-09-30T08:08:56Z</time>
      </trkpt>
      <trkpt lat="43.15746" lon="0.1317">
        <ele>490</ele>
        <time>2018-09-30T08:08:57Z</time>
      </trkpt>
      <trkpt lat="43.15743" lon="0.13169">
        <ele>491</ele>
        <time>2018-09-30T08:08:58Z</time>
      </trkpt>
      <trkpt lat="43.15741" lon="0.13168">
        <ele>491</ele>
        <time>2018-09-30T08:08:59Z</time>
      </trkpt>
      <trkpt lat="43.15738" lon="0.13166">
        <ele>491</ele>
        <time>2018-09-30T08:09:00Z</time>
      </trkpt>
      <trkpt lat="43.15735" lon="0.13165">
        <ele>491</ele>
        <time>2018-09-30T08:09:01Z</time>
      </trkpt>
      <trkpt lat="43.15732" lon="0.13163">
        <ele>491</ele>
        <time>2018-09-30T08:09:02Z</time>
      </trkpt>
      <trkpt lat="43.15728" lon="0.13161">
        <ele>493</ele>
        <time>2018-09-30T08:09:03Z</time>
      </trkpt>
      <trkpt lat="43.15725" lon="0.13159">
        <ele>494</ele>
        <time>2018-09-30T08:09:04Z</time>
      </trkpt>
      <trkpt lat="43.15721" lon="0.13157">
        <ele>495</ele>
        <time>2018-09-30T08:09:05Z</time>
      </trkpt>
      <trkpt lat="43.15717" lon="0.13154">
        <ele>496</ele>
        <time>2018-09-30T08:09:06Z</time>
      </trkpt>
      <trkpt lat="43.15713" lon="0.13152">
        <ele>497</ele>
        <time>2018-09-30T08:09:07Z</time>
      </trkpt>
      <trkpt lat="43.15709" lon="0.13149">
        <ele>498</ele>
        <time>2018-09-30T08:09:08Z</time>
      </trkpt>
      <trkpt lat="43.15704" lon="0.13147">
        <ele>499</ele>
        <time>2018-09-30T08:09:09Z</time>
      </trkpt>
      <trkpt lat="43.157" lon="0.13144">
        <ele>499</ele>
        <time>2018-09-30T08:09:10Z</time>
      </trkpt>
      <trkpt lat="43.15695" lon="0.13141">
        <ele>500</ele>
        <time>2018-09-30T08:09:11Z</time>
      </trkpt>
      <trkpt lat="43.15689" lon="0.13138">
        <ele>500</ele>
        <time>2018-09-30T08:09:12Z</time>
      </trkpt>
      <trkpt lat="43.15684" lon="0.13136">
        <ele>501</ele>
        <time>2018-09-30T08:09:13Z</time>
      </trkpt>
      <trkpt lat="43.15678" lon="0.13133">
        <ele>501</ele>
        <time>2018-09-30T08:09:14Z</time>
      </trkpt>
      <trkpt lat="43.15671" lon="0.1313">
        <ele>501</ele>
        <time>2018-09-30T08:09:15Z</time>
      </trkpt>
      <trkpt lat="43.15665" lon="0.13127">
        <ele>501</ele>
        <time>2018-09-30T08:09:16Z</time>
      </trkpt>
      <trkpt lat="43.15658" lon="0.13125">
        <ele>501</ele>
        <time>2018-09-30T08:09:17Z</time>
      </trkpt>
      <trkpt lat="43.15651" lon="0.13124">
        <ele>500</ele>
        <time>2018-09-30T08:09:18Z</time>
      </trkpt>
      <trkpt lat="43.15644" lon="0.13122">
        <ele>500</ele>
        <time>2018-09-30T08:09:19Z</time>
      </trkpt>
      <trkpt lat="43.15637" lon="0.1312">
        <ele>500</ele>
        <time>2018-09-30T08:09:20Z</time>
      </trkpt>
      <trkpt lat="43.15629" lon="0.13119">
        <ele>500</ele>
        <time>2018-09-30T08:09:21Z</time>
      </trkpt>
      <trkpt lat="43.15622" lon="0.13119">
        <ele>499</ele>
        <time>2018-09-30T08:09:22Z</time>
      </trkpt>
      <trkpt lat="43.15614" lon="0.13119">
        <ele>499</ele>
        <time>2018-09-30T08:09:23Z</time>
      </trkpt>
      <trkpt lat="43.15607" lon="0.1312">
        <ele>499</ele>
        <time>2018-09-30T08:09:24Z</time>
      </trkpt>
      <trkpt lat="43.15599" lon="0.1312">
        <ele>498</ele>
        <time>2018-09-30T08:09:25Z</time>
      </trkpt>
      <trkpt lat="43.15592" lon="0.1312">
        <ele>498</ele>
        <time>2018-09-30T08:09:26Z</time>
      </trkpt>
      <trkpt lat="43.15584" lon="0.13119">
        <ele>498</ele>
        <time>2018-09-30T08:09:27Z</time>
      </trkpt>
      <trkpt lat="43.15577" lon="0.13118">
        <ele>498</ele>
        <time>2018-09-30T08:09:28Z</time>
      </trkpt>
      <trkpt lat="43.15571" lon="0.13115">
        <ele>498</ele>
        <time>2018-09-30T08:09:29Z</time>
      </trkpt>
      <trkpt lat="43.15565" lon="0.13111">
        <ele>497</ele>
        <time>2018-09-30T08:09:30Z</time>
      </trkpt>
      <trkpt lat="43.15559" lon="0.13106">
        <ele>497</ele>
        <time>2018-09-30T08:09:31Z</time>
      </trkpt>
      <trkpt lat="43.15554" lon="0.13101">
        <ele>497</ele>
        <time>2018-09-30T08:09:32Z</time>
      </trkpt>
      <trkpt lat="43.15549" lon="0.13096">
        <ele>497</ele>
        <time>2018-09-30T08:09:33Z</time>
      </trkpt>
      <trkpt lat="43.15544" lon="0.1309">
        <ele>497</ele>
        <time>2018-09-30T08:09:34Z</time>
      </trkpt>
      <trkpt lat="43.15539" lon="0.13084">
        <ele>497</ele>
        <time>2018-09-30T08:09:35Z</time>
      </trkpt>
      <trkpt lat="43.15534" lon="0.13079">
        <ele>496</ele>
        <time>2018-09-30T08:09:36Z</time>
      </trkpt>
      <trkpt lat="43.15529" lon="0.13073">
        <ele>496</ele>
        <time>2018-09-30T08:09:37Z</time>
      </trkpt>
      <trkpt lat="43.15524" lon="0.13068">
        <ele>496</ele>
        <time>2018-09-30T08:09:38Z</time>
      </trkpt>
      <trkpt lat="43.15519" lon="0.13063">
        <ele>496</ele>
        <time>2018-09-30T08:09:39Z</time>
      </trkpt>
      <trkpt lat="43.15514" lon="0.13058">
        <ele>496</ele>
        <time>2018-09-30T08:09:40Z</time>
      </trkpt>
      <trkpt lat="43.15509" lon="0.13053">
        <ele>496</ele>
        <time>2018-09-30T08:09:41Z</time>
      </trkpt>
      <trkpt lat="43.15504" lon="0.13047">
        <ele>496</ele>
        <time>2018-09-30T08:09:42Z</time>
      </trkpt>
      <trkpt lat="43.15499" lon="0.13042">
        <ele>496</ele>
        <time>2018-09-30T08:09:43Z</time>
      </trkpt>
      <trkpt lat="43.15495" lon="0.13036">
        <ele>496</ele>
        <time>2018-09-30T08:09:44Z</time>
      </trkpt>
      <trkpt lat="43.15491" lon="0.13031">
        <ele>495</ele>
        <time>2018-09-30T08:09:45Z</time>
      </trkpt>
      <trkpt lat="43.15487" lon="0.13026">
        <ele>495</ele>
        <time>2018-09-30T08:09:46Z</time>
      </trkpt>
      <trkpt lat="43.15483" lon="0.13025">
        <ele>495</ele>
        <time>2018-09-30T08:09:47Z</time>
      </trkpt>
      <trkpt lat="43.15479" lon="0.13026">
        <ele>495</ele>
        <time>2018-09-30T08:09:48Z</time>
      </trkpt>
      <trkpt lat="43.15476" lon="0.13027">
        <ele>495</ele>
        <time>2018-09-30T08:09:49Z</time>
      </trkpt>
      <trkpt lat="43.15472" lon="0.1303">
        <ele>495</ele>
        <time>2018-09-30T08:09:50Z</time>
      </trkpt>
      <trkpt lat="43.15468" lon="0.13032">
        <ele>495</ele>
        <time>2018-09-30T08:09:51Z</time>
      </trkpt>
      <trkpt lat="43.15464" lon="0.13032">
        <ele>495</ele>
        <time>2018-09-30T08:09:52Z</time>
      </trkpt>
      <trkpt lat="43.1546" lon="0.13033">
        <ele>495</ele>
        <time>2018-09-30T08:09:53Z</time>
      </trkpt>
      <trkpt lat="43.15455" lon="0.13034">
        <ele>495</ele>
        <time>2018-09-30T08:09:54Z</time>
      </trkpt>
      <trkpt lat="43.1545" lon="0.13034">
        <ele>495</ele>
        <time>2018-09-30T08:09:55Z</time>
      </trkpt>
      <trkpt lat="43.15446" lon="0.13034">
        <ele>495</ele>
        <time>2018-09-30T08:09:56Z</time>
      </trkpt>
      <trkpt lat="43.15441" lon="0.13033">
        <ele>495</ele>
        <time>2018-09-30T08:09:57Z</time>
      </trkpt>
      <trkpt lat="43.15436" lon="0.13033">
        <ele>495</ele>
        <time>2018-09-30T08:09:58Z</time>
      </trkpt>
      <trkpt lat="43.15431" lon="0.13033">
        <ele>495</ele>
        <time>2018-09-30T08:09:59Z</time>
      </trkpt>
      <trkpt lat="43.15427" lon="0.13033">
        <ele>495</ele>
        <time>2018-09-30T08:10:00Z</time>
      </trkpt>
      <trkpt lat="43.15422" lon="0.13033">
        <ele>495</ele>
        <time>2018-09-30T08:10:01Z</time>
      </trkpt>
      <trkpt lat="43.15417" lon="0.13033">
        <ele>495</ele>
        <time>2018-09-30T08:10:02Z</time>
      </trkpt>
      <trkpt lat="43.15412" lon="0.13034">
        <ele>495</ele>
        <time>2018-09-30T08:10:03Z</time>
      </trkpt>
      <trkpt lat="43.15408" lon="0.13034">
        <ele>495</ele>
        <time>2018-09-30T08:10:04Z</time>
      </trkpt>
      <trkpt lat="43.15403" lon="0.13035">
        <ele>495</ele>
        <time>2018-09-30T08:10:05Z</time>
      </trkpt>
      <trkpt lat="43.15399" lon="0.13035">
        <ele>495</ele>
        <time>2018-09-30T08:10:06Z</time>
      </trkpt>
      <trkpt lat="43.15395" lon="0.13034">
        <ele>495</ele>
        <time>2018-09-30T08:10:07Z</time>
      </trkpt>
      <trkpt lat="43.15391" lon="0.13033">
        <ele>495</ele>
        <time>2018-09-30T08:10:08Z</time>
      </trkpt>
      <trkpt lat="43.15387" lon="0.13033">
        <ele>495</ele>
        <time>2018-09-30T08:10:09Z</time>
      </trkpt>
      <trkpt lat="43.15383" lon="0.13032">
        <ele>495</ele>
        <time>2018-09-30T08:10:10Z</time>
      </trkpt>
      <trkpt lat="43.1538" lon="0.13031">
        <ele>495</ele>
        <time>2018-09-30T08:10:11Z</time>
      </trkpt>
      <trkpt lat="43.15376" lon="0.13029">
        <ele>495</ele>
        <time>2018-09-30T08:10:12Z</time>
      </trkpt>
      <trkpt lat="43.15372" lon="0.13027">
        <ele>495</ele>
        <time>2018-09-30T08:10:13Z</time>
      </trkpt>
      <trkpt lat="43.15368" lon="0.13025">
        <ele>495</ele>
        <time>2018-09-30T08:10:14Z</time>
      </trkpt>
      <trkpt lat="43.15364" lon="0.13023">
        <ele>495</ele>
        <time>2018-09-30T08:10:15Z</time>
      </trkpt>
      <trkpt lat="43.15359" lon="0.13023">
        <ele>495</ele>
        <time>2018-09-30T08:10:16Z</time>
      </trkpt>
      <trkpt lat="43.15355" lon="0.13022">
        <ele>495</ele>
        <time>2018-09-30T08:10:17Z</time>
      </trkpt>
      <trkpt lat="43.1535" lon="0.13021">
        <ele>495</ele>
        <time>2018-09-30T08:10:18Z</time>
      </trkpt>
      <trkpt lat="43.15346" lon="0.1302">
        <ele>495</ele>
        <time>2018-09-30T08:10:19Z</time>
      </trkpt>
      <trkpt lat="43.15341" lon="0.13018">
        <ele>496</ele>
        <time>2018-09-30T08:10:20Z</time>
      </trkpt>
      <trkpt lat="43.15336" lon="0.13017">
        <ele>496</ele>
        <time>2018-09-30T08:10:21Z</time>
      </trkpt>
      <trkpt lat="43.15332" lon="0.13017">
        <ele>496</ele>
        <time>2018-09-30T08:10:22Z</time>
      </trkpt>
      <trkpt lat="43.15329" lon="0.13017">
        <ele>496</ele>
        <time>2018-09-30T08:10:23Z</time>
      </trkpt>
      <trkpt lat="43.15326" lon="0.13017">
        <ele>496</ele>
        <time>2018-09-30T08:10:24Z</time>
      </trkpt>
      <trkpt lat="43.15322" lon="0.13017">
        <ele>496</ele>
        <time>2018-09-30T08:10:25Z</time>
      </trkpt>
      <trkpt lat="43.15319" lon="0.13017">
        <ele>496</ele>
        <time>2018-09-30T08:10:26Z</time>
      </trkpt>
      <trkpt lat="43.15316" lon="0.13018">
        <ele>496</ele>
        <time>2018-09-30T08:10:27Z</time>
      </trkpt>
      <trkpt lat="43.15312" lon="0.13019">
        <ele>496</ele>
        <time>2018-09-30T08:10:28Z</time>
      </trkpt>
      <trkpt lat="43.15309" lon="0.1302">
        <ele>496</ele>
        <time>2018-09-30T08:10:29Z</time>
      </trkpt>
      <trkpt lat="43.15305" lon="0.1302">
        <ele>496</ele>
        <time>2018-09-30T08:10:30Z</time>
      </trkpt>
      <trkpt lat="43.15302" lon="0.13022">
        <ele>496</ele>
        <time>2018-09-30T08:10:31Z</time>
      </trkpt>
      <trkpt lat="43.15298" lon="0.13023">
        <ele>496</ele>
        <time>2018-09-30T08:10:32Z</time>
      </trkpt>
      <trkpt lat="43.15293" lon="0.13025">
        <ele>496</ele>
        <time>2018-09-30T08:10:33Z</time>
      </trkpt>
      <trkpt lat="43.15289" lon="0.13027">
        <ele>497</ele>
        <time>2018-09-30T08:10:34Z</time>
      </trkpt>
      <trkpt lat="43.15284" lon="0.13029">
        <ele>497</ele>
        <time>2018-09-30T08:10:35Z</time>
      </trkpt>
      <trkpt lat="43.15279" lon="0.13032">
        <ele>497</ele>
        <time>2018-09-30T08:10:36Z</time>
      </trkpt>
      <trkpt lat="43.15273" lon="0.13034">
        <ele>497</ele>
        <time>2018-09-30T08:10:37Z</time>
      </trkpt>
      <trkpt lat="43.15267" lon="0.13037">
        <ele>497</ele>
        <time>2018-09-30T08:10:38Z</time>
      </trkpt>
      <trkpt lat="43.15261" lon="0.1304">
        <ele>497</ele>
        <time>2018-09-30T08:10:39Z</time>
      </trkpt>
      <trkpt lat="43.15255" lon="0.13042">
        <ele>497</ele>
        <time>2018-09-30T08:10:40Z</time>
      </trkpt>
      <trkpt lat="43.15248" lon="0.13044">
        <ele>497</ele>
        <time>2018-09-30T08:10:41Z</time>
      </trkpt>
      <trkpt lat="43.15242" lon="0.13047">
        <ele>497</ele>
        <time>2018-09-30T08:10:42Z</time>
      </trkpt>
      <trkpt lat="43.15236" lon="0.13051">
        <ele>497</ele>
        <time>2018-09-30T08:10:43Z</time>
      </trkpt>
      <trkpt lat="43.1523" lon="0.13054">
        <ele>497</ele>
        <time>2018-09-30T08:10:44Z</time>
      </trkpt>
      <trkpt lat="43.15224" lon="0.13058">
        <ele>497</ele>
        <time>2018-09-30T08:10:45Z</time>
      </trkpt>
      <trkpt lat="43.15219" lon="0.13062">
        <ele>497</ele>
        <time>2018-09-30T08:10:46Z</time>
      </trkpt>
      <trkpt lat="43.15214" lon="0.13067">
        <ele>497</ele>
        <time>2018-09-30T08:10:47Z</time>
      </trkpt>
      <trkpt lat="43.15209" lon="0.13072">
        <ele>497</ele>
        <time>2018-09-30T08:10:48Z</time>
      </trkpt>
      <trkpt lat="43.15205" lon="0.13078">
        <ele>497</ele>
        <time>2018-09-30T08:10:49Z</time>
      </trkpt>
      <trkpt lat="43.15201" lon="0.13084">
        <ele>498</ele>
        <time>2018-09-30T08:10:50Z</time>
      </trkpt>
      <trkpt lat="43.15197" lon="0.13089">
        <ele>498</ele>
        <time>2018-09-30T08:10:51Z</time>
      </trkpt>
      <trkpt lat="43.15193" lon="0.13095">
        <ele>498</ele>
        <time>2018-09-30T08:10:52Z</time>
      </trkpt>
      <trkpt lat="43.1519" lon="0.13101">
        <ele>498</ele>
        <time>2018-09-30T08:10:53Z</time>
      </trkpt>
      <trkpt lat="43.15187" lon="0.13106">
        <ele>498</ele>
        <time>2018-09-30T08:10:54Z</time>
      </trkpt>
      <trkpt lat="43.15184" lon="0.13111">
        <ele>498</ele>
        <time>2018-09-30T08:10:55Z</time>
      </trkpt>
      <trkpt lat="43.15182" lon="0.13118">
        <ele>497</ele>
        <time>2018-09-30T08:10:56Z</time>
      </trkpt>
      <trkpt lat="43.15182" lon="0.13124">
        <ele>497</ele>
        <time>2018-09-30T08:10:57Z</time>
      </trkpt>
      <trkpt lat="43.15181" lon="0.1313">
        <ele>497</ele>
        <time>2018-09-30T08:10:58Z</time>
      </trkpt>
      <trkpt lat="43.15181" lon="0.13137">
        <ele>497</ele>
        <time>2018-09-30T08:10:59Z</time>
      </trkpt>
      <trkpt lat="43.15182" lon="0.13144">
        <ele>497</ele>
        <time>2018-09-30T08:11:00Z</time>
      </trkpt>
      <trkpt lat="43.15184" lon="0.13152">
        <ele>497</ele>
        <time>2018-09-30T08:11:01Z</time>
      </trkpt>
      <trkpt lat="43.15185" lon="0.13159">
        <ele>497</ele>
        <time>2018-09-30T08:11:02Z</time>
      </trkpt>
      <trkpt lat="43.15186" lon="0.13167">
        <ele>497</ele>
        <time>2018-09-30T08:11:03Z</time>
      </trkpt>
      <trkpt lat="43.15188" lon="0.13174">
        <ele>497</ele>
        <time>2018-09-30T08:11:04Z</time>
      </trkpt>
      <trkpt lat="43.15189" lon="0.13181">
        <ele>497</ele>
        <time>2018-09-30T08:11:05Z</time>
      </trkpt>
      <trkpt lat="43.15191" lon="0.13188">
        <ele>497</ele>
        <time>2018-09-30T08:11:06Z</time>
      </trkpt>
      <trkpt lat="43.15192" lon="0.13195">
        <ele>497</ele>
        <time>2018-09-30T08:11:07Z</time>
      </trkpt>
      <trkpt lat="43.15194" lon="0.13201">
        <ele>498</ele>
        <time>2018-09-30T08:11:08Z</time>
      </trkpt>
      <trkpt lat="43.15195" lon="0.13208">
        <ele>498</ele>
        <time>2018-09-30T08:11:09Z</time>
      </trkpt>
      <trkpt lat="43.15195" lon="0.13214">
        <ele>498</ele>
        <time>2018-09-30T08:11:10Z</time>
      </trkpt>
      <trkpt lat="43.15197" lon="0.1322">
        <ele>498</ele>
        <time>2018-09-30T08:11:11Z</time>
      </trkpt>
      <trkpt lat="43.15198" lon="0.13227">
        <ele>498</ele>
        <time>2018-09-30T08:11:12Z</time>
      </trkpt>
      <trkpt lat="43.15199" lon="0.13232">
        <ele>498</ele>
        <time>2018-09-30T08:11:13Z</time>
      </trkpt>
      <trkpt lat="43.15201" lon="0.13238">
        <ele>498</ele>
        <time>2018-09-30T08:11:14Z</time>
      </trkpt>
      <trkpt lat="43.15202" lon="0.13243">
        <ele>498</ele>
        <time>2018-09-30T08:11:15Z</time>
      </trkpt>
      <trkpt lat="43.15203" lon="0.13248">
        <ele>498</ele>
        <time>2018-09-30T08:11:16Z</time>
      </trkpt>
      <trkpt lat="43.15204" lon="0.13253">
        <ele>498</ele>
        <time>2018-09-30T08:11:17Z</time>
      </trkpt>
      <trkpt lat="43.15205" lon="0.13258">
        <ele>499</ele>
        <time>2018-09-30T08:11:18Z</time>
      </trkpt>
      <trkpt lat="43.15206" lon="0.13262">
        <ele>499</ele>
        <time>2018-09-30T08:11:19Z</time>
      </trkpt>
      <trkpt lat="43.15207" lon="0.13267">
        <ele>499</ele>
        <time>2018-09-30T08:11:20Z</time>
      </trkpt>
      <trkpt lat="43.15208" lon="0.13271">
        <ele>499</ele>
        <time>2018-09-30T08:11:21Z</time>
      </trkpt>
      <trkpt lat="43.1521" lon="0.13276">
        <ele>499</ele>
        <time>2018-09-30T08:11:22Z</time>
      </trkpt>
      <trkpt lat="43.15212" lon="0.1328">
        <ele>499</ele>
        <time>2018-09-30T08:11:23Z</time>
      </trkpt>
      <trkpt lat="43.15213" lon="0.13284">
        <ele>499</ele>
        <time>2018-09-30T08:11:24Z</time>
      </trkpt>
      <trkpt lat="43.15215" lon="0.13288">
        <ele>499</ele>
        <time>2018-09-30T08:11:25Z</time>
      </trkpt>
      <trkpt lat="43.15216" lon="0.13292">
        <ele>499</ele>
        <time>2018-09-30T08:11:26Z</time>
      </trkpt>
      <trkpt lat="43.15218" lon="0.13296">
        <ele>499</ele>
        <time>2018-09-30T08:11:27Z</time>
      </trkpt>
      <trkpt lat="43.1522" lon="0.133">
        <ele>499</ele>
        <time>2018-09-30T08:11:28Z</time>
      </trkpt>
      <trkpt lat="43.15221" lon="0.13304">
        <ele>499</ele>
        <time>2018-09-30T08:11:29Z</time>
      </trkpt>
      <trkpt lat="43.15224" lon="0.13309">
        <ele>499</ele>
        <time>2018-09-30T08:11:30Z</time>
      </trkpt>
      <trkpt lat="43.15226" lon="0.13313">
        <ele>499</ele>
        <time>2018-09-30T08:11:31Z</time>
      </trkpt>
      <trkpt lat="43.15228" lon="0.13317">
        <ele>500</ele>
        <time>2018-09-30T08:11:32Z</time>
      </trkpt>
      <trkpt lat="43.1523" lon="0.13322">
        <ele>500</ele>
        <time>2018-09-30T08:11:33Z</time>
      </trkpt>
      <trkpt lat="43.15232" lon="0.13326">
        <ele>501</ele>
        <time>2018-09-30T08:11:34Z</time>
      </trkpt>
      <trkpt lat="43.15235" lon="0.1333">
        <ele>501</ele>
        <time>2018-09-30T08:11:35Z</time>
      </trkpt>
      <trkpt lat="43.15237" lon="0.13335">
        <ele>501</ele>
        <time>2018-09-30T08:11:36Z</time>
      </trkpt>
      <trkpt lat="43.1524" lon="0.1334">
        <ele>502</ele>
        <time>2018-09-30T08:11:37Z</time>
      </trkpt>
      <trkpt lat="43.15242" lon="0.13344">
        <ele>502</ele>
        <time>2018-09-30T08:11:38Z</time>
      </trkpt>
      <trkpt lat="43.15245" lon="0.13348">
        <ele>502</ele>
        <time>2018-09-30T08:11:39Z</time>
      </trkpt>
      <trkpt lat="43.15247" lon="0.13352">
        <ele>502</ele>
        <time>2018-09-30T08:11:40Z</time>
      </trkpt>
      <trkpt lat="43.1525" lon="0.13356">
        <ele>503</ele>
        <time>2018-09-30T08:11:41Z</time>
      </trkpt>
      <trkpt lat="43.15252" lon="0.13361">
        <ele>503</ele>
        <time>2018-09-30T08:11:42Z</time>
      </trkpt>
      <trkpt lat="43.15254" lon="0.13366">
        <ele>503</ele>
        <time>2018-09-30T08:11:43Z</time>
      </trkpt>
      <trkpt lat="43.15258" lon="0.1337">
        <ele>503</ele>
        <time>2018-09-30T08:11:44Z</time>
      </trkpt>
      <trkpt lat="43.15261" lon="0.13375">
        <ele>503</ele>
        <time>2018-09-30T08:11:45Z</time>
      </trkpt>
      <trkpt lat="43.15264" lon="0.13379">
        <ele>503</ele>
        <time>2018-09-30T08:11:46Z</time>
      </trkpt>
      <trkpt lat="43.15267" lon="0.13383">
        <ele>504</ele>
        <time>2018-09-30T08:11:47Z</time>
      </trkpt>
      <trkpt lat="43.15269" lon="0.13388">
        <ele>504</ele>
        <time>2018-09-30T08:11:48Z</time>
      </trkpt>
      <trkpt lat="43.15272" lon="0.13392">
        <ele>504</ele>
        <time>2018-09-30T08:11:49Z</time>
      </trkpt>
      <trkpt lat="43.15275" lon="0.13396">
        <ele>504</ele>
        <time>2018-09-30T08:11:50Z</time>
      </trkpt>
      <trkpt lat="43.15278" lon="0.13401">
        <ele>504</ele>
        <time>2018-09-30T08:11:51Z</time>
      </trkpt>
      <trkpt lat="43.15281" lon="0.13405">
        <ele>504</ele>
        <time>2018-09-30T08:11:52Z</time>
      </trkpt>
      <trkpt lat="43.15284" lon="0.13409">
        <ele>504</ele>
        <time>2018-09-30T08:11:53Z</time>
      </trkpt>
      <trkpt lat="43.15287" lon="0.13413">
        <ele>505</ele>
        <time>2018-09-30T08:11:54Z</time>
      </trkpt>
      <trkpt lat="43.15289" lon="0.13418">
        <ele>505</ele>
        <time>2018-09-30T08:11:55Z</time>
      </trkpt>
      <trkpt lat="43.15292" lon="0.13422">
        <ele>505</ele>
        <time>2018-09-30T08:11:56Z</time>
      </trkpt>
      <trkpt lat="43.15295" lon="0.13427">
        <ele>505</ele>
        <time>2018-09-30T08:11:57Z</time>
      </trkpt>
      <trkpt lat="43.15298" lon="0.13432">
        <ele>505</ele>
        <time>2018-09-30T08:11:58Z</time>
      </trkpt>
      <trkpt lat="43.153" lon="0.13436">
        <ele>505</ele>
        <time>2018-09-30T08:11:59Z</time>
      </trkpt>
      <trkpt lat="43.15303" lon="0.13441">
        <ele>505</ele>
        <time>2018-09-30T08:12:00Z</time>
      </trkpt>
      <trkpt lat="43.15305" lon="0.13445">
        <ele>505</ele>
        <time>2018-09-30T08:12:01Z</time>
      </trkpt>
      <trkpt lat="43.15307" lon="0.1345">
        <ele>506</ele>
        <time>2018-09-30T08:12:02Z</time>
      </trkpt>
      <trkpt lat="43.1531" lon="0.13455">
        <ele>506</ele>
        <time>2018-09-30T08:12:03Z</time>
      </trkpt>
      <trkpt lat="43.15311" lon="0.1346">
        <ele>506</ele>
        <time>2018-09-30T08:12:04Z</time>
      </trkpt>
      <trkpt lat="43.15312" lon="0.13466">
        <ele>506</ele>
        <time>2018-09-30T08:12:05Z</time>
      </trkpt>
      <trkpt lat="43.15312" lon="0.13472">
        <ele>506</ele>
        <time>2018-09-30T08:12:06Z</time>
      </trkpt>
      <trkpt lat="43.15311" lon="0.13478">
        <ele>506</ele>
        <time>2018-09-30T08:12:07Z</time>
      </trkpt>
      <trkpt lat="43.1531" lon="0.13484">
        <ele>506</ele>
        <time>2018-09-30T08:12:08Z</time>
      </trkpt>
      <trkpt lat="43.1531" lon="0.1349">
        <ele>506</ele>
        <time>2018-09-30T08:12:09Z</time>
      </trkpt>
      <trkpt lat="43.15309" lon="0.13496">
        <ele>507</ele>
        <time>2018-09-30T08:12:10Z</time>
      </trkpt>
      <trkpt lat="43.15308" lon="0.13502">
        <ele>507</ele>
        <time>2018-09-30T08:12:11Z</time>
      </trkpt>
      <trkpt lat="43.15307" lon="0.13508">
        <ele>507</ele>
        <time>2018-09-30T08:12:12Z</time>
      </trkpt>
      <trkpt lat="43.15306" lon="0.13514">
        <ele>507</ele>
        <time>2018-09-30T08:12:13Z</time>
      </trkpt>
      <trkpt lat="43.15305" lon="0.1352">
        <ele>507</ele>
        <time>2018-09-30T08:12:14Z</time>
      </trkpt>
      <trkpt lat="43.15304" lon="0.13526">
        <ele>507</ele>
        <time>2018-09-30T08:12:15Z</time>
      </trkpt>
      <trkpt lat="43.15303" lon="0.13532">
        <ele>507</ele>
        <time>2018-09-30T08:12:16Z</time>
      </trkpt>
      <trkpt lat="43.15302" lon="0.13538">
        <ele>507</ele>
        <time>2018-09-30T08:12:17Z</time>
      </trkpt>
      <trkpt lat="43.15301" lon="0.13544">
        <ele>508</ele>
        <time>2018-09-30T08:12:18Z</time>
      </trkpt>
      <trkpt lat="43.153" lon="0.1355">
        <ele>508</ele>
        <time>2018-09-30T08:12:19Z</time>
      </trkpt>
      <trkpt lat="43.15299" lon="0.13556">
        <ele>508</ele>
        <time>2018-09-30T08:12:20Z</time>
      </trkpt>
      <trkpt lat="43.15298" lon="0.13562">
        <ele>508</ele>
        <time>2018-09-30T08:12:21Z</time>
      </trkpt>
      <trkpt lat="43.15297" lon="0.13568">
        <ele>508</ele>
        <time>2018-09-30T08:12:22Z</time>
      </trkpt>
      <trkpt lat="43.15296" lon="0.13573">
        <ele>508</ele>
        <time>2018-09-30T08:12:23Z</time>
      </trkpt>
      <trkpt lat="43.15296" lon="0.13578">
        <ele>508</ele>
        <time>2018-09-30T08:12:24Z</time>
      </trkpt>
      <trkpt lat="43.15298" lon="0.13582">
        <ele>508</ele>
        <time>2018-09-30T08:12:25Z</time>
      </trkpt>
      <trkpt lat="43.153" lon="0.13585">
        <ele>508</ele>
        <time>2018-09-30T08:12:26Z</time>
      </trkpt>
      <trkpt lat="43.15304" lon="0.13588">
        <ele>508</ele>
        <time>2018-09-30T08:12:27Z</time>
      </trkpt>
      <trkpt lat="43.15309" lon="0.1359">
        <ele>509</ele>
        <time>2018-09-30T08:12:28Z</time>
      </trkpt>
      <trkpt lat="43.15314" lon="0.13591">
        <ele>509</ele>
        <time>2018-09-30T08:12:29Z</time>
      </trkpt>
      <trkpt lat="43.15319" lon="0.13593">
        <ele>509</ele>
        <time>2018-09-30T08:12:30Z</time>
      </trkpt>
      <trkpt lat="43.15325" lon="0.13595">
        <ele>509</ele>
        <time>2018-09-30T08:12:31Z</time>
      </trkpt>
      <trkpt lat="43.15331" lon="0.13597">
        <ele>509</ele>
        <time>2018-09-30T08:12:32Z</time>
      </trkpt>
      <trkpt lat="43.15337" lon="0.13599">
        <ele>509</ele>
        <time>2018-09-30T08:12:33Z</time>
      </trkpt>
      <trkpt lat="43.15343" lon="0.13602">
        <ele>509</ele>
        <time>2018-09-30T08:12:34Z</time>
      </trkpt>
      <trkpt lat="43.15349" lon="0.13606">
        <ele>509</ele>
        <time>2018-09-30T08:12:35Z</time>
      </trkpt>
      <trkpt lat="43.15355" lon="0.1361">
        <ele>509</ele>
        <time>2018-09-30T08:12:36Z</time>
      </trkpt>
      <trkpt lat="43.15362" lon="0.13613">
        <ele>509</ele>
        <time>2018-09-30T08:12:37Z</time>
      </trkpt>
      <trkpt lat="43.15368" lon="0.13616">
        <ele>509</ele>
        <time>2018-09-30T08:12:38Z</time>
      </trkpt>
      <trkpt lat="43.15374" lon="0.1362">
        <ele>509</ele>
        <time>2018-09-30T08:12:39Z</time>
      </trkpt>
      <trkpt lat="43.1538" lon="0.13625">
        <ele>509</ele>
        <time>2018-09-30T08:12:40Z</time>
      </trkpt>
      <trkpt lat="43.15385" lon="0.1363">
        <ele>509</ele>
        <time>2018-09-30T08:12:41Z</time>
      </trkpt>
      <trkpt lat="43.1539" lon="0.13637">
        <ele>509</ele>
        <time>2018-09-30T08:12:42Z</time>
      </trkpt>
      <trkpt lat="43.15393" lon="0.13645">
        <ele>509</ele>
        <time>2018-09-30T08:12:43Z</time>
      </trkpt>
      <trkpt lat="43.15396" lon="0.13654">
        <ele>509</ele>
        <time>2018-09-30T08:12:44Z</time>
      </trkpt>
      <trkpt lat="43.15396" lon="0.13664">
        <ele>508</ele>
        <time>2018-09-30T08:12:45Z</time>
      </trkpt>
      <trkpt lat="43.15397" lon="0.13674">
        <ele>508</ele>
        <time>2018-09-30T08:12:46Z</time>
      </trkpt>
      <trkpt lat="43.15397" lon="0.13684">
        <ele>508</ele>
        <time>2018-09-30T08:12:47Z</time>
      </trkpt>
      <trkpt lat="43.15398" lon="0.13694">
        <ele>508</ele>
        <time>2018-09-30T08:12:48Z</time>
      </trkpt>
      <trkpt lat="43.15399" lon="0.13705">
        <ele>508</ele>
        <time>2018-09-30T08:12:49Z</time>
      </trkpt>
      <trkpt lat="43.154" lon="0.13715">
        <ele>508</ele>
        <time>2018-09-30T08:12:50Z</time>
      </trkpt>
      <trkpt lat="43.15401" lon="0.13725">
        <ele>508</ele>
        <time>2018-09-30T08:12:51Z</time>
      </trkpt>
      <trkpt lat="43.15402" lon="0.13735">
        <ele>508</ele>
        <time>2018-09-30T08:12:52Z</time>
      </trkpt>
      <trkpt lat="43.15404" lon="0.13745">
        <ele>508</ele>
        <time>2018-09-30T08:12:53Z</time>
      </trkpt>
      <trkpt lat="43.15406" lon="0.13754">
        <ele>508</ele>
        <time>2018-09-30T08:12:54Z</time>
      </trkpt>
      <trkpt lat="43.15408" lon="0.13763">
        <ele>507</ele>
        <time>2018-09-30T08:12:55Z</time>
      </trkpt>
      <trkpt lat="43.15409" lon="0.1377">
        <ele>507</ele>
        <time>2018-09-30T08:12:56Z</time>
      </trkpt>
      <trkpt lat="43.15408" lon="0.13778">
        <ele>507</ele>
        <time>2018-09-30T08:12:57Z</time>
      </trkpt>
      <trkpt lat="43.15406" lon="0.13785">
        <ele>507</ele>
        <time>2018-09-30T08:12:58Z</time>
      </trkpt>
      <trkpt lat="43.15404" lon="0.13791">
        <ele>507</ele>
        <time>2018-09-30T08:12:59Z</time>
      </trkpt>
      <trkpt lat="43.15403" lon="0.13797">
        <ele>507</ele>
        <time>2018-09-30T08:13:00Z</time>
      </trkpt>
      <trkpt lat="43.15401" lon="0.13803">
        <ele>507</ele>
        <time>2018-09-30T08:13:01Z</time>
      </trkpt>
      <trkpt lat="43.15399" lon="0.13809">
        <ele>507</ele>
        <time>2018-09-30T08:13:02Z</time>
      </trkpt>
      <trkpt lat="43.15398" lon="0.13816">
        <ele>506</ele>
        <time>2018-09-30T08:13:03Z</time>
      </trkpt>
      <trkpt lat="43.15396" lon="0.13822">
        <ele>506</ele>
        <time>2018-09-30T08:13:04Z</time>
      </trkpt>
      <trkpt lat="43.15395" lon="0.13828">
        <ele>506</ele>
        <time>2018-09-30T08:13:05Z</time>
      </trkpt>
      <trkpt lat="43.15394" lon="0.13834">
        <ele>506</ele>
        <time>2018-09-30T08:13:06Z</time>
      </trkpt>
      <trkpt lat="43.15392" lon="0.1384">
        <ele>506</ele>
        <time>2018-09-30T08:13:07Z</time>
      </trkpt>
      <trkpt lat="43.15391" lon="0.13846">
        <ele>506</ele>
        <time>2018-09-30T08:13:08Z</time>
      </trkpt>
      <trkpt lat="43.15389" lon="0.13852">
        <ele>506</ele>
        <time>2018-09-30T08:13:09Z</time>
      </trkpt>
      <trkpt lat="43.15388" lon="0.13858">
        <ele>506</ele>
        <time>2018-09-30T08:13:10Z</time>
      </trkpt>
      <trkpt lat="43.15387" lon="0.13864">
        <ele>506</ele>
        <time>2018-09-30T08:13:11Z</time>
      </trkpt>
      <trkpt lat="43.15386" lon="0.1387">
        <ele>505</ele>
        <time>2018-09-30T08:13:12Z</time>
      </trkpt>
      <trkpt lat="43.15384" lon="0.13876">
        <ele>505</ele>
        <time>2018-09-30T08:13:13Z</time>
      </trkpt>
      <trkpt lat="43.15383" lon="0.13882">
        <ele>505</ele>
        <time>2018-09-30T08:13:14Z</time>
      </trkpt>
      <trkpt lat="43.15381" lon="0.13888">
        <ele>505</ele>
        <time>2018-09-30T08:13:15Z</time>
      </trkpt>
      <trkpt lat="43.15379" lon="0.13894">
        <ele>505</ele>
        <time>2018-09-30T08:13:16Z</time>
      </trkpt>
      <trkpt lat="43.15378" lon="0.139">
        <ele>505</ele>
        <time>2018-09-30T08:13:17Z</time>
      </trkpt>
      <trkpt lat="43.15377" lon="0.13906">
        <ele>505</ele>
        <time>2018-09-30T08:13:18Z</time>
      </trkpt>
      <trkpt lat="43.15375" lon="0.13913">
        <ele>505</ele>
        <time>2018-09-30T08:13:19Z</time>
      </trkpt>
      <trkpt lat="43.15373" lon="0.1392">
        <ele>505</ele>
        <time>2018-09-30T08:13:20Z</time>
      </trkpt>
      <trkpt lat="43.15372" lon="0.13928">
        <ele>505</ele>
        <time>2018-09-30T08:13:21Z</time>
      </trkpt>
      <trkpt lat="43.1537" lon="0.13936">
        <ele>505</ele>
        <time>2018-09-30T08:13:22Z</time>
      </trkpt>
      <trkpt lat="43.15368" lon="0.13943">
        <ele>505</ele>
        <time>2018-09-30T08:13:23Z</time>
      </trkpt>
      <trkpt lat="43.15366" lon="0.13951">
        <ele>505</ele>
        <time>2018-09-30T08:13:24Z</time>
      </trkpt>
      <trkpt lat="43.15364" lon="0.13959">
        <ele>505</ele>
        <time>2018-09-30T08:13:25Z</time>
      </trkpt>
      <trkpt lat="43.15362" lon="0.13968">
        <ele>505</ele>
        <time>2018-09-30T08:13:26Z</time>
      </trkpt>
      <trkpt lat="43.1536" lon="0.13977">
        <ele>505</ele>
        <time>2018-09-30T08:13:27Z</time>
      </trkpt>
      <trkpt lat="43.15359" lon="0.13986">
        <ele>504</ele>
        <time>2018-09-30T08:13:28Z</time>
      </trkpt>
      <trkpt lat="43.15357" lon="0.13995">
        <ele>504</ele>
        <time>2018-09-30T08:13:29Z</time>
      </trkpt>
      <trkpt lat="43.15355" lon="0.14006">
        <ele>504</ele>
        <time>2018-09-30T08:13:30Z</time>
      </trkpt>
      <trkpt lat="43.15353" lon="0.14016">
        <ele>504</ele>
        <time>2018-09-30T08:13:31Z</time>
      </trkpt>
      <trkpt lat="43.15351" lon="0.14026">
        <ele>504</ele>
        <time>2018-09-30T08:13:32Z</time>
      </trkpt>
      <trkpt lat="43.15349" lon="0.14036">
        <ele>504</ele>
        <time>2018-09-30T08:13:33Z</time>
      </trkpt>
      <trkpt lat="43.15347" lon="0.14044">
        <ele>503</ele>
        <time>2018-09-30T08:13:34Z</time>
      </trkpt>
      <trkpt lat="43.15345" lon="0.14053">
        <ele>503</ele>
        <time>2018-09-30T08:13:35Z</time>
      </trkpt>
      <trkpt lat="43.15344" lon="0.14062">
        <ele>503</ele>
        <time>2018-09-30T08:13:36Z</time>
      </trkpt>
      <trkpt lat="43.15342" lon="0.14072">
        <ele>503</ele>
        <time>2018-09-30T08:13:37Z</time>
      </trkpt>
      <trkpt lat="43.15339" lon="0.14082">
        <ele>503</ele>
        <time>2018-09-30T08:13:38Z</time>
      </trkpt>
      <trkpt lat="43.15336" lon="0.14093">
        <ele>503</ele>
        <time>2018-09-30T08:13:39Z</time>
      </trkpt>
      <trkpt lat="43.15331" lon="0.14103">
        <ele>502</ele>
        <time>2018-09-30T08:13:40Z</time>
      </trkpt>
      <trkpt lat="43.15327" lon="0.14113">
        <ele>502</ele>
        <time>2018-09-30T08:13:41Z</time>
      </trkpt>
      <trkpt lat="43.15322" lon="0.14122">
        <ele>502</ele>
        <time>2018-09-30T08:13:42Z</time>
      </trkpt>
      <trkpt lat="43.15318" lon="0.14131">
        <ele>501</ele>
        <time>2018-09-30T08:13:43Z</time>
      </trkpt>
      <trkpt lat="43.15313" lon="0.14139">
        <ele>501</ele>
        <time>2018-09-30T08:13:44Z</time>
      </trkpt>
      <trkpt lat="43.15309" lon="0.14147">
        <ele>501</ele>
        <time>2018-09-30T08:13:45Z</time>
      </trkpt>
      <trkpt lat="43.15304" lon="0.14155">
        <ele>501</ele>
        <time>2018-09-30T08:13:46Z</time>
      </trkpt>
      <trkpt lat="43.153" lon="0.14163">
        <ele>500</ele>
        <time>2018-09-30T08:13:47Z</time>
      </trkpt>
      <trkpt lat="43.15295" lon="0.14169">
        <ele>500</ele>
        <time>2018-09-30T08:13:48Z</time>
      </trkpt>
      <trkpt lat="43.1529" lon="0.14176">
        <ele>500</ele>
        <time>2018-09-30T08:13:49Z</time>
      </trkpt>
      <trkpt lat="43.15286" lon="0.14184">
        <ele>499</ele>
        <time>2018-09-30T08:13:50Z</time>
      </trkpt>
      <trkpt lat="43.15282" lon="0.14192">
        <ele>499</ele>
        <time>2018-09-30T08:13:51Z</time>
      </trkpt>
      <trkpt lat="43.15279" lon="0.14201">
        <ele>498</ele>
        <time>2018-09-30T08:13:52Z</time>
      </trkpt>
      <trkpt lat="43.15275" lon="0.14212">
        <ele>498</ele>
        <time>2018-09-30T08:13:53Z</time>
      </trkpt>
      <trkpt lat="43.15272" lon="0.14223">
        <ele>498</ele>
        <time>2018-09-30T08:13:54Z</time>
      </trkpt>
      <trkpt lat="43.15269" lon="0.14234">
        <ele>497</ele>
        <time>2018-09-30T08:13:55Z</time>
      </trkpt>
      <trkpt lat="43.15266" lon="0.14244">
        <ele>497</ele>
        <time>2018-09-30T08:13:56Z</time>
      </trkpt>
      <trkpt lat="43.15263" lon="0.14255">
        <ele>496</ele>
        <time>2018-09-30T08:13:57Z</time>
      </trkpt>
      <trkpt lat="43.15262" lon="0.14266">
        <ele>496</ele>
        <time>2018-09-30T08:13:58Z</time>
      </trkpt>
      <trkpt lat="43.1526" lon="0.14275">
        <ele>495</ele>
        <time>2018-09-30T08:13:59Z</time>
      </trkpt>
      <trkpt lat="43.15256" lon="0.14283">
        <ele>495</ele>
        <time>2018-09-30T08:14:00Z</time>
      </trkpt>
      <trkpt lat="43.15252" lon="0.1429">
        <ele>494</ele>
        <time>2018-09-30T08:14:01Z</time>
      </trkpt>
      <trkpt lat="43.15249" lon="0.14299">
        <ele>494</ele>
        <time>2018-09-30T08:14:02Z</time>
      </trkpt>
      <trkpt lat="43.15246" lon="0.14307">
        <ele>493</ele>
        <time>2018-09-30T08:14:03Z</time>
      </trkpt>
      <trkpt lat="43.15242" lon="0.14314">
        <ele>493</ele>
        <time>2018-09-30T08:14:04Z</time>
      </trkpt>
      <trkpt lat="43.15238" lon="0.1432">
        <ele>493</ele>
        <time>2018-09-30T08:14:05Z</time>
      </trkpt>
      <trkpt lat="43.15233" lon="0.14325">
        <ele>492</ele>
        <time>2018-09-30T08:14:06Z</time>
      </trkpt>
      <trkpt lat="43.15225" lon="0.14328">
        <ele>491</ele>
        <time>2018-09-30T08:14:07Z</time>
      </trkpt>
      <trkpt lat="43.15217" lon="0.14332">
        <ele>491</ele>
        <time>2018-09-30T08:14:08Z</time>
      </trkpt>
      <trkpt lat="43.15209" lon="0.14337">
        <ele>490</ele>
        <time>2018-09-30T08:14:09Z</time>
      </trkpt>
      <trkpt lat="43.15201" lon="0.14341">
        <ele>489</ele>
        <time>2018-09-30T08:14:10Z</time>
      </trkpt>
      <trkpt lat="43.15192" lon="0.14341">
        <ele>489</ele>
        <time>2018-09-30T08:14:11Z</time>
      </trkpt>
      <trkpt lat="43.15185" lon="0.14343">
        <ele>488</ele>
        <time>2018-09-30T08:14:12Z</time>
      </trkpt>
      <trkpt lat="43.15179" lon="0.14345">
        <ele>487</ele>
        <time>2018-09-30T08:14:13Z</time>
      </trkpt>
      <trkpt lat="43.15174" lon="0.14348">
        <ele>487</ele>
        <time>2018-09-30T08:14:14Z</time>
      </trkpt>
      <trkpt lat="43.15169" lon="0.14355">
        <ele>485</ele>
        <time>2018-09-30T08:14:15Z</time>
      </trkpt>
      <trkpt lat="43.15166" lon="0.14364">
        <ele>485</ele>
        <time>2018-09-30T08:14:16Z</time>
      </trkpt>
      <trkpt lat="43.15163" lon="0.14374">
        <ele>483</ele>
        <time>2018-09-30T08:14:17Z</time>
      </trkpt>
      <trkpt lat="43.1516" lon="0.14386">
        <ele>483</ele>
        <time>2018-09-30T08:14:18Z</time>
      </trkpt>
      <trkpt lat="43.15155" lon="0.14398">
        <ele>482</ele>
        <time>2018-09-30T08:14:19Z</time>
      </trkpt>
      <trkpt lat="43.15151" lon="0.1441">
        <ele>481</ele>
        <time>2018-09-30T08:14:20Z</time>
      </trkpt>
      <trkpt lat="43.15148" lon="0.14421">
        <ele>480</ele>
        <time>2018-09-30T08:14:21Z</time>
      </trkpt>
      <trkpt lat="43.15145" lon="0.14433">
        <ele>479</ele>
        <time>2018-09-30T08:14:22Z</time>
      </trkpt>
      <trkpt lat="43.15143" lon="0.14444">
        <ele>478</ele>
        <time>2018-09-30T08:14:23Z</time>
      </trkpt>
      <trkpt lat="43.15139" lon="0.14455">
        <ele>477</ele>
        <time>2018-09-30T08:14:24Z</time>
      </trkpt>
      <trkpt lat="43.15136" lon="0.14466">
        <ele>475</ele>
        <time>2018-09-30T08:14:25Z</time>
      </trkpt>
      <trkpt lat="43.15134" lon="0.14477">
        <ele>474</ele>
        <time>2018-09-30T08:14:26Z</time>
      </trkpt>
      <trkpt lat="43.15131" lon="0.14488">
        <ele>473</ele>
        <time>2018-09-30T08:14:27Z</time>
      </trkpt>
      <trkpt lat="43.15128" lon="0.14498">
        <ele>472</ele>
        <time>2018-09-30T08:14:28Z</time>
      </trkpt>
      <trkpt lat="43.15126" lon="0.14509">
        <ele>471</ele>
        <time>2018-09-30T08:14:29Z</time>
      </trkpt>
      <trkpt lat="43.15123" lon="0.14519">
        <ele>470</ele>
        <time>2018-09-30T08:14:30Z</time>
      </trkpt>
      <trkpt lat="43.1512" lon="0.1453">
        <ele>469</ele>
        <time>2018-09-30T08:14:31Z</time>
      </trkpt>
      <trkpt lat="43.15118" lon="0.14541">
        <ele>468</ele>
        <time>2018-09-30T08:14:32Z</time>
      </trkpt>
      <trkpt lat="43.15116" lon="0.14552">
        <ele>467</ele>
        <time>2018-09-30T08:14:33Z</time>
      </trkpt>
      <trkpt lat="43.15114" lon="0.14563">
        <ele>466</ele>
        <time>2018-09-30T08:14:34Z</time>
      </trkpt>
      <trkpt lat="43.15112" lon="0.14574">
        <ele>465</ele>
        <time>2018-09-30T08:14:35Z</time>
      </trkpt>
      <trkpt lat="43.15111" lon="0.14585">
        <ele>464</ele>
        <time>2018-09-30T08:14:36Z</time>
      </trkpt>
      <trkpt lat="43.1511" lon="0.14596">
        <ele>463</ele>
        <time>2018-09-30T08:14:37Z</time>
      </trkpt>
      <trkpt lat="43.15108" lon="0.14606">
        <ele>462</ele>
        <time>2018-09-30T08:14:38Z</time>
      </trkpt>
      <trkpt lat="43.15107" lon="0.14616">
        <ele>462</ele>
        <time>2018-09-30T08:14:39Z</time>
      </trkpt>
      <trkpt lat="43.15105" lon="0.14627">
        <ele>461</ele>
        <time>2018-09-30T08:14:40Z</time>
      </trkpt>
      <trkpt lat="43.15104" lon="0.14637">
        <ele>460</ele>
        <time>2018-09-30T08:14:41Z</time>
      </trkpt>
      <trkpt lat="43.15103" lon="0.14648">
        <ele>459</ele>
        <time>2018-09-30T08:14:42Z</time>
      </trkpt>
      <trkpt lat="43.15101" lon="0.14658">
        <ele>459</ele>
        <time>2018-09-30T08:14:43Z</time>
      </trkpt>
      <trkpt lat="43.151" lon="0.14668">
        <ele>458</ele>
        <time>2018-09-30T08:14:44Z</time>
      </trkpt>
      <trkpt lat="43.15099" lon="0.14678">
        <ele>458</ele>
        <time>2018-09-30T08:14:45Z</time>
      </trkpt>
      <trkpt lat="43.15098" lon="0.14687">
        <ele>457</ele>
        <time>2018-09-30T08:14:46Z</time>
      </trkpt>
      <trkpt lat="43.15096" lon="0.14695">
        <ele>456</ele>
        <time>2018-09-30T08:14:47Z</time>
      </trkpt>
      <trkpt lat="43.15094" lon="0.14701">
        <ele>456</ele>
        <time>2018-09-30T08:14:48Z</time>
      </trkpt>
      <trkpt lat="43.1509" lon="0.14705">
        <ele>455</ele>
        <time>2018-09-30T08:14:49Z</time>
      </trkpt>
      <trkpt lat="43.15085" lon="0.14706">
        <ele>455</ele>
        <time>2018-09-30T08:14:50Z</time>
      </trkpt>
      <trkpt lat="43.15081" lon="0.14705">
        <ele>454</ele>
        <time>2018-09-30T08:14:51Z</time>
      </trkpt>
      <trkpt lat="43.15076" lon="0.14702">
        <ele>454</ele>
        <time>2018-09-30T08:14:52Z</time>
      </trkpt>
      <trkpt lat="43.15071" lon="0.14699">
        <ele>453</ele>
        <time>2018-09-30T08:14:53Z</time>
      </trkpt>
      <trkpt lat="43.15065" lon="0.14697">
        <ele>453</ele>
        <time>2018-09-30T08:14:54Z</time>
      </trkpt>
      <trkpt lat="43.15059" lon="0.14696">
        <ele>452</ele>
        <time>2018-09-30T08:14:55Z</time>
      </trkpt>
      <trkpt lat="43.15052" lon="0.14695">
        <ele>452</ele>
        <time>2018-09-30T08:14:56Z</time>
      </trkpt>
      <trkpt lat="43.15044" lon="0.14694">
        <ele>451</ele>
        <time>2018-09-30T08:14:57Z</time>
      </trkpt>
      <trkpt lat="43.15037" lon="0.14692">
        <ele>451</ele>
        <time>2018-09-30T08:14:58Z</time>
      </trkpt>
      <trkpt lat="43.15029" lon="0.14692">
        <ele>450</ele>
        <time>2018-09-30T08:14:59Z</time>
      </trkpt>
      <trkpt lat="43.1502" lon="0.14692">
        <ele>450</ele>
        <time>2018-09-30T08:15:00Z</time>
      </trkpt>
      <trkpt lat="43.15011" lon="0.14691">
        <ele>449</ele>
        <time>2018-09-30T08:15:01Z</time>
      </trkpt>
      <trkpt lat="43.15002" lon="0.1469">
        <ele>449</ele>
        <time>2018-09-30T08:15:02Z</time>
      </trkpt>
      <trkpt lat="43.14993" lon="0.1469">
        <ele>448</ele>
        <time>2018-09-30T08:15:03Z</time>
      </trkpt>
      <trkpt lat="43.14984" lon="0.14689">
        <ele>448</ele>
        <time>2018-09-30T08:15:04Z</time>
      </trkpt>
      <trkpt lat="43.14975" lon="0.14689">
        <ele>447</ele>
        <time>2018-09-30T08:15:05Z</time>
      </trkpt>
      <trkpt lat="43.14966" lon="0.14688">
        <ele>447</ele>
        <time>2018-09-30T08:15:06Z</time>
      </trkpt>
      <trkpt lat="43.14957" lon="0.14687">
        <ele>446</ele>
        <time>2018-09-30T08:15:07Z</time>
      </trkpt>
      <trkpt lat="43.14949" lon="0.14687">
        <ele>446</ele>
        <time>2018-09-30T08:15:08Z</time>
      </trkpt>
      <trkpt lat="43.14941" lon="0.1469">
        <ele>445</ele>
        <time>2018-09-30T08:15:09Z</time>
      </trkpt>
      <trkpt lat="43.14934" lon="0.14694">
        <ele>444</ele>
        <time>2018-09-30T08:15:10Z</time>
      </trkpt>
      <trkpt lat="43.14929" lon="0.14699">
        <ele>444</ele>
        <time>2018-09-30T08:15:11Z</time>
      </trkpt>
      <trkpt lat="43.14927" lon="0.14705">
        <ele>444</ele>
        <time>2018-09-30T08:15:12Z</time>
      </trkpt>
      <trkpt lat="43.14926" lon="0.14712">
        <ele>443</ele>
        <time>2018-09-30T08:15:13Z</time>
      </trkpt>
      <trkpt lat="43.14922" lon="0.14718">
        <ele>442</ele>
        <time>2018-09-30T08:15:14Z</time>
      </trkpt>
      <trkpt lat="43.14919" lon="0.14723">
        <ele>442</ele>
        <time>2018-09-30T08:15:15Z</time>
      </trkpt>
      <trkpt lat="43.14916" lon="0.14728">
        <ele>441</ele>
        <time>2018-09-30T08:15:16Z</time>
      </trkpt>
      <trkpt lat="43.14913" lon="0.14734">
        <ele>440</ele>
        <time>2018-09-30T08:15:17Z</time>
      </trkpt>
      <trkpt lat="43.14911" lon="0.14739">
        <ele>439</ele>
        <time>2018-09-30T08:15:18Z</time>
      </trkpt>
      <trkpt lat="43.14908" lon="0.14744">
        <ele>439</ele>
        <time>2018-09-30T08:15:19Z</time>
      </trkpt>
      <trkpt lat="43.14905" lon="0.14749">
        <ele>438</ele>
        <time>2018-09-30T08:15:20Z</time>
      </trkpt>
      <trkpt lat="43.14903" lon="0.14754">
        <ele>437</ele>
        <time>2018-09-30T08:15:21Z</time>
      </trkpt>
      <trkpt lat="43.14901" lon="0.1476">
        <ele>437</ele>
        <time>2018-09-30T08:15:22Z</time>
      </trkpt>
      <trkpt lat="43.14899" lon="0.14766">
        <ele>436</ele>
        <time>2018-09-30T08:15:23Z</time>
      </trkpt>
      <trkpt lat="43.14896" lon="0.14771">
        <ele>436</ele>
        <time>2018-09-30T08:15:24Z</time>
      </trkpt>
      <trkpt lat="43.14893" lon="0.14776">
        <ele>435</ele>
        <time>2018-09-30T08:15:25Z</time>
      </trkpt>
      <trkpt lat="43.14891" lon="0.1478">
        <ele>435</ele>
        <time>2018-09-30T08:15:26Z</time>
      </trkpt>
      <trkpt lat="43.14888" lon="0.14785">
        <ele>435</ele>
        <time>2018-09-30T08:15:27Z</time>
      </trkpt>
      <trkpt lat="43.14885" lon="0.14788">
        <ele>435</ele>
        <time>2018-09-30T08:15:28Z</time>
      </trkpt>
      <trkpt lat="43.14882" lon="0.14792">
        <ele>434</ele>
        <time>2018-09-30T08:15:29Z</time>
      </trkpt>
      <trkpt lat="43.14879" lon="0.14795">
        <ele>434</ele>
        <time>2018-09-30T08:15:30Z</time>
      </trkpt>
      <trkpt lat="43.14876" lon="0.14797">
        <ele>434</ele>
        <time>2018-09-30T08:15:31Z</time>
      </trkpt>
      <trkpt lat="43.14873" lon="0.148">
        <ele>434</ele>
        <time>2018-09-30T08:15:32Z</time>
      </trkpt>
      <trkpt lat="43.1487" lon="0.14802">
        <ele>434</ele>
        <time>2018-09-30T08:15:33Z</time>
      </trkpt>
      <trkpt lat="43.14867" lon="0.14805">
        <ele>434</ele>
        <time>2018-09-30T08:15:34Z</time>
      </trkpt>
      <trkpt lat="43.14864" lon="0.14808">
        <ele>434</ele>
        <time>2018-09-30T08:15:35Z</time>
      </trkpt>
      <trkpt lat="43.14861" lon="0.1481">
        <ele>434</ele>
        <time>2018-09-30T08:15:36Z</time>
      </trkpt>
      <trkpt lat="43.14858" lon="0.14812">
        <ele>434</ele>
        <time>2018-09-30T08:15:37Z</time>
      </trkpt>
      <trkpt lat="43.14855" lon="0.14815">
        <ele>434</ele>
        <time>2018-09-30T08:15:38Z</time>
      </trkpt>
      <trkpt lat="43.14852" lon="0.14816">
        <ele>434</ele>
        <time>2018-09-30T08:15:39Z</time>
      </trkpt>
      <trkpt lat="43.14848" lon="0.14818">
        <ele>435</ele>
        <time>2018-09-30T08:15:40Z</time>
      </trkpt>
      <trkpt lat="43.14845" lon="0.14819">
        <ele>435</ele>
        <time>2018-09-30T08:15:41Z</time>
      </trkpt>
      <trkpt lat="43.14842" lon="0.1482">
        <ele>435</ele>
        <time>2018-09-30T08:15:42Z</time>
      </trkpt>
      <trkpt lat="43.14839" lon="0.14821">
        <ele>435</ele>
        <time>2018-09-30T08:15:43Z</time>
      </trkpt>
      <trkpt lat="43.14836" lon="0.14822">
        <ele>435</ele>
        <time>2018-09-30T08:15:44Z</time>
      </trkpt>
      <trkpt lat="43.14832" lon="0.14823">
        <ele>435</ele>
        <time>2018-09-30T08:15:45Z</time>
      </trkpt>
      <trkpt lat="43.14829" lon="0.14823">
        <ele>435</ele>
        <time>2018-09-30T08:15:46Z</time>
      </trkpt>
      <trkpt lat="43.14826" lon="0.14824">
        <ele>435</ele>
        <time>2018-09-30T08:15:47Z</time>
      </trkpt>
      <trkpt lat="43.14822" lon="0.14825">
        <ele>435</ele>
        <time>2018-09-30T08:15:48Z</time>
      </trkpt>
      <trkpt lat="43.1482" lon="0.14827">
        <ele>435</ele>
        <time>2018-09-30T08:15:49Z</time>
      </trkpt>
      <trkpt lat="43.14816" lon="0.14828">
        <ele>435</ele>
        <time>2018-09-30T08:15:50Z</time>
      </trkpt>
      <trkpt lat="43.14814" lon="0.14829">
        <ele>435</ele>
        <time>2018-09-30T08:15:51Z</time>
      </trkpt>
      <trkpt lat="43.14811" lon="0.1483">
        <ele>435</ele>
        <time>2018-09-30T08:15:52Z</time>
      </trkpt>
      <trkpt lat="43.14808" lon="0.1483">
        <ele>435</ele>
        <time>2018-09-30T08:15:53Z</time>
      </trkpt>
      <trkpt lat="43.14805" lon="0.14831">
        <ele>435</ele>
        <time>2018-09-30T08:15:54Z</time>
      </trkpt>
      <trkpt lat="43.14802" lon="0.14832">
        <ele>435</ele>
        <time>2018-09-30T08:15:55Z</time>
      </trkpt>
      <trkpt lat="43.14799" lon="0.14832">
        <ele>435</ele>
        <time>2018-09-30T08:15:56Z</time>
      </trkpt>
      <trkpt lat="43.14797" lon="0.14833">
        <ele>435</ele>
        <time>2018-09-30T08:15:57Z</time>
      </trkpt>
      <trkpt lat="43.14794" lon="0.14833">
        <ele>435</ele>
        <time>2018-09-30T08:15:58Z</time>
      </trkpt>
      <trkpt lat="43.14791" lon="0.14834">
        <ele>435</ele>
        <time>2018-09-30T08:15:59Z</time>
      </trkpt>
      <trkpt lat="43.14788" lon="0.14834">
        <ele>435</ele>
        <time>2018-09-30T08:16:00Z</time>
      </trkpt>
      <trkpt lat="43.14784" lon="0.14833">
        <ele>435</ele>
        <time>2018-09-30T08:16:01Z</time>
      </trkpt>
      <trkpt lat="43.14781" lon="0.14832">
        <ele>435</ele>
        <time>2018-09-30T08:16:02Z</time>
      </trkpt>
      <trkpt lat="43.14777" lon="0.14832">
        <ele>436</ele>
        <time>2018-09-30T08:16:03Z</time>
      </trkpt>
      <trkpt lat="43.14772" lon="0.14833">
        <ele>436</ele>
        <time>2018-09-30T08:16:04Z</time>
      </trkpt>
      <trkpt lat="43.14767" lon="0.14833">
        <ele>436</ele>
        <time>2018-09-30T08:16:05Z</time>
      </trkpt>
      <trkpt lat="43.14763" lon="0.14834">
        <ele>436</ele>
        <time>2018-09-30T08:16:06Z</time>
      </trkpt>
      <trkpt lat="43.14759" lon="0.14835">
        <ele>436</ele>
        <time>2018-09-30T08:16:07Z</time>
      </trkpt>
      <trkpt lat="43.14755" lon="0.14836">
        <ele>436</ele>
        <time>2018-09-30T08:16:08Z</time>
      </trkpt>
      <trkpt lat="43.14751" lon="0.14837">
        <ele>436</ele>
        <time>2018-09-30T08:16:09Z</time>
      </trkpt>
      <trkpt lat="43.14747" lon="0.14838">
        <ele>436</ele>
        <time>2018-09-30T08:16:10Z</time>
      </trkpt>
      <trkpt lat="43.14744" lon="0.1484">
        <ele>436</ele>
        <time>2018-09-30T08:16:11Z</time>
      </trkpt>
      <trkpt lat="43.1474" lon="0.14841">
        <ele>436</ele>
        <time>2018-09-30T08:16:12Z</time>
      </trkpt>
      <trkpt lat="43.14737" lon="0.14842">
        <ele>436</ele>
        <time>2018-09-30T08:16:13Z</time>
      </trkpt>
      <trkpt lat="43.14734" lon="0.14844">
        <ele>436</ele>
        <time>2018-09-30T08:16:14Z</time>
      </trkpt>
      <trkpt lat="43.14731" lon="0.14846">
        <ele>436</ele>
        <time>2018-09-30T08:16:15Z</time>
      </trkpt>
      <trkpt lat="43.14728" lon="0.14848">
        <ele>436</ele>
        <time>2018-09-30T08:16:16Z</time>
      </trkpt>
      <trkpt lat="43.14725" lon="0.14849">
        <ele>436</ele>
        <time>2018-09-30T08:16:17Z</time>
      </trkpt>
      <trkpt lat="43.14722" lon="0.14851">
        <ele>436</ele>
        <time>2018-09-30T08:16:18Z</time>
      </trkpt>
      <trkpt lat="43.1472" lon="0.14853">
        <ele>436</ele>
        <time>2018-09-30T08:16:19Z</time>
      </trkpt>
      <trkpt lat="43.14718" lon="0.14856">
        <ele>436</ele>
        <time>2018-09-30T08:16:20Z</time>
      </trkpt>
      <trkpt lat="43.14717" lon="0.14861">
        <ele>436</ele>
        <time>2018-09-30T08:16:21Z</time>
      </trkpt>
      <trkpt lat="43.14718" lon="0.14866">
        <ele>436</ele>
        <time>2018-09-30T08:16:22Z</time>
      </trkpt>
      <trkpt lat="43.14719" lon="0.14872">
        <ele>436</ele>
        <time>2018-09-30T08:16:23Z</time>
      </trkpt>
      <trkpt lat="43.1472" lon="0.14879">
        <ele>436</ele>
        <time>2018-09-30T08:16:24Z</time>
      </trkpt>
      <trkpt lat="43.14722" lon="0.14886">
        <ele>436</ele>
        <time>2018-09-30T08:16:25Z</time>
      </trkpt>
      <trkpt lat="43.14723" lon="0.14894">
        <ele>436</ele>
        <time>2018-09-30T08:16:26Z</time>
      </trkpt>
      <trkpt lat="43.14724" lon="0.14902">
        <ele>436</ele>
        <time>2018-09-30T08:16:27Z</time>
      </trkpt>
      <trkpt lat="43.14726" lon="0.14911">
        <ele>436</ele>
        <time>2018-09-30T08:16:28Z</time>
      </trkpt>
      <trkpt lat="43.14728" lon="0.14921">
        <ele>436</ele>
        <time>2018-09-30T08:16:29Z</time>
      </trkpt>
      <trkpt lat="43.14729" lon="0.1493">
        <ele>436</ele>
        <time>2018-09-30T08:16:30Z</time>
      </trkpt>
      <trkpt lat="43.14732" lon="0.14941">
        <ele>436</ele>
        <time>2018-09-30T08:16:31Z</time>
      </trkpt>
      <trkpt lat="43.14734" lon="0.14951">
        <ele>436</ele>
        <time>2018-09-30T08:16:32Z</time>
      </trkpt>
      <trkpt lat="43.14736" lon="0.14962">
        <ele>436</ele>
        <time>2018-09-30T08:16:33Z</time>
      </trkpt>
      <trkpt lat="43.14739" lon="0.14973">
        <ele>436</ele>
        <time>2018-09-30T08:16:34Z</time>
      </trkpt>
      <trkpt lat="43.14741" lon="0.14984">
        <ele>436</ele>
        <time>2018-09-30T08:16:35Z</time>
      </trkpt>
      <trkpt lat="43.14743" lon="0.14995">
        <ele>436</ele>
        <time>2018-09-30T08:16:36Z</time>
      </trkpt>
      <trkpt lat="43.14745" lon="0.15006">
        <ele>436</ele>
        <time>2018-09-30T08:16:37Z</time>
      </trkpt>
      <trkpt lat="43.14747" lon="0.15018">
        <ele>436</ele>
        <time>2018-09-30T08:16:38Z</time>
      </trkpt>
      <trkpt lat="43.1475" lon="0.15029">
        <ele>436</ele>
        <time>2018-09-30T08:16:39Z</time>
      </trkpt>
      <trkpt lat="43.14752" lon="0.1504">
        <ele>435</ele>
        <time>2018-09-30T08:16:40Z</time>
      </trkpt>
      <trkpt lat="43.14755" lon="0.1505">
        <ele>435</ele>
        <time>2018-09-30T08:16:41Z</time>
      </trkpt>
      <trkpt lat="43.14758" lon="0.15061">
        <ele>435</ele>
        <time>2018-09-30T08:16:42Z</time>
      </trkpt>
      <trkpt lat="43.1476" lon="0.15072">
        <ele>435</ele>
        <time>2018-09-30T08:16:43Z</time>
      </trkpt>
      <trkpt lat="43.14762" lon="0.15083">
        <ele>435</ele>
        <time>2018-09-30T08:16:44Z</time>
      </trkpt>
      <trkpt lat="43.14764" lon="0.15093">
        <ele>435</ele>
        <time>2018-09-30T08:16:45Z</time>
      </trkpt>
      <trkpt lat="43.14767" lon="0.15103">
        <ele>434</ele>
        <time>2018-09-30T08:16:46Z</time>
      </trkpt>
      <trkpt lat="43.14769" lon="0.15114">
        <ele>434</ele>
        <time>2018-09-30T08:16:47Z</time>
      </trkpt>
      <trkpt lat="43.14771" lon="0.15124">
        <ele>434</ele>
        <time>2018-09-30T08:16:48Z</time>
      </trkpt>
      <trkpt lat="43.14774" lon="0.15135">
        <ele>433</ele>
        <time>2018-09-30T08:16:49Z</time>
      </trkpt>
      <trkpt lat="43.14776" lon="0.15146">
        <ele>433</ele>
        <time>2018-09-30T08:16:50Z</time>
      </trkpt>
      <trkpt lat="43.14779" lon="0.15158">
        <ele>433</ele>
        <time>2018-09-30T08:16:51Z</time>
      </trkpt>
      <trkpt lat="43.14781" lon="0.15169">
        <ele>433</ele>
        <time>2018-09-30T08:16:52Z</time>
      </trkpt>
      <trkpt lat="43.14784" lon="0.15181">
        <ele>432</ele>
        <time>2018-09-30T08:16:53Z</time>
      </trkpt>
      <trkpt lat="43.14786" lon="0.15194">
        <ele>432</ele>
        <time>2018-09-30T08:16:54Z</time>
      </trkpt>
      <trkpt lat="43.14789" lon="0.15206">
        <ele>432</ele>
        <time>2018-09-30T08:16:55Z</time>
      </trkpt>
      <trkpt lat="43.14792" lon="0.15219">
        <ele>431</ele>
        <time>2018-09-30T08:16:56Z</time>
      </trkpt>
      <trkpt lat="43.14795" lon="0.15232">
        <ele>431</ele>
        <time>2018-09-30T08:16:57Z</time>
      </trkpt>
      <trkpt lat="43.14797" lon="0.15246">
        <ele>430</ele>
        <time>2018-09-30T08:16:58Z</time>
      </trkpt>
      <trkpt lat="43.14799" lon="0.1526">
        <ele>430</ele>
        <time>2018-09-30T08:16:59Z</time>
      </trkpt>
      <trkpt lat="43.14801" lon="0.15274">
        <ele>429</ele>
        <time>2018-09-30T08:17:00Z</time>
      </trkpt>
      <trkpt lat="43.14802" lon="0.15288">
        <ele>429</ele>
        <time>2018-09-30T08:17:01Z</time>
      </trkpt>
      <trkpt lat="43.14803" lon="0.15302">
        <ele>429</ele>
        <time>2018-09-30T08:17:02Z</time>
      </trkpt>
      <trkpt lat="43.14803" lon="0.15317">
        <ele>428</ele>
        <time>2018-09-30T08:17:03Z</time>
      </trkpt>
      <trkpt lat="43.14802" lon="0.15331">
        <ele>428</ele>
        <time>2018-09-30T08:17:04Z</time>
      </trkpt>
      <trkpt lat="43.14801" lon="0.15345">
        <ele>428</ele>
        <time>2018-09-30T08:17:05Z</time>
      </trkpt>
      <trkpt lat="43.14798" lon="0.15359">
        <ele>427</ele>
        <time>2018-09-30T08:17:06Z</time>
      </trkpt>
      <trkpt lat="43.14794" lon="0.15372">
        <ele>427</ele>
        <time>2018-09-30T08:17:07Z</time>
      </trkpt>
      <trkpt lat="43.14789" lon="0.15384">
        <ele>427</ele>
        <time>2018-09-30T08:17:08Z</time>
      </trkpt>
      <trkpt lat="43.14783" lon="0.15395">
        <ele>426</ele>
        <time>2018-09-30T08:17:09Z</time>
      </trkpt>
      <trkpt lat="43.14776" lon="0.15406">
        <ele>426</ele>
        <time>2018-09-30T08:17:10Z</time>
      </trkpt>
      <trkpt lat="43.1477" lon="0.15418">
        <ele>426</ele>
        <time>2018-09-30T08:17:11Z</time>
      </trkpt>
      <trkpt lat="43.14763" lon="0.15429">
        <ele>425</ele>
        <time>2018-09-30T08:17:12Z</time>
      </trkpt>
      <trkpt lat="43.14756" lon="0.15441">
        <ele>425</ele>
        <time>2018-09-30T08:17:13Z</time>
      </trkpt>
      <trkpt lat="43.1475" lon="0.15453">
        <ele>425</ele>
        <time>2018-09-30T08:17:14Z</time>
      </trkpt>
      <trkpt lat="43.14741" lon="0.15463">
        <ele>424</ele>
        <time>2018-09-30T08:17:15Z</time>
      </trkpt>
      <trkpt lat="43.14733" lon="0.15474">
        <ele>424</ele>
        <time>2018-09-30T08:17:16Z</time>
      </trkpt>
      <trkpt lat="43.14726" lon="0.15486">
        <ele>424</ele>
        <time>2018-09-30T08:17:17Z</time>
      </trkpt>
      <trkpt lat="43.14718" lon="0.15498">
        <ele>423</ele>
        <time>2018-09-30T08:17:18Z</time>
      </trkpt>
      <trkpt lat="43.14711" lon="0.15509">
        <ele>423</ele>
        <time>2018-09-30T08:17:19Z</time>
      </trkpt>
      <trkpt lat="43.14705" lon="0.15521">
        <ele>423</ele>
        <time>2018-09-30T08:17:20Z</time>
      </trkpt>
      <trkpt lat="43.147" lon="0.15532">
        <ele>423</ele>
        <time>2018-09-30T08:17:21Z</time>
      </trkpt>
      <trkpt lat="43.14695" lon="0.15542">
        <ele>422</ele>
        <time>2018-09-30T08:17:22Z</time>
      </trkpt>
      <trkpt lat="43.1469" lon="0.15551">
        <ele>422</ele>
        <time>2018-09-30T08:17:23Z</time>
      </trkpt>
      <trkpt lat="43.14686" lon="0.15559">
        <ele>422</ele>
        <time>2018-09-30T08:17:24Z</time>
      </trkpt>
      <trkpt lat="43.14681" lon="0.15563">
        <ele>421</ele>
        <time>2018-09-30T08:17:25Z</time>
      </trkpt>
      <trkpt lat="43.14676" lon="0.15567">
        <ele>421</ele>
        <time>2018-09-30T08:17:26Z</time>
      </trkpt>
      <trkpt lat="43.14673" lon="0.1557">
        <ele>421</ele>
        <time>2018-09-30T08:17:27Z</time>
      </trkpt>
      <trkpt lat="43.1467" lon="0.15573">
        <ele>421</ele>
        <time>2018-09-30T08:17:28Z</time>
      </trkpt>
      <trkpt lat="43.14667" lon="0.15575">
        <ele>420</ele>
        <time>2018-09-30T08:17:29Z</time>
      </trkpt>
      <trkpt lat="43.14664" lon="0.15578">
        <ele>420</ele>
        <time>2018-09-30T08:17:30Z</time>
      </trkpt>
      <trkpt lat="43.14657" lon="0.15585">
        <ele>420</ele>
        <time>2018-09-30T08:17:33Z</time>
      </trkpt>
      <trkpt lat="43.14655" lon="0.15587">
        <ele>420</ele>
        <time>2018-09-30T08:17:34Z</time>
      </trkpt>
      <trkpt lat="43.14653" lon="0.1559">
        <ele>420</ele>
        <time>2018-09-30T08:17:35Z</time>
      </trkpt>
      <trkpt lat="43.14652" lon="0.15593">
        <ele>420</ele>
        <time>2018-09-30T08:17:36Z</time>
      </trkpt>
      <trkpt lat="43.14651" lon="0.15595">
        <ele>420</ele>
        <time>2018-09-30T08:17:37Z</time>
      </trkpt>
      <trkpt lat="43.14649" lon="0.15598">
        <ele>420</ele>
        <time>2018-09-30T08:17:38Z</time>
      </trkpt>
      <trkpt lat="43.14648" lon="0.156">
        <ele>420</ele>
        <time>2018-09-30T08:17:39Z</time>
      </trkpt>
      <trkpt lat="43.14647" lon="0.15602">
        <ele>419</ele>
        <time>2018-09-30T08:17:40Z</time>
      </trkpt>
      <trkpt lat="43.14645" lon="0.15605">
        <ele>419</ele>
        <time>2018-09-30T08:17:41Z</time>
      </trkpt>
      <trkpt lat="43.14644" lon="0.15608">
        <ele>419</ele>
        <time>2018-09-30T08:17:42Z</time>
      </trkpt>
      <trkpt lat="43.14644" lon="0.15611">
        <ele>419</ele>
        <time>2018-09-30T08:17:43Z</time>
      </trkpt>
      <trkpt lat="43.14643" lon="0.15615">
        <ele>419</ele>
        <time>2018-09-30T08:17:44Z</time>
      </trkpt>
      <trkpt lat="43.14642" lon="0.15618">
        <ele>419</ele>
        <time>2018-09-30T08:17:45Z</time>
      </trkpt>
      <trkpt lat="43.14642" lon="0.15622">
        <ele>419</ele>
        <time>2018-09-30T08:17:46Z</time>
      </trkpt>
      <trkpt lat="43.14641" lon="0.15625">
        <ele>419</ele>
        <time>2018-09-30T08:17:47Z</time>
      </trkpt>
      <trkpt lat="43.1464" lon="0.15628">
        <ele>419</ele>
        <time>2018-09-30T08:17:48Z</time>
      </trkpt>
      <trkpt lat="43.14639" lon="0.15631">
        <ele>419</ele>
        <time>2018-09-30T08:17:49Z</time>
      </trkpt>
      <trkpt lat="43.14638" lon="0.15633">
        <ele>419</ele>
        <time>2018-09-30T08:17:50Z</time>
      </trkpt>
      <trkpt lat="43.14637" lon="0.15636">
        <ele>419</ele>
        <time>2018-09-30T08:17:51Z</time>
      </trkpt>
      <trkpt lat="43.14636" lon="0.15639">
        <ele>418</ele>
        <time>2018-09-30T08:17:52Z</time>
      </trkpt>
      <trkpt lat="43.14636" lon="0.15643">
        <ele>418</ele>
        <time>2018-09-30T08:17:53Z</time>
      </trkpt>
      <trkpt lat="43.14636" lon="0.15646">
        <ele>418</ele>
        <time>2018-09-30T08:17:54Z</time>
      </trkpt>
      <trkpt lat="43.14634" lon="0.1565">
        <ele>418</ele>
        <time>2018-09-30T08:17:55Z</time>
      </trkpt>
      <trkpt lat="43.14632" lon="0.15653">
        <ele>418</ele>
        <time>2018-09-30T08:17:56Z</time>
      </trkpt>
      <trkpt lat="43.14631" lon="0.15656">
        <ele>418</ele>
        <time>2018-09-30T08:17:57Z</time>
      </trkpt>
      <trkpt lat="43.1463" lon="0.1566">
        <ele>418</ele>
        <time>2018-09-30T08:17:58Z</time>
      </trkpt>
      <trkpt lat="43.14628" lon="0.15663">
        <ele>418</ele>
        <time>2018-09-30T08:17:59Z</time>
      </trkpt>
      <trkpt lat="43.14627" lon="0.15667">
        <ele>418</ele>
        <time>2018-09-30T08:18:00Z</time>
      </trkpt>
      <trkpt lat="43.14625" lon="0.15671">
        <ele>418</ele>
        <time>2018-09-30T08:18:01Z</time>
      </trkpt>
      <trkpt lat="43.14624" lon="0.15674">
        <ele>418</ele>
        <time>2018-09-30T08:18:02Z</time>
      </trkpt>
      <trkpt lat="43.14622" lon="0.15678">
        <ele>418</ele>
        <time>2018-09-30T08:18:03Z</time>
      </trkpt>
      <trkpt lat="43.14621" lon="0.15682">
        <ele>418</ele>
        <time>2018-09-30T08:18:04Z</time>
      </trkpt>
      <trkpt lat="43.14619" lon="0.15685">
        <ele>418</ele>
        <time>2018-09-30T08:18:05Z</time>
      </trkpt>
      <trkpt lat="43.14618" lon="0.15688">
        <ele>418</ele>
        <time>2018-09-30T08:18:06Z</time>
      </trkpt>
      <trkpt lat="43.14616" lon="0.15692">
        <ele>418</ele>
        <time>2018-09-30T08:18:07Z</time>
      </trkpt>
      <trkpt lat="43.14615" lon="0.15696">
        <ele>418</ele>
        <time>2018-09-30T08:18:08Z</time>
      </trkpt>
      <trkpt lat="43.14613" lon="0.15699">
        <ele>418</ele>
        <time>2018-09-30T08:18:09Z</time>
      </trkpt>
      <trkpt lat="43.14612" lon="0.15703">
        <ele>418</ele>
        <time>2018-09-30T08:18:10Z</time>
      </trkpt>
      <trkpt lat="43.1461" lon="0.15706">
        <ele>418</ele>
        <time>2018-09-30T08:18:11Z</time>
      </trkpt>
      <trkpt lat="43.14609" lon="0.1571">
        <ele>418</ele>
        <time>2018-09-30T08:18:12Z</time>
      </trkpt>
      <trkpt lat="43.14608" lon="0.15713">
        <ele>418</ele>
        <time>2018-09-30T08:18:13Z</time>
      </trkpt>
      <trkpt lat="43.14606" lon="0.15716">
        <ele>418</ele>
        <time>2018-09-30T08:18:14Z</time>
      </trkpt>
      <trkpt lat="43.14605" lon="0.1572">
        <ele>418</ele>
        <time>2018-09-30T08:18:15Z</time>
      </trkpt>
      <trkpt lat="43.14604" lon="0.15723">
        <ele>418</ele>
        <time>2018-09-30T08:18:16Z</time>
      </trkpt>
      <trkpt lat="43.14603" lon="0.15726">
        <ele>418</ele>
        <time>2018-09-30T08:18:17Z</time>
      </trkpt>
      <trkpt lat="43.14602" lon="0.15729">
        <ele>418</ele>
        <time>2018-09-30T08:18:18Z</time>
      </trkpt>
      <trkpt lat="43.14601" lon="0.15732">
        <ele>418</ele>
        <time>2018-09-30T08:18:19Z</time>
      </trkpt>
      <trkpt lat="43.146" lon="0.15734">
        <ele>418</ele>
        <time>2018-09-30T08:18:20Z</time>
      </trkpt>
      <trkpt lat="43.14599" lon="0.15737">
        <ele>418</ele>
        <time>2018-09-30T08:18:21Z</time>
      </trkpt>
      <trkpt lat="43.14597" lon="0.15739">
        <ele>418</ele>
        <time>2018-09-30T08:18:22Z</time>
      </trkpt>
      <trkpt lat="43.14596" lon="0.15742">
        <ele>418</ele>
        <time>2018-09-30T08:18:23Z</time>
      </trkpt>
      <trkpt lat="43.14595" lon="0.15745">
        <ele>418</ele>
        <time>2018-09-30T08:18:24Z</time>
      </trkpt>
      <trkpt lat="43.14593" lon="0.15747">
        <ele>419</ele>
        <time>2018-09-30T08:18:25Z</time>
      </trkpt>
      <trkpt lat="43.14592" lon="0.15751">
        <ele>419</ele>
        <time>2018-09-30T08:18:26Z</time>
      </trkpt>
      <trkpt lat="43.14591" lon="0.15754">
        <ele>419</ele>
        <time>2018-09-30T08:18:27Z</time>
      </trkpt>
      <trkpt lat="43.1459" lon="0.15757">
        <ele>419</ele>
        <time>2018-09-30T08:18:28Z</time>
      </trkpt>
      <trkpt lat="43.14589" lon="0.1576">
        <ele>419</ele>
        <time>2018-09-30T08:18:29Z</time>
      </trkpt>
      <trkpt lat="43.14588" lon="0.15763">
        <ele>419</ele>
        <time>2018-09-30T08:18:30Z</time>
      </trkpt>
      <trkpt lat="43.14587" lon="0.15765">
        <ele>419</ele>
        <time>2018-09-30T08:18:31Z</time>
      </trkpt>
      <trkpt lat="43.14586" lon="0.15768">
        <ele>419</ele>
        <time>2018-09-30T08:18:32Z</time>
      </trkpt>
      <trkpt lat="43.14584" lon="0.15771">
        <ele>419</ele>
        <time>2018-09-30T08:18:33Z</time>
      </trkpt>
      <trkpt lat="43.14583" lon="0.15774">
        <ele>419</ele>
        <time>2018-09-30T08:18:34Z</time>
      </trkpt>
      <trkpt lat="43.14582" lon="0.15778">
        <ele>420</ele>
        <time>2018-09-30T08:18:35Z</time>
      </trkpt>
      <trkpt lat="43.14581" lon="0.15781">
        <ele>420</ele>
        <time>2018-09-30T08:18:36Z</time>
      </trkpt>
      <trkpt lat="43.1458" lon="0.15783">
        <ele>420</ele>
        <time>2018-09-30T08:18:37Z</time>
      </trkpt>
      <trkpt lat="43.14579" lon="0.15785">
        <ele>420</ele>
        <time>2018-09-30T08:18:38Z</time>
      </trkpt>
      <trkpt lat="43.14579" lon="0.15788">
        <ele>420</ele>
        <time>2018-09-30T08:18:39Z</time>
      </trkpt>
      <trkpt lat="43.14578" lon="0.1579">
        <ele>420</ele>
        <time>2018-09-30T08:18:40Z</time>
      </trkpt>
      <trkpt lat="43.14577" lon="0.15793">
        <ele>420</ele>
        <time>2018-09-30T08:18:41Z</time>
      </trkpt>
      <trkpt lat="43.14577" lon="0.15796">
        <ele>420</ele>
        <time>2018-09-30T08:18:42Z</time>
      </trkpt>
      <trkpt lat="43.14576" lon="0.15798">
        <ele>421</ele>
        <time>2018-09-30T08:18:43Z</time>
      </trkpt>
      <trkpt lat="43.14576" lon="0.15801">
        <ele>421</ele>
        <time>2018-09-30T08:18:44Z</time>
      </trkpt>
      <trkpt lat="43.14575" lon="0.15804">
        <ele>421</ele>
        <time>2018-09-30T08:18:45Z</time>
      </trkpt>
      <trkpt lat="43.14574" lon="0.15807">
        <ele>421</ele>
        <time>2018-09-30T08:18:46Z</time>
      </trkpt>
      <trkpt lat="43.14573" lon="0.15809">
        <ele>421</ele>
        <time>2018-09-30T08:18:47Z</time>
      </trkpt>
      <trkpt lat="43.14572" lon="0.15811">
        <ele>421</ele>
        <time>2018-09-30T08:18:48Z</time>
      </trkpt>
      <trkpt lat="43.14572" lon="0.15813">
        <ele>422</ele>
        <time>2018-09-30T08:18:49Z</time>
      </trkpt>
      <trkpt lat="43.14571" lon="0.15816">
        <ele>422</ele>
        <time>2018-09-30T08:18:50Z</time>
      </trkpt>
      <trkpt lat="43.1457" lon="0.15819">
        <ele>422</ele>
        <time>2018-09-30T08:18:51Z</time>
      </trkpt>
      <trkpt lat="43.1457" lon="0.15821">
        <ele>422</ele>
        <time>2018-09-30T08:18:52Z</time>
      </trkpt>
      <trkpt lat="43.14569" lon="0.15823">
        <ele>422</ele>
        <time>2018-09-30T08:18:53Z</time>
      </trkpt>
      <trkpt lat="43.14569" lon="0.15826">
        <ele>423</ele>
        <time>2018-09-30T08:18:54Z</time>
      </trkpt>
      <trkpt lat="43.14568" lon="0.15828">
        <ele>423</ele>
        <time>2018-09-30T08:18:55Z</time>
      </trkpt>
      <trkpt lat="43.14568" lon="0.1583">
        <ele>423</ele>
        <time>2018-09-30T08:18:56Z</time>
      </trkpt>
      <trkpt lat="43.14567" lon="0.15833">
        <ele>423</ele>
        <time>2018-09-30T08:18:57Z</time>
      </trkpt>
      <trkpt lat="43.14566" lon="0.15835">
        <ele>423</ele>
        <time>2018-09-30T08:18:58Z</time>
      </trkpt>
      <trkpt lat="43.14566" lon="0.15838">
        <ele>423</ele>
        <time>2018-09-30T08:18:59Z</time>
      </trkpt>
      <trkpt lat="43.14565" lon="0.15841">
        <ele>424</ele>
        <time>2018-09-30T08:19:00Z</time>
      </trkpt>
      <trkpt lat="43.14564" lon="0.15844">
        <ele>424</ele>
        <time>2018-09-30T08:19:01Z</time>
      </trkpt>
      <trkpt lat="43.14564" lon="0.15847">
        <ele>424</ele>
        <time>2018-09-30T08:19:02Z</time>
      </trkpt>
      <trkpt lat="43.14563" lon="0.1585">
        <ele>424</ele>
        <time>2018-09-30T08:19:03Z</time>
      </trkpt>
      <trkpt lat="43.14562" lon="0.15853">
        <ele>425</ele>
        <time>2018-09-30T08:19:04Z</time>
      </trkpt>
      <trkpt lat="43.14562" lon="0.15856">
        <ele>425</ele>
        <time>2018-09-30T08:19:05Z</time>
      </trkpt>
      <trkpt lat="43.14561" lon="0.15859">
        <ele>425</ele>
        <time>2018-09-30T08:19:06Z</time>
      </trkpt>
      <trkpt lat="43.14561" lon="0.15862">
        <ele>425</ele>
        <time>2018-09-30T08:19:07Z</time>
      </trkpt>
      <trkpt lat="43.14561" lon="0.15865">
        <ele>426</ele>
        <time>2018-09-30T08:19:08Z</time>
      </trkpt>
      <trkpt lat="43.14561" lon="0.15868">
        <ele>426</ele>
        <time>2018-09-30T08:19:09Z</time>
      </trkpt>
      <trkpt lat="43.14561" lon="0.15871">
        <ele>426</ele>
        <time>2018-09-30T08:19:10Z</time>
      </trkpt>
      <trkpt lat="43.14561" lon="0.15874">
        <ele>426</ele>
        <time>2018-09-30T08:19:11Z</time>
      </trkpt>
      <trkpt lat="43.1456" lon="0.15876">
        <ele>426</ele>
        <time>2018-09-30T08:19:12Z</time>
      </trkpt>
      <trkpt lat="43.14559" lon="0.15879">
        <ele>427</ele>
        <time>2018-09-30T08:19:13Z</time>
      </trkpt>
      <trkpt lat="43.14558" lon="0.15881">
        <ele>427</ele>
        <time>2018-09-30T08:19:14Z</time>
      </trkpt>
      <trkpt lat="43.14558" lon="0.15884">
        <ele>427</ele>
        <time>2018-09-30T08:19:15Z</time>
      </trkpt>
      <trkpt lat="43.14557" lon="0.15887">
        <ele>427</ele>
        <time>2018-09-30T08:19:16Z</time>
      </trkpt>
      <trkpt lat="43.14557" lon="0.1589">
        <ele>427</ele>
        <time>2018-09-30T08:19:17Z</time>
      </trkpt>
      <trkpt lat="43.14556" lon="0.15893">
        <ele>427</ele>
        <time>2018-09-30T08:19:18Z</time>
      </trkpt>
      <trkpt lat="43.14556" lon="0.15895">
        <ele>428</ele>
        <time>2018-09-30T08:19:19Z</time>
      </trkpt>
      <trkpt lat="43.14555" lon="0.15898">
        <ele>428</ele>
        <time>2018-09-30T08:19:20Z</time>
      </trkpt>
      <trkpt lat="43.14554" lon="0.159">
        <ele>428</ele>
        <time>2018-09-30T08:19:21Z</time>
      </trkpt>
      <trkpt lat="43.14553" lon="0.15903">
        <ele>428</ele>
        <time>2018-09-30T08:19:22Z</time>
      </trkpt>
      <trkpt lat="43.14553" lon="0.15905">
        <ele>428</ele>
        <time>2018-09-30T08:19:23Z</time>
      </trkpt>
      <trkpt lat="43.14552" lon="0.15908">
        <ele>429</ele>
        <time>2018-09-30T08:19:24Z</time>
      </trkpt>
      <trkpt lat="43.14551" lon="0.15911">
        <ele>429</ele>
        <time>2018-09-30T08:19:25Z</time>
      </trkpt>
      <trkpt lat="43.1455" lon="0.15914">
        <ele>429</ele>
        <time>2018-09-30T08:19:26Z</time>
      </trkpt>
      <trkpt lat="43.14549" lon="0.15917">
        <ele>429</ele>
        <time>2018-09-30T08:19:27Z</time>
      </trkpt>
      <trkpt lat="43.14548" lon="0.1592">
        <ele>429</ele>
        <time>2018-09-30T08:19:28Z</time>
      </trkpt>
      <trkpt lat="43.14546" lon="0.15923">
        <ele>430</ele>
        <time>2018-09-30T08:19:29Z</time>
      </trkpt>
      <trkpt lat="43.14545" lon="0.15927">
        <ele>430</ele>
        <time>2018-09-30T08:19:30Z</time>
      </trkpt>
      <trkpt lat="43.14543" lon="0.1593">
        <ele>430</ele>
        <time>2018-09-30T08:19:31Z</time>
      </trkpt>
      <trkpt lat="43.14542" lon="0.15933">
        <ele>430</ele>
        <time>2018-09-30T08:19:32Z</time>
      </trkpt>
      <trkpt lat="43.1454" lon="0.15935">
        <ele>431</ele>
        <time>2018-09-30T08:19:33Z</time>
      </trkpt>
      <trkpt lat="43.14538" lon="0.15938">
        <ele>431</ele>
        <time>2018-09-30T08:19:34Z</time>
      </trkpt>
      <trkpt lat="43.14535" lon="0.1594">
        <ele>431</ele>
        <time>2018-09-30T08:19:35Z</time>
      </trkpt>
      <trkpt lat="43.14533" lon="0.15942">
        <ele>431</ele>
        <time>2018-09-30T08:19:36Z</time>
      </trkpt>
      <trkpt lat="43.14531" lon="0.15945">
        <ele>431</ele>
        <time>2018-09-30T08:19:37Z</time>
      </trkpt>
      <trkpt lat="43.14528" lon="0.15948">
        <ele>431</ele>
        <time>2018-09-30T08:19:38Z</time>
      </trkpt>
      <trkpt lat="43.14525" lon="0.15951">
        <ele>432</ele>
        <time>2018-09-30T08:19:39Z</time>
      </trkpt>
      <trkpt lat="43.14522" lon="0.15954">
        <ele>432</ele>
        <time>2018-09-30T08:19:40Z</time>
      </trkpt>
      <trkpt lat="43.14518" lon="0.15956">
        <ele>432</ele>
        <time>2018-09-30T08:19:41Z</time>
      </trkpt>
      <trkpt lat="43.14515" lon="0.15958">
        <ele>432</ele>
        <time>2018-09-30T08:19:42Z</time>
      </trkpt>
      <trkpt lat="43.14512" lon="0.1596">
        <ele>433</ele>
        <time>2018-09-30T08:19:43Z</time>
      </trkpt>
      <trkpt lat="43.14509" lon="0.15962">
        <ele>433</ele>
        <time>2018-09-30T08:19:44Z</time>
      </trkpt>
      <trkpt lat="43.14506" lon="0.15964">
        <ele>433</ele>
        <time>2018-09-30T08:19:45Z</time>
      </trkpt>
      <trkpt lat="43.14502" lon="0.15966">
        <ele>434</ele>
        <time>2018-09-30T08:19:46Z</time>
      </trkpt>
      <trkpt lat="43.14499" lon="0.15969">
        <ele>434</ele>
        <time>2018-09-30T08:19:47Z</time>
      </trkpt>
      <trkpt lat="43.14496" lon="0.15972">
        <ele>434</ele>
        <time>2018-09-30T08:19:48Z</time>
      </trkpt>
      <trkpt lat="43.14492" lon="0.15974">
        <ele>434</ele>
        <time>2018-09-30T08:19:49Z</time>
      </trkpt>
      <trkpt lat="43.14489" lon="0.15977">
        <ele>435</ele>
        <time>2018-09-30T08:19:50Z</time>
      </trkpt>
      <trkpt lat="43.14486" lon="0.1598">
        <ele>435</ele>
        <time>2018-09-30T08:19:51Z</time>
      </trkpt>
      <trkpt lat="43.14483" lon="0.15983">
        <ele>435</ele>
        <time>2018-09-30T08:19:52Z</time>
      </trkpt>
      <trkpt lat="43.1448" lon="0.15985">
        <ele>435</ele>
        <time>2018-09-30T08:19:53Z</time>
      </trkpt>
      <trkpt lat="43.14476" lon="0.15988">
        <ele>436</ele>
        <time>2018-09-30T08:19:54Z</time>
      </trkpt>
      <trkpt lat="43.14473" lon="0.1599">
        <ele>436</ele>
        <time>2018-09-30T08:19:55Z</time>
      </trkpt>
      <trkpt lat="43.1447" lon="0.15993">
        <ele>436</ele>
        <time>2018-09-30T08:19:56Z</time>
      </trkpt>
      <trkpt lat="43.14467" lon="0.15996">
        <ele>436</ele>
        <time>2018-09-30T08:19:57Z</time>
      </trkpt>
      <trkpt lat="43.14465" lon="0.15999">
        <ele>436</ele>
        <time>2018-09-30T08:19:58Z</time>
      </trkpt>
      <trkpt lat="43.14462" lon="0.16003">
        <ele>437</ele>
        <time>2018-09-30T08:19:59Z</time>
      </trkpt>
      <trkpt lat="43.14459" lon="0.16007">
        <ele>437</ele>
        <time>2018-09-30T08:20:00Z</time>
      </trkpt>
      <trkpt lat="43.14457" lon="0.16011">
        <ele>437</ele>
        <time>2018-09-30T08:20:01Z</time>
      </trkpt>
      <trkpt lat="43.14454" lon="0.16016">
        <ele>437</ele>
        <time>2018-09-30T08:20:02Z</time>
      </trkpt>
      <trkpt lat="43.14451" lon="0.16019">
        <ele>438</ele>
        <time>2018-09-30T08:20:03Z</time>
      </trkpt>
      <trkpt lat="43.14449" lon="0.16023">
        <ele>438</ele>
        <time>2018-09-30T08:20:04Z</time>
      </trkpt>
      <trkpt lat="43.14447" lon="0.16028">
        <ele>438</ele>
        <time>2018-09-30T08:20:05Z</time>
      </trkpt>
      <trkpt lat="43.14444" lon="0.16031">
        <ele>438</ele>
        <time>2018-09-30T08:20:06Z</time>
      </trkpt>
      <trkpt lat="43.14443" lon="0.16035">
        <ele>438</ele>
        <time>2018-09-30T08:20:07Z</time>
      </trkpt>
      <trkpt lat="43.14441" lon="0.16038">
        <ele>439</ele>
        <time>2018-09-30T08:20:08Z</time>
      </trkpt>
      <trkpt lat="43.14439" lon="0.16041">
        <ele>439</ele>
        <time>2018-09-30T08:20:09Z</time>
      </trkpt>
      <trkpt lat="43.14438" lon="0.16044">
        <ele>439</ele>
        <time>2018-09-30T08:20:10Z</time>
      </trkpt>
      <trkpt lat="43.14437" lon="0.16047">
        <ele>439</ele>
        <time>2018-09-30T08:20:11Z</time>
      </trkpt>
      <trkpt lat="43.14435" lon="0.1605">
        <ele>440</ele>
        <time>2018-09-30T08:20:12Z</time>
      </trkpt>
      <trkpt lat="43.14434" lon="0.16053">
        <ele>440</ele>
        <time>2018-09-30T08:20:13Z</time>
      </trkpt>
      <trkpt lat="43.14432" lon="0.16056">
        <ele>440</ele>
        <time>2018-09-30T08:20:14Z</time>
      </trkpt>
      <trkpt lat="43.14431" lon="0.16059">
        <ele>440</ele>
        <time>2018-09-30T08:20:15Z</time>
      </trkpt>
      <trkpt lat="43.14431" lon="0.16062">
        <ele>440</ele>
        <time>2018-09-30T08:20:16Z</time>
      </trkpt>
      <trkpt lat="43.1443" lon="0.16066">
        <ele>441</ele>
        <time>2018-09-30T08:20:17Z</time>
      </trkpt>
      <trkpt lat="43.1443" lon="0.16069">
        <ele>441</ele>
        <time>2018-09-30T08:20:18Z</time>
      </trkpt>
      <trkpt lat="43.14429" lon="0.16072">
        <ele>441</ele>
        <time>2018-09-30T08:20:19Z</time>
      </trkpt>
      <trkpt lat="43.14429" lon="0.16075">
        <ele>441</ele>
        <time>2018-09-30T08:20:20Z</time>
      </trkpt>
      <trkpt lat="43.14429" lon="0.16078">
        <ele>441</ele>
        <time>2018-09-30T08:20:21Z</time>
      </trkpt>
      <trkpt lat="43.14428" lon="0.1608">
        <ele>442</ele>
        <time>2018-09-30T08:20:22Z</time>
      </trkpt>
      <trkpt lat="43.14429" lon="0.16083">
        <ele>442</ele>
        <time>2018-09-30T08:20:23Z</time>
      </trkpt>
      <trkpt lat="43.1443" lon="0.16086">
        <ele>442</ele>
        <time>2018-09-30T08:20:24Z</time>
      </trkpt>
      <trkpt lat="43.14432" lon="0.16087">
        <ele>442</ele>
        <time>2018-09-30T08:20:25Z</time>
      </trkpt>
      <trkpt lat="43.14433" lon="0.16088">
        <ele>442</ele>
        <time>2018-09-30T08:20:26Z</time>
      </trkpt>
      <trkpt lat="43.14435" lon="0.16088">
        <ele>443</ele>
        <time>2018-09-30T08:20:27Z</time>
      </trkpt>
      <trkpt lat="43.14437" lon="0.16088">
        <ele>443</ele>
        <time>2018-09-30T08:20:28Z</time>
      </trkpt>
      <trkpt lat="43.14439" lon="0.1609">
        <ele>443</ele>
        <time>2018-09-30T08:20:29Z</time>
      </trkpt>
      <trkpt lat="43.14441" lon="0.16091">
        <ele>443</ele>
        <time>2018-09-30T08:20:30Z</time>
      </trkpt>
      <trkpt lat="43.14444" lon="0.16091">
        <ele>444</ele>
        <time>2018-09-30T08:20:31Z</time>
      </trkpt>
      <trkpt lat="43.14446" lon="0.16091">
        <ele>444</ele>
        <time>2018-09-30T08:20:32Z</time>
      </trkpt>
      <trkpt lat="43.14448" lon="0.16091">
        <ele>444</ele>
        <time>2018-09-30T08:20:33Z</time>
      </trkpt>
      <trkpt lat="43.1445" lon="0.1609">
        <ele>444</ele>
        <time>2018-09-30T08:20:34Z</time>
      </trkpt>
      <trkpt lat="43.14452" lon="0.16089">
        <ele>444</ele>
        <time>2018-09-30T08:20:35Z</time>
      </trkpt>
      <trkpt lat="43.14454" lon="0.16089">
        <ele>445</ele>
        <time>2018-09-30T08:20:36Z</time>
      </trkpt>
      <trkpt lat="43.14456" lon="0.16089">
        <ele>445</ele>
        <time>2018-09-30T08:20:37Z</time>
      </trkpt>
      <trkpt lat="43.14458" lon="0.16089">
        <ele>445</ele>
        <time>2018-09-30T08:20:38Z</time>
      </trkpt>
      <trkpt lat="43.1446" lon="0.16088">
        <ele>445</ele>
        <time>2018-09-30T08:20:39Z</time>
      </trkpt>
      <trkpt lat="43.14462" lon="0.16087">
        <ele>446</ele>
        <time>2018-09-30T08:20:40Z</time>
      </trkpt>
      <trkpt lat="43.14464" lon="0.16086">
        <ele>446</ele>
        <time>2018-09-30T08:20:41Z</time>
      </trkpt>
      <trkpt lat="43.14466" lon="0.16085">
        <ele>446</ele>
        <time>2018-09-30T08:20:42Z</time>
      </trkpt>
      <trkpt lat="43.14468" lon="0.16085">
        <ele>446</ele>
        <time>2018-09-30T08:20:43Z</time>
      </trkpt>
      <trkpt lat="43.1447" lon="0.16084">
        <ele>446</ele>
        <time>2018-09-30T08:20:44Z</time>
      </trkpt>
      <trkpt lat="43.14472" lon="0.16083">
        <ele>446</ele>
        <time>2018-09-30T08:20:45Z</time>
      </trkpt>
      <trkpt lat="43.14474" lon="0.16082">
        <ele>447</ele>
        <time>2018-09-30T08:20:46Z</time>
      </trkpt>
      <trkpt lat="43.14475" lon="0.16081">
        <ele>447</ele>
        <time>2018-09-30T08:20:47Z</time>
      </trkpt>
      <trkpt lat="43.14477" lon="0.16081">
        <ele>447</ele>
        <time>2018-09-30T08:20:48Z</time>
      </trkpt>
      <trkpt lat="43.14479" lon="0.16081">
        <ele>448</ele>
        <time>2018-09-30T08:20:49Z</time>
      </trkpt>
      <trkpt lat="43.14481" lon="0.16081">
        <ele>448</ele>
        <time>2018-09-30T08:20:50Z</time>
      </trkpt>
      <trkpt lat="43.14483" lon="0.16081">
        <ele>448</ele>
        <time>2018-09-30T08:20:51Z</time>
      </trkpt>
      <trkpt lat="43.14484" lon="0.16081">
        <ele>448</ele>
        <time>2018-09-30T08:20:52Z</time>
      </trkpt>
      <trkpt lat="43.14486" lon="0.16081">
        <ele>449</ele>
        <time>2018-09-30T08:20:53Z</time>
      </trkpt>
      <trkpt lat="43.14488" lon="0.16081">
        <ele>449</ele>
        <time>2018-09-30T08:20:54Z</time>
      </trkpt>
      <trkpt lat="43.1449" lon="0.1608">
        <ele>449</ele>
        <time>2018-09-30T08:20:55Z</time>
      </trkpt>
      <trkpt lat="43.14492" lon="0.1608">
        <ele>449</ele>
        <time>2018-09-30T08:20:56Z</time>
      </trkpt>
      <trkpt lat="43.14494" lon="0.1608">
        <ele>450</ele>
        <time>2018-09-30T08:20:57Z</time>
      </trkpt>
      <trkpt lat="43.14496" lon="0.16079">
        <ele>450</ele>
        <time>2018-09-30T08:20:58Z</time>
      </trkpt>
      <trkpt lat="43.14498" lon="0.16078">
        <ele>450</ele>
        <time>2018-09-30T08:20:59Z</time>
      </trkpt>
      <trkpt lat="43.145" lon="0.16078">
        <ele>450</ele>
        <time>2018-09-30T08:21:00Z</time>
      </trkpt>
      <trkpt lat="43.14502" lon="0.16078">
        <ele>451</ele>
        <time>2018-09-30T08:21:01Z</time>
      </trkpt>
      <trkpt lat="43.14504" lon="0.16078">
        <ele>451</ele>
        <time>2018-09-30T08:21:02Z</time>
      </trkpt>
      <trkpt lat="43.14506" lon="0.16078">
        <ele>451</ele>
        <time>2018-09-30T08:21:03Z</time>
      </trkpt>
      <trkpt lat="43.14508" lon="0.16077">
        <ele>451</ele>
        <time>2018-09-30T08:21:04Z</time>
      </trkpt>
      <trkpt lat="43.1451" lon="0.16077">
        <ele>451</ele>
        <time>2018-09-30T08:21:05Z</time>
      </trkpt>
      <trkpt lat="43.14513" lon="0.16076">
        <ele>452</ele>
        <time>2018-09-30T08:21:06Z</time>
      </trkpt>
      <trkpt lat="43.14515" lon="0.16075">
        <ele>452</ele>
        <time>2018-09-30T08:21:07Z</time>
      </trkpt>
      <trkpt lat="43.14518" lon="0.16074">
        <ele>452</ele>
        <time>2018-09-30T08:21:08Z</time>
      </trkpt>
      <trkpt lat="43.14521" lon="0.16074">
        <ele>452</ele>
        <time>2018-09-30T08:21:09Z</time>
      </trkpt>
      <trkpt lat="43.14523" lon="0.16073">
        <ele>453</ele>
        <time>2018-09-30T08:21:10Z</time>
      </trkpt>
      <trkpt lat="43.14526" lon="0.16073">
        <ele>453</ele>
        <time>2018-09-30T08:21:11Z</time>
      </trkpt>
      <trkpt lat="43.14529" lon="0.16072">
        <ele>453</ele>
        <time>2018-09-30T08:21:12Z</time>
      </trkpt>
      <trkpt lat="43.14531" lon="0.16071">
        <ele>453</ele>
        <time>2018-09-30T08:21:13Z</time>
      </trkpt>
      <trkpt lat="43.14534" lon="0.1607">
        <ele>453</ele>
        <time>2018-09-30T08:21:14Z</time>
      </trkpt>
      <trkpt lat="43.14536" lon="0.16069">
        <ele>454</ele>
        <time>2018-09-30T08:21:15Z</time>
      </trkpt>
      <trkpt lat="43.14539" lon="0.16068">
        <ele>454</ele>
        <time>2018-09-30T08:21:16Z</time>
      </trkpt>
      <trkpt lat="43.14542" lon="0.16066">
        <ele>454</ele>
        <time>2018-09-30T08:21:17Z</time>
      </trkpt>
      <trkpt lat="43.14544" lon="0.16065">
        <ele>454</ele>
        <time>2018-09-30T08:21:18Z</time>
      </trkpt>
      <trkpt lat="43.14547" lon="0.16063">
        <ele>454</ele>
        <time>2018-09-30T08:21:19Z</time>
      </trkpt>
      <trkpt lat="43.14549" lon="0.16062">
        <ele>454</ele>
        <time>2018-09-30T08:21:20Z</time>
      </trkpt>
      <trkpt lat="43.14552" lon="0.1606">
        <ele>455</ele>
        <time>2018-09-30T08:21:21Z</time>
      </trkpt>
      <trkpt lat="43.14554" lon="0.16059">
        <ele>455</ele>
        <time>2018-09-30T08:21:22Z</time>
      </trkpt>
      <trkpt lat="43.14556" lon="0.16057">
        <ele>455</ele>
        <time>2018-09-30T08:21:23Z</time>
      </trkpt>
      <trkpt lat="43.14558" lon="0.16056">
        <ele>455</ele>
        <time>2018-09-30T08:21:24Z</time>
      </trkpt>
      <trkpt lat="43.14561" lon="0.16055">
        <ele>455</ele>
        <time>2018-09-30T08:21:25Z</time>
      </trkpt>
      <trkpt lat="43.14563" lon="0.16053">
        <ele>455</ele>
        <time>2018-09-30T08:21:26Z</time>
      </trkpt>
      <trkpt lat="43.14565" lon="0.16052">
        <ele>456</ele>
        <time>2018-09-30T08:21:27Z</time>
      </trkpt>
      <trkpt lat="43.14567" lon="0.1605">
        <ele>456</ele>
        <time>2018-09-30T08:21:28Z</time>
      </trkpt>
      <trkpt lat="43.14569" lon="0.16049">
        <ele>456</ele>
        <time>2018-09-30T08:21:29Z</time>
      </trkpt>
      <trkpt lat="43.14572" lon="0.16048">
        <ele>456</ele>
        <time>2018-09-30T08:21:30Z</time>
      </trkpt>
      <trkpt lat="43.14574" lon="0.16046">
        <ele>456</ele>
        <time>2018-09-30T08:21:31Z</time>
      </trkpt>
      <trkpt lat="43.14576" lon="0.16045">
        <ele>456</ele>
        <time>2018-09-30T08:21:32Z</time>
      </trkpt>
      <trkpt lat="43.14579" lon="0.16044">
        <ele>457</ele>
        <time>2018-09-30T08:21:33Z</time>
      </trkpt>
      <trkpt lat="43.14581" lon="0.16043">
        <ele>457</ele>
        <time>2018-09-30T08:21:34Z</time>
      </trkpt>
      <trkpt lat="43.14583" lon="0.16042">
        <ele>457</ele>
        <time>2018-09-30T08:21:35Z</time>
      </trkpt>
      <trkpt lat="43.14586" lon="0.16041">
        <ele>457</ele>
        <time>2018-09-30T08:21:36Z</time>
      </trkpt>
      <trkpt lat="43.14588" lon="0.1604">
        <ele>457</ele>
        <time>2018-09-30T08:21:37Z</time>
      </trkpt>
      <trkpt lat="43.14591" lon="0.1604">
        <ele>457</ele>
        <time>2018-09-30T08:21:38Z</time>
      </trkpt>
      <trkpt lat="43.14593" lon="0.16039">
        <ele>458</ele>
        <time>2018-09-30T08:21:39Z</time>
      </trkpt>
      <trkpt lat="43.14596" lon="0.16038">
        <ele>458</ele>
        <time>2018-09-30T08:21:40Z</time>
      </trkpt>
      <trkpt lat="43.14598" lon="0.16038">
        <ele>458</ele>
        <time>2018-09-30T08:21:41Z</time>
      </trkpt>
      <trkpt lat="43.14601" lon="0.16037">
        <ele>458</ele>
        <time>2018-09-30T08:21:42Z</time>
      </trkpt>
      <trkpt lat="43.14603" lon="0.16037">
        <ele>458</ele>
        <time>2018-09-30T08:21:43Z</time>
      </trkpt>
      <trkpt lat="43.14606" lon="0.16037">
        <ele>458</ele>
        <time>2018-09-30T08:21:44Z</time>
      </trkpt>
      <trkpt lat="43.14609" lon="0.16036">
        <ele>459</ele>
        <time>2018-09-30T08:21:45Z</time>
      </trkpt>
      <trkpt lat="43.14611" lon="0.16036">
        <ele>459</ele>
        <time>2018-09-30T08:21:46Z</time>
      </trkpt>
      <trkpt lat="43.14613" lon="0.16035">
        <ele>459</ele>
        <time>2018-09-30T08:21:47Z</time>
      </trkpt>
      <trkpt lat="43.14616" lon="0.16035">
        <ele>459</ele>
        <time>2018-09-30T08:21:48Z</time>
      </trkpt>
      <trkpt lat="43.14618" lon="0.16036">
        <ele>459</ele>
        <time>2018-09-30T08:21:49Z</time>
      </trkpt>
      <trkpt lat="43.1462" lon="0.16035">
        <ele>459</ele>
        <time>2018-09-30T08:21:50Z</time>
      </trkpt>
      <trkpt lat="43.14623" lon="0.16035">
        <ele>459</ele>
        <time>2018-09-30T08:21:51Z</time>
      </trkpt>
      <trkpt lat="43.14625" lon="0.16035">
        <ele>460</ele>
        <time>2018-09-30T08:21:52Z</time>
      </trkpt>
      <trkpt lat="43.14628" lon="0.16035">
        <ele>460</ele>
        <time>2018-09-30T08:21:53Z</time>
      </trkpt>
      <trkpt lat="43.1463" lon="0.16035">
        <ele>460</ele>
        <time>2018-09-30T08:21:54Z</time>
      </trkpt>
      <trkpt lat="43.14632" lon="0.16035">
        <ele>460</ele>
        <time>2018-09-30T08:21:55Z</time>
      </trkpt>
      <trkpt lat="43.14635" lon="0.16035">
        <ele>460</ele>
        <time>2018-09-30T08:21:56Z</time>
      </trkpt>
      <trkpt lat="43.14637" lon="0.16035">
        <ele>460</ele>
        <time>2018-09-30T08:21:57Z</time>
      </trkpt>
      <trkpt lat="43.14639" lon="0.16034">
        <ele>461</ele>
        <time>2018-09-30T08:21:58Z</time>
      </trkpt>
      <trkpt lat="43.14641" lon="0.16034">
        <ele>461</ele>
        <time>2018-09-30T08:21:59Z</time>
      </trkpt>
      <trkpt lat="43.14644" lon="0.16033">
        <ele>461</ele>
        <time>2018-09-30T08:22:00Z</time>
      </trkpt>
      <trkpt lat="43.14646" lon="0.16033">
        <ele>461</ele>
        <time>2018-09-30T08:22:01Z</time>
      </trkpt>
      <trkpt lat="43.14649" lon="0.16032">
        <ele>461</ele>
        <time>2018-09-30T08:22:02Z</time>
      </trkpt>
      <trkpt lat="43.14652" lon="0.16031">
        <ele>461</ele>
        <time>2018-09-30T08:22:03Z</time>
      </trkpt>
      <trkpt lat="43.14655" lon="0.1603">
        <ele>461</ele>
        <time>2018-09-30T08:22:04Z</time>
      </trkpt>
      <trkpt lat="43.14657" lon="0.16029">
        <ele>462</ele>
        <time>2018-09-30T08:22:05Z</time>
      </trkpt>
      <trkpt lat="43.1466" lon="0.16028">
        <ele>462</ele>
        <time>2018-09-30T08:22:06Z</time>
      </trkpt>
      <trkpt lat="43.14663" lon="0.16027">
        <ele>462</ele>
        <time>2018-09-30T08:22:07Z</time>
      </trkpt>
      <trkpt lat="43.14665" lon="0.16026">
        <ele>462</ele>
        <time>2018-09-30T08:22:08Z</time>
      </trkpt>
      <trkpt lat="43.14668" lon="0.16025">
        <ele>462</ele>
        <time>2018-09-30T08:22:09Z</time>
      </trkpt>
      <trkpt lat="43.14671" lon="0.16024">
        <ele>462</ele>
        <time>2018-09-30T08:22:10Z</time>
      </trkpt>
      <trkpt lat="43.14673" lon="0.16023">
        <ele>463</ele>
        <time>2018-09-30T08:22:11Z</time>
      </trkpt>
      <trkpt lat="43.14676" lon="0.16022">
        <ele>463</ele>
        <time>2018-09-30T08:22:12Z</time>
      </trkpt>
      <trkpt lat="43.14678" lon="0.16021">
        <ele>463</ele>
        <time>2018-09-30T08:22:13Z</time>
      </trkpt>
      <trkpt lat="43.14681" lon="0.16021">
        <ele>463</ele>
        <time>2018-09-30T08:22:14Z</time>
      </trkpt>
      <trkpt lat="43.14684" lon="0.1602">
        <ele>463</ele>
        <time>2018-09-30T08:22:15Z</time>
      </trkpt>
      <trkpt lat="43.14686" lon="0.16019">
        <ele>463</ele>
        <time>2018-09-30T08:22:16Z</time>
      </trkpt>
      <trkpt lat="43.14689" lon="0.16018">
        <ele>463</ele>
        <time>2018-09-30T08:22:17Z</time>
      </trkpt>
      <trkpt lat="43.14691" lon="0.16017">
        <ele>464</ele>
        <time>2018-09-30T08:22:18Z</time>
      </trkpt>
      <trkpt lat="43.14694" lon="0.16016">
        <ele>464</ele>
        <time>2018-09-30T08:22:19Z</time>
      </trkpt>
      <trkpt lat="43.14696" lon="0.16015">
        <ele>464</ele>
        <time>2018-09-30T08:22:20Z</time>
      </trkpt>
      <trkpt lat="43.14699" lon="0.16014">
        <ele>464</ele>
        <time>2018-09-30T08:22:21Z</time>
      </trkpt>
      <trkpt lat="43.14702" lon="0.16013">
        <ele>464</ele>
        <time>2018-09-30T08:22:22Z</time>
      </trkpt>
      <trkpt lat="43.14704" lon="0.16012">
        <ele>464</ele>
        <time>2018-09-30T08:22:23Z</time>
      </trkpt>
      <trkpt lat="43.14707" lon="0.16011">
        <ele>464</ele>
        <time>2018-09-30T08:22:24Z</time>
      </trkpt>
      <trkpt lat="43.1471" lon="0.1601">
        <ele>465</ele>
        <time>2018-09-30T08:22:25Z</time>
      </trkpt>
      <trkpt lat="43.14713" lon="0.16009">
        <ele>465</ele>
        <time>2018-09-30T08:22:26Z</time>
      </trkpt>
      <trkpt lat="43.14716" lon="0.16008">
        <ele>465</ele>
        <time>2018-09-30T08:22:27Z</time>
      </trkpt>
      <trkpt lat="43.14719" lon="0.16007">
        <ele>465</ele>
        <time>2018-09-30T08:22:28Z</time>
      </trkpt>
      <trkpt lat="43.14723" lon="0.16006">
        <ele>465</ele>
        <time>2018-09-30T08:22:29Z</time>
      </trkpt>
      <trkpt lat="43.14726" lon="0.16005">
        <ele>466</ele>
        <time>2018-09-30T08:22:30Z</time>
      </trkpt>
      <trkpt lat="43.14729" lon="0.16004">
        <ele>466</ele>
        <time>2018-09-30T08:22:31Z</time>
      </trkpt>
      <trkpt lat="43.14732" lon="0.16003">
        <ele>466</ele>
        <time>2018-09-30T08:22:32Z</time>
      </trkpt>
      <trkpt lat="43.14735" lon="0.16003">
        <ele>466</ele>
        <time>2018-09-30T08:22:33Z</time>
      </trkpt>
      <trkpt lat="43.14738" lon="0.16002">
        <ele>466</ele>
        <time>2018-09-30T08:22:34Z</time>
      </trkpt>
      <trkpt lat="43.14741" lon="0.16002">
        <ele>467</ele>
        <time>2018-09-30T08:22:35Z</time>
      </trkpt>
      <trkpt lat="43.14744" lon="0.16002">
        <ele>467</ele>
        <time>2018-09-30T08:22:36Z</time>
      </trkpt>
      <trkpt lat="43.14746" lon="0.16002">
        <ele>467</ele>
        <time>2018-09-30T08:22:37Z</time>
      </trkpt>
      <trkpt lat="43.14748" lon="0.16002">
        <ele>467</ele>
        <time>2018-09-30T08:22:38Z</time>
      </trkpt>
      <trkpt lat="43.14751" lon="0.16003">
        <ele>467</ele>
        <time>2018-09-30T08:22:39Z</time>
      </trkpt>
      <trkpt lat="43.14754" lon="0.16003">
        <ele>468</ele>
        <time>2018-09-30T08:22:40Z</time>
      </trkpt>
      <trkpt lat="43.14756" lon="0.16003">
        <ele>468</ele>
        <time>2018-09-30T08:22:41Z</time>
      </trkpt>
      <trkpt lat="43.14759" lon="0.16003">
        <ele>468</ele>
        <time>2018-09-30T08:22:42Z</time>
      </trkpt>
      <trkpt lat="43.14761" lon="0.16004">
        <ele>468</ele>
        <time>2018-09-30T08:22:43Z</time>
      </trkpt>
      <trkpt lat="43.14764" lon="0.16004">
        <ele>469</ele>
        <time>2018-09-30T08:22:44Z</time>
      </trkpt>
      <trkpt lat="43.14767" lon="0.16004">
        <ele>469</ele>
        <time>2018-09-30T08:22:45Z</time>
      </trkpt>
      <trkpt lat="43.14769" lon="0.16005">
        <ele>469</ele>
        <time>2018-09-30T08:22:46Z</time>
      </trkpt>
      <trkpt lat="43.14772" lon="0.16005">
        <ele>469</ele>
        <time>2018-09-30T08:22:47Z</time>
      </trkpt>
      <trkpt lat="43.14774" lon="0.16005">
        <ele>469</ele>
        <time>2018-09-30T08:22:48Z</time>
      </trkpt>
      <trkpt lat="43.14777" lon="0.16005">
        <ele>470</ele>
        <time>2018-09-30T08:22:49Z</time>
      </trkpt>
      <trkpt lat="43.14779" lon="0.16005">
        <ele>470</ele>
        <time>2018-09-30T08:22:50Z</time>
      </trkpt>
      <trkpt lat="43.14782" lon="0.16006">
        <ele>470</ele>
        <time>2018-09-30T08:22:51Z</time>
      </trkpt>
      <trkpt lat="43.14784" lon="0.16006">
        <ele>470</ele>
        <time>2018-09-30T08:22:52Z</time>
      </trkpt>
      <trkpt lat="43.14787" lon="0.16006">
        <ele>471</ele>
        <time>2018-09-30T08:22:53Z</time>
      </trkpt>
      <trkpt lat="43.14789" lon="0.16006">
        <ele>471</ele>
        <time>2018-09-30T08:22:54Z</time>
      </trkpt>
      <trkpt lat="43.14792" lon="0.16006">
        <ele>471</ele>
        <time>2018-09-30T08:22:55Z</time>
      </trkpt>
      <trkpt lat="43.14794" lon="0.16006">
        <ele>471</ele>
        <time>2018-09-30T08:22:56Z</time>
      </trkpt>
      <trkpt lat="43.14797" lon="0.16006">
        <ele>471</ele>
        <time>2018-09-30T08:22:57Z</time>
      </trkpt>
      <trkpt lat="43.14799" lon="0.16006">
        <ele>472</ele>
        <time>2018-09-30T08:22:58Z</time>
      </trkpt>
      <trkpt lat="43.14802" lon="0.16007">
        <ele>472</ele>
        <time>2018-09-30T08:22:59Z</time>
      </trkpt>
      <trkpt lat="43.14805" lon="0.16007">
        <ele>472</ele>
        <time>2018-09-30T08:23:00Z</time>
      </trkpt>
      <trkpt lat="43.14807" lon="0.16007">
        <ele>472</ele>
        <time>2018-09-30T08:23:01Z</time>
      </trkpt>
      <trkpt lat="43.1481" lon="0.16008">
        <ele>473</ele>
        <time>2018-09-30T08:23:02Z</time>
      </trkpt>
      <trkpt lat="43.14812" lon="0.16008">
        <ele>473</ele>
        <time>2018-09-30T08:23:03Z</time>
      </trkpt>
      <trkpt lat="43.14815" lon="0.16008">
        <ele>473</ele>
        <time>2018-09-30T08:23:04Z</time>
      </trkpt>
      <trkpt lat="43.14818" lon="0.16009">
        <ele>473</ele>
        <time>2018-09-30T08:23:05Z</time>
      </trkpt>
      <trkpt lat="43.1482" lon="0.16009">
        <ele>474</ele>
        <time>2018-09-30T08:23:06Z</time>
      </trkpt>
      <trkpt lat="43.14823" lon="0.16009">
        <ele>474</ele>
        <time>2018-09-30T08:23:07Z</time>
      </trkpt>
      <trkpt lat="43.14825" lon="0.1601">
        <ele>474</ele>
        <time>2018-09-30T08:23:08Z</time>
      </trkpt>
      <trkpt lat="43.14828" lon="0.1601">
        <ele>474</ele>
        <time>2018-09-30T08:23:09Z</time>
      </trkpt>
      <trkpt lat="43.1483" lon="0.1601">
        <ele>474</ele>
        <time>2018-09-30T08:23:10Z</time>
      </trkpt>
      <trkpt lat="43.14833" lon="0.16011">
        <ele>475</ele>
        <time>2018-09-30T08:23:11Z</time>
      </trkpt>
      <trkpt lat="43.14836" lon="0.16012">
        <ele>475</ele>
        <time>2018-09-30T08:23:12Z</time>
      </trkpt>
      <trkpt lat="43.14838" lon="0.16012">
        <ele>475</ele>
        <time>2018-09-30T08:23:13Z</time>
      </trkpt>
      <trkpt lat="43.1484" lon="0.16013">
        <ele>475</ele>
        <time>2018-09-30T08:23:14Z</time>
      </trkpt>
      <trkpt lat="43.14843" lon="0.16013">
        <ele>475</ele>
        <time>2018-09-30T08:23:15Z</time>
      </trkpt>
      <trkpt lat="43.14845" lon="0.16014">
        <ele>476</ele>
        <time>2018-09-30T08:23:16Z</time>
      </trkpt>
      <trkpt lat="43.14847" lon="0.16015">
        <ele>476</ele>
        <time>2018-09-30T08:23:17Z</time>
      </trkpt>
      <trkpt lat="43.1485" lon="0.16017">
        <ele>476</ele>
        <time>2018-09-30T08:23:18Z</time>
      </trkpt>
      <trkpt lat="43.14852" lon="0.16018">
        <ele>476</ele>
        <time>2018-09-30T08:23:19Z</time>
      </trkpt>
      <trkpt lat="43.14854" lon="0.16019">
        <ele>476</ele>
        <time>2018-09-30T08:23:20Z</time>
      </trkpt>
      <trkpt lat="43.14857" lon="0.1602">
        <ele>477</ele>
        <time>2018-09-30T08:23:21Z</time>
      </trkpt>
      <trkpt lat="43.14859" lon="0.16021">
        <ele>477</ele>
        <time>2018-09-30T08:23:22Z</time>
      </trkpt>
      <trkpt lat="43.14861" lon="0.16021">
        <ele>477</ele>
        <time>2018-09-30T08:23:23Z</time>
      </trkpt>
      <trkpt lat="43.14863" lon="0.16022">
        <ele>477</ele>
        <time>2018-09-30T08:23:24Z</time>
      </trkpt>
      <trkpt lat="43.14864" lon="0.16024">
        <ele>477</ele>
        <time>2018-09-30T08:23:25Z</time>
      </trkpt>
      <trkpt lat="43.14866" lon="0.16026">
        <ele>477</ele>
        <time>2018-09-30T08:23:26Z</time>
      </trkpt>
      <trkpt lat="43.14867" lon="0.16029">
        <ele>478</ele>
        <time>2018-09-30T08:23:27Z</time>
      </trkpt>
      <trkpt lat="43.14869" lon="0.16031">
        <ele>478</ele>
        <time>2018-09-30T08:23:28Z</time>
      </trkpt>
      <trkpt lat="43.1487" lon="0.16034">
        <ele>478</ele>
        <time>2018-09-30T08:23:29Z</time>
      </trkpt>
      <trkpt lat="43.14872" lon="0.16036">
        <ele>478</ele>
        <time>2018-09-30T08:23:30Z</time>
      </trkpt>
      <trkpt lat="43.14873" lon="0.16039">
        <ele>478</ele>
        <time>2018-09-30T08:23:31Z</time>
      </trkpt>
      <trkpt lat="43.14875" lon="0.16042">
        <ele>479</ele>
        <time>2018-09-30T08:23:32Z</time>
      </trkpt>
      <trkpt lat="43.14877" lon="0.16044">
        <ele>479</ele>
        <time>2018-09-30T08:23:33Z</time>
      </trkpt>
      <trkpt lat="43.14879" lon="0.16047">
        <ele>479</ele>
        <time>2018-09-30T08:23:34Z</time>
      </trkpt>
      <trkpt lat="43.1488" lon="0.1605">
        <ele>479</ele>
        <time>2018-09-30T08:23:35Z</time>
      </trkpt>
      <trkpt lat="43.14882" lon="0.16052">
        <ele>480</ele>
        <time>2018-09-30T08:23:36Z</time>
      </trkpt>
      <trkpt lat="43.14883" lon="0.16055">
        <ele>480</ele>
        <time>2018-09-30T08:23:37Z</time>
      </trkpt>
      <trkpt lat="43.14884" lon="0.16058">
        <ele>480</ele>
        <time>2018-09-30T08:23:38Z</time>
      </trkpt>
      <trkpt lat="43.14885" lon="0.16061">
        <ele>480</ele>
        <time>2018-09-30T08:23:39Z</time>
      </trkpt>
      <trkpt lat="43.14887" lon="0.16064">
        <ele>480</ele>
        <time>2018-09-30T08:23:40Z</time>
      </trkpt>
      <trkpt lat="43.14889" lon="0.16067">
        <ele>481</ele>
        <time>2018-09-30T08:23:41Z</time>
      </trkpt>
      <trkpt lat="43.1489" lon="0.16069">
        <ele>481</ele>
        <time>2018-09-30T08:23:42Z</time>
      </trkpt>
      <trkpt lat="43.14892" lon="0.16072">
        <ele>481</ele>
        <time>2018-09-30T08:23:43Z</time>
      </trkpt>
      <trkpt lat="43.14893" lon="0.16074">
        <ele>481</ele>
        <time>2018-09-30T08:23:44Z</time>
      </trkpt>
      <trkpt lat="43.14894" lon="0.16077">
        <ele>481</ele>
        <time>2018-09-30T08:23:45Z</time>
      </trkpt>
      <trkpt lat="43.14895" lon="0.16079">
        <ele>482</ele>
        <time>2018-09-30T08:23:46Z</time>
      </trkpt>
      <trkpt lat="43.14897" lon="0.16082">
        <ele>482</ele>
        <time>2018-09-30T08:23:47Z</time>
      </trkpt>
      <trkpt lat="43.14898" lon="0.16084">
        <ele>482</ele>
        <time>2018-09-30T08:23:48Z</time>
      </trkpt>
      <trkpt lat="43.14899" lon="0.16086">
        <ele>482</ele>
        <time>2018-09-30T08:23:49Z</time>
      </trkpt>
      <trkpt lat="43.14901" lon="0.16089">
        <ele>482</ele>
        <time>2018-09-30T08:23:50Z</time>
      </trkpt>
      <trkpt lat="43.14902" lon="0.16091">
        <ele>483</ele>
        <time>2018-09-30T08:23:51Z</time>
      </trkpt>
      <trkpt lat="43.14903" lon="0.16093">
        <ele>483</ele>
        <time>2018-09-30T08:23:52Z</time>
      </trkpt>
      <trkpt lat="43.14904" lon="0.16095">
        <ele>483</ele>
        <time>2018-09-30T08:23:53Z</time>
      </trkpt>
      <trkpt lat="43.14904" lon="0.16097">
        <ele>483</ele>
        <time>2018-09-30T08:23:54Z</time>
      </trkpt>
      <trkpt lat="43.14905" lon="0.16099">
        <ele>483</ele>
        <time>2018-09-30T08:23:55Z</time>
      </trkpt>
      <trkpt lat="43.14907" lon="0.16101">
        <ele>484</ele>
        <time>2018-09-30T08:23:56Z</time>
      </trkpt>
      <trkpt lat="43.14908" lon="0.16103">
        <ele>484</ele>
        <time>2018-09-30T08:23:57Z</time>
      </trkpt>
      <trkpt lat="43.14909" lon="0.16106">
        <ele>484</ele>
        <time>2018-09-30T08:23:58Z</time>
      </trkpt>
      <trkpt lat="43.1491" lon="0.16109">
        <ele>484</ele>
        <time>2018-09-30T08:23:59Z</time>
      </trkpt>
      <trkpt lat="43.14911" lon="0.16111">
        <ele>484</ele>
        <time>2018-09-30T08:24:00Z</time>
      </trkpt>
      <trkpt lat="43.14913" lon="0.16114">
        <ele>484</ele>
        <time>2018-09-30T08:24:01Z</time>
      </trkpt>
      <trkpt lat="43.14914" lon="0.16117">
        <ele>485</ele>
        <time>2018-09-30T08:24:02Z</time>
      </trkpt>
      <trkpt lat="43.14915" lon="0.1612">
        <ele>485</ele>
        <time>2018-09-30T08:24:03Z</time>
      </trkpt>
      <trkpt lat="43.14916" lon="0.16122">
        <ele>485</ele>
        <time>2018-09-30T08:24:04Z</time>
      </trkpt>
      <trkpt lat="43.14918" lon="0.16125">
        <ele>485</ele>
        <time>2018-09-30T08:24:05Z</time>
      </trkpt>
      <trkpt lat="43.14919" lon="0.16127">
        <ele>485</ele>
        <time>2018-09-30T08:24:06Z</time>
      </trkpt>
      <trkpt lat="43.1492" lon="0.1613">
        <ele>486</ele>
        <time>2018-09-30T08:24:07Z</time>
      </trkpt>
      <trkpt lat="43.14922" lon="0.16133">
        <ele>486</ele>
        <time>2018-09-30T08:24:08Z</time>
      </trkpt>
      <trkpt lat="43.14923" lon="0.16137">
        <ele>486</ele>
        <time>2018-09-30T08:24:09Z</time>
      </trkpt>
      <trkpt lat="43.14925" lon="0.1614">
        <ele>486</ele>
        <time>2018-09-30T08:24:10Z</time>
      </trkpt>
      <trkpt lat="43.14926" lon="0.16142">
        <ele>486</ele>
        <time>2018-09-30T08:24:11Z</time>
      </trkpt>
      <trkpt lat="43.14928" lon="0.16145">
        <ele>486</ele>
        <time>2018-09-30T08:24:12Z</time>
      </trkpt>
      <trkpt lat="43.14929" lon="0.16149">
        <ele>486</ele>
        <time>2018-09-30T08:24:13Z</time>
      </trkpt>
      <trkpt lat="43.1493" lon="0.16151">
        <ele>487</ele>
        <time>2018-09-30T08:24:14Z</time>
      </trkpt>
      <trkpt lat="43.14931" lon="0.16153">
        <ele>487</ele>
        <time>2018-09-30T08:24:15Z</time>
      </trkpt>
      <trkpt lat="43.14931" lon="0.16155">
        <ele>487</ele>
        <time>2018-09-30T08:24:16Z</time>
      </trkpt>
      <trkpt lat="43.14932" lon="0.16156">
        <ele>487</ele>
        <time>2018-09-30T08:24:17Z</time>
      </trkpt>
      <trkpt lat="43.14933" lon="0.16158">
        <ele>487</ele>
        <time>2018-09-30T08:24:18Z</time>
      </trkpt>
      <trkpt lat="43.14934" lon="0.16161">
        <ele>488</ele>
        <time>2018-09-30T08:24:19Z</time>
      </trkpt>
      <trkpt lat="43.14935" lon="0.16163">
        <ele>488</ele>
        <time>2018-09-30T08:24:20Z</time>
      </trkpt>
      <trkpt lat="43.14936" lon="0.16165">
        <ele>488</ele>
        <time>2018-09-30T08:24:21Z</time>
      </trkpt>
      <trkpt lat="43.14937" lon="0.16167">
        <ele>488</ele>
        <time>2018-09-30T08:24:22Z</time>
      </trkpt>
      <trkpt lat="43.14939" lon="0.1617">
        <ele>489</ele>
        <time>2018-09-30T08:24:23Z</time>
      </trkpt>
      <trkpt lat="43.1494" lon="0.16172">
        <ele>489</ele>
        <time>2018-09-30T08:24:24Z</time>
      </trkpt>
      <trkpt lat="43.14941" lon="0.16174">
        <ele>489</ele>
        <time>2018-09-30T08:24:25Z</time>
      </trkpt>
      <trkpt lat="43.14943" lon="0.16177">
        <ele>489</ele>
        <time>2018-09-30T08:24:26Z</time>
      </trkpt>
      <trkpt lat="43.14944" lon="0.16179">
        <ele>489</ele>
        <time>2018-09-30T08:24:27Z</time>
      </trkpt>
      <trkpt lat="43.14945" lon="0.16182">
        <ele>489</ele>
        <time>2018-09-30T08:24:28Z</time>
      </trkpt>
      <trkpt lat="43.14946" lon="0.16185">
        <ele>490</ele>
        <time>2018-09-30T08:24:29Z</time>
      </trkpt>
      <trkpt lat="43.14948" lon="0.16188">
        <ele>490</ele>
        <time>2018-09-30T08:24:30Z</time>
      </trkpt>
      <trkpt lat="43.14949" lon="0.1619">
        <ele>490</ele>
        <time>2018-09-30T08:24:31Z</time>
      </trkpt>
      <trkpt lat="43.14951" lon="0.16193">
        <ele>490</ele>
        <time>2018-09-30T08:24:32Z</time>
      </trkpt>
      <trkpt lat="43.14952" lon="0.16196">
        <ele>490</ele>
        <time>2018-09-30T08:24:33Z</time>
      </trkpt>
      <trkpt lat="43.14954" lon="0.16199">
        <ele>490</ele>
        <time>2018-09-30T08:24:34Z</time>
      </trkpt>
      <trkpt lat="43.14956" lon="0.16201">
        <ele>490</ele>
        <time>2018-09-30T08:24:35Z</time>
      </trkpt>
      <trkpt lat="43.14957" lon="0.16204">
        <ele>491</ele>
        <time>2018-09-30T08:24:36Z</time>
      </trkpt>
      <trkpt lat="43.14958" lon="0.16207">
        <ele>491</ele>
        <time>2018-09-30T08:24:37Z</time>
      </trkpt>
      <trkpt lat="43.14959" lon="0.16209">
        <ele>491</ele>
        <time>2018-09-30T08:24:38Z</time>
      </trkpt>
      <trkpt lat="43.1496" lon="0.16212">
        <ele>491</ele>
        <time>2018-09-30T08:24:39Z</time>
      </trkpt>
      <trkpt lat="43.14962" lon="0.16215">
        <ele>491</ele>
        <time>2018-09-30T08:24:40Z</time>
      </trkpt>
      <trkpt lat="43.14963" lon="0.16218">
        <ele>491</ele>
        <time>2018-09-30T08:24:41Z</time>
      </trkpt>
      <trkpt lat="43.14964" lon="0.16222">
        <ele>492</ele>
        <time>2018-09-30T08:24:42Z</time>
      </trkpt>
      <trkpt lat="43.14965" lon="0.16225">
        <ele>492</ele>
        <time>2018-09-30T08:24:43Z</time>
      </trkpt>
      <trkpt lat="43.14967" lon="0.16227">
        <ele>492</ele>
        <time>2018-09-30T08:24:44Z</time>
      </trkpt>
      <trkpt lat="43.14968" lon="0.1623">
        <ele>492</ele>
        <time>2018-09-30T08:24:45Z</time>
      </trkpt>
      <trkpt lat="43.1497" lon="0.16234">
        <ele>492</ele>
        <time>2018-09-30T08:24:46Z</time>
      </trkpt>
      <trkpt lat="43.14971" lon="0.16237">
        <ele>492</ele>
        <time>2018-09-30T08:24:47Z</time>
      </trkpt>
      <trkpt lat="43.14972" lon="0.1624">
        <ele>493</ele>
        <time>2018-09-30T08:24:48Z</time>
      </trkpt>
      <trkpt lat="43.14973" lon="0.16243">
        <ele>493</ele>
        <time>2018-09-30T08:24:49Z</time>
      </trkpt>
      <trkpt lat="43.14974" lon="0.16246">
        <ele>493</ele>
        <time>2018-09-30T08:24:50Z</time>
      </trkpt>
      <trkpt lat="43.14975" lon="0.16249">
        <ele>493</ele>
        <time>2018-09-30T08:24:51Z</time>
      </trkpt>
      <trkpt lat="43.14977" lon="0.16252">
        <ele>493</ele>
        <time>2018-09-30T08:24:52Z</time>
      </trkpt>
      <trkpt lat="43.14978" lon="0.16256">
        <ele>494</ele>
        <time>2018-09-30T08:24:53Z</time>
      </trkpt>
      <trkpt lat="43.1498" lon="0.16259">
        <ele>494</ele>
        <time>2018-09-30T08:24:54Z</time>
      </trkpt>
      <trkpt lat="43.14981" lon="0.16263">
        <ele>494</ele>
        <time>2018-09-30T08:24:55Z</time>
      </trkpt>
      <trkpt lat="43.14983" lon="0.16266">
        <ele>494</ele>
        <time>2018-09-30T08:24:56Z</time>
      </trkpt>
      <trkpt lat="43.14984" lon="0.1627">
        <ele>494</ele>
        <time>2018-09-30T08:24:57Z</time>
      </trkpt>
      <trkpt lat="43.14985" lon="0.16274">
        <ele>495</ele>
        <time>2018-09-30T08:24:58Z</time>
      </trkpt>
      <trkpt lat="43.14986" lon="0.16277">
        <ele>495</ele>
        <time>2018-09-30T08:24:59Z</time>
      </trkpt>
      <trkpt lat="43.14987" lon="0.1628">
        <ele>495</ele>
        <time>2018-09-30T08:25:00Z</time>
      </trkpt>
      <trkpt lat="43.14988" lon="0.16283">
        <ele>495</ele>
        <time>2018-09-30T08:25:01Z</time>
      </trkpt>
      <trkpt lat="43.1499" lon="0.16287">
        <ele>495</ele>
        <time>2018-09-30T08:25:02Z</time>
      </trkpt>
      <trkpt lat="43.14991" lon="0.1629">
        <ele>495</ele>
        <time>2018-09-30T08:25:03Z</time>
      </trkpt>
      <trkpt lat="43.14992" lon="0.16293">
        <ele>496</ele>
        <time>2018-09-30T08:25:04Z</time>
      </trkpt>
      <trkpt lat="43.14993" lon="0.16297">
        <ele>496</ele>
        <time>2018-09-30T08:25:05Z</time>
      </trkpt>
      <trkpt lat="43.14993" lon="0.16301">
        <ele>496</ele>
        <time>2018-09-30T08:25:06Z</time>
      </trkpt>
      <trkpt lat="43.14995" lon="0.16304">
        <ele>496</ele>
        <time>2018-09-30T08:25:07Z</time>
      </trkpt>
      <trkpt lat="43.14996" lon="0.16307">
        <ele>496</ele>
        <time>2018-09-30T08:25:08Z</time>
      </trkpt>
      <trkpt lat="43.14997" lon="0.1631">
        <ele>496</ele>
        <time>2018-09-30T08:25:09Z</time>
      </trkpt>
      <trkpt lat="43.14998" lon="0.16313">
        <ele>497</ele>
        <time>2018-09-30T08:25:10Z</time>
      </trkpt>
      <trkpt lat="43.14999" lon="0.16316">
        <ele>497</ele>
        <time>2018-09-30T08:25:11Z</time>
      </trkpt>
      <trkpt lat="43.15" lon="0.1632">
        <ele>497</ele>
        <time>2018-09-30T08:25:12Z</time>
      </trkpt>
      <trkpt lat="43.15002" lon="0.16323">
        <ele>497</ele>
        <time>2018-09-30T08:25:13Z</time>
      </trkpt>
      <trkpt lat="43.15002" lon="0.16326">
        <ele>497</ele>
        <time>2018-09-30T08:25:14Z</time>
      </trkpt>
      <trkpt lat="43.15003" lon="0.16329">
        <ele>498</ele>
        <time>2018-09-30T08:25:15Z</time>
      </trkpt>
      <trkpt lat="43.15004" lon="0.16333">
        <ele>498</ele>
        <time>2018-09-30T08:25:16Z</time>
      </trkpt>
      <trkpt lat="43.15006" lon="0.16336">
        <ele>498</ele>
        <time>2018-09-30T08:25:17Z</time>
      </trkpt>
      <trkpt lat="43.15006" lon="0.1634">
        <ele>498</ele>
        <time>2018-09-30T08:25:18Z</time>
      </trkpt>
      <trkpt lat="43.15007" lon="0.16344">
        <ele>498</ele>
        <time>2018-09-30T08:25:19Z</time>
      </trkpt>
      <trkpt lat="43.15008" lon="0.16347">
        <ele>498</ele>
        <time>2018-09-30T08:25:20Z</time>
      </trkpt>
      <trkpt lat="43.15008" lon="0.16351">
        <ele>498</ele>
        <time>2018-09-30T08:25:21Z</time>
      </trkpt>
      <trkpt lat="43.15009" lon="0.16354">
        <ele>499</ele>
        <time>2018-09-30T08:25:22Z</time>
      </trkpt>
      <trkpt lat="43.15009" lon="0.16358">
        <ele>499</ele>
        <time>2018-09-30T08:25:23Z</time>
      </trkpt>
      <trkpt lat="43.15009" lon="0.16361">
        <ele>499</ele>
        <time>2018-09-30T08:25:24Z</time>
      </trkpt>
      <trkpt lat="43.15009" lon="0.16365">
        <ele>499</ele>
        <time>2018-09-30T08:25:25Z</time>
      </trkpt>
      <trkpt lat="43.15009" lon="0.16368">
        <ele>499</ele>
        <time>2018-09-30T08:25:26Z</time>
      </trkpt>
      <trkpt lat="43.15009" lon="0.16372">
        <ele>500</ele>
        <time>2018-09-30T08:25:27Z</time>
      </trkpt>
      <trkpt lat="43.15009" lon="0.16376">
        <ele>500</ele>
        <time>2018-09-30T08:25:28Z</time>
      </trkpt>
      <trkpt lat="43.15009" lon="0.16379">
        <ele>500</ele>
        <time>2018-09-30T08:25:29Z</time>
      </trkpt>
      <trkpt lat="43.15009" lon="0.16384">
        <ele>500</ele>
        <time>2018-09-30T08:25:30Z</time>
      </trkpt>
      <trkpt lat="43.15009" lon="0.16387">
        <ele>500</ele>
        <time>2018-09-30T08:25:31Z</time>
      </trkpt>
      <trkpt lat="43.15009" lon="0.16391">
        <ele>500</ele>
        <time>2018-09-30T08:25:32Z</time>
      </trkpt>
      <trkpt lat="43.15009" lon="0.16395">
        <ele>501</ele>
        <time>2018-09-30T08:25:33Z</time>
      </trkpt>
      <trkpt lat="43.1501" lon="0.16399">
        <ele>501</ele>
        <time>2018-09-30T08:25:34Z</time>
      </trkpt>
      <trkpt lat="43.1501" lon="0.16403">
        <ele>501</ele>
        <time>2018-09-30T08:25:35Z</time>
      </trkpt>
      <trkpt lat="43.1501" lon="0.16407">
        <ele>501</ele>
        <time>2018-09-30T08:25:36Z</time>
      </trkpt>
      <trkpt lat="43.1501" lon="0.16411">
        <ele>501</ele>
        <time>2018-09-30T08:25:37Z</time>
      </trkpt>
      <trkpt lat="43.1501" lon="0.16415">
        <ele>502</ele>
        <time>2018-09-30T08:25:38Z</time>
      </trkpt>
      <trkpt lat="43.1501" lon="0.16419">
        <ele>502</ele>
        <time>2018-09-30T08:25:39Z</time>
      </trkpt>
      <trkpt lat="43.15011" lon="0.16423">
        <ele>502</ele>
        <time>2018-09-30T08:25:40Z</time>
      </trkpt>
      <trkpt lat="43.15011" lon="0.16426">
        <ele>502</ele>
        <time>2018-09-30T08:25:41Z</time>
      </trkpt>
      <trkpt lat="43.15012" lon="0.1643">
        <ele>502</ele>
        <time>2018-09-30T08:25:42Z</time>
      </trkpt>
      <trkpt lat="43.15012" lon="0.16434">
        <ele>503</ele>
        <time>2018-09-30T08:25:43Z</time>
      </trkpt>
      <trkpt lat="43.15012" lon="0.16438">
        <ele>503</ele>
        <time>2018-09-30T08:25:44Z</time>
      </trkpt>
      <trkpt lat="43.15013" lon="0.16442">
        <ele>503</ele>
        <time>2018-09-30T08:25:45Z</time>
      </trkpt>
      <trkpt lat="43.15013" lon="0.16446">
        <ele>503</ele>
        <time>2018-09-30T08:25:46Z</time>
      </trkpt>
      <trkpt lat="43.15013" lon="0.1645">
        <ele>503</ele>
        <time>2018-09-30T08:25:47Z</time>
      </trkpt>
      <trkpt lat="43.15013" lon="0.16454">
        <ele>504</ele>
        <time>2018-09-30T08:25:48Z</time>
      </trkpt>
      <trkpt lat="43.15014" lon="0.16457">
        <ele>504</ele>
        <time>2018-09-30T08:25:49Z</time>
      </trkpt>
      <trkpt lat="43.15017" lon="0.1646">
        <ele>504</ele>
        <time>2018-09-30T08:25:50Z</time>
      </trkpt>
      <trkpt lat="43.15019" lon="0.16463">
        <ele>504</ele>
        <time>2018-09-30T08:25:51Z</time>
      </trkpt>
      <trkpt lat="43.15022" lon="0.16464">
        <ele>504</ele>
        <time>2018-09-30T08:25:52Z</time>
      </trkpt>
      <trkpt lat="43.15025" lon="0.16464">
        <ele>504</ele>
        <time>2018-09-30T08:25:53Z</time>
      </trkpt>
      <trkpt lat="43.15029" lon="0.16463">
        <ele>504</ele>
        <time>2018-09-30T08:25:54Z</time>
      </trkpt>
      <trkpt lat="43.15033" lon="0.16463">
        <ele>504</ele>
        <time>2018-09-30T08:25:55Z</time>
      </trkpt>
      <trkpt lat="43.15037" lon="0.16462">
        <ele>505</ele>
        <time>2018-09-30T08:25:56Z</time>
      </trkpt>
      <trkpt lat="43.1504" lon="0.16462">
        <ele>505</ele>
        <time>2018-09-30T08:25:57Z</time>
      </trkpt>
      <trkpt lat="43.15044" lon="0.16462">
        <ele>506</ele>
        <time>2018-09-30T08:25:58Z</time>
      </trkpt>
      <trkpt lat="43.15048" lon="0.16462">
        <ele>507</ele>
        <time>2018-09-30T08:25:59Z</time>
      </trkpt>
      <trkpt lat="43.15052" lon="0.16463">
        <ele>509</ele>
        <time>2018-09-30T08:26:00Z</time>
      </trkpt>
      <trkpt lat="43.15056" lon="0.16463">
        <ele>510</ele>
        <time>2018-09-30T08:26:01Z</time>
      </trkpt>
      <trkpt lat="43.1506" lon="0.16463">
        <ele>511</ele>
        <time>2018-09-30T08:26:02Z</time>
      </trkpt>
      <trkpt lat="43.15064" lon="0.16465">
        <ele>512</ele>
        <time>2018-09-30T08:26:03Z</time>
      </trkpt>
      <trkpt lat="43.15067" lon="0.16466">
        <ele>512</ele>
        <time>2018-09-30T08:26:04Z</time>
      </trkpt>
      <trkpt lat="43.1507" lon="0.16469">
        <ele>513</ele>
        <time>2018-09-30T08:26:05Z</time>
      </trkpt>
      <trkpt lat="43.15073" lon="0.16473">
        <ele>513</ele>
        <time>2018-09-30T08:26:06Z</time>
      </trkpt>
      <trkpt lat="43.15075" lon="0.16479">
        <ele>512</ele>
        <time>2018-09-30T08:26:07Z</time>
      </trkpt>
      <trkpt lat="43.15076" lon="0.16486">
        <ele>512</ele>
        <time>2018-09-30T08:26:08Z</time>
      </trkpt>
      <trkpt lat="43.15077" lon="0.16492">
        <ele>512</ele>
        <time>2018-09-30T08:26:09Z</time>
      </trkpt>
      <trkpt lat="43.15077" lon="0.16499">
        <ele>511</ele>
        <time>2018-09-30T08:26:10Z</time>
      </trkpt>
      <trkpt lat="43.15078" lon="0.16505">
        <ele>511</ele>
        <time>2018-09-30T08:26:11Z</time>
      </trkpt>
      <trkpt lat="43.15079" lon="0.16512">
        <ele>511</ele>
        <time>2018-09-30T08:26:12Z</time>
      </trkpt>
      <trkpt lat="43.15079" lon="0.16518">
        <ele>511</ele>
        <time>2018-09-30T08:26:13Z</time>
      </trkpt>
      <trkpt lat="43.1508" lon="0.16525">
        <ele>511</ele>
        <time>2018-09-30T08:26:14Z</time>
      </trkpt>
      <trkpt lat="43.1508" lon="0.16532">
        <ele>511</ele>
        <time>2018-09-30T08:26:15Z</time>
      </trkpt>
      <trkpt lat="43.15081" lon="0.16539">
        <ele>511</ele>
        <time>2018-09-30T08:26:16Z</time>
      </trkpt>
      <trkpt lat="43.15082" lon="0.16546">
        <ele>511</ele>
        <time>2018-09-30T08:26:17Z</time>
      </trkpt>
      <trkpt lat="43.15082" lon="0.16553">
        <ele>511</ele>
        <time>2018-09-30T08:26:17Z</time>
      </trkpt>
      <trkpt lat="43.15083" lon="0.1656">
        <ele>511</ele>
        <time>2018-09-30T08:26:18Z</time>
      </trkpt>
      <trkpt lat="43.15083" lon="0.16567">
        <ele>511</ele>
        <time>2018-09-30T08:26:19Z</time>
      </trkpt>
      <trkpt lat="43.15084" lon="0.16575">
        <ele>510</ele>
        <time>2018-09-30T08:26:20Z</time>
      </trkpt>
      <trkpt lat="43.15084" lon="0.16583">
        <ele>510</ele>
        <time>2018-09-30T08:26:21Z</time>
      </trkpt>
      <trkpt lat="43.15085" lon="0.1659">
        <ele>510</ele>
        <time>2018-09-30T08:26:22Z</time>
      </trkpt>
      <trkpt lat="43.15086" lon="0.16597">
        <ele>509</ele>
        <time>2018-09-30T08:26:23Z</time>
      </trkpt>
      <trkpt lat="43.15087" lon="0.16604">
        <ele>509</ele>
        <time>2018-09-30T08:26:24Z</time>
      </trkpt>
      <trkpt lat="43.15089" lon="0.16611">
        <ele>508</ele>
        <time>2018-09-30T08:26:25Z</time>
      </trkpt>
      <trkpt lat="43.15091" lon="0.16618">
        <ele>508</ele>
        <time>2018-09-30T08:26:26Z</time>
      </trkpt>
      <trkpt lat="43.15093" lon="0.16627">
        <ele>507</ele>
        <time>2018-09-30T08:26:27Z</time>
      </trkpt>
      <trkpt lat="43.15095" lon="0.16635">
        <ele>507</ele>
        <time>2018-09-30T08:26:28Z</time>
      </trkpt>
      <trkpt lat="43.15098" lon="0.16643">
        <ele>506</ele>
        <time>2018-09-30T08:26:29Z</time>
      </trkpt>
      <trkpt lat="43.15101" lon="0.16651">
        <ele>505</ele>
        <time>2018-09-30T08:26:30Z</time>
      </trkpt>
      <trkpt lat="43.15106" lon="0.16661">
        <ele>505</ele>
        <time>2018-09-30T08:26:31Z</time>
      </trkpt>
      <trkpt lat="43.15111" lon="0.1667">
        <ele>504</ele>
        <time>2018-09-30T08:26:32Z</time>
      </trkpt>
      <trkpt lat="43.15117" lon="0.16678">
        <ele>503</ele>
        <time>2018-09-30T08:26:33Z</time>
      </trkpt>
      <trkpt lat="43.15124" lon="0.16686">
        <ele>502</ele>
        <time>2018-09-30T08:26:34Z</time>
      </trkpt>
      <trkpt lat="43.15132" lon="0.16693">
        <ele>501</ele>
        <time>2018-09-30T08:26:35Z</time>
      </trkpt>
      <trkpt lat="43.15139" lon="0.16699">
        <ele>500</ele>
        <time>2018-09-30T08:26:36Z</time>
      </trkpt>
      <trkpt lat="43.15146" lon="0.16705">
        <ele>500</ele>
        <time>2018-09-30T08:26:37Z</time>
      </trkpt>
      <trkpt lat="43.15152" lon="0.1671">
        <ele>499</ele>
        <time>2018-09-30T08:26:38Z</time>
      </trkpt>
      <trkpt lat="43.15159" lon="0.16716">
        <ele>498</ele>
        <time>2018-09-30T08:26:39Z</time>
      </trkpt>
      <trkpt lat="43.15165" lon="0.16721">
        <ele>498</ele>
        <time>2018-09-30T08:26:40Z</time>
      </trkpt>
      <trkpt lat="43.15171" lon="0.16728">
        <ele>497</ele>
        <time>2018-09-30T08:26:41Z</time>
      </trkpt>
      <trkpt lat="43.15178" lon="0.16736">
        <ele>496</ele>
        <time>2018-09-30T08:26:42Z</time>
      </trkpt>
      <trkpt lat="43.15184" lon="0.16743">
        <ele>496</ele>
        <time>2018-09-30T08:26:43Z</time>
      </trkpt>
      <trkpt lat="43.1519" lon="0.16751">
        <ele>495</ele>
        <time>2018-09-30T08:26:44Z</time>
      </trkpt>
      <trkpt lat="43.15196" lon="0.16758">
        <ele>495</ele>
        <time>2018-09-30T08:26:45Z</time>
      </trkpt>
      <trkpt lat="43.15201" lon="0.16766">
        <ele>494</ele>
        <time>2018-09-30T08:26:46Z</time>
      </trkpt>
      <trkpt lat="43.15208" lon="0.16773">
        <ele>494</ele>
        <time>2018-09-30T08:26:47Z</time>
      </trkpt>
      <trkpt lat="43.15214" lon="0.1678">
        <ele>493</ele>
        <time>2018-09-30T08:26:48Z</time>
      </trkpt>
      <trkpt lat="43.1522" lon="0.16786">
        <ele>493</ele>
        <time>2018-09-30T08:26:49Z</time>
      </trkpt>
      <trkpt lat="43.15226" lon="0.16791">
        <ele>492</ele>
        <time>2018-09-30T08:26:50Z</time>
      </trkpt>
      <trkpt lat="43.15233" lon="0.16795">
        <ele>492</ele>
        <time>2018-09-30T08:26:51Z</time>
      </trkpt>
      <trkpt lat="43.15241" lon="0.16799">
        <ele>491</ele>
        <time>2018-09-30T08:26:52Z</time>
      </trkpt>
      <trkpt lat="43.15249" lon="0.16801">
        <ele>491</ele>
        <time>2018-09-30T08:26:53Z</time>
      </trkpt>
      <trkpt lat="43.15258" lon="0.16802">
        <ele>490</ele>
        <time>2018-09-30T08:26:54Z</time>
      </trkpt>
      <trkpt lat="43.15267" lon="0.16804">
        <ele>490</ele>
        <time>2018-09-30T08:26:55Z</time>
      </trkpt>
      <trkpt lat="43.15274" lon="0.16805">
        <ele>489</ele>
        <time>2018-09-30T08:26:56Z</time>
      </trkpt>
      <trkpt lat="43.15281" lon="0.16806">
        <ele>489</ele>
        <time>2018-09-30T08:26:57Z</time>
      </trkpt>
      <trkpt lat="43.15287" lon="0.16806">
        <ele>488</ele>
        <time>2018-09-30T08:26:58Z</time>
      </trkpt>
      <trkpt lat="43.15292" lon="0.16809">
        <ele>488</ele>
        <time>2018-09-30T08:26:59Z</time>
      </trkpt>
      <trkpt lat="43.15296" lon="0.16811">
        <ele>487</ele>
        <time>2018-09-30T08:27:00Z</time>
      </trkpt>
      <trkpt lat="43.153" lon="0.16814">
        <ele>487</ele>
        <time>2018-09-30T08:27:01Z</time>
      </trkpt>
      <trkpt lat="43.15303" lon="0.16817">
        <ele>487</ele>
        <time>2018-09-30T08:27:02Z</time>
      </trkpt>
      <trkpt lat="43.15305" lon="0.1682">
        <ele>487</ele>
        <time>2018-09-30T08:27:03Z</time>
      </trkpt>
      <trkpt lat="43.15307" lon="0.16821">
        <ele>487</ele>
        <time>2018-09-30T08:27:04Z</time>
      </trkpt>
      <trkpt lat="43.1531" lon="0.16821">
        <ele>486</ele>
        <time>2018-09-30T08:27:05Z</time>
      </trkpt>
      <trkpt lat="43.15313" lon="0.16819">
        <ele>486</ele>
        <time>2018-09-30T08:27:06Z</time>
      </trkpt>
      <trkpt lat="43.15315" lon="0.16817">
        <ele>486</ele>
        <time>2018-09-30T08:27:07Z</time>
      </trkpt>
      <trkpt lat="43.15317" lon="0.16816">
        <ele>486</ele>
        <time>2018-09-30T08:27:08Z</time>
      </trkpt>
      <trkpt lat="43.1532" lon="0.16814">
        <ele>486</ele>
        <time>2018-09-30T08:27:09Z</time>
      </trkpt>
      <trkpt lat="43.15323" lon="0.16814">
        <ele>486</ele>
        <time>2018-09-30T08:27:10Z</time>
      </trkpt>
      <trkpt lat="43.15324" lon="0.16818">
        <ele>486</ele>
        <time>2018-09-30T08:27:11Z</time>
      </trkpt>
      <trkpt lat="43.15327" lon="0.16821">
        <ele>486</ele>
        <time>2018-09-30T08:27:12Z</time>
      </trkpt>
      <trkpt lat="43.15329" lon="0.16824">
        <ele>486</ele>
        <time>2018-09-30T08:27:13Z</time>
      </trkpt>
      <trkpt lat="43.1533" lon="0.16827">
        <ele>486</ele>
        <time>2018-09-30T08:27:14Z</time>
      </trkpt>
      <trkpt lat="43.15332" lon="0.1683">
        <ele>485</ele>
        <time>2018-09-30T08:27:15Z</time>
      </trkpt>
      <trkpt lat="43.15334" lon="0.16834">
        <ele>485</ele>
        <time>2018-09-30T08:27:16Z</time>
      </trkpt>
      <trkpt lat="43.15337" lon="0.16838">
        <ele>485</ele>
        <time>2018-09-30T08:27:17Z</time>
      </trkpt>
      <trkpt lat="43.15338" lon="0.16841">
        <ele>485</ele>
        <time>2018-09-30T08:27:18Z</time>
      </trkpt>
      <trkpt lat="43.1534" lon="0.16845">
        <ele>485</ele>
        <time>2018-09-30T08:27:19Z</time>
      </trkpt>
      <trkpt lat="43.15342" lon="0.16849">
        <ele>485</ele>
        <time>2018-09-30T08:27:20Z</time>
      </trkpt>
      <trkpt lat="43.15344" lon="0.16852">
        <ele>485</ele>
        <time>2018-09-30T08:27:21Z</time>
      </trkpt>
      <trkpt lat="43.15345" lon="0.16855">
        <ele>485</ele>
        <time>2018-09-30T08:27:22Z</time>
      </trkpt>
      <trkpt lat="43.15346" lon="0.16858">
        <ele>485</ele>
        <time>2018-09-30T08:27:23Z</time>
      </trkpt>
      <trkpt lat="43.15347" lon="0.16861">
        <ele>484</ele>
        <time>2018-09-30T08:27:24Z</time>
      </trkpt>
      <trkpt lat="43.15349" lon="0.16864">
        <ele>484</ele>
        <time>2018-09-30T08:27:25Z</time>
      </trkpt>
      <trkpt lat="43.1535" lon="0.16867">
        <ele>484</ele>
        <time>2018-09-30T08:27:26Z</time>
      </trkpt>
      <trkpt lat="43.15351" lon="0.16871">
        <ele>484</ele>
        <time>2018-09-30T08:27:27Z</time>
      </trkpt>
      <trkpt lat="43.15353" lon="0.16874">
        <ele>484</ele>
        <time>2018-09-30T08:27:28Z</time>
      </trkpt>
      <trkpt lat="43.15354" lon="0.16878">
        <ele>484</ele>
        <time>2018-09-30T08:27:29Z</time>
      </trkpt>
      <trkpt lat="43.15356" lon="0.16881">
        <ele>484</ele>
        <time>2018-09-30T08:27:30Z</time>
      </trkpt>
      <trkpt lat="43.15357" lon="0.16885">
        <ele>484</ele>
        <time>2018-09-30T08:27:31Z</time>
      </trkpt>
      <trkpt lat="43.15358" lon="0.16889">
        <ele>483</ele>
        <time>2018-09-30T08:27:32Z</time>
      </trkpt>
      <trkpt lat="43.15359" lon="0.16892">
        <ele>483</ele>
        <time>2018-09-30T08:27:33Z</time>
      </trkpt>
      <trkpt lat="43.1536" lon="0.16896">
        <ele>483</ele>
        <time>2018-09-30T08:27:34Z</time>
      </trkpt>
      <trkpt lat="43.15362" lon="0.16899">
        <ele>483</ele>
        <time>2018-09-30T08:27:35Z</time>
      </trkpt>
      <trkpt lat="43.15362" lon="0.16902">
        <ele>483</ele>
        <time>2018-09-30T08:27:36Z</time>
      </trkpt>
      <trkpt lat="43.15363" lon="0.16905">
        <ele>483</ele>
        <time>2018-09-30T08:27:37Z</time>
      </trkpt>
      <trkpt lat="43.15364" lon="0.16908">
        <ele>483</ele>
        <time>2018-09-30T08:27:38Z</time>
      </trkpt>
      <trkpt lat="43.15365" lon="0.16911">
        <ele>483</ele>
        <time>2018-09-30T08:27:39Z</time>
      </trkpt>
      <trkpt lat="43.15366" lon="0.16914">
        <ele>483</ele>
        <time>2018-09-30T08:27:40Z</time>
      </trkpt>
      <trkpt lat="43.15366" lon="0.16917">
        <ele>483</ele>
        <time>2018-09-30T08:27:41Z</time>
      </trkpt>
      <trkpt lat="43.15367" lon="0.1692">
        <ele>483</ele>
        <time>2018-09-30T08:27:42Z</time>
      </trkpt>
      <trkpt lat="43.15368" lon="0.16923">
        <ele>482</ele>
        <time>2018-09-30T08:27:43Z</time>
      </trkpt>
      <trkpt lat="43.15369" lon="0.16925">
        <ele>482</ele>
        <time>2018-09-30T08:27:44Z</time>
      </trkpt>
      <trkpt lat="43.1537" lon="0.16928">
        <ele>482</ele>
        <time>2018-09-30T08:27:45Z</time>
      </trkpt>
      <trkpt lat="43.15371" lon="0.16932">
        <ele>482</ele>
        <time>2018-09-30T08:27:46Z</time>
      </trkpt>
      <trkpt lat="43.15371" lon="0.16935">
        <ele>482</ele>
        <time>2018-09-30T08:27:47Z</time>
      </trkpt>
      <trkpt lat="43.15372" lon="0.16938">
        <ele>482</ele>
        <time>2018-09-30T08:27:48Z</time>
      </trkpt>
      <trkpt lat="43.15373" lon="0.16941">
        <ele>482</ele>
        <time>2018-09-30T08:27:49Z</time>
      </trkpt>
      <trkpt lat="43.15374" lon="0.16944">
        <ele>482</ele>
        <time>2018-09-30T08:27:50Z</time>
      </trkpt>
      <trkpt lat="43.15374" lon="0.16948">
        <ele>482</ele>
        <time>2018-09-30T08:27:51Z</time>
      </trkpt>
      <trkpt lat="43.15375" lon="0.16952">
        <ele>482</ele>
        <time>2018-09-30T08:27:52Z</time>
      </trkpt>
      <trkpt lat="43.15375" lon="0.16955">
        <ele>482</ele>
        <time>2018-09-30T08:27:53Z</time>
      </trkpt>
      <trkpt lat="43.15376" lon="0.16958">
        <ele>482</ele>
        <time>2018-09-30T08:27:54Z</time>
      </trkpt>
      <trkpt lat="43.15377" lon="0.16962">
        <ele>482</ele>
        <time>2018-09-30T08:27:55Z</time>
      </trkpt>
      <trkpt lat="43.15378" lon="0.16965">
        <ele>482</ele>
        <time>2018-09-30T08:27:56Z</time>
      </trkpt>
      <trkpt lat="43.15379" lon="0.16968">
        <ele>482</ele>
        <time>2018-09-30T08:27:57Z</time>
      </trkpt>
      <trkpt lat="43.1538" lon="0.16971">
        <ele>482</ele>
        <time>2018-09-30T08:27:58Z</time>
      </trkpt>
      <trkpt lat="43.15381" lon="0.16974">
        <ele>482</ele>
        <time>2018-09-30T08:27:59Z</time>
      </trkpt>
      <trkpt lat="43.15382" lon="0.16978">
        <ele>482</ele>
        <time>2018-09-30T08:28:00Z</time>
      </trkpt>
      <trkpt lat="43.15382" lon="0.16981">
        <ele>482</ele>
        <time>2018-09-30T08:28:01Z</time>
      </trkpt>
      <trkpt lat="43.15384" lon="0.16984">
        <ele>482</ele>
        <time>2018-09-30T08:28:02Z</time>
      </trkpt>
      <trkpt lat="43.15385" lon="0.16987">
        <ele>482</ele>
        <time>2018-09-30T08:28:03Z</time>
      </trkpt>
      <trkpt lat="43.15385" lon="0.1699">
        <ele>482</ele>
        <time>2018-09-30T08:28:04Z</time>
      </trkpt>
      <trkpt lat="43.15386" lon="0.16994">
        <ele>482</ele>
        <time>2018-09-30T08:28:05Z</time>
      </trkpt>
      <trkpt lat="43.15387" lon="0.16997">
        <ele>482</ele>
        <time>2018-09-30T08:28:06Z</time>
      </trkpt>
      <trkpt lat="43.15388" lon="0.17">
        <ele>482</ele>
        <time>2018-09-30T08:28:07Z</time>
      </trkpt>
      <trkpt lat="43.15389" lon="0.17003">
        <ele>482</ele>
        <time>2018-09-30T08:28:08Z</time>
      </trkpt>
      <trkpt lat="43.1539" lon="0.17005">
        <ele>482</ele>
        <time>2018-09-30T08:28:09Z</time>
      </trkpt>
      <trkpt lat="43.15392" lon="0.17008">
        <ele>482</ele>
        <time>2018-09-30T08:28:10Z</time>
      </trkpt>
      <trkpt lat="43.15393" lon="0.17012">
        <ele>482</ele>
        <time>2018-09-30T08:28:11Z</time>
      </trkpt>
      <trkpt lat="43.15394" lon="0.17015">
        <ele>482</ele>
        <time>2018-09-30T08:28:12Z</time>
      </trkpt>
      <trkpt lat="43.15395" lon="0.17019">
        <ele>482</ele>
        <time>2018-09-30T08:28:13Z</time>
      </trkpt>
      <trkpt lat="43.15396" lon="0.17022">
        <ele>482</ele>
        <time>2018-09-30T08:28:14Z</time>
      </trkpt>
      <trkpt lat="43.15397" lon="0.17026">
        <ele>482</ele>
        <time>2018-09-30T08:28:15Z</time>
      </trkpt>
      <trkpt lat="43.15399" lon="0.17029">
        <ele>483</ele>
        <time>2018-09-30T08:28:16Z</time>
      </trkpt>
      <trkpt lat="43.154" lon="0.17032">
        <ele>483</ele>
        <time>2018-09-30T08:28:17Z</time>
      </trkpt>
      <trkpt lat="43.15401" lon="0.17035">
        <ele>483</ele>
        <time>2018-09-30T08:28:18Z</time>
      </trkpt>
      <trkpt lat="43.15402" lon="0.17039">
        <ele>483</ele>
        <time>2018-09-30T08:28:19Z</time>
      </trkpt>
      <trkpt lat="43.15404" lon="0.17042">
        <ele>483</ele>
        <time>2018-09-30T08:28:20Z</time>
      </trkpt>
      <trkpt lat="43.15405" lon="0.17045">
        <ele>483</ele>
        <time>2018-09-30T08:28:21Z</time>
      </trkpt>
      <trkpt lat="43.15406" lon="0.17049">
        <ele>483</ele>
        <time>2018-09-30T08:28:22Z</time>
      </trkpt>
      <trkpt lat="43.15407" lon="0.17051">
        <ele>483</ele>
        <time>2018-09-30T08:28:23Z</time>
      </trkpt>
      <trkpt lat="43.15409" lon="0.17055">
        <ele>483</ele>
        <time>2018-09-30T08:28:24Z</time>
      </trkpt>
      <trkpt lat="43.1541" lon="0.17058">
        <ele>483</ele>
        <time>2018-09-30T08:28:25Z</time>
      </trkpt>
      <trkpt lat="43.15412" lon="0.17061">
        <ele>484</ele>
        <time>2018-09-30T08:28:26Z</time>
      </trkpt>
      <trkpt lat="43.15413" lon="0.17064">
        <ele>484</ele>
        <time>2018-09-30T08:28:27Z</time>
      </trkpt>
      <trkpt lat="43.15414" lon="0.17067">
        <ele>484</ele>
        <time>2018-09-30T08:28:28Z</time>
      </trkpt>
      <trkpt lat="43.15416" lon="0.1707">
        <ele>484</ele>
        <time>2018-09-30T08:28:29Z</time>
      </trkpt>
      <trkpt lat="43.15417" lon="0.17073">
        <ele>484</ele>
        <time>2018-09-30T08:28:30Z</time>
      </trkpt>
      <trkpt lat="43.15419" lon="0.17077">
        <ele>484</ele>
        <time>2018-09-30T08:28:31Z</time>
      </trkpt>
      <trkpt lat="43.1542" lon="0.1708">
        <ele>484</ele>
        <time>2018-09-30T08:28:32Z</time>
      </trkpt>
      <trkpt lat="43.15421" lon="0.17083">
        <ele>484</ele>
        <time>2018-09-30T08:28:33Z</time>
      </trkpt>
      <trkpt lat="43.15423" lon="0.17087">
        <ele>484</ele>
        <time>2018-09-30T08:28:34Z</time>
      </trkpt>
      <trkpt lat="43.15425" lon="0.1709">
        <ele>485</ele>
        <time>2018-09-30T08:28:35Z</time>
      </trkpt>
      <trkpt lat="43.15427" lon="0.17094">
        <ele>485</ele>
        <time>2018-09-30T08:28:36Z</time>
      </trkpt>
      <trkpt lat="43.15428" lon="0.17097">
        <ele>485</ele>
        <time>2018-09-30T08:28:37Z</time>
      </trkpt>
      <trkpt lat="43.1543" lon="0.171">
        <ele>485</ele>
        <time>2018-09-30T08:28:38Z</time>
      </trkpt>
      <trkpt lat="43.15432" lon="0.17104">
        <ele>485</ele>
        <time>2018-09-30T08:28:39Z</time>
      </trkpt>
      <trkpt lat="43.15433" lon="0.17107">
        <ele>485</ele>
        <time>2018-09-30T08:28:40Z</time>
      </trkpt>
      <trkpt lat="43.15435" lon="0.17111">
        <ele>485</ele>
        <time>2018-09-30T08:28:41Z</time>
      </trkpt>
      <trkpt lat="43.15437" lon="0.17114">
        <ele>485</ele>
        <time>2018-09-30T08:28:42Z</time>
      </trkpt>
      <trkpt lat="43.15439" lon="0.17117">
        <ele>486</ele>
        <time>2018-09-30T08:28:43Z</time>
      </trkpt>
      <trkpt lat="43.15441" lon="0.17119">
        <ele>486</ele>
        <time>2018-09-30T08:28:44Z</time>
      </trkpt>
      <trkpt lat="43.15443" lon="0.17122">
        <ele>486</ele>
        <time>2018-09-30T08:28:45Z</time>
      </trkpt>
      <trkpt lat="43.15445" lon="0.17125">
        <ele>486</ele>
        <time>2018-09-30T08:28:46Z</time>
      </trkpt>
      <trkpt lat="43.15446" lon="0.17127">
        <ele>486</ele>
        <time>2018-09-30T08:28:47Z</time>
      </trkpt>
      <trkpt lat="43.15448" lon="0.1713">
        <ele>486</ele>
        <time>2018-09-30T08:28:48Z</time>
      </trkpt>
      <trkpt lat="43.15449" lon="0.17134">
        <ele>486</ele>
        <time>2018-09-30T08:28:49Z</time>
      </trkpt>
      <trkpt lat="43.15451" lon="0.17137">
        <ele>487</ele>
        <time>2018-09-30T08:28:50Z</time>
      </trkpt>
      <trkpt lat="43.15453" lon="0.1714">
        <ele>487</ele>
        <time>2018-09-30T08:28:51Z</time>
      </trkpt>
      <trkpt lat="43.15454" lon="0.17143">
        <ele>487</ele>
        <time>2018-09-30T08:28:52Z</time>
      </trkpt>
      <trkpt lat="43.15456" lon="0.17146">
        <ele>487</ele>
        <time>2018-09-30T08:28:53Z</time>
      </trkpt>
      <trkpt lat="43.15457" lon="0.17149">
        <ele>487</ele>
        <time>2018-09-30T08:28:54Z</time>
      </trkpt>
      <trkpt lat="43.15459" lon="0.17152">
        <ele>487</ele>
        <time>2018-09-30T08:28:55Z</time>
      </trkpt>
      <trkpt lat="43.1546" lon="0.17155">
        <ele>487</ele>
        <time>2018-09-30T08:28:56Z</time>
      </trkpt>
      <trkpt lat="43.15462" lon="0.17159">
        <ele>488</ele>
        <time>2018-09-30T08:28:57Z</time>
      </trkpt>
      <trkpt lat="43.15463" lon="0.17162">
        <ele>488</ele>
        <time>2018-09-30T08:28:58Z</time>
      </trkpt>
      <trkpt lat="43.15465" lon="0.17165">
        <ele>488</ele>
        <time>2018-09-30T08:28:59Z</time>
      </trkpt>
      <trkpt lat="43.15467" lon="0.17168">
        <ele>488</ele>
        <time>2018-09-30T08:29:00Z</time>
      </trkpt>
      <trkpt lat="43.15468" lon="0.17172">
        <ele>488</ele>
        <time>2018-09-30T08:29:01Z</time>
      </trkpt>
      <trkpt lat="43.1547" lon="0.17175">
        <ele>488</ele>
        <time>2018-09-30T08:29:02Z</time>
      </trkpt>
      <trkpt lat="43.15471" lon="0.17179">
        <ele>488</ele>
        <time>2018-09-30T08:29:03Z</time>
      </trkpt>
      <trkpt lat="43.15472" lon="0.17183">
        <ele>489</ele>
        <time>2018-09-30T08:29:04Z</time>
      </trkpt>
      <trkpt lat="43.15473" lon="0.17187">
        <ele>489</ele>
        <time>2018-09-30T08:29:05Z</time>
      </trkpt>
      <trkpt lat="43.15475" lon="0.1719">
        <ele>489</ele>
        <time>2018-09-30T08:29:06Z</time>
      </trkpt>
      <trkpt lat="43.15476" lon="0.17192">
        <ele>489</ele>
        <time>2018-09-30T08:29:07Z</time>
      </trkpt>
      <trkpt lat="43.15478" lon="0.17193">
        <ele>489</ele>
        <time>2018-09-30T08:29:08Z</time>
      </trkpt>
      <trkpt lat="43.15479" lon="0.17194">
        <ele>489</ele>
        <time>2018-09-30T08:29:09Z</time>
      </trkpt>
      <trkpt lat="43.15479" lon="0.17194">
        <ele>490</ele>
        <time>2018-09-30T08:29:10Z</time>
      </trkpt>
      <trkpt lat="43.15479" lon="0.17194">
        <ele>490</ele>
        <time>2018-09-30T08:29:11Z</time>
      </trkpt>
      <trkpt lat="43.15479" lon="0.17194">
        <ele>490</ele>
        <time>2018-09-30T08:29:12Z</time>
      </trkpt>
      <trkpt lat="43.15479" lon="0.17194">
        <ele>490</ele>
        <time>2018-09-30T08:29:13Z</time>
      </trkpt>
      <trkpt lat="43.15479" lon="0.17194">
        <ele>490</ele>
        <time>2018-09-30T08:29:14Z</time>
      </trkpt>
      <trkpt lat="43.15479" lon="0.17194">
        <ele>490</ele>
        <time>2018-09-30T08:29:15Z</time>
      </trkpt>
      <trkpt lat="43.15479" lon="0.17194">
        <ele>490</ele>
        <time>2018-09-30T08:29:16Z</time>
      </trkpt>
      <trkpt lat="43.15479" lon="0.17194">
        <ele>490</ele>
        <time>2018-09-30T08:29:17Z</time>
      </trkpt>
      <trkpt lat="43.15479" lon="0.17194">
        <ele>490</ele>
        <time>2018-09-30T08:29:18Z</time>
      </trkpt>
      <trkpt lat="43.15479" lon="0.17194">
        <ele>490</ele>
        <time>2018-09-30T08:29:19Z</time>
      </trkpt>
      <trkpt lat="43.15479" lon="0.17194">
        <ele>490</ele>
        <time>2018-09-30T08:29:20Z</time>
      </trkpt>
      <trkpt lat="43.15479" lon="0.17194">
        <ele>490</ele>
        <time>2018-09-30T08:29:21Z</time>
      </trkpt>
      <trkpt lat="43.15479" lon="0.17194">
        <ele>490</ele>
        <time>2018-09-30T08:29:22Z</time>
      </trkpt>
      <trkpt lat="43.15479" lon="0.17194">
        <ele>490</ele>
        <time>2018-09-30T08:29:23Z</time>
      </trkpt>
      <trkpt lat="43.15479" lon="0.17194">
        <ele>490</ele>
        <time>2018-09-30T08:29:24Z</time>
      </trkpt>
      <trkpt lat="43.15479" lon="0.17194">
        <ele>490</ele>
        <time>2018-09-30T08:29:25Z</time>
      </trkpt>
      <trkpt lat="43.15479" lon="0.17194">
        <ele>490</ele>
        <time>2018-09-30T08:29:26Z</time>
      </trkpt>
      <trkpt lat="43.15479" lon="0.17194">
        <ele>490</ele>
        <time>2018-09-30T08:29:27Z</time>
      </trkpt>
      <trkpt lat="43.15479" lon="0.17194">
        <ele>490</ele>
        <time>2018-09-30T08:29:28Z</time>
      </trkpt>
      <trkpt lat="43.15479" lon="0.17194">
        <ele>490</ele>
        <time>2018-09-30T08:29:29Z</time>
      </trkpt>
      <trkpt lat="43.15479" lon="0.17194">
        <ele>490</ele>
        <time>2018-09-30T08:29:30Z</time>
      </trkpt>
      <trkpt lat="43.15479" lon="0.17194">
        <ele>490</ele>
        <time>2018-09-30T08:29:31Z</time>
      </trkpt>
      <trkpt lat="43.15479" lon="0.17194">
        <ele>490</ele>
        <time>2018-09-30T08:29:32Z</time>
      </trkpt>
      <trkpt lat="43.15479" lon="0.17194">
        <ele>490</ele>
        <time>2018-09-30T08:29:33Z</time>
      </trkpt>
      <trkpt lat="43.15479" lon="0.17194">
        <ele>490</ele>
        <time>2018-09-30T08:29:34Z</time>
      </trkpt>
      <trkpt lat="43.15479" lon="0.17194">
        <ele>490</ele>
        <time>2018-09-30T08:29:35Z</time>
      </trkpt>
      <trkpt lat="43.15479" lon="0.17194">
        <ele>490</ele>
        <time>2018-09-30T08:29:36Z</time>
      </trkpt>
      <trkpt lat="43.15479" lon="0.17194">
        <ele>490</ele>
        <time>2018-09-30T08:29:37Z</time>
      </trkpt>
      <trkpt lat="43.15479" lon="0.17194">
        <ele>490</ele>
        <time>2018-09-30T08:29:38Z</time>
      </trkpt>
      <trkpt lat="43.15479" lon="0.17194">
        <ele>490</ele>
        <time>2018-09-30T08:29:39Z</time>
      </trkpt>
      <trkpt lat="43.15479" lon="0.17194">
        <ele>490</ele>
        <time>2018-09-30T08:29:40Z</time>
      </trkpt>
      <trkpt lat="43.15479" lon="0.17194">
        <ele>490</ele>
        <time>2018-09-30T08:29:41Z</time>
      </trkpt>
      <trkpt lat="43.15479" lon="0.17194">
        <ele>490</ele>
        <time>2018-09-30T08:29:42Z</time>
      </trkpt>
      <trkpt lat="43.15479" lon="0.17194">
        <ele>490</ele>
        <time>2018-09-30T08:29:43Z</time>
      </trkpt>
      <trkpt lat="43.15479" lon="0.17194">
        <ele>490</ele>
        <time>2018-09-30T08:29:44Z</time>
      </trkpt>
      <trkpt lat="43.15479" lon="0.17194">
        <ele>490</ele>
        <time>2018-09-30T08:29:45Z</time>
      </trkpt>
      <trkpt lat="43.15479" lon="0.17194">
        <ele>490</ele>
        <time>2018-09-30T08:29:46Z</time>
      </trkpt>
      <trkpt lat="43.15479" lon="0.17194">
        <ele>490</ele>
        <time>2018-09-30T08:29:47Z</time>
      </trkpt>
      <trkpt lat="43.15479" lon="0.17194">
        <ele>490</ele>
        <time>2018-09-30T08:29:48Z</time>
      </trkpt>
      <trkpt lat="43.15479" lon="0.17194">
        <ele>490</ele>
        <time>2018-09-30T08:29:49Z</time>
      </trkpt>
      <trkpt lat="43.15479" lon="0.17194">
        <ele>490</ele>
        <time>2018-09-30T08:29:50Z</time>
      </trkpt>
      <trkpt lat="43.15479" lon="0.17194">
        <ele>490</ele>
        <time>2018-09-30T08:29:51Z</time>
      </trkpt>
      <trkpt lat="43.15479" lon="0.17194">
        <ele>490</ele>
        <time>2018-09-30T08:29:52Z</time>
      </trkpt>
      <trkpt lat="43.15479" lon="0.17194">
        <ele>490</ele>
        <time>2018-09-30T08:29:53Z</time>
      </trkpt>
      <trkpt lat="43.15479" lon="0.17194">
        <ele>490</ele>
        <time>2018-09-30T08:29:54Z</time>
      </trkpt>
      <trkpt lat="43.15479" lon="0.17194">
        <ele>490</ele>
        <time>2018-09-30T08:29:55Z</time>
      </trkpt>
      <trkpt lat="43.15479" lon="0.17194">
        <ele>490</ele>
        <time>2018-09-30T08:29:56Z</time>
      </trkpt>
      <trkpt lat="43.15479" lon="0.17194">
        <ele>490</ele>
        <time>2018-09-30T08:29:57Z</time>
      </trkpt>
      <trkpt lat="43.15479" lon="0.17194">
        <ele>490</ele>
        <time>2018-09-30T08:29:58Z</time>
      </trkpt>
      <trkpt lat="43.15479" lon="0.17194">
        <ele>490</ele>
        <time>2018-09-30T08:29:59Z</time>
      </trkpt>
      <trkpt lat="43.15479" lon="0.17194">
        <ele>490</ele>
        <time>2018-09-30T08:30:00Z</time>
      </trkpt>
      <trkpt lat="43.15479" lon="0.17194">
        <ele>490</ele>
        <time>2018-09-30T08:30:01Z</time>
      </trkpt>
      <trkpt lat="43.15479" lon="0.17194">
        <ele>490</ele>
        <time>2018-09-30T08:30:02Z</time>
      </trkpt>
      <trkpt lat="43.15479" lon="0.17194">
        <ele>490</ele>
        <time>2018-09-30T08:30:03Z</time>
      </trkpt>
      <trkpt lat="43.15479" lon="0.17194">
        <ele>490</ele>
        <time>2018-09-30T08:30:04Z</time>
      </trkpt>
      <trkpt lat="43.15479" lon="0.17194">
        <ele>490</ele>
        <time>2018-09-30T08:30:05Z</time>
      </trkpt>
      <trkpt lat="43.15479" lon="0.17194">
        <ele>490</ele>
        <time>2018-09-30T08:30:06Z</time>
      </trkpt>
      <trkpt lat="43.15479" lon="0.17194">
        <ele>490</ele>
        <time>2018-09-30T08:30:07Z</time>
      </trkpt>
      <trkpt lat="43.15479" lon="0.17194">
        <ele>490</ele>
        <time>2018-09-30T08:30:08Z</time>
      </trkpt>
      <trkpt lat="43.15479" lon="0.17194">
        <ele>491</ele>
        <time>2018-09-30T08:30:09Z</time>
      </trkpt>
      <trkpt lat="43.15479" lon="0.17194">
        <ele>491</ele>
        <time>2018-09-30T08:30:10Z</time>
      </trkpt>
      <trkpt lat="43.15479" lon="0.17194">
        <ele>491</ele>
        <time>2018-09-30T08:30:11Z</time>
      </trkpt>
      <trkpt lat="43.15479" lon="0.17194">
        <ele>491</ele>
        <time>2018-09-30T08:30:12Z</time>
      </trkpt>
      <trkpt lat="43.15479" lon="0.17194">
        <ele>491</ele>
        <time>2018-09-30T08:30:13Z</time>
      </trkpt>
      <trkpt lat="43.15479" lon="0.17194">
        <ele>491</ele>
        <time>2018-09-30T08:30:14Z</time>
      </trkpt>
      <trkpt lat="43.15479" lon="0.17194">
        <ele>491</ele>
        <time>2018-09-30T08:30:15Z</time>
      </trkpt>
      <trkpt lat="43.15479" lon="0.17194">
        <ele>491</ele>
        <time>2018-09-30T08:30:16Z</time>
      </trkpt>
      <trkpt lat="43.15479" lon="0.17194">
        <ele>491</ele>
        <time>2018-09-30T08:30:17Z</time>
      </trkpt>
      <trkpt lat="43.15479" lon="0.17194">
        <ele>491</ele>
        <time>2018-09-30T08:30:18Z</time>
      </trkpt>
      <trkpt lat="43.15479" lon="0.17194">
        <ele>491</ele>
        <time>2018-09-30T08:30:19Z</time>
      </trkpt>
      <trkpt lat="43.15479" lon="0.17194">
        <ele>491</ele>
        <time>2018-09-30T08:30:20Z</time>
      </trkpt>
      <trkpt lat="43.15479" lon="0.17194">
        <ele>491</ele>
        <time>2018-09-30T08:30:21Z</time>
      </trkpt>
      <trkpt lat="43.15479" lon="0.17194">
        <ele>491</ele>
        <time>2018-09-30T08:30:22Z</time>
      </trkpt>
      <trkpt lat="43.15479" lon="0.17194">
        <ele>491</ele>
        <time>2018-09-30T08:30:23Z</time>
      </trkpt>
      <trkpt lat="43.15479" lon="0.17194">
        <ele>491</ele>
        <time>2018-09-30T08:30:24Z</time>
      </trkpt>
      <trkpt lat="43.15479" lon="0.17194">
        <ele>491</ele>
        <time>2018-09-30T08:30:25Z</time>
      </trkpt>
      <trkpt lat="43.1548" lon="0.17199">
        <ele>491</ele>
        <time>2018-09-30T08:30:26Z</time>
      </trkpt>
      <trkpt lat="43.15481" lon="0.172">
        <ele>493</ele>
        <time>2018-09-30T08:30:27Z</time>
      </trkpt>
      <trkpt lat="43.15481" lon="0.17202">
        <ele>493</ele>
        <time>2018-09-30T08:30:28Z</time>
      </trkpt>
      <trkpt lat="43.15482" lon="0.17203">
        <ele>493</ele>
        <time>2018-09-30T08:30:29Z</time>
      </trkpt>
      <trkpt lat="43.15482" lon="0.17205">
        <ele>494</ele>
        <time>2018-09-30T08:30:30Z</time>
      </trkpt>
      <trkpt lat="43.15483" lon="0.17207">
        <ele>494</ele>
        <time>2018-09-30T08:30:31Z</time>
      </trkpt>
      <trkpt lat="43.15483" lon="0.17208">
        <ele>494</ele>
        <time>2018-09-30T08:30:32Z</time>
      </trkpt>
      <trkpt lat="43.15484" lon="0.1721">
        <ele>494</ele>
        <time>2018-09-30T08:30:33Z</time>
      </trkpt>
      <trkpt lat="43.15484" lon="0.17212">
        <ele>495</ele>
        <time>2018-09-30T08:30:34Z</time>
      </trkpt>
      <trkpt lat="43.15485" lon="0.17213">
        <ele>495</ele>
        <time>2018-09-30T08:30:35Z</time>
      </trkpt>
      <trkpt lat="43.15485" lon="0.17215">
        <ele>495</ele>
        <time>2018-09-30T08:30:36Z</time>
      </trkpt>
      <trkpt lat="43.15486" lon="0.17216">
        <ele>495</ele>
        <time>2018-09-30T08:30:37Z</time>
      </trkpt>
      <trkpt lat="43.15486" lon="0.17217">
        <ele>495</ele>
        <time>2018-09-30T08:30:38Z</time>
      </trkpt>
      <trkpt lat="43.15486" lon="0.17217">
        <ele>495</ele>
        <time>2018-09-30T08:30:39Z</time>
      </trkpt>
      <trkpt lat="43.15485" lon="0.17219">
        <ele>495</ele>
        <time>2018-09-30T08:30:40Z</time>
      </trkpt>
      <trkpt lat="43.15484" lon="0.1722">
        <ele>496</ele>
        <time>2018-09-30T08:30:41Z</time>
      </trkpt>
      <trkpt lat="43.15484" lon="0.17222">
        <ele>496</ele>
        <time>2018-09-30T08:30:42Z</time>
      </trkpt>
      <trkpt lat="43.15484" lon="0.17222">
        <ele>496</ele>
        <time>2018-09-30T08:30:43Z</time>
      </trkpt>
      <trkpt lat="43.15484" lon="0.17222">
        <ele>496</ele>
        <time>2018-09-30T08:30:44Z</time>
      </trkpt>
      <trkpt lat="43.15484" lon="0.17222">
        <ele>497</ele>
        <time>2018-09-30T08:30:45Z</time>
      </trkpt>
      <trkpt lat="43.15484" lon="0.17222">
        <ele>497</ele>
        <time>2018-09-30T08:30:46Z</time>
      </trkpt>
      <trkpt lat="43.15484" lon="0.17222">
        <ele>497</ele>
        <time>2018-09-30T08:30:47Z</time>
      </trkpt>
      <trkpt lat="43.15484" lon="0.17222">
        <ele>497</ele>
        <time>2018-09-30T08:30:48Z</time>
      </trkpt>
      <trkpt lat="43.15484" lon="0.17222">
        <ele>497</ele>
        <time>2018-09-30T08:30:49Z</time>
      </trkpt>
      <trkpt lat="43.15484" lon="0.17222">
        <ele>497</ele>
        <time>2018-09-30T08:30:50Z</time>
      </trkpt>
      <trkpt lat="43.15484" lon="0.17222">
        <ele>497</ele>
        <time>2018-09-30T08:30:51Z</time>
      </trkpt>
      <trkpt lat="43.15484" lon="0.17222">
        <ele>497</ele>
        <time>2018-09-30T08:30:52Z</time>
      </trkpt>
      <trkpt lat="43.15484" lon="0.17222">
        <ele>497</ele>
        <time>2018-09-30T08:30:53Z</time>
      </trkpt>
      <trkpt lat="43.15484" lon="0.17222">
        <ele>497</ele>
        <time>2018-09-30T08:30:54Z</time>
      </trkpt>
      <trkpt lat="43.15484" lon="0.17222">
        <ele>497</ele>
        <time>2018-09-30T08:30:55Z</time>
      </trkpt>
      <trkpt lat="43.15484" lon="0.17222">
        <ele>497</ele>
        <time>2018-09-30T08:30:56Z</time>
      </trkpt>
      <trkpt lat="43.15484" lon="0.17222">
        <ele>497</ele>
        <time>2018-09-30T08:30:57Z</time>
      </trkpt>
      <trkpt lat="43.15484" lon="0.17222">
        <ele>497</ele>
        <time>2018-09-30T08:30:58Z</time>
      </trkpt>
      <trkpt lat="43.15484" lon="0.17222">
        <ele>497</ele>
        <time>2018-09-30T08:30:59Z</time>
      </trkpt>
      <trkpt lat="43.15484" lon="0.17222">
        <ele>497</ele>
        <time>2018-09-30T08:31:00Z</time>
      </trkpt>
      <trkpt lat="43.15484" lon="0.17222">
        <ele>497</ele>
        <time>2018-09-30T08:31:01Z</time>
      </trkpt>
      <trkpt lat="43.15484" lon="0.17222">
        <ele>497</ele>
        <time>2018-09-30T08:31:02Z</time>
      </trkpt>
      <trkpt lat="43.15484" lon="0.17222">
        <ele>497</ele>
        <time>2018-09-30T08:31:03Z</time>
      </trkpt>
      <trkpt lat="43.15484" lon="0.17222">
        <ele>497</ele>
        <time>2018-09-30T08:31:04Z</time>
      </trkpt>
      <trkpt lat="43.15484" lon="0.17222">
        <ele>497</ele>
        <time>2018-09-30T08:31:05Z</time>
      </trkpt>
      <trkpt lat="43.15484" lon="0.17222">
        <ele>497</ele>
        <time>2018-09-30T08:31:06Z</time>
      </trkpt>
      <trkpt lat="43.15484" lon="0.17222">
        <ele>497</ele>
        <time>2018-09-30T08:31:07Z</time>
      </trkpt>
      <trkpt lat="43.15484" lon="0.17222">
        <ele>497</ele>
        <time>2018-09-30T08:31:08Z</time>
      </trkpt>
      <trkpt lat="43.15484" lon="0.17222">
        <ele>497</ele>
        <time>2018-09-30T08:31:09Z</time>
      </trkpt>
      <trkpt lat="43.15484" lon="0.17222">
        <ele>497</ele>
        <time>2018-09-30T08:31:10Z</time>
      </trkpt>
      <trkpt lat="43.15484" lon="0.17222">
        <ele>497</ele>
        <time>2018-09-30T08:31:11Z</time>
      </trkpt>
      <trkpt lat="43.15484" lon="0.17222">
        <ele>497</ele>
        <time>2018-09-30T08:31:12Z</time>
      </trkpt>
      <trkpt lat="43.15484" lon="0.17222">
        <ele>497</ele>
        <time>2018-09-30T08:31:13Z</time>
      </trkpt>
      <trkpt lat="43.15484" lon="0.17222">
        <ele>497</ele>
        <time>2018-09-30T08:31:14Z</time>
      </trkpt>
      <trkpt lat="43.15484" lon="0.17222">
        <ele>497</ele>
        <time>2018-09-30T08:31:15Z</time>
      </trkpt>
      <trkpt lat="43.15484" lon="0.17222">
        <ele>497</ele>
        <time>2018-09-30T08:31:16Z</time>
      </trkpt>
      <trkpt lat="43.15484" lon="0.17222">
        <ele>497</ele>
        <time>2018-09-30T08:31:17Z</time>
      </trkpt>
      <trkpt lat="43.15484" lon="0.17222">
        <ele>497</ele>
        <time>2018-09-30T08:31:18Z</time>
      </trkpt>
      <trkpt lat="43.15484" lon="0.17222">
        <ele>497</ele>
        <time>2018-09-30T08:31:19Z</time>
      </trkpt>
      <trkpt lat="43.15484" lon="0.17222">
        <ele>497</ele>
        <time>2018-09-30T08:31:20Z</time>
      </trkpt>
      <trkpt lat="43.15484" lon="0.17222">
        <ele>497</ele>
        <time>2018-09-30T08:31:21Z</time>
      </trkpt>
      <trkpt lat="43.15484" lon="0.17222">
        <ele>497</ele>
        <time>2018-09-30T08:31:22Z</time>
      </trkpt>
      <trkpt lat="43.15484" lon="0.17222">
        <ele>497</ele>
        <time>2018-09-30T08:31:23Z</time>
      </trkpt>
      <trkpt lat="43.15484" lon="0.17222">
        <ele>497</ele>
        <time>2018-09-30T08:31:24Z</time>
      </trkpt>
      <trkpt lat="43.15484" lon="0.17222">
        <ele>497</ele>
        <time>2018-09-30T08:31:25Z</time>
      </trkpt>
      <trkpt lat="43.15484" lon="0.17222">
        <ele>497</ele>
        <time>2018-09-30T08:31:26Z</time>
      </trkpt>
      <trkpt lat="43.15484" lon="0.17222">
        <ele>497</ele>
        <time>2018-09-30T08:31:27Z</time>
      </trkpt>
      <trkpt lat="43.15484" lon="0.17222">
        <ele>497</ele>
        <time>2018-09-30T08:31:28Z</time>
      </trkpt>
      <trkpt lat="43.15484" lon="0.17222">
        <ele>497</ele>
        <time>2018-09-30T08:31:29Z</time>
      </trkpt>
      <trkpt lat="43.15484" lon="0.17222">
        <ele>497</ele>
        <time>2018-09-30T08:31:30Z</time>
      </trkpt>
      <trkpt lat="43.15484" lon="0.17222">
        <ele>497</ele>
        <time>2018-09-30T08:31:31Z</time>
      </trkpt>
      <trkpt lat="43.15484" lon="0.17222">
        <ele>497</ele>
        <time>2018-09-30T08:31:32Z</time>
      </trkpt>
      <trkpt lat="43.15484" lon="0.17222">
        <ele>497</ele>
        <time>2018-09-30T08:31:33Z</time>
      </trkpt>
      <trkpt lat="43.15484" lon="0.17222">
        <ele>497</ele>
        <time>2018-09-30T08:31:34Z</time>
      </trkpt>
      <trkpt lat="43.15484" lon="0.17222">
        <ele>497</ele>
        <time>2018-09-30T08:31:35Z</time>
      </trkpt>
      <trkpt lat="43.15484" lon="0.17222">
        <ele>497</ele>
        <time>2018-09-30T08:31:36Z</time>
      </trkpt>
      <trkpt lat="43.15484" lon="0.17222">
        <ele>497</ele>
        <time>2018-09-30T08:31:37Z</time>
      </trkpt>
      <trkpt lat="43.15484" lon="0.17222">
        <ele>497</ele>
        <time>2018-09-30T08:31:38Z</time>
      </trkpt>
      <trkpt lat="43.15484" lon="0.17222">
        <ele>497</ele>
        <time>2018-09-30T08:31:39Z</time>
      </trkpt>
      <trkpt lat="43.15484" lon="0.17222">
        <ele>497</ele>
        <time>2018-09-30T08:31:40Z</time>
      </trkpt>
      <trkpt lat="43.15484" lon="0.17222">
        <ele>497</ele>
        <time>2018-09-30T08:31:41Z</time>
      </trkpt>
      <trkpt lat="43.15484" lon="0.17222">
        <ele>497</ele>
        <time>2018-09-30T08:31:42Z</time>
      </trkpt>
      <trkpt lat="43.15484" lon="0.17222">
        <ele>497</ele>
        <time>2018-09-30T08:31:43Z</time>
      </trkpt>
      <trkpt lat="43.15484" lon="0.17222">
        <ele>497</ele>
        <time>2018-09-30T08:31:44Z</time>
      </trkpt>
      <trkpt lat="43.15484" lon="0.17222">
        <ele>497</ele>
        <time>2018-09-30T08:31:45Z</time>
      </trkpt>
      <trkpt lat="43.15484" lon="0.17222">
        <ele>497</ele>
        <time>2018-09-30T08:31:46Z</time>
      </trkpt>
      <trkpt lat="43.15484" lon="0.17222">
        <ele>497</ele>
        <time>2018-09-30T08:31:47Z</time>
      </trkpt>
      <trkpt lat="43.15484" lon="0.17222">
        <ele>497</ele>
        <time>2018-09-30T08:31:48Z</time>
      </trkpt>
      <trkpt lat="43.15484" lon="0.17222">
        <ele>497</ele>
        <time>2018-09-30T08:31:49Z</time>
      </trkpt>
      <trkpt lat="43.15484" lon="0.17222">
        <ele>497</ele>
        <time>2018-09-30T08:31:50Z</time>
      </trkpt>
      <trkpt lat="43.15484" lon="0.17222">
        <ele>497</ele>
        <time>2018-09-30T08:31:51Z</time>
      </trkpt>
      <trkpt lat="43.15484" lon="0.17222">
        <ele>497</ele>
        <time>2018-09-30T08:31:52Z</time>
      </trkpt>
      <trkpt lat="43.15484" lon="0.17222">
        <ele>497</ele>
        <time>2018-09-30T08:31:53Z</time>
      </trkpt>
      <trkpt lat="43.15484" lon="0.17222">
        <ele>497</ele>
        <time>2018-09-30T08:31:54Z</time>
      </trkpt>
      <trkpt lat="43.15484" lon="0.17222">
        <ele>497</ele>
        <time>2018-09-30T08:31:55Z</time>
      </trkpt>
      <trkpt lat="43.15484" lon="0.17222">
        <ele>497</ele>
        <time>2018-09-30T08:31:56Z</time>
      </trkpt>
      <trkpt lat="43.15484" lon="0.17222">
        <ele>497</ele>
        <time>2018-09-30T08:31:57Z</time>
      </trkpt>
      <trkpt lat="43.15484" lon="0.17222">
        <ele>497</ele>
        <time>2018-09-30T08:31:58Z</time>
      </trkpt>
      <trkpt lat="43.15484" lon="0.17221">
        <ele>497</ele>
        <time>2018-09-30T08:31:59Z</time>
      </trkpt>
      <trkpt lat="43.15484" lon="0.17221">
        <ele>497</ele>
        <time>2018-09-30T08:32:00Z</time>
      </trkpt>
      <trkpt lat="43.15484" lon="0.17221">
        <ele>497</ele>
        <time>2018-09-30T08:32:01Z</time>
      </trkpt>
      <trkpt lat="43.15484" lon="0.17221">
        <ele>497</ele>
        <time>2018-09-30T08:32:02Z</time>
      </trkpt>
      <trkpt lat="43.15484" lon="0.17221">
        <ele>497</ele>
        <time>2018-09-30T08:32:03Z</time>
      </trkpt>
      <trkpt lat="43.15484" lon="0.17221">
        <ele>497</ele>
        <time>2018-09-30T08:32:04Z</time>
      </trkpt>
      <trkpt lat="43.15484" lon="0.17221">
        <ele>497</ele>
        <time>2018-09-30T08:32:05Z</time>
      </trkpt>
      <trkpt lat="43.15484" lon="0.17221">
        <ele>497</ele>
        <time>2018-09-30T08:32:06Z</time>
      </trkpt>
      <trkpt lat="43.15484" lon="0.17221">
        <ele>497</ele>
        <time>2018-09-30T08:32:07Z</time>
      </trkpt>
      <trkpt lat="43.15484" lon="0.17221">
        <ele>497</ele>
        <time>2018-09-30T08:32:08Z</time>
      </trkpt>
      <trkpt lat="43.15484" lon="0.17221">
        <ele>497</ele>
        <time>2018-09-30T08:32:09Z</time>
      </trkpt>
      <trkpt lat="43.15484" lon="0.17221">
        <ele>497</ele>
        <time>2018-09-30T08:32:10Z</time>
      </trkpt>
      <trkpt lat="43.15484" lon="0.17221">
        <ele>497</ele>
        <time>2018-09-30T08:32:11Z</time>
      </trkpt>
      <trkpt lat="43.15484" lon="0.17221">
        <ele>497</ele>
        <time>2018-09-30T08:32:12Z</time>
      </trkpt>
      <trkpt lat="43.15484" lon="0.17221">
        <ele>497</ele>
        <time>2018-09-30T08:32:13Z</time>
      </trkpt>
      <trkpt lat="43.15484" lon="0.17221">
        <ele>497</ele>
        <time>2018-09-30T08:32:14Z</time>
      </trkpt>
      <trkpt lat="43.15484" lon="0.17221">
        <ele>497</ele>
        <time>2018-09-30T08:32:15Z</time>
      </trkpt>
      <trkpt lat="43.15484" lon="0.17221">
        <ele>497</ele>
        <time>2018-09-30T08:32:16Z</time>
      </trkpt>
      <trkpt lat="43.15484" lon="0.17221">
        <ele>497</ele>
        <time>2018-09-30T08:32:17Z</time>
      </trkpt>
      <trkpt lat="43.15484" lon="0.17221">
        <ele>497</ele>
        <time>2018-09-30T08:32:18Z</time>
      </trkpt>
      <trkpt lat="43.15484" lon="0.17221">
        <ele>497</ele>
        <time>2018-09-30T08:32:19Z</time>
      </trkpt>
      <trkpt lat="43.15484" lon="0.17221">
        <ele>497</ele>
        <time>2018-09-30T08:32:20Z</time>
      </trkpt>
      <trkpt lat="43.15484" lon="0.17221">
        <ele>497</ele>
        <time>2018-09-30T08:32:21Z</time>
      </trkpt>
      <trkpt lat="43.15484" lon="0.17221">
        <ele>497</ele>
        <time>2018-09-30T08:32:22Z</time>
      </trkpt>
      <trkpt lat="43.15484" lon="0.17221">
        <ele>497</ele>
        <time>2018-09-30T08:32:23Z</time>
      </trkpt>
      <trkpt lat="43.15484" lon="0.17221">
        <ele>498</ele>
        <time>2018-09-30T08:32:24Z</time>
      </trkpt>
      <trkpt lat="43.15484" lon="0.17221">
        <ele>498</ele>
        <time>2018-09-30T08:32:25Z</time>
      </trkpt>
      <trkpt lat="43.15484" lon="0.17221">
        <ele>498</ele>
        <time>2018-09-30T08:32:26Z</time>
      </trkpt>
      <trkpt lat="43.15484" lon="0.17221">
        <ele>498</ele>
        <time>2018-09-30T08:32:27Z</time>
      </trkpt>
      <trkpt lat="43.15484" lon="0.17221">
        <ele>498</ele>
        <time>2018-09-30T08:32:28Z</time>
      </trkpt>
      <trkpt lat="43.15484" lon="0.17221">
        <ele>498</ele>
        <time>2018-09-30T08:32:29Z</time>
      </trkpt>
      <trkpt lat="43.15484" lon="0.17221">
        <ele>498</ele>
        <time>2018-09-30T08:32:30Z</time>
      </trkpt>
      <trkpt lat="43.15484" lon="0.17221">
        <ele>498</ele>
        <time>2018-09-30T08:32:31Z</time>
      </trkpt>
      <trkpt lat="43.15484" lon="0.17221">
        <ele>498</ele>
        <time>2018-09-30T08:32:32Z</time>
      </trkpt>
      <trkpt lat="43.15484" lon="0.17221">
        <ele>498</ele>
        <time>2018-09-30T08:32:33Z</time>
      </trkpt>
      <trkpt lat="43.15484" lon="0.17221">
        <ele>498</ele>
        <time>2018-09-30T08:32:34Z</time>
      </trkpt>
      <trkpt lat="43.15484" lon="0.17221">
        <ele>498</ele>
        <time>2018-09-30T08:32:35Z</time>
      </trkpt>
      <trkpt lat="43.15484" lon="0.17221">
        <ele>498</ele>
        <time>2018-09-30T08:32:36Z</time>
      </trkpt>
      <trkpt lat="43.15484" lon="0.17221">
        <ele>498</ele>
        <time>2018-09-30T08:32:37Z</time>
      </trkpt>
      <trkpt lat="43.15484" lon="0.17221">
        <ele>498</ele>
        <time>2018-09-30T08:32:38Z</time>
      </trkpt>
      <trkpt lat="43.15484" lon="0.17221">
        <ele>498</ele>
        <time>2018-09-30T08:32:39Z</time>
      </trkpt>
      <trkpt lat="43.15484" lon="0.17221">
        <ele>498</ele>
        <time>2018-09-30T08:32:40Z</time>
      </trkpt>
      <trkpt lat="43.15484" lon="0.17221">
        <ele>498</ele>
        <time>2018-09-30T08:32:41Z</time>
      </trkpt>
      <trkpt lat="43.15484" lon="0.17221">
        <ele>498</ele>
        <time>2018-09-30T08:32:42Z</time>
      </trkpt>
      <trkpt lat="43.15484" lon="0.17221">
        <ele>498</ele>
        <time>2018-09-30T08:32:43Z</time>
      </trkpt>
      <trkpt lat="43.15484" lon="0.17221">
        <ele>498</ele>
        <time>2018-09-30T08:32:44Z</time>
      </trkpt>
      <trkpt lat="43.15484" lon="0.17221">
        <ele>498</ele>
        <time>2018-09-30T08:32:45Z</time>
      </trkpt>
      <trkpt lat="43.15484" lon="0.17221">
        <ele>498</ele>
        <time>2018-09-30T08:32:46Z</time>
      </trkpt>
      <trkpt lat="43.15484" lon="0.17221">
        <ele>498</ele>
        <time>2018-09-30T08:32:47Z</time>
      </trkpt>
      <trkpt lat="43.15484" lon="0.17221">
        <ele>498</ele>
        <time>2018-09-30T08:32:48Z</time>
      </trkpt>
      <trkpt lat="43.15484" lon="0.17221">
        <ele>498</ele>
        <time>2018-09-30T08:32:49Z</time>
      </trkpt>
      <trkpt lat="43.15484" lon="0.17221">
        <ele>498</ele>
        <time>2018-09-30T08:32:50Z</time>
      </trkpt>
      <trkpt lat="43.15484" lon="0.17221">
        <ele>498</ele>
        <time>2018-09-30T08:32:51Z</time>
      </trkpt>
      <trkpt lat="43.15484" lon="0.17221">
        <ele>498</ele>
        <time>2018-09-30T08:32:52Z</time>
      </trkpt>
      <trkpt lat="43.15484" lon="0.17221">
        <ele>498</ele>
        <time>2018-09-30T08:32:53Z</time>
      </trkpt>
      <trkpt lat="43.15484" lon="0.17221">
        <ele>498</ele>
        <time>2018-09-30T08:32:54Z</time>
      </trkpt>
      <trkpt lat="43.15484" lon="0.17221">
        <ele>498</ele>
        <time>2018-09-30T08:32:55Z</time>
      </trkpt>
      <trkpt lat="43.15484" lon="0.17221">
        <ele>498</ele>
        <time>2018-09-30T08:32:56Z</time>
      </trkpt>
      <trkpt lat="43.15484" lon="0.17221">
        <ele>498</ele>
        <time>2018-09-30T08:32:57Z</time>
      </trkpt>
      <trkpt lat="43.15484" lon="0.17221">
        <ele>498</ele>
        <time>2018-09-30T08:32:58Z</time>
      </trkpt>
      <trkpt lat="43.15484" lon="0.17221">
        <ele>498</ele>
        <time>2018-09-30T08:32:59Z</time>
      </trkpt>
      <trkpt lat="43.15484" lon="0.17221">
        <ele>498</ele>
        <time>2018-09-30T08:33:00Z</time>
      </trkpt>
      <trkpt lat="43.15484" lon="0.17221">
        <ele>498</ele>
        <time>2018-09-30T08:33:01Z</time>
      </trkpt>
      <trkpt lat="43.15484" lon="0.17221">
        <ele>498</ele>
        <time>2018-09-30T08:33:02Z</time>
      </trkpt>
      <trkpt lat="43.15484" lon="0.17221">
        <ele>498</ele>
        <time>2018-09-30T08:33:03Z</time>
      </trkpt>
      <trkpt lat="43.15484" lon="0.17221">
        <ele>498</ele>
        <time>2018-09-30T08:33:04Z</time>
      </trkpt>
      <trkpt lat="43.15484" lon="0.17221">
        <ele>498</ele>
        <time>2018-09-30T08:33:05Z</time>
      </trkpt>
      <trkpt lat="43.15484" lon="0.17221">
        <ele>498</ele>
        <time>2018-09-30T08:33:06Z</time>
      </trkpt>
      <trkpt lat="43.15484" lon="0.17221">
        <ele>498</ele>
        <time>2018-09-30T08:33:07Z</time>
      </trkpt>
      <trkpt lat="43.15484" lon="0.17221">
        <ele>498</ele>
        <time>2018-09-30T08:33:08Z</time>
      </trkpt>
      <trkpt lat="43.15484" lon="0.17221">
        <ele>498</ele>
        <time>2018-09-30T08:33:09Z</time>
      </trkpt>
      <trkpt lat="43.15484" lon="0.17221">
        <ele>498</ele>
        <time>2018-09-30T08:33:10Z</time>
      </trkpt>
      <trkpt lat="43.15484" lon="0.17221">
        <ele>498</ele>
        <time>2018-09-30T08:33:11Z</time>
      </trkpt>
      <trkpt lat="43.15484" lon="0.17221">
        <ele>498</ele>
        <time>2018-09-30T08:33:12Z</time>
      </trkpt>
      <trkpt lat="43.15484" lon="0.17221">
        <ele>498</ele>
        <time>2018-09-30T08:33:13Z</time>
      </trkpt>
      <trkpt lat="43.15484" lon="0.17221">
        <ele>498</ele>
        <time>2018-09-30T08:33:14Z</time>
      </trkpt>
      <trkpt lat="43.15484" lon="0.17221">
        <ele>498</ele>
        <time>2018-09-30T08:33:15Z</time>
      </trkpt>
      <trkpt lat="43.15484" lon="0.17221">
        <ele>498</ele>
        <time>2018-09-30T08:33:16Z</time>
      </trkpt>
      <trkpt lat="43.15484" lon="0.17221">
        <ele>498</ele>
        <time>2018-09-30T08:33:17Z</time>
      </trkpt>
      <trkpt lat="43.15484" lon="0.17221">
        <ele>498</ele>
        <time>2018-09-30T08:33:18Z</time>
      </trkpt>
      <trkpt lat="43.15484" lon="0.17221">
        <ele>498</ele>
        <time>2018-09-30T08:33:19Z</time>
      </trkpt>
      <trkpt lat="43.15484" lon="0.17221">
        <ele>498</ele>
        <time>2018-09-30T08:33:20Z</time>
      </trkpt>
      <trkpt lat="43.15484" lon="0.17221">
        <ele>498</ele>
        <time>2018-09-30T08:33:21Z</time>
      </trkpt>
      <trkpt lat="43.15484" lon="0.17221">
        <ele>498</ele>
        <time>2018-09-30T08:33:22Z</time>
      </trkpt>
      <trkpt lat="43.15484" lon="0.17221">
        <ele>498</ele>
        <time>2018-09-30T08:33:23Z</time>
      </trkpt>
      <trkpt lat="43.15484" lon="0.17221">
        <ele>498</ele>
        <time>2018-09-30T08:33:24Z</time>
      </trkpt>
      <trkpt lat="43.15484" lon="0.17221">
        <ele>498</ele>
        <time>2018-09-30T08:33:25Z</time>
      </trkpt>
      <trkpt lat="43.15484" lon="0.17221">
        <ele>498</ele>
        <time>2018-09-30T08:33:26Z</time>
      </trkpt>
      <trkpt lat="43.15484" lon="0.17221">
        <ele>498</ele>
        <time>2018-09-30T08:33:27Z</time>
      </trkpt>
      <trkpt lat="43.15484" lon="0.17221">
        <ele>498</ele>
        <time>2018-09-30T08:33:28Z</time>
      </trkpt>
      <trkpt lat="43.15484" lon="0.17221">
        <ele>498</ele>
        <time>2018-09-30T08:33:29Z</time>
      </trkpt>
      <trkpt lat="43.15484" lon="0.17221">
        <ele>498</ele>
        <time>2018-09-30T08:33:30Z</time>
      </trkpt>
      <trkpt lat="43.15484" lon="0.17221">
        <ele>498</ele>
        <time>2018-09-30T08:33:31Z</time>
      </trkpt>
      <trkpt lat="43.15484" lon="0.17221">
        <ele>498</ele>
        <time>2018-09-30T08:33:32Z</time>
      </trkpt>
      <trkpt lat="43.15484" lon="0.17221">
        <ele>498</ele>
        <time>2018-09-30T08:33:33Z</time>
      </trkpt>
      <trkpt lat="43.15484" lon="0.17221">
        <ele>498</ele>
        <time>2018-09-30T08:33:34Z</time>
      </trkpt>
      <trkpt lat="43.15484" lon="0.17221">
        <ele>498</ele>
        <time>2018-09-30T08:33:35Z</time>
      </trkpt>
      <trkpt lat="43.15484" lon="0.17221">
        <ele>498</ele>
        <time>2018-09-30T08:33:36Z</time>
      </trkpt>
      <trkpt lat="43.15484" lon="0.17221">
        <ele>498</ele>
        <time>2018-09-30T08:33:37Z</time>
      </trkpt>
      <trkpt lat="43.15484" lon="0.17221">
        <ele>498</ele>
        <time>2018-09-30T08:33:38Z</time>
      </trkpt>
      <trkpt lat="43.15484" lon="0.17221">
        <ele>498</ele>
        <time>2018-09-30T08:33:39Z</time>
      </trkpt>
      <trkpt lat="43.15484" lon="0.17221">
        <ele>498</ele>
        <time>2018-09-30T08:33:40Z</time>
      </trkpt>
      <trkpt lat="43.15484" lon="0.17221">
        <ele>498</ele>
        <time>2018-09-30T08:33:41Z</time>
      </trkpt>
      <trkpt lat="43.15484" lon="0.17221">
        <ele>498</ele>
        <time>2018-09-30T08:33:42Z</time>
      </trkpt>
      <trkpt lat="43.15484" lon="0.17221">
        <ele>498</ele>
        <time>2018-09-30T08:33:43Z</time>
      </trkpt>
      <trkpt lat="43.15484" lon="0.17221">
        <ele>498</ele>
        <time>2018-09-30T08:33:44Z</time>
      </trkpt>
      <trkpt lat="43.15484" lon="0.17221">
        <ele>498</ele>
        <time>2018-09-30T08:33:45Z</time>
      </trkpt>
      <trkpt lat="43.15484" lon="0.17221">
        <ele>498</ele>
        <time>2018-09-30T08:33:46Z</time>
      </trkpt>
      <trkpt lat="43.15484" lon="0.17221">
        <ele>498</ele>
        <time>2018-09-30T08:33:47Z</time>
      </trkpt>
      <trkpt lat="43.15484" lon="0.17221">
        <ele>498</ele>
        <time>2018-09-30T08:33:48Z</time>
      </trkpt>
      <trkpt lat="43.15484" lon="0.17221">
        <ele>498</ele>
        <time>2018-09-30T08:33:49Z</time>
      </trkpt>
      <trkpt lat="43.15484" lon="0.17221">
        <ele>498</ele>
        <time>2018-09-30T08:33:50Z</time>
      </trkpt>
      <trkpt lat="43.15484" lon="0.17221">
        <ele>498</ele>
        <time>2018-09-30T08:33:51Z</time>
      </trkpt>
      <trkpt lat="43.15484" lon="0.17221">
        <ele>498</ele>
        <time>2018-09-30T08:33:52Z</time>
      </trkpt>
      <trkpt lat="43.15484" lon="0.17221">
        <ele>498</ele>
        <time>2018-09-30T08:33:53Z</time>
      </trkpt>
      <trkpt lat="43.15484" lon="0.17221">
        <ele>498</ele>
        <time>2018-09-30T08:33:54Z</time>
      </trkpt>
      <trkpt lat="43.15484" lon="0.17221">
        <ele>498</ele>
        <time>2018-09-30T08:33:55Z</time>
      </trkpt>
      <trkpt lat="43.15484" lon="0.17221">
        <ele>498</ele>
        <time>2018-09-30T08:33:56Z</time>
      </trkpt>
      <trkpt lat="43.15484" lon="0.17221">
        <ele>498</ele>
        <time>2018-09-30T08:33:57Z</time>
      </trkpt>
      <trkpt lat="43.15484" lon="0.17221">
        <ele>498</ele>
        <time>2018-09-30T08:33:58Z</time>
      </trkpt>
      <trkpt lat="43.15484" lon="0.17221">
        <ele>498</ele>
        <time>2018-09-30T08:33:59Z</time>
      </trkpt>
      <trkpt lat="43.15484" lon="0.17221">
        <ele>498</ele>
        <time>2018-09-30T08:34:00Z</time>
      </trkpt>
      <trkpt lat="43.15484" lon="0.17221">
        <ele>498</ele>
        <time>2018-09-30T08:34:01Z</time>
      </trkpt>
      <trkpt lat="43.15484" lon="0.17221">
        <ele>498</ele>
        <time>2018-09-30T08:34:02Z</time>
      </trkpt>
      <trkpt lat="43.15484" lon="0.17221">
        <ele>498</ele>
        <time>2018-09-30T08:34:03Z</time>
      </trkpt>
      <trkpt lat="43.15484" lon="0.17221">
        <ele>498</ele>
        <time>2018-09-30T08:34:04Z</time>
      </trkpt>
      <trkpt lat="43.15484" lon="0.17221">
        <ele>498</ele>
        <time>2018-09-30T08:34:05Z</time>
      </trkpt>
      <trkpt lat="43.15484" lon="0.17221">
        <ele>498</ele>
        <time>2018-09-30T08:34:06Z</time>
      </trkpt>
      <trkpt lat="43.15484" lon="0.17221">
        <ele>498</ele>
        <time>2018-09-30T08:34:07Z</time>
      </trkpt>
      <trkpt lat="43.15484" lon="0.17221">
        <ele>498</ele>
        <time>2018-09-30T08:34:08Z</time>
      </trkpt>
      <trkpt lat="43.15484" lon="0.17221">
        <ele>498</ele>
        <time>2018-09-30T08:34:09Z</time>
      </trkpt>
      <trkpt lat="43.15484" lon="0.17221">
        <ele>498</ele>
        <time>2018-09-30T08:34:10Z</time>
      </trkpt>
      <trkpt lat="43.15484" lon="0.17221">
        <ele>498</ele>
        <time>2018-09-30T08:34:11Z</time>
      </trkpt>
      <trkpt lat="43.15484" lon="0.17221">
        <ele>498</ele>
        <time>2018-09-30T08:34:12Z</time>
      </trkpt>
      <trkpt lat="43.15484" lon="0.17221">
        <ele>498</ele>
        <time>2018-09-30T08:34:13Z</time>
      </trkpt>
      <trkpt lat="43.15484" lon="0.17221">
        <ele>498</ele>
        <time>2018-09-30T08:34:14Z</time>
      </trkpt>
      <trkpt lat="43.15484" lon="0.17221">
        <ele>498</ele>
        <time>2018-09-30T08:34:15Z</time>
      </trkpt>
      <trkpt lat="43.15484" lon="0.17221">
        <ele>498</ele>
        <time>2018-09-30T08:34:16Z</time>
      </trkpt>
      <trkpt lat="43.15484" lon="0.17221">
        <ele>498</ele>
        <time>2018-09-30T08:34:17Z</time>
      </trkpt>
      <trkpt lat="43.15484" lon="0.17221">
        <ele>498</ele>
        <time>2018-09-30T08:34:18Z</time>
      </trkpt>
      <trkpt lat="43.15484" lon="0.17221">
        <ele>498</ele>
        <time>2018-09-30T08:34:19Z</time>
      </trkpt>
      <trkpt lat="43.15484" lon="0.17221">
        <ele>498</ele>
        <time>2018-09-30T08:34:20Z</time>
      </trkpt>
      <trkpt lat="43.15484" lon="0.17221">
        <ele>498</ele>
        <time>2018-09-30T08:34:21Z</time>
      </trkpt>
      <trkpt lat="43.15484" lon="0.17221">
        <ele>498</ele>
        <time>2018-09-30T08:34:22Z</time>
      </trkpt>
      <trkpt lat="43.15484" lon="0.17221">
        <ele>498</ele>
        <time>2018-09-30T08:34:23Z</time>
      </trkpt>
      <trkpt lat="43.15484" lon="0.17221">
        <ele>498</ele>
        <time>2018-09-30T08:34:24Z</time>
      </trkpt>
      <trkpt lat="43.15484" lon="0.17221">
        <ele>498</ele>
        <time>2018-09-30T08:34:25Z</time>
      </trkpt>
      <trkpt lat="43.15484" lon="0.17221">
        <ele>498</ele>
        <time>2018-09-30T08:34:26Z</time>
      </trkpt>
      <trkpt lat="43.15484" lon="0.17221">
        <ele>498</ele>
        <time>2018-09-30T08:34:27Z</time>
      </trkpt>
      <trkpt lat="43.15484" lon="0.17221">
        <ele>498</ele>
        <time>2018-09-30T08:34:28Z</time>
      </trkpt>
      <trkpt lat="43.15484" lon="0.17221">
        <ele>498</ele>
        <time>2018-09-30T08:34:29Z</time>
      </trkpt>
      <trkpt lat="43.15484" lon="0.17221">
        <ele>498</ele>
        <time>2018-09-30T08:34:30Z</time>
      </trkpt>
      <trkpt lat="43.15484" lon="0.17221">
        <ele>498</ele>
        <time>2018-09-30T08:34:31Z</time>
      </trkpt>
      <trkpt lat="43.15484" lon="0.17221">
        <ele>498</ele>
        <time>2018-09-30T08:34:32Z</time>
      </trkpt>
      <trkpt lat="43.15484" lon="0.17221">
        <ele>498</ele>
        <time>2018-09-30T08:34:33Z</time>
      </trkpt>
      <trkpt lat="43.15484" lon="0.17221">
        <ele>498</ele>
        <time>2018-09-30T08:34:34Z</time>
      </trkpt>
      <trkpt lat="43.15484" lon="0.17221">
        <ele>498</ele>
        <time>2018-09-30T08:34:35Z</time>
      </trkpt>
      <trkpt lat="43.15484" lon="0.17221">
        <ele>498</ele>
        <time>2018-09-30T08:34:36Z</time>
      </trkpt>
      <trkpt lat="43.15484" lon="0.17221">
        <ele>498</ele>
        <time>2018-09-30T08:34:37Z</time>
      </trkpt>
      <trkpt lat="43.15484" lon="0.17221">
        <ele>498</ele>
        <time>2018-09-30T08:34:38Z</time>
      </trkpt>
      <trkpt lat="43.15484" lon="0.17221">
        <ele>498</ele>
        <time>2018-09-30T08:34:39Z</time>
      </trkpt>
      <trkpt lat="43.15484" lon="0.17221">
        <ele>498</ele>
        <time>2018-09-30T08:34:40Z</time>
      </trkpt>
      <trkpt lat="43.15484" lon="0.17221">
        <ele>498</ele>
        <time>2018-09-30T08:34:41Z</time>
      </trkpt>
      <trkpt lat="43.15484" lon="0.17221">
        <ele>498</ele>
        <time>2018-09-30T08:34:42Z</time>
      </trkpt>
      <trkpt lat="43.15484" lon="0.17221">
        <ele>498</ele>
        <time>2018-09-30T08:34:43Z</time>
      </trkpt>
      <trkpt lat="43.15484" lon="0.17221">
        <ele>498</ele>
        <time>2018-09-30T08:34:44Z</time>
      </trkpt>
      <trkpt lat="43.15484" lon="0.17221">
        <ele>498</ele>
        <time>2018-09-30T08:34:45Z</time>
      </trkpt>
      <trkpt lat="43.15484" lon="0.17221">
        <ele>498</ele>
        <time>2018-09-30T08:34:46Z</time>
      </trkpt>
      <trkpt lat="43.15484" lon="0.17221">
        <ele>498</ele>
        <time>2018-09-30T08:34:47Z</time>
      </trkpt>
      <trkpt lat="43.15484" lon="0.17221">
        <ele>498</ele>
        <time>2018-09-30T08:34:48Z</time>
      </trkpt>
      <trkpt lat="43.15484" lon="0.17221">
        <ele>498</ele>
        <time>2018-09-30T08:34:49Z</time>
      </trkpt>
      <trkpt lat="43.15484" lon="0.17221">
        <ele>498</ele>
        <time>2018-09-30T08:34:50Z</time>
      </trkpt>
      <trkpt lat="43.15484" lon="0.17221">
        <ele>498</ele>
        <time>2018-09-30T08:34:51Z</time>
      </trkpt>
      <trkpt lat="43.15484" lon="0.17221">
        <ele>498</ele>
        <time>2018-09-30T08:34:52Z</time>
      </trkpt>
      <trkpt lat="43.15484" lon="0.17221">
        <ele>498</ele>
        <time>2018-09-30T08:34:53Z</time>
      </trkpt>
      <trkpt lat="43.15484" lon="0.17221">
        <ele>498</ele>
        <time>2018-09-30T08:34:54Z</time>
      </trkpt>
      <trkpt lat="43.15484" lon="0.17221">
        <ele>498</ele>
        <time>2018-09-30T08:34:55Z</time>
      </trkpt>
      <trkpt lat="43.15484" lon="0.17221">
        <ele>498</ele>
        <time>2018-09-30T08:34:56Z</time>
      </trkpt>
      <trkpt lat="43.15484" lon="0.17221">
        <ele>498</ele>
        <time>2018-09-30T08:34:57Z</time>
      </trkpt>
      <trkpt lat="43.15484" lon="0.17221">
        <ele>498</ele>
        <time>2018-09-30T08:34:58Z</time>
      </trkpt>
      <trkpt lat="43.15484" lon="0.17221">
        <ele>498</ele>
        <time>2018-09-30T08:34:59Z</time>
      </trkpt>
      <trkpt lat="43.15484" lon="0.17221">
        <ele>498</ele>
        <time>2018-09-30T08:35:00Z</time>
      </trkpt>
      <trkpt lat="43.15484" lon="0.17221">
        <ele>498</ele>
        <time>2018-09-30T08:35:01Z</time>
      </trkpt>
      <trkpt lat="43.15484" lon="0.17221">
        <ele>498</ele>
        <time>2018-09-30T08:35:02Z</time>
      </trkpt>
      <trkpt lat="43.15484" lon="0.17221">
        <ele>498</ele>
        <time>2018-09-30T08:35:03Z</time>
      </trkpt>
      <trkpt lat="43.15484" lon="0.17221">
        <ele>498</ele>
        <time>2018-09-30T08:35:04Z</time>
      </trkpt>
      <trkpt lat="43.15484" lon="0.17221">
        <ele>498</ele>
        <time>2018-09-30T08:35:05Z</time>
      </trkpt>
      <trkpt lat="43.15484" lon="0.17221">
        <ele>498</ele>
        <time>2018-09-30T08:35:06Z</time>
      </trkpt>
      <trkpt lat="43.15484" lon="0.17221">
        <ele>498</ele>
        <time>2018-09-30T08:35:07Z</time>
      </trkpt>
      <trkpt lat="43.15484" lon="0.17221">
        <ele>498</ele>
        <time>2018-09-30T08:35:08Z</time>
      </trkpt>
      <trkpt lat="43.15484" lon="0.17221">
        <ele>498</ele>
        <time>2018-09-30T08:35:09Z</time>
      </trkpt>
      <trkpt lat="43.15484" lon="0.17221">
        <ele>498</ele>
        <time>2018-09-30T08:35:10Z</time>
      </trkpt>
      <trkpt lat="43.15484" lon="0.17221">
        <ele>498</ele>
        <time>2018-09-30T08:35:11Z</time>
      </trkpt>
      <trkpt lat="43.15484" lon="0.17221">
        <ele>498</ele>
        <time>2018-09-30T08:35:12Z</time>
      </trkpt>
      <trkpt lat="43.15484" lon="0.17221">
        <ele>498</ele>
        <time>2018-09-30T08:35:13Z</time>
      </trkpt>
      <trkpt lat="43.15484" lon="0.17221">
        <ele>498</ele>
        <time>2018-09-30T08:35:14Z</time>
      </trkpt>
      <trkpt lat="43.15484" lon="0.17221">
        <ele>498</ele>
        <time>2018-09-30T08:35:15Z</time>
      </trkpt>
      <trkpt lat="43.15484" lon="0.17221">
        <ele>498</ele>
        <time>2018-09-30T08:35:16Z</time>
      </trkpt>
      <trkpt lat="43.15484" lon="0.17221">
        <ele>498</ele>
        <time>2018-09-30T08:35:17Z</time>
      </trkpt>
      <trkpt lat="43.15484" lon="0.17221">
        <ele>498</ele>
        <time>2018-09-30T08:35:18Z</time>
      </trkpt>
      <trkpt lat="43.15484" lon="0.17221">
        <ele>498</ele>
        <time>2018-09-30T08:35:19Z</time>
      </trkpt>
      <trkpt lat="43.15484" lon="0.17221">
        <ele>498</ele>
        <time>2018-09-30T08:35:20Z</time>
      </trkpt>
      <trkpt lat="43.15484" lon="0.17221">
        <ele>498</ele>
        <time>2018-09-30T08:35:21Z</time>
      </trkpt>
      <trkpt lat="43.15484" lon="0.17221">
        <ele>498</ele>
        <time>2018-09-30T08:35:22Z</time>
      </trkpt>
      <trkpt lat="43.15484" lon="0.17221">
        <ele>498</ele>
        <time>2018-09-30T08:35:23Z</time>
      </trkpt>
      <trkpt lat="43.15484" lon="0.17221">
        <ele>498</ele>
        <time>2018-09-30T08:35:24Z</time>
      </trkpt>
      <trkpt lat="43.15484" lon="0.17221">
        <ele>498</ele>
        <time>2018-09-30T08:35:25Z</time>
      </trkpt>
      <trkpt lat="43.15484" lon="0.17221">
        <ele>498</ele>
        <time>2018-09-30T08:35:26Z</time>
      </trkpt>
      <trkpt lat="43.15484" lon="0.17221">
        <ele>498</ele>
        <time>2018-09-30T08:35:27Z</time>
      </trkpt>
      <trkpt lat="43.15484" lon="0.17221">
        <ele>498</ele>
        <time>2018-09-30T08:35:28Z</time>
      </trkpt>
      <trkpt lat="43.15484" lon="0.17221">
        <ele>498</ele>
        <time>2018-09-30T08:35:29Z</time>
      </trkpt>
      <trkpt lat="43.15484" lon="0.17221">
        <ele>498</ele>
        <time>2018-09-30T08:35:30Z</time>
      </trkpt>
      <trkpt lat="43.15484" lon="0.17221">
        <ele>498</ele>
        <time>2018-09-30T08:35:31Z</time>
      </trkpt>
      <trkpt lat="43.15484" lon="0.17221">
        <ele>498</ele>
        <time>2018-09-30T08:35:32Z</time>
      </trkpt>
      <trkpt lat="43.15484" lon="0.17221">
        <ele>498</ele>
        <time>2018-09-30T08:35:33Z</time>
      </trkpt>
      <trkpt lat="43.15484" lon="0.17221">
        <ele>498</ele>
        <time>2018-09-30T08:35:34Z</time>
      </trkpt>
      <trkpt lat="43.15484" lon="0.17221">
        <ele>498</ele>
        <time>2018-09-30T08:35:35Z</time>
      </trkpt>
      <trkpt lat="43.15484" lon="0.17221">
        <ele>498</ele>
        <time>2018-09-30T08:35:36Z</time>
      </trkpt>
      <trkpt lat="43.15484" lon="0.17221">
        <ele>498</ele>
        <time>2018-09-30T08:35:37Z</time>
      </trkpt>
      <trkpt lat="43.15484" lon="0.17221">
        <ele>498</ele>
        <time>2018-09-30T08:35:38Z</time>
      </trkpt>
      <trkpt lat="43.15484" lon="0.17221">
        <ele>498</ele>
        <time>2018-09-30T08:35:39Z</time>
      </trkpt>
      <trkpt lat="43.15484" lon="0.17221">
        <ele>498</ele>
        <time>2018-09-30T08:35:40Z</time>
      </trkpt>
      <trkpt lat="43.15484" lon="0.17221">
        <ele>498</ele>
        <time>2018-09-30T08:35:41Z</time>
      </trkpt>
      <trkpt lat="43.15484" lon="0.17221">
        <ele>498</ele>
        <time>2018-09-30T08:35:42Z</time>
      </trkpt>
      <trkpt lat="43.15484" lon="0.17221">
        <ele>498</ele>
        <time>2018-09-30T08:35:43Z</time>
      </trkpt>
      <trkpt lat="43.15484" lon="0.17221">
        <ele>498</ele>
        <time>2018-09-30T08:35:44Z</time>
      </trkpt>
      <trkpt lat="43.15484" lon="0.17221">
        <ele>498</ele>
        <time>2018-09-30T08:35:45Z</time>
      </trkpt>
      <trkpt lat="43.15485" lon="0.17221">
        <ele>498</ele>
        <time>2018-09-30T08:35:46Z</time>
      </trkpt>
      <trkpt lat="43.15485" lon="0.17221">
        <ele>498</ele>
        <time>2018-09-30T08:35:47Z</time>
      </trkpt>
      <trkpt lat="43.15485" lon="0.17221">
        <ele>498</ele>
        <time>2018-09-30T08:35:48Z</time>
      </trkpt>
      <trkpt lat="43.15485" lon="0.17221">
        <ele>498</ele>
        <time>2018-09-30T08:35:49Z</time>
      </trkpt>
      <trkpt lat="43.15485" lon="0.17221">
        <ele>498</ele>
        <time>2018-09-30T08:35:50Z</time>
      </trkpt>
      <trkpt lat="43.15485" lon="0.17221">
        <ele>498</ele>
        <time>2018-09-30T08:35:51Z</time>
      </trkpt>
      <trkpt lat="43.15485" lon="0.17221">
        <ele>498</ele>
        <time>2018-09-30T08:35:52Z</time>
      </trkpt>
      <trkpt lat="43.15485" lon="0.17221">
        <ele>498</ele>
        <time>2018-09-30T08:35:53Z</time>
      </trkpt>
      <trkpt lat="43.15485" lon="0.17221">
        <ele>498</ele>
        <time>2018-09-30T08:35:54Z</time>
      </trkpt>
      <trkpt lat="43.15485" lon="0.17221">
        <ele>498</ele>
        <time>2018-09-30T08:35:55Z</time>
      </trkpt>
      <trkpt lat="43.15485" lon="0.17221">
        <ele>498</ele>
        <time>2018-09-30T08:35:56Z</time>
      </trkpt>
      <trkpt lat="43.15485" lon="0.17221">
        <ele>498</ele>
        <time>2018-09-30T08:35:57Z</time>
      </trkpt>
      <trkpt lat="43.15485" lon="0.17221">
        <ele>498</ele>
        <time>2018-09-30T08:35:58Z</time>
      </trkpt>
      <trkpt lat="43.15485" lon="0.17221">
        <ele>498</ele>
        <time>2018-09-30T08:35:59Z</time>
      </trkpt>
      <trkpt lat="43.15485" lon="0.17221">
        <ele>498</ele>
        <time>2018-09-30T08:36:00Z</time>
      </trkpt>
      <trkpt lat="43.15485" lon="0.17221">
        <ele>498</ele>
        <time>2018-09-30T08:36:01Z</time>
      </trkpt>
      <trkpt lat="43.15485" lon="0.17221">
        <ele>498</ele>
        <time>2018-09-30T08:36:02Z</time>
      </trkpt>
      <trkpt lat="43.15485" lon="0.17221">
        <ele>498</ele>
        <time>2018-09-30T08:36:03Z</time>
      </trkpt>
      <trkpt lat="43.15485" lon="0.17221">
        <ele>498</ele>
        <time>2018-09-30T08:36:04Z</time>
      </trkpt>
      <trkpt lat="43.15485" lon="0.17221">
        <ele>498</ele>
        <time>2018-09-30T08:36:05Z</time>
      </trkpt>
      <trkpt lat="43.15485" lon="0.17221">
        <ele>498</ele>
        <time>2018-09-30T08:36:06Z</time>
      </trkpt>
      <trkpt lat="43.15485" lon="0.17221">
        <ele>498</ele>
        <time>2018-09-30T08:36:07Z</time>
      </trkpt>
      <trkpt lat="43.15485" lon="0.17221">
        <ele>498</ele>
        <time>2018-09-30T08:36:08Z</time>
      </trkpt>
      <trkpt lat="43.15485" lon="0.17221">
        <ele>498</ele>
        <time>2018-09-30T08:36:09Z</time>
      </trkpt>
      <trkpt lat="43.15485" lon="0.17221">
        <ele>498</ele>
        <time>2018-09-30T08:36:10Z</time>
      </trkpt>
      <trkpt lat="43.15485" lon="0.17221">
        <ele>498</ele>
        <time>2018-09-30T08:36:11Z</time>
      </trkpt>
      <trkpt lat="43.15485" lon="0.17221">
        <ele>498</ele>
        <time>2018-09-30T08:36:12Z</time>
      </trkpt>
      <trkpt lat="43.15485" lon="0.17221">
        <ele>498</ele>
        <time>2018-09-30T08:36:13Z</time>
      </trkpt>
      <trkpt lat="43.15485" lon="0.17221">
        <ele>498</ele>
        <time>2018-09-30T08:36:14Z</time>
      </trkpt>
      <trkpt lat="43.15485" lon="0.17221">
        <ele>498</ele>
        <time>2018-09-30T08:36:15Z</time>
      </trkpt>
      <trkpt lat="43.15485" lon="0.17221">
        <ele>498</ele>
        <time>2018-09-30T08:36:16Z</time>
      </trkpt>
      <trkpt lat="43.15485" lon="0.17221">
        <ele>498</ele>
        <time>2018-09-30T08:36:17Z</time>
      </trkpt>
      <trkpt lat="43.15485" lon="0.17221">
        <ele>498</ele>
        <time>2018-09-30T08:36:18Z</time>
      </trkpt>
      <trkpt lat="43.15485" lon="0.17221">
        <ele>498</ele>
        <time>2018-09-30T08:36:19Z</time>
      </trkpt>
      <trkpt lat="43.15485" lon="0.17221">
        <ele>498</ele>
        <time>2018-09-30T08:36:20Z</time>
      </trkpt>
      <trkpt lat="43.15485" lon="0.17221">
        <ele>498</ele>
        <time>2018-09-30T08:36:21Z</time>
      </trkpt>
      <trkpt lat="43.15485" lon="0.17221">
        <ele>498</ele>
        <time>2018-09-30T08:36:22Z</time>
      </trkpt>
      <trkpt lat="43.15485" lon="0.17221">
        <ele>498</ele>
        <time>2018-09-30T08:36:23Z</time>
      </trkpt>
      <trkpt lat="43.15485" lon="0.17221">
        <ele>498</ele>
        <time>2018-09-30T08:36:24Z</time>
      </trkpt>
      <trkpt lat="43.15485" lon="0.17221">
        <ele>498</ele>
        <time>2018-09-30T08:36:25Z</time>
      </trkpt>
      <trkpt lat="43.15485" lon="0.17221">
        <ele>498</ele>
        <time>2018-09-30T08:36:26Z</time>
      </trkpt>
      <trkpt lat="43.15485" lon="0.17221">
        <ele>498</ele>
        <time>2018-09-30T08:36:27Z</time>
      </trkpt>
      <trkpt lat="43.15485" lon="0.17221">
        <ele>498</ele>
        <time>2018-09-30T08:36:28Z</time>
      </trkpt>
      <trkpt lat="43.15485" lon="0.17221">
        <ele>498</ele>
        <time>2018-09-30T08:36:29Z</time>
      </trkpt>
      <trkpt lat="43.15485" lon="0.17221">
        <ele>498</ele>
        <time>2018-09-30T08:36:30Z</time>
      </trkpt>
      <trkpt lat="43.15485" lon="0.17221">
        <ele>498</ele>
        <time>2018-09-30T08:36:31Z</time>
      </trkpt>
      <trkpt lat="43.15485" lon="0.17221">
        <ele>498</ele>
        <time>2018-09-30T08:36:32Z</time>
      </trkpt>
      <trkpt lat="43.15485" lon="0.17221">
        <ele>498</ele>
        <time>2018-09-30T08:36:33Z</time>
      </trkpt>
      <trkpt lat="43.15485" lon="0.17221">
        <ele>498</ele>
        <time>2018-09-30T08:36:34Z</time>
      </trkpt>
      <trkpt lat="43.15485" lon="0.17221">
        <ele>498</ele>
        <time>2018-09-30T08:36:35Z</time>
      </trkpt>
      <trkpt lat="43.15485" lon="0.17221">
        <ele>498</ele>
        <time>2018-09-30T08:36:36Z</time>
      </trkpt>
      <trkpt lat="43.15485" lon="0.17221">
        <ele>498</ele>
        <time>2018-09-30T08:36:37Z</time>
      </trkpt>
      <trkpt lat="43.15485" lon="0.17221">
        <ele>498</ele>
        <time>2018-09-30T08:36:38Z</time>
      </trkpt>
      <trkpt lat="43.15485" lon="0.17221">
        <ele>498</ele>
        <time>2018-09-30T08:36:39Z</time>
      </trkpt>
      <trkpt lat="43.15485" lon="0.17221">
        <ele>498</ele>
        <time>2018-09-30T08:36:40Z</time>
      </trkpt>
      <trkpt lat="43.15485" lon="0.17221">
        <ele>498</ele>
        <time>2018-09-30T08:36:41Z</time>
      </trkpt>
      <trkpt lat="43.15485" lon="0.17221">
        <ele>498</ele>
        <time>2018-09-30T08:36:42Z</time>
      </trkpt>
      <trkpt lat="43.15485" lon="0.17221">
        <ele>498</ele>
        <time>2018-09-30T08:36:43Z</time>
      </trkpt>
      <trkpt lat="43.15485" lon="0.17221">
        <ele>498</ele>
        <time>2018-09-30T08:36:44Z</time>
      </trkpt>
      <trkpt lat="43.15485" lon="0.17221">
        <ele>498</ele>
        <time>2018-09-30T08:36:45Z</time>
      </trkpt>
      <trkpt lat="43.15485" lon="0.17221">
        <ele>498</ele>
        <time>2018-09-30T08:36:46Z</time>
      </trkpt>
      <trkpt lat="43.15485" lon="0.17221">
        <ele>498</ele>
        <time>2018-09-30T08:36:47Z</time>
      </trkpt>
      <trkpt lat="43.15485" lon="0.17221">
        <ele>498</ele>
        <time>2018-09-30T08:36:48Z</time>
      </trkpt>
      <trkpt lat="43.15485" lon="0.17221">
        <ele>498</ele>
        <time>2018-09-30T08:36:49Z</time>
      </trkpt>
      <trkpt lat="43.15485" lon="0.17221">
        <ele>498</ele>
        <time>2018-09-30T08:36:50Z</time>
      </trkpt>
      <trkpt lat="43.15485" lon="0.17221">
        <ele>498</ele>
        <time>2018-09-30T08:36:51Z</time>
      </trkpt>
      <trkpt lat="43.15485" lon="0.17221">
        <ele>498</ele>
        <time>2018-09-30T08:36:52Z</time>
      </trkpt>
      <trkpt lat="43.15485" lon="0.17221">
        <ele>499</ele>
        <time>2018-09-30T08:36:53Z</time>
      </trkpt>
      <trkpt lat="43.15485" lon="0.17221">
        <ele>499</ele>
        <time>2018-09-30T08:36:54Z</time>
      </trkpt>
      <trkpt lat="43.15485" lon="0.17221">
        <ele>499</ele>
        <time>2018-09-30T08:36:55Z</time>
      </trkpt>
      <trkpt lat="43.15485" lon="0.17221">
        <ele>499</ele>
        <time>2018-09-30T08:36:56Z</time>
      </trkpt>
      <trkpt lat="43.15485" lon="0.17221">
        <ele>499</ele>
        <time>2018-09-30T08:36:57Z</time>
      </trkpt>
      <trkpt lat="43.15485" lon="0.17221">
        <ele>499</ele>
        <time>2018-09-30T08:36:58Z</time>
      </trkpt>
      <trkpt lat="43.15485" lon="0.17221">
        <ele>499</ele>
        <time>2018-09-30T08:36:59Z</time>
      </trkpt>
      <trkpt lat="43.15485" lon="0.17221">
        <ele>499</ele>
        <time>2018-09-30T08:37:00Z</time>
      </trkpt>
      <trkpt lat="43.15485" lon="0.17221">
        <ele>499</ele>
        <time>2018-09-30T08:37:01Z</time>
      </trkpt>
      <trkpt lat="43.15485" lon="0.17221">
        <ele>499</ele>
        <time>2018-09-30T08:37:02Z</time>
      </trkpt>
      <trkpt lat="43.15485" lon="0.17221">
        <ele>499</ele>
        <time>2018-09-30T08:37:03Z</time>
      </trkpt>
      <trkpt lat="43.15485" lon="0.17221">
        <ele>499</ele>
        <time>2018-09-30T08:37:04Z</time>
      </trkpt>
      <trkpt lat="43.15485" lon="0.17221">
        <ele>499</ele>
        <time>2018-09-30T08:37:05Z</time>
      </trkpt>
      <trkpt lat="43.15485" lon="0.17221">
        <ele>499</ele>
        <time>2018-09-30T08:37:06Z</time>
      </trkpt>
      <trkpt lat="43.15485" lon="0.17221">
        <ele>499</ele>
        <time>2018-09-30T08:37:07Z</time>
      </trkpt>
      <trkpt lat="43.15485" lon="0.17221">
        <ele>499</ele>
        <time>2018-09-30T08:37:08Z</time>
      </trkpt>
      <trkpt lat="43.15485" lon="0.17221">
        <ele>499</ele>
        <time>2018-09-30T08:37:09Z</time>
      </trkpt>
      <trkpt lat="43.15485" lon="0.17221">
        <ele>499</ele>
        <time>2018-09-30T08:37:10Z</time>
      </trkpt>
      <trkpt lat="43.15485" lon="0.17221">
        <ele>499</ele>
        <time>2018-09-30T08:37:11Z</time>
      </trkpt>
      <trkpt lat="43.15485" lon="0.17221">
        <ele>499</ele>
        <time>2018-09-30T08:37:12Z</time>
      </trkpt>
      <trkpt lat="43.15485" lon="0.17221">
        <ele>499</ele>
        <time>2018-09-30T08:37:13Z</time>
      </trkpt>
      <trkpt lat="43.15485" lon="0.17221">
        <ele>499</ele>
        <time>2018-09-30T08:37:14Z</time>
      </trkpt>
      <trkpt lat="43.15485" lon="0.17221">
        <ele>499</ele>
        <time>2018-09-30T08:37:15Z</time>
      </trkpt>
      <trkpt lat="43.15486" lon="0.17222">
        <ele>499</ele>
        <time>2018-09-30T08:37:16Z</time>
      </trkpt>
      <trkpt lat="43.15487" lon="0.17223">
        <ele>499</ele>
        <time>2018-09-30T08:37:17Z</time>
      </trkpt>
      <trkpt lat="43.15487" lon="0.17224">
        <ele>499</ele>
        <time>2018-09-30T08:37:18Z</time>
      </trkpt>
      <trkpt lat="43.15488" lon="0.17224">
        <ele>499</ele>
        <time>2018-09-30T08:37:19Z</time>
      </trkpt>
      <trkpt lat="43.15488" lon="0.17226">
        <ele>499</ele>
        <time>2018-09-30T08:37:20Z</time>
      </trkpt>
      <trkpt lat="43.15489" lon="0.17228">
        <ele>500</ele>
        <time>2018-09-30T08:37:21Z</time>
      </trkpt>
      <trkpt lat="43.15489" lon="0.17231">
        <ele>500</ele>
        <time>2018-09-30T08:37:22Z</time>
      </trkpt>
      <trkpt lat="43.15489" lon="0.17233">
        <ele>500</ele>
        <time>2018-09-30T08:37:23Z</time>
      </trkpt>
      <trkpt lat="43.1549" lon="0.17237">
        <ele>500</ele>
        <time>2018-09-30T08:37:24Z</time>
      </trkpt>
      <trkpt lat="43.15491" lon="0.17241">
        <ele>500</ele>
        <time>2018-09-30T08:37:25Z</time>
      </trkpt>
      <trkpt lat="43.15491" lon="0.17245">
        <ele>500</ele>
        <time>2018-09-30T08:37:26Z</time>
      </trkpt>
      <trkpt lat="43.15491" lon="0.17249">
        <ele>500</ele>
        <time>2018-09-30T08:37:27Z</time>
      </trkpt>
      <trkpt lat="43.15491" lon="0.17254">
        <ele>500</ele>
        <time>2018-09-30T08:37:28Z</time>
      </trkpt>
      <trkpt lat="43.15492" lon="0.1726">
        <ele>500</ele>
        <time>2018-09-30T08:37:29Z</time>
      </trkpt>
      <trkpt lat="43.15492" lon="0.17265">
        <ele>500</ele>
        <time>2018-09-30T08:37:30Z</time>
      </trkpt>
      <trkpt lat="43.15493" lon="0.17272">
        <ele>500</ele>
        <time>2018-09-30T08:37:31Z</time>
      </trkpt>
      <trkpt lat="43.15493" lon="0.17278">
        <ele>500</ele>
        <time>2018-09-30T08:37:32Z</time>
      </trkpt>
      <trkpt lat="43.15493" lon="0.17284">
        <ele>500</ele>
        <time>2018-09-30T08:37:33Z</time>
      </trkpt>
      <trkpt lat="43.15493" lon="0.17291">
        <ele>500</ele>
        <time>2018-09-30T08:37:34Z</time>
      </trkpt>
      <trkpt lat="43.15492" lon="0.17298">
        <ele>500</ele>
        <time>2018-09-30T08:37:35Z</time>
      </trkpt>
      <trkpt lat="43.15492" lon="0.17305">
        <ele>500</ele>
        <time>2018-09-30T08:37:36Z</time>
      </trkpt>
      <trkpt lat="43.15492" lon="0.17311">
        <ele>500</ele>
        <time>2018-09-30T08:37:37Z</time>
      </trkpt>
      <trkpt lat="43.15492" lon="0.17318">
        <ele>500</ele>
        <time>2018-09-30T08:37:38Z</time>
      </trkpt>
      <trkpt lat="43.15492" lon="0.17325">
        <ele>500</ele>
        <time>2018-09-30T08:37:39Z</time>
      </trkpt>
      <trkpt lat="43.15492" lon="0.17332">
        <ele>500</ele>
        <time>2018-09-30T08:37:40Z</time>
      </trkpt>
      <trkpt lat="43.15491" lon="0.17339">
        <ele>501</ele>
        <time>2018-09-30T08:37:41Z</time>
      </trkpt>
      <trkpt lat="43.15491" lon="0.17346">
        <ele>501</ele>
        <time>2018-09-30T08:37:42Z</time>
      </trkpt>
      <trkpt lat="43.15491" lon="0.17354">
        <ele>501</ele>
        <time>2018-09-30T08:37:43Z</time>
      </trkpt>
      <trkpt lat="43.1549" lon="0.17361">
        <ele>501</ele>
        <time>2018-09-30T08:37:44Z</time>
      </trkpt>
      <trkpt lat="43.1549" lon="0.17369">
        <ele>501</ele>
        <time>2018-09-30T08:37:45Z</time>
      </trkpt>
      <trkpt lat="43.1549" lon="0.17376">
        <ele>501</ele>
        <time>2018-09-30T08:37:46Z</time>
      </trkpt>
      <trkpt lat="43.15491" lon="0.17384">
        <ele>501</ele>
        <time>2018-09-30T08:37:47Z</time>
      </trkpt>
      <trkpt lat="43.15491" lon="0.17392">
        <ele>501</ele>
        <time>2018-09-30T08:37:48Z</time>
      </trkpt>
      <trkpt lat="43.15491" lon="0.174">
        <ele>501</ele>
        <time>2018-09-30T08:37:49Z</time>
      </trkpt>
      <trkpt lat="43.15491" lon="0.17407">
        <ele>501</ele>
        <time>2018-09-30T08:37:50Z</time>
      </trkpt>
      <trkpt lat="43.1549" lon="0.17415">
        <ele>501</ele>
        <time>2018-09-30T08:37:51Z</time>
      </trkpt>
      <trkpt lat="43.1549" lon="0.17423">
        <ele>501</ele>
        <time>2018-09-30T08:37:52Z</time>
      </trkpt>
      <trkpt lat="43.1549" lon="0.17431">
        <ele>501</ele>
        <time>2018-09-30T08:37:53Z</time>
      </trkpt>
      <trkpt lat="43.1549" lon="0.17439">
        <ele>501</ele>
        <time>2018-09-30T08:37:54Z</time>
      </trkpt>
      <trkpt lat="43.1549" lon="0.17447">
        <ele>501</ele>
        <time>2018-09-30T08:37:55Z</time>
      </trkpt>
      <trkpt lat="43.15489" lon="0.17455">
        <ele>501</ele>
        <time>2018-09-30T08:37:56Z</time>
      </trkpt>
      <trkpt lat="43.15489" lon="0.17464">
        <ele>501</ele>
        <time>2018-09-30T08:37:57Z</time>
      </trkpt>
      <trkpt lat="43.15489" lon="0.17472">
        <ele>501</ele>
        <time>2018-09-30T08:37:58Z</time>
      </trkpt>
      <trkpt lat="43.15489" lon="0.17479">
        <ele>501</ele>
        <time>2018-09-30T08:37:59Z</time>
      </trkpt>
      <trkpt lat="43.15489" lon="0.17487">
        <ele>501</ele>
        <time>2018-09-30T08:38:00Z</time>
      </trkpt>
      <trkpt lat="43.15489" lon="0.17495">
        <ele>501</ele>
        <time>2018-09-30T08:38:01Z</time>
      </trkpt>
      <trkpt lat="43.15488" lon="0.17502">
        <ele>501</ele>
        <time>2018-09-30T08:38:02Z</time>
      </trkpt>
      <trkpt lat="43.15488" lon="0.1751">
        <ele>501</ele>
        <time>2018-09-30T08:38:03Z</time>
      </trkpt>
      <trkpt lat="43.15488" lon="0.17516">
        <ele>501</ele>
        <time>2018-09-30T08:38:04Z</time>
      </trkpt>
      <trkpt lat="43.15488" lon="0.17524">
        <ele>501</ele>
        <time>2018-09-30T08:38:05Z</time>
      </trkpt>
      <trkpt lat="43.15488" lon="0.1753">
        <ele>501</ele>
        <time>2018-09-30T08:38:06Z</time>
      </trkpt>
      <trkpt lat="43.15488" lon="0.17537">
        <ele>501</ele>
        <time>2018-09-30T08:38:07Z</time>
      </trkpt>
      <trkpt lat="43.15488" lon="0.17543">
        <ele>501</ele>
        <time>2018-09-30T08:38:08Z</time>
      </trkpt>
      <trkpt lat="43.15488" lon="0.17549">
        <ele>501</ele>
        <time>2018-09-30T08:38:09Z</time>
      </trkpt>
      <trkpt lat="43.15487" lon="0.17555">
        <ele>501</ele>
        <time>2018-09-30T08:38:10Z</time>
      </trkpt>
      <trkpt lat="43.15487" lon="0.17561">
        <ele>501</ele>
        <time>2018-09-30T08:38:11Z</time>
      </trkpt>
      <trkpt lat="43.15487" lon="0.17566">
        <ele>501</ele>
        <time>2018-09-30T08:38:12Z</time>
      </trkpt>
      <trkpt lat="43.15487" lon="0.17572">
        <ele>502</ele>
        <time>2018-09-30T08:38:13Z</time>
      </trkpt>
      <trkpt lat="43.15487" lon="0.17578">
        <ele>502</ele>
        <time>2018-09-30T08:38:14Z</time>
      </trkpt>
      <trkpt lat="43.15487" lon="0.17583">
        <ele>502</ele>
        <time>2018-09-30T08:38:15Z</time>
      </trkpt>
      <trkpt lat="43.15487" lon="0.17587">
        <ele>502</ele>
        <time>2018-09-30T08:38:16Z</time>
      </trkpt>
      <trkpt lat="43.15487" lon="0.17592">
        <ele>502</ele>
        <time>2018-09-30T08:38:17Z</time>
      </trkpt>
      <trkpt lat="43.15488" lon="0.17597">
        <ele>502</ele>
        <time>2018-09-30T08:38:18Z</time>
      </trkpt>
      <trkpt lat="43.15488" lon="0.17602">
        <ele>502</ele>
        <time>2018-09-30T08:38:19Z</time>
      </trkpt>
      <trkpt lat="43.15488" lon="0.17607">
        <ele>502</ele>
        <time>2018-09-30T08:38:20Z</time>
      </trkpt>
      <trkpt lat="43.15488" lon="0.17612">
        <ele>502</ele>
        <time>2018-09-30T08:38:21Z</time>
      </trkpt>
      <trkpt lat="43.15488" lon="0.17617">
        <ele>502</ele>
        <time>2018-09-30T08:38:22Z</time>
      </trkpt>
      <trkpt lat="43.15487" lon="0.17622">
        <ele>502</ele>
        <time>2018-09-30T08:38:23Z</time>
      </trkpt>
      <trkpt lat="43.15487" lon="0.17627">
        <ele>502</ele>
        <time>2018-09-30T08:38:24Z</time>
      </trkpt>
      <trkpt lat="43.15487" lon="0.17632">
        <ele>502</ele>
        <time>2018-09-30T08:38:25Z</time>
      </trkpt>
      <trkpt lat="43.15487" lon="0.17637">
        <ele>502</ele>
        <time>2018-09-30T08:38:26Z</time>
      </trkpt>
      <trkpt lat="43.15487" lon="0.17641">
        <ele>502</ele>
        <time>2018-09-30T08:38:27Z</time>
      </trkpt>
      <trkpt lat="43.15486" lon="0.17646">
        <ele>502</ele>
        <time>2018-09-30T08:38:28Z</time>
      </trkpt>
      <trkpt lat="43.15486" lon="0.1765">
        <ele>502</ele>
        <time>2018-09-30T08:38:29Z</time>
      </trkpt>
      <trkpt lat="43.15486" lon="0.17655">
        <ele>502</ele>
        <time>2018-09-30T08:38:30Z</time>
      </trkpt>
      <trkpt lat="43.15486" lon="0.17659">
        <ele>502</ele>
        <time>2018-09-30T08:38:31Z</time>
      </trkpt>
      <trkpt lat="43.15486" lon="0.17664">
        <ele>502</ele>
        <time>2018-09-30T08:38:32Z</time>
      </trkpt>
      <trkpt lat="43.15485" lon="0.17669">
        <ele>502</ele>
        <time>2018-09-30T08:38:33Z</time>
      </trkpt>
      <trkpt lat="43.15485" lon="0.17674">
        <ele>502</ele>
        <time>2018-09-30T08:38:34Z</time>
      </trkpt>
      <trkpt lat="43.15486" lon="0.17678">
        <ele>502</ele>
        <time>2018-09-30T08:38:35Z</time>
      </trkpt>
      <trkpt lat="43.15486" lon="0.17681">
        <ele>503</ele>
        <time>2018-09-30T08:38:36Z</time>
      </trkpt>
      <trkpt lat="43.15487" lon="0.17686">
        <ele>503</ele>
        <time>2018-09-30T08:38:37Z</time>
      </trkpt>
      <trkpt lat="43.15489" lon="0.17689">
        <ele>503</ele>
        <time>2018-09-30T08:38:38Z</time>
      </trkpt>
      <trkpt lat="43.15491" lon="0.1769">
        <ele>503</ele>
        <time>2018-09-30T08:38:39Z</time>
      </trkpt>
      <trkpt lat="43.15494" lon="0.17692">
        <ele>503</ele>
        <time>2018-09-30T08:38:40Z</time>
      </trkpt>
      <trkpt lat="43.15496" lon="0.17693">
        <ele>503</ele>
        <time>2018-09-30T08:38:41Z</time>
      </trkpt>
      <trkpt lat="43.155" lon="0.17693">
        <ele>503</ele>
        <time>2018-09-30T08:38:42Z</time>
      </trkpt>
      <trkpt lat="43.15503" lon="0.17694">
        <ele>503</ele>
        <time>2018-09-30T08:38:43Z</time>
      </trkpt>
      <trkpt lat="43.15507" lon="0.17695">
        <ele>503</ele>
        <time>2018-09-30T08:38:44Z</time>
      </trkpt>
      <trkpt lat="43.1551" lon="0.17695">
        <ele>503</ele>
        <time>2018-09-30T08:38:45Z</time>
      </trkpt>
      <trkpt lat="43.15514" lon="0.17695">
        <ele>503</ele>
        <time>2018-09-30T08:38:46Z</time>
      </trkpt>
      <trkpt lat="43.15517" lon="0.17695">
        <ele>503</ele>
        <time>2018-09-30T08:38:47Z</time>
      </trkpt>
      <trkpt lat="43.15522" lon="0.17695">
        <ele>504</ele>
        <time>2018-09-30T08:38:48Z</time>
      </trkpt>
      <trkpt lat="43.15525" lon="0.17694">
        <ele>504</ele>
        <time>2018-09-30T08:38:49Z</time>
      </trkpt>
      <trkpt lat="43.15529" lon="0.17695">
        <ele>504</ele>
        <time>2018-09-30T08:38:50Z</time>
      </trkpt>
      <trkpt lat="43.15534" lon="0.17696">
        <ele>505</ele>
        <time>2018-09-30T08:38:51Z</time>
      </trkpt>
      <trkpt lat="43.15539" lon="0.17696">
        <ele>505</ele>
        <time>2018-09-30T08:38:52Z</time>
      </trkpt>
      <trkpt lat="43.15545" lon="0.17695">
        <ele>505</ele>
        <time>2018-09-30T08:38:53Z</time>
      </trkpt>
      <trkpt lat="43.15551" lon="0.17694">
        <ele>506</ele>
        <time>2018-09-30T08:38:54Z</time>
      </trkpt>
      <trkpt lat="43.15556" lon="0.17694">
        <ele>506</ele>
        <time>2018-09-30T08:38:55Z</time>
      </trkpt>
      <trkpt lat="43.15561" lon="0.17694">
        <ele>506</ele>
        <time>2018-09-30T08:38:56Z</time>
      </trkpt>
      <trkpt lat="43.15567" lon="0.17694">
        <ele>506</ele>
        <time>2018-09-30T08:38:57Z</time>
      </trkpt>
      <trkpt lat="43.15571" lon="0.17694">
        <ele>505</ele>
        <time>2018-09-30T08:38:58Z</time>
      </trkpt>
      <trkpt lat="43.15576" lon="0.17693">
        <ele>505</ele>
        <time>2018-09-30T08:38:59Z</time>
      </trkpt>
      <trkpt lat="43.15581" lon="0.17693">
        <ele>505</ele>
        <time>2018-09-30T08:39:00Z</time>
      </trkpt>
      <trkpt lat="43.15586" lon="0.17693">
        <ele>505</ele>
        <time>2018-09-30T08:39:01Z</time>
      </trkpt>
      <trkpt lat="43.1559" lon="0.17692">
        <ele>505</ele>
        <time>2018-09-30T08:39:02Z</time>
      </trkpt>
      <trkpt lat="43.15595" lon="0.17692">
        <ele>505</ele>
        <time>2018-09-30T08:39:03Z</time>
      </trkpt>
      <trkpt lat="43.156" lon="0.17692">
        <ele>505</ele>
        <time>2018-09-30T08:39:04Z</time>
      </trkpt>
      <trkpt lat="43.15605" lon="0.17691">
        <ele>505</ele>
        <time>2018-09-30T08:39:05Z</time>
      </trkpt>
      <trkpt lat="43.1561" lon="0.17691">
        <ele>505</ele>
        <time>2018-09-30T08:39:06Z</time>
      </trkpt>
      <trkpt lat="43.15616" lon="0.17691">
        <ele>505</ele>
        <time>2018-09-30T08:39:07Z</time>
      </trkpt>
      <trkpt lat="43.15621" lon="0.17691">
        <ele>505</ele>
        <time>2018-09-30T08:39:08Z</time>
      </trkpt>
      <trkpt lat="43.15627" lon="0.17692">
        <ele>505</ele>
        <time>2018-09-30T08:39:09Z</time>
      </trkpt>
      <trkpt lat="43.15632" lon="0.17692">
        <ele>505</ele>
        <time>2018-09-30T08:39:10Z</time>
      </trkpt>
      <trkpt lat="43.15637" lon="0.17693">
        <ele>505</ele>
        <time>2018-09-30T08:39:11Z</time>
      </trkpt>
      <trkpt lat="43.15642" lon="0.17693">
        <ele>504</ele>
        <time>2018-09-30T08:39:12Z</time>
      </trkpt>
      <trkpt lat="43.15648" lon="0.17693">
        <ele>504</ele>
        <time>2018-09-30T08:39:13Z</time>
      </trkpt>
      <trkpt lat="43.15653" lon="0.17692">
        <ele>504</ele>
        <time>2018-09-30T08:39:14Z</time>
      </trkpt>
      <trkpt lat="43.15659" lon="0.17692">
        <ele>504</ele>
        <time>2018-09-30T08:39:15Z</time>
      </trkpt>
      <trkpt lat="43.15664" lon="0.17692">
        <ele>504</ele>
        <time>2018-09-30T08:39:16Z</time>
      </trkpt>
      <trkpt lat="43.1567" lon="0.17692">
        <ele>503</ele>
        <time>2018-09-30T08:39:17Z</time>
      </trkpt>
      <trkpt lat="43.15675" lon="0.17692">
        <ele>503</ele>
        <time>2018-09-30T08:39:18Z</time>
      </trkpt>
      <trkpt lat="43.15681" lon="0.17691">
        <ele>503</ele>
        <time>2018-09-30T08:39:19Z</time>
      </trkpt>
      <trkpt lat="43.15686" lon="0.17691">
        <ele>503</ele>
        <time>2018-09-30T08:39:20Z</time>
      </trkpt>
      <trkpt lat="43.1569" lon="0.1769">
        <ele>503</ele>
        <time>2018-09-30T08:39:21Z</time>
      </trkpt>
      <trkpt lat="43.15695" lon="0.17689">
        <ele>502</ele>
        <time>2018-09-30T08:39:22Z</time>
      </trkpt>
      <trkpt lat="43.157" lon="0.1769">
        <ele>502</ele>
        <time>2018-09-30T08:39:23Z</time>
      </trkpt>
      <trkpt lat="43.15705" lon="0.1769">
        <ele>502</ele>
        <time>2018-09-30T08:39:24Z</time>
      </trkpt>
      <trkpt lat="43.1571" lon="0.1769">
        <ele>502</ele>
        <time>2018-09-30T08:39:25Z</time>
      </trkpt>
      <trkpt lat="43.15715" lon="0.1769">
        <ele>502</ele>
        <time>2018-09-30T08:39:26Z</time>
      </trkpt>
      <trkpt lat="43.1572" lon="0.1769">
        <ele>502</ele>
        <time>2018-09-30T08:39:27Z</time>
      </trkpt>
      <trkpt lat="43.15725" lon="0.1769">
        <ele>502</ele>
        <time>2018-09-30T08:39:28Z</time>
      </trkpt>
      <trkpt lat="43.1573" lon="0.17689">
        <ele>502</ele>
        <time>2018-09-30T08:39:29Z</time>
      </trkpt>
      <trkpt lat="43.15735" lon="0.17689">
        <ele>502</ele>
        <time>2018-09-30T08:39:30Z</time>
      </trkpt>
      <trkpt lat="43.1574" lon="0.17689">
        <ele>502</ele>
        <time>2018-09-30T08:39:31Z</time>
      </trkpt>
      <trkpt lat="43.15744" lon="0.17689">
        <ele>502</ele>
        <time>2018-09-30T08:39:32Z</time>
      </trkpt>
      <trkpt lat="43.15749" lon="0.17689">
        <ele>502</ele>
        <time>2018-09-30T08:39:33Z</time>
      </trkpt>
      <trkpt lat="43.15754" lon="0.17689">
        <ele>502</ele>
        <time>2018-09-30T08:39:34Z</time>
      </trkpt>
      <trkpt lat="43.15758" lon="0.17688">
        <ele>501</ele>
        <time>2018-09-30T08:39:35Z</time>
      </trkpt>
      <trkpt lat="43.15763" lon="0.17687">
        <ele>501</ele>
        <time>2018-09-30T08:39:36Z</time>
      </trkpt>
      <trkpt lat="43.15767" lon="0.17687">
        <ele>501</ele>
        <time>2018-09-30T08:39:37Z</time>
      </trkpt>
      <trkpt lat="43.15771" lon="0.17687">
        <ele>501</ele>
        <time>2018-09-30T08:39:38Z</time>
      </trkpt>
      <trkpt lat="43.15775" lon="0.17686">
        <ele>501</ele>
        <time>2018-09-30T08:39:39Z</time>
      </trkpt>
      <trkpt lat="43.15778" lon="0.17686">
        <ele>501</ele>
        <time>2018-09-30T08:39:40Z</time>
      </trkpt>
      <trkpt lat="43.15781" lon="0.17686">
        <ele>501</ele>
        <time>2018-09-30T08:39:41Z</time>
      </trkpt>
      <trkpt lat="43.15784" lon="0.17686">
        <ele>501</ele>
        <time>2018-09-30T08:39:42Z</time>
      </trkpt>
      <trkpt lat="43.15787" lon="0.17686">
        <ele>501</ele>
        <time>2018-09-30T08:39:43Z</time>
      </trkpt>
      <trkpt lat="43.15791" lon="0.17686">
        <ele>501</ele>
        <time>2018-09-30T08:39:44Z</time>
      </trkpt>
      <trkpt lat="43.15794" lon="0.17686">
        <ele>501</ele>
        <time>2018-09-30T08:39:45Z</time>
      </trkpt>
      <trkpt lat="43.15797" lon="0.17686">
        <ele>501</ele>
        <time>2018-09-30T08:39:46Z</time>
      </trkpt>
      <trkpt lat="43.158" lon="0.17686">
        <ele>501</ele>
        <time>2018-09-30T08:39:47Z</time>
      </trkpt>
      <trkpt lat="43.15802" lon="0.17686">
        <ele>502</ele>
        <time>2018-09-30T08:39:48Z</time>
      </trkpt>
      <trkpt lat="43.15806" lon="0.17685">
        <ele>502</ele>
        <time>2018-09-30T08:39:49Z</time>
      </trkpt>
      <trkpt lat="43.15809" lon="0.17685">
        <ele>502</ele>
        <time>2018-09-30T08:39:50Z</time>
      </trkpt>
      <trkpt lat="43.15813" lon="0.17684">
        <ele>502</ele>
        <time>2018-09-30T08:39:51Z</time>
      </trkpt>
      <trkpt lat="43.15816" lon="0.17684">
        <ele>502</ele>
        <time>2018-09-30T08:39:52Z</time>
      </trkpt>
      <trkpt lat="43.1582" lon="0.17685">
        <ele>502</ele>
        <time>2018-09-30T08:39:53Z</time>
      </trkpt>
      <trkpt lat="43.15823" lon="0.17683">
        <ele>502</ele>
        <time>2018-09-30T08:39:54Z</time>
      </trkpt>
      <trkpt lat="43.15828" lon="0.17682">
        <ele>502</ele>
        <time>2018-09-30T08:39:55Z</time>
      </trkpt>
      <trkpt lat="43.15832" lon="0.1768">
        <ele>502</ele>
        <time>2018-09-30T08:39:56Z</time>
      </trkpt>
      <trkpt lat="43.15836" lon="0.1768">
        <ele>502</ele>
        <time>2018-09-30T08:39:57Z</time>
      </trkpt>
      <trkpt lat="43.1584" lon="0.1768">
        <ele>503</ele>
        <time>2018-09-30T08:39:58Z</time>
      </trkpt>
      <trkpt lat="43.15845" lon="0.17681">
        <ele>503</ele>
        <time>2018-09-30T08:39:59Z</time>
      </trkpt>
      <trkpt lat="43.1585" lon="0.17682">
        <ele>503</ele>
        <time>2018-09-30T08:40:00Z</time>
      </trkpt>
      <trkpt lat="43.15855" lon="0.17682">
        <ele>503</ele>
        <time>2018-09-30T08:40:01Z</time>
      </trkpt>
      <trkpt lat="43.1586" lon="0.17682">
        <ele>504</ele>
        <time>2018-09-30T08:40:02Z</time>
      </trkpt>
      <trkpt lat="43.15865" lon="0.17682">
        <ele>504</ele>
        <time>2018-09-30T08:40:03Z</time>
      </trkpt>
      <trkpt lat="43.1587" lon="0.17682">
        <ele>504</ele>
        <time>2018-09-30T08:40:04Z</time>
      </trkpt>
      <trkpt lat="43.15874" lon="0.17682">
        <ele>504</ele>
        <time>2018-09-30T08:40:05Z</time>
      </trkpt>
      <trkpt lat="43.15878" lon="0.17682">
        <ele>504</ele>
        <time>2018-09-30T08:40:06Z</time>
      </trkpt>
      <trkpt lat="43.15882" lon="0.17682">
        <ele>504</ele>
        <time>2018-09-30T08:40:07Z</time>
      </trkpt>
      <trkpt lat="43.15886" lon="0.17683">
        <ele>504</ele>
        <time>2018-09-30T08:40:08Z</time>
      </trkpt>
      <trkpt lat="43.15891" lon="0.17683">
        <ele>504</ele>
        <time>2018-09-30T08:40:09Z</time>
      </trkpt>
      <trkpt lat="43.15895" lon="0.17683">
        <ele>504</ele>
        <time>2018-09-30T08:40:10Z</time>
      </trkpt>
      <trkpt lat="43.15899" lon="0.17683">
        <ele>504</ele>
        <time>2018-09-30T08:40:11Z</time>
      </trkpt>
      <trkpt lat="43.15904" lon="0.17683">
        <ele>504</ele>
        <time>2018-09-30T08:40:12Z</time>
      </trkpt>
      <trkpt lat="43.15908" lon="0.17684">
        <ele>504</ele>
        <time>2018-09-30T08:40:13Z</time>
      </trkpt>
      <trkpt lat="43.15913" lon="0.17685">
        <ele>504</ele>
        <time>2018-09-30T08:40:14Z</time>
      </trkpt>
      <trkpt lat="43.15917" lon="0.17685">
        <ele>504</ele>
        <time>2018-09-30T08:40:15Z</time>
      </trkpt>
      <trkpt lat="43.15922" lon="0.17686">
        <ele>504</ele>
        <time>2018-09-30T08:40:16Z</time>
      </trkpt>
      <trkpt lat="43.15927" lon="0.17686">
        <ele>504</ele>
        <time>2018-09-30T08:40:17Z</time>
      </trkpt>
      <trkpt lat="43.15932" lon="0.17686">
        <ele>504</ele>
        <time>2018-09-30T08:40:18Z</time>
      </trkpt>
      <trkpt lat="43.15937" lon="0.17687">
        <ele>504</ele>
        <time>2018-09-30T08:40:19Z</time>
      </trkpt>
      <trkpt lat="43.15943" lon="0.17688">
        <ele>503</ele>
        <time>2018-09-30T08:40:20Z</time>
      </trkpt>
      <trkpt lat="43.15948" lon="0.17689">
        <ele>503</ele>
        <time>2018-09-30T08:40:21Z</time>
      </trkpt>
      <trkpt lat="43.15953" lon="0.1769">
        <ele>503</ele>
        <time>2018-09-30T08:40:22Z</time>
      </trkpt>
      <trkpt lat="43.15959" lon="0.17691">
        <ele>503</ele>
        <time>2018-09-30T08:40:23Z</time>
      </trkpt>
      <trkpt lat="43.15964" lon="0.17692">
        <ele>502</ele>
        <time>2018-09-30T08:40:24Z</time>
      </trkpt>
      <trkpt lat="43.1597" lon="0.17694">
        <ele>502</ele>
        <time>2018-09-30T08:40:25Z</time>
      </trkpt>
      <trkpt lat="43.15975" lon="0.17695">
        <ele>502</ele>
        <time>2018-09-30T08:40:26Z</time>
      </trkpt>
      <trkpt lat="43.15981" lon="0.17697">
        <ele>501</ele>
        <time>2018-09-30T08:40:27Z</time>
      </trkpt>
      <trkpt lat="43.15986" lon="0.17698">
        <ele>501</ele>
        <time>2018-09-30T08:40:28Z</time>
      </trkpt>
      <trkpt lat="43.15991" lon="0.177">
        <ele>501</ele>
        <time>2018-09-30T08:40:29Z</time>
      </trkpt>
      <trkpt lat="43.15997" lon="0.17701">
        <ele>501</ele>
        <time>2018-09-30T08:40:30Z</time>
      </trkpt>
      <trkpt lat="43.16002" lon="0.17703">
        <ele>501</ele>
        <time>2018-09-30T08:40:31Z</time>
      </trkpt>
      <trkpt lat="43.16007" lon="0.17704">
        <ele>500</ele>
        <time>2018-09-30T08:40:32Z</time>
      </trkpt>
      <trkpt lat="43.16013" lon="0.17706">
        <ele>500</ele>
        <time>2018-09-30T08:40:33Z</time>
      </trkpt>
      <trkpt lat="43.16019" lon="0.17707">
        <ele>500</ele>
        <time>2018-09-30T08:40:34Z</time>
      </trkpt>
      <trkpt lat="43.16024" lon="0.17709">
        <ele>500</ele>
        <time>2018-09-30T08:40:35Z</time>
      </trkpt>
      <trkpt lat="43.1603" lon="0.17711">
        <ele>499</ele>
        <time>2018-09-30T08:40:36Z</time>
      </trkpt>
      <trkpt lat="43.16036" lon="0.17713">
        <ele>499</ele>
        <time>2018-09-30T08:40:37Z</time>
      </trkpt>
      <trkpt lat="43.16042" lon="0.17715">
        <ele>499</ele>
        <time>2018-09-30T08:40:38Z</time>
      </trkpt>
      <trkpt lat="43.16048" lon="0.17716">
        <ele>499</ele>
        <time>2018-09-30T08:40:39Z</time>
      </trkpt>
      <trkpt lat="43.16054" lon="0.17717">
        <ele>499</ele>
        <time>2018-09-30T08:40:40Z</time>
      </trkpt>
      <trkpt lat="43.1606" lon="0.17719">
        <ele>498</ele>
        <time>2018-09-30T08:40:41Z</time>
      </trkpt>
      <trkpt lat="43.16066" lon="0.17721">
        <ele>498</ele>
        <time>2018-09-30T08:40:42Z</time>
      </trkpt>
      <trkpt lat="43.16072" lon="0.17722">
        <ele>498</ele>
        <time>2018-09-30T08:40:43Z</time>
      </trkpt>
      <trkpt lat="43.16078" lon="0.17723">
        <ele>498</ele>
        <time>2018-09-30T08:40:44Z</time>
      </trkpt>
      <trkpt lat="43.16085" lon="0.17724">
        <ele>497</ele>
        <time>2018-09-30T08:40:45Z</time>
      </trkpt>
      <trkpt lat="43.16091" lon="0.17725">
        <ele>497</ele>
        <time>2018-09-30T08:40:46Z</time>
      </trkpt>
      <trkpt lat="43.16097" lon="0.17725">
        <ele>497</ele>
        <time>2018-09-30T08:40:47Z</time>
      </trkpt>
      <trkpt lat="43.16103" lon="0.17726">
        <ele>497</ele>
        <time>2018-09-30T08:40:48Z</time>
      </trkpt>
      <trkpt lat="43.16109" lon="0.17727">
        <ele>496</ele>
        <time>2018-09-30T08:40:49Z</time>
      </trkpt>
      <trkpt lat="43.16116" lon="0.17728">
        <ele>496</ele>
        <time>2018-09-30T08:40:50Z</time>
      </trkpt>
      <trkpt lat="43.16122" lon="0.17729">
        <ele>496</ele>
        <time>2018-09-30T08:40:51Z</time>
      </trkpt>
      <trkpt lat="43.16128" lon="0.17731">
        <ele>496</ele>
        <time>2018-09-30T08:40:52Z</time>
      </trkpt>
      <trkpt lat="43.16133" lon="0.17732">
        <ele>496</ele>
        <time>2018-09-30T08:40:53Z</time>
      </trkpt>
      <trkpt lat="43.16139" lon="0.17733">
        <ele>495</ele>
        <time>2018-09-30T08:40:54Z</time>
      </trkpt>
      <trkpt lat="43.16145" lon="0.17734">
        <ele>495</ele>
        <time>2018-09-30T08:40:55Z</time>
      </trkpt>
      <trkpt lat="43.1615" lon="0.17735">
        <ele>495</ele>
        <time>2018-09-30T08:40:56Z</time>
      </trkpt>
      <trkpt lat="43.16156" lon="0.17736">
        <ele>495</ele>
        <time>2018-09-30T08:40:57Z</time>
      </trkpt>
      <trkpt lat="43.16161" lon="0.17737">
        <ele>495</ele>
        <time>2018-09-30T08:40:58Z</time>
      </trkpt>
      <trkpt lat="43.16166" lon="0.17739">
        <ele>495</ele>
        <time>2018-09-30T08:40:59Z</time>
      </trkpt>
      <trkpt lat="43.16172" lon="0.1774">
        <ele>495</ele>
        <time>2018-09-30T08:41:00Z</time>
      </trkpt>
      <trkpt lat="43.16177" lon="0.17741">
        <ele>495</ele>
        <time>2018-09-30T08:41:01Z</time>
      </trkpt>
      <trkpt lat="43.16182" lon="0.17742">
        <ele>495</ele>
        <time>2018-09-30T08:41:02Z</time>
      </trkpt>
      <trkpt lat="43.16186" lon="0.17742">
        <ele>495</ele>
        <time>2018-09-30T08:41:03Z</time>
      </trkpt>
      <trkpt lat="43.16191" lon="0.17744">
        <ele>495</ele>
        <time>2018-09-30T08:41:04Z</time>
      </trkpt>
      <trkpt lat="43.16196" lon="0.17745">
        <ele>495</ele>
        <time>2018-09-30T08:41:05Z</time>
      </trkpt>
      <trkpt lat="43.16201" lon="0.17746">
        <ele>495</ele>
        <time>2018-09-30T08:41:06Z</time>
      </trkpt>
      <trkpt lat="43.16206" lon="0.17747">
        <ele>494</ele>
        <time>2018-09-30T08:41:07Z</time>
      </trkpt>
      <trkpt lat="43.16211" lon="0.17748">
        <ele>494</ele>
        <time>2018-09-30T08:41:08Z</time>
      </trkpt>
      <trkpt lat="43.16216" lon="0.17749">
        <ele>494</ele>
        <time>2018-09-30T08:41:09Z</time>
      </trkpt>
      <trkpt lat="43.1622" lon="0.1775">
        <ele>494</ele>
        <time>2018-09-30T08:41:10Z</time>
      </trkpt>
      <trkpt lat="43.16225" lon="0.17751">
        <ele>494</ele>
        <time>2018-09-30T08:41:11Z</time>
      </trkpt>
      <trkpt lat="43.1623" lon="0.17752">
        <ele>494</ele>
        <time>2018-09-30T08:41:12Z</time>
      </trkpt>
      <trkpt lat="43.16235" lon="0.17753">
        <ele>494</ele>
        <time>2018-09-30T08:41:13Z</time>
      </trkpt>
      <trkpt lat="43.1624" lon="0.17753">
        <ele>494</ele>
        <time>2018-09-30T08:41:14Z</time>
      </trkpt>
      <trkpt lat="43.16245" lon="0.17754">
        <ele>494</ele>
        <time>2018-09-30T08:41:15Z</time>
      </trkpt>
      <trkpt lat="43.1625" lon="0.17756">
        <ele>494</ele>
        <time>2018-09-30T08:41:16Z</time>
      </trkpt>
      <trkpt lat="43.16255" lon="0.17756">
        <ele>494</ele>
        <time>2018-09-30T08:41:17Z</time>
      </trkpt>
      <trkpt lat="43.1626" lon="0.17757">
        <ele>494</ele>
        <time>2018-09-30T08:41:18Z</time>
      </trkpt>
      <trkpt lat="43.16265" lon="0.17757">
        <ele>494</ele>
        <time>2018-09-30T08:41:19Z</time>
      </trkpt>
      <trkpt lat="43.1627" lon="0.17758">
        <ele>494</ele>
        <time>2018-09-30T08:41:20Z</time>
      </trkpt>
      <trkpt lat="43.16275" lon="0.17759">
        <ele>494</ele>
        <time>2018-09-30T08:41:21Z</time>
      </trkpt>
      <trkpt lat="43.1628" lon="0.17761">
        <ele>494</ele>
        <time>2018-09-30T08:41:22Z</time>
      </trkpt>
      <trkpt lat="43.16284" lon="0.17762">
        <ele>494</ele>
        <time>2018-09-30T08:41:23Z</time>
      </trkpt>
      <trkpt lat="43.16289" lon="0.17763">
        <ele>494</ele>
        <time>2018-09-30T08:41:24Z</time>
      </trkpt>
      <trkpt lat="43.16294" lon="0.17764">
        <ele>494</ele>
        <time>2018-09-30T08:41:25Z</time>
      </trkpt>
      <trkpt lat="43.16299" lon="0.17765">
        <ele>494</ele>
        <time>2018-09-30T08:41:26Z</time>
      </trkpt>
      <trkpt lat="43.16303" lon="0.17767">
        <ele>494</ele>
        <time>2018-09-30T08:41:27Z</time>
      </trkpt>
      <trkpt lat="43.16307" lon="0.17768">
        <ele>494</ele>
        <time>2018-09-30T08:41:28Z</time>
      </trkpt>
      <trkpt lat="43.16312" lon="0.1777">
        <ele>494</ele>
        <time>2018-09-30T08:41:29Z</time>
      </trkpt>
      <trkpt lat="43.16317" lon="0.17771">
        <ele>494</ele>
        <time>2018-09-30T08:41:30Z</time>
      </trkpt>
      <trkpt lat="43.16322" lon="0.17773">
        <ele>494</ele>
        <time>2018-09-30T08:41:31Z</time>
      </trkpt>
      <trkpt lat="43.16327" lon="0.17774">
        <ele>494</ele>
        <time>2018-09-30T08:41:32Z</time>
      </trkpt>
      <trkpt lat="43.16332" lon="0.17775">
        <ele>494</ele>
        <time>2018-09-30T08:41:33Z</time>
      </trkpt>
      <trkpt lat="43.16338" lon="0.17776">
        <ele>494</ele>
        <time>2018-09-30T08:41:34Z</time>
      </trkpt>
      <trkpt lat="43.16344" lon="0.17777">
        <ele>494</ele>
        <time>2018-09-30T08:41:35Z</time>
      </trkpt>
      <trkpt lat="43.16349" lon="0.17778">
        <ele>494</ele>
        <time>2018-09-30T08:41:36Z</time>
      </trkpt>
      <trkpt lat="43.16354" lon="0.17779">
        <ele>493</ele>
        <time>2018-09-30T08:41:37Z</time>
      </trkpt>
      <trkpt lat="43.16361" lon="0.17781">
        <ele>493</ele>
        <time>2018-09-30T08:41:38Z</time>
      </trkpt>
      <trkpt lat="43.16367" lon="0.17781">
        <ele>493</ele>
        <time>2018-09-30T08:41:39Z</time>
      </trkpt>
      <trkpt lat="43.16374" lon="0.17782">
        <ele>493</ele>
        <time>2018-09-30T08:41:40Z</time>
      </trkpt>
      <trkpt lat="43.16381" lon="0.17782">
        <ele>493</ele>
        <time>2018-09-30T08:41:41Z</time>
      </trkpt>
      <trkpt lat="43.16389" lon="0.17782">
        <ele>493</ele>
        <time>2018-09-30T08:41:42Z</time>
      </trkpt>
      <trkpt lat="43.16397" lon="0.17781">
        <ele>493</ele>
        <time>2018-09-30T08:41:43Z</time>
      </trkpt>
      <trkpt lat="43.16405" lon="0.1778">
        <ele>492</ele>
        <time>2018-09-30T08:41:44Z</time>
      </trkpt>
      <trkpt lat="43.16413" lon="0.17778">
        <ele>492</ele>
        <time>2018-09-30T08:41:45Z</time>
      </trkpt>
      <trkpt lat="43.16422" lon="0.17776">
        <ele>492</ele>
        <time>2018-09-30T08:41:46Z</time>
      </trkpt>
      <trkpt lat="43.1643" lon="0.17774">
        <ele>492</ele>
        <time>2018-09-30T08:41:47Z</time>
      </trkpt>
      <trkpt lat="43.16438" lon="0.17772">
        <ele>491</ele>
        <time>2018-09-30T08:41:48Z</time>
      </trkpt>
      <trkpt lat="43.16446" lon="0.17771">
        <ele>491</ele>
        <time>2018-09-30T08:41:49Z</time>
      </trkpt>
      <trkpt lat="43.16454" lon="0.1777">
        <ele>491</ele>
        <time>2018-09-30T08:41:50Z</time>
      </trkpt>
      <trkpt lat="43.1646" lon="0.17768">
        <ele>490</ele>
        <time>2018-09-30T08:41:51Z</time>
      </trkpt>
      <trkpt lat="43.16466" lon="0.17767">
        <ele>490</ele>
        <time>2018-09-30T08:41:52Z</time>
      </trkpt>
      <trkpt lat="43.16472" lon="0.17764">
        <ele>490</ele>
        <time>2018-09-30T08:41:53Z</time>
      </trkpt>
      <trkpt lat="43.16476" lon="0.1776">
        <ele>489</ele>
        <time>2018-09-30T08:41:54Z</time>
      </trkpt>
      <trkpt lat="43.16479" lon="0.17754">
        <ele>489</ele>
        <time>2018-09-30T08:41:55Z</time>
      </trkpt>
      <trkpt lat="43.1648" lon="0.17748">
        <ele>489</ele>
        <time>2018-09-30T08:41:56Z</time>
      </trkpt>
      <trkpt lat="43.16481" lon="0.17743">
        <ele>488</ele>
        <time>2018-09-30T08:41:57Z</time>
      </trkpt>
      <trkpt lat="43.16483" lon="0.17738">
        <ele>488</ele>
        <time>2018-09-30T08:41:58Z</time>
      </trkpt>
      <trkpt lat="43.16483" lon="0.17732">
        <ele>488</ele>
        <time>2018-09-30T08:41:59Z</time>
      </trkpt>
      <trkpt lat="43.16484" lon="0.17727">
        <ele>487</ele>
        <time>2018-09-30T08:42:00Z</time>
      </trkpt>
      <trkpt lat="43.16485" lon="0.17722">
        <ele>487</ele>
        <time>2018-09-30T08:42:01Z</time>
      </trkpt>
      <trkpt lat="43.16486" lon="0.17718">
        <ele>487</ele>
        <time>2018-09-30T08:42:02Z</time>
      </trkpt>
      <trkpt lat="43.16487" lon="0.17713">
        <ele>487</ele>
        <time>2018-09-30T08:42:03Z</time>
      </trkpt>
      <trkpt lat="43.16488" lon="0.17708">
        <ele>487</ele>
        <time>2018-09-30T08:42:04Z</time>
      </trkpt>
      <trkpt lat="43.1649" lon="0.17703">
        <ele>487</ele>
        <time>2018-09-30T08:42:05Z</time>
      </trkpt>
      <trkpt lat="43.1649" lon="0.17697">
        <ele>486</ele>
        <time>2018-09-30T08:42:06Z</time>
      </trkpt>
      <trkpt lat="43.16491" lon="0.17691">
        <ele>486</ele>
        <time>2018-09-30T08:42:07Z</time>
      </trkpt>
      <trkpt lat="43.16493" lon="0.17685">
        <ele>486</ele>
        <time>2018-09-30T08:42:08Z</time>
      </trkpt>
      <trkpt lat="43.16494" lon="0.17679">
        <ele>485</ele>
        <time>2018-09-30T08:42:09Z</time>
      </trkpt>
      <trkpt lat="43.16495" lon="0.17672">
        <ele>485</ele>
        <time>2018-09-30T08:42:10Z</time>
      </trkpt>
      <trkpt lat="43.16496" lon="0.17665">
        <ele>485</ele>
        <time>2018-09-30T08:42:11Z</time>
      </trkpt>
      <trkpt lat="43.16498" lon="0.17658">
        <ele>484</ele>
        <time>2018-09-30T08:42:12Z</time>
      </trkpt>
      <trkpt lat="43.16499" lon="0.17651">
        <ele>484</ele>
        <time>2018-09-30T08:42:13Z</time>
      </trkpt>
      <trkpt lat="43.165" lon="0.17644">
        <ele>484</ele>
        <time>2018-09-30T08:42:14Z</time>
      </trkpt>
      <trkpt lat="43.16502" lon="0.17636">
        <ele>484</ele>
        <time>2018-09-30T08:42:15Z</time>
      </trkpt>
      <trkpt lat="43.16502" lon="0.17629">
        <ele>484</ele>
        <time>2018-09-30T08:42:16Z</time>
      </trkpt>
      <trkpt lat="43.16503" lon="0.17621">
        <ele>483</ele>
        <time>2018-09-30T08:42:17Z</time>
      </trkpt>
      <trkpt lat="43.16503" lon="0.17613">
        <ele>483</ele>
        <time>2018-09-30T08:42:18Z</time>
      </trkpt>
      <trkpt lat="43.16502" lon="0.17606">
        <ele>483</ele>
        <time>2018-09-30T08:42:19Z</time>
      </trkpt>
      <trkpt lat="43.16501" lon="0.17599">
        <ele>483</ele>
        <time>2018-09-30T08:42:20Z</time>
      </trkpt>
      <trkpt lat="43.16499" lon="0.17592">
        <ele>483</ele>
        <time>2018-09-30T08:42:21Z</time>
      </trkpt>
      <trkpt lat="43.16498" lon="0.17584">
        <ele>482</ele>
        <time>2018-09-30T08:42:22Z</time>
      </trkpt>
      <trkpt lat="43.16497" lon="0.17577">
        <ele>482</ele>
        <time>2018-09-30T08:42:23Z</time>
      </trkpt>
      <trkpt lat="43.16497" lon="0.17569">
        <ele>482</ele>
        <time>2018-09-30T08:42:24Z</time>
      </trkpt>
      <trkpt lat="43.16497" lon="0.17561">
        <ele>482</ele>
        <time>2018-09-30T08:42:25Z</time>
      </trkpt>
      <trkpt lat="43.16497" lon="0.17553">
        <ele>482</ele>
        <time>2018-09-30T08:42:26Z</time>
      </trkpt>
      <trkpt lat="43.16497" lon="0.17545">
        <ele>482</ele>
        <time>2018-09-30T08:42:27Z</time>
      </trkpt>
      <trkpt lat="43.16497" lon="0.17537">
        <ele>482</ele>
        <time>2018-09-30T08:42:28Z</time>
      </trkpt>
      <trkpt lat="43.16497" lon="0.17529">
        <ele>481</ele>
        <time>2018-09-30T08:42:29Z</time>
      </trkpt>
      <trkpt lat="43.16497" lon="0.17521">
        <ele>481</ele>
        <time>2018-09-30T08:42:30Z</time>
      </trkpt>
      <trkpt lat="43.16497" lon="0.17513">
        <ele>481</ele>
        <time>2018-09-30T08:42:31Z</time>
      </trkpt>
      <trkpt lat="43.16497" lon="0.17504">
        <ele>481</ele>
        <time>2018-09-30T08:42:32Z</time>
      </trkpt>
      <trkpt lat="43.16497" lon="0.17496">
        <ele>481</ele>
        <time>2018-09-30T08:42:33Z</time>
      </trkpt>
      <trkpt lat="43.16497" lon="0.17488">
        <ele>481</ele>
        <time>2018-09-30T08:42:34Z</time>
      </trkpt>
      <trkpt lat="43.16497" lon="0.1748">
        <ele>481</ele>
        <time>2018-09-30T08:42:35Z</time>
      </trkpt>
      <trkpt lat="43.16497" lon="0.17471">
        <ele>480</ele>
        <time>2018-09-30T08:42:36Z</time>
      </trkpt>
      <trkpt lat="43.16497" lon="0.17463">
        <ele>480</ele>
        <time>2018-09-30T08:42:37Z</time>
      </trkpt>
      <trkpt lat="43.16496" lon="0.17455">
        <ele>480</ele>
        <time>2018-09-30T08:42:38Z</time>
      </trkpt>
      <trkpt lat="43.16496" lon="0.17447">
        <ele>480</ele>
        <time>2018-09-30T08:42:39Z</time>
      </trkpt>
      <trkpt lat="43.16496" lon="0.17439">
        <ele>480</ele>
        <time>2018-09-30T08:42:40Z</time>
      </trkpt>
      <trkpt lat="43.16495" lon="0.17431">
        <ele>480</ele>
        <time>2018-09-30T08:42:41Z</time>
      </trkpt>
      <trkpt lat="43.16495" lon="0.17423">
        <ele>480</ele>
        <time>2018-09-30T08:42:42Z</time>
      </trkpt>
      <trkpt lat="43.16495" lon="0.17415">
        <ele>480</ele>
        <time>2018-09-30T08:42:43Z</time>
      </trkpt>
      <trkpt lat="43.16495" lon="0.17408">
        <ele>479</ele>
        <time>2018-09-30T08:42:44Z</time>
      </trkpt>
      <trkpt lat="43.16496" lon="0.174">
        <ele>479</ele>
        <time>2018-09-30T08:42:45Z</time>
      </trkpt>
      <trkpt lat="43.16497" lon="0.17391">
        <ele>479</ele>
        <time>2018-09-30T08:42:46Z</time>
      </trkpt>
      <trkpt lat="43.16497" lon="0.17383">
        <ele>479</ele>
        <time>2018-09-30T08:42:47Z</time>
      </trkpt>
      <trkpt lat="43.16498" lon="0.17375">
        <ele>479</ele>
        <time>2018-09-30T08:42:48Z</time>
      </trkpt>
      <trkpt lat="43.16499" lon="0.17367">
        <ele>479</ele>
        <time>2018-09-30T08:42:49Z</time>
      </trkpt>
      <trkpt lat="43.16499" lon="0.17359">
        <ele>479</ele>
        <time>2018-09-30T08:42:50Z</time>
      </trkpt>
      <trkpt lat="43.165" lon="0.17351">
        <ele>479</ele>
        <time>2018-09-30T08:42:51Z</time>
      </trkpt>
      <trkpt lat="43.165" lon="0.17343">
        <ele>478</ele>
        <time>2018-09-30T08:42:52Z</time>
      </trkpt>
      <trkpt lat="43.16501" lon="0.17335">
        <ele>478</ele>
        <time>2018-09-30T08:42:53Z</time>
      </trkpt>
      <trkpt lat="43.16501" lon="0.17327">
        <ele>478</ele>
        <time>2018-09-30T08:42:54Z</time>
      </trkpt>
      <trkpt lat="43.16501" lon="0.17319">
        <ele>478</ele>
        <time>2018-09-30T08:42:55Z</time>
      </trkpt>
      <trkpt lat="43.16502" lon="0.17311">
        <ele>478</ele>
        <time>2018-09-30T08:42:56Z</time>
      </trkpt>
      <trkpt lat="43.16502" lon="0.17303">
        <ele>478</ele>
        <time>2018-09-30T08:42:57Z</time>
      </trkpt>
      <trkpt lat="43.16503" lon="0.17295">
        <ele>478</ele>
        <time>2018-09-30T08:42:58Z</time>
      </trkpt>
      <trkpt lat="43.16504" lon="0.17288">
        <ele>478</ele>
        <time>2018-09-30T08:42:59Z</time>
      </trkpt>
      <trkpt lat="43.16504" lon="0.1728">
        <ele>477</ele>
        <time>2018-09-30T08:43:00Z</time>
      </trkpt>
      <trkpt lat="43.16505" lon="0.17272">
        <ele>477</ele>
        <time>2018-09-30T08:43:01Z</time>
      </trkpt>
      <trkpt lat="43.16505" lon="0.17264">
        <ele>477</ele>
        <time>2018-09-30T08:43:02Z</time>
      </trkpt>
      <trkpt lat="43.16506" lon="0.17256">
        <ele>477</ele>
        <time>2018-09-30T08:43:03Z</time>
      </trkpt>
      <trkpt lat="43.16507" lon="0.17247">
        <ele>477</ele>
        <time>2018-09-30T08:43:04Z</time>
      </trkpt>
      <trkpt lat="43.16508" lon="0.17239">
        <ele>477</ele>
        <time>2018-09-30T08:43:05Z</time>
      </trkpt>
      <trkpt lat="43.16509" lon="0.17231">
        <ele>477</ele>
        <time>2018-09-30T08:43:06Z</time>
      </trkpt>
      <trkpt lat="43.16511" lon="0.17223">
        <ele>477</ele>
        <time>2018-09-30T08:43:07Z</time>
      </trkpt>
      <trkpt lat="43.16512" lon="0.17215">
        <ele>476</ele>
        <time>2018-09-30T08:43:08Z</time>
      </trkpt>
      <trkpt lat="43.16513" lon="0.17207">
        <ele>476</ele>
        <time>2018-09-30T08:43:09Z</time>
      </trkpt>
      <trkpt lat="43.16515" lon="0.17199">
        <ele>476</ele>
        <time>2018-09-30T08:43:10Z</time>
      </trkpt>
      <trkpt lat="43.16516" lon="0.17191">
        <ele>476</ele>
        <time>2018-09-30T08:43:11Z</time>
      </trkpt>
      <trkpt lat="43.16518" lon="0.17183">
        <ele>476</ele>
        <time>2018-09-30T08:43:12Z</time>
      </trkpt>
      <trkpt lat="43.1652" lon="0.17175">
        <ele>476</ele>
        <time>2018-09-30T08:43:13Z</time>
      </trkpt>
      <trkpt lat="43.16522" lon="0.17167">
        <ele>476</ele>
        <time>2018-09-30T08:43:14Z</time>
      </trkpt>
      <trkpt lat="43.16523" lon="0.17159">
        <ele>475</ele>
        <time>2018-09-30T08:43:15Z</time>
      </trkpt>
      <trkpt lat="43.16526" lon="0.17152">
        <ele>475</ele>
        <time>2018-09-30T08:43:16Z</time>
      </trkpt>
      <trkpt lat="43.16528" lon="0.17144">
        <ele>475</ele>
        <time>2018-09-30T08:43:17Z</time>
      </trkpt>
      <trkpt lat="43.16531" lon="0.17135">
        <ele>475</ele>
        <time>2018-09-30T08:43:18Z</time>
      </trkpt>
      <trkpt lat="43.16533" lon="0.17127">
        <ele>475</ele>
        <time>2018-09-30T08:43:19Z</time>
      </trkpt>
      <trkpt lat="43.16536" lon="0.17119">
        <ele>474</ele>
        <time>2018-09-30T08:43:20Z</time>
      </trkpt>
      <trkpt lat="43.16538" lon="0.1711">
        <ele>474</ele>
        <time>2018-09-30T08:43:21Z</time>
      </trkpt>
      <trkpt lat="43.16541" lon="0.17102">
        <ele>474</ele>
        <time>2018-09-30T08:43:22Z</time>
      </trkpt>
      <trkpt lat="43.16544" lon="0.17094">
        <ele>474</ele>
        <time>2018-09-30T08:43:23Z</time>
      </trkpt>
      <trkpt lat="43.16547" lon="0.17086">
        <ele>474</ele>
        <time>2018-09-30T08:43:24Z</time>
      </trkpt>
      <trkpt lat="43.16551" lon="0.17079">
        <ele>474</ele>
        <time>2018-09-30T08:43:25Z</time>
      </trkpt>
      <trkpt lat="43.16554" lon="0.17071">
        <ele>473</ele>
        <time>2018-09-30T08:43:26Z</time>
      </trkpt>
      <trkpt lat="43.16557" lon="0.17064">
        <ele>473</ele>
        <time>2018-09-30T08:43:27Z</time>
      </trkpt>
      <trkpt lat="43.1656" lon="0.17056">
        <ele>473</ele>
        <time>2018-09-30T08:43:28Z</time>
      </trkpt>
      <trkpt lat="43.16564" lon="0.17049">
        <ele>473</ele>
        <time>2018-09-30T08:43:29Z</time>
      </trkpt>
      <trkpt lat="43.16567" lon="0.17041">
        <ele>473</ele>
        <time>2018-09-30T08:43:30Z</time>
      </trkpt>
      <trkpt lat="43.1657" lon="0.17034">
        <ele>472</ele>
        <time>2018-09-30T08:43:31Z</time>
      </trkpt>
      <trkpt lat="43.16573" lon="0.17027">
        <ele>472</ele>
        <time>2018-09-30T08:43:32Z</time>
      </trkpt>
      <trkpt lat="43.16576" lon="0.17019">
        <ele>472</ele>
        <time>2018-09-30T08:43:33Z</time>
      </trkpt>
      <trkpt lat="43.16579" lon="0.17012">
        <ele>472</ele>
        <time>2018-09-30T08:43:34Z</time>
      </trkpt>
      <trkpt lat="43.16582" lon="0.17005">
        <ele>472</ele>
        <time>2018-09-30T08:43:35Z</time>
      </trkpt>
      <trkpt lat="43.16585" lon="0.16997">
        <ele>471</ele>
        <time>2018-09-30T08:43:36Z</time>
      </trkpt>
      <trkpt lat="43.16588" lon="0.16989">
        <ele>471</ele>
        <time>2018-09-30T08:43:37Z</time>
      </trkpt>
      <trkpt lat="43.16591" lon="0.16982">
        <ele>471</ele>
        <time>2018-09-30T08:43:38Z</time>
      </trkpt>
      <trkpt lat="43.16594" lon="0.16974">
        <ele>471</ele>
        <time>2018-09-30T08:43:39Z</time>
      </trkpt>
      <trkpt lat="43.16597" lon="0.16966">
        <ele>471</ele>
        <time>2018-09-30T08:43:40Z</time>
      </trkpt>
      <trkpt lat="43.16601" lon="0.16957">
        <ele>470</ele>
        <time>2018-09-30T08:43:41Z</time>
      </trkpt>
      <trkpt lat="43.16604" lon="0.1695">
        <ele>470</ele>
        <time>2018-09-30T08:43:42Z</time>
      </trkpt>
      <trkpt lat="43.16609" lon="0.16942">
        <ele>470</ele>
        <time>2018-09-30T08:43:43Z</time>
      </trkpt>
      <trkpt lat="43.16614" lon="0.16935">
        <ele>469</ele>
        <time>2018-09-30T08:43:44Z</time>
      </trkpt>
      <trkpt lat="43.1662" lon="0.16927">
        <ele>469</ele>
        <time>2018-09-30T08:43:45Z</time>
      </trkpt>
      <trkpt lat="43.16625" lon="0.1692">
        <ele>469</ele>
        <time>2018-09-30T08:43:46Z</time>
      </trkpt>
      <trkpt lat="43.16631" lon="0.16912">
        <ele>469</ele>
        <time>2018-09-30T08:43:47Z</time>
      </trkpt>
      <trkpt lat="43.16636" lon="0.16905">
        <ele>469</ele>
        <time>2018-09-30T08:43:48Z</time>
      </trkpt>
      <trkpt lat="43.16642" lon="0.16897">
        <ele>469</ele>
        <time>2018-09-30T08:43:49Z</time>
      </trkpt>
      <trkpt lat="43.16647" lon="0.1689">
        <ele>468</ele>
        <time>2018-09-30T08:43:50Z</time>
      </trkpt>
      <trkpt lat="43.16653" lon="0.16883">
        <ele>468</ele>
        <time>2018-09-30T08:43:51Z</time>
      </trkpt>
      <trkpt lat="43.16658" lon="0.16876">
        <ele>468</ele>
        <time>2018-09-30T08:43:52Z</time>
      </trkpt>
      <trkpt lat="43.16663" lon="0.16871">
        <ele>468</ele>
        <time>2018-09-30T08:43:53Z</time>
      </trkpt>
      <trkpt lat="43.16669" lon="0.16866">
        <ele>468</ele>
        <time>2018-09-30T08:43:54Z</time>
      </trkpt>
      <trkpt lat="43.16675" lon="0.16862">
        <ele>468</ele>
        <time>2018-09-30T08:43:55Z</time>
      </trkpt>
      <trkpt lat="43.1668" lon="0.16858">
        <ele>467</ele>
        <time>2018-09-30T08:43:56Z</time>
      </trkpt>
      <trkpt lat="43.16686" lon="0.16855">
        <ele>467</ele>
        <time>2018-09-30T08:43:57Z</time>
      </trkpt>
      <trkpt lat="43.16692" lon="0.16853">
        <ele>467</ele>
        <time>2018-09-30T08:43:58Z</time>
      </trkpt>
      <trkpt lat="43.16699" lon="0.16851">
        <ele>466</ele>
        <time>2018-09-30T08:43:59Z</time>
      </trkpt>
      <trkpt lat="43.16705" lon="0.16849">
        <ele>466</ele>
        <time>2018-09-30T08:44:00Z</time>
      </trkpt>
      <trkpt lat="43.16712" lon="0.16849">
        <ele>465</ele>
        <time>2018-09-30T08:44:01Z</time>
      </trkpt>
      <trkpt lat="43.1672" lon="0.16852">
        <ele>465</ele>
        <time>2018-09-30T08:44:02Z</time>
      </trkpt>
      <trkpt lat="43.16728" lon="0.16857">
        <ele>464</ele>
        <time>2018-09-30T08:44:03Z</time>
      </trkpt>
      <trkpt lat="43.16734" lon="0.16861">
        <ele>463</ele>
        <time>2018-09-30T08:44:04Z</time>
      </trkpt>
      <trkpt lat="43.1674" lon="0.16869">
        <ele>463</ele>
        <time>2018-09-30T08:44:05Z</time>
      </trkpt>
      <trkpt lat="43.16747" lon="0.16875">
        <ele>462</ele>
        <time>2018-09-30T08:44:06Z</time>
      </trkpt>
      <trkpt lat="43.16753" lon="0.1688">
        <ele>461</ele>
        <time>2018-09-30T08:44:07Z</time>
      </trkpt>
      <trkpt lat="43.16758" lon="0.16886">
        <ele>461</ele>
        <time>2018-09-30T08:44:08Z</time>
      </trkpt>
      <trkpt lat="43.16763" lon="0.1689">
        <ele>460</ele>
        <time>2018-09-30T08:44:09Z</time>
      </trkpt>
      <trkpt lat="43.16768" lon="0.16895">
        <ele>460</ele>
        <time>2018-09-30T08:44:10Z</time>
      </trkpt>
      <trkpt lat="43.16774" lon="0.16901">
        <ele>459</ele>
        <time>2018-09-30T08:44:11Z</time>
      </trkpt>
      <trkpt lat="43.16779" lon="0.16906">
        <ele>458</ele>
        <time>2018-09-30T08:44:12Z</time>
      </trkpt>
      <trkpt lat="43.16785" lon="0.1691">
        <ele>457</ele>
        <time>2018-09-30T08:44:13Z</time>
      </trkpt>
      <trkpt lat="43.1679" lon="0.16913">
        <ele>457</ele>
        <time>2018-09-30T08:44:14Z</time>
      </trkpt>
      <trkpt lat="43.16796" lon="0.16913">
        <ele>456</ele>
        <time>2018-09-30T08:44:15Z</time>
      </trkpt>
      <trkpt lat="43.16801" lon="0.16909">
        <ele>456</ele>
        <time>2018-09-30T08:44:16Z</time>
      </trkpt>
      <trkpt lat="43.16805" lon="0.16902">
        <ele>455</ele>
        <time>2018-09-30T08:44:17Z</time>
      </trkpt>
      <trkpt lat="43.16809" lon="0.16895">
        <ele>454</ele>
        <time>2018-09-30T08:44:18Z</time>
      </trkpt>
      <trkpt lat="43.16812" lon="0.16889">
        <ele>454</ele>
        <time>2018-09-30T08:44:19Z</time>
      </trkpt>
      <trkpt lat="43.16814" lon="0.16883">
        <ele>453</ele>
        <time>2018-09-30T08:44:20Z</time>
      </trkpt>
      <trkpt lat="43.16817" lon="0.16877">
        <ele>453</ele>
        <time>2018-09-30T08:44:21Z</time>
      </trkpt>
      <trkpt lat="43.1682" lon="0.16872">
        <ele>452</ele>
        <time>2018-09-30T08:44:22Z</time>
      </trkpt>
      <trkpt lat="43.16823" lon="0.16866">
        <ele>452</ele>
        <time>2018-09-30T08:44:23Z</time>
      </trkpt>
      <trkpt lat="43.16827" lon="0.1686">
        <ele>451</ele>
        <time>2018-09-30T08:44:24Z</time>
      </trkpt>
      <trkpt lat="43.16831" lon="0.16855">
        <ele>451</ele>
        <time>2018-09-30T08:44:25Z</time>
      </trkpt>
      <trkpt lat="43.16836" lon="0.16853">
        <ele>450</ele>
        <time>2018-09-30T08:44:26Z</time>
      </trkpt>
      <trkpt lat="43.16841" lon="0.16851">
        <ele>449</ele>
        <time>2018-09-30T08:44:27Z</time>
      </trkpt>
      <trkpt lat="43.16847" lon="0.16851">
        <ele>449</ele>
        <time>2018-09-30T08:44:28Z</time>
      </trkpt>
      <trkpt lat="43.16852" lon="0.1685">
        <ele>448</ele>
        <time>2018-09-30T08:44:29Z</time>
      </trkpt>
      <trkpt lat="43.16857" lon="0.16848">
        <ele>447</ele>
        <time>2018-09-30T08:44:30Z</time>
      </trkpt>
      <trkpt lat="43.16862" lon="0.16848">
        <ele>447</ele>
        <time>2018-09-30T08:44:31Z</time>
      </trkpt>
      <trkpt lat="43.16867" lon="0.16848">
        <ele>447</ele>
        <time>2018-09-30T08:44:32Z</time>
      </trkpt>
      <trkpt lat="43.16872" lon="0.1685">
        <ele>446</ele>
        <time>2018-09-30T08:44:33Z</time>
      </trkpt>
      <trkpt lat="43.16876" lon="0.16851">
        <ele>445</ele>
        <time>2018-09-30T08:44:34Z</time>
      </trkpt>
      <trkpt lat="43.1688" lon="0.16848">
        <ele>444</ele>
        <time>2018-09-30T08:44:35Z</time>
      </trkpt>
      <trkpt lat="43.16883" lon="0.16844">
        <ele>444</ele>
        <time>2018-09-30T08:44:36Z</time>
      </trkpt>
      <trkpt lat="43.16885" lon="0.16839">
        <ele>442</ele>
        <time>2018-09-30T08:44:37Z</time>
      </trkpt>
      <trkpt lat="43.16887" lon="0.16835">
        <ele>441</ele>
        <time>2018-09-30T08:44:38Z</time>
      </trkpt>
      <trkpt lat="43.1689" lon="0.16829">
        <ele>440</ele>
        <time>2018-09-30T08:44:39Z</time>
      </trkpt>
      <trkpt lat="43.16891" lon="0.1682">
        <ele>440</ele>
        <time>2018-09-30T08:44:40Z</time>
      </trkpt>
      <trkpt lat="43.16892" lon="0.16811">
        <ele>439</ele>
        <time>2018-09-30T08:44:41Z</time>
      </trkpt>
      <trkpt lat="43.16893" lon="0.16803">
        <ele>439</ele>
        <time>2018-09-30T08:44:42Z</time>
      </trkpt>
      <trkpt lat="43.16892" lon="0.16794">
        <ele>439</ele>
        <time>2018-09-30T08:44:43Z</time>
      </trkpt>
      <trkpt lat="43.16889" lon="0.16785">
        <ele>439</ele>
        <time>2018-09-30T08:44:44Z</time>
      </trkpt>
      <trkpt lat="43.16886" lon="0.16778">
        <ele>439</ele>
        <time>2018-09-30T08:44:45Z</time>
      </trkpt>
      <trkpt lat="43.16883" lon="0.16772">
        <ele>438</ele>
        <time>2018-09-30T08:44:46Z</time>
      </trkpt>
      <trkpt lat="43.1688" lon="0.16765">
        <ele>438</ele>
        <time>2018-09-30T08:44:47Z</time>
      </trkpt>
      <trkpt lat="43.16879" lon="0.16757">
        <ele>438</ele>
        <time>2018-09-30T08:44:48Z</time>
      </trkpt>
      <trkpt lat="43.16877" lon="0.16749">
        <ele>438</ele>
        <time>2018-09-30T08:44:49Z</time>
      </trkpt>
      <trkpt lat="43.16875" lon="0.16744">
        <ele>438</ele>
        <time>2018-09-30T08:44:50Z</time>
      </trkpt>
      <trkpt lat="43.16872" lon="0.1674">
        <ele>438</ele>
        <time>2018-09-30T08:44:51Z</time>
      </trkpt>
      <trkpt lat="43.1687" lon="0.16736">
        <ele>438</ele>
        <time>2018-09-30T08:44:52Z</time>
      </trkpt>
      <trkpt lat="43.1687" lon="0.16731">
        <ele>438</ele>
        <time>2018-09-30T08:44:53Z</time>
      </trkpt>
      <trkpt lat="43.16869" lon="0.16727">
        <ele>438</ele>
        <time>2018-09-30T08:44:54Z</time>
      </trkpt>
      <trkpt lat="43.16868" lon="0.16724">
        <ele>437</ele>
        <time>2018-09-30T08:44:55Z</time>
      </trkpt>
      <trkpt lat="43.16866" lon="0.16719">
        <ele>437</ele>
        <time>2018-09-30T08:44:56Z</time>
      </trkpt>
      <trkpt lat="43.16864" lon="0.16711">
        <ele>437</ele>
        <time>2018-09-30T08:44:57Z</time>
      </trkpt>
      <trkpt lat="43.16861" lon="0.16703">
        <ele>437</ele>
        <time>2018-09-30T08:44:58Z</time>
      </trkpt>
      <trkpt lat="43.16857" lon="0.16694">
        <ele>437</ele>
        <time>2018-09-30T08:44:59Z</time>
      </trkpt>
      <trkpt lat="43.16853" lon="0.16687">
        <ele>436</ele>
        <time>2018-09-30T08:45:00Z</time>
      </trkpt>
      <trkpt lat="43.16847" lon="0.16681">
        <ele>435</ele>
        <time>2018-09-30T08:45:01Z</time>
      </trkpt>
      <trkpt lat="43.16843" lon="0.16674">
        <ele>434</ele>
        <time>2018-09-30T08:45:02Z</time>
      </trkpt>
      <trkpt lat="43.16839" lon="0.16667">
        <ele>434</ele>
        <time>2018-09-30T08:45:03Z</time>
      </trkpt>
      <trkpt lat="43.16836" lon="0.1666">
        <ele>434</ele>
        <time>2018-09-30T08:45:04Z</time>
      </trkpt>
      <trkpt lat="43.16832" lon="0.16653">
        <ele>433</ele>
        <time>2018-09-30T08:45:05Z</time>
      </trkpt>
      <trkpt lat="43.1683" lon="0.16647">
        <ele>433</ele>
        <time>2018-09-30T08:45:06Z</time>
      </trkpt>
      <trkpt lat="43.1682" lon="0.16632">
        <ele>433</ele>
        <time>2018-09-30T08:45:07Z</time>
      </trkpt>
      <trkpt lat="43.1682" lon="0.16628">
        <ele>433</ele>
        <time>2018-09-30T08:45:08Z</time>
      </trkpt>
      <trkpt lat="43.16819" lon="0.16623">
        <ele>432</ele>
        <time>2018-09-30T08:45:09Z</time>
      </trkpt>
      <trkpt lat="43.16819" lon="0.16623">
        <ele>432</ele>
        <time>2018-09-30T08:45:10Z</time>
      </trkpt>
      <trkpt lat="43.16819" lon="0.16623">
        <ele>432</ele>
        <time>2018-09-30T08:45:11Z</time>
      </trkpt>
      <trkpt lat="43.16819" lon="0.16623">
        <ele>431</ele>
        <time>2018-09-30T08:45:12Z</time>
      </trkpt>
      <trkpt lat="43.16819" lon="0.16623">
        <ele>431</ele>
        <time>2018-09-30T08:45:13Z</time>
      </trkpt>
      <trkpt lat="43.16823" lon="0.16623">
        <ele>431</ele>
        <time>2018-09-30T08:45:14Z</time>
      </trkpt>
      <trkpt lat="43.16827" lon="0.16626">
        <ele>430</ele>
        <time>2018-09-30T08:45:15Z</time>
      </trkpt>
      <trkpt lat="43.16832" lon="0.16631">
        <ele>430</ele>
        <time>2018-09-30T08:45:16Z</time>
      </trkpt>
      <trkpt lat="43.16839" lon="0.16636">
        <ele>429</ele>
        <time>2018-09-30T08:45:17Z</time>
      </trkpt>
      <trkpt lat="43.16845" lon="0.16639">
        <ele>429</ele>
        <time>2018-09-30T08:45:18Z</time>
      </trkpt>
      <trkpt lat="43.16853" lon="0.16641">
        <ele>428</ele>
        <time>2018-09-30T08:45:19Z</time>
      </trkpt>
      <trkpt lat="43.16861" lon="0.16643">
        <ele>427</ele>
        <time>2018-09-30T08:45:20Z</time>
      </trkpt>
      <trkpt lat="43.16869" lon="0.16641">
        <ele>426</ele>
        <time>2018-09-30T08:45:21Z</time>
      </trkpt>
      <trkpt lat="43.16875" lon="0.16638">
        <ele>425</ele>
        <time>2018-09-30T08:45:22Z</time>
      </trkpt>
      <trkpt lat="43.16882" lon="0.16635">
        <ele>425</ele>
        <time>2018-09-30T08:45:23Z</time>
      </trkpt>
      <trkpt lat="43.16888" lon="0.16632">
        <ele>424</ele>
        <time>2018-09-30T08:45:24Z</time>
      </trkpt>
      <trkpt lat="43.16894" lon="0.16629">
        <ele>411</ele>
        <time>2018-09-30T08:45:25Z</time>
      </trkpt>
      <trkpt lat="43.16899" lon="0.16627">
        <ele>407</ele>
        <time>2018-09-30T08:45:26Z</time>
      </trkpt>
      <trkpt lat="43.16904" lon="0.16625">
        <ele>405</ele>
        <time>2018-09-30T08:45:27Z</time>
      </trkpt>
      <trkpt lat="43.16907" lon="0.16624">
        <ele>403</ele>
        <time>2018-09-30T08:45:28Z</time>
      </trkpt>
      <trkpt lat="43.16911" lon="0.16623">
        <ele>402</ele>
        <time>2018-09-30T08:45:29Z</time>
      </trkpt>
      <trkpt lat="43.16915" lon="0.16623">
        <ele>401</ele>
        <time>2018-09-30T08:45:30Z</time>
      </trkpt>
      <trkpt lat="43.16917" lon="0.16626">
        <ele>401</ele>
        <time>2018-09-30T08:45:31Z</time>
      </trkpt>
      <trkpt lat="43.16918" lon="0.1663">
        <ele>400</ele>
        <time>2018-09-30T08:45:32Z</time>
      </trkpt>
      <trkpt lat="43.16917" lon="0.16634">
        <ele>400</ele>
        <time>2018-09-30T08:45:33Z</time>
      </trkpt>
      <trkpt lat="43.16915" lon="0.16635">
        <ele>400</ele>
        <time>2018-09-30T08:45:34Z</time>
      </trkpt>
      <trkpt lat="43.16913" lon="0.16639">
        <ele>399</ele>
        <time>2018-09-30T08:45:35Z</time>
      </trkpt>
      <trkpt lat="43.16912" lon="0.16644">
        <ele>399</ele>
        <time>2018-09-30T08:45:36Z</time>
      </trkpt>
      <trkpt lat="43.16913" lon="0.16648">
        <ele>399</ele>
        <time>2018-09-30T08:45:37Z</time>
      </trkpt>
      <trkpt lat="43.16915" lon="0.16652">
        <ele>399</ele>
        <time>2018-09-30T08:45:38Z</time>
      </trkpt>
      <trkpt lat="43.16919" lon="0.16651">
        <ele>398</ele>
        <time>2018-09-30T08:45:39Z</time>
      </trkpt>
      <trkpt lat="43.16923" lon="0.16646">
        <ele>398</ele>
        <time>2018-09-30T08:45:40Z</time>
      </trkpt>
      <trkpt lat="43.16928" lon="0.1664">
        <ele>397</ele>
        <time>2018-09-30T08:45:41Z</time>
      </trkpt>
      <trkpt lat="43.16933" lon="0.16635">
        <ele>397</ele>
        <time>2018-09-30T08:45:42Z</time>
      </trkpt>
      <trkpt lat="43.16939" lon="0.16631">
        <ele>396</ele>
        <time>2018-09-30T08:45:43Z</time>
      </trkpt>
      <trkpt lat="43.16946" lon="0.16628">
        <ele>396</ele>
        <time>2018-09-30T08:45:44Z</time>
      </trkpt>
      <trkpt lat="43.16954" lon="0.16625">
        <ele>389</ele>
        <time>2018-09-30T08:45:45Z</time>
      </trkpt>
      <trkpt lat="43.16962" lon="0.16621">
        <ele>387</ele>
        <time>2018-09-30T08:45:46Z</time>
      </trkpt>
      <trkpt lat="43.16969" lon="0.16617">
        <ele>386</ele>
        <time>2018-09-30T08:45:47Z</time>
      </trkpt>
      <trkpt lat="43.16976" lon="0.16612">
        <ele>385</ele>
        <time>2018-09-30T08:45:48Z</time>
      </trkpt>
      <trkpt lat="43.16983" lon="0.16606">
        <ele>384</ele>
        <time>2018-09-30T08:45:49Z</time>
      </trkpt>
      <trkpt lat="43.1699" lon="0.166">
        <ele>383</ele>
        <time>2018-09-30T08:45:50Z</time>
      </trkpt>
      <trkpt lat="43.16997" lon="0.16592">
        <ele>383</ele>
        <time>2018-09-30T08:45:51Z</time>
      </trkpt>
      <trkpt lat="43.17003" lon="0.16584">
        <ele>380</ele>
        <time>2018-09-30T08:45:52Z</time>
      </trkpt>
      <trkpt lat="43.17009" lon="0.16575">
        <ele>379</ele>
        <time>2018-09-30T08:45:53Z</time>
      </trkpt>
      <trkpt lat="43.17015" lon="0.16567">
        <ele>378</ele>
        <time>2018-09-30T08:45:54Z</time>
      </trkpt>
      <trkpt lat="43.17019" lon="0.16557">
        <ele>378</ele>
        <time>2018-09-30T08:45:55Z</time>
      </trkpt>
      <trkpt lat="43.17023" lon="0.16547">
        <ele>377</ele>
        <time>2018-09-30T08:45:56Z</time>
      </trkpt>
      <trkpt lat="43.17026" lon="0.16538">
        <ele>377</ele>
        <time>2018-09-30T08:45:57Z</time>
      </trkpt>
      <trkpt lat="43.17026" lon="0.16529">
        <ele>376</ele>
        <time>2018-09-30T08:45:58Z</time>
      </trkpt>
      <trkpt lat="43.17024" lon="0.16518">
        <ele>376</ele>
        <time>2018-09-30T08:45:59Z</time>
      </trkpt>
      <trkpt lat="43.1702" lon="0.16509">
        <ele>376</ele>
        <time>2018-09-30T08:46:00Z</time>
      </trkpt>
      <trkpt lat="43.17015" lon="0.16501">
        <ele>373</ele>
        <time>2018-09-30T08:46:01Z</time>
      </trkpt>
      <trkpt lat="43.17009" lon="0.16497">
        <ele>372</ele>
        <time>2018-09-30T08:46:02Z</time>
      </trkpt>
      <trkpt lat="43.17003" lon="0.16493">
        <ele>372</ele>
        <time>2018-09-30T08:46:03Z</time>
      </trkpt>
      <trkpt lat="43.16998" lon="0.16491">
        <ele>371</ele>
        <time>2018-09-30T08:46:04Z</time>
      </trkpt>
      <trkpt lat="43.16992" lon="0.16488">
        <ele>371</ele>
        <time>2018-09-30T08:46:05Z</time>
      </trkpt>
      <trkpt lat="43.16988" lon="0.16482">
        <ele>370</ele>
        <time>2018-09-30T08:46:06Z</time>
      </trkpt>
      <trkpt lat="43.16987" lon="0.16475">
        <ele>370</ele>
        <time>2018-09-30T08:46:07Z</time>
      </trkpt>
      <trkpt lat="43.16987" lon="0.1647">
        <ele>370</ele>
        <time>2018-09-30T08:46:08Z</time>
      </trkpt>
      <trkpt lat="43.1699" lon="0.16468">
        <ele>369</ele>
        <time>2018-09-30T08:46:09Z</time>
      </trkpt>
      <trkpt lat="43.16993" lon="0.16467">
        <ele>369</ele>
        <time>2018-09-30T08:46:10Z</time>
      </trkpt>
      <trkpt lat="43.16997" lon="0.16467">
        <ele>369</ele>
        <time>2018-09-30T08:46:11Z</time>
      </trkpt>
      <trkpt lat="43.17" lon="0.16468">
        <ele>368</ele>
        <time>2018-09-30T08:46:12Z</time>
      </trkpt>
      <trkpt lat="43.17004" lon="0.1647">
        <ele>368</ele>
        <time>2018-09-30T08:46:13Z</time>
      </trkpt>
      <trkpt lat="43.17008" lon="0.16472">
        <ele>368</ele>
        <time>2018-09-30T08:46:14Z</time>
      </trkpt>
      <trkpt lat="43.17014" lon="0.16474">
        <ele>368</ele>
        <time>2018-09-30T08:46:15Z</time>
      </trkpt>
      <trkpt lat="43.17021" lon="0.16476">
        <ele>367</ele>
        <time>2018-09-30T08:46:16Z</time>
      </trkpt>
      <trkpt lat="43.17028" lon="0.16478">
        <ele>367</ele>
        <time>2018-09-30T08:46:17Z</time>
      </trkpt>
      <trkpt lat="43.17035" lon="0.16481">
        <ele>367</ele>
        <time>2018-09-30T08:46:18Z</time>
      </trkpt>
      <trkpt lat="43.17042" lon="0.16484">
        <ele>367</ele>
        <time>2018-09-30T08:46:19Z</time>
      </trkpt>
      <trkpt lat="43.17049" lon="0.16488">
        <ele>366</ele>
        <time>2018-09-30T08:46:20Z</time>
      </trkpt>
      <trkpt lat="43.17058" lon="0.16492">
        <ele>366</ele>
        <time>2018-09-30T08:46:21Z</time>
      </trkpt>
      <trkpt lat="43.17066" lon="0.16495">
        <ele>366</ele>
        <time>2018-09-30T08:46:22Z</time>
      </trkpt>
      <trkpt lat="43.17076" lon="0.16498">
        <ele>363</ele>
        <time>2018-09-30T08:46:23Z</time>
      </trkpt>
      <trkpt lat="43.17087" lon="0.165">
        <ele>363</ele>
        <time>2018-09-30T08:46:24Z</time>
      </trkpt>
      <trkpt lat="43.17096" lon="0.16502">
        <ele>362</ele>
        <time>2018-09-30T08:46:25Z</time>
      </trkpt>
      <trkpt lat="43.17104" lon="0.16504">
        <ele>362</ele>
        <time>2018-09-30T08:46:26Z</time>
      </trkpt>
      <trkpt lat="43.17114" lon="0.16506">
        <ele>360</ele>
        <time>2018-09-30T08:46:27Z</time>
      </trkpt>
      <trkpt lat="43.17123" lon="0.16509">
        <ele>360</ele>
        <time>2018-09-30T08:46:28Z</time>
      </trkpt>
      <trkpt lat="43.17133" lon="0.16513">
        <ele>359</ele>
        <time>2018-09-30T08:46:29Z</time>
      </trkpt>
      <trkpt lat="43.17142" lon="0.16517">
        <ele>359</ele>
        <time>2018-09-30T08:46:30Z</time>
      </trkpt>
      <trkpt lat="43.17151" lon="0.16521">
        <ele>358</ele>
        <time>2018-09-30T08:46:31Z</time>
      </trkpt>
      <trkpt lat="43.1716" lon="0.16526">
        <ele>358</ele>
        <time>2018-09-30T08:46:32Z</time>
      </trkpt>
      <trkpt lat="43.17169" lon="0.16531">
        <ele>357</ele>
        <time>2018-09-30T08:46:33Z</time>
      </trkpt>
      <trkpt lat="43.17178" lon="0.16535">
        <ele>357</ele>
        <time>2018-09-30T08:46:34Z</time>
      </trkpt>
      <trkpt lat="43.17186" lon="0.16539">
        <ele>357</ele>
        <time>2018-09-30T08:46:35Z</time>
      </trkpt>
      <trkpt lat="43.17195" lon="0.16543">
        <ele>356</ele>
        <time>2018-09-30T08:46:36Z</time>
      </trkpt>
      <trkpt lat="43.17205" lon="0.16548">
        <ele>356</ele>
        <time>2018-09-30T08:46:37Z</time>
      </trkpt>
      <trkpt lat="43.17214" lon="0.16552">
        <ele>355</ele>
        <time>2018-09-30T08:46:38Z</time>
      </trkpt>
      <trkpt lat="43.17222" lon="0.16557">
        <ele>355</ele>
        <time>2018-09-30T08:46:39Z</time>
      </trkpt>
      <trkpt lat="43.17231" lon="0.16561">
        <ele>354</ele>
        <time>2018-09-30T08:46:40Z</time>
      </trkpt>
      <trkpt lat="43.17238" lon="0.16567">
        <ele>353</ele>
        <time>2018-09-30T08:46:41Z</time>
      </trkpt>
      <trkpt lat="43.17244" lon="0.16572">
        <ele>353</ele>
        <time>2018-09-30T08:46:42Z</time>
      </trkpt>
      <trkpt lat="43.17248" lon="0.16575">
        <ele>353</ele>
        <time>2018-09-30T08:46:43Z</time>
      </trkpt>
      <trkpt lat="43.17251" lon="0.16577">
        <ele>352</ele>
        <time>2018-09-30T08:46:44Z</time>
      </trkpt>
      <trkpt lat="43.17252" lon="0.16576">
        <ele>352</ele>
        <time>2018-09-30T08:46:45Z</time>
      </trkpt>
      <trkpt lat="43.17253" lon="0.16573">
        <ele>352</ele>
        <time>2018-09-30T08:46:46Z</time>
      </trkpt>
      <trkpt lat="43.17254" lon="0.16569">
        <ele>352</ele>
        <time>2018-09-30T08:46:47Z</time>
      </trkpt>
      <trkpt lat="43.17252" lon="0.16565">
        <ele>352</ele>
        <time>2018-09-30T08:46:48Z</time>
      </trkpt>
      <trkpt lat="43.17249" lon="0.16559">
        <ele>352</ele>
        <time>2018-09-30T08:46:49Z</time>
      </trkpt>
      <trkpt lat="43.17246" lon="0.1655">
        <ele>352</ele>
        <time>2018-09-30T08:46:50Z</time>
      </trkpt>
      <trkpt lat="43.17244" lon="0.1654">
        <ele>352</ele>
        <time>2018-09-30T08:46:51Z</time>
      </trkpt>
      <trkpt lat="43.17242" lon="0.1653">
        <ele>352</ele>
        <time>2018-09-30T08:46:52Z</time>
      </trkpt>
      <trkpt lat="43.1724" lon="0.16522">
        <ele>351</ele>
        <time>2018-09-30T08:46:53Z</time>
      </trkpt>
      <trkpt lat="43.17238" lon="0.16514">
        <ele>351</ele>
        <time>2018-09-30T08:46:54Z</time>
      </trkpt>
      <trkpt lat="43.17235" lon="0.16508">
        <ele>351</ele>
        <time>2018-09-30T08:46:55Z</time>
      </trkpt>
      <trkpt lat="43.17232" lon="0.16502">
        <ele>351</ele>
        <time>2018-09-30T08:46:56Z</time>
      </trkpt>
      <trkpt lat="43.17229" lon="0.16496">
        <ele>350</ele>
        <time>2018-09-30T08:46:57Z</time>
      </trkpt>
      <trkpt lat="43.17226" lon="0.16491">
        <ele>350</ele>
        <time>2018-09-30T08:46:58Z</time>
      </trkpt>
      <trkpt lat="43.17222" lon="0.16485">
        <ele>350</ele>
        <time>2018-09-30T08:46:59Z</time>
      </trkpt>
      <trkpt lat="43.17218" lon="0.16479">
        <ele>350</ele>
        <time>2018-09-30T08:47:00Z</time>
      </trkpt>
      <trkpt lat="43.17214" lon="0.16475">
        <ele>349</ele>
        <time>2018-09-30T08:47:01Z</time>
      </trkpt>
      <trkpt lat="43.1721" lon="0.16471">
        <ele>349</ele>
        <time>2018-09-30T08:47:02Z</time>
      </trkpt>
      <trkpt lat="43.17206" lon="0.16467">
        <ele>349</ele>
        <time>2018-09-30T08:47:03Z</time>
      </trkpt>
      <trkpt lat="43.17201" lon="0.16464">
        <ele>349</ele>
        <time>2018-09-30T08:47:04Z</time>
      </trkpt>
      <trkpt lat="43.17196" lon="0.16461">
        <ele>349</ele>
        <time>2018-09-30T08:47:05Z</time>
      </trkpt>
      <trkpt lat="43.1719" lon="0.16458">
        <ele>349</ele>
        <time>2018-09-30T08:47:06Z</time>
      </trkpt>
      <trkpt lat="43.17186" lon="0.16458">
        <ele>349</ele>
        <time>2018-09-30T08:47:07Z</time>
      </trkpt>
      <trkpt lat="43.17181" lon="0.16457">
        <ele>349</ele>
        <time>2018-09-30T08:47:08Z</time>
      </trkpt>
      <trkpt lat="43.17175" lon="0.16454">
        <ele>347</ele>
        <time>2018-09-30T08:47:09Z</time>
      </trkpt>
      <trkpt lat="43.17168" lon="0.16451">
        <ele>347</ele>
        <time>2018-09-30T08:47:10Z</time>
      </trkpt>
      <trkpt lat="43.17162" lon="0.1645">
        <ele>346</ele>
        <time>2018-09-30T08:47:11Z</time>
      </trkpt>
      <trkpt lat="43.17158" lon="0.16448">
        <ele>345</ele>
        <time>2018-09-30T08:47:12Z</time>
      </trkpt>
      <trkpt lat="43.17152" lon="0.16446">
        <ele>345</ele>
        <time>2018-09-30T08:47:13Z</time>
      </trkpt>
      <trkpt lat="43.17146" lon="0.16445">
        <ele>343</ele>
        <time>2018-09-30T08:47:14Z</time>
      </trkpt>
      <trkpt lat="43.17139" lon="0.16443">
        <ele>342</ele>
        <time>2018-09-30T08:47:15Z</time>
      </trkpt>
      <trkpt lat="43.17133" lon="0.16442">
        <ele>342</ele>
        <time>2018-09-30T08:47:16Z</time>
      </trkpt>
      <trkpt lat="43.17126" lon="0.16441">
        <ele>341</ele>
        <time>2018-09-30T08:47:17Z</time>
      </trkpt>
      <trkpt lat="43.17119" lon="0.16441">
        <ele>341</ele>
        <time>2018-09-30T08:47:18Z</time>
      </trkpt>
      <trkpt lat="43.17114" lon="0.1644">
        <ele>342</ele>
        <time>2018-09-30T08:47:19Z</time>
      </trkpt>
      <trkpt lat="43.17108" lon="0.16439">
        <ele>342</ele>
        <time>2018-09-30T08:47:20Z</time>
      </trkpt>
      <trkpt lat="43.17102" lon="0.16437">
        <ele>342</ele>
        <time>2018-09-30T08:47:21Z</time>
      </trkpt>
      <trkpt lat="43.17097" lon="0.16435">
        <ele>342</ele>
        <time>2018-09-30T08:47:22Z</time>
      </trkpt>
      <trkpt lat="43.17093" lon="0.16432">
        <ele>342</ele>
        <time>2018-09-30T08:47:23Z</time>
      </trkpt>
      <trkpt lat="43.17091" lon="0.16428">
        <ele>343</ele>
        <time>2018-09-30T08:47:24Z</time>
      </trkpt>
      <trkpt lat="43.17088" lon="0.16425">
        <ele>343</ele>
        <time>2018-09-30T08:47:25Z</time>
      </trkpt>
      <trkpt lat="43.17085" lon="0.16419">
        <ele>344</ele>
        <time>2018-09-30T08:47:26Z</time>
      </trkpt>
      <trkpt lat="43.17081" lon="0.16414">
        <ele>344</ele>
        <time>2018-09-30T08:47:27Z</time>
      </trkpt>
      <trkpt lat="43.17078" lon="0.16408">
        <ele>344</ele>
        <time>2018-09-30T08:47:28Z</time>
      </trkpt>
      <trkpt lat="43.17075" lon="0.164">
        <ele>344</ele>
        <time>2018-09-30T08:47:29Z</time>
      </trkpt>
      <trkpt lat="43.17073" lon="0.16391">
        <ele>344</ele>
        <time>2018-09-30T08:47:30Z</time>
      </trkpt>
      <trkpt lat="43.17072" lon="0.16384">
        <ele>344</ele>
        <time>2018-09-30T08:47:31Z</time>
      </trkpt>
      <trkpt lat="43.17071" lon="0.16377">
        <ele>344</ele>
        <time>2018-09-30T08:47:32Z</time>
      </trkpt>
      <trkpt lat="43.17071" lon="0.16371">
        <ele>344</ele>
        <time>2018-09-30T08:47:33Z</time>
      </trkpt>
      <trkpt lat="43.1707" lon="0.16366">
        <ele>344</ele>
        <time>2018-09-30T08:47:34Z</time>
      </trkpt>
      <trkpt lat="43.1707" lon="0.16363">
        <ele>344</ele>
        <time>2018-09-30T08:47:35Z</time>
      </trkpt>
      <trkpt lat="43.17069" lon="0.1636">
        <ele>344</ele>
        <time>2018-09-30T08:47:36Z</time>
      </trkpt>
      <trkpt lat="43.17066" lon="0.16355">
        <ele>344</ele>
        <time>2018-09-30T08:47:37Z</time>
      </trkpt>
      <trkpt lat="43.17065" lon="0.16353">
        <ele>344</ele>
        <time>2018-09-30T08:47:38Z</time>
      </trkpt>
      <trkpt lat="43.17062" lon="0.1635">
        <ele>344</ele>
        <time>2018-09-30T08:47:39Z</time>
      </trkpt>
      <trkpt lat="43.1706" lon="0.16347">
        <ele>344</ele>
        <time>2018-09-30T08:47:40Z</time>
      </trkpt>
      <trkpt lat="43.17057" lon="0.16344">
        <ele>344</ele>
        <time>2018-09-30T08:47:41Z</time>
      </trkpt>
      <trkpt lat="43.17056" lon="0.16342">
        <ele>344</ele>
        <time>2018-09-30T08:47:42Z</time>
      </trkpt>
      <trkpt lat="43.17053" lon="0.1634">
        <ele>344</ele>
        <time>2018-09-30T08:47:43Z</time>
      </trkpt>
      <trkpt lat="43.17053" lon="0.1634">
        <ele>344</ele>
        <time>2018-09-30T08:47:44Z</time>
      </trkpt>
      <trkpt lat="43.17053" lon="0.1634">
        <ele>344</ele>
        <time>2018-09-30T08:47:45Z</time>
      </trkpt>
      <trkpt lat="43.17046" lon="0.16333">
        <ele>344</ele>
        <time>2018-09-30T08:47:46Z</time>
      </trkpt>
      <trkpt lat="43.17046" lon="0.16333">
        <ele>344</ele>
        <time>2018-09-30T08:47:47Z</time>
      </trkpt>
      <trkpt lat="43.17041" lon="0.16331">
        <ele>344</ele>
        <time>2018-09-30T08:47:48Z</time>
      </trkpt>
      <trkpt lat="43.17041" lon="0.16331">
        <ele>345</ele>
        <time>2018-09-30T08:47:49Z</time>
      </trkpt>
      <trkpt lat="43.17041" lon="0.16331">
        <ele>345</ele>
        <time>2018-09-30T08:47:50Z</time>
      </trkpt>
      <trkpt lat="43.17031" lon="0.16326">
        <ele>345</ele>
        <time>2018-09-30T08:47:51Z</time>
      </trkpt>
      <trkpt lat="43.17031" lon="0.16326">
        <ele>345</ele>
        <time>2018-09-30T08:47:52Z</time>
      </trkpt>
      <trkpt lat="43.17031" lon="0.16326">
        <ele>345</ele>
        <time>2018-09-30T08:47:53Z</time>
      </trkpt>
      <trkpt lat="43.17031" lon="0.16326">
        <ele>345</ele>
        <time>2018-09-30T08:47:54Z</time>
      </trkpt>
      <trkpt lat="43.17022" lon="0.16322">
        <ele>345</ele>
        <time>2018-09-30T08:47:55Z</time>
      </trkpt>
      <trkpt lat="43.17022" lon="0.16322">
        <ele>346</ele>
        <time>2018-09-30T08:47:56Z</time>
      </trkpt>
      <trkpt lat="43.17022" lon="0.16322">
        <ele>346</ele>
        <time>2018-09-30T08:47:57Z</time>
      </trkpt>
      <trkpt lat="43.17022" lon="0.16322">
        <ele>346</ele>
        <time>2018-09-30T08:47:58Z</time>
      </trkpt>
      <trkpt lat="43.17022" lon="0.16322">
        <ele>346</ele>
        <time>2018-09-30T08:47:59Z</time>
      </trkpt>
      <trkpt lat="43.17022" lon="0.16322">
        <ele>346</ele>
        <time>2018-09-30T08:48:00Z</time>
      </trkpt>
      <trkpt lat="43.17022" lon="0.16322">
        <ele>346</ele>
        <time>2018-09-30T08:48:01Z</time>
      </trkpt>
      <trkpt lat="43.17022" lon="0.16322">
        <ele>346</ele>
        <time>2018-09-30T08:48:02Z</time>
      </trkpt>
      <trkpt lat="43.17022" lon="0.16322">
        <ele>347</ele>
        <time>2018-09-30T08:48:03Z</time>
      </trkpt>
      <trkpt lat="43.17022" lon="0.16322">
        <ele>347</ele>
        <time>2018-09-30T08:48:04Z</time>
      </trkpt>
      <trkpt lat="43.17022" lon="0.16322">
        <ele>347</ele>
        <time>2018-09-30T08:48:05Z</time>
      </trkpt>
      <trkpt lat="43.17022" lon="0.16322">
        <ele>347</ele>
        <time>2018-09-30T08:48:06Z</time>
      </trkpt>
      <trkpt lat="43.17022" lon="0.16322">
        <ele>347</ele>
        <time>2018-09-30T08:48:07Z</time>
      </trkpt>
      <trkpt lat="43.17022" lon="0.16322">
        <ele>348</ele>
        <time>2018-09-30T08:48:08Z</time>
      </trkpt>
      <trkpt lat="43.17022" lon="0.16322">
        <ele>348</ele>
        <time>2018-09-30T08:48:09Z</time>
      </trkpt>
      <trkpt lat="43.17022" lon="0.16322">
        <ele>348</ele>
        <time>2018-09-30T08:48:10Z</time>
      </trkpt>
      <trkpt lat="43.17014" lon="0.16313">
        <ele>348</ele>
        <time>2018-09-30T08:48:11Z</time>
      </trkpt>
      <trkpt lat="43.17014" lon="0.16313">
        <ele>348</ele>
        <time>2018-09-30T08:48:12Z</time>
      </trkpt>
      <trkpt lat="43.17014" lon="0.16313">
        <ele>348</ele>
        <time>2018-09-30T08:48:13Z</time>
      </trkpt>
      <trkpt lat="43.17014" lon="0.16313">
        <ele>349</ele>
        <time>2018-09-30T08:48:14Z</time>
      </trkpt>
      <trkpt lat="43.17014" lon="0.16313">
        <ele>349</ele>
        <time>2018-09-30T08:48:15Z</time>
      </trkpt>
      <trkpt lat="43.17014" lon="0.16313">
        <ele>349</ele>
        <time>2018-09-30T08:48:16Z</time>
      </trkpt>
      <trkpt lat="43.17014" lon="0.16313">
        <ele>349</ele>
        <time>2018-09-30T08:48:17Z</time>
      </trkpt>
      <trkpt lat="43.17014" lon="0.16313">
        <ele>349</ele>
        <time>2018-09-30T08:48:18Z</time>
      </trkpt>
      <trkpt lat="43.17014" lon="0.16313">
        <ele>349</ele>
        <time>2018-09-30T08:48:19Z</time>
      </trkpt>
      <trkpt lat="43.17014" lon="0.16313">
        <ele>349</ele>
        <time>2018-09-30T08:48:20Z</time>
      </trkpt>
      <trkpt lat="43.17014" lon="0.16313">
        <ele>350</ele>
        <time>2018-09-30T08:48:21Z</time>
      </trkpt>
      <trkpt lat="43.17014" lon="0.16313">
        <ele>350</ele>
        <time>2018-09-30T08:48:22Z</time>
      </trkpt>
      <trkpt lat="43.17014" lon="0.16313">
        <ele>350</ele>
        <time>2018-09-30T08:48:23Z</time>
      </trkpt>
      <trkpt lat="43.17014" lon="0.16313">
        <ele>350</ele>
        <time>2018-09-30T08:48:24Z</time>
      </trkpt>
      <trkpt lat="43.17014" lon="0.16313">
        <ele>350</ele>
        <time>2018-09-30T08:48:25Z</time>
      </trkpt>
      <trkpt lat="43.17014" lon="0.16313">
        <ele>350</ele>
        <time>2018-09-30T08:48:26Z</time>
      </trkpt>
      <trkpt lat="43.17014" lon="0.16313">
        <ele>350</ele>
        <time>2018-09-30T08:48:27Z</time>
      </trkpt>
      <trkpt lat="43.17014" lon="0.16313">
        <ele>350</ele>
        <time>2018-09-30T08:48:28Z</time>
      </trkpt>
      <trkpt lat="43.17011" lon="0.16301">
        <ele>353</ele>
        <time>2018-09-30T08:48:29Z</time>
      </trkpt>
      <trkpt lat="43.17011" lon="0.16301">
        <ele>354</ele>
        <time>2018-09-30T08:48:30Z</time>
      </trkpt>
      <trkpt lat="43.17011" lon="0.16301">
        <ele>355</ele>
        <time>2018-09-30T08:48:31Z</time>
      </trkpt>
      <trkpt lat="43.17011" lon="0.16301">
        <ele>355</ele>
        <time>2018-09-30T08:48:32Z</time>
      </trkpt>
      <trkpt lat="43.17011" lon="0.16301">
        <ele>355</ele>
        <time>2018-09-30T08:48:33Z</time>
      </trkpt>
      <trkpt lat="43.17011" lon="0.16301">
        <ele>355</ele>
        <time>2018-09-30T08:48:34Z</time>
      </trkpt>
      <trkpt lat="43.17011" lon="0.16301">
        <ele>355</ele>
        <time>2018-09-30T08:48:35Z</time>
      </trkpt>
      <trkpt lat="43.17011" lon="0.16301">
        <ele>356</ele>
        <time>2018-09-30T08:48:36Z</time>
      </trkpt>
      <trkpt lat="43.17011" lon="0.16301">
        <ele>356</ele>
        <time>2018-09-30T08:48:37Z</time>
      </trkpt>
      <trkpt lat="43.17011" lon="0.16301">
        <ele>356</ele>
        <time>2018-09-30T08:48:38Z</time>
      </trkpt>
      <trkpt lat="43.17011" lon="0.16301">
        <ele>356</ele>
        <time>2018-09-30T08:48:39Z</time>
      </trkpt>
      <trkpt lat="43.17011" lon="0.16301">
        <ele>356</ele>
        <time>2018-09-30T08:48:40Z</time>
      </trkpt>
      <trkpt lat="43.17011" lon="0.16301">
        <ele>356</ele>
        <time>2018-09-30T08:48:41Z</time>
      </trkpt>
      <trkpt lat="43.17011" lon="0.16301">
        <ele>356</ele>
        <time>2018-09-30T08:48:42Z</time>
      </trkpt>
      <trkpt lat="43.17011" lon="0.16301">
        <ele>356</ele>
        <time>2018-09-30T08:48:43Z</time>
      </trkpt>
      <trkpt lat="43.17011" lon="0.16301">
        <ele>356</ele>
        <time>2018-09-30T08:48:44Z</time>
      </trkpt>
      <trkpt lat="43.17017" lon="0.16291">
        <ele>356</ele>
        <time>2018-09-30T08:48:45Z</time>
      </trkpt>
      <trkpt lat="43.17017" lon="0.16291">
        <ele>357</ele>
        <time>2018-09-30T08:48:46Z</time>
      </trkpt>
      <trkpt lat="43.17017" lon="0.16291">
        <ele>357</ele>
        <time>2018-09-30T08:48:47Z</time>
      </trkpt>
      <trkpt lat="43.17017" lon="0.16291">
        <ele>357</ele>
        <time>2018-09-30T08:48:48Z</time>
      </trkpt>
      <trkpt lat="43.17017" lon="0.16291">
        <ele>357</ele>
        <time>2018-09-30T08:48:49Z</time>
      </trkpt>
      <trkpt lat="43.17017" lon="0.16291">
        <ele>357</ele>
        <time>2018-09-30T08:48:50Z</time>
      </trkpt>
      <trkpt lat="43.17017" lon="0.16291">
        <ele>357</ele>
        <time>2018-09-30T08:48:51Z</time>
      </trkpt>
      <trkpt lat="43.17017" lon="0.16291">
        <ele>357</ele>
        <time>2018-09-30T08:48:52Z</time>
      </trkpt>
      <trkpt lat="43.17017" lon="0.16291">
        <ele>357</ele>
        <time>2018-09-30T08:48:53Z</time>
      </trkpt>
      <trkpt lat="43.17017" lon="0.16291">
        <ele>357</ele>
        <time>2018-09-30T08:48:54Z</time>
      </trkpt>
      <trkpt lat="43.17027" lon="0.16289">
        <ele>357</ele>
        <time>2018-09-30T08:48:55Z</time>
      </trkpt>
      <trkpt lat="43.17027" lon="0.16289">
        <ele>357</ele>
        <time>2018-09-30T08:48:56Z</time>
      </trkpt>
      <trkpt lat="43.17027" lon="0.16289">
        <ele>357</ele>
        <time>2018-09-30T08:48:57Z</time>
      </trkpt>
      <trkpt lat="43.17027" lon="0.16289">
        <ele>357</ele>
        <time>2018-09-30T08:48:58Z</time>
      </trkpt>
      <trkpt lat="43.17035" lon="0.16294">
        <ele>357</ele>
        <time>2018-09-30T08:48:59Z</time>
      </trkpt>
      <trkpt lat="43.17037" lon="0.16296">
        <ele>357</ele>
        <time>2018-09-30T08:49:00Z</time>
      </trkpt>
      <trkpt lat="43.17037" lon="0.16296">
        <ele>357</ele>
        <time>2018-09-30T08:49:01Z</time>
      </trkpt>
      <trkpt lat="43.17037" lon="0.16296">
        <ele>358</ele>
        <time>2018-09-30T08:49:02Z</time>
      </trkpt>
      <trkpt lat="43.17037" lon="0.16296">
        <ele>358</ele>
        <time>2018-09-30T08:49:03Z</time>
      </trkpt>
      <trkpt lat="43.17037" lon="0.16296">
        <ele>358</ele>
        <time>2018-09-30T08:49:04Z</time>
      </trkpt>
      <trkpt lat="43.17037" lon="0.16296">
        <ele>358</ele>
        <time>2018-09-30T08:49:05Z</time>
      </trkpt>
      <trkpt lat="43.17037" lon="0.16296">
        <ele>358</ele>
        <time>2018-09-30T08:49:06Z</time>
      </trkpt>
      <trkpt lat="43.17037" lon="0.16296">
        <ele>358</ele>
        <time>2018-09-30T08:49:07Z</time>
      </trkpt>
      <trkpt lat="43.17046" lon="0.16302">
        <ele>358</ele>
        <time>2018-09-30T08:49:08Z</time>
      </trkpt>
      <trkpt lat="43.17049" lon="0.16305">
        <ele>358</ele>
        <time>2018-09-30T08:49:09Z</time>
      </trkpt>
      <trkpt lat="43.17049" lon="0.16305">
        <ele>358</ele>
        <time>2018-09-30T08:49:10Z</time>
      </trkpt>
      <trkpt lat="43.17053" lon="0.16307">
        <ele>358</ele>
        <time>2018-09-30T08:49:11Z</time>
      </trkpt>
      <trkpt lat="43.17053" lon="0.16307">
        <ele>358</ele>
        <time>2018-09-30T08:49:12Z</time>
      </trkpt>
      <trkpt lat="43.17053" lon="0.16307">
        <ele>358</ele>
        <time>2018-09-30T08:49:13Z</time>
      </trkpt>
      <trkpt lat="43.1706" lon="0.16311">
        <ele>358</ele>
        <time>2018-09-30T08:49:14Z</time>
      </trkpt>
      <trkpt lat="43.1706" lon="0.16311">
        <ele>358</ele>
        <time>2018-09-30T08:49:15Z</time>
      </trkpt>
      <trkpt lat="43.1706" lon="0.16311">
        <ele>358</ele>
        <time>2018-09-30T08:49:16Z</time>
      </trkpt>
      <trkpt lat="43.1706" lon="0.16311">
        <ele>358</ele>
        <time>2018-09-30T08:49:17Z</time>
      </trkpt>
      <trkpt lat="43.17068" lon="0.16315">
        <ele>360</ele>
        <time>2018-09-30T08:49:18Z</time>
      </trkpt>
      <trkpt lat="43.17068" lon="0.16315">
        <ele>361</ele>
        <time>2018-09-30T08:49:19Z</time>
      </trkpt>
      <trkpt lat="43.17068" lon="0.16315">
        <ele>361</ele>
        <time>2018-09-30T08:49:20Z</time>
      </trkpt>
      <trkpt lat="43.17068" lon="0.16315">
        <ele>361</ele>
        <time>2018-09-30T08:49:21Z</time>
      </trkpt>
      <trkpt lat="43.17068" lon="0.16315">
        <ele>361</ele>
        <time>2018-09-30T08:49:22Z</time>
      </trkpt>
      <trkpt lat="43.17068" lon="0.16315">
        <ele>362</ele>
        <time>2018-09-30T08:49:23Z</time>
      </trkpt>
      <trkpt lat="43.17078" lon="0.16319">
        <ele>362</ele>
        <time>2018-09-30T08:49:24Z</time>
      </trkpt>
      <trkpt lat="43.17078" lon="0.16319">
        <ele>362</ele>
        <time>2018-09-30T08:49:25Z</time>
      </trkpt>
      <trkpt lat="43.17085" lon="0.16327">
        <ele>362</ele>
        <time>2018-09-30T08:49:26Z</time>
      </trkpt>
      <trkpt lat="43.17089" lon="0.1633">
        <ele>362</ele>
        <time>2018-09-30T08:49:27Z</time>
      </trkpt>
      <trkpt lat="43.17091" lon="0.16332">
        <ele>362</ele>
        <time>2018-09-30T08:49:28Z</time>
      </trkpt>
      <trkpt lat="43.17094" lon="0.16334">
        <ele>362</ele>
        <time>2018-09-30T08:49:29Z</time>
      </trkpt>
      <trkpt lat="43.17097" lon="0.16335">
        <ele>362</ele>
        <time>2018-09-30T08:49:30Z</time>
      </trkpt>
      <trkpt lat="43.17097" lon="0.16335">
        <ele>362</ele>
        <time>2018-09-30T08:49:31Z</time>
      </trkpt>
      <trkpt lat="43.17097" lon="0.16335">
        <ele>363</ele>
        <time>2018-09-30T08:49:32Z</time>
      </trkpt>
      <trkpt lat="43.17097" lon="0.16335">
        <ele>363</ele>
        <time>2018-09-30T08:49:33Z</time>
      </trkpt>
      <trkpt lat="43.17097" lon="0.16335">
        <ele>363</ele>
        <time>2018-09-30T08:49:34Z</time>
      </trkpt>
      <trkpt lat="43.17097" lon="0.16335">
        <ele>363</ele>
        <time>2018-09-30T08:49:35Z</time>
      </trkpt>
      <trkpt lat="43.17106" lon="0.16338">
        <ele>363</ele>
        <time>2018-09-30T08:49:36Z</time>
      </trkpt>
      <trkpt lat="43.17106" lon="0.16338">
        <ele>363</ele>
        <time>2018-09-30T08:49:37Z</time>
      </trkpt>
      <trkpt lat="43.17106" lon="0.16338">
        <ele>363</ele>
        <time>2018-09-30T08:49:38Z</time>
      </trkpt>
      <trkpt lat="43.17106" lon="0.16338">
        <ele>363</ele>
        <time>2018-09-30T08:49:39Z</time>
      </trkpt>
      <trkpt lat="43.17106" lon="0.16338">
        <ele>364</ele>
        <time>2018-09-30T08:49:40Z</time>
      </trkpt>
      <trkpt lat="43.17106" lon="0.16338">
        <ele>364</ele>
        <time>2018-09-30T08:49:41Z</time>
      </trkpt>
      <trkpt lat="43.17106" lon="0.16338">
        <ele>364</ele>
        <time>2018-09-30T08:49:42Z</time>
      </trkpt>
      <trkpt lat="43.17106" lon="0.16338">
        <ele>364</ele>
        <time>2018-09-30T08:49:43Z</time>
      </trkpt>
      <trkpt lat="43.17106" lon="0.16338">
        <ele>364</ele>
        <time>2018-09-30T08:49:44Z</time>
      </trkpt>
      <trkpt lat="43.17115" lon="0.16342">
        <ele>364</ele>
        <time>2018-09-30T08:49:45Z</time>
      </trkpt>
      <trkpt lat="43.17115" lon="0.16342">
        <ele>364</ele>
        <time>2018-09-30T08:49:46Z</time>
      </trkpt>
      <trkpt lat="43.17115" lon="0.16342">
        <ele>364</ele>
        <time>2018-09-30T08:49:47Z</time>
      </trkpt>
      <trkpt lat="43.17115" lon="0.16342">
        <ele>364</ele>
        <time>2018-09-30T08:49:48Z</time>
      </trkpt>
      <trkpt lat="43.17115" lon="0.16342">
        <ele>364</ele>
        <time>2018-09-30T08:49:49Z</time>
      </trkpt>
      <trkpt lat="43.17115" lon="0.16342">
        <ele>365</ele>
        <time>2018-09-30T08:49:50Z</time>
      </trkpt>
      <trkpt lat="43.17115" lon="0.16342">
        <ele>365</ele>
        <time>2018-09-30T08:49:51Z</time>
      </trkpt>
      <trkpt lat="43.17115" lon="0.16342">
        <ele>365</ele>
        <time>2018-09-30T08:49:52Z</time>
      </trkpt>
      <trkpt lat="43.17125" lon="0.16347">
        <ele>367</ele>
        <time>2018-09-30T08:49:53Z</time>
      </trkpt>
      <trkpt lat="43.17125" lon="0.16347">
        <ele>368</ele>
        <time>2018-09-30T08:49:54Z</time>
      </trkpt>
      <trkpt lat="43.17125" lon="0.16347">
        <ele>368</ele>
        <time>2018-09-30T08:49:55Z</time>
      </trkpt>
      <trkpt lat="43.17125" lon="0.16347">
        <ele>368</ele>
        <time>2018-09-30T08:49:56Z</time>
      </trkpt>
      <trkpt lat="43.17125" lon="0.16347">
        <ele>368</ele>
        <time>2018-09-30T08:49:57Z</time>
      </trkpt>
      <trkpt lat="43.17133" lon="0.16348">
        <ele>369</ele>
        <time>2018-09-30T08:49:58Z</time>
      </trkpt>
      <trkpt lat="43.17133" lon="0.16348">
        <ele>369</ele>
        <time>2018-09-30T08:49:59Z</time>
      </trkpt>
      <trkpt lat="43.17133" lon="0.16348">
        <ele>369</ele>
        <time>2018-09-30T08:50:00Z</time>
      </trkpt>
      <trkpt lat="43.17133" lon="0.16348">
        <ele>369</ele>
        <time>2018-09-30T08:50:01Z</time>
      </trkpt>
      <trkpt lat="43.17133" lon="0.16348">
        <ele>369</ele>
        <time>2018-09-30T08:50:02Z</time>
      </trkpt>
      <trkpt lat="43.17133" lon="0.16348">
        <ele>369</ele>
        <time>2018-09-30T08:50:03Z</time>
      </trkpt>
      <trkpt lat="43.17144" lon="0.16348">
        <ele>369</ele>
        <time>2018-09-30T08:50:04Z</time>
      </trkpt>
      <trkpt lat="43.17144" lon="0.16348">
        <ele>369</ele>
        <time>2018-09-30T08:50:05Z</time>
      </trkpt>
      <trkpt lat="43.17147" lon="0.16347">
        <ele>370</ele>
        <time>2018-09-30T08:50:06Z</time>
      </trkpt>
      <trkpt lat="43.17149" lon="0.16346">
        <ele>370</ele>
        <time>2018-09-30T08:50:07Z</time>
      </trkpt>
      <trkpt lat="43.17149" lon="0.16346">
        <ele>370</ele>
        <time>2018-09-30T08:50:08Z</time>
      </trkpt>
      <trkpt lat="43.17149" lon="0.16346">
        <ele>370</ele>
        <time>2018-09-30T08:50:09Z</time>
      </trkpt>
      <trkpt lat="43.17149" lon="0.16346">
        <ele>370</ele>
        <time>2018-09-30T08:50:10Z</time>
      </trkpt>
      <trkpt lat="43.17149" lon="0.16346">
        <ele>370</ele>
        <time>2018-09-30T08:50:11Z</time>
      </trkpt>
      <trkpt lat="43.17159" lon="0.16343">
        <ele>370</ele>
        <time>2018-09-30T08:50:12Z</time>
      </trkpt>
      <trkpt lat="43.17159" lon="0.16343">
        <ele>370</ele>
        <time>2018-09-30T08:50:13Z</time>
      </trkpt>
      <trkpt lat="43.17162" lon="0.16342">
        <ele>370</ele>
        <time>2018-09-30T08:50:14Z</time>
      </trkpt>
      <trkpt lat="43.17164" lon="0.16342">
        <ele>370</ele>
        <time>2018-09-30T08:50:15Z</time>
      </trkpt>
      <trkpt lat="43.17164" lon="0.16342">
        <ele>370</ele>
        <time>2018-09-30T08:50:16Z</time>
      </trkpt>
      <trkpt lat="43.17164" lon="0.16342">
        <ele>370</ele>
        <time>2018-09-30T08:50:17Z</time>
      </trkpt>
      <trkpt lat="43.17164" lon="0.16342">
        <ele>370</ele>
        <time>2018-09-30T08:50:18Z</time>
      </trkpt>
      <trkpt lat="43.17164" lon="0.16342">
        <ele>370</ele>
        <time>2018-09-30T08:50:19Z</time>
      </trkpt>
      <trkpt lat="43.17164" lon="0.16342">
        <ele>370</ele>
        <time>2018-09-30T08:50:20Z</time>
      </trkpt>
      <trkpt lat="43.17164" lon="0.16342">
        <ele>370</ele>
        <time>2018-09-30T08:50:21Z</time>
      </trkpt>
      <trkpt lat="43.17175" lon="0.16339">
        <ele>370</ele>
        <time>2018-09-30T08:50:22Z</time>
      </trkpt>
      <trkpt lat="43.17177" lon="0.16339">
        <ele>370</ele>
        <time>2018-09-30T08:50:23Z</time>
      </trkpt>
      <trkpt lat="43.17179" lon="0.16338">
        <ele>370</ele>
        <time>2018-09-30T08:50:24Z</time>
      </trkpt>
      <trkpt lat="43.17181" lon="0.16339">
        <ele>370</ele>
        <time>2018-09-30T08:50:25Z</time>
      </trkpt>
      <trkpt lat="43.17181" lon="0.16339">
        <ele>370</ele>
        <time>2018-09-30T08:50:26Z</time>
      </trkpt>
      <trkpt lat="43.17181" lon="0.16339">
        <ele>370</ele>
        <time>2018-09-30T08:50:27Z</time>
      </trkpt>
      <trkpt lat="43.17181" lon="0.16339">
        <ele>371</ele>
        <time>2018-09-30T08:50:28Z</time>
      </trkpt>
      <trkpt lat="43.17181" lon="0.16339">
        <ele>371</ele>
        <time>2018-09-30T08:50:29Z</time>
      </trkpt>
      <trkpt lat="43.17181" lon="0.16339">
        <ele>371</ele>
        <time>2018-09-30T08:50:30Z</time>
      </trkpt>
      <trkpt lat="43.17181" lon="0.16339">
        <ele>371</ele>
        <time>2018-09-30T08:50:31Z</time>
      </trkpt>
      <trkpt lat="43.17191" lon="0.16342">
        <ele>371</ele>
        <time>2018-09-30T08:50:32Z</time>
      </trkpt>
      <trkpt lat="43.17191" lon="0.16342">
        <ele>371</ele>
        <time>2018-09-30T08:50:33Z</time>
      </trkpt>
      <trkpt lat="43.17191" lon="0.16342">
        <ele>371</ele>
        <time>2018-09-30T08:50:34Z</time>
      </trkpt>
      <trkpt lat="43.17191" lon="0.16342">
        <ele>371</ele>
        <time>2018-09-30T08:50:35Z</time>
      </trkpt>
      <trkpt lat="43.17191" lon="0.16342">
        <ele>372</ele>
        <time>2018-09-30T08:50:36Z</time>
      </trkpt>
      <trkpt lat="43.17191" lon="0.16342">
        <ele>372</ele>
        <time>2018-09-30T08:50:37Z</time>
      </trkpt>
      <trkpt lat="43.17201" lon="0.16349">
        <ele>372</ele>
        <time>2018-09-30T08:50:38Z</time>
      </trkpt>
      <trkpt lat="43.17201" lon="0.16349">
        <ele>372</ele>
        <time>2018-09-30T08:50:39Z</time>
      </trkpt>
      <trkpt lat="43.17201" lon="0.16349">
        <ele>372</ele>
        <time>2018-09-30T08:50:40Z</time>
      </trkpt>
      <trkpt lat="43.17201" lon="0.16349">
        <ele>372</ele>
        <time>2018-09-30T08:50:41Z</time>
      </trkpt>
      <trkpt lat="43.17201" lon="0.16349">
        <ele>372</ele>
        <time>2018-09-30T08:50:42Z</time>
      </trkpt>
      <trkpt lat="43.17201" lon="0.16349">
        <ele>372</ele>
        <time>2018-09-30T08:50:43Z</time>
      </trkpt>
      <trkpt lat="43.17201" lon="0.16349">
        <ele>372</ele>
        <time>2018-09-30T08:50:44Z</time>
      </trkpt>
      <trkpt lat="43.17209" lon="0.16356">
        <ele>372</ele>
        <time>2018-09-30T08:50:45Z</time>
      </trkpt>
      <trkpt lat="43.17209" lon="0.16356">
        <ele>372</ele>
        <time>2018-09-30T08:50:46Z</time>
      </trkpt>
      <trkpt lat="43.17209" lon="0.16356">
        <ele>372</ele>
        <time>2018-09-30T08:50:47Z</time>
      </trkpt>
      <trkpt lat="43.17209" lon="0.16356">
        <ele>372</ele>
        <time>2018-09-30T08:50:48Z</time>
      </trkpt>
      <trkpt lat="43.17209" lon="0.16356">
        <ele>372</ele>
        <time>2018-09-30T08:50:49Z</time>
      </trkpt>
      <trkpt lat="43.17209" lon="0.16356">
        <ele>372</ele>
        <time>2018-09-30T08:50:50Z</time>
      </trkpt>
      <trkpt lat="43.17209" lon="0.16356">
        <ele>372</ele>
        <time>2018-09-30T08:50:51Z</time>
      </trkpt>
      <trkpt lat="43.17218" lon="0.1636">
        <ele>373</ele>
        <time>2018-09-30T08:50:52Z</time>
      </trkpt>
      <trkpt lat="43.17218" lon="0.1636">
        <ele>373</ele>
        <time>2018-09-30T08:50:53Z</time>
      </trkpt>
      <trkpt lat="43.17218" lon="0.1636">
        <ele>373</ele>
        <time>2018-09-30T08:50:54Z</time>
      </trkpt>
      <trkpt lat="43.17223" lon="0.16368">
        <ele>374</ele>
        <time>2018-09-30T08:50:55Z</time>
      </trkpt>
      <trkpt lat="43.17223" lon="0.16368">
        <ele>374</ele>
        <time>2018-09-30T08:50:56Z</time>
      </trkpt>
      <trkpt lat="43.17223" lon="0.16368">
        <ele>374</ele>
        <time>2018-09-30T08:50:57Z</time>
      </trkpt>
      <trkpt lat="43.17223" lon="0.16368">
        <ele>374</ele>
        <time>2018-09-30T08:50:58Z</time>
      </trkpt>
      <trkpt lat="43.17223" lon="0.16368">
        <ele>374</ele>
        <time>2018-09-30T08:50:59Z</time>
      </trkpt>
      <trkpt lat="43.17223" lon="0.16368">
        <ele>374</ele>
        <time>2018-09-30T08:51:00Z</time>
      </trkpt>
      <trkpt lat="43.1723" lon="0.16377">
        <ele>374</ele>
        <time>2018-09-30T08:51:01Z</time>
      </trkpt>
      <trkpt lat="43.1723" lon="0.16377">
        <ele>374</ele>
        <time>2018-09-30T08:51:02Z</time>
      </trkpt>
      <trkpt lat="43.1723" lon="0.16377">
        <ele>374</ele>
        <time>2018-09-30T08:51:03Z</time>
      </trkpt>
      <trkpt lat="43.1723" lon="0.16377">
        <ele>375</ele>
        <time>2018-09-30T08:51:04Z</time>
      </trkpt>
      <trkpt lat="43.1723" lon="0.16377">
        <ele>375</ele>
        <time>2018-09-30T08:51:05Z</time>
      </trkpt>
      <trkpt lat="43.1723" lon="0.16377">
        <ele>375</ele>
        <time>2018-09-30T08:51:06Z</time>
      </trkpt>
      <trkpt lat="43.1723" lon="0.16377">
        <ele>375</ele>
        <time>2018-09-30T08:51:07Z</time>
      </trkpt>
      <trkpt lat="43.1723" lon="0.16377">
        <ele>375</ele>
        <time>2018-09-30T08:51:08Z</time>
      </trkpt>
      <trkpt lat="43.1723" lon="0.16377">
        <ele>375</ele>
        <time>2018-09-30T08:51:09Z</time>
      </trkpt>
      <trkpt lat="43.17238" lon="0.16383">
        <ele>375</ele>
        <time>2018-09-30T08:51:10Z</time>
      </trkpt>
      <trkpt lat="43.17238" lon="0.16383">
        <ele>376</ele>
        <time>2018-09-30T08:51:11Z</time>
      </trkpt>
      <trkpt lat="43.17238" lon="0.16383">
        <ele>376</ele>
        <time>2018-09-30T08:51:12Z</time>
      </trkpt>
      <trkpt lat="43.17238" lon="0.16383">
        <ele>376</ele>
        <time>2018-09-30T08:51:13Z</time>
      </trkpt>
      <trkpt lat="43.17238" lon="0.16383">
        <ele>376</ele>
        <time>2018-09-30T08:51:14Z</time>
      </trkpt>
      <trkpt lat="43.17238" lon="0.16383">
        <ele>376</ele>
        <time>2018-09-30T08:51:15Z</time>
      </trkpt>
      <trkpt lat="43.17238" lon="0.16383">
        <ele>376</ele>
        <time>2018-09-30T08:51:16Z</time>
      </trkpt>
      <trkpt lat="43.17238" lon="0.16383">
        <ele>376</ele>
        <time>2018-09-30T08:51:17Z</time>
      </trkpt>
      <trkpt lat="43.17249" lon="0.16382">
        <ele>378</ele>
        <time>2018-09-30T08:51:18Z</time>
      </trkpt>
      <trkpt lat="43.17249" lon="0.16382">
        <ele>379</ele>
        <time>2018-09-30T08:51:19Z</time>
      </trkpt>
      <trkpt lat="43.17249" lon="0.16382">
        <ele>379</ele>
        <time>2018-09-30T08:51:20Z</time>
      </trkpt>
      <trkpt lat="43.17249" lon="0.16382">
        <ele>379</ele>
        <time>2018-09-30T08:51:21Z</time>
      </trkpt>
      <trkpt lat="43.17249" lon="0.16382">
        <ele>379</ele>
        <time>2018-09-30T08:51:22Z</time>
      </trkpt>
      <trkpt lat="43.17249" lon="0.16382">
        <ele>380</ele>
        <time>2018-09-30T08:51:23Z</time>
      </trkpt>
      <trkpt lat="43.17249" lon="0.16382">
        <ele>380</ele>
        <time>2018-09-30T08:51:24Z</time>
      </trkpt>
      <trkpt lat="43.17258" lon="0.16377">
        <ele>380</ele>
        <time>2018-09-30T08:51:25Z</time>
      </trkpt>
      <trkpt lat="43.17258" lon="0.16377">
        <ele>380</ele>
        <time>2018-09-30T08:51:26Z</time>
      </trkpt>
      <trkpt lat="43.17258" lon="0.16377">
        <ele>380</ele>
        <time>2018-09-30T08:51:27Z</time>
      </trkpt>
      <trkpt lat="43.17263" lon="0.16376">
        <ele>380</ele>
        <time>2018-09-30T08:51:28Z</time>
      </trkpt>
      <trkpt lat="43.17265" lon="0.16375">
        <ele>380</ele>
        <time>2018-09-30T08:51:29Z</time>
      </trkpt>
      <trkpt lat="43.17265" lon="0.16375">
        <ele>381</ele>
        <time>2018-09-30T08:51:30Z</time>
      </trkpt>
      <trkpt lat="43.17268" lon="0.16376">
        <ele>381</ele>
        <time>2018-09-30T08:51:31Z</time>
      </trkpt>
      <trkpt lat="43.1727" lon="0.16377">
        <ele>381</ele>
        <time>2018-09-30T08:51:33Z</time>
      </trkpt>
      <trkpt lat="43.17273" lon="0.16379">
        <ele>381</ele>
        <time>2018-09-30T08:51:34Z</time>
      </trkpt>
      <trkpt lat="43.17276" lon="0.16381">
        <ele>381</ele>
        <time>2018-09-30T08:51:35Z</time>
      </trkpt>
      <trkpt lat="43.17278" lon="0.16383">
        <ele>383</ele>
        <time>2018-09-30T08:51:36Z</time>
      </trkpt>
      <trkpt lat="43.1728" lon="0.16384">
        <ele>383</ele>
        <time>2018-09-30T08:51:37Z</time>
      </trkpt>
      <trkpt lat="43.17283" lon="0.16387">
        <ele>383</ele>
        <time>2018-09-30T08:51:38Z</time>
      </trkpt>
      <trkpt lat="43.17285" lon="0.16389">
        <ele>384</ele>
        <time>2018-09-30T08:51:39Z</time>
      </trkpt>
      <trkpt lat="43.17288" lon="0.16391">
        <ele>384</ele>
        <time>2018-09-30T08:51:40Z</time>
      </trkpt>
      <trkpt lat="43.17291" lon="0.16394">
        <ele>384</ele>
        <time>2018-09-30T08:51:41Z</time>
      </trkpt>
      <trkpt lat="43.17295" lon="0.16397">
        <ele>384</ele>
        <time>2018-09-30T08:51:42Z</time>
      </trkpt>
      <trkpt lat="43.17298" lon="0.164">
        <ele>384</ele>
        <time>2018-09-30T08:51:43Z</time>
      </trkpt>
      <trkpt lat="43.17301" lon="0.16404">
        <ele>384</ele>
        <time>2018-09-30T08:51:44Z</time>
      </trkpt>
      <trkpt lat="43.17305" lon="0.16406">
        <ele>385</ele>
        <time>2018-09-30T08:51:45Z</time>
      </trkpt>
      <trkpt lat="43.17307" lon="0.16409">
        <ele>385</ele>
        <time>2018-09-30T08:51:46Z</time>
      </trkpt>
      <trkpt lat="43.1731" lon="0.16412">
        <ele>385</ele>
        <time>2018-09-30T08:51:47Z</time>
      </trkpt>
      <trkpt lat="43.17312" lon="0.16414">
        <ele>386</ele>
        <time>2018-09-30T08:51:48Z</time>
      </trkpt>
      <trkpt lat="43.17314" lon="0.16418">
        <ele>386</ele>
        <time>2018-09-30T08:51:49Z</time>
      </trkpt>
      <trkpt lat="43.17316" lon="0.16421">
        <ele>386</ele>
        <time>2018-09-30T08:51:50Z</time>
      </trkpt>
      <trkpt lat="43.17318" lon="0.16424">
        <ele>386</ele>
        <time>2018-09-30T08:51:51Z</time>
      </trkpt>
      <trkpt lat="43.1732" lon="0.16428">
        <ele>386</ele>
        <time>2018-09-30T08:51:52Z</time>
      </trkpt>
      <trkpt lat="43.17323" lon="0.16432">
        <ele>386</ele>
        <time>2018-09-30T08:51:53Z</time>
      </trkpt>
      <trkpt lat="43.17324" lon="0.16435">
        <ele>386</ele>
        <time>2018-09-30T08:51:54Z</time>
      </trkpt>
      <trkpt lat="43.17325" lon="0.16438">
        <ele>386</ele>
        <time>2018-09-30T08:51:55Z</time>
      </trkpt>
      <trkpt lat="43.17326" lon="0.16443">
        <ele>386</ele>
        <time>2018-09-30T08:51:56Z</time>
      </trkpt>
      <trkpt lat="43.17327" lon="0.16447">
        <ele>386</ele>
        <time>2018-09-30T08:51:57Z</time>
      </trkpt>
      <trkpt lat="43.17328" lon="0.1645">
        <ele>386</ele>
        <time>2018-09-30T08:51:58Z</time>
      </trkpt>
      <trkpt lat="43.17331" lon="0.16455">
        <ele>386</ele>
        <time>2018-09-30T08:51:59Z</time>
      </trkpt>
      <trkpt lat="43.17333" lon="0.1646">
        <ele>386</ele>
        <time>2018-09-30T08:52:00Z</time>
      </trkpt>
      <trkpt lat="43.17338" lon="0.16465">
        <ele>386</ele>
        <time>2018-09-30T08:52:01Z</time>
      </trkpt>
      <trkpt lat="43.17342" lon="0.16471">
        <ele>387</ele>
        <time>2018-09-30T08:52:02Z</time>
      </trkpt>
      <trkpt lat="43.17347" lon="0.16473">
        <ele>387</ele>
        <time>2018-09-30T08:52:03Z</time>
      </trkpt>
      <trkpt lat="43.17352" lon="0.16475">
        <ele>387</ele>
        <time>2018-09-30T08:52:04Z</time>
      </trkpt>
      <trkpt lat="43.17356" lon="0.16475">
        <ele>387</ele>
        <time>2018-09-30T08:52:05Z</time>
      </trkpt>
      <trkpt lat="43.17361" lon="0.16474">
        <ele>387</ele>
        <time>2018-09-30T08:52:06Z</time>
      </trkpt>
      <trkpt lat="43.17365" lon="0.16472">
        <ele>387</ele>
        <time>2018-09-30T08:52:07Z</time>
      </trkpt>
      <trkpt lat="43.1737" lon="0.16471">
        <ele>387</ele>
        <time>2018-09-30T08:52:08Z</time>
      </trkpt>
      <trkpt lat="43.17375" lon="0.1647">
        <ele>387</ele>
        <time>2018-09-30T08:52:09Z</time>
      </trkpt>
      <trkpt lat="43.1738" lon="0.16468">
        <ele>387</ele>
        <time>2018-09-30T08:52:10Z</time>
      </trkpt>
      <trkpt lat="43.17386" lon="0.16466">
        <ele>387</ele>
        <time>2018-09-30T08:52:11Z</time>
      </trkpt>
      <trkpt lat="43.17391" lon="0.16464">
        <ele>387</ele>
        <time>2018-09-30T08:52:12Z</time>
      </trkpt>
      <trkpt lat="43.17397" lon="0.16462">
        <ele>388</ele>
        <time>2018-09-30T08:52:13Z</time>
      </trkpt>
      <trkpt lat="43.17403" lon="0.1646">
        <ele>388</ele>
        <time>2018-09-30T08:52:14Z</time>
      </trkpt>
      <trkpt lat="43.17408" lon="0.16459">
        <ele>389</ele>
        <time>2018-09-30T08:52:15Z</time>
      </trkpt>
      <trkpt lat="43.17414" lon="0.16457">
        <ele>389</ele>
        <time>2018-09-30T08:52:16Z</time>
      </trkpt>
      <trkpt lat="43.17419" lon="0.16455">
        <ele>390</ele>
        <time>2018-09-30T08:52:17Z</time>
      </trkpt>
      <trkpt lat="43.17424" lon="0.16453">
        <ele>390</ele>
        <time>2018-09-30T08:52:18Z</time>
      </trkpt>
      <trkpt lat="43.17429" lon="0.16451">
        <ele>390</ele>
        <time>2018-09-30T08:52:19Z</time>
      </trkpt>
      <trkpt lat="43.17435" lon="0.16449">
        <ele>390</ele>
        <time>2018-09-30T08:52:20Z</time>
      </trkpt>
      <trkpt lat="43.1744" lon="0.16447">
        <ele>391</ele>
        <time>2018-09-30T08:52:21Z</time>
      </trkpt>
      <trkpt lat="43.17445" lon="0.16445">
        <ele>391</ele>
        <time>2018-09-30T08:52:22Z</time>
      </trkpt>
      <trkpt lat="43.1745" lon="0.16443">
        <ele>391</ele>
        <time>2018-09-30T08:52:23Z</time>
      </trkpt>
      <trkpt lat="43.17455" lon="0.16441">
        <ele>391</ele>
        <time>2018-09-30T08:52:24Z</time>
      </trkpt>
      <trkpt lat="43.1746" lon="0.16438">
        <ele>391</ele>
        <time>2018-09-30T08:52:25Z</time>
      </trkpt>
      <trkpt lat="43.17464" lon="0.16436">
        <ele>392</ele>
        <time>2018-09-30T08:52:26Z</time>
      </trkpt>
      <trkpt lat="43.17469" lon="0.16434">
        <ele>393</ele>
        <time>2018-09-30T08:52:27Z</time>
      </trkpt>
      <trkpt lat="43.17474" lon="0.16432">
        <ele>393</ele>
        <time>2018-09-30T08:52:28Z</time>
      </trkpt>
      <trkpt lat="43.17479" lon="0.1643">
        <ele>393</ele>
        <time>2018-09-30T08:52:29Z</time>
      </trkpt>
      <trkpt lat="43.17483" lon="0.16428">
        <ele>393</ele>
        <time>2018-09-30T08:52:30Z</time>
      </trkpt>
      <trkpt lat="43.17488" lon="0.16427">
        <ele>394</ele>
        <time>2018-09-30T08:52:31Z</time>
      </trkpt>
      <trkpt lat="43.17492" lon="0.16425">
        <ele>394</ele>
        <time>2018-09-30T08:52:32Z</time>
      </trkpt>
      <trkpt lat="43.17496" lon="0.16424">
        <ele>394</ele>
        <time>2018-09-30T08:52:33Z</time>
      </trkpt>
      <trkpt lat="43.17499" lon="0.16423">
        <ele>394</ele>
        <time>2018-09-30T08:52:34Z</time>
      </trkpt>
      <trkpt lat="43.175" lon="0.16421">
        <ele>394</ele>
        <time>2018-09-30T08:52:35Z</time>
      </trkpt>
      <trkpt lat="43.17501" lon="0.16418">
        <ele>394</ele>
        <time>2018-09-30T08:52:36Z</time>
      </trkpt>
      <trkpt lat="43.17503" lon="0.16415">
        <ele>394</ele>
        <time>2018-09-30T08:52:37Z</time>
      </trkpt>
      <trkpt lat="43.17503" lon="0.16412">
        <ele>394</ele>
        <time>2018-09-30T08:52:38Z</time>
      </trkpt>
      <trkpt lat="43.17502" lon="0.16409">
        <ele>394</ele>
        <time>2018-09-30T08:52:39Z</time>
      </trkpt>
      <trkpt lat="43.175" lon="0.16406">
        <ele>394</ele>
        <time>2018-09-30T08:52:40Z</time>
      </trkpt>
      <trkpt lat="43.17499" lon="0.16403">
        <ele>394</ele>
        <time>2018-09-30T08:52:41Z</time>
      </trkpt>
      <trkpt lat="43.17498" lon="0.16399">
        <ele>394</ele>
        <time>2018-09-30T08:52:42Z</time>
      </trkpt>
      <trkpt lat="43.17497" lon="0.16394">
        <ele>394</ele>
        <time>2018-09-30T08:52:43Z</time>
      </trkpt>
      <trkpt lat="43.17496" lon="0.1639">
        <ele>394</ele>
        <time>2018-09-30T08:52:44Z</time>
      </trkpt>
      <trkpt lat="43.17494" lon="0.16387">
        <ele>394</ele>
        <time>2018-09-30T08:52:45Z</time>
      </trkpt>
      <trkpt lat="43.17493" lon="0.16383">
        <ele>394</ele>
        <time>2018-09-30T08:52:46Z</time>
      </trkpt>
      <trkpt lat="43.17491" lon="0.16379">
        <ele>394</ele>
        <time>2018-09-30T08:52:47Z</time>
      </trkpt>
      <trkpt lat="43.1749" lon="0.16374">
        <ele>394</ele>
        <time>2018-09-30T08:52:48Z</time>
      </trkpt>
      <trkpt lat="43.17489" lon="0.1637">
        <ele>394</ele>
        <time>2018-09-30T08:52:49Z</time>
      </trkpt>
      <trkpt lat="43.17487" lon="0.16365">
        <ele>394</ele>
        <time>2018-09-30T08:52:50Z</time>
      </trkpt>
      <trkpt lat="43.17486" lon="0.1636">
        <ele>395</ele>
        <time>2018-09-30T08:52:51Z</time>
      </trkpt>
      <trkpt lat="43.17484" lon="0.16356">
        <ele>395</ele>
        <time>2018-09-30T08:52:52Z</time>
      </trkpt>
      <trkpt lat="43.17483" lon="0.16351">
        <ele>395</ele>
        <time>2018-09-30T08:52:53Z</time>
      </trkpt>
      <trkpt lat="43.17482" lon="0.16347">
        <ele>395</ele>
        <time>2018-09-30T08:52:54Z</time>
      </trkpt>
      <trkpt lat="43.1748" lon="0.16342">
        <ele>395</ele>
        <time>2018-09-30T08:52:55Z</time>
      </trkpt>
      <trkpt lat="43.17479" lon="0.16338">
        <ele>395</ele>
        <time>2018-09-30T08:52:56Z</time>
      </trkpt>
      <trkpt lat="43.17478" lon="0.16334">
        <ele>395</ele>
        <time>2018-09-30T08:52:57Z</time>
      </trkpt>
      <trkpt lat="43.17477" lon="0.16329">
        <ele>395</ele>
        <time>2018-09-30T08:52:58Z</time>
      </trkpt>
      <trkpt lat="43.17476" lon="0.16325">
        <ele>395</ele>
        <time>2018-09-30T08:52:59Z</time>
      </trkpt>
      <trkpt lat="43.17475" lon="0.1632">
        <ele>395</ele>
        <time>2018-09-30T08:53:00Z</time>
      </trkpt>
      <trkpt lat="43.17475" lon="0.16316">
        <ele>395</ele>
        <time>2018-09-30T08:53:01Z</time>
      </trkpt>
      <trkpt lat="43.17474" lon="0.16312">
        <ele>395</ele>
        <time>2018-09-30T08:53:02Z</time>
      </trkpt>
      <trkpt lat="43.17474" lon="0.16308">
        <ele>395</ele>
        <time>2018-09-30T08:53:03Z</time>
      </trkpt>
      <trkpt lat="43.17474" lon="0.16305">
        <ele>395</ele>
        <time>2018-09-30T08:53:04Z</time>
      </trkpt>
      <trkpt lat="43.17474" lon="0.16302">
        <ele>395</ele>
        <time>2018-09-30T08:53:05Z</time>
      </trkpt>
      <trkpt lat="43.17474" lon="0.16298">
        <ele>395</ele>
        <time>2018-09-30T08:53:06Z</time>
      </trkpt>
      <trkpt lat="43.17474" lon="0.16294">
        <ele>395</ele>
        <time>2018-09-30T08:53:07Z</time>
      </trkpt>
      <trkpt lat="43.17474" lon="0.1629">
        <ele>396</ele>
        <time>2018-09-30T08:53:08Z</time>
      </trkpt>
      <trkpt lat="43.17473" lon="0.16285">
        <ele>396</ele>
        <time>2018-09-30T08:53:09Z</time>
      </trkpt>
      <trkpt lat="43.17473" lon="0.16282">
        <ele>396</ele>
        <time>2018-09-30T08:53:10Z</time>
      </trkpt>
      <trkpt lat="43.17473" lon="0.16279">
        <ele>397</ele>
        <time>2018-09-30T08:53:11Z</time>
      </trkpt>
      <trkpt lat="43.17473" lon="0.16276">
        <ele>397</ele>
        <time>2018-09-30T08:53:12Z</time>
      </trkpt>
      <trkpt lat="43.17473" lon="0.16274">
        <ele>397</ele>
        <time>2018-09-30T08:53:13Z</time>
      </trkpt>
      <trkpt lat="43.17474" lon="0.16271">
        <ele>397</ele>
        <time>2018-09-30T08:53:14Z</time>
      </trkpt>
      <trkpt lat="43.17475" lon="0.16269">
        <ele>397</ele>
        <time>2018-09-30T08:53:15Z</time>
      </trkpt>
      <trkpt lat="43.17476" lon="0.16266">
        <ele>397</ele>
        <time>2018-09-30T08:53:16Z</time>
      </trkpt>
      <trkpt lat="43.17477" lon="0.16262">
        <ele>397</ele>
        <time>2018-09-30T08:53:17Z</time>
      </trkpt>
      <trkpt lat="43.17478" lon="0.16259">
        <ele>398</ele>
        <time>2018-09-30T08:53:18Z</time>
      </trkpt>
      <trkpt lat="43.1748" lon="0.16256">
        <ele>398</ele>
        <time>2018-09-30T08:53:19Z</time>
      </trkpt>
      <trkpt lat="43.17482" lon="0.16253">
        <ele>398</ele>
        <time>2018-09-30T08:53:20Z</time>
      </trkpt>
      <trkpt lat="43.17483" lon="0.1625">
        <ele>398</ele>
        <time>2018-09-30T08:53:21Z</time>
      </trkpt>
      <trkpt lat="43.17485" lon="0.16247">
        <ele>398</ele>
        <time>2018-09-30T08:53:22Z</time>
      </trkpt>
      <trkpt lat="43.17486" lon="0.16245">
        <ele>398</ele>
        <time>2018-09-30T08:53:23Z</time>
      </trkpt>
      <trkpt lat="43.17487" lon="0.16244">
        <ele>398</ele>
        <time>2018-09-30T08:53:24Z</time>
      </trkpt>
      <trkpt lat="43.17488" lon="0.16241">
        <ele>398</ele>
        <time>2018-09-30T08:53:25Z</time>
      </trkpt>
      <trkpt lat="43.17489" lon="0.16239">
        <ele>399</ele>
        <time>2018-09-30T08:53:26Z</time>
      </trkpt>
      <trkpt lat="43.1749" lon="0.16237">
        <ele>399</ele>
        <time>2018-09-30T08:53:27Z</time>
      </trkpt>
      <trkpt lat="43.17491" lon="0.16234">
        <ele>399</ele>
        <time>2018-09-30T08:53:28Z</time>
      </trkpt>
      <trkpt lat="43.17492" lon="0.16231">
        <ele>399</ele>
        <time>2018-09-30T08:53:29Z</time>
      </trkpt>
      <trkpt lat="43.17493" lon="0.16228">
        <ele>399</ele>
        <time>2018-09-30T08:53:30Z</time>
      </trkpt>
      <trkpt lat="43.17493" lon="0.16224">
        <ele>399</ele>
        <time>2018-09-30T08:53:31Z</time>
      </trkpt>
      <trkpt lat="43.17493" lon="0.16221">
        <ele>399</ele>
        <time>2018-09-30T08:53:32Z</time>
      </trkpt>
      <trkpt lat="43.17494" lon="0.16219">
        <ele>400</ele>
        <time>2018-09-30T08:53:33Z</time>
      </trkpt>
      <trkpt lat="43.17494" lon="0.16217">
        <ele>400</ele>
        <time>2018-09-30T08:53:34Z</time>
      </trkpt>
      <trkpt lat="43.17494" lon="0.16214">
        <ele>400</ele>
        <time>2018-09-30T08:53:35Z</time>
      </trkpt>
      <trkpt lat="43.17493" lon="0.16212">
        <ele>400</ele>
        <time>2018-09-30T08:53:36Z</time>
      </trkpt>
      <trkpt lat="43.17492" lon="0.16209">
        <ele>400</ele>
        <time>2018-09-30T08:53:37Z</time>
      </trkpt>
      <trkpt lat="43.17491" lon="0.16208">
        <ele>400</ele>
        <time>2018-09-30T08:53:38Z</time>
      </trkpt>
      <trkpt lat="43.1749" lon="0.16207">
        <ele>403</ele>
        <time>2018-09-30T08:53:39Z</time>
      </trkpt>
      <trkpt lat="43.17489" lon="0.16205">
        <ele>404</ele>
        <time>2018-09-30T08:53:40Z</time>
      </trkpt>
      <trkpt lat="43.17486" lon="0.16201">
        <ele>404</ele>
        <time>2018-09-30T08:53:41Z</time>
      </trkpt>
      <trkpt lat="43.17485" lon="0.16199">
        <ele>405</ele>
        <time>2018-09-30T08:53:42Z</time>
      </trkpt>
      <trkpt lat="43.17483" lon="0.16197">
        <ele>405</ele>
        <time>2018-09-30T08:53:43Z</time>
      </trkpt>
      <trkpt lat="43.17482" lon="0.16196">
        <ele>405</ele>
        <time>2018-09-30T08:53:44Z</time>
      </trkpt>
      <trkpt lat="43.1748" lon="0.16193">
        <ele>405</ele>
        <time>2018-09-30T08:53:45Z</time>
      </trkpt>
      <trkpt lat="43.17478" lon="0.16192">
        <ele>406</ele>
        <time>2018-09-30T08:53:46Z</time>
      </trkpt>
      <trkpt lat="43.17476" lon="0.1619">
        <ele>406</ele>
        <time>2018-09-30T08:53:47Z</time>
      </trkpt>
      <trkpt lat="43.17474" lon="0.16189">
        <ele>406</ele>
        <time>2018-09-30T08:53:48Z</time>
      </trkpt>
      <trkpt lat="43.17472" lon="0.16189">
        <ele>406</ele>
        <time>2018-09-30T08:53:49Z</time>
      </trkpt>
      <trkpt lat="43.17471" lon="0.16188">
        <ele>407</ele>
        <time>2018-09-30T08:53:50Z</time>
      </trkpt>
      <trkpt lat="43.17469" lon="0.16188">
        <ele>407</ele>
        <time>2018-09-30T08:53:51Z</time>
      </trkpt>
      <trkpt lat="43.17467" lon="0.16187">
        <ele>407</ele>
        <time>2018-09-30T08:53:52Z</time>
      </trkpt>
      <trkpt lat="43.17465" lon="0.16187">
        <ele>407</ele>
        <time>2018-09-30T08:53:53Z</time>
      </trkpt>
      <trkpt lat="43.17464" lon="0.16187">
        <ele>409</ele>
        <time>2018-09-30T08:53:54Z</time>
      </trkpt>
      <trkpt lat="43.17463" lon="0.16187">
        <ele>410</ele>
        <time>2018-09-30T08:53:55Z</time>
      </trkpt>
      <trkpt lat="43.17461" lon="0.16186">
        <ele>410</ele>
        <time>2018-09-30T08:53:56Z</time>
      </trkpt>
      <trkpt lat="43.17459" lon="0.16186">
        <ele>411</ele>
        <time>2018-09-30T08:53:57Z</time>
      </trkpt>
      <trkpt lat="43.17457" lon="0.16186">
        <ele>411</ele>
        <time>2018-09-30T08:53:58Z</time>
      </trkpt>
      <trkpt lat="43.17456" lon="0.16185">
        <ele>411</ele>
        <time>2018-09-30T08:53:59Z</time>
      </trkpt>
      <trkpt lat="43.17454" lon="0.16184">
        <ele>412</ele>
        <time>2018-09-30T08:54:00Z</time>
      </trkpt>
      <trkpt lat="43.17452" lon="0.16183">
        <ele>412</ele>
        <time>2018-09-30T08:54:01Z</time>
      </trkpt>
      <trkpt lat="43.1745" lon="0.16182">
        <ele>412</ele>
        <time>2018-09-30T08:54:02Z</time>
      </trkpt>
      <trkpt lat="43.17448" lon="0.16182">
        <ele>412</ele>
        <time>2018-09-30T08:54:03Z</time>
      </trkpt>
      <trkpt lat="43.17446" lon="0.16181">
        <ele>412</ele>
        <time>2018-09-30T08:54:04Z</time>
      </trkpt>
      <trkpt lat="43.17444" lon="0.16181">
        <ele>412</ele>
        <time>2018-09-30T08:54:05Z</time>
      </trkpt>
      <trkpt lat="43.17441" lon="0.16181">
        <ele>413</ele>
        <time>2018-09-30T08:54:06Z</time>
      </trkpt>
      <trkpt lat="43.17439" lon="0.16181">
        <ele>413</ele>
        <time>2018-09-30T08:54:07Z</time>
      </trkpt>
      <trkpt lat="43.17437" lon="0.1618">
        <ele>413</ele>
        <time>2018-09-30T08:54:08Z</time>
      </trkpt>
      <trkpt lat="43.17434" lon="0.1618">
        <ele>414</ele>
        <time>2018-09-30T08:54:09Z</time>
      </trkpt>
      <trkpt lat="43.17432" lon="0.1618">
        <ele>415</ele>
        <time>2018-09-30T08:54:10Z</time>
      </trkpt>
      <trkpt lat="43.17429" lon="0.16181">
        <ele>415</ele>
        <time>2018-09-30T08:54:11Z</time>
      </trkpt>
      <trkpt lat="43.17426" lon="0.16181">
        <ele>415</ele>
        <time>2018-09-30T08:54:12Z</time>
      </trkpt>
      <trkpt lat="43.17423" lon="0.16181">
        <ele>415</ele>
        <time>2018-09-30T08:54:13Z</time>
      </trkpt>
      <trkpt lat="43.1742" lon="0.16181">
        <ele>416</ele>
        <time>2018-09-30T08:54:14Z</time>
      </trkpt>
      <trkpt lat="43.17418" lon="0.16181">
        <ele>416</ele>
        <time>2018-09-30T08:54:15Z</time>
      </trkpt>
      <trkpt lat="43.17415" lon="0.16181">
        <ele>416</ele>
        <time>2018-09-30T08:54:16Z</time>
      </trkpt>
      <trkpt lat="43.17413" lon="0.16182">
        <ele>416</ele>
        <time>2018-09-30T08:54:17Z</time>
      </trkpt>
      <trkpt lat="43.1741" lon="0.16182">
        <ele>417</ele>
        <time>2018-09-30T08:54:18Z</time>
      </trkpt>
      <trkpt lat="43.17407" lon="0.16181">
        <ele>417</ele>
        <time>2018-09-30T08:54:19Z</time>
      </trkpt>
      <trkpt lat="43.17403" lon="0.16181">
        <ele>417</ele>
        <time>2018-09-30T08:54:20Z</time>
      </trkpt>
      <trkpt lat="43.174" lon="0.1618">
        <ele>417</ele>
        <time>2018-09-30T08:54:21Z</time>
      </trkpt>
      <trkpt lat="43.17396" lon="0.16179">
        <ele>417</ele>
        <time>2018-09-30T08:54:22Z</time>
      </trkpt>
      <trkpt lat="43.17393" lon="0.16178">
        <ele>417</ele>
        <time>2018-09-30T08:54:23Z</time>
      </trkpt>
      <trkpt lat="43.1739" lon="0.16176">
        <ele>417</ele>
        <time>2018-09-30T08:54:24Z</time>
      </trkpt>
      <trkpt lat="43.17388" lon="0.16174">
        <ele>417</ele>
        <time>2018-09-30T08:54:25Z</time>
      </trkpt>
      <trkpt lat="43.17386" lon="0.16171">
        <ele>417</ele>
        <time>2018-09-30T08:54:26Z</time>
      </trkpt>
      <trkpt lat="43.17384" lon="0.1617">
        <ele>418</ele>
        <time>2018-09-30T08:54:27Z</time>
      </trkpt>
      <trkpt lat="43.17381" lon="0.16167">
        <ele>418</ele>
        <time>2018-09-30T08:54:28Z</time>
      </trkpt>
      <trkpt lat="43.17378" lon="0.16164">
        <ele>418</ele>
        <time>2018-09-30T08:54:29Z</time>
      </trkpt>
      <trkpt lat="43.17375" lon="0.16161">
        <ele>418</ele>
        <time>2018-09-30T08:54:30Z</time>
      </trkpt>
      <trkpt lat="43.17372" lon="0.16158">
        <ele>418</ele>
        <time>2018-09-30T08:54:31Z</time>
      </trkpt>
      <trkpt lat="43.17369" lon="0.16155">
        <ele>418</ele>
        <time>2018-09-30T08:54:32Z</time>
      </trkpt>
      <trkpt lat="43.17367" lon="0.16152">
        <ele>419</ele>
        <time>2018-09-30T08:54:33Z</time>
      </trkpt>
      <trkpt lat="43.17364" lon="0.16149">
        <ele>419</ele>
        <time>2018-09-30T08:54:34Z</time>
      </trkpt>
      <trkpt lat="43.17361" lon="0.16147">
        <ele>419</ele>
        <time>2018-09-30T08:54:35Z</time>
      </trkpt>
      <trkpt lat="43.17359" lon="0.16145">
        <ele>419</ele>
        <time>2018-09-30T08:54:36Z</time>
      </trkpt>
      <trkpt lat="43.17356" lon="0.16143">
        <ele>420</ele>
        <time>2018-09-30T08:54:37Z</time>
      </trkpt>
      <trkpt lat="43.17355" lon="0.1614">
        <ele>420</ele>
        <time>2018-09-30T08:54:38Z</time>
      </trkpt>
      <trkpt lat="43.17353" lon="0.16138">
        <ele>420</ele>
        <time>2018-09-30T08:54:39Z</time>
      </trkpt>
      <trkpt lat="43.17351" lon="0.16136">
        <ele>420</ele>
        <time>2018-09-30T08:54:40Z</time>
      </trkpt>
      <trkpt lat="43.1735" lon="0.16135">
        <ele>420</ele>
        <time>2018-09-30T08:54:41Z</time>
      </trkpt>
      <trkpt lat="43.17348" lon="0.16133">
        <ele>421</ele>
        <time>2018-09-30T08:54:42Z</time>
      </trkpt>
      <trkpt lat="43.17346" lon="0.16131">
        <ele>421</ele>
        <time>2018-09-30T08:54:43Z</time>
      </trkpt>
      <trkpt lat="43.17344" lon="0.16129">
        <ele>421</ele>
        <time>2018-09-30T08:54:44Z</time>
      </trkpt>
      <trkpt lat="43.17341" lon="0.16128">
        <ele>421</ele>
        <time>2018-09-30T08:54:45Z</time>
      </trkpt>
      <trkpt lat="43.17339" lon="0.16125">
        <ele>421</ele>
        <time>2018-09-30T08:54:46Z</time>
      </trkpt>
      <trkpt lat="43.17337" lon="0.16123">
        <ele>421</ele>
        <time>2018-09-30T08:54:47Z</time>
      </trkpt>
      <trkpt lat="43.17335" lon="0.1612">
        <ele>421</ele>
        <time>2018-09-30T08:54:48Z</time>
      </trkpt>
      <trkpt lat="43.17332" lon="0.16117">
        <ele>421</ele>
        <time>2018-09-30T08:54:49Z</time>
      </trkpt>
      <trkpt lat="43.17329" lon="0.16114">
        <ele>421</ele>
        <time>2018-09-30T08:54:50Z</time>
      </trkpt>
      <trkpt lat="43.17327" lon="0.16112">
        <ele>422</ele>
        <time>2018-09-30T08:54:51Z</time>
      </trkpt>
      <trkpt lat="43.17325" lon="0.16109">
        <ele>422</ele>
        <time>2018-09-30T08:54:52Z</time>
      </trkpt>
      <trkpt lat="43.17322" lon="0.16107">
        <ele>422</ele>
        <time>2018-09-30T08:54:53Z</time>
      </trkpt>
      <trkpt lat="43.17321" lon="0.16104">
        <ele>422</ele>
        <time>2018-09-30T08:54:54Z</time>
      </trkpt>
      <trkpt lat="43.17319" lon="0.16101">
        <ele>422</ele>
        <time>2018-09-30T08:54:55Z</time>
      </trkpt>
      <trkpt lat="43.17317" lon="0.16098">
        <ele>422</ele>
        <time>2018-09-30T08:54:56Z</time>
      </trkpt>
      <trkpt lat="43.17315" lon="0.16094">
        <ele>422</ele>
        <time>2018-09-30T08:54:57Z</time>
      </trkpt>
      <trkpt lat="43.17314" lon="0.16089">
        <ele>422</ele>
        <time>2018-09-30T08:54:58Z</time>
      </trkpt>
      <trkpt lat="43.17314" lon="0.16084">
        <ele>422</ele>
        <time>2018-09-30T08:54:59Z</time>
      </trkpt>
      <trkpt lat="43.17315" lon="0.16079">
        <ele>423</ele>
        <time>2018-09-30T08:55:00Z</time>
      </trkpt>
      <trkpt lat="43.17315" lon="0.16075">
        <ele>423</ele>
        <time>2018-09-30T08:55:01Z</time>
      </trkpt>
      <trkpt lat="43.17315" lon="0.1607">
        <ele>423</ele>
        <time>2018-09-30T08:55:02Z</time>
      </trkpt>
      <trkpt lat="43.17315" lon="0.16065">
        <ele>423</ele>
        <time>2018-09-30T08:55:03Z</time>
      </trkpt>
      <trkpt lat="43.17315" lon="0.16061">
        <ele>423</ele>
        <time>2018-09-30T08:55:04Z</time>
      </trkpt>
      <trkpt lat="43.17315" lon="0.16056">
        <ele>423</ele>
        <time>2018-09-30T08:55:05Z</time>
      </trkpt>
      <trkpt lat="43.17315" lon="0.16052">
        <ele>423</ele>
        <time>2018-09-30T08:55:06Z</time>
      </trkpt>
      <trkpt lat="43.17315" lon="0.16047">
        <ele>423</ele>
        <time>2018-09-30T08:55:07Z</time>
      </trkpt>
      <trkpt lat="43.17315" lon="0.16043">
        <ele>424</ele>
        <time>2018-09-30T08:55:08Z</time>
      </trkpt>
      <trkpt lat="43.17316" lon="0.16039">
        <ele>424</ele>
        <time>2018-09-30T08:55:09Z</time>
      </trkpt>
      <trkpt lat="43.17316" lon="0.16035">
        <ele>424</ele>
        <time>2018-09-30T08:55:10Z</time>
      </trkpt>
      <trkpt lat="43.17317" lon="0.16031">
        <ele>424</ele>
        <time>2018-09-30T08:55:11Z</time>
      </trkpt>
      <trkpt lat="43.17317" lon="0.16028">
        <ele>424</ele>
        <time>2018-09-30T08:55:12Z</time>
      </trkpt>
      <trkpt lat="43.17318" lon="0.16024">
        <ele>424</ele>
        <time>2018-09-30T08:55:13Z</time>
      </trkpt>
      <trkpt lat="43.17318" lon="0.16021">
        <ele>424</ele>
        <time>2018-09-30T08:55:14Z</time>
      </trkpt>
      <trkpt lat="43.17319" lon="0.16017">
        <ele>425</ele>
        <time>2018-09-30T08:55:15Z</time>
      </trkpt>
      <trkpt lat="43.17319" lon="0.16014">
        <ele>425</ele>
        <time>2018-09-30T08:55:16Z</time>
      </trkpt>
      <trkpt lat="43.1732" lon="0.16011">
        <ele>425</ele>
        <time>2018-09-30T08:55:17Z</time>
      </trkpt>
      <trkpt lat="43.1732" lon="0.16008">
        <ele>425</ele>
        <time>2018-09-30T08:55:18Z</time>
      </trkpt>
      <trkpt lat="43.17321" lon="0.16006">
        <ele>425</ele>
        <time>2018-09-30T08:55:19Z</time>
      </trkpt>
      <trkpt lat="43.17321" lon="0.16003">
        <ele>425</ele>
        <time>2018-09-30T08:55:20Z</time>
      </trkpt>
      <trkpt lat="43.17322" lon="0.16001">
        <ele>425</ele>
        <time>2018-09-30T08:55:21Z</time>
      </trkpt>
      <trkpt lat="43.17323" lon="0.15999">
        <ele>426</ele>
        <time>2018-09-30T08:55:22Z</time>
      </trkpt>
      <trkpt lat="43.17324" lon="0.15996">
        <ele>426</ele>
        <time>2018-09-30T08:55:23Z</time>
      </trkpt>
      <trkpt lat="43.17324" lon="0.15993">
        <ele>426</ele>
        <time>2018-09-30T08:55:24Z</time>
      </trkpt>
      <trkpt lat="43.17325" lon="0.15991">
        <ele>426</ele>
        <time>2018-09-30T08:55:25Z</time>
      </trkpt>
      <trkpt lat="43.17326" lon="0.15988">
        <ele>426</ele>
        <time>2018-09-30T08:55:26Z</time>
      </trkpt>
      <trkpt lat="43.17326" lon="0.15985">
        <ele>426</ele>
        <time>2018-09-30T08:55:27Z</time>
      </trkpt>
      <trkpt lat="43.17327" lon="0.15982">
        <ele>427</ele>
        <time>2018-09-30T08:55:28Z</time>
      </trkpt>
      <trkpt lat="43.17327" lon="0.15979">
        <ele>427</ele>
        <time>2018-09-30T08:55:29Z</time>
      </trkpt>
      <trkpt lat="43.17328" lon="0.15977">
        <ele>427</ele>
        <time>2018-09-30T08:55:30Z</time>
      </trkpt>
      <trkpt lat="43.1733" lon="0.15974">
        <ele>427</ele>
        <time>2018-09-30T08:55:31Z</time>
      </trkpt>
      <trkpt lat="43.17331" lon="0.1597">
        <ele>427</ele>
        <time>2018-09-30T08:55:32Z</time>
      </trkpt>
      <trkpt lat="43.17332" lon="0.15968">
        <ele>428</ele>
        <time>2018-09-30T08:55:33Z</time>
      </trkpt>
      <trkpt lat="43.17333" lon="0.15966">
        <ele>428</ele>
        <time>2018-09-30T08:55:34Z</time>
      </trkpt>
      <trkpt lat="43.17334" lon="0.15964">
        <ele>428</ele>
        <time>2018-09-30T08:55:35Z</time>
      </trkpt>
      <trkpt lat="43.17336" lon="0.15962">
        <ele>428</ele>
        <time>2018-09-30T08:55:36Z</time>
      </trkpt>
      <trkpt lat="43.17337" lon="0.15958">
        <ele>429</ele>
        <time>2018-09-30T08:55:37Z</time>
      </trkpt>
      <trkpt lat="43.17337" lon="0.15954">
        <ele>429</ele>
        <time>2018-09-30T08:55:38Z</time>
      </trkpt>
      <trkpt lat="43.17339" lon="0.15951">
        <ele>429</ele>
        <time>2018-09-30T08:55:39Z</time>
      </trkpt>
      <trkpt lat="43.1734" lon="0.15948">
        <ele>430</ele>
        <time>2018-09-30T08:55:40Z</time>
      </trkpt>
      <trkpt lat="43.17342" lon="0.15946">
        <ele>430</ele>
        <time>2018-09-30T08:55:41Z</time>
      </trkpt>
      <trkpt lat="43.17344" lon="0.15942">
        <ele>430</ele>
        <time>2018-09-30T08:55:42Z</time>
      </trkpt>
      <trkpt lat="43.17345" lon="0.15938">
        <ele>430</ele>
        <time>2018-09-30T08:55:43Z</time>
      </trkpt>
      <trkpt lat="43.17347" lon="0.15934">
        <ele>431</ele>
        <time>2018-09-30T08:55:44Z</time>
      </trkpt>
      <trkpt lat="43.17349" lon="0.15933">
        <ele>431</ele>
        <time>2018-09-30T08:55:45Z</time>
      </trkpt>
      <trkpt lat="43.17352" lon="0.15933">
        <ele>431</ele>
        <time>2018-09-30T08:55:46Z</time>
      </trkpt>
      <trkpt lat="43.17355" lon="0.15934">
        <ele>431</ele>
        <time>2018-09-30T08:55:47Z</time>
      </trkpt>
      <trkpt lat="43.17358" lon="0.15935">
        <ele>431</ele>
        <time>2018-09-30T08:55:48Z</time>
      </trkpt>
      <trkpt lat="43.17361" lon="0.15936">
        <ele>432</ele>
        <time>2018-09-30T08:55:49Z</time>
      </trkpt>
      <trkpt lat="43.17365" lon="0.15936">
        <ele>432</ele>
        <time>2018-09-30T08:55:50Z</time>
      </trkpt>
      <trkpt lat="43.17369" lon="0.15935">
        <ele>432</ele>
        <time>2018-09-30T08:55:51Z</time>
      </trkpt>
      <trkpt lat="43.17373" lon="0.15935">
        <ele>433</ele>
        <time>2018-09-30T08:55:52Z</time>
      </trkpt>
      <trkpt lat="43.17377" lon="0.15934">
        <ele>434</ele>
        <time>2018-09-30T08:55:53Z</time>
      </trkpt>
      <trkpt lat="43.17383" lon="0.15932">
        <ele>435</ele>
        <time>2018-09-30T08:55:54Z</time>
      </trkpt>
      <trkpt lat="43.17389" lon="0.1593">
        <ele>436</ele>
        <time>2018-09-30T08:55:55Z</time>
      </trkpt>
      <trkpt lat="43.17394" lon="0.15927">
        <ele>436</ele>
        <time>2018-09-30T08:55:56Z</time>
      </trkpt>
      <trkpt lat="43.174" lon="0.15924">
        <ele>437</ele>
        <time>2018-09-30T08:55:57Z</time>
      </trkpt>
      <trkpt lat="43.17405" lon="0.15922">
        <ele>437</ele>
        <time>2018-09-30T08:55:58Z</time>
      </trkpt>
      <trkpt lat="43.1741" lon="0.15919">
        <ele>437</ele>
        <time>2018-09-30T08:55:59Z</time>
      </trkpt>
      <trkpt lat="43.17415" lon="0.15916">
        <ele>437</ele>
        <time>2018-09-30T08:56:00Z</time>
      </trkpt>
      <trkpt lat="43.1742" lon="0.15915">
        <ele>437</ele>
        <time>2018-09-30T08:56:01Z</time>
      </trkpt>
      <trkpt lat="43.17425" lon="0.15913">
        <ele>437</ele>
        <time>2018-09-30T08:56:02Z</time>
      </trkpt>
      <trkpt lat="43.17431" lon="0.15911">
        <ele>437</ele>
        <time>2018-09-30T08:56:03Z</time>
      </trkpt>
      <trkpt lat="43.17437" lon="0.15912">
        <ele>437</ele>
        <time>2018-09-30T08:56:04Z</time>
      </trkpt>
      <trkpt lat="43.17444" lon="0.15914">
        <ele>437</ele>
        <time>2018-09-30T08:56:05Z</time>
      </trkpt>
      <trkpt lat="43.17451" lon="0.15917">
        <ele>437</ele>
        <time>2018-09-30T08:56:06Z</time>
      </trkpt>
      <trkpt lat="43.17459" lon="0.15919">
        <ele>436</ele>
        <time>2018-09-30T08:56:07Z</time>
      </trkpt>
      <trkpt lat="43.17467" lon="0.15921">
        <ele>436</ele>
        <time>2018-09-30T08:56:08Z</time>
      </trkpt>
      <trkpt lat="43.17476" lon="0.15923">
        <ele>435</ele>
        <time>2018-09-30T08:56:09Z</time>
      </trkpt>
      <trkpt lat="43.17485" lon="0.15923">
        <ele>435</ele>
        <time>2018-09-30T08:56:10Z</time>
      </trkpt>
      <trkpt lat="43.17495" lon="0.15924">
        <ele>434</ele>
        <time>2018-09-30T08:56:11Z</time>
      </trkpt>
      <trkpt lat="43.17504" lon="0.15924">
        <ele>434</ele>
        <time>2018-09-30T08:56:12Z</time>
      </trkpt>
      <trkpt lat="43.17514" lon="0.15924">
        <ele>434</ele>
        <time>2018-09-30T08:56:13Z</time>
      </trkpt>
      <trkpt lat="43.17524" lon="0.15923">
        <ele>433</ele>
        <time>2018-09-30T08:56:14Z</time>
      </trkpt>
      <trkpt lat="43.17533" lon="0.15919">
        <ele>433</ele>
        <time>2018-09-30T08:56:15Z</time>
      </trkpt>
      <trkpt lat="43.17542" lon="0.15913">
        <ele>432</ele>
        <time>2018-09-30T08:56:16Z</time>
      </trkpt>
      <trkpt lat="43.17551" lon="0.15908">
        <ele>432</ele>
        <time>2018-09-30T08:56:17Z</time>
      </trkpt>
      <trkpt lat="43.1756" lon="0.15907">
        <ele>432</ele>
        <time>2018-09-30T08:56:18Z</time>
      </trkpt>
      <trkpt lat="43.1757" lon="0.15908">
        <ele>431</ele>
        <time>2018-09-30T08:56:19Z</time>
      </trkpt>
      <trkpt lat="43.17578" lon="0.15913">
        <ele>431</ele>
        <time>2018-09-30T08:56:20Z</time>
      </trkpt>
      <trkpt lat="43.17585" lon="0.15921">
        <ele>431</ele>
        <time>2018-09-30T08:56:21Z</time>
      </trkpt>
      <trkpt lat="43.1759" lon="0.15929">
        <ele>431</ele>
        <time>2018-09-30T08:56:22Z</time>
      </trkpt>
      <trkpt lat="43.17595" lon="0.15937">
        <ele>430</ele>
        <time>2018-09-30T08:56:23Z</time>
      </trkpt>
      <trkpt lat="43.17599" lon="0.15945">
        <ele>430</ele>
        <time>2018-09-30T08:56:24Z</time>
      </trkpt>
      <trkpt lat="43.17604" lon="0.1595">
        <ele>430</ele>
        <time>2018-09-30T08:56:25Z</time>
      </trkpt>
      <trkpt lat="43.17608" lon="0.15953">
        <ele>430</ele>
        <time>2018-09-30T08:56:26Z</time>
      </trkpt>
      <trkpt lat="43.17611" lon="0.15953">
        <ele>430</ele>
        <time>2018-09-30T08:56:27Z</time>
      </trkpt>
      <trkpt lat="43.17614" lon="0.15952">
        <ele>430</ele>
        <time>2018-09-30T08:56:28Z</time>
      </trkpt>
      <trkpt lat="43.17615" lon="0.15949">
        <ele>430</ele>
        <time>2018-09-30T08:56:29Z</time>
      </trkpt>
      <trkpt lat="43.17617" lon="0.15945">
        <ele>430</ele>
        <time>2018-09-30T08:56:30Z</time>
      </trkpt>
      <trkpt lat="43.17618" lon="0.15941">
        <ele>430</ele>
        <time>2018-09-30T08:56:31Z</time>
      </trkpt>
      <trkpt lat="43.17619" lon="0.15936">
        <ele>430</ele>
        <time>2018-09-30T08:56:32Z</time>
      </trkpt>
      <trkpt lat="43.1762" lon="0.15931">
        <ele>430</ele>
        <time>2018-09-30T08:56:33Z</time>
      </trkpt>
      <trkpt lat="43.1762" lon="0.15927">
        <ele>430</ele>
        <time>2018-09-30T08:56:34Z</time>
      </trkpt>
      <trkpt lat="43.17621" lon="0.15923">
        <ele>430</ele>
        <time>2018-09-30T08:56:35Z</time>
      </trkpt>
      <trkpt lat="43.17622" lon="0.15918">
        <ele>430</ele>
        <time>2018-09-30T08:56:36Z</time>
      </trkpt>
      <trkpt lat="43.17623" lon="0.15914">
        <ele>430</ele>
        <time>2018-09-30T08:56:37Z</time>
      </trkpt>
      <trkpt lat="43.17624" lon="0.15909">
        <ele>430</ele>
        <time>2018-09-30T08:56:38Z</time>
      </trkpt>
      <trkpt lat="43.17624" lon="0.15904">
        <ele>430</ele>
        <time>2018-09-30T08:56:39Z</time>
      </trkpt>
      <trkpt lat="43.17624" lon="0.159">
        <ele>430</ele>
        <time>2018-09-30T08:56:40Z</time>
      </trkpt>
      <trkpt lat="43.17625" lon="0.15895">
        <ele>430</ele>
        <time>2018-09-30T08:56:41Z</time>
      </trkpt>
      <trkpt lat="43.17625" lon="0.15891">
        <ele>430</ele>
        <time>2018-09-30T08:56:42Z</time>
      </trkpt>
      <trkpt lat="43.17626" lon="0.15887">
        <ele>430</ele>
        <time>2018-09-30T08:56:43Z</time>
      </trkpt>
      <trkpt lat="43.17627" lon="0.15882">
        <ele>430</ele>
        <time>2018-09-30T08:56:44Z</time>
      </trkpt>
      <trkpt lat="43.17627" lon="0.15878">
        <ele>430</ele>
        <time>2018-09-30T08:56:45Z</time>
      </trkpt>
      <trkpt lat="43.17628" lon="0.15874">
        <ele>430</ele>
        <time>2018-09-30T08:56:46Z</time>
      </trkpt>
      <trkpt lat="43.17628" lon="0.15869">
        <ele>430</ele>
        <time>2018-09-30T08:56:47Z</time>
      </trkpt>
      <trkpt lat="43.17629" lon="0.15865">
        <ele>430</ele>
        <time>2018-09-30T08:56:48Z</time>
      </trkpt>
      <trkpt lat="43.1763" lon="0.15861">
        <ele>430</ele>
        <time>2018-09-30T08:56:49Z</time>
      </trkpt>
      <trkpt lat="43.17631" lon="0.15857">
        <ele>430</ele>
        <time>2018-09-30T08:56:50Z</time>
      </trkpt>
      <trkpt lat="43.17632" lon="0.15853">
        <ele>430</ele>
        <time>2018-09-30T08:56:51Z</time>
      </trkpt>
      <trkpt lat="43.17633" lon="0.15849">
        <ele>430</ele>
        <time>2018-09-30T08:56:52Z</time>
      </trkpt>
      <trkpt lat="43.17634" lon="0.15845">
        <ele>430</ele>
        <time>2018-09-30T08:56:53Z</time>
      </trkpt>
      <trkpt lat="43.17636" lon="0.15841">
        <ele>430</ele>
        <time>2018-09-30T08:56:54Z</time>
      </trkpt>
      <trkpt lat="43.17637" lon="0.15837">
        <ele>430</ele>
        <time>2018-09-30T08:56:55Z</time>
      </trkpt>
      <trkpt lat="43.17638" lon="0.15833">
        <ele>430</ele>
        <time>2018-09-30T08:56:56Z</time>
      </trkpt>
      <trkpt lat="43.1764" lon="0.15829">
        <ele>430</ele>
        <time>2018-09-30T08:56:57Z</time>
      </trkpt>
      <trkpt lat="43.17641" lon="0.15826">
        <ele>430</ele>
        <time>2018-09-30T08:56:58Z</time>
      </trkpt>
      <trkpt lat="43.17643" lon="0.15823">
        <ele>430</ele>
        <time>2018-09-30T08:56:59Z</time>
      </trkpt>
      <trkpt lat="43.17645" lon="0.1582">
        <ele>430</ele>
        <time>2018-09-30T08:57:00Z</time>
      </trkpt>
      <trkpt lat="43.17646" lon="0.15817">
        <ele>430</ele>
        <time>2018-09-30T08:57:01Z</time>
      </trkpt>
      <trkpt lat="43.17648" lon="0.15814">
        <ele>430</ele>
        <time>2018-09-30T08:57:02Z</time>
      </trkpt>
      <trkpt lat="43.1765" lon="0.15812">
        <ele>430</ele>
        <time>2018-09-30T08:57:03Z</time>
      </trkpt>
      <trkpt lat="43.17653" lon="0.1581">
        <ele>430</ele>
        <time>2018-09-30T08:57:04Z</time>
      </trkpt>
      <trkpt lat="43.17655" lon="0.15808">
        <ele>430</ele>
        <time>2018-09-30T08:57:05Z</time>
      </trkpt>
      <trkpt lat="43.17657" lon="0.15806">
        <ele>430</ele>
        <time>2018-09-30T08:57:06Z</time>
      </trkpt>
      <trkpt lat="43.1766" lon="0.15805">
        <ele>430</ele>
        <time>2018-09-30T08:57:07Z</time>
      </trkpt>
      <trkpt lat="43.17662" lon="0.15803">
        <ele>430</ele>
        <time>2018-09-30T08:57:08Z</time>
      </trkpt>
      <trkpt lat="43.17664" lon="0.15802">
        <ele>430</ele>
        <time>2018-09-30T08:57:09Z</time>
      </trkpt>
      <trkpt lat="43.17666" lon="0.15801">
        <ele>430</ele>
        <time>2018-09-30T08:57:10Z</time>
      </trkpt>
      <trkpt lat="43.17669" lon="0.158">
        <ele>430</ele>
        <time>2018-09-30T08:57:11Z</time>
      </trkpt>
      <trkpt lat="43.17671" lon="0.158">
        <ele>430</ele>
        <time>2018-09-30T08:57:12Z</time>
      </trkpt>
      <trkpt lat="43.17673" lon="0.15799">
        <ele>430</ele>
        <time>2018-09-30T08:57:13Z</time>
      </trkpt>
      <trkpt lat="43.17675" lon="0.15798">
        <ele>431</ele>
        <time>2018-09-30T08:57:14Z</time>
      </trkpt>
      <trkpt lat="43.17677" lon="0.15797">
        <ele>431</ele>
        <time>2018-09-30T08:57:15Z</time>
      </trkpt>
      <trkpt lat="43.17678" lon="0.15797">
        <ele>431</ele>
        <time>2018-09-30T08:57:16Z</time>
      </trkpt>
      <trkpt lat="43.1768" lon="0.15796">
        <ele>431</ele>
        <time>2018-09-30T08:57:17Z</time>
      </trkpt>
      <trkpt lat="43.17683" lon="0.15796">
        <ele>431</ele>
        <time>2018-09-30T08:57:18Z</time>
      </trkpt>
      <trkpt lat="43.17686" lon="0.15796">
        <ele>431</ele>
        <time>2018-09-30T08:57:19Z</time>
      </trkpt>
      <trkpt lat="43.17688" lon="0.15797">
        <ele>431</ele>
        <time>2018-09-30T08:57:20Z</time>
      </trkpt>
      <trkpt lat="43.17691" lon="0.15798">
        <ele>431</ele>
        <time>2018-09-30T08:57:21Z</time>
      </trkpt>
      <trkpt lat="43.17693" lon="0.15798">
        <ele>431</ele>
        <time>2018-09-30T08:57:22Z</time>
      </trkpt>
      <trkpt lat="43.17696" lon="0.158">
        <ele>431</ele>
        <time>2018-09-30T08:57:23Z</time>
      </trkpt>
      <trkpt lat="43.17699" lon="0.15801">
        <ele>431</ele>
        <time>2018-09-30T08:57:24Z</time>
      </trkpt>
      <trkpt lat="43.17701" lon="0.15803">
        <ele>431</ele>
        <time>2018-09-30T08:57:25Z</time>
      </trkpt>
      <trkpt lat="43.17703" lon="0.15805">
        <ele>431</ele>
        <time>2018-09-30T08:57:26Z</time>
      </trkpt>
      <trkpt lat="43.17706" lon="0.15806">
        <ele>432</ele>
        <time>2018-09-30T08:57:27Z</time>
      </trkpt>
      <trkpt lat="43.17708" lon="0.15808">
        <ele>432</ele>
        <time>2018-09-30T08:57:28Z</time>
      </trkpt>
      <trkpt lat="43.17711" lon="0.1581">
        <ele>432</ele>
        <time>2018-09-30T08:57:29Z</time>
      </trkpt>
      <trkpt lat="43.17714" lon="0.15811">
        <ele>432</ele>
        <time>2018-09-30T08:57:30Z</time>
      </trkpt>
      <trkpt lat="43.17717" lon="0.15812">
        <ele>432</ele>
        <time>2018-09-30T08:57:31Z</time>
      </trkpt>
      <trkpt lat="43.17719" lon="0.15813">
        <ele>432</ele>
        <time>2018-09-30T08:57:32Z</time>
      </trkpt>
      <trkpt lat="43.17722" lon="0.15814">
        <ele>432</ele>
        <time>2018-09-30T08:57:33Z</time>
      </trkpt>
      <trkpt lat="43.17725" lon="0.15816">
        <ele>432</ele>
        <time>2018-09-30T08:57:34Z</time>
      </trkpt>
      <trkpt lat="43.17727" lon="0.15817">
        <ele>432</ele>
        <time>2018-09-30T08:57:35Z</time>
      </trkpt>
      <trkpt lat="43.1773" lon="0.15818">
        <ele>433</ele>
        <time>2018-09-30T08:57:36Z</time>
      </trkpt>
      <trkpt lat="43.17733" lon="0.15819">
        <ele>433</ele>
        <time>2018-09-30T08:57:37Z</time>
      </trkpt>
      <trkpt lat="43.17736" lon="0.15819">
        <ele>433</ele>
        <time>2018-09-30T08:57:38Z</time>
      </trkpt>
      <trkpt lat="43.17739" lon="0.1582">
        <ele>433</ele>
        <time>2018-09-30T08:57:39Z</time>
      </trkpt>
      <trkpt lat="43.17742" lon="0.15821">
        <ele>433</ele>
        <time>2018-09-30T08:57:40Z</time>
      </trkpt>
      <trkpt lat="43.17745" lon="0.1582">
        <ele>433</ele>
        <time>2018-09-30T08:57:41Z</time>
      </trkpt>
      <trkpt lat="43.17748" lon="0.1582">
        <ele>433</ele>
        <time>2018-09-30T08:57:42Z</time>
      </trkpt>
      <trkpt lat="43.17752" lon="0.1582">
        <ele>434</ele>
        <time>2018-09-30T08:57:43Z</time>
      </trkpt>
      <trkpt lat="43.17756" lon="0.15818">
        <ele>434</ele>
        <time>2018-09-30T08:57:44Z</time>
      </trkpt>
      <trkpt lat="43.1776" lon="0.15817">
        <ele>434</ele>
        <time>2018-09-30T08:57:45Z</time>
      </trkpt>
      <trkpt lat="43.17764" lon="0.15814">
        <ele>435</ele>
        <time>2018-09-30T08:57:46Z</time>
      </trkpt>
      <trkpt lat="43.17769" lon="0.15811">
        <ele>436</ele>
        <time>2018-09-30T08:57:47Z</time>
      </trkpt>
      <trkpt lat="43.17773" lon="0.15808">
        <ele>437</ele>
        <time>2018-09-30T08:57:48Z</time>
      </trkpt>
      <trkpt lat="43.17777" lon="0.15805">
        <ele>437</ele>
        <time>2018-09-30T08:57:49Z</time>
      </trkpt>
      <trkpt lat="43.17782" lon="0.15801">
        <ele>438</ele>
        <time>2018-09-30T08:57:50Z</time>
      </trkpt>
      <trkpt lat="43.17786" lon="0.15798">
        <ele>438</ele>
        <time>2018-09-30T08:57:51Z</time>
      </trkpt>
      <trkpt lat="43.1779" lon="0.15794">
        <ele>439</ele>
        <time>2018-09-30T08:57:52Z</time>
      </trkpt>
      <trkpt lat="43.17794" lon="0.15789">
        <ele>439</ele>
        <time>2018-09-30T08:57:53Z</time>
      </trkpt>
      <trkpt lat="43.17798" lon="0.15786">
        <ele>439</ele>
        <time>2018-09-30T08:57:54Z</time>
      </trkpt>
      <trkpt lat="43.17801" lon="0.15782">
        <ele>439</ele>
        <time>2018-09-30T08:57:55Z</time>
      </trkpt>
      <trkpt lat="43.17805" lon="0.15778">
        <ele>439</ele>
        <time>2018-09-30T08:57:56Z</time>
      </trkpt>
      <trkpt lat="43.17808" lon="0.15773">
        <ele>439</ele>
        <time>2018-09-30T08:57:57Z</time>
      </trkpt>
      <trkpt lat="43.17811" lon="0.15768">
        <ele>439</ele>
        <time>2018-09-30T08:57:58Z</time>
      </trkpt>
      <trkpt lat="43.17814" lon="0.15763">
        <ele>439</ele>
        <time>2018-09-30T08:57:59Z</time>
      </trkpt>
      <trkpt lat="43.17817" lon="0.15759">
        <ele>439</ele>
        <time>2018-09-30T08:58:00Z</time>
      </trkpt>
      <trkpt lat="43.17821" lon="0.15755">
        <ele>439</ele>
        <time>2018-09-30T08:58:01Z</time>
      </trkpt>
      <trkpt lat="43.17824" lon="0.15751">
        <ele>439</ele>
        <time>2018-09-30T08:58:02Z</time>
      </trkpt>
      <trkpt lat="43.17828" lon="0.15748">
        <ele>439</ele>
        <time>2018-09-30T08:58:03Z</time>
      </trkpt>
      <trkpt lat="43.17831" lon="0.15744">
        <ele>439</ele>
        <time>2018-09-30T08:58:04Z</time>
      </trkpt>
      <trkpt lat="43.17834" lon="0.15741">
        <ele>439</ele>
        <time>2018-09-30T08:58:05Z</time>
      </trkpt>
      <trkpt lat="43.17837" lon="0.15737">
        <ele>439</ele>
        <time>2018-09-30T08:58:06Z</time>
      </trkpt>
      <trkpt lat="43.1784" lon="0.15733">
        <ele>439</ele>
        <time>2018-09-30T08:58:07Z</time>
      </trkpt>
      <trkpt lat="43.17843" lon="0.15729">
        <ele>439</ele>
        <time>2018-09-30T08:58:08Z</time>
      </trkpt>
      <trkpt lat="43.17847" lon="0.15725">
        <ele>439</ele>
        <time>2018-09-30T08:58:09Z</time>
      </trkpt>
      <trkpt lat="43.1785" lon="0.1572">
        <ele>439</ele>
        <time>2018-09-30T08:58:10Z</time>
      </trkpt>
      <trkpt lat="43.17854" lon="0.15715">
        <ele>439</ele>
        <time>2018-09-30T08:58:11Z</time>
      </trkpt>
      <trkpt lat="43.17858" lon="0.15711">
        <ele>439</ele>
        <time>2018-09-30T08:58:12Z</time>
      </trkpt>
      <trkpt lat="43.17862" lon="0.15707">
        <ele>439</ele>
        <time>2018-09-30T08:58:13Z</time>
      </trkpt>
      <trkpt lat="43.17866" lon="0.15702">
        <ele>439</ele>
        <time>2018-09-30T08:58:14Z</time>
      </trkpt>
      <trkpt lat="43.1787" lon="0.15697">
        <ele>439</ele>
        <time>2018-09-30T08:58:15Z</time>
      </trkpt>
      <trkpt lat="43.17874" lon="0.15692">
        <ele>439</ele>
        <time>2018-09-30T08:58:16Z</time>
      </trkpt>
      <trkpt lat="43.17879" lon="0.15688">
        <ele>439</ele>
        <time>2018-09-30T08:58:17Z</time>
      </trkpt>
      <trkpt lat="43.17884" lon="0.15684">
        <ele>439</ele>
        <time>2018-09-30T08:58:18Z</time>
      </trkpt>
      <trkpt lat="43.17889" lon="0.1568">
        <ele>438</ele>
        <time>2018-09-30T08:58:19Z</time>
      </trkpt>
      <trkpt lat="43.17895" lon="0.15677">
        <ele>438</ele>
        <time>2018-09-30T08:58:20Z</time>
      </trkpt>
      <trkpt lat="43.179" lon="0.15673">
        <ele>438</ele>
        <time>2018-09-30T08:58:21Z</time>
      </trkpt>
      <trkpt lat="43.17906" lon="0.15669">
        <ele>438</ele>
        <time>2018-09-30T08:58:22Z</time>
      </trkpt>
      <trkpt lat="43.17911" lon="0.15665">
        <ele>438</ele>
        <time>2018-09-30T08:58:23Z</time>
      </trkpt>
      <trkpt lat="43.17916" lon="0.15661">
        <ele>438</ele>
        <time>2018-09-30T08:58:24Z</time>
      </trkpt>
      <trkpt lat="43.17921" lon="0.15657">
        <ele>438</ele>
        <time>2018-09-30T08:58:25Z</time>
      </trkpt>
      <trkpt lat="43.17926" lon="0.15654">
        <ele>438</ele>
        <time>2018-09-30T08:58:26Z</time>
      </trkpt>
      <trkpt lat="43.17931" lon="0.1565">
        <ele>438</ele>
        <time>2018-09-30T08:58:27Z</time>
      </trkpt>
      <trkpt lat="43.17936" lon="0.15646">
        <ele>438</ele>
        <time>2018-09-30T08:58:28Z</time>
      </trkpt>
      <trkpt lat="43.17941" lon="0.15643">
        <ele>438</ele>
        <time>2018-09-30T08:58:29Z</time>
      </trkpt>
      <trkpt lat="43.17945" lon="0.1564">
        <ele>438</ele>
        <time>2018-09-30T08:58:30Z</time>
      </trkpt>
      <trkpt lat="43.17949" lon="0.15636">
        <ele>438</ele>
        <time>2018-09-30T08:58:31Z</time>
      </trkpt>
      <trkpt lat="43.17953" lon="0.15633">
        <ele>438</ele>
        <time>2018-09-30T08:58:32Z</time>
      </trkpt>
      <trkpt lat="43.17956" lon="0.15631">
        <ele>438</ele>
        <time>2018-09-30T08:58:33Z</time>
      </trkpt>
      <trkpt lat="43.17959" lon="0.15628">
        <ele>438</ele>
        <time>2018-09-30T08:58:34Z</time>
      </trkpt>
      <trkpt lat="43.17962" lon="0.15625">
        <ele>438</ele>
        <time>2018-09-30T08:58:35Z</time>
      </trkpt>
      <trkpt lat="43.17965" lon="0.15622">
        <ele>438</ele>
        <time>2018-09-30T08:58:36Z</time>
      </trkpt>
      <trkpt lat="43.17968" lon="0.1562">
        <ele>438</ele>
        <time>2018-09-30T08:58:37Z</time>
      </trkpt>
      <trkpt lat="43.17971" lon="0.15617">
        <ele>438</ele>
        <time>2018-09-30T08:58:38Z</time>
      </trkpt>
      <trkpt lat="43.17975" lon="0.15614">
        <ele>438</ele>
        <time>2018-09-30T08:58:39Z</time>
      </trkpt>
      <trkpt lat="43.17978" lon="0.15612">
        <ele>438</ele>
        <time>2018-09-30T08:58:40Z</time>
      </trkpt>
      <trkpt lat="43.17981" lon="0.1561">
        <ele>438</ele>
        <time>2018-09-30T08:58:41Z</time>
      </trkpt>
      <trkpt lat="43.17984" lon="0.15608">
        <ele>438</ele>
        <time>2018-09-30T08:58:42Z</time>
      </trkpt>
      <trkpt lat="43.17988" lon="0.15608">
        <ele>438</ele>
        <time>2018-09-30T08:58:43Z</time>
      </trkpt>
      <trkpt lat="43.17993" lon="0.15608">
        <ele>438</ele>
        <time>2018-09-30T08:58:44Z</time>
      </trkpt>
      <trkpt lat="43.17998" lon="0.1561">
        <ele>438</ele>
        <time>2018-09-30T08:58:45Z</time>
      </trkpt>
      <trkpt lat="43.18003" lon="0.15613">
        <ele>438</ele>
        <time>2018-09-30T08:58:46Z</time>
      </trkpt>
      <trkpt lat="43.18009" lon="0.15617">
        <ele>438</ele>
        <time>2018-09-30T08:58:47Z</time>
      </trkpt>
      <trkpt lat="43.18015" lon="0.1562">
        <ele>438</ele>
        <time>2018-09-30T08:58:48Z</time>
      </trkpt>
      <trkpt lat="43.1802" lon="0.15624">
        <ele>438</ele>
        <time>2018-09-30T08:58:49Z</time>
      </trkpt>
      <trkpt lat="43.18026" lon="0.15628">
        <ele>438</ele>
        <time>2018-09-30T08:58:50Z</time>
      </trkpt>
      <trkpt lat="43.18032" lon="0.15631">
        <ele>438</ele>
        <time>2018-09-30T08:58:51Z</time>
      </trkpt>
      <trkpt lat="43.18037" lon="0.15635">
        <ele>438</ele>
        <time>2018-09-30T08:58:52Z</time>
      </trkpt>
      <trkpt lat="43.18043" lon="0.15639">
        <ele>437</ele>
        <time>2018-09-30T08:58:53Z</time>
      </trkpt>
      <trkpt lat="43.18049" lon="0.15642">
        <ele>437</ele>
        <time>2018-09-30T08:58:54Z</time>
      </trkpt>
      <trkpt lat="43.18054" lon="0.15646">
        <ele>437</ele>
        <time>2018-09-30T08:58:55Z</time>
      </trkpt>
      <trkpt lat="43.1806" lon="0.15649">
        <ele>437</ele>
        <time>2018-09-30T08:58:56Z</time>
      </trkpt>
      <trkpt lat="43.18065" lon="0.15652">
        <ele>437</ele>
        <time>2018-09-30T08:58:57Z</time>
      </trkpt>
      <trkpt lat="43.1807" lon="0.15655">
        <ele>437</ele>
        <time>2018-09-30T08:58:58Z</time>
      </trkpt>
      <trkpt lat="43.18076" lon="0.15658">
        <ele>437</ele>
        <time>2018-09-30T08:58:59Z</time>
      </trkpt>
      <trkpt lat="43.18081" lon="0.15661">
        <ele>437</ele>
        <time>2018-09-30T08:59:00Z</time>
      </trkpt>
      <trkpt lat="43.18086" lon="0.15664">
        <ele>437</ele>
        <time>2018-09-30T08:59:01Z</time>
      </trkpt>
      <trkpt lat="43.18091" lon="0.15667">
        <ele>437</ele>
        <time>2018-09-30T08:59:02Z</time>
      </trkpt>
      <trkpt lat="43.18096" lon="0.1567">
        <ele>437</ele>
        <time>2018-09-30T08:59:03Z</time>
      </trkpt>
      <trkpt lat="43.18101" lon="0.15672">
        <ele>437</ele>
        <time>2018-09-30T08:59:04Z</time>
      </trkpt>
      <trkpt lat="43.18105" lon="0.15676">
        <ele>437</ele>
        <time>2018-09-30T08:59:05Z</time>
      </trkpt>
      <trkpt lat="43.1811" lon="0.15678">
        <ele>437</ele>
        <time>2018-09-30T08:59:06Z</time>
      </trkpt>
      <trkpt lat="43.18115" lon="0.15681">
        <ele>437</ele>
        <time>2018-09-30T08:59:07Z</time>
      </trkpt>
      <trkpt lat="43.1812" lon="0.15684">
        <ele>437</ele>
        <time>2018-09-30T08:59:08Z</time>
      </trkpt>
      <trkpt lat="43.18124" lon="0.15687">
        <ele>437</ele>
        <time>2018-09-30T08:59:09Z</time>
      </trkpt>
      <trkpt lat="43.18129" lon="0.15691">
        <ele>437</ele>
        <time>2018-09-30T08:59:10Z</time>
      </trkpt>
      <trkpt lat="43.18135" lon="0.15694">
        <ele>436</ele>
        <time>2018-09-30T08:59:11Z</time>
      </trkpt>
      <trkpt lat="43.1814" lon="0.15698">
        <ele>436</ele>
        <time>2018-09-30T08:59:12Z</time>
      </trkpt>
      <trkpt lat="43.18145" lon="0.15702">
        <ele>436</ele>
        <time>2018-09-30T08:59:13Z</time>
      </trkpt>
      <trkpt lat="43.18151" lon="0.15706">
        <ele>436</ele>
        <time>2018-09-30T08:59:14Z</time>
      </trkpt>
      <trkpt lat="43.18156" lon="0.1571">
        <ele>436</ele>
        <time>2018-09-30T08:59:15Z</time>
      </trkpt>
      <trkpt lat="43.18162" lon="0.15714">
        <ele>436</ele>
        <time>2018-09-30T08:59:16Z</time>
      </trkpt>
      <trkpt lat="43.18167" lon="0.15717">
        <ele>436</ele>
        <time>2018-09-30T08:59:17Z</time>
      </trkpt>
      <trkpt lat="43.18173" lon="0.15721">
        <ele>436</ele>
        <time>2018-09-30T08:59:18Z</time>
      </trkpt>
      <trkpt lat="43.18179" lon="0.15725">
        <ele>436</ele>
        <time>2018-09-30T08:59:19Z</time>
      </trkpt>
      <trkpt lat="43.18185" lon="0.15729">
        <ele>436</ele>
        <time>2018-09-30T08:59:20Z</time>
      </trkpt>
      <trkpt lat="43.18191" lon="0.15732">
        <ele>436</ele>
        <time>2018-09-30T08:59:21Z</time>
      </trkpt>
      <trkpt lat="43.18197" lon="0.15736">
        <ele>436</ele>
        <time>2018-09-30T08:59:22Z</time>
      </trkpt>
      <trkpt lat="43.18202" lon="0.1574">
        <ele>436</ele>
        <time>2018-09-30T08:59:23Z</time>
      </trkpt>
      <trkpt lat="43.18208" lon="0.15743">
        <ele>436</ele>
        <time>2018-09-30T08:59:24Z</time>
      </trkpt>
      <trkpt lat="43.18214" lon="0.15747">
        <ele>436</ele>
        <time>2018-09-30T08:59:25Z</time>
      </trkpt>
      <trkpt lat="43.18219" lon="0.15751">
        <ele>436</ele>
        <time>2018-09-30T08:59:26Z</time>
      </trkpt>
      <trkpt lat="43.18225" lon="0.15754">
        <ele>436</ele>
        <time>2018-09-30T08:59:27Z</time>
      </trkpt>
      <trkpt lat="43.18231" lon="0.15758">
        <ele>436</ele>
        <time>2018-09-30T08:59:28Z</time>
      </trkpt>
      <trkpt lat="43.18236" lon="0.15762">
        <ele>436</ele>
        <time>2018-09-30T08:59:29Z</time>
      </trkpt>
      <trkpt lat="43.18242" lon="0.15765">
        <ele>436</ele>
        <time>2018-09-30T08:59:30Z</time>
      </trkpt>
      <trkpt lat="43.18247" lon="0.15769">
        <ele>436</ele>
        <time>2018-09-30T08:59:31Z</time>
      </trkpt>
      <trkpt lat="43.18252" lon="0.15772">
        <ele>436</ele>
        <time>2018-09-30T08:59:32Z</time>
      </trkpt>
      <trkpt lat="43.18258" lon="0.15775">
        <ele>436</ele>
        <time>2018-09-30T08:59:33Z</time>
      </trkpt>
      <trkpt lat="43.18263" lon="0.15778">
        <ele>436</ele>
        <time>2018-09-30T08:59:34Z</time>
      </trkpt>
      <trkpt lat="43.18269" lon="0.15781">
        <ele>436</ele>
        <time>2018-09-30T08:59:35Z</time>
      </trkpt>
      <trkpt lat="43.18274" lon="0.15783">
        <ele>436</ele>
        <time>2018-09-30T08:59:36Z</time>
      </trkpt>
      <trkpt lat="43.1828" lon="0.15785">
        <ele>436</ele>
        <time>2018-09-30T08:59:37Z</time>
      </trkpt>
      <trkpt lat="43.18286" lon="0.15786">
        <ele>436</ele>
        <time>2018-09-30T08:59:38Z</time>
      </trkpt>
      <trkpt lat="43.18291" lon="0.15787">
        <ele>436</ele>
        <time>2018-09-30T08:59:39Z</time>
      </trkpt>
      <trkpt lat="43.18298" lon="0.15787">
        <ele>436</ele>
        <time>2018-09-30T08:59:40Z</time>
      </trkpt>
      <trkpt lat="43.18303" lon="0.15787">
        <ele>435</ele>
        <time>2018-09-30T08:59:41Z</time>
      </trkpt>
      <trkpt lat="43.18309" lon="0.15787">
        <ele>435</ele>
        <time>2018-09-30T08:59:42Z</time>
      </trkpt>
      <trkpt lat="43.18315" lon="0.15787">
        <ele>435</ele>
        <time>2018-09-30T08:59:43Z</time>
      </trkpt>
      <trkpt lat="43.18321" lon="0.15786">
        <ele>435</ele>
        <time>2018-09-30T08:59:44Z</time>
      </trkpt>
      <trkpt lat="43.18327" lon="0.15786">
        <ele>435</ele>
        <time>2018-09-30T08:59:45Z</time>
      </trkpt>
      <trkpt lat="43.18334" lon="0.15785">
        <ele>435</ele>
        <time>2018-09-30T08:59:46Z</time>
      </trkpt>
      <trkpt lat="43.1834" lon="0.15785">
        <ele>435</ele>
        <time>2018-09-30T08:59:47Z</time>
      </trkpt>
      <trkpt lat="43.18346" lon="0.15784">
        <ele>435</ele>
        <time>2018-09-30T08:59:48Z</time>
      </trkpt>
      <trkpt lat="43.18352" lon="0.15784">
        <ele>435</ele>
        <time>2018-09-30T08:59:49Z</time>
      </trkpt>
      <trkpt lat="43.18359" lon="0.15783">
        <ele>435</ele>
        <time>2018-09-30T08:59:50Z</time>
      </trkpt>
      <trkpt lat="43.18366" lon="0.15781">
        <ele>435</ele>
        <time>2018-09-30T08:59:51Z</time>
      </trkpt>
      <trkpt lat="43.18373" lon="0.1578">
        <ele>435</ele>
        <time>2018-09-30T08:59:52Z</time>
      </trkpt>
      <trkpt lat="43.1838" lon="0.15778">
        <ele>435</ele>
        <time>2018-09-30T08:59:53Z</time>
      </trkpt>
      <trkpt lat="43.18386" lon="0.15777">
        <ele>435</ele>
        <time>2018-09-30T08:59:54Z</time>
      </trkpt>
      <trkpt lat="43.18393" lon="0.15776">
        <ele>435</ele>
        <time>2018-09-30T08:59:55Z</time>
      </trkpt>
      <trkpt lat="43.18399" lon="0.15775">
        <ele>434</ele>
        <time>2018-09-30T08:59:56Z</time>
      </trkpt>
      <trkpt lat="43.18406" lon="0.15774">
        <ele>434</ele>
        <time>2018-09-30T08:59:57Z</time>
      </trkpt>
      <trkpt lat="43.18412" lon="0.15774">
        <ele>434</ele>
        <time>2018-09-30T08:59:58Z</time>
      </trkpt>
      <trkpt lat="43.18418" lon="0.15773">
        <ele>434</ele>
        <time>2018-09-30T08:59:59Z</time>
      </trkpt>
      <trkpt lat="43.18424" lon="0.15772">
        <ele>434</ele>
        <time>2018-09-30T09:00:00Z</time>
      </trkpt>
      <trkpt lat="43.1843" lon="0.15772">
        <ele>434</ele>
        <time>2018-09-30T09:00:01Z</time>
      </trkpt>
      <trkpt lat="43.18437" lon="0.15772">
        <ele>434</ele>
        <time>2018-09-30T09:00:02Z</time>
      </trkpt>
      <trkpt lat="43.18443" lon="0.15773">
        <ele>434</ele>
        <time>2018-09-30T09:00:03Z</time>
      </trkpt>
      <trkpt lat="43.18449" lon="0.15774">
        <ele>433</ele>
        <time>2018-09-30T09:00:04Z</time>
      </trkpt>
      <trkpt lat="43.18455" lon="0.15776">
        <ele>433</ele>
        <time>2018-09-30T09:00:05Z</time>
      </trkpt>
      <trkpt lat="43.18461" lon="0.15777">
        <ele>433</ele>
        <time>2018-09-30T09:00:06Z</time>
      </trkpt>
      <trkpt lat="43.18468" lon="0.15779">
        <ele>433</ele>
        <time>2018-09-30T09:00:07Z</time>
      </trkpt>
      <trkpt lat="43.18474" lon="0.1578">
        <ele>433</ele>
        <time>2018-09-30T09:00:08Z</time>
      </trkpt>
      <trkpt lat="43.1848" lon="0.15782">
        <ele>433</ele>
        <time>2018-09-30T09:00:09Z</time>
      </trkpt>
      <trkpt lat="43.18486" lon="0.15784">
        <ele>433</ele>
        <time>2018-09-30T09:00:10Z</time>
      </trkpt>
      <trkpt lat="43.18492" lon="0.15785">
        <ele>432</ele>
        <time>2018-09-30T09:00:11Z</time>
      </trkpt>
      <trkpt lat="43.18497" lon="0.15786">
        <ele>432</ele>
        <time>2018-09-30T09:00:12Z</time>
      </trkpt>
      <trkpt lat="43.18502" lon="0.15785">
        <ele>432</ele>
        <time>2018-09-30T09:00:13Z</time>
      </trkpt>
      <trkpt lat="43.18508" lon="0.15784">
        <ele>432</ele>
        <time>2018-09-30T09:00:14Z</time>
      </trkpt>
      <trkpt lat="43.18514" lon="0.15781">
        <ele>432</ele>
        <time>2018-09-30T09:00:15Z</time>
      </trkpt>
      <trkpt lat="43.18519" lon="0.15777">
        <ele>432</ele>
        <time>2018-09-30T09:00:16Z</time>
      </trkpt>
      <trkpt lat="43.18525" lon="0.15773">
        <ele>432</ele>
        <time>2018-09-30T09:00:17Z</time>
      </trkpt>
      <trkpt lat="43.18532" lon="0.1577">
        <ele>432</ele>
        <time>2018-09-30T09:00:18Z</time>
      </trkpt>
      <trkpt lat="43.18539" lon="0.15767">
        <ele>432</ele>
        <time>2018-09-30T09:00:19Z</time>
      </trkpt>
      <trkpt lat="43.18545" lon="0.15763">
        <ele>431</ele>
        <time>2018-09-30T09:00:20Z</time>
      </trkpt>
      <trkpt lat="43.18551" lon="0.15759">
        <ele>431</ele>
        <time>2018-09-30T09:00:21Z</time>
      </trkpt>
      <trkpt lat="43.18558" lon="0.15756">
        <ele>431</ele>
        <time>2018-09-30T09:00:22Z</time>
      </trkpt>
      <trkpt lat="43.18564" lon="0.15751">
        <ele>431</ele>
        <time>2018-09-30T09:00:23Z</time>
      </trkpt>
      <trkpt lat="43.18569" lon="0.15746">
        <ele>431</ele>
        <time>2018-09-30T09:00:24Z</time>
      </trkpt>
      <trkpt lat="43.18574" lon="0.1574">
        <ele>431</ele>
        <time>2018-09-30T09:00:25Z</time>
      </trkpt>
      <trkpt lat="43.1858" lon="0.15735">
        <ele>430</ele>
        <time>2018-09-30T09:00:26Z</time>
      </trkpt>
      <trkpt lat="43.18585" lon="0.1573">
        <ele>430</ele>
        <time>2018-09-30T09:00:27Z</time>
      </trkpt>
      <trkpt lat="43.1859" lon="0.15724">
        <ele>430</ele>
        <time>2018-09-30T09:00:28Z</time>
      </trkpt>
      <trkpt lat="43.18595" lon="0.15718">
        <ele>430</ele>
        <time>2018-09-30T09:00:29Z</time>
      </trkpt>
      <trkpt lat="43.186" lon="0.15712">
        <ele>430</ele>
        <time>2018-09-30T09:00:30Z</time>
      </trkpt>
      <trkpt lat="43.18605" lon="0.15707">
        <ele>430</ele>
        <time>2018-09-30T09:00:31Z</time>
      </trkpt>
      <trkpt lat="43.18609" lon="0.15701">
        <ele>429</ele>
        <time>2018-09-30T09:00:32Z</time>
      </trkpt>
      <trkpt lat="43.18614" lon="0.15695">
        <ele>429</ele>
        <time>2018-09-30T09:00:33Z</time>
      </trkpt>
      <trkpt lat="43.18618" lon="0.15689">
        <ele>429</ele>
        <time>2018-09-30T09:00:34Z</time>
      </trkpt>
      <trkpt lat="43.18621" lon="0.15685">
        <ele>428</ele>
        <time>2018-09-30T09:00:35Z</time>
      </trkpt>
      <trkpt lat="43.18625" lon="0.15681">
        <ele>428</ele>
        <time>2018-09-30T09:00:36Z</time>
      </trkpt>
      <trkpt lat="43.18628" lon="0.15678">
        <ele>427</ele>
        <time>2018-09-30T09:00:37Z</time>
      </trkpt>
      <trkpt lat="43.1863" lon="0.15675">
        <ele>427</ele>
        <time>2018-09-30T09:00:38Z</time>
      </trkpt>
      <trkpt lat="43.18633" lon="0.15672">
        <ele>427</ele>
        <time>2018-09-30T09:00:39Z</time>
      </trkpt>
      <trkpt lat="43.18636" lon="0.15669">
        <ele>427</ele>
        <time>2018-09-30T09:00:40Z</time>
      </trkpt>
      <trkpt lat="43.18638" lon="0.15664">
        <ele>426</ele>
        <time>2018-09-30T09:00:41Z</time>
      </trkpt>
      <trkpt lat="43.18643" lon="0.15659">
        <ele>426</ele>
        <time>2018-09-30T09:00:42Z</time>
      </trkpt>
      <trkpt lat="43.18647" lon="0.15653">
        <ele>425</ele>
        <time>2018-09-30T09:00:43Z</time>
      </trkpt>
      <trkpt lat="43.18651" lon="0.15646">
        <ele>424</ele>
        <time>2018-09-30T09:00:44Z</time>
      </trkpt>
      <trkpt lat="43.18655" lon="0.15641">
        <ele>424</ele>
        <time>2018-09-30T09:00:45Z</time>
      </trkpt>
      <trkpt lat="43.1866" lon="0.15636">
        <ele>424</ele>
        <time>2018-09-30T09:00:46Z</time>
      </trkpt>
      <trkpt lat="43.18663" lon="0.1563">
        <ele>423</ele>
        <time>2018-09-30T09:00:47Z</time>
      </trkpt>
      <trkpt lat="43.18667" lon="0.15624">
        <ele>423</ele>
        <time>2018-09-30T09:00:48Z</time>
      </trkpt>
      <trkpt lat="43.18672" lon="0.15619">
        <ele>422</ele>
        <time>2018-09-30T09:00:49Z</time>
      </trkpt>
      <trkpt lat="43.18675" lon="0.15611">
        <ele>421</ele>
        <time>2018-09-30T09:00:50Z</time>
      </trkpt>
      <trkpt lat="43.18678" lon="0.15603">
        <ele>421</ele>
        <time>2018-09-30T09:00:51Z</time>
      </trkpt>
      <trkpt lat="43.18681" lon="0.15597">
        <ele>421</ele>
        <time>2018-09-30T09:00:52Z</time>
      </trkpt>
      <trkpt lat="43.18686" lon="0.15593">
        <ele>420</ele>
        <time>2018-09-30T09:00:53Z</time>
      </trkpt>
      <trkpt lat="43.18692" lon="0.1559">
        <ele>419</ele>
        <time>2018-09-30T09:00:54Z</time>
      </trkpt>
      <trkpt lat="43.18696" lon="0.15585">
        <ele>419</ele>
        <time>2018-09-30T09:00:55Z</time>
      </trkpt>
      <trkpt lat="43.18702" lon="0.15581">
        <ele>419</ele>
        <time>2018-09-30T09:00:56Z</time>
      </trkpt>
      <trkpt lat="43.18707" lon="0.15576">
        <ele>418</ele>
        <time>2018-09-30T09:00:57Z</time>
      </trkpt>
      <trkpt lat="43.18713" lon="0.15572">
        <ele>417</ele>
        <time>2018-09-30T09:00:58Z</time>
      </trkpt>
      <trkpt lat="43.18719" lon="0.15568">
        <ele>417</ele>
        <time>2018-09-30T09:00:59Z</time>
      </trkpt>
      <trkpt lat="43.18725" lon="0.15563">
        <ele>415</ele>
        <time>2018-09-30T09:01:00Z</time>
      </trkpt>
      <trkpt lat="43.18731" lon="0.15561">
        <ele>415</ele>
        <time>2018-09-30T09:01:01Z</time>
      </trkpt>
      <trkpt lat="43.18737" lon="0.15559">
        <ele>414</ele>
        <time>2018-09-30T09:01:02Z</time>
      </trkpt>
      <trkpt lat="43.18744" lon="0.15557">
        <ele>413</ele>
        <time>2018-09-30T09:01:03Z</time>
      </trkpt>
      <trkpt lat="43.18749" lon="0.15555">
        <ele>412</ele>
        <time>2018-09-30T09:01:04Z</time>
      </trkpt>
      <trkpt lat="43.18752" lon="0.15552">
        <ele>411</ele>
        <time>2018-09-30T09:01:05Z</time>
      </trkpt>
      <trkpt lat="43.18755" lon="0.15547">
        <ele>411</ele>
        <time>2018-09-30T09:01:06Z</time>
      </trkpt>
      <trkpt lat="43.18758" lon="0.15542">
        <ele>410</ele>
        <time>2018-09-30T09:01:07Z</time>
      </trkpt>
      <trkpt lat="43.1876" lon="0.15537">
        <ele>410</ele>
        <time>2018-09-30T09:01:08Z</time>
      </trkpt>
      <trkpt lat="43.18763" lon="0.15533">
        <ele>409</ele>
        <time>2018-09-30T09:01:09Z</time>
      </trkpt>
      <trkpt lat="43.18767" lon="0.15528">
        <ele>409</ele>
        <time>2018-09-30T09:01:10Z</time>
      </trkpt>
      <trkpt lat="43.18771" lon="0.15523">
        <ele>408</ele>
        <time>2018-09-30T09:01:11Z</time>
      </trkpt>
      <trkpt lat="43.18776" lon="0.15517">
        <ele>405</ele>
        <time>2018-09-30T09:01:12Z</time>
      </trkpt>
      <trkpt lat="43.1878" lon="0.15511">
        <ele>404</ele>
        <time>2018-09-30T09:01:13Z</time>
      </trkpt>
      <trkpt lat="43.18785" lon="0.15505">
        <ele>404</ele>
        <time>2018-09-30T09:01:14Z</time>
      </trkpt>
      <trkpt lat="43.18789" lon="0.155">
        <ele>402</ele>
        <time>2018-09-30T09:01:15Z</time>
      </trkpt>
      <trkpt lat="43.18793" lon="0.15495">
        <ele>401</ele>
        <time>2018-09-30T09:01:16Z</time>
      </trkpt>
      <trkpt lat="43.18797" lon="0.1549">
        <ele>400</ele>
        <time>2018-09-30T09:01:17Z</time>
      </trkpt>
      <trkpt lat="43.18801" lon="0.15485">
        <ele>399</ele>
        <time>2018-09-30T09:01:18Z</time>
      </trkpt>
      <trkpt lat="43.18805" lon="0.1548">
        <ele>398</ele>
        <time>2018-09-30T09:01:19Z</time>
      </trkpt>
      <trkpt lat="43.18809" lon="0.15476">
        <ele>398</ele>
        <time>2018-09-30T09:01:20Z</time>
      </trkpt>
      <trkpt lat="43.18814" lon="0.15472">
        <ele>397</ele>
        <time>2018-09-30T09:01:21Z</time>
      </trkpt>
      <trkpt lat="43.18818" lon="0.15468">
        <ele>396</ele>
        <time>2018-09-30T09:01:22Z</time>
      </trkpt>
      <trkpt lat="43.18822" lon="0.15464">
        <ele>396</ele>
        <time>2018-09-30T09:01:23Z</time>
      </trkpt>
      <trkpt lat="43.18827" lon="0.1546">
        <ele>395</ele>
        <time>2018-09-30T09:01:24Z</time>
      </trkpt>
      <trkpt lat="43.18832" lon="0.15454">
        <ele>395</ele>
        <time>2018-09-30T09:01:25Z</time>
      </trkpt>
      <trkpt lat="43.18837" lon="0.1545">
        <ele>395</ele>
        <time>2018-09-30T09:01:26Z</time>
      </trkpt>
      <trkpt lat="43.18842" lon="0.15444">
        <ele>394</ele>
        <time>2018-09-30T09:01:27Z</time>
      </trkpt>
      <trkpt lat="43.18847" lon="0.15439">
        <ele>394</ele>
        <time>2018-09-30T09:01:28Z</time>
      </trkpt>
      <trkpt lat="43.18852" lon="0.15434">
        <ele>394</ele>
        <time>2018-09-30T09:01:29Z</time>
      </trkpt>
      <trkpt lat="43.18857" lon="0.15428">
        <ele>394</ele>
        <time>2018-09-30T09:01:30Z</time>
      </trkpt>
      <trkpt lat="43.18861" lon="0.15423">
        <ele>394</ele>
        <time>2018-09-30T09:01:31Z</time>
      </trkpt>
      <trkpt lat="43.18869" lon="0.15418">
        <ele>394</ele>
        <time>2018-09-30T09:01:32Z</time>
      </trkpt>
      <trkpt lat="43.18874" lon="0.15412">
        <ele>395</ele>
        <time>2018-09-30T09:01:33Z</time>
      </trkpt>
      <trkpt lat="43.18879" lon="0.15407">
        <ele>395</ele>
        <time>2018-09-30T09:01:34Z</time>
      </trkpt>
      <trkpt lat="43.18882" lon="0.15402">
        <ele>395</ele>
        <time>2018-09-30T09:01:35Z</time>
      </trkpt>
      <trkpt lat="43.18886" lon="0.15398">
        <ele>395</ele>
        <time>2018-09-30T09:01:36Z</time>
      </trkpt>
      <trkpt lat="43.1889" lon="0.15395">
        <ele>396</ele>
        <time>2018-09-30T09:01:37Z</time>
      </trkpt>
      <trkpt lat="43.18893" lon="0.15392">
        <ele>396</ele>
        <time>2018-09-30T09:01:38Z</time>
      </trkpt>
      <trkpt lat="43.18896" lon="0.15388">
        <ele>396</ele>
        <time>2018-09-30T09:01:39Z</time>
      </trkpt>
      <trkpt lat="43.18898" lon="0.15382">
        <ele>396</ele>
        <time>2018-09-30T09:01:40Z</time>
      </trkpt>
      <trkpt lat="43.189" lon="0.15378">
        <ele>396</ele>
        <time>2018-09-30T09:01:41Z</time>
      </trkpt>
      <trkpt lat="43.18903" lon="0.15373">
        <ele>396</ele>
        <time>2018-09-30T09:01:42Z</time>
      </trkpt>
      <trkpt lat="43.18906" lon="0.15369">
        <ele>396</ele>
        <time>2018-09-30T09:01:43Z</time>
      </trkpt>
      <trkpt lat="43.18909" lon="0.15365">
        <ele>396</ele>
        <time>2018-09-30T09:01:44Z</time>
      </trkpt>
      <trkpt lat="43.18911" lon="0.15361">
        <ele>396</ele>
        <time>2018-09-30T09:01:45Z</time>
      </trkpt>
      <trkpt lat="43.18914" lon="0.15357">
        <ele>396</ele>
        <time>2018-09-30T09:01:46Z</time>
      </trkpt>
      <trkpt lat="43.18916" lon="0.15353">
        <ele>396</ele>
        <time>2018-09-30T09:01:47Z</time>
      </trkpt>
      <trkpt lat="43.18918" lon="0.15349">
        <ele>396</ele>
        <time>2018-09-30T09:01:48Z</time>
      </trkpt>
      <trkpt lat="43.18919" lon="0.15344">
        <ele>396</ele>
        <time>2018-09-30T09:01:49Z</time>
      </trkpt>
      <trkpt lat="43.18921" lon="0.15339">
        <ele>396</ele>
        <time>2018-09-30T09:01:50Z</time>
      </trkpt>
      <trkpt lat="43.18923" lon="0.15334">
        <ele>396</ele>
        <time>2018-09-30T09:01:51Z</time>
      </trkpt>
      <trkpt lat="43.18924" lon="0.15327">
        <ele>396</ele>
        <time>2018-09-30T09:01:52Z</time>
      </trkpt>
      <trkpt lat="43.18927" lon="0.15322">
        <ele>396</ele>
        <time>2018-09-30T09:01:53Z</time>
      </trkpt>
      <trkpt lat="43.18929" lon="0.15315">
        <ele>395</ele>
        <time>2018-09-30T09:01:54Z</time>
      </trkpt>
      <trkpt lat="43.18931" lon="0.15309">
        <ele>395</ele>
        <time>2018-09-30T09:01:55Z</time>
      </trkpt>
      <trkpt lat="43.18932" lon="0.15302">
        <ele>395</ele>
        <time>2018-09-30T09:01:56Z</time>
      </trkpt>
      <trkpt lat="43.18933" lon="0.15296">
        <ele>395</ele>
        <time>2018-09-30T09:01:57Z</time>
      </trkpt>
      <trkpt lat="43.18934" lon="0.15291">
        <ele>395</ele>
        <time>2018-09-30T09:01:58Z</time>
      </trkpt>
      <trkpt lat="43.18936" lon="0.15286">
        <ele>394</ele>
        <time>2018-09-30T09:01:59Z</time>
      </trkpt>
      <trkpt lat="43.18937" lon="0.15281">
        <ele>394</ele>
        <time>2018-09-30T09:02:00Z</time>
      </trkpt>
      <trkpt lat="43.18938" lon="0.15277">
        <ele>394</ele>
        <time>2018-09-30T09:02:01Z</time>
      </trkpt>
      <trkpt lat="43.18938" lon="0.15273">
        <ele>394</ele>
        <time>2018-09-30T09:02:02Z</time>
      </trkpt>
      <trkpt lat="43.1894" lon="0.15271">
        <ele>394</ele>
        <time>2018-09-30T09:02:03Z</time>
      </trkpt>
      <trkpt lat="43.18942" lon="0.1527">
        <ele>394</ele>
        <time>2018-09-30T09:02:04Z</time>
      </trkpt>
      <trkpt lat="43.18945" lon="0.15269">
        <ele>394</ele>
        <time>2018-09-30T09:02:05Z</time>
      </trkpt>
      <trkpt lat="43.18949" lon="0.15272">
        <ele>394</ele>
        <time>2018-09-30T09:02:06Z</time>
      </trkpt>
      <trkpt lat="43.18953" lon="0.15275">
        <ele>394</ele>
        <time>2018-09-30T09:02:07Z</time>
      </trkpt>
      <trkpt lat="43.18959" lon="0.15277">
        <ele>393</ele>
        <time>2018-09-30T09:02:08Z</time>
      </trkpt>
      <trkpt lat="43.18964" lon="0.15276">
        <ele>393</ele>
        <time>2018-09-30T09:02:09Z</time>
      </trkpt>
      <trkpt lat="43.18968" lon="0.15274">
        <ele>393</ele>
        <time>2018-09-30T09:02:10Z</time>
      </trkpt>
      <trkpt lat="43.18971" lon="0.15271">
        <ele>393</ele>
        <time>2018-09-30T09:02:11Z</time>
      </trkpt>
      <trkpt lat="43.18972" lon="0.15264">
        <ele>393</ele>
        <time>2018-09-30T09:02:12Z</time>
      </trkpt>
      <trkpt lat="43.18972" lon="0.15258">
        <ele>392</ele>
        <time>2018-09-30T09:02:13Z</time>
      </trkpt>
      <trkpt lat="43.1898" lon="0.15249">
        <ele>392</ele>
        <time>2018-09-30T09:02:14Z</time>
      </trkpt>
      <trkpt lat="43.18984" lon="0.1524">
        <ele>393</ele>
        <time>2018-09-30T09:02:15Z</time>
      </trkpt>
      <trkpt lat="43.18984" lon="0.1523">
        <ele>393</ele>
        <time>2018-09-30T09:02:16Z</time>
      </trkpt>
      <trkpt lat="43.18983" lon="0.15221">
        <ele>393</ele>
        <time>2018-09-30T09:02:17Z</time>
      </trkpt>
      <trkpt lat="43.18981" lon="0.15211">
        <ele>393</ele>
        <time>2018-09-30T09:02:18Z</time>
      </trkpt>
      <trkpt lat="43.18984" lon="0.15201">
        <ele>393</ele>
        <time>2018-09-30T09:02:19Z</time>
      </trkpt>
      <trkpt lat="43.18985" lon="0.15192">
        <ele>393</ele>
        <time>2018-09-30T09:02:20Z</time>
      </trkpt>
      <trkpt lat="43.18986" lon="0.15186">
        <ele>393</ele>
        <time>2018-09-30T09:02:21Z</time>
      </trkpt>
      <trkpt lat="43.18989" lon="0.15177">
        <ele>393</ele>
        <time>2018-09-30T09:02:22Z</time>
      </trkpt>
      <trkpt lat="43.18991" lon="0.1517">
        <ele>394</ele>
        <time>2018-09-30T09:02:23Z</time>
      </trkpt>
      <trkpt lat="43.18989" lon="0.15163">
        <ele>394</ele>
        <time>2018-09-30T09:02:24Z</time>
      </trkpt>
      <trkpt lat="43.18991" lon="0.15153">
        <ele>394</ele>
        <time>2018-09-30T09:02:25Z</time>
      </trkpt>
      <trkpt lat="43.18994" lon="0.15143">
        <ele>394</ele>
        <time>2018-09-30T09:02:26Z</time>
      </trkpt>
      <trkpt lat="43.18995" lon="0.15133">
        <ele>395</ele>
        <time>2018-09-30T09:02:27Z</time>
      </trkpt>
      <trkpt lat="43.18993" lon="0.15123">
        <ele>395</ele>
        <time>2018-09-30T09:02:28Z</time>
      </trkpt>
      <trkpt lat="43.18993" lon="0.15109">
        <ele>395</ele>
        <time>2018-09-30T09:02:29Z</time>
      </trkpt>
      <trkpt lat="43.18993" lon="0.15095">
        <ele>396</ele>
        <time>2018-09-30T09:02:30Z</time>
      </trkpt>
      <trkpt lat="43.18996" lon="0.15078">
        <ele>396</ele>
        <time>2018-09-30T09:02:31Z</time>
      </trkpt>
      <trkpt lat="43.18998" lon="0.15063">
        <ele>397</ele>
        <time>2018-09-30T09:02:32Z</time>
      </trkpt>
      <trkpt lat="43.19" lon="0.1505">
        <ele>397</ele>
        <time>2018-09-30T09:02:33Z</time>
      </trkpt>
      <trkpt lat="43.19001" lon="0.15038">
        <ele>398</ele>
        <time>2018-09-30T09:02:34Z</time>
      </trkpt>
      <trkpt lat="43.19003" lon="0.15027">
        <ele>398</ele>
        <time>2018-09-30T09:02:35Z</time>
      </trkpt>
      <trkpt lat="43.19005" lon="0.15017">
        <ele>399</ele>
        <time>2018-09-30T09:02:36Z</time>
      </trkpt>
      <trkpt lat="43.19009" lon="0.15009">
        <ele>399</ele>
        <time>2018-09-30T09:02:37Z</time>
      </trkpt>
      <trkpt lat="43.19011" lon="0.15002">
        <ele>400</ele>
        <time>2018-09-30T09:02:38Z</time>
      </trkpt>
      <trkpt lat="43.19013" lon="0.14993">
        <ele>400</ele>
        <time>2018-09-30T09:02:39Z</time>
      </trkpt>
      <trkpt lat="43.19015" lon="0.14985">
        <ele>400</ele>
        <time>2018-09-30T09:02:40Z</time>
      </trkpt>
      <trkpt lat="43.19016" lon="0.14974">
        <ele>400</ele>
        <time>2018-09-30T09:02:41Z</time>
      </trkpt>
      <trkpt lat="43.19016" lon="0.14964">
        <ele>400</ele>
        <time>2018-09-30T09:02:42Z</time>
      </trkpt>
      <trkpt lat="43.19015" lon="0.14953">
        <ele>399</ele>
        <time>2018-09-30T09:02:43Z</time>
      </trkpt>
      <trkpt lat="43.19014" lon="0.14942">
        <ele>399</ele>
        <time>2018-09-30T09:02:44Z</time>
      </trkpt>
      <trkpt lat="43.18999" lon="0.14912">
        <ele>395</ele>
        <time>2018-09-30T09:02:45Z</time>
      </trkpt>
      <trkpt lat="43.18997" lon="0.14901">
        <ele>392</ele>
        <time>2018-09-30T09:02:46Z</time>
      </trkpt>
      <trkpt lat="43.18995" lon="0.14893">
        <ele>390</ele>
        <time>2018-09-30T09:02:47Z</time>
      </trkpt>
      <trkpt lat="43.18995" lon="0.14886">
        <ele>389</ele>
        <time>2018-09-30T09:02:48Z</time>
      </trkpt>
      <trkpt lat="43.18995" lon="0.14879">
        <ele>388</ele>
        <time>2018-09-30T09:02:49Z</time>
      </trkpt>
      <trkpt lat="43.18995" lon="0.14871">
        <ele>387</ele>
        <time>2018-09-30T09:02:50Z</time>
      </trkpt>
      <trkpt lat="43.18995" lon="0.14864">
        <ele>386</ele>
        <time>2018-09-30T09:02:51Z</time>
      </trkpt>
      <trkpt lat="43.18995" lon="0.14856">
        <ele>385</ele>
        <time>2018-09-30T09:02:52Z</time>
      </trkpt>
      <trkpt lat="43.18995" lon="0.14849">
        <ele>384</ele>
        <time>2018-09-30T09:02:53Z</time>
      </trkpt>
      <trkpt lat="43.18996" lon="0.14842">
        <ele>384</ele>
        <time>2018-09-30T09:02:54Z</time>
      </trkpt>
      <trkpt lat="43.18996" lon="0.14835">
        <ele>383</ele>
        <time>2018-09-30T09:02:55Z</time>
      </trkpt>
      <trkpt lat="43.18997" lon="0.14828">
        <ele>380</ele>
        <time>2018-09-30T09:02:56Z</time>
      </trkpt>
      <trkpt lat="43.18999" lon="0.14822">
        <ele>380</ele>
        <time>2018-09-30T09:02:57Z</time>
      </trkpt>
      <trkpt lat="43.19002" lon="0.14816">
        <ele>379</ele>
        <time>2018-09-30T09:02:58Z</time>
      </trkpt>
      <trkpt lat="43.19006" lon="0.14811">
        <ele>379</ele>
        <time>2018-09-30T09:02:59Z</time>
      </trkpt>
      <trkpt lat="43.1901" lon="0.14807">
        <ele>379</ele>
        <time>2018-09-30T09:03:00Z</time>
      </trkpt>
      <trkpt lat="43.19014" lon="0.14804">
        <ele>379</ele>
        <time>2018-09-30T09:03:01Z</time>
      </trkpt>
      <trkpt lat="43.19018" lon="0.148">
        <ele>379</ele>
        <time>2018-09-30T09:03:02Z</time>
      </trkpt>
      <trkpt lat="43.19023" lon="0.14796">
        <ele>379</ele>
        <time>2018-09-30T09:03:03Z</time>
      </trkpt>
      <trkpt lat="43.19027" lon="0.14792">
        <ele>379</ele>
        <time>2018-09-30T09:03:04Z</time>
      </trkpt>
      <trkpt lat="43.19032" lon="0.14788">
        <ele>380</ele>
        <time>2018-09-30T09:03:05Z</time>
      </trkpt>
      <trkpt lat="43.19036" lon="0.14783">
        <ele>380</ele>
        <time>2018-09-30T09:03:06Z</time>
      </trkpt>
      <trkpt lat="43.19041" lon="0.14778">
        <ele>380</ele>
        <time>2018-09-30T09:03:07Z</time>
      </trkpt>
      <trkpt lat="43.19045" lon="0.14773">
        <ele>381</ele>
        <time>2018-09-30T09:03:08Z</time>
      </trkpt>
      <trkpt lat="43.19048" lon="0.14767">
        <ele>381</ele>
        <time>2018-09-30T09:03:09Z</time>
      </trkpt>
      <trkpt lat="43.19052" lon="0.14761">
        <ele>381</ele>
        <time>2018-09-30T09:03:10Z</time>
      </trkpt>
      <trkpt lat="43.19054" lon="0.14755">
        <ele>381</ele>
        <time>2018-09-30T09:03:11Z</time>
      </trkpt>
      <trkpt lat="43.19057" lon="0.14748">
        <ele>382</ele>
        <time>2018-09-30T09:03:12Z</time>
      </trkpt>
      <trkpt lat="43.19059" lon="0.14741">
        <ele>382</ele>
        <time>2018-09-30T09:03:13Z</time>
      </trkpt>
      <trkpt lat="43.1906" lon="0.14733">
        <ele>382</ele>
        <time>2018-09-30T09:03:14Z</time>
      </trkpt>
      <trkpt lat="43.19062" lon="0.14725">
        <ele>382</ele>
        <time>2018-09-30T09:03:15Z</time>
      </trkpt>
      <trkpt lat="43.19064" lon="0.14718">
        <ele>382</ele>
        <time>2018-09-30T09:03:16Z</time>
      </trkpt>
      <trkpt lat="43.19065" lon="0.1471">
        <ele>382</ele>
        <time>2018-09-30T09:03:17Z</time>
      </trkpt>
      <trkpt lat="43.19066" lon="0.14703">
        <ele>382</ele>
        <time>2018-09-30T09:03:18Z</time>
      </trkpt>
      <trkpt lat="43.19068" lon="0.14696">
        <ele>383</ele>
        <time>2018-09-30T09:03:19Z</time>
      </trkpt>
      <trkpt lat="43.19069" lon="0.14689">
        <ele>384</ele>
        <time>2018-09-30T09:03:20Z</time>
      </trkpt>
      <trkpt lat="43.19071" lon="0.14682">
        <ele>384</ele>
        <time>2018-09-30T09:03:21Z</time>
      </trkpt>
      <trkpt lat="43.19072" lon="0.14675">
        <ele>384</ele>
        <time>2018-09-30T09:03:22Z</time>
      </trkpt>
      <trkpt lat="43.19074" lon="0.14668">
        <ele>384</ele>
        <time>2018-09-30T09:03:23Z</time>
      </trkpt>
      <trkpt lat="43.19076" lon="0.14662">
        <ele>384</ele>
        <time>2018-09-30T09:03:24Z</time>
      </trkpt>
      <trkpt lat="43.19077" lon="0.14656">
        <ele>384</ele>
        <time>2018-09-30T09:03:25Z</time>
      </trkpt>
      <trkpt lat="43.19078" lon="0.1465">
        <ele>384</ele>
        <time>2018-09-30T09:03:26Z</time>
      </trkpt>
      <trkpt lat="43.1908" lon="0.14644">
        <ele>384</ele>
        <time>2018-09-30T09:03:27Z</time>
      </trkpt>
      <trkpt lat="43.19083" lon="0.14639">
        <ele>385</ele>
        <time>2018-09-30T09:03:28Z</time>
      </trkpt>
      <trkpt lat="43.19086" lon="0.14634">
        <ele>385</ele>
        <time>2018-09-30T09:03:29Z</time>
      </trkpt>
      <trkpt lat="43.19089" lon="0.1463">
        <ele>385</ele>
        <time>2018-09-30T09:03:30Z</time>
      </trkpt>
      <trkpt lat="43.19092" lon="0.14625">
        <ele>385</ele>
        <time>2018-09-30T09:03:31Z</time>
      </trkpt>
      <trkpt lat="43.19095" lon="0.14621">
        <ele>385</ele>
        <time>2018-09-30T09:03:32Z</time>
      </trkpt>
      <trkpt lat="43.19098" lon="0.14617">
        <ele>386</ele>
        <time>2018-09-30T09:03:33Z</time>
      </trkpt>
      <trkpt lat="43.191" lon="0.14612">
        <ele>386</ele>
        <time>2018-09-30T09:03:34Z</time>
      </trkpt>
      <trkpt lat="43.19103" lon="0.14608">
        <ele>386</ele>
        <time>2018-09-30T09:03:35Z</time>
      </trkpt>
      <trkpt lat="43.19106" lon="0.14605">
        <ele>386</ele>
        <time>2018-09-30T09:03:36Z</time>
      </trkpt>
      <trkpt lat="43.19109" lon="0.14602">
        <ele>386</ele>
        <time>2018-09-30T09:03:37Z</time>
      </trkpt>
      <trkpt lat="43.19111" lon="0.14599">
        <ele>386</ele>
        <time>2018-09-30T09:03:38Z</time>
      </trkpt>
      <trkpt lat="43.19112" lon="0.14597">
        <ele>386</ele>
        <time>2018-09-30T09:03:39Z</time>
      </trkpt>
      <trkpt lat="43.19113" lon="0.14595">
        <ele>386</ele>
        <time>2018-09-30T09:03:40Z</time>
      </trkpt>
      <trkpt lat="43.19115" lon="0.14592">
        <ele>386</ele>
        <time>2018-09-30T09:03:41Z</time>
      </trkpt>
      <trkpt lat="43.1912" lon="0.14588">
        <ele>386</ele>
        <time>2018-09-30T09:03:42Z</time>
      </trkpt>
      <trkpt lat="43.19122" lon="0.14584">
        <ele>386</ele>
        <time>2018-09-30T09:03:43Z</time>
      </trkpt>
      <trkpt lat="43.19127" lon="0.1458">
        <ele>386</ele>
        <time>2018-09-30T09:03:44Z</time>
      </trkpt>
      <trkpt lat="43.19129" lon="0.14576">
        <ele>386</ele>
        <time>2018-09-30T09:03:45Z</time>
      </trkpt>
      <trkpt lat="43.19132" lon="0.14573">
        <ele>386</ele>
        <time>2018-09-30T09:03:46Z</time>
      </trkpt>
      <trkpt lat="43.19134" lon="0.14569">
        <ele>386</ele>
        <time>2018-09-30T09:03:47Z</time>
      </trkpt>
      <trkpt lat="43.19139" lon="0.14565">
        <ele>386</ele>
        <time>2018-09-30T09:03:48Z</time>
      </trkpt>
      <trkpt lat="43.19141" lon="0.14561">
        <ele>386</ele>
        <time>2018-09-30T09:03:49Z</time>
      </trkpt>
      <trkpt lat="43.19145" lon="0.14558">
        <ele>386</ele>
        <time>2018-09-30T09:03:50Z</time>
      </trkpt>
      <trkpt lat="43.19149" lon="0.14554">
        <ele>386</ele>
        <time>2018-09-30T09:03:51Z</time>
      </trkpt>
      <trkpt lat="43.19152" lon="0.1455">
        <ele>386</ele>
        <time>2018-09-30T09:03:52Z</time>
      </trkpt>
      <trkpt lat="43.19155" lon="0.14546">
        <ele>386</ele>
        <time>2018-09-30T09:03:53Z</time>
      </trkpt>
      <trkpt lat="43.19157" lon="0.14542">
        <ele>386</ele>
        <time>2018-09-30T09:03:54Z</time>
      </trkpt>
      <trkpt lat="43.1916" lon="0.14537">
        <ele>386</ele>
        <time>2018-09-30T09:03:55Z</time>
      </trkpt>
      <trkpt lat="43.19164" lon="0.14532">
        <ele>386</ele>
        <time>2018-09-30T09:03:56Z</time>
      </trkpt>
      <trkpt lat="43.19167" lon="0.14527">
        <ele>386</ele>
        <time>2018-09-30T09:03:57Z</time>
      </trkpt>
      <trkpt lat="43.19172" lon="0.14523">
        <ele>386</ele>
        <time>2018-09-30T09:03:58Z</time>
      </trkpt>
      <trkpt lat="43.19177" lon="0.14518">
        <ele>386</ele>
        <time>2018-09-30T09:03:59Z</time>
      </trkpt>
      <trkpt lat="43.19182" lon="0.14513">
        <ele>386</ele>
        <time>2018-09-30T09:04:00Z</time>
      </trkpt>
      <trkpt lat="43.19186" lon="0.14509">
        <ele>386</ele>
        <time>2018-09-30T09:04:01Z</time>
      </trkpt>
      <trkpt lat="43.19189" lon="0.14504">
        <ele>387</ele>
        <time>2018-09-30T09:04:02Z</time>
      </trkpt>
      <trkpt lat="43.19191" lon="0.14498">
        <ele>387</ele>
        <time>2018-09-30T09:04:03Z</time>
      </trkpt>
      <trkpt lat="43.19195" lon="0.14494">
        <ele>387</ele>
        <time>2018-09-30T09:04:04Z</time>
      </trkpt>
      <trkpt lat="43.19198" lon="0.14489">
        <ele>387</ele>
        <time>2018-09-30T09:04:05Z</time>
      </trkpt>
      <trkpt lat="43.19202" lon="0.14484">
        <ele>387</ele>
        <time>2018-09-30T09:04:06Z</time>
      </trkpt>
      <trkpt lat="43.19206" lon="0.1448">
        <ele>387</ele>
        <time>2018-09-30T09:04:07Z</time>
      </trkpt>
      <trkpt lat="43.1921" lon="0.14475">
        <ele>388</ele>
        <time>2018-09-30T09:04:08Z</time>
      </trkpt>
      <trkpt lat="43.19214" lon="0.14471">
        <ele>388</ele>
        <time>2018-09-30T09:04:09Z</time>
      </trkpt>
      <trkpt lat="43.19218" lon="0.14466">
        <ele>388</ele>
        <time>2018-09-30T09:04:10Z</time>
      </trkpt>
      <trkpt lat="43.1922" lon="0.14461">
        <ele>388</ele>
        <time>2018-09-30T09:04:11Z</time>
      </trkpt>
      <trkpt lat="43.19222" lon="0.14456">
        <ele>389</ele>
        <time>2018-09-30T09:04:12Z</time>
      </trkpt>
      <trkpt lat="43.19226" lon="0.14452">
        <ele>389</ele>
        <time>2018-09-30T09:04:13Z</time>
      </trkpt>
      <trkpt lat="43.19229" lon="0.14449">
        <ele>389</ele>
        <time>2018-09-30T09:04:14Z</time>
      </trkpt>
      <trkpt lat="43.19231" lon="0.14445">
        <ele>389</ele>
        <time>2018-09-30T09:04:15Z</time>
      </trkpt>
      <trkpt lat="43.19234" lon="0.14441">
        <ele>389</ele>
        <time>2018-09-30T09:04:16Z</time>
      </trkpt>
      <trkpt lat="43.19236" lon="0.14436">
        <ele>389</ele>
        <time>2018-09-30T09:04:17Z</time>
      </trkpt>
      <trkpt lat="43.19239" lon="0.14431">
        <ele>390</ele>
        <time>2018-09-30T09:04:18Z</time>
      </trkpt>
      <trkpt lat="43.19242" lon="0.14427">
        <ele>390</ele>
        <time>2018-09-30T09:04:19Z</time>
      </trkpt>
      <trkpt lat="43.19246" lon="0.14422">
        <ele>390</ele>
        <time>2018-09-30T09:04:20Z</time>
      </trkpt>
      <trkpt lat="43.19249" lon="0.14417">
        <ele>391</ele>
        <time>2018-09-30T09:04:21Z</time>
      </trkpt>
      <trkpt lat="43.19253" lon="0.14413">
        <ele>391</ele>
        <time>2018-09-30T09:04:22Z</time>
      </trkpt>
      <trkpt lat="43.19256" lon="0.14408">
        <ele>391</ele>
        <time>2018-09-30T09:04:23Z</time>
      </trkpt>
      <trkpt lat="43.1926" lon="0.14404">
        <ele>392</ele>
        <time>2018-09-30T09:04:24Z</time>
      </trkpt>
      <trkpt lat="43.19264" lon="0.14399">
        <ele>392</ele>
        <time>2018-09-30T09:04:25Z</time>
      </trkpt>
      <trkpt lat="43.19267" lon="0.14394">
        <ele>393</ele>
        <time>2018-09-30T09:04:26Z</time>
      </trkpt>
      <trkpt lat="43.19271" lon="0.1439">
        <ele>393</ele>
        <time>2018-09-30T09:04:27Z</time>
      </trkpt>
      <trkpt lat="43.19275" lon="0.14385">
        <ele>394</ele>
        <time>2018-09-30T09:04:28Z</time>
      </trkpt>
      <trkpt lat="43.19278" lon="0.14381">
        <ele>394</ele>
        <time>2018-09-30T09:04:29Z</time>
      </trkpt>
      <trkpt lat="43.19282" lon="0.14376">
        <ele>394</ele>
        <time>2018-09-30T09:04:30Z</time>
      </trkpt>
      <trkpt lat="43.19285" lon="0.14371">
        <ele>395</ele>
        <time>2018-09-30T09:04:31Z</time>
      </trkpt>
      <trkpt lat="43.19288" lon="0.14367">
        <ele>395</ele>
        <time>2018-09-30T09:04:32Z</time>
      </trkpt>
      <trkpt lat="43.19292" lon="0.14364">
        <ele>395</ele>
        <time>2018-09-30T09:04:33Z</time>
      </trkpt>
      <trkpt lat="43.19295" lon="0.1436">
        <ele>396</ele>
        <time>2018-09-30T09:04:34Z</time>
      </trkpt>
      <trkpt lat="43.19299" lon="0.14356">
        <ele>396</ele>
        <time>2018-09-30T09:04:35Z</time>
      </trkpt>
      <trkpt lat="43.19303" lon="0.14352">
        <ele>396</ele>
        <time>2018-09-30T09:04:36Z</time>
      </trkpt>
      <trkpt lat="43.19306" lon="0.14347">
        <ele>396</ele>
        <time>2018-09-30T09:04:37Z</time>
      </trkpt>
      <trkpt lat="43.1931" lon="0.14343">
        <ele>396</ele>
        <time>2018-09-30T09:04:38Z</time>
      </trkpt>
      <trkpt lat="43.19314" lon="0.14338">
        <ele>396</ele>
        <time>2018-09-30T09:04:39Z</time>
      </trkpt>
      <trkpt lat="43.19319" lon="0.14334">
        <ele>397</ele>
        <time>2018-09-30T09:04:40Z</time>
      </trkpt>
      <trkpt lat="43.19323" lon="0.14329">
        <ele>397</ele>
        <time>2018-09-30T09:04:41Z</time>
      </trkpt>
      <trkpt lat="43.19327" lon="0.14325">
        <ele>397</ele>
        <time>2018-09-30T09:04:42Z</time>
      </trkpt>
      <trkpt lat="43.19331" lon="0.14321">
        <ele>397</ele>
        <time>2018-09-30T09:04:43Z</time>
      </trkpt>
      <trkpt lat="43.19335" lon="0.14316">
        <ele>397</ele>
        <time>2018-09-30T09:04:44Z</time>
      </trkpt>
      <trkpt lat="43.1934" lon="0.14312">
        <ele>397</ele>
        <time>2018-09-30T09:04:45Z</time>
      </trkpt>
      <trkpt lat="43.19344" lon="0.14308">
        <ele>397</ele>
        <time>2018-09-30T09:04:46Z</time>
      </trkpt>
      <trkpt lat="43.19348" lon="0.14305">
        <ele>397</ele>
        <time>2018-09-30T09:04:47Z</time>
      </trkpt>
      <trkpt lat="43.19352" lon="0.14301">
        <ele>397</ele>
        <time>2018-09-30T09:04:48Z</time>
      </trkpt>
      <trkpt lat="43.19357" lon="0.14298">
        <ele>398</ele>
        <time>2018-09-30T09:04:49Z</time>
      </trkpt>
      <trkpt lat="43.19361" lon="0.14294">
        <ele>398</ele>
        <time>2018-09-30T09:04:50Z</time>
      </trkpt>
      <trkpt lat="43.19365" lon="0.14291">
        <ele>398</ele>
        <time>2018-09-30T09:04:51Z</time>
      </trkpt>
      <trkpt lat="43.19369" lon="0.14288">
        <ele>398</ele>
        <time>2018-09-30T09:04:52Z</time>
      </trkpt>
      <trkpt lat="43.19373" lon="0.14284">
        <ele>398</ele>
        <time>2018-09-30T09:04:53Z</time>
      </trkpt>
      <trkpt lat="43.19376" lon="0.1428">
        <ele>398</ele>
        <time>2018-09-30T09:04:54Z</time>
      </trkpt>
      <trkpt lat="43.19379" lon="0.14276">
        <ele>398</ele>
        <time>2018-09-30T09:04:55Z</time>
      </trkpt>
      <trkpt lat="43.19382" lon="0.14271">
        <ele>398</ele>
        <time>2018-09-30T09:04:56Z</time>
      </trkpt>
      <trkpt lat="43.19384" lon="0.14266">
        <ele>398</ele>
        <time>2018-09-30T09:04:57Z</time>
      </trkpt>
      <trkpt lat="43.19387" lon="0.14262">
        <ele>399</ele>
        <time>2018-09-30T09:04:58Z</time>
      </trkpt>
      <trkpt lat="43.19389" lon="0.14257">
        <ele>399</ele>
        <time>2018-09-30T09:04:59Z</time>
      </trkpt>
      <trkpt lat="43.19391" lon="0.14252">
        <ele>399</ele>
        <time>2018-09-30T09:05:00Z</time>
      </trkpt>
      <trkpt lat="43.19392" lon="0.14247">
        <ele>399</ele>
        <time>2018-09-30T09:05:01Z</time>
      </trkpt>
      <trkpt lat="43.19395" lon="0.14242">
        <ele>399</ele>
        <time>2018-09-30T09:05:02Z</time>
      </trkpt>
      <trkpt lat="43.19397" lon="0.14237">
        <ele>399</ele>
        <time>2018-09-30T09:05:03Z</time>
      </trkpt>
      <trkpt lat="43.19399" lon="0.14232">
        <ele>399</ele>
        <time>2018-09-30T09:05:04Z</time>
      </trkpt>
      <trkpt lat="43.19402" lon="0.14227">
        <ele>399</ele>
        <time>2018-09-30T09:05:05Z</time>
      </trkpt>
      <trkpt lat="43.19405" lon="0.14222">
        <ele>399</ele>
        <time>2018-09-30T09:05:06Z</time>
      </trkpt>
      <trkpt lat="43.19407" lon="0.14217">
        <ele>400</ele>
        <time>2018-09-30T09:05:07Z</time>
      </trkpt>
      <trkpt lat="43.19411" lon="0.14212">
        <ele>400</ele>
        <time>2018-09-30T09:05:08Z</time>
      </trkpt>
      <trkpt lat="43.19414" lon="0.14207">
        <ele>400</ele>
        <time>2018-09-30T09:05:09Z</time>
      </trkpt>
      <trkpt lat="43.19418" lon="0.14202">
        <ele>400</ele>
        <time>2018-09-30T09:05:10Z</time>
      </trkpt>
      <trkpt lat="43.19421" lon="0.14196">
        <ele>400</ele>
        <time>2018-09-30T09:05:11Z</time>
      </trkpt>
      <trkpt lat="43.19424" lon="0.14191">
        <ele>400</ele>
        <time>2018-09-30T09:05:12Z</time>
      </trkpt>
      <trkpt lat="43.19427" lon="0.14186">
        <ele>401</ele>
        <time>2018-09-30T09:05:13Z</time>
      </trkpt>
      <trkpt lat="43.1943" lon="0.14181">
        <ele>401</ele>
        <time>2018-09-30T09:05:14Z</time>
      </trkpt>
      <trkpt lat="43.19433" lon="0.14176">
        <ele>401</ele>
        <time>2018-09-30T09:05:15Z</time>
      </trkpt>
      <trkpt lat="43.19437" lon="0.14171">
        <ele>401</ele>
        <time>2018-09-30T09:05:16Z</time>
      </trkpt>
      <trkpt lat="43.1944" lon="0.14167">
        <ele>401</ele>
        <time>2018-09-30T09:05:17Z</time>
      </trkpt>
      <trkpt lat="43.19443" lon="0.14163">
        <ele>401</ele>
        <time>2018-09-30T09:05:18Z</time>
      </trkpt>
      <trkpt lat="43.19446" lon="0.14158">
        <ele>402</ele>
        <time>2018-09-30T09:05:19Z</time>
      </trkpt>
      <trkpt lat="43.19448" lon="0.14154">
        <ele>402</ele>
        <time>2018-09-30T09:05:20Z</time>
      </trkpt>
      <trkpt lat="43.19451" lon="0.1415">
        <ele>402</ele>
        <time>2018-09-30T09:05:21Z</time>
      </trkpt>
      <trkpt lat="43.19454" lon="0.14146">
        <ele>402</ele>
        <time>2018-09-30T09:05:22Z</time>
      </trkpt>
      <trkpt lat="43.19457" lon="0.14142">
        <ele>402</ele>
        <time>2018-09-30T09:05:23Z</time>
      </trkpt>
      <trkpt lat="43.1946" lon="0.14138">
        <ele>402</ele>
        <time>2018-09-30T09:05:24Z</time>
      </trkpt>
      <trkpt lat="43.19463" lon="0.14135">
        <ele>403</ele>
        <time>2018-09-30T09:05:25Z</time>
      </trkpt>
      <trkpt lat="43.19465" lon="0.14132">
        <ele>403</ele>
        <time>2018-09-30T09:05:26Z</time>
      </trkpt>
      <trkpt lat="43.19467" lon="0.14129">
        <ele>403</ele>
        <time>2018-09-30T09:05:27Z</time>
      </trkpt>
      <trkpt lat="43.19469" lon="0.14124">
        <ele>403</ele>
        <time>2018-09-30T09:05:28Z</time>
      </trkpt>
      <trkpt lat="43.19471" lon="0.1412">
        <ele>403</ele>
        <time>2018-09-30T09:05:29Z</time>
      </trkpt>
      <trkpt lat="43.19473" lon="0.14116">
        <ele>403</ele>
        <time>2018-09-30T09:05:30Z</time>
      </trkpt>
      <trkpt lat="43.19475" lon="0.14111">
        <ele>403</ele>
        <time>2018-09-30T09:05:31Z</time>
      </trkpt>
      <trkpt lat="43.19477" lon="0.14107">
        <ele>403</ele>
        <time>2018-09-30T09:05:32Z</time>
      </trkpt>
      <trkpt lat="43.19478" lon="0.14103">
        <ele>403</ele>
        <time>2018-09-30T09:05:33Z</time>
      </trkpt>
      <trkpt lat="43.1948" lon="0.141">
        <ele>403</ele>
        <time>2018-09-30T09:05:34Z</time>
      </trkpt>
      <trkpt lat="43.19482" lon="0.14096">
        <ele>403</ele>
        <time>2018-09-30T09:05:35Z</time>
      </trkpt>
      <trkpt lat="43.19483" lon="0.14092">
        <ele>403</ele>
        <time>2018-09-30T09:05:36Z</time>
      </trkpt>
      <trkpt lat="43.19485" lon="0.14088">
        <ele>403</ele>
        <time>2018-09-30T09:05:37Z</time>
      </trkpt>
      <trkpt lat="43.19487" lon="0.14085">
        <ele>403</ele>
        <time>2018-09-30T09:05:38Z</time>
      </trkpt>
      <trkpt lat="43.19489" lon="0.14081">
        <ele>403</ele>
        <time>2018-09-30T09:05:39Z</time>
      </trkpt>
      <trkpt lat="43.19491" lon="0.14077">
        <ele>403</ele>
        <time>2018-09-30T09:05:40Z</time>
      </trkpt>
      <trkpt lat="43.19493" lon="0.14073">
        <ele>403</ele>
        <time>2018-09-30T09:05:41Z</time>
      </trkpt>
      <trkpt lat="43.19495" lon="0.14069">
        <ele>403</ele>
        <time>2018-09-30T09:05:42Z</time>
      </trkpt>
      <trkpt lat="43.19497" lon="0.14065">
        <ele>403</ele>
        <time>2018-09-30T09:05:43Z</time>
      </trkpt>
      <trkpt lat="43.19499" lon="0.14061">
        <ele>403</ele>
        <time>2018-09-30T09:05:44Z</time>
      </trkpt>
      <trkpt lat="43.19501" lon="0.14057">
        <ele>404</ele>
        <time>2018-09-30T09:05:45Z</time>
      </trkpt>
      <trkpt lat="43.19503" lon="0.14053">
        <ele>404</ele>
        <time>2018-09-30T09:05:46Z</time>
      </trkpt>
      <trkpt lat="43.19504" lon="0.14049">
        <ele>404</ele>
        <time>2018-09-30T09:05:47Z</time>
      </trkpt>
      <trkpt lat="43.19506" lon="0.14044">
        <ele>404</ele>
        <time>2018-09-30T09:05:48Z</time>
      </trkpt>
      <trkpt lat="43.19508" lon="0.1404">
        <ele>404</ele>
        <time>2018-09-30T09:05:49Z</time>
      </trkpt>
      <trkpt lat="43.1951" lon="0.14035">
        <ele>405</ele>
        <time>2018-09-30T09:05:50Z</time>
      </trkpt>
      <trkpt lat="43.19512" lon="0.1403">
        <ele>405</ele>
        <time>2018-09-30T09:05:51Z</time>
      </trkpt>
      <trkpt lat="43.19514" lon="0.14026">
        <ele>406</ele>
        <time>2018-09-30T09:05:52Z</time>
      </trkpt>
      <trkpt lat="43.19517" lon="0.14021">
        <ele>406</ele>
        <time>2018-09-30T09:05:53Z</time>
      </trkpt>
      <trkpt lat="43.19519" lon="0.14016">
        <ele>407</ele>
        <time>2018-09-30T09:05:54Z</time>
      </trkpt>
      <trkpt lat="43.19521" lon="0.14011">
        <ele>407</ele>
        <time>2018-09-30T09:05:55Z</time>
      </trkpt>
      <trkpt lat="43.19523" lon="0.14007">
        <ele>407</ele>
        <time>2018-09-30T09:05:56Z</time>
      </trkpt>
      <trkpt lat="43.19525" lon="0.14002">
        <ele>407</ele>
        <time>2018-09-30T09:05:57Z</time>
      </trkpt>
      <trkpt lat="43.19527" lon="0.13997">
        <ele>408</ele>
        <time>2018-09-30T09:05:58Z</time>
      </trkpt>
      <trkpt lat="43.19529" lon="0.13993">
        <ele>408</ele>
        <time>2018-09-30T09:05:59Z</time>
      </trkpt>
      <trkpt lat="43.19531" lon="0.13988">
        <ele>408</ele>
        <time>2018-09-30T09:06:00Z</time>
      </trkpt>
      <trkpt lat="43.19533" lon="0.13983">
        <ele>408</ele>
        <time>2018-09-30T09:06:01Z</time>
      </trkpt>
      <trkpt lat="43.19535" lon="0.13978">
        <ele>408</ele>
        <time>2018-09-30T09:06:02Z</time>
      </trkpt>
      <trkpt lat="43.19537" lon="0.13974">
        <ele>409</ele>
        <time>2018-09-30T09:06:03Z</time>
      </trkpt>
      <trkpt lat="43.19539" lon="0.13969">
        <ele>409</ele>
        <time>2018-09-30T09:06:04Z</time>
      </trkpt>
      <trkpt lat="43.1954" lon="0.13965">
        <ele>409</ele>
        <time>2018-09-30T09:06:05Z</time>
      </trkpt>
      <trkpt lat="43.19542" lon="0.1396">
        <ele>409</ele>
        <time>2018-09-30T09:06:06Z</time>
      </trkpt>
      <trkpt lat="43.19544" lon="0.13956">
        <ele>409</ele>
        <time>2018-09-30T09:06:07Z</time>
      </trkpt>
      <trkpt lat="43.19545" lon="0.13952">
        <ele>409</ele>
        <time>2018-09-30T09:06:08Z</time>
      </trkpt>
      <trkpt lat="43.19546" lon="0.13947">
        <ele>409</ele>
        <time>2018-09-30T09:06:09Z</time>
      </trkpt>
      <trkpt lat="43.19548" lon="0.13943">
        <ele>409</ele>
        <time>2018-09-30T09:06:10Z</time>
      </trkpt>
      <trkpt lat="43.19549" lon="0.13939">
        <ele>409</ele>
        <time>2018-09-30T09:06:11Z</time>
      </trkpt>
      <trkpt lat="43.1955" lon="0.13935">
        <ele>409</ele>
        <time>2018-09-30T09:06:12Z</time>
      </trkpt>
      <trkpt lat="43.19551" lon="0.13931">
        <ele>409</ele>
        <time>2018-09-30T09:06:13Z</time>
      </trkpt>
      <trkpt lat="43.19552" lon="0.13927">
        <ele>409</ele>
        <time>2018-09-30T09:06:14Z</time>
      </trkpt>
      <trkpt lat="43.19553" lon="0.13923">
        <ele>409</ele>
        <time>2018-09-30T09:06:15Z</time>
      </trkpt>
      <trkpt lat="43.19554" lon="0.13919">
        <ele>409</ele>
        <time>2018-09-30T09:06:16Z</time>
      </trkpt>
      <trkpt lat="43.19556" lon="0.13915">
        <ele>409</ele>
        <time>2018-09-30T09:06:17Z</time>
      </trkpt>
      <trkpt lat="43.19558" lon="0.13911">
        <ele>409</ele>
        <time>2018-09-30T09:06:18Z</time>
      </trkpt>
      <trkpt lat="43.1956" lon="0.13906">
        <ele>410</ele>
        <time>2018-09-30T09:06:19Z</time>
      </trkpt>
      <trkpt lat="43.19561" lon="0.13901">
        <ele>410</ele>
        <time>2018-09-30T09:06:20Z</time>
      </trkpt>
      <trkpt lat="43.19563" lon="0.13896">
        <ele>410</ele>
        <time>2018-09-30T09:06:21Z</time>
      </trkpt>
      <trkpt lat="43.19565" lon="0.1389">
        <ele>411</ele>
        <time>2018-09-30T09:06:22Z</time>
      </trkpt>
      <trkpt lat="43.19568" lon="0.13885">
        <ele>411</ele>
        <time>2018-09-30T09:06:23Z</time>
      </trkpt>
      <trkpt lat="43.1957" lon="0.13879">
        <ele>411</ele>
        <time>2018-09-30T09:06:24Z</time>
      </trkpt>
      <trkpt lat="43.19572" lon="0.13874">
        <ele>411</ele>
        <time>2018-09-30T09:06:25Z</time>
      </trkpt>
      <trkpt lat="43.19574" lon="0.13869">
        <ele>411</ele>
        <time>2018-09-30T09:06:26Z</time>
      </trkpt>
      <trkpt lat="43.19576" lon="0.13864">
        <ele>411</ele>
        <time>2018-09-30T09:06:27Z</time>
      </trkpt>
      <trkpt lat="43.19579" lon="0.13858">
        <ele>412</ele>
        <time>2018-09-30T09:06:28Z</time>
      </trkpt>
      <trkpt lat="43.19581" lon="0.13853">
        <ele>412</ele>
        <time>2018-09-30T09:06:29Z</time>
      </trkpt>
      <trkpt lat="43.19583" lon="0.13848">
        <ele>412</ele>
        <time>2018-09-30T09:06:30Z</time>
      </trkpt>
      <trkpt lat="43.19585" lon="0.13843">
        <ele>412</ele>
        <time>2018-09-30T09:06:31Z</time>
      </trkpt>
      <trkpt lat="43.19588" lon="0.1384">
        <ele>412</ele>
        <time>2018-09-30T09:06:32Z</time>
      </trkpt>
      <trkpt lat="43.1959" lon="0.13837">
        <ele>412</ele>
        <time>2018-09-30T09:06:33Z</time>
      </trkpt>
      <trkpt lat="43.19592" lon="0.13835">
        <ele>412</ele>
        <time>2018-09-30T09:06:34Z</time>
      </trkpt>
      <trkpt lat="43.19595" lon="0.13832">
        <ele>412</ele>
        <time>2018-09-30T09:06:35Z</time>
      </trkpt>
      <trkpt lat="43.19597" lon="0.1383">
        <ele>412</ele>
        <time>2018-09-30T09:06:36Z</time>
      </trkpt>
      <trkpt lat="43.19599" lon="0.13826">
        <ele>412</ele>
        <time>2018-09-30T09:06:37Z</time>
      </trkpt>
      <trkpt lat="43.19603" lon="0.13823">
        <ele>412</ele>
        <time>2018-09-30T09:06:38Z</time>
      </trkpt>
      <trkpt lat="43.19606" lon="0.13821">
        <ele>412</ele>
        <time>2018-09-30T09:06:39Z</time>
      </trkpt>
      <trkpt lat="43.19609" lon="0.13819">
        <ele>412</ele>
        <time>2018-09-30T09:06:40Z</time>
      </trkpt>
      <trkpt lat="43.19612" lon="0.13818">
        <ele>413</ele>
        <time>2018-09-30T09:06:41Z</time>
      </trkpt>
      <trkpt lat="43.19616" lon="0.13815">
        <ele>413</ele>
        <time>2018-09-30T09:06:42Z</time>
      </trkpt>
      <trkpt lat="43.19619" lon="0.13813">
        <ele>413</ele>
        <time>2018-09-30T09:06:43Z</time>
      </trkpt>
      <trkpt lat="43.19622" lon="0.13811">
        <ele>414</ele>
        <time>2018-09-30T09:06:44Z</time>
      </trkpt>
      <trkpt lat="43.19626" lon="0.1381">
        <ele>414</ele>
        <time>2018-09-30T09:06:45Z</time>
      </trkpt>
      <trkpt lat="43.1963" lon="0.13808">
        <ele>415</ele>
        <time>2018-09-30T09:06:46Z</time>
      </trkpt>
      <trkpt lat="43.19633" lon="0.13806">
        <ele>415</ele>
        <time>2018-09-30T09:06:47Z</time>
      </trkpt>
      <trkpt lat="43.19637" lon="0.13805">
        <ele>415</ele>
        <time>2018-09-30T09:06:48Z</time>
      </trkpt>
      <trkpt lat="43.1964" lon="0.13803">
        <ele>415</ele>
        <time>2018-09-30T09:06:49Z</time>
      </trkpt>
      <trkpt lat="43.19643" lon="0.138">
        <ele>415</ele>
        <time>2018-09-30T09:06:50Z</time>
      </trkpt>
      <trkpt lat="43.19645" lon="0.13797">
        <ele>415</ele>
        <time>2018-09-30T09:06:51Z</time>
      </trkpt>
      <trkpt lat="43.19647" lon="0.13795">
        <ele>416</ele>
        <time>2018-09-30T09:06:52Z</time>
      </trkpt>
      <trkpt lat="43.19649" lon="0.13794">
        <ele>416</ele>
        <time>2018-09-30T09:06:53Z</time>
      </trkpt>
      <trkpt lat="43.19651" lon="0.13791">
        <ele>416</ele>
        <time>2018-09-30T09:06:54Z</time>
      </trkpt>
      <trkpt lat="43.19653" lon="0.13789">
        <ele>416</ele>
        <time>2018-09-30T09:06:55Z</time>
      </trkpt>
      <trkpt lat="43.19656" lon="0.13788">
        <ele>416</ele>
        <time>2018-09-30T09:06:56Z</time>
      </trkpt>
      <trkpt lat="43.19659" lon="0.13785">
        <ele>416</ele>
        <time>2018-09-30T09:06:57Z</time>
      </trkpt>
      <trkpt lat="43.19661" lon="0.13783">
        <ele>416</ele>
        <time>2018-09-30T09:06:58Z</time>
      </trkpt>
      <trkpt lat="43.19664" lon="0.13779">
        <ele>416</ele>
        <time>2018-09-30T09:06:59Z</time>
      </trkpt>
      <trkpt lat="43.19666" lon="0.13776">
        <ele>416</ele>
        <time>2018-09-30T09:07:00Z</time>
      </trkpt>
      <trkpt lat="43.19669" lon="0.13774">
        <ele>416</ele>
        <time>2018-09-30T09:07:01Z</time>
      </trkpt>
      <trkpt lat="43.19671" lon="0.13771">
        <ele>416</ele>
        <time>2018-09-30T09:07:02Z</time>
      </trkpt>
      <trkpt lat="43.19674" lon="0.13768">
        <ele>416</ele>
        <time>2018-09-30T09:07:03Z</time>
      </trkpt>
      <trkpt lat="43.19677" lon="0.13765">
        <ele>416</ele>
        <time>2018-09-30T09:07:04Z</time>
      </trkpt>
      <trkpt lat="43.19679" lon="0.13762">
        <ele>416</ele>
        <time>2018-09-30T09:07:05Z</time>
      </trkpt>
      <trkpt lat="43.19682" lon="0.13758">
        <ele>416</ele>
        <time>2018-09-30T09:07:06Z</time>
      </trkpt>
      <trkpt lat="43.19685" lon="0.13755">
        <ele>417</ele>
        <time>2018-09-30T09:07:07Z</time>
      </trkpt>
      <trkpt lat="43.19688" lon="0.13752">
        <ele>417</ele>
        <time>2018-09-30T09:07:08Z</time>
      </trkpt>
      <trkpt lat="43.1969" lon="0.13748">
        <ele>417</ele>
        <time>2018-09-30T09:07:09Z</time>
      </trkpt>
      <trkpt lat="43.19692" lon="0.13744">
        <ele>417</ele>
        <time>2018-09-30T09:07:10Z</time>
      </trkpt>
      <trkpt lat="43.19695" lon="0.1374">
        <ele>417</ele>
        <time>2018-09-30T09:07:11Z</time>
      </trkpt>
      <trkpt lat="43.19697" lon="0.13737">
        <ele>417</ele>
        <time>2018-09-30T09:07:12Z</time>
      </trkpt>
      <trkpt lat="43.197" lon="0.13733">
        <ele>417</ele>
        <time>2018-09-30T09:07:13Z</time>
      </trkpt>
      <trkpt lat="43.19702" lon="0.1373">
        <ele>417</ele>
        <time>2018-09-30T09:07:14Z</time>
      </trkpt>
      <trkpt lat="43.19705" lon="0.13726">
        <ele>417</ele>
        <time>2018-09-30T09:07:15Z</time>
      </trkpt>
      <trkpt lat="43.19707" lon="0.13722">
        <ele>417</ele>
        <time>2018-09-30T09:07:16Z</time>
      </trkpt>
      <trkpt lat="43.1971" lon="0.13719">
        <ele>418</ele>
        <time>2018-09-30T09:07:17Z</time>
      </trkpt>
      <trkpt lat="43.19712" lon="0.13715">
        <ele>418</ele>
        <time>2018-09-30T09:07:18Z</time>
      </trkpt>
      <trkpt lat="43.19714" lon="0.13711">
        <ele>418</ele>
        <time>2018-09-30T09:07:19Z</time>
      </trkpt>
      <trkpt lat="43.19717" lon="0.13708">
        <ele>418</ele>
        <time>2018-09-30T09:07:20Z</time>
      </trkpt>
      <trkpt lat="43.1972" lon="0.13704">
        <ele>418</ele>
        <time>2018-09-30T09:07:21Z</time>
      </trkpt>
      <trkpt lat="43.19722" lon="0.137">
        <ele>418</ele>
        <time>2018-09-30T09:07:22Z</time>
      </trkpt>
      <trkpt lat="43.19724" lon="0.13696">
        <ele>418</ele>
        <time>2018-09-30T09:07:23Z</time>
      </trkpt>
      <trkpt lat="43.19727" lon="0.13693">
        <ele>418</ele>
        <time>2018-09-30T09:07:24Z</time>
      </trkpt>
      <trkpt lat="43.1973" lon="0.13689">
        <ele>418</ele>
        <time>2018-09-30T09:07:25Z</time>
      </trkpt>
      <trkpt lat="43.19732" lon="0.13684">
        <ele>419</ele>
        <time>2018-09-30T09:07:26Z</time>
      </trkpt>
      <trkpt lat="43.19736" lon="0.13681">
        <ele>419</ele>
        <time>2018-09-30T09:07:27Z</time>
      </trkpt>
      <trkpt lat="43.19738" lon="0.13677">
        <ele>419</ele>
        <time>2018-09-30T09:07:28Z</time>
      </trkpt>
      <trkpt lat="43.19741" lon="0.13673">
        <ele>419</ele>
        <time>2018-09-30T09:07:29Z</time>
      </trkpt>
      <trkpt lat="43.19743" lon="0.13668">
        <ele>419</ele>
        <time>2018-09-30T09:07:30Z</time>
      </trkpt>
      <trkpt lat="43.19746" lon="0.13664">
        <ele>420</ele>
        <time>2018-09-30T09:07:31Z</time>
      </trkpt>
      <trkpt lat="43.19749" lon="0.13659">
        <ele>421</ele>
        <time>2018-09-30T09:07:32Z</time>
      </trkpt>
      <trkpt lat="43.19752" lon="0.13655">
        <ele>421</ele>
        <time>2018-09-30T09:07:33Z</time>
      </trkpt>
      <trkpt lat="43.19755" lon="0.1365">
        <ele>422</ele>
        <time>2018-09-30T09:07:34Z</time>
      </trkpt>
      <trkpt lat="43.19758" lon="0.13645">
        <ele>423</ele>
        <time>2018-09-30T09:07:35Z</time>
      </trkpt>
      <trkpt lat="43.19761" lon="0.13639">
        <ele>424</ele>
        <time>2018-09-30T09:07:36Z</time>
      </trkpt>
      <trkpt lat="43.19764" lon="0.13634">
        <ele>424</ele>
        <time>2018-09-30T09:07:37Z</time>
      </trkpt>
      <trkpt lat="43.19766" lon="0.13629">
        <ele>424</ele>
        <time>2018-09-30T09:07:38Z</time>
      </trkpt>
      <trkpt lat="43.19769" lon="0.13624">
        <ele>425</ele>
        <time>2018-09-30T09:07:39Z</time>
      </trkpt>
      <trkpt lat="43.19772" lon="0.13619">
        <ele>425</ele>
        <time>2018-09-30T09:07:40Z</time>
      </trkpt>
      <trkpt lat="43.19774" lon="0.13614">
        <ele>426</ele>
        <time>2018-09-30T09:07:41Z</time>
      </trkpt>
      <trkpt lat="43.19776" lon="0.13609">
        <ele>426</ele>
        <time>2018-09-30T09:07:42Z</time>
      </trkpt>
      <trkpt lat="43.19779" lon="0.13604">
        <ele>426</ele>
        <time>2018-09-30T09:07:43Z</time>
      </trkpt>
      <trkpt lat="43.19781" lon="0.13599">
        <ele>427</ele>
        <time>2018-09-30T09:07:44Z</time>
      </trkpt>
      <trkpt lat="43.19783" lon="0.13594">
        <ele>427</ele>
        <time>2018-09-30T09:07:45Z</time>
      </trkpt>
      <trkpt lat="43.19785" lon="0.13589">
        <ele>427</ele>
        <time>2018-09-30T09:07:46Z</time>
      </trkpt>
      <trkpt lat="43.19788" lon="0.13583">
        <ele>428</ele>
        <time>2018-09-30T09:07:47Z</time>
      </trkpt>
      <trkpt lat="43.1979" lon="0.13578">
        <ele>428</ele>
        <time>2018-09-30T09:07:48Z</time>
      </trkpt>
      <trkpt lat="43.19792" lon="0.13573">
        <ele>428</ele>
        <time>2018-09-30T09:07:49Z</time>
      </trkpt>
      <trkpt lat="43.19794" lon="0.13568">
        <ele>428</ele>
        <time>2018-09-30T09:07:50Z</time>
      </trkpt>
      <trkpt lat="43.19797" lon="0.13563">
        <ele>428</ele>
        <time>2018-09-30T09:07:51Z</time>
      </trkpt>
      <trkpt lat="43.19799" lon="0.13557">
        <ele>429</ele>
        <time>2018-09-30T09:07:52Z</time>
      </trkpt>
      <trkpt lat="43.19802" lon="0.13552">
        <ele>429</ele>
        <time>2018-09-30T09:07:53Z</time>
      </trkpt>
      <trkpt lat="43.19804" lon="0.13546">
        <ele>429</ele>
        <time>2018-09-30T09:07:54Z</time>
      </trkpt>
      <trkpt lat="43.19806" lon="0.13541">
        <ele>429</ele>
        <time>2018-09-30T09:07:55Z</time>
      </trkpt>
      <trkpt lat="43.19808" lon="0.13535">
        <ele>429</ele>
        <time>2018-09-30T09:07:56Z</time>
      </trkpt>
      <trkpt lat="43.19811" lon="0.1353">
        <ele>429</ele>
        <time>2018-09-30T09:07:57Z</time>
      </trkpt>
      <trkpt lat="43.19813" lon="0.13525">
        <ele>429</ele>
        <time>2018-09-30T09:07:58Z</time>
      </trkpt>
      <trkpt lat="43.19816" lon="0.13521">
        <ele>429</ele>
        <time>2018-09-30T09:07:59Z</time>
      </trkpt>
      <trkpt lat="43.19819" lon="0.13518">
        <ele>429</ele>
        <time>2018-09-30T09:08:00Z</time>
      </trkpt>
      <trkpt lat="43.19823" lon="0.13517">
        <ele>429</ele>
        <time>2018-09-30T09:08:01Z</time>
      </trkpt>
      <trkpt lat="43.19827" lon="0.13517">
        <ele>429</ele>
        <time>2018-09-30T09:08:02Z</time>
      </trkpt>
      <trkpt lat="43.19831" lon="0.13518">
        <ele>429</ele>
        <time>2018-09-30T09:08:03Z</time>
      </trkpt>
      <trkpt lat="43.19836" lon="0.13519">
        <ele>429</ele>
        <time>2018-09-30T09:08:04Z</time>
      </trkpt>
      <trkpt lat="43.1984" lon="0.13521">
        <ele>429</ele>
        <time>2018-09-30T09:08:05Z</time>
      </trkpt>
      <trkpt lat="43.19844" lon="0.13523">
        <ele>429</ele>
        <time>2018-09-30T09:08:06Z</time>
      </trkpt>
      <trkpt lat="43.19848" lon="0.13524">
        <ele>429</ele>
        <time>2018-09-30T09:08:07Z</time>
      </trkpt>
      <trkpt lat="43.19851" lon="0.13525">
        <ele>429</ele>
        <time>2018-09-30T09:08:08Z</time>
      </trkpt>
      <trkpt lat="43.19854" lon="0.13526">
        <ele>429</ele>
        <time>2018-09-30T09:08:09Z</time>
      </trkpt>
      <trkpt lat="43.19858" lon="0.13527">
        <ele>429</ele>
        <time>2018-09-30T09:08:10Z</time>
      </trkpt>
      <trkpt lat="43.19862" lon="0.13527">
        <ele>429</ele>
        <time>2018-09-30T09:08:11Z</time>
      </trkpt>
      <trkpt lat="43.19865" lon="0.13527">
        <ele>429</ele>
        <time>2018-09-30T09:08:12Z</time>
      </trkpt>
      <trkpt lat="43.19868" lon="0.13528">
        <ele>429</ele>
        <time>2018-09-30T09:08:13Z</time>
      </trkpt>
      <trkpt lat="43.1987" lon="0.13527">
        <ele>430</ele>
        <time>2018-09-30T09:08:14Z</time>
      </trkpt>
      <trkpt lat="43.19874" lon="0.13526">
        <ele>430</ele>
        <time>2018-09-30T09:08:15Z</time>
      </trkpt>
      <trkpt lat="43.19877" lon="0.13525">
        <ele>430</ele>
        <time>2018-09-30T09:08:16Z</time>
      </trkpt>
      <trkpt lat="43.19879" lon="0.13523">
        <ele>430</ele>
        <time>2018-09-30T09:08:17Z</time>
      </trkpt>
      <trkpt lat="43.19882" lon="0.13521">
        <ele>430</ele>
        <time>2018-09-30T09:08:18Z</time>
      </trkpt>
      <trkpt lat="43.19885" lon="0.13518">
        <ele>430</ele>
        <time>2018-09-30T09:08:19Z</time>
      </trkpt>
      <trkpt lat="43.19889" lon="0.13514">
        <ele>430</ele>
        <time>2018-09-30T09:08:20Z</time>
      </trkpt>
      <trkpt lat="43.19893" lon="0.1351">
        <ele>430</ele>
        <time>2018-09-30T09:08:21Z</time>
      </trkpt>
      <trkpt lat="43.19896" lon="0.13505">
        <ele>430</ele>
        <time>2018-09-30T09:08:22Z</time>
      </trkpt>
      <trkpt lat="43.19899" lon="0.13501">
        <ele>430</ele>
        <time>2018-09-30T09:08:23Z</time>
      </trkpt>
      <trkpt lat="43.19901" lon="0.13498">
        <ele>430</ele>
        <time>2018-09-30T09:08:24Z</time>
      </trkpt>
      <trkpt lat="43.19903" lon="0.13493">
        <ele>430</ele>
        <time>2018-09-30T09:08:25Z</time>
      </trkpt>
      <trkpt lat="43.19905" lon="0.13489">
        <ele>430</ele>
        <time>2018-09-30T09:08:26Z</time>
      </trkpt>
      <trkpt lat="43.19907" lon="0.13484">
        <ele>430</ele>
        <time>2018-09-30T09:08:27Z</time>
      </trkpt>
      <trkpt lat="43.19909" lon="0.1348">
        <ele>431</ele>
        <time>2018-09-30T09:08:28Z</time>
      </trkpt>
      <trkpt lat="43.19911" lon="0.13476">
        <ele>431</ele>
        <time>2018-09-30T09:08:29Z</time>
      </trkpt>
      <trkpt lat="43.19913" lon="0.13471">
        <ele>432</ele>
        <time>2018-09-30T09:08:30Z</time>
      </trkpt>
      <trkpt lat="43.19916" lon="0.13467">
        <ele>432</ele>
        <time>2018-09-30T09:08:31Z</time>
      </trkpt>
      <trkpt lat="43.19917" lon="0.13462">
        <ele>433</ele>
        <time>2018-09-30T09:08:32Z</time>
      </trkpt>
      <trkpt lat="43.1992" lon="0.13457">
        <ele>433</ele>
        <time>2018-09-30T09:08:33Z</time>
      </trkpt>
      <trkpt lat="43.19922" lon="0.13452">
        <ele>433</ele>
        <time>2018-09-30T09:08:34Z</time>
      </trkpt>
      <trkpt lat="43.19924" lon="0.13447">
        <ele>433</ele>
        <time>2018-09-30T09:08:35Z</time>
      </trkpt>
      <trkpt lat="43.19926" lon="0.13442">
        <ele>434</ele>
        <time>2018-09-30T09:08:36Z</time>
      </trkpt>
      <trkpt lat="43.19928" lon="0.13437">
        <ele>434</ele>
        <time>2018-09-30T09:08:37Z</time>
      </trkpt>
      <trkpt lat="43.1993" lon="0.13432">
        <ele>434</ele>
        <time>2018-09-30T09:08:38Z</time>
      </trkpt>
      <trkpt lat="43.19932" lon="0.13427">
        <ele>434</ele>
        <time>2018-09-30T09:08:39Z</time>
      </trkpt>
      <trkpt lat="43.19934" lon="0.13422">
        <ele>434</ele>
        <time>2018-09-30T09:08:40Z</time>
      </trkpt>
      <trkpt lat="43.19936" lon="0.13417">
        <ele>434</ele>
        <time>2018-09-30T09:08:41Z</time>
      </trkpt>
      <trkpt lat="43.19938" lon="0.13412">
        <ele>434</ele>
        <time>2018-09-30T09:08:42Z</time>
      </trkpt>
      <trkpt lat="43.1994" lon="0.13406">
        <ele>434</ele>
        <time>2018-09-30T09:08:43Z</time>
      </trkpt>
      <trkpt lat="43.19942" lon="0.13401">
        <ele>434</ele>
        <time>2018-09-30T09:08:44Z</time>
      </trkpt>
      <trkpt lat="43.19944" lon="0.13396">
        <ele>434</ele>
        <time>2018-09-30T09:08:45Z</time>
      </trkpt>
      <trkpt lat="43.19947" lon="0.13391">
        <ele>434</ele>
        <time>2018-09-30T09:08:46Z</time>
      </trkpt>
      <trkpt lat="43.19949" lon="0.13385">
        <ele>434</ele>
        <time>2018-09-30T09:08:47Z</time>
      </trkpt>
      <trkpt lat="43.19952" lon="0.1338">
        <ele>434</ele>
        <time>2018-09-30T09:08:48Z</time>
      </trkpt>
      <trkpt lat="43.19954" lon="0.13374">
        <ele>435</ele>
        <time>2018-09-30T09:08:49Z</time>
      </trkpt>
      <trkpt lat="43.19956" lon="0.13368">
        <ele>435</ele>
        <time>2018-09-30T09:08:50Z</time>
      </trkpt>
      <trkpt lat="43.19958" lon="0.13363">
        <ele>435</ele>
        <time>2018-09-30T09:08:51Z</time>
      </trkpt>
      <trkpt lat="43.1996" lon="0.13357">
        <ele>435</ele>
        <time>2018-09-30T09:08:52Z</time>
      </trkpt>
      <trkpt lat="43.19962" lon="0.13351">
        <ele>435</ele>
        <time>2018-09-30T09:08:53Z</time>
      </trkpt>
      <trkpt lat="43.19965" lon="0.13345">
        <ele>435</ele>
        <time>2018-09-30T09:08:54Z</time>
      </trkpt>
      <trkpt lat="43.19967" lon="0.13339">
        <ele>435</ele>
        <time>2018-09-30T09:08:55Z</time>
      </trkpt>
      <trkpt lat="43.19969" lon="0.13332">
        <ele>435</ele>
        <time>2018-09-30T09:08:56Z</time>
      </trkpt>
      <trkpt lat="43.1997" lon="0.13325">
        <ele>435</ele>
        <time>2018-09-30T09:08:57Z</time>
      </trkpt>
      <trkpt lat="43.19972" lon="0.13318">
        <ele>435</ele>
        <time>2018-09-30T09:08:58Z</time>
      </trkpt>
      <trkpt lat="43.19974" lon="0.13312">
        <ele>435</ele>
        <time>2018-09-30T09:08:59Z</time>
      </trkpt>
      <trkpt lat="43.19976" lon="0.13305">
        <ele>435</ele>
        <time>2018-09-30T09:09:00Z</time>
      </trkpt>
      <trkpt lat="43.19977" lon="0.13298">
        <ele>435</ele>
        <time>2018-09-30T09:09:01Z</time>
      </trkpt>
      <trkpt lat="43.19978" lon="0.1329">
        <ele>435</ele>
        <time>2018-09-30T09:09:02Z</time>
      </trkpt>
      <trkpt lat="43.1998" lon="0.13283">
        <ele>435</ele>
        <time>2018-09-30T09:09:03Z</time>
      </trkpt>
      <trkpt lat="43.19981" lon="0.13276">
        <ele>435</ele>
        <time>2018-09-30T09:09:04Z</time>
      </trkpt>
      <trkpt lat="43.19982" lon="0.13268">
        <ele>435</ele>
        <time>2018-09-30T09:09:05Z</time>
      </trkpt>
      <trkpt lat="43.19983" lon="0.13261">
        <ele>436</ele>
        <time>2018-09-30T09:09:06Z</time>
      </trkpt>
      <trkpt lat="43.19984" lon="0.13253">
        <ele>436</ele>
        <time>2018-09-30T09:09:07Z</time>
      </trkpt>
      <trkpt lat="43.19985" lon="0.13246">
        <ele>436</ele>
        <time>2018-09-30T09:09:08Z</time>
      </trkpt>
      <trkpt lat="43.19986" lon="0.13238">
        <ele>436</ele>
        <time>2018-09-30T09:09:09Z</time>
      </trkpt>
      <trkpt lat="43.19987" lon="0.13231">
        <ele>436</ele>
        <time>2018-09-30T09:09:10Z</time>
      </trkpt>
      <trkpt lat="43.19988" lon="0.13224">
        <ele>436</ele>
        <time>2018-09-30T09:09:11Z</time>
      </trkpt>
      <trkpt lat="43.1999" lon="0.13217">
        <ele>436</ele>
        <time>2018-09-30T09:09:12Z</time>
      </trkpt>
      <trkpt lat="43.19991" lon="0.1321">
        <ele>436</ele>
        <time>2018-09-30T09:09:13Z</time>
      </trkpt>
      <trkpt lat="43.19992" lon="0.13203">
        <ele>437</ele>
        <time>2018-09-30T09:09:14Z</time>
      </trkpt>
      <trkpt lat="43.19993" lon="0.13196">
        <ele>437</ele>
        <time>2018-09-30T09:09:15Z</time>
      </trkpt>
      <trkpt lat="43.19994" lon="0.13189">
        <ele>437</ele>
        <time>2018-09-30T09:09:16Z</time>
      </trkpt>
      <trkpt lat="43.19995" lon="0.13182">
        <ele>437</ele>
        <time>2018-09-30T09:09:17Z</time>
      </trkpt>
      <trkpt lat="43.19996" lon="0.13175">
        <ele>437</ele>
        <time>2018-09-30T09:09:18Z</time>
      </trkpt>
      <trkpt lat="43.19996" lon="0.13169">
        <ele>437</ele>
        <time>2018-09-30T09:09:19Z</time>
      </trkpt>
      <trkpt lat="43.19997" lon="0.13163">
        <ele>437</ele>
        <time>2018-09-30T09:09:20Z</time>
      </trkpt>
      <trkpt lat="43.19997" lon="0.13157">
        <ele>437</ele>
        <time>2018-09-30T09:09:21Z</time>
      </trkpt>
      <trkpt lat="43.19999" lon="0.13152">
        <ele>437</ele>
        <time>2018-09-30T09:09:22Z</time>
      </trkpt>
      <trkpt lat="43.2" lon="0.13147">
        <ele>437</ele>
        <time>2018-09-30T09:09:23Z</time>
      </trkpt>
      <trkpt lat="43.20001" lon="0.13141">
        <ele>437</ele>
        <time>2018-09-30T09:09:24Z</time>
      </trkpt>
      <trkpt lat="43.20002" lon="0.13136">
        <ele>437</ele>
        <time>2018-09-30T09:09:25Z</time>
      </trkpt>
      <trkpt lat="43.20004" lon="0.1313">
        <ele>437</ele>
        <time>2018-09-30T09:09:26Z</time>
      </trkpt>
      <trkpt lat="43.20005" lon="0.13125">
        <ele>437</ele>
        <time>2018-09-30T09:09:27Z</time>
      </trkpt>
      <trkpt lat="43.20006" lon="0.13121">
        <ele>437</ele>
        <time>2018-09-30T09:09:28Z</time>
      </trkpt>
      <trkpt lat="43.20007" lon="0.13118">
        <ele>437</ele>
        <time>2018-09-30T09:09:29Z</time>
      </trkpt>
      <trkpt lat="43.20009" lon="0.13114">
        <ele>437</ele>
        <time>2018-09-30T09:09:30Z</time>
      </trkpt>
      <trkpt lat="43.20012" lon="0.1311">
        <ele>437</ele>
        <time>2018-09-30T09:09:31Z</time>
      </trkpt>
      <trkpt lat="43.20016" lon="0.13106">
        <ele>436</ele>
        <time>2018-09-30T09:09:32Z</time>
      </trkpt>
      <trkpt lat="43.20022" lon="0.13103">
        <ele>436</ele>
        <time>2018-09-30T09:09:33Z</time>
      </trkpt>
      <trkpt lat="43.20026" lon="0.131">
        <ele>436</ele>
        <time>2018-09-30T09:09:34Z</time>
      </trkpt>
      <trkpt lat="43.20031" lon="0.13099">
        <ele>436</ele>
        <time>2018-09-30T09:09:35Z</time>
      </trkpt>
      <trkpt lat="43.20035" lon="0.13098">
        <ele>436</ele>
        <time>2018-09-30T09:09:36Z</time>
      </trkpt>
      <trkpt lat="43.20039" lon="0.13098">
        <ele>435</ele>
        <time>2018-09-30T09:09:37Z</time>
      </trkpt>
      <trkpt lat="43.20042" lon="0.13097">
        <ele>435</ele>
        <time>2018-09-30T09:09:38Z</time>
      </trkpt>
      <trkpt lat="43.20045" lon="0.13097">
        <ele>435</ele>
        <time>2018-09-30T09:09:39Z</time>
      </trkpt>
      <trkpt lat="43.20048" lon="0.13096">
        <ele>435</ele>
        <time>2018-09-30T09:09:40Z</time>
      </trkpt>
      <trkpt lat="43.20053" lon="0.13096">
        <ele>435</ele>
        <time>2018-09-30T09:09:41Z</time>
      </trkpt>
      <trkpt lat="43.20056" lon="0.13095">
        <ele>434</ele>
        <time>2018-09-30T09:09:42Z</time>
      </trkpt>
      <trkpt lat="43.20058" lon="0.13096">
        <ele>434</ele>
        <time>2018-09-30T09:09:43Z</time>
      </trkpt>
      <trkpt lat="43.20061" lon="0.13097">
        <ele>434</ele>
        <time>2018-09-30T09:09:44Z</time>
      </trkpt>
      <trkpt lat="43.20064" lon="0.13097">
        <ele>434</ele>
        <time>2018-09-30T09:09:45Z</time>
      </trkpt>
      <trkpt lat="43.20068" lon="0.13098">
        <ele>434</ele>
        <time>2018-09-30T09:09:46Z</time>
      </trkpt>
      <trkpt lat="43.20073" lon="0.13099">
        <ele>434</ele>
        <time>2018-09-30T09:09:47Z</time>
      </trkpt>
      <trkpt lat="43.20077" lon="0.13099">
        <ele>434</ele>
        <time>2018-09-30T09:09:48Z</time>
      </trkpt>
      <trkpt lat="43.20081" lon="0.13098">
        <ele>434</ele>
        <time>2018-09-30T09:09:49Z</time>
      </trkpt>
      <trkpt lat="43.20085" lon="0.13098">
        <ele>434</ele>
        <time>2018-09-30T09:09:50Z</time>
      </trkpt>
      <trkpt lat="43.20091" lon="0.13099">
        <ele>433</ele>
        <time>2018-09-30T09:09:51Z</time>
      </trkpt>
      <trkpt lat="43.20096" lon="0.13099">
        <ele>433</ele>
        <time>2018-09-30T09:09:52Z</time>
      </trkpt>
      <trkpt lat="43.201" lon="0.131">
        <ele>433</ele>
        <time>2018-09-30T09:09:53Z</time>
      </trkpt>
      <trkpt lat="43.20105" lon="0.13101">
        <ele>433</ele>
        <time>2018-09-30T09:09:54Z</time>
      </trkpt>
      <trkpt lat="43.2011" lon="0.13102">
        <ele>433</ele>
        <time>2018-09-30T09:09:55Z</time>
      </trkpt>
      <trkpt lat="43.20116" lon="0.13101">
        <ele>433</ele>
        <time>2018-09-30T09:09:56Z</time>
      </trkpt>
      <trkpt lat="43.20121" lon="0.13101">
        <ele>434</ele>
        <time>2018-09-30T09:09:57Z</time>
      </trkpt>
      <trkpt lat="43.20125" lon="0.13101">
        <ele>434</ele>
        <time>2018-09-30T09:09:58Z</time>
      </trkpt>
      <trkpt lat="43.20132" lon="0.13101">
        <ele>434</ele>
        <time>2018-09-30T09:09:59Z</time>
      </trkpt>
      <trkpt lat="43.20138" lon="0.13102">
        <ele>434</ele>
        <time>2018-09-30T09:10:00Z</time>
      </trkpt>
      <trkpt lat="43.20142" lon="0.13103">
        <ele>435</ele>
        <time>2018-09-30T09:10:01Z</time>
      </trkpt>
      <trkpt lat="43.20147" lon="0.13105">
        <ele>435</ele>
        <time>2018-09-30T09:10:02Z</time>
      </trkpt>
      <trkpt lat="43.20151" lon="0.13106">
        <ele>435</ele>
        <time>2018-09-30T09:10:03Z</time>
      </trkpt>
      <trkpt lat="43.20155" lon="0.13108">
        <ele>435</ele>
        <time>2018-09-30T09:10:04Z</time>
      </trkpt>
      <trkpt lat="43.20159" lon="0.13109">
        <ele>436</ele>
        <time>2018-09-30T09:10:05Z</time>
      </trkpt>
      <trkpt lat="43.20163" lon="0.1311">
        <ele>436</ele>
        <time>2018-09-30T09:10:06Z</time>
      </trkpt>
      <trkpt lat="43.20166" lon="0.13112">
        <ele>436</ele>
        <time>2018-09-30T09:10:07Z</time>
      </trkpt>
      <trkpt lat="43.2017" lon="0.13114">
        <ele>436</ele>
        <time>2018-09-30T09:10:08Z</time>
      </trkpt>
      <trkpt lat="43.20172" lon="0.13117">
        <ele>436</ele>
        <time>2018-09-30T09:10:09Z</time>
      </trkpt>
      <trkpt lat="43.20175" lon="0.13119">
        <ele>436</ele>
        <time>2018-09-30T09:10:10Z</time>
      </trkpt>
      <trkpt lat="43.20178" lon="0.13121">
        <ele>436</ele>
        <time>2018-09-30T09:10:11Z</time>
      </trkpt>
      <trkpt lat="43.20181" lon="0.13123">
        <ele>436</ele>
        <time>2018-09-30T09:10:12Z</time>
      </trkpt>
      <trkpt lat="43.20184" lon="0.13125">
        <ele>436</ele>
        <time>2018-09-30T09:10:13Z</time>
      </trkpt>
      <trkpt lat="43.20187" lon="0.13127">
        <ele>437</ele>
        <time>2018-09-30T09:10:14Z</time>
      </trkpt>
      <trkpt lat="43.2019" lon="0.13129">
        <ele>437</ele>
        <time>2018-09-30T09:10:15Z</time>
      </trkpt>
      <trkpt lat="43.20192" lon="0.1313">
        <ele>437</ele>
        <time>2018-09-30T09:10:16Z</time>
      </trkpt>
      <trkpt lat="43.20195" lon="0.13132">
        <ele>437</ele>
        <time>2018-09-30T09:10:17Z</time>
      </trkpt>
      <trkpt lat="43.20198" lon="0.13134">
        <ele>437</ele>
        <time>2018-09-30T09:10:18Z</time>
      </trkpt>
      <trkpt lat="43.20201" lon="0.13136">
        <ele>437</ele>
        <time>2018-09-30T09:10:19Z</time>
      </trkpt>
      <trkpt lat="43.20205" lon="0.13139">
        <ele>437</ele>
        <time>2018-09-30T09:10:20Z</time>
      </trkpt>
      <trkpt lat="43.20208" lon="0.1314">
        <ele>437</ele>
        <time>2018-09-30T09:10:21Z</time>
      </trkpt>
      <trkpt lat="43.20211" lon="0.13142">
        <ele>437</ele>
        <time>2018-09-30T09:10:22Z</time>
      </trkpt>
      <trkpt lat="43.20214" lon="0.13144">
        <ele>437</ele>
        <time>2018-09-30T09:10:23Z</time>
      </trkpt>
      <trkpt lat="43.20217" lon="0.13146">
        <ele>437</ele>
        <time>2018-09-30T09:10:24Z</time>
      </trkpt>
      <trkpt lat="43.2022" lon="0.13147">
        <ele>437</ele>
        <time>2018-09-30T09:10:25Z</time>
      </trkpt>
      <trkpt lat="43.20223" lon="0.13149">
        <ele>437</ele>
        <time>2018-09-30T09:10:26Z</time>
      </trkpt>
      <trkpt lat="43.20226" lon="0.13151">
        <ele>437</ele>
        <time>2018-09-30T09:10:27Z</time>
      </trkpt>
      <trkpt lat="43.20229" lon="0.13153">
        <ele>437</ele>
        <time>2018-09-30T09:10:28Z</time>
      </trkpt>
      <trkpt lat="43.20232" lon="0.13156">
        <ele>437</ele>
        <time>2018-09-30T09:10:29Z</time>
      </trkpt>
      <trkpt lat="43.20235" lon="0.13158">
        <ele>437</ele>
        <time>2018-09-30T09:10:30Z</time>
      </trkpt>
      <trkpt lat="43.20239" lon="0.13161">
        <ele>437</ele>
        <time>2018-09-30T09:10:31Z</time>
      </trkpt>
      <trkpt lat="43.20242" lon="0.13163">
        <ele>437</ele>
        <time>2018-09-30T09:10:32Z</time>
      </trkpt>
      <trkpt lat="43.20245" lon="0.13165">
        <ele>437</ele>
        <time>2018-09-30T09:10:33Z</time>
      </trkpt>
      <trkpt lat="43.20248" lon="0.13167">
        <ele>437</ele>
        <time>2018-09-30T09:10:34Z</time>
      </trkpt>
      <trkpt lat="43.20252" lon="0.13169">
        <ele>437</ele>
        <time>2018-09-30T09:10:35Z</time>
      </trkpt>
      <trkpt lat="43.20255" lon="0.13172">
        <ele>437</ele>
        <time>2018-09-30T09:10:36Z</time>
      </trkpt>
      <trkpt lat="43.20259" lon="0.13174">
        <ele>437</ele>
        <time>2018-09-30T09:10:37Z</time>
      </trkpt>
      <trkpt lat="43.20262" lon="0.13176">
        <ele>437</ele>
        <time>2018-09-30T09:10:38Z</time>
      </trkpt>
      <trkpt lat="43.20266" lon="0.13179">
        <ele>437</ele>
        <time>2018-09-30T09:10:39Z</time>
      </trkpt>
      <trkpt lat="43.2027" lon="0.13182">
        <ele>438</ele>
        <time>2018-09-30T09:10:40Z</time>
      </trkpt>
      <trkpt lat="43.20273" lon="0.13185">
        <ele>438</ele>
        <time>2018-09-30T09:10:41Z</time>
      </trkpt>
      <trkpt lat="43.20276" lon="0.13189">
        <ele>438</ele>
        <time>2018-09-30T09:10:42Z</time>
      </trkpt>
      <trkpt lat="43.20279" lon="0.13194">
        <ele>439</ele>
        <time>2018-09-30T09:10:43Z</time>
      </trkpt>
      <trkpt lat="43.2028" lon="0.13198">
        <ele>439</ele>
        <time>2018-09-30T09:10:44Z</time>
      </trkpt>
      <trkpt lat="43.20282" lon="0.13203">
        <ele>439</ele>
        <time>2018-09-30T09:10:45Z</time>
      </trkpt>
      <trkpt lat="43.20284" lon="0.13208">
        <ele>439</ele>
        <time>2018-09-30T09:10:46Z</time>
      </trkpt>
      <trkpt lat="43.20286" lon="0.13214">
        <ele>439</ele>
        <time>2018-09-30T09:10:47Z</time>
      </trkpt>
      <trkpt lat="43.20287" lon="0.1322">
        <ele>440</ele>
        <time>2018-09-30T09:10:48Z</time>
      </trkpt>
      <trkpt lat="43.20289" lon="0.13226">
        <ele>440</ele>
        <time>2018-09-30T09:10:49Z</time>
      </trkpt>
      <trkpt lat="43.20291" lon="0.13233">
        <ele>440</ele>
        <time>2018-09-30T09:10:50Z</time>
      </trkpt>
      <trkpt lat="43.20293" lon="0.13239">
        <ele>440</ele>
        <time>2018-09-30T09:10:51Z</time>
      </trkpt>
      <trkpt lat="43.20294" lon="0.13246">
        <ele>439</ele>
        <time>2018-09-30T09:10:52Z</time>
      </trkpt>
      <trkpt lat="43.20295" lon="0.13253">
        <ele>439</ele>
        <time>2018-09-30T09:10:53Z</time>
      </trkpt>
      <trkpt lat="43.20296" lon="0.1326">
        <ele>439</ele>
        <time>2018-09-30T09:10:54Z</time>
      </trkpt>
      <trkpt lat="43.20298" lon="0.13267">
        <ele>439</ele>
        <time>2018-09-30T09:10:55Z</time>
      </trkpt>
      <trkpt lat="43.203" lon="0.13274">
        <ele>438</ele>
        <time>2018-09-30T09:10:56Z</time>
      </trkpt>
      <trkpt lat="43.20301" lon="0.13281">
        <ele>438</ele>
        <time>2018-09-30T09:10:57Z</time>
      </trkpt>
      <trkpt lat="43.20303" lon="0.13288">
        <ele>438</ele>
        <time>2018-09-30T09:10:58Z</time>
      </trkpt>
      <trkpt lat="43.20304" lon="0.13294">
        <ele>438</ele>
        <time>2018-09-30T09:10:59Z</time>
      </trkpt>
      <trkpt lat="43.20307" lon="0.13299">
        <ele>437</ele>
        <time>2018-09-30T09:11:00Z</time>
      </trkpt>
      <trkpt lat="43.20311" lon="0.13304">
        <ele>437</ele>
        <time>2018-09-30T09:11:01Z</time>
      </trkpt>
      <trkpt lat="43.20315" lon="0.13309">
        <ele>437</ele>
        <time>2018-09-30T09:11:02Z</time>
      </trkpt>
      <trkpt lat="43.2032" lon="0.13312">
        <ele>437</ele>
        <time>2018-09-30T09:11:03Z</time>
      </trkpt>
      <trkpt lat="43.20325" lon="0.13315">
        <ele>437</ele>
        <time>2018-09-30T09:11:04Z</time>
      </trkpt>
      <trkpt lat="43.2033" lon="0.13318">
        <ele>438</ele>
        <time>2018-09-30T09:11:05Z</time>
      </trkpt>
      <trkpt lat="43.20336" lon="0.1332">
        <ele>437</ele>
        <time>2018-09-30T09:11:06Z</time>
      </trkpt>
      <trkpt lat="43.20341" lon="0.13323">
        <ele>437</ele>
        <time>2018-09-30T09:11:07Z</time>
      </trkpt>
      <trkpt lat="43.20347" lon="0.13326">
        <ele>437</ele>
        <time>2018-09-30T09:11:08Z</time>
      </trkpt>
      <trkpt lat="43.20352" lon="0.13328">
        <ele>437</ele>
        <time>2018-09-30T09:11:09Z</time>
      </trkpt>
      <trkpt lat="43.20357" lon="0.13331">
        <ele>437</ele>
        <time>2018-09-30T09:11:10Z</time>
      </trkpt>
      <trkpt lat="43.20363" lon="0.13333">
        <ele>437</ele>
        <time>2018-09-30T09:11:11Z</time>
      </trkpt>
      <trkpt lat="43.2037" lon="0.13335">
        <ele>436</ele>
        <time>2018-09-30T09:11:12Z</time>
      </trkpt>
      <trkpt lat="43.20376" lon="0.13337">
        <ele>436</ele>
        <time>2018-09-30T09:11:13Z</time>
      </trkpt>
      <trkpt lat="43.20382" lon="0.13339">
        <ele>435</ele>
        <time>2018-09-30T09:11:14Z</time>
      </trkpt>
      <trkpt lat="43.20388" lon="0.13342">
        <ele>435</ele>
        <time>2018-09-30T09:11:15Z</time>
      </trkpt>
      <trkpt lat="43.20394" lon="0.13345">
        <ele>435</ele>
        <time>2018-09-30T09:11:16Z</time>
      </trkpt>
      <trkpt lat="43.204" lon="0.13347">
        <ele>435</ele>
        <time>2018-09-30T09:11:17Z</time>
      </trkpt>
      <trkpt lat="43.20407" lon="0.1335">
        <ele>434</ele>
        <time>2018-09-30T09:11:18Z</time>
      </trkpt>
      <trkpt lat="43.20414" lon="0.13353">
        <ele>434</ele>
        <time>2018-09-30T09:11:19Z</time>
      </trkpt>
      <trkpt lat="43.2042" lon="0.13355">
        <ele>434</ele>
        <time>2018-09-30T09:11:20Z</time>
      </trkpt>
      <trkpt lat="43.20426" lon="0.13358">
        <ele>434</ele>
        <time>2018-09-30T09:11:21Z</time>
      </trkpt>
      <trkpt lat="43.20433" lon="0.1336">
        <ele>433</ele>
        <time>2018-09-30T09:11:22Z</time>
      </trkpt>
      <trkpt lat="43.20439" lon="0.13362">
        <ele>433</ele>
        <time>2018-09-30T09:11:23Z</time>
      </trkpt>
      <trkpt lat="43.20445" lon="0.13363">
        <ele>433</ele>
        <time>2018-09-30T09:11:24Z</time>
      </trkpt>
      <trkpt lat="43.20451" lon="0.13365">
        <ele>433</ele>
        <time>2018-09-30T09:11:25Z</time>
      </trkpt>
      <trkpt lat="43.20456" lon="0.13365">
        <ele>433</ele>
        <time>2018-09-30T09:11:26Z</time>
      </trkpt>
      <trkpt lat="43.2046" lon="0.13364">
        <ele>433</ele>
        <time>2018-09-30T09:11:27Z</time>
      </trkpt>
      <trkpt lat="43.20463" lon="0.13364">
        <ele>433</ele>
        <time>2018-09-30T09:11:28Z</time>
      </trkpt>
      <trkpt lat="43.20465" lon="0.13365">
        <ele>433</ele>
        <time>2018-09-30T09:11:29Z</time>
      </trkpt>
      <trkpt lat="43.20466" lon="0.13367">
        <ele>433</ele>
        <time>2018-09-30T09:11:30Z</time>
      </trkpt>
      <trkpt lat="43.20467" lon="0.13371">
        <ele>433</ele>
        <time>2018-09-30T09:11:31Z</time>
      </trkpt>
      <trkpt lat="43.20467" lon="0.13375">
        <ele>433</ele>
        <time>2018-09-30T09:11:32Z</time>
      </trkpt>
      <trkpt lat="43.20467" lon="0.13378">
        <ele>433</ele>
        <time>2018-09-30T09:11:33Z</time>
      </trkpt>
      <trkpt lat="43.20466" lon="0.13381">
        <ele>433</ele>
        <time>2018-09-30T09:11:34Z</time>
      </trkpt>
      <trkpt lat="43.20465" lon="0.13383">
        <ele>433</ele>
        <time>2018-09-30T09:11:35Z</time>
      </trkpt>
      <trkpt lat="43.20463" lon="0.13385">
        <ele>433</ele>
        <time>2018-09-30T09:11:36Z</time>
      </trkpt>
      <trkpt lat="43.20461" lon="0.13386">
        <ele>433</ele>
        <time>2018-09-30T09:11:37Z</time>
      </trkpt>
      <trkpt lat="43.20459" lon="0.13386">
        <ele>433</ele>
        <time>2018-09-30T09:11:38Z</time>
      </trkpt>
      <trkpt lat="43.20456" lon="0.13387">
        <ele>433</ele>
        <time>2018-09-30T09:11:39Z</time>
      </trkpt>
      <trkpt lat="43.20454" lon="0.13389">
        <ele>433</ele>
        <time>2018-09-30T09:11:40Z</time>
      </trkpt>
      <trkpt lat="43.20452" lon="0.1339">
        <ele>433</ele>
        <time>2018-09-30T09:11:41Z</time>
      </trkpt>
      <trkpt lat="43.2045" lon="0.1339">
        <ele>433</ele>
        <time>2018-09-30T09:11:42Z</time>
      </trkpt>
      <trkpt lat="43.20449" lon="0.13397">
        <ele>433</ele>
        <time>2018-09-30T09:11:43Z</time>
      </trkpt>
      <trkpt lat="43.20447" lon="0.134">
        <ele>433</ele>
        <time>2018-09-30T09:11:44Z</time>
      </trkpt>
      <trkpt lat="43.20447" lon="0.13402">
        <ele>433</ele>
        <time>2018-09-30T09:11:45Z</time>
      </trkpt>
      <trkpt lat="43.20447" lon="0.13406">
        <ele>433</ele>
        <time>2018-09-30T09:11:46Z</time>
      </trkpt>
      <trkpt lat="43.20447" lon="0.13409">
        <ele>433</ele>
        <time>2018-09-30T09:11:47Z</time>
      </trkpt>
      <trkpt lat="43.20448" lon="0.13412">
        <ele>433</ele>
        <time>2018-09-30T09:11:48Z</time>
      </trkpt>
      <trkpt lat="43.20449" lon="0.13414">
        <ele>433</ele>
        <time>2018-09-30T09:11:49Z</time>
      </trkpt>
      <trkpt lat="43.20451" lon="0.13417">
        <ele>433</ele>
        <time>2018-09-30T09:11:50Z</time>
      </trkpt>
      <trkpt lat="43.20452" lon="0.13418">
        <ele>433</ele>
        <time>2018-09-30T09:11:51Z</time>
      </trkpt>
      <trkpt lat="43.20453" lon="0.1342">
        <ele>433</ele>
        <time>2018-09-30T09:11:52Z</time>
      </trkpt>
      <trkpt lat="43.20455" lon="0.13422">
        <ele>432</ele>
        <time>2018-09-30T09:11:53Z</time>
      </trkpt>
      <trkpt lat="43.20456" lon="0.13423">
        <ele>432</ele>
        <time>2018-09-30T09:11:54Z</time>
      </trkpt>
      <trkpt lat="43.20458" lon="0.13422">
        <ele>432</ele>
        <time>2018-09-30T09:11:55Z</time>
      </trkpt>
      <trkpt lat="43.2046" lon="0.13421">
        <ele>432</ele>
        <time>2018-09-30T09:11:56Z</time>
      </trkpt>
      <trkpt lat="43.20462" lon="0.13422">
        <ele>432</ele>
        <time>2018-09-30T09:11:57Z</time>
      </trkpt>
      <trkpt lat="43.20464" lon="0.13423">
        <ele>432</ele>
        <time>2018-09-30T09:11:58Z</time>
      </trkpt>
      <trkpt lat="43.20467" lon="0.13424">
        <ele>432</ele>
        <time>2018-09-30T09:11:59Z</time>
      </trkpt>
      <trkpt lat="43.20469" lon="0.13426">
        <ele>431</ele>
        <time>2018-09-30T09:12:00Z</time>
      </trkpt>
      <trkpt lat="43.20472" lon="0.13427">
        <ele>431</ele>
        <time>2018-09-30T09:12:01Z</time>
      </trkpt>
      <trkpt lat="43.20475" lon="0.1343">
        <ele>431</ele>
        <time>2018-09-30T09:12:02Z</time>
      </trkpt>
      <trkpt lat="43.20476" lon="0.13433">
        <ele>431</ele>
        <time>2018-09-30T09:12:03Z</time>
      </trkpt>
      <trkpt lat="43.2048" lon="0.13438">
        <ele>431</ele>
        <time>2018-09-30T09:12:04Z</time>
      </trkpt>
      <trkpt lat="43.20484" lon="0.13444">
        <ele>430</ele>
        <time>2018-09-30T09:12:05Z</time>
      </trkpt>
      <trkpt lat="43.20489" lon="0.13451">
        <ele>430</ele>
        <time>2018-09-30T09:12:06Z</time>
      </trkpt>
      <trkpt lat="43.20492" lon="0.13456">
        <ele>430</ele>
        <time>2018-09-30T09:12:07Z</time>
      </trkpt>
      <trkpt lat="43.20495" lon="0.13461">
        <ele>430</ele>
        <time>2018-09-30T09:12:08Z</time>
      </trkpt>
      <trkpt lat="43.20498" lon="0.13467">
        <ele>430</ele>
        <time>2018-09-30T09:12:09Z</time>
      </trkpt>
      <trkpt lat="43.20501" lon="0.13473">
        <ele>430</ele>
        <time>2018-09-30T09:12:10Z</time>
      </trkpt>
      <trkpt lat="43.20503" lon="0.13479">
        <ele>429</ele>
        <time>2018-09-30T09:12:11Z</time>
      </trkpt>
      <trkpt lat="43.20505" lon="0.13485">
        <ele>429</ele>
        <time>2018-09-30T09:12:12Z</time>
      </trkpt>
      <trkpt lat="43.20507" lon="0.13492">
        <ele>427</ele>
        <time>2018-09-30T09:12:13Z</time>
      </trkpt>
      <trkpt lat="43.20511" lon="0.135">
        <ele>427</ele>
        <time>2018-09-30T09:12:14Z</time>
      </trkpt>
      <trkpt lat="43.20512" lon="0.13507">
        <ele>426</ele>
        <time>2018-09-30T09:12:15Z</time>
      </trkpt>
      <trkpt lat="43.20514" lon="0.13514">
        <ele>426</ele>
        <time>2018-09-30T09:12:16Z</time>
      </trkpt>
      <trkpt lat="43.20516" lon="0.13523">
        <ele>425</ele>
        <time>2018-09-30T09:12:17Z</time>
      </trkpt>
      <trkpt lat="43.20518" lon="0.13531">
        <ele>425</ele>
        <time>2018-09-30T09:12:18Z</time>
      </trkpt>
      <trkpt lat="43.20521" lon="0.13543">
        <ele>425</ele>
        <time>2018-09-30T09:12:19Z</time>
      </trkpt>
      <trkpt lat="43.20523" lon="0.1355">
        <ele>424</ele>
        <time>2018-09-30T09:12:20Z</time>
      </trkpt>
      <trkpt lat="43.20526" lon="0.13557">
        <ele>424</ele>
        <time>2018-09-30T09:12:21Z</time>
      </trkpt>
      <trkpt lat="43.20527" lon="0.13564">
        <ele>424</ele>
        <time>2018-09-30T09:12:22Z</time>
      </trkpt>
      <trkpt lat="43.20529" lon="0.13573">
        <ele>422</ele>
        <time>2018-09-30T09:12:23Z</time>
      </trkpt>
      <trkpt lat="43.2053" lon="0.13585">
        <ele>419</ele>
        <time>2018-09-30T09:12:24Z</time>
      </trkpt>
      <trkpt lat="43.20532" lon="0.13598">
        <ele>417</ele>
        <time>2018-09-30T09:12:25Z</time>
      </trkpt>
      <trkpt lat="43.20533" lon="0.13613">
        <ele>415</ele>
        <time>2018-09-30T09:12:26Z</time>
      </trkpt>
      <trkpt lat="43.20532" lon="0.13635">
        <ele>414</ele>
        <time>2018-09-30T09:12:27Z</time>
      </trkpt>
      <trkpt lat="43.20533" lon="0.13646">
        <ele>413</ele>
        <time>2018-09-30T09:12:28Z</time>
      </trkpt>
      <trkpt lat="43.20532" lon="0.13654">
        <ele>410</ele>
        <time>2018-09-30T09:12:29Z</time>
      </trkpt>
      <trkpt lat="43.20529" lon="0.13668">
        <ele>409</ele>
        <time>2018-09-30T09:12:30Z</time>
      </trkpt>
      <trkpt lat="43.20529" lon="0.13672">
        <ele>409</ele>
        <time>2018-09-30T09:12:31Z</time>
      </trkpt>
      <trkpt lat="43.2053" lon="0.13676">
        <ele>409</ele>
        <time>2018-09-30T09:12:32Z</time>
      </trkpt>
      <trkpt lat="43.20531" lon="0.13681">
        <ele>408</ele>
        <time>2018-09-30T09:12:33Z</time>
      </trkpt>
      <trkpt lat="43.20532" lon="0.13685">
        <ele>408</ele>
        <time>2018-09-30T09:12:34Z</time>
      </trkpt>
      <trkpt lat="43.20534" lon="0.13692">
        <ele>408</ele>
        <time>2018-09-30T09:12:35Z</time>
      </trkpt>
      <trkpt lat="43.20536" lon="0.13699">
        <ele>408</ele>
        <time>2018-09-30T09:12:36Z</time>
      </trkpt>
      <trkpt lat="43.20539" lon="0.13705">
        <ele>408</ele>
        <time>2018-09-30T09:12:37Z</time>
      </trkpt>
      <trkpt lat="43.20543" lon="0.13713">
        <ele>408</ele>
        <time>2018-09-30T09:12:38Z</time>
      </trkpt>
      <trkpt lat="43.20549" lon="0.13721">
        <ele>408</ele>
        <time>2018-09-30T09:12:39Z</time>
      </trkpt>
      <trkpt lat="43.20555" lon="0.13729">
        <ele>406</ele>
        <time>2018-09-30T09:12:40Z</time>
      </trkpt>
      <trkpt lat="43.20559" lon="0.13733">
        <ele>406</ele>
        <time>2018-09-30T09:12:41Z</time>
      </trkpt>
      <trkpt lat="43.20563" lon="0.13738">
        <ele>406</ele>
        <time>2018-09-30T09:12:42Z</time>
      </trkpt>
      <trkpt lat="43.20567" lon="0.13743">
        <ele>405</ele>
        <time>2018-09-30T09:12:43Z</time>
      </trkpt>
      <trkpt lat="43.2057" lon="0.13749">
        <ele>405</ele>
        <time>2018-09-30T09:12:44Z</time>
      </trkpt>
      <trkpt lat="43.20575" lon="0.13756">
        <ele>404</ele>
        <time>2018-09-30T09:12:45Z</time>
      </trkpt>
      <trkpt lat="43.20578" lon="0.13762">
        <ele>404</ele>
        <time>2018-09-30T09:12:46Z</time>
      </trkpt>
      <trkpt lat="43.20579" lon="0.13766">
        <ele>403</ele>
        <time>2018-09-30T09:12:47Z</time>
      </trkpt>
      <trkpt lat="43.20582" lon="0.13772">
        <ele>402</ele>
        <time>2018-09-30T09:12:48Z</time>
      </trkpt>
      <trkpt lat="43.20585" lon="0.13778">
        <ele>402</ele>
        <time>2018-09-30T09:12:49Z</time>
      </trkpt>
      <trkpt lat="43.20587" lon="0.13784">
        <ele>401</ele>
        <time>2018-09-30T09:12:50Z</time>
      </trkpt>
      <trkpt lat="43.20589" lon="0.13788">
        <ele>401</ele>
        <time>2018-09-30T09:12:51Z</time>
      </trkpt>
      <trkpt lat="43.20592" lon="0.13793">
        <ele>396</ele>
        <time>2018-09-30T09:12:52Z</time>
      </trkpt>
      <trkpt lat="43.20595" lon="0.13799">
        <ele>394</ele>
        <time>2018-09-30T09:12:53Z</time>
      </trkpt>
      <trkpt lat="43.20599" lon="0.13805">
        <ele>392</ele>
        <time>2018-09-30T09:12:54Z</time>
      </trkpt>
      <trkpt lat="43.20604" lon="0.13816">
        <ele>391</ele>
        <time>2018-09-30T09:12:55Z</time>
      </trkpt>
      <trkpt lat="43.20609" lon="0.13822">
        <ele>390</ele>
        <time>2018-09-30T09:12:56Z</time>
      </trkpt>
      <trkpt lat="43.20614" lon="0.13827">
        <ele>389</ele>
        <time>2018-09-30T09:12:57Z</time>
      </trkpt>
      <trkpt lat="43.20619" lon="0.13832">
        <ele>388</ele>
        <time>2018-09-30T09:12:58Z</time>
      </trkpt>
      <trkpt lat="43.20623" lon="0.13836">
        <ele>388</ele>
        <time>2018-09-30T09:12:59Z</time>
      </trkpt>
      <trkpt lat="43.20626" lon="0.13839">
        <ele>387</ele>
        <time>2018-09-30T09:13:00Z</time>
      </trkpt>
      <trkpt lat="43.20631" lon="0.13845">
        <ele>386</ele>
        <time>2018-09-30T09:13:01Z</time>
      </trkpt>
      <trkpt lat="43.20636" lon="0.13851">
        <ele>381</ele>
        <time>2018-09-30T09:13:02Z</time>
      </trkpt>
      <trkpt lat="43.20644" lon="0.1387">
        <ele>379</ele>
        <time>2018-09-30T09:13:03Z</time>
      </trkpt>
      <trkpt lat="43.2065" lon="0.13877">
        <ele>378</ele>
        <time>2018-09-30T09:13:04Z</time>
      </trkpt>
      <trkpt lat="43.20654" lon="0.13883">
        <ele>378</ele>
        <time>2018-09-30T09:13:05Z</time>
      </trkpt>
      <trkpt lat="43.20661" lon="0.13898">
        <ele>377</ele>
        <time>2018-09-30T09:13:06Z</time>
      </trkpt>
      <trkpt lat="43.20665" lon="0.13903">
        <ele>376</ele>
        <time>2018-09-30T09:13:07Z</time>
      </trkpt>
      <trkpt lat="43.20669" lon="0.13907">
        <ele>376</ele>
        <time>2018-09-30T09:13:08Z</time>
      </trkpt>
      <trkpt lat="43.20674" lon="0.13912">
        <ele>373</ele>
        <time>2018-09-30T09:13:09Z</time>
      </trkpt>
      <trkpt lat="43.20679" lon="0.13917">
        <ele>372</ele>
        <time>2018-09-30T09:13:10Z</time>
      </trkpt>
      <trkpt lat="43.20683" lon="0.13922">
        <ele>371</ele>
        <time>2018-09-30T09:13:11Z</time>
      </trkpt>
      <trkpt lat="43.20687" lon="0.13928">
        <ele>370</ele>
        <time>2018-09-30T09:13:12Z</time>
      </trkpt>
      <trkpt lat="43.20692" lon="0.13936">
        <ele>370</ele>
        <time>2018-09-30T09:13:13Z</time>
      </trkpt>
      <trkpt lat="43.20695" lon="0.13944">
        <ele>369</ele>
        <time>2018-09-30T09:13:14Z</time>
      </trkpt>
      <trkpt lat="43.20699" lon="0.13954">
        <ele>369</ele>
        <time>2018-09-30T09:13:15Z</time>
      </trkpt>
      <trkpt lat="43.20703" lon="0.13963">
        <ele>368</ele>
        <time>2018-09-30T09:13:16Z</time>
      </trkpt>
      <trkpt lat="43.20707" lon="0.13973">
        <ele>368</ele>
        <time>2018-09-30T09:13:17Z</time>
      </trkpt>
      <trkpt lat="43.20711" lon="0.13983">
        <ele>366</ele>
        <time>2018-09-30T09:13:18Z</time>
      </trkpt>
      <trkpt lat="43.20713" lon="0.13994">
        <ele>366</ele>
        <time>2018-09-30T09:13:19Z</time>
      </trkpt>
      <trkpt lat="43.20719" lon="0.14008">
        <ele>366</ele>
        <time>2018-09-30T09:13:20Z</time>
      </trkpt>
      <trkpt lat="43.20724" lon="0.1402">
        <ele>366</ele>
        <time>2018-09-30T09:13:21Z</time>
      </trkpt>
      <trkpt lat="43.20726" lon="0.14027">
        <ele>366</ele>
        <time>2018-09-30T09:13:22Z</time>
      </trkpt>
      <trkpt lat="43.20728" lon="0.14031">
        <ele>366</ele>
        <time>2018-09-30T09:13:23Z</time>
      </trkpt>
      <trkpt lat="43.20729" lon="0.14035">
        <ele>366</ele>
        <time>2018-09-30T09:13:24Z</time>
      </trkpt>
      <trkpt lat="43.20729" lon="0.1404">
        <ele>367</ele>
        <time>2018-09-30T09:13:25Z</time>
      </trkpt>
      <trkpt lat="43.20727" lon="0.14043">
        <ele>367</ele>
        <time>2018-09-30T09:13:26Z</time>
      </trkpt>
      <trkpt lat="43.2073" lon="0.14053">
        <ele>367</ele>
        <time>2018-09-30T09:13:27Z</time>
      </trkpt>
      <trkpt lat="43.20729" lon="0.14078">
        <ele>367</ele>
        <time>2018-09-30T09:13:28Z</time>
      </trkpt>
      <trkpt lat="43.20727" lon="0.14083">
        <ele>368</ele>
        <time>2018-09-30T09:13:29Z</time>
      </trkpt>
      <trkpt lat="43.20727" lon="0.14086">
        <ele>368</ele>
        <time>2018-09-30T09:13:30Z</time>
      </trkpt>
      <trkpt lat="43.20726" lon="0.14089">
        <ele>368</ele>
        <time>2018-09-30T09:13:31Z</time>
      </trkpt>
      <trkpt lat="43.20724" lon="0.14094">
        <ele>369</ele>
        <time>2018-09-30T09:13:32Z</time>
      </trkpt>
      <trkpt lat="43.20723" lon="0.141">
        <ele>369</ele>
        <time>2018-09-30T09:13:33Z</time>
      </trkpt>
      <trkpt lat="43.20721" lon="0.14106">
        <ele>369</ele>
        <time>2018-09-30T09:13:34Z</time>
      </trkpt>
      <trkpt lat="43.20719" lon="0.14112">
        <ele>369</ele>
        <time>2018-09-30T09:13:35Z</time>
      </trkpt>
      <trkpt lat="43.20717" lon="0.14119">
        <ele>370</ele>
        <time>2018-09-30T09:13:36Z</time>
      </trkpt>
      <trkpt lat="43.20713" lon="0.14133">
        <ele>370</ele>
        <time>2018-09-30T09:13:37Z</time>
      </trkpt>
      <trkpt lat="43.20711" lon="0.14139">
        <ele>371</ele>
        <time>2018-09-30T09:13:38Z</time>
      </trkpt>
      <trkpt lat="43.20709" lon="0.14145">
        <ele>371</ele>
        <time>2018-09-30T09:13:39Z</time>
      </trkpt>
      <trkpt lat="43.20706" lon="0.14152">
        <ele>374</ele>
        <time>2018-09-30T09:13:40Z</time>
      </trkpt>
      <trkpt lat="43.20701" lon="0.14156">
        <ele>375</ele>
        <time>2018-09-30T09:13:41Z</time>
      </trkpt>
      <trkpt lat="43.20696" lon="0.14159">
        <ele>376</ele>
        <time>2018-09-30T09:13:42Z</time>
      </trkpt>
      <trkpt lat="43.20693" lon="0.14161">
        <ele>376</ele>
        <time>2018-09-30T09:13:43Z</time>
      </trkpt>
      <trkpt lat="43.2069" lon="0.14165">
        <ele>377</ele>
        <time>2018-09-30T09:13:44Z</time>
      </trkpt>
      <trkpt lat="43.20686" lon="0.14169">
        <ele>377</ele>
        <time>2018-09-30T09:13:45Z</time>
      </trkpt>
      <trkpt lat="43.20683" lon="0.14172">
        <ele>377</ele>
        <time>2018-09-30T09:13:46Z</time>
      </trkpt>
      <trkpt lat="43.20681" lon="0.14175">
        <ele>377</ele>
        <time>2018-09-30T09:13:47Z</time>
      </trkpt>
      <trkpt lat="43.20679" lon="0.14178">
        <ele>378</ele>
        <time>2018-09-30T09:13:48Z</time>
      </trkpt>
      <trkpt lat="43.20678" lon="0.14181">
        <ele>378</ele>
        <time>2018-09-30T09:13:49Z</time>
      </trkpt>
      <trkpt lat="43.20676" lon="0.14186">
        <ele>378</ele>
        <time>2018-09-30T09:13:50Z</time>
      </trkpt>
      <trkpt lat="43.20674" lon="0.14187">
        <ele>378</ele>
        <time>2018-09-30T09:13:51Z</time>
      </trkpt>
      <trkpt lat="43.2067" lon="0.14188">
        <ele>379</ele>
        <time>2018-09-30T09:13:52Z</time>
      </trkpt>
      <trkpt lat="43.20666" lon="0.1419">
        <ele>379</ele>
        <time>2018-09-30T09:13:53Z</time>
      </trkpt>
      <trkpt lat="43.20662" lon="0.14192">
        <ele>379</ele>
        <time>2018-09-30T09:13:54Z</time>
      </trkpt>
      <trkpt lat="43.20658" lon="0.14193">
        <ele>379</ele>
        <time>2018-09-30T09:13:55Z</time>
      </trkpt>
      <trkpt lat="43.20654" lon="0.14195">
        <ele>381</ele>
        <time>2018-09-30T09:13:56Z</time>
      </trkpt>
      <trkpt lat="43.20651" lon="0.14199">
        <ele>381</ele>
        <time>2018-09-30T09:13:57Z</time>
      </trkpt>
      <trkpt lat="43.20647" lon="0.14203">
        <ele>382</ele>
        <time>2018-09-30T09:13:58Z</time>
      </trkpt>
      <trkpt lat="43.20643" lon="0.14206">
        <ele>382</ele>
        <time>2018-09-30T09:13:59Z</time>
      </trkpt>
      <trkpt lat="43.2064" lon="0.14208">
        <ele>382</ele>
        <time>2018-09-30T09:14:00Z</time>
      </trkpt>
      <trkpt lat="43.2064" lon="0.14208">
        <ele>382</ele>
        <time>2018-09-30T09:14:01Z</time>
      </trkpt>
      <trkpt lat="43.2064" lon="0.14208">
        <ele>383</ele>
        <time>2018-09-30T09:14:02Z</time>
      </trkpt>
      <trkpt lat="43.20634" lon="0.14218">
        <ele>383</ele>
        <time>2018-09-30T09:14:03Z</time>
      </trkpt>
      <trkpt lat="43.20633" lon="0.14222">
        <ele>383</ele>
        <time>2018-09-30T09:14:04Z</time>
      </trkpt>
      <trkpt lat="43.20633" lon="0.14225">
        <ele>383</ele>
        <time>2018-09-30T09:14:05Z</time>
      </trkpt>
      <trkpt lat="43.20634" lon="0.14227">
        <ele>383</ele>
        <time>2018-09-30T09:14:06Z</time>
      </trkpt>
      <trkpt lat="43.20635" lon="0.14229">
        <ele>383</ele>
        <time>2018-09-30T09:14:07Z</time>
      </trkpt>
      <trkpt lat="43.20635" lon="0.14232">
        <ele>383</ele>
        <time>2018-09-30T09:14:08Z</time>
      </trkpt>
      <trkpt lat="43.20635" lon="0.14235">
        <ele>383</ele>
        <time>2018-09-30T09:14:09Z</time>
      </trkpt>
      <trkpt lat="43.20636" lon="0.14237">
        <ele>383</ele>
        <time>2018-09-30T09:14:10Z</time>
      </trkpt>
      <trkpt lat="43.20636" lon="0.14239">
        <ele>383</ele>
        <time>2018-09-30T09:14:11Z</time>
      </trkpt>
      <trkpt lat="43.20636" lon="0.14239">
        <ele>383</ele>
        <time>2018-09-30T09:14:12Z</time>
      </trkpt>
      <trkpt lat="43.20636" lon="0.14239">
        <ele>384</ele>
        <time>2018-09-30T09:14:13Z</time>
      </trkpt>
      <trkpt lat="43.20635" lon="0.14241">
        <ele>384</ele>
        <time>2018-09-30T09:14:14Z</time>
      </trkpt>
      <trkpt lat="43.20633" lon="0.14243">
        <ele>384</ele>
        <time>2018-09-30T09:14:15Z</time>
      </trkpt>
      <trkpt lat="43.2063" lon="0.14246">
        <ele>384</ele>
        <time>2018-09-30T09:14:16Z</time>
      </trkpt>
      <trkpt lat="43.20628" lon="0.14249">
        <ele>384</ele>
        <time>2018-09-30T09:14:17Z</time>
      </trkpt>
      <trkpt lat="43.20624" lon="0.14251">
        <ele>384</ele>
        <time>2018-09-30T09:14:18Z</time>
      </trkpt>
      <trkpt lat="43.20621" lon="0.14253">
        <ele>384</ele>
        <time>2018-09-30T09:14:19Z</time>
      </trkpt>
      <trkpt lat="43.20615" lon="0.14257">
        <ele>384</ele>
        <time>2018-09-30T09:14:20Z</time>
      </trkpt>
      <trkpt lat="43.20611" lon="0.14262">
        <ele>384</ele>
        <time>2018-09-30T09:14:21Z</time>
      </trkpt>
      <trkpt lat="43.20609" lon="0.14266">
        <ele>384</ele>
        <time>2018-09-30T09:14:22Z</time>
      </trkpt>
      <trkpt lat="43.20609" lon="0.14266">
        <ele>384</ele>
        <time>2018-09-30T09:14:23Z</time>
      </trkpt>
      <trkpt lat="43.20606" lon="0.14276">
        <ele>384</ele>
        <time>2018-09-30T09:14:24Z</time>
      </trkpt>
      <trkpt lat="43.20605" lon="0.14283">
        <ele>384</ele>
        <time>2018-09-30T09:14:25Z</time>
      </trkpt>
      <trkpt lat="43.20604" lon="0.14291">
        <ele>384</ele>
        <time>2018-09-30T09:14:26Z</time>
      </trkpt>
      <trkpt lat="43.20602" lon="0.14298">
        <ele>384</ele>
        <time>2018-09-30T09:14:27Z</time>
      </trkpt>
      <trkpt lat="43.206" lon="0.14304">
        <ele>384</ele>
        <time>2018-09-30T09:14:28Z</time>
      </trkpt>
      <trkpt lat="43.20597" lon="0.14312">
        <ele>384</ele>
        <time>2018-09-30T09:14:29Z</time>
      </trkpt>
      <trkpt lat="43.20595" lon="0.14321">
        <ele>384</ele>
        <time>2018-09-30T09:14:30Z</time>
      </trkpt>
      <trkpt lat="43.20594" lon="0.14329">
        <ele>384</ele>
        <time>2018-09-30T09:14:31Z</time>
      </trkpt>
      <trkpt lat="43.20593" lon="0.14338">
        <ele>383</ele>
        <time>2018-09-30T09:14:32Z</time>
      </trkpt>
      <trkpt lat="43.20591" lon="0.14348">
        <ele>383</ele>
        <time>2018-09-30T09:14:33Z</time>
      </trkpt>
      <trkpt lat="43.20589" lon="0.14355">
        <ele>383</ele>
        <time>2018-09-30T09:14:34Z</time>
      </trkpt>
      <trkpt lat="43.20586" lon="0.14361">
        <ele>383</ele>
        <time>2018-09-30T09:14:35Z</time>
      </trkpt>
      <trkpt lat="43.20584" lon="0.14366">
        <ele>383</ele>
        <time>2018-09-30T09:14:36Z</time>
      </trkpt>
      <trkpt lat="43.20583" lon="0.14373">
        <ele>383</ele>
        <time>2018-09-30T09:14:37Z</time>
      </trkpt>
      <trkpt lat="43.2058" lon="0.14379">
        <ele>383</ele>
        <time>2018-09-30T09:14:38Z</time>
      </trkpt>
      <trkpt lat="43.20579" lon="0.14384">
        <ele>383</ele>
        <time>2018-09-30T09:14:39Z</time>
      </trkpt>
      <trkpt lat="43.20577" lon="0.14389">
        <ele>382</ele>
        <time>2018-09-30T09:14:40Z</time>
      </trkpt>
      <trkpt lat="43.20574" lon="0.14393">
        <ele>382</ele>
        <time>2018-09-30T09:14:41Z</time>
      </trkpt>
      <trkpt lat="43.20574" lon="0.14393">
        <ele>382</ele>
        <time>2018-09-30T09:14:42Z</time>
      </trkpt>
      <trkpt lat="43.20574" lon="0.14393">
        <ele>382</ele>
        <time>2018-09-30T09:14:43Z</time>
      </trkpt>
      <trkpt lat="43.20574" lon="0.14407">
        <ele>382</ele>
        <time>2018-09-30T09:14:44Z</time>
      </trkpt>
      <trkpt lat="43.20574" lon="0.14407">
        <ele>382</ele>
        <time>2018-09-30T09:14:45Z</time>
      </trkpt>
      <trkpt lat="43.20574" lon="0.14407">
        <ele>382</ele>
        <time>2018-09-30T09:14:46Z</time>
      </trkpt>
      <trkpt lat="43.20566" lon="0.1443">
        <ele>382</ele>
        <time>2018-09-30T09:14:47Z</time>
      </trkpt>
      <trkpt lat="43.20564" lon="0.14435">
        <ele>381</ele>
        <time>2018-09-30T09:14:48Z</time>
      </trkpt>
      <trkpt lat="43.20564" lon="0.14435">
        <ele>381</ele>
        <time>2018-09-30T09:14:49Z</time>
      </trkpt>
      <trkpt lat="43.20564" lon="0.14435">
        <ele>381</ele>
        <time>2018-09-30T09:14:50Z</time>
      </trkpt>
      <trkpt lat="43.20564" lon="0.14435">
        <ele>381</ele>
        <time>2018-09-30T09:14:51Z</time>
      </trkpt>
      <trkpt lat="43.20558" lon="0.14445">
        <ele>381</ele>
        <time>2018-09-30T09:14:52Z</time>
      </trkpt>
      <trkpt lat="43.20558" lon="0.14445">
        <ele>381</ele>
        <time>2018-09-30T09:14:53Z</time>
      </trkpt>
      <trkpt lat="43.20558" lon="0.14445">
        <ele>381</ele>
        <time>2018-09-30T09:14:54Z</time>
      </trkpt>
      <trkpt lat="43.20558" lon="0.14445">
        <ele>381</ele>
        <time>2018-09-30T09:14:55Z</time>
      </trkpt>
      <trkpt lat="43.20558" lon="0.14445">
        <ele>381</ele>
        <time>2018-09-30T09:14:56Z</time>
      </trkpt>
      <trkpt lat="43.20553" lon="0.14459">
        <ele>381</ele>
        <time>2018-09-30T09:14:57Z</time>
      </trkpt>
      <trkpt lat="43.20552" lon="0.14461">
        <ele>381</ele>
        <time>2018-09-30T09:14:58Z</time>
      </trkpt>
      <trkpt lat="43.20551" lon="0.14466">
        <ele>381</ele>
        <time>2018-09-30T09:14:59Z</time>
      </trkpt>
      <trkpt lat="43.20549" lon="0.14469">
        <ele>381</ele>
        <time>2018-09-30T09:15:00Z</time>
      </trkpt>
      <trkpt lat="43.20548" lon="0.14471">
        <ele>381</ele>
        <time>2018-09-30T09:15:01Z</time>
      </trkpt>
      <trkpt lat="43.20545" lon="0.14477">
        <ele>381</ele>
        <time>2018-09-30T09:15:02Z</time>
      </trkpt>
      <trkpt lat="43.20545" lon="0.14477">
        <ele>380</ele>
        <time>2018-09-30T09:15:03Z</time>
      </trkpt>
      <trkpt lat="43.20541" lon="0.14478">
        <ele>380</ele>
        <time>2018-09-30T09:15:04Z</time>
      </trkpt>
      <trkpt lat="43.20539" lon="0.14477">
        <ele>380</ele>
        <time>2018-09-30T09:15:05Z</time>
      </trkpt>
      <trkpt lat="43.20536" lon="0.14475">
        <ele>380</ele>
        <time>2018-09-30T09:15:06Z</time>
      </trkpt>
      <trkpt lat="43.20532" lon="0.14473">
        <ele>380</ele>
        <time>2018-09-30T09:15:07Z</time>
      </trkpt>
      <trkpt lat="43.20529" lon="0.1447">
        <ele>380</ele>
        <time>2018-09-30T09:15:08Z</time>
      </trkpt>
      <trkpt lat="43.20526" lon="0.14467">
        <ele>380</ele>
        <time>2018-09-30T09:15:09Z</time>
      </trkpt>
      <trkpt lat="43.20523" lon="0.14464">
        <ele>380</ele>
        <time>2018-09-30T09:15:10Z</time>
      </trkpt>
      <trkpt lat="43.2052" lon="0.14461">
        <ele>380</ele>
        <time>2018-09-30T09:15:11Z</time>
      </trkpt>
      <trkpt lat="43.20517" lon="0.14458">
        <ele>380</ele>
        <time>2018-09-30T09:15:12Z</time>
      </trkpt>
      <trkpt lat="43.20514" lon="0.14455">
        <ele>380</ele>
        <time>2018-09-30T09:15:13Z</time>
      </trkpt>
      <trkpt lat="43.20511" lon="0.14452">
        <ele>380</ele>
        <time>2018-09-30T09:15:14Z</time>
      </trkpt>
      <trkpt lat="43.20508" lon="0.1445">
        <ele>381</ele>
        <time>2018-09-30T09:15:15Z</time>
      </trkpt>
      <trkpt lat="43.20506" lon="0.14448">
        <ele>381</ele>
        <time>2018-09-30T09:15:16Z</time>
      </trkpt>
      <trkpt lat="43.20503" lon="0.14445">
        <ele>381</ele>
        <time>2018-09-30T09:15:17Z</time>
      </trkpt>
      <trkpt lat="43.20501" lon="0.14443">
        <ele>381</ele>
        <time>2018-09-30T09:15:18Z</time>
      </trkpt>
      <trkpt lat="43.20498" lon="0.1444">
        <ele>381</ele>
        <time>2018-09-30T09:15:19Z</time>
      </trkpt>
      <trkpt lat="43.20496" lon="0.14438">
        <ele>381</ele>
        <time>2018-09-30T09:15:20Z</time>
      </trkpt>
      <trkpt lat="43.20494" lon="0.14435">
        <ele>381</ele>
        <time>2018-09-30T09:15:21Z</time>
      </trkpt>
      <trkpt lat="43.20492" lon="0.14432">
        <ele>381</ele>
        <time>2018-09-30T09:15:22Z</time>
      </trkpt>
      <trkpt lat="43.20489" lon="0.14429">
        <ele>381</ele>
        <time>2018-09-30T09:15:23Z</time>
      </trkpt>
      <trkpt lat="43.20486" lon="0.14426">
        <ele>381</ele>
        <time>2018-09-30T09:15:24Z</time>
      </trkpt>
      <trkpt lat="43.20484" lon="0.14423">
        <ele>381</ele>
        <time>2018-09-30T09:15:25Z</time>
      </trkpt>
      <trkpt lat="43.20481" lon="0.1442">
        <ele>381</ele>
        <time>2018-09-30T09:15:26Z</time>
      </trkpt>
      <trkpt lat="43.20478" lon="0.14418">
        <ele>381</ele>
        <time>2018-09-30T09:15:27Z</time>
      </trkpt>
      <trkpt lat="43.20475" lon="0.14417">
        <ele>381</ele>
        <time>2018-09-30T09:15:28Z</time>
      </trkpt>
      <trkpt lat="43.20472" lon="0.14416">
        <ele>382</ele>
        <time>2018-09-30T09:15:29Z</time>
      </trkpt>
      <trkpt lat="43.20468" lon="0.14416">
        <ele>382</ele>
        <time>2018-09-30T09:15:30Z</time>
      </trkpt>
      <trkpt lat="43.20465" lon="0.14416">
        <ele>382</ele>
        <time>2018-09-30T09:15:31Z</time>
      </trkpt>
      <trkpt lat="43.20462" lon="0.14415">
        <ele>382</ele>
        <time>2018-09-30T09:15:32Z</time>
      </trkpt>
      <trkpt lat="43.20459" lon="0.14415">
        <ele>382</ele>
        <time>2018-09-30T09:15:33Z</time>
      </trkpt>
      <trkpt lat="43.20456" lon="0.14414">
        <ele>383</ele>
        <time>2018-09-30T09:15:34Z</time>
      </trkpt>
      <trkpt lat="43.20454" lon="0.14414">
        <ele>383</ele>
        <time>2018-09-30T09:15:35Z</time>
      </trkpt>
      <trkpt lat="43.20451" lon="0.14414">
        <ele>383</ele>
        <time>2018-09-30T09:15:36Z</time>
      </trkpt>
      <trkpt lat="43.20449" lon="0.14415">
        <ele>383</ele>
        <time>2018-09-30T09:15:37Z</time>
      </trkpt>
      <trkpt lat="43.20447" lon="0.14416">
        <ele>383</ele>
        <time>2018-09-30T09:15:38Z</time>
      </trkpt>
      <trkpt lat="43.20445" lon="0.1442">
        <ele>383</ele>
        <time>2018-09-30T09:15:39Z</time>
      </trkpt>
      <trkpt lat="43.20445" lon="0.14424">
        <ele>383</ele>
        <time>2018-09-30T09:15:40Z</time>
      </trkpt>
      <trkpt lat="43.20445" lon="0.14429">
        <ele>383</ele>
        <time>2018-09-30T09:15:41Z</time>
      </trkpt>
      <trkpt lat="43.20445" lon="0.14435">
        <ele>383</ele>
        <time>2018-09-30T09:15:42Z</time>
      </trkpt>
      <trkpt lat="43.20445" lon="0.1444">
        <ele>383</ele>
        <time>2018-09-30T09:15:43Z</time>
      </trkpt>
      <trkpt lat="43.20445" lon="0.14446">
        <ele>384</ele>
        <time>2018-09-30T09:15:44Z</time>
      </trkpt>
      <trkpt lat="43.20444" lon="0.14452">
        <ele>384</ele>
        <time>2018-09-30T09:15:45Z</time>
      </trkpt>
      <trkpt lat="43.20445" lon="0.14459">
        <ele>384</ele>
        <time>2018-09-30T09:15:46Z</time>
      </trkpt>
      <trkpt lat="43.20445" lon="0.14467">
        <ele>384</ele>
        <time>2018-09-30T09:15:47Z</time>
      </trkpt>
      <trkpt lat="43.20445" lon="0.14475">
        <ele>384</ele>
        <time>2018-09-30T09:15:48Z</time>
      </trkpt>
      <trkpt lat="43.20445" lon="0.14483">
        <ele>384</ele>
        <time>2018-09-30T09:15:49Z</time>
      </trkpt>
      <trkpt lat="43.20446" lon="0.1449">
        <ele>383</ele>
        <time>2018-09-30T09:15:50Z</time>
      </trkpt>
      <trkpt lat="43.20449" lon="0.14497">
        <ele>383</ele>
        <time>2018-09-30T09:15:51Z</time>
      </trkpt>
      <trkpt lat="43.20452" lon="0.14504">
        <ele>383</ele>
        <time>2018-09-30T09:15:52Z</time>
      </trkpt>
      <trkpt lat="43.20455" lon="0.1451">
        <ele>382</ele>
        <time>2018-09-30T09:15:53Z</time>
      </trkpt>
      <trkpt lat="43.20458" lon="0.14517">
        <ele>382</ele>
        <time>2018-09-30T09:15:54Z</time>
      </trkpt>
      <trkpt lat="43.20461" lon="0.14524">
        <ele>382</ele>
        <time>2018-09-30T09:15:55Z</time>
      </trkpt>
      <trkpt lat="43.20464" lon="0.14531">
        <ele>382</ele>
        <time>2018-09-30T09:15:56Z</time>
      </trkpt>
      <trkpt lat="43.20465" lon="0.14538">
        <ele>381</ele>
        <time>2018-09-30T09:15:57Z</time>
      </trkpt>
      <trkpt lat="43.20467" lon="0.14545">
        <ele>381</ele>
        <time>2018-09-30T09:15:58Z</time>
      </trkpt>
      <trkpt lat="43.20469" lon="0.14551">
        <ele>381</ele>
        <time>2018-09-30T09:15:59Z</time>
      </trkpt>
      <trkpt lat="43.2047" lon="0.14557">
        <ele>381</ele>
        <time>2018-09-30T09:16:00Z</time>
      </trkpt>
      <trkpt lat="43.20471" lon="0.14563">
        <ele>381</ele>
        <time>2018-09-30T09:16:01Z</time>
      </trkpt>
      <trkpt lat="43.20471" lon="0.14568">
        <ele>381</ele>
        <time>2018-09-30T09:16:02Z</time>
      </trkpt>
      <trkpt lat="43.20472" lon="0.14574">
        <ele>380</ele>
        <time>2018-09-30T09:16:03Z</time>
      </trkpt>
      <trkpt lat="43.20473" lon="0.1458">
        <ele>380</ele>
        <time>2018-09-30T09:16:04Z</time>
      </trkpt>
      <trkpt lat="43.20474" lon="0.14585">
        <ele>380</ele>
        <time>2018-09-30T09:16:05Z</time>
      </trkpt>
      <trkpt lat="43.20475" lon="0.14588">
        <ele>380</ele>
        <time>2018-09-30T09:16:06Z</time>
      </trkpt>
      <trkpt lat="43.20476" lon="0.14589">
        <ele>380</ele>
        <time>2018-09-30T09:16:07Z</time>
      </trkpt>
      <trkpt lat="43.20477" lon="0.14593">
        <ele>380</ele>
        <time>2018-09-30T09:16:08Z</time>
      </trkpt>
      <trkpt lat="43.20479" lon="0.14597">
        <ele>380</ele>
        <time>2018-09-30T09:16:09Z</time>
      </trkpt>
      <trkpt lat="43.20481" lon="0.14601">
        <ele>380</ele>
        <time>2018-09-30T09:16:10Z</time>
      </trkpt>
      <trkpt lat="43.20482" lon="0.14604">
        <ele>380</ele>
        <time>2018-09-30T09:16:11Z</time>
      </trkpt>
      <trkpt lat="43.20485" lon="0.14608">
        <ele>380</ele>
        <time>2018-09-30T09:16:12Z</time>
      </trkpt>
      <trkpt lat="43.20487" lon="0.14612">
        <ele>381</ele>
        <time>2018-09-30T09:16:13Z</time>
      </trkpt>
      <trkpt lat="43.20493" lon="0.14623">
        <ele>382</ele>
        <time>2018-09-30T09:16:14Z</time>
      </trkpt>
      <trkpt lat="43.20493" lon="0.14623">
        <ele>382</ele>
        <time>2018-09-30T09:16:15Z</time>
      </trkpt>
      <trkpt lat="43.20497" lon="0.1463">
        <ele>383</ele>
        <time>2018-09-30T09:16:16Z</time>
      </trkpt>
      <trkpt lat="43.20499" lon="0.14632">
        <ele>383</ele>
        <time>2018-09-30T09:16:17Z</time>
      </trkpt>
      <trkpt lat="43.20501" lon="0.14632">
        <ele>384</ele>
        <time>2018-09-30T09:16:18Z</time>
      </trkpt>
      <trkpt lat="43.20503" lon="0.14632">
        <ele>384</ele>
        <time>2018-09-30T09:16:19Z</time>
      </trkpt>
      <trkpt lat="43.20505" lon="0.14633">
        <ele>384</ele>
        <time>2018-09-30T09:16:20Z</time>
      </trkpt>
      <trkpt lat="43.20508" lon="0.14635">
        <ele>385</ele>
        <time>2018-09-30T09:16:21Z</time>
      </trkpt>
      <trkpt lat="43.20509" lon="0.14636">
        <ele>388</ele>
        <time>2018-09-30T09:16:22Z</time>
      </trkpt>
      <trkpt lat="43.20511" lon="0.14636">
        <ele>389</ele>
        <time>2018-09-30T09:16:23Z</time>
      </trkpt>
      <trkpt lat="43.20512" lon="0.14636">
        <ele>389</ele>
        <time>2018-09-30T09:16:24Z</time>
      </trkpt>
      <trkpt lat="43.20512" lon="0.14636">
        <ele>389</ele>
        <time>2018-09-30T09:16:25Z</time>
      </trkpt>
      <trkpt lat="43.20512" lon="0.14636">
        <ele>390</ele>
        <time>2018-09-30T09:16:26Z</time>
      </trkpt>
      <trkpt lat="43.20513" lon="0.14636">
        <ele>390</ele>
        <time>2018-09-30T09:16:27Z</time>
      </trkpt>
      <trkpt lat="43.20514" lon="0.14635">
        <ele>390</ele>
        <time>2018-09-30T09:16:28Z</time>
      </trkpt>
      <trkpt lat="43.20515" lon="0.14635">
        <ele>391</ele>
        <time>2018-09-30T09:16:28Z</time>
      </trkpt>
      <trkpt lat="43.20519" lon="0.14636">
        <ele>391</ele>
        <time>2018-09-30T09:16:29Z</time>
      </trkpt>
      <trkpt lat="43.20519" lon="0.14636">
        <ele>391</ele>
        <time>2018-09-30T09:16:30Z</time>
      </trkpt>
      <trkpt lat="43.20519" lon="0.14636">
        <ele>391</ele>
        <time>2018-09-30T09:16:31Z</time>
      </trkpt>
      <trkpt lat="43.20519" lon="0.14636">
        <ele>391</ele>
        <time>2018-09-30T09:16:32Z</time>
      </trkpt>
      <trkpt lat="43.20519" lon="0.14636">
        <ele>391</ele>
        <time>2018-09-30T09:16:33Z</time>
      </trkpt>
      <trkpt lat="43.20519" lon="0.14636">
        <ele>391</ele>
        <time>2018-09-30T09:16:34Z</time>
      </trkpt>
      <trkpt lat="43.20519" lon="0.14636">
        <ele>391</ele>
        <time>2018-09-30T09:16:35Z</time>
      </trkpt>
      <trkpt lat="43.20519" lon="0.14636">
        <ele>391</ele>
        <time>2018-09-30T09:16:36Z</time>
      </trkpt>
      <trkpt lat="43.20519" lon="0.14636">
        <ele>391</ele>
        <time>2018-09-30T09:16:37Z</time>
      </trkpt>
      <trkpt lat="43.20519" lon="0.14636">
        <ele>391</ele>
        <time>2018-09-30T09:16:38Z</time>
      </trkpt>
      <trkpt lat="43.20519" lon="0.14636">
        <ele>391</ele>
        <time>2018-09-30T09:16:39Z</time>
      </trkpt>
      <trkpt lat="43.20519" lon="0.14636">
        <ele>391</ele>
        <time>2018-09-30T09:16:40Z</time>
      </trkpt>
      <trkpt lat="43.20519" lon="0.14636">
        <ele>391</ele>
        <time>2018-09-30T09:16:41Z</time>
      </trkpt>
      <trkpt lat="43.20519" lon="0.14636">
        <ele>391</ele>
        <time>2018-09-30T09:16:42Z</time>
      </trkpt>
      <trkpt lat="43.20519" lon="0.14636">
        <ele>391</ele>
        <time>2018-09-30T09:16:43Z</time>
      </trkpt>
      <trkpt lat="43.20519" lon="0.14636">
        <ele>391</ele>
        <time>2018-09-30T09:16:44Z</time>
      </trkpt>
      <trkpt lat="43.20528" lon="0.14639">
        <ele>391</ele>
        <time>2018-09-30T09:16:45Z</time>
      </trkpt>
      <trkpt lat="43.20532" lon="0.14638">
        <ele>391</ele>
        <time>2018-09-30T09:16:46Z</time>
      </trkpt>
      <trkpt lat="43.20532" lon="0.14638">
        <ele>391</ele>
        <time>2018-09-30T09:16:47Z</time>
      </trkpt>
      <trkpt lat="43.20532" lon="0.14638">
        <ele>391</ele>
        <time>2018-09-30T09:16:48Z</time>
      </trkpt>
      <trkpt lat="43.20532" lon="0.14638">
        <ele>391</ele>
        <time>2018-09-30T09:16:49Z</time>
      </trkpt>
      <trkpt lat="43.20532" lon="0.14638">
        <ele>391</ele>
        <time>2018-09-30T09:16:50Z</time>
      </trkpt>
      <trkpt lat="43.20532" lon="0.14638">
        <ele>391</ele>
        <time>2018-09-30T09:16:51Z</time>
      </trkpt>
      <trkpt lat="43.20532" lon="0.14638">
        <ele>391</ele>
        <time>2018-09-30T09:16:52Z</time>
      </trkpt>
      <trkpt lat="43.20532" lon="0.14638">
        <ele>391</ele>
        <time>2018-09-30T09:16:53Z</time>
      </trkpt>
      <trkpt lat="43.20532" lon="0.14638">
        <ele>392</ele>
        <time>2018-09-30T09:16:54Z</time>
      </trkpt>
      <trkpt lat="43.20532" lon="0.14638">
        <ele>392</ele>
        <time>2018-09-30T09:16:55Z</time>
      </trkpt>
      <trkpt lat="43.20532" lon="0.14638">
        <ele>392</ele>
        <time>2018-09-30T09:16:56Z</time>
      </trkpt>
      <trkpt lat="43.20532" lon="0.14638">
        <ele>392</ele>
        <time>2018-09-30T09:16:57Z</time>
      </trkpt>
      <trkpt lat="43.20532" lon="0.14638">
        <ele>392</ele>
        <time>2018-09-30T09:16:58Z</time>
      </trkpt>
      <trkpt lat="43.20532" lon="0.14638">
        <ele>392</ele>
        <time>2018-09-30T09:16:59Z</time>
      </trkpt>
      <trkpt lat="43.20532" lon="0.14638">
        <ele>392</ele>
        <time>2018-09-30T09:17:00Z</time>
      </trkpt>
      <trkpt lat="43.20532" lon="0.14638">
        <ele>392</ele>
        <time>2018-09-30T09:17:01Z</time>
      </trkpt>
      <trkpt lat="43.20532" lon="0.14638">
        <ele>392</ele>
        <time>2018-09-30T09:17:02Z</time>
      </trkpt>
      <trkpt lat="43.20532" lon="0.14638">
        <ele>392</ele>
        <time>2018-09-30T09:17:03Z</time>
      </trkpt>
      <trkpt lat="43.20532" lon="0.14638">
        <ele>392</ele>
        <time>2018-09-30T09:17:04Z</time>
      </trkpt>
      <trkpt lat="43.20532" lon="0.14638">
        <ele>392</ele>
        <time>2018-09-30T09:17:05Z</time>
      </trkpt>
      <trkpt lat="43.20532" lon="0.14638">
        <ele>392</ele>
        <time>2018-09-30T09:17:06Z</time>
      </trkpt>
      <trkpt lat="43.20532" lon="0.14638">
        <ele>392</ele>
        <time>2018-09-30T09:17:07Z</time>
      </trkpt>
      <trkpt lat="43.20532" lon="0.14638">
        <ele>392</ele>
        <time>2018-09-30T09:17:08Z</time>
      </trkpt>
      <trkpt lat="43.20532" lon="0.14638">
        <ele>392</ele>
        <time>2018-09-30T09:17:09Z</time>
      </trkpt>
      <trkpt lat="43.20523" lon="0.1464">
        <ele>392</ele>
        <time>2018-09-30T09:17:10Z</time>
      </trkpt>
      <trkpt lat="43.20523" lon="0.1464">
        <ele>392</ele>
        <time>2018-09-30T09:17:11Z</time>
      </trkpt>
      <trkpt lat="43.20523" lon="0.1464">
        <ele>392</ele>
        <time>2018-09-30T09:17:12Z</time>
      </trkpt>
      <trkpt lat="43.20523" lon="0.1464">
        <ele>392</ele>
        <time>2018-09-30T09:17:13Z</time>
      </trkpt>
      <trkpt lat="43.20523" lon="0.1464">
        <ele>392</ele>
        <time>2018-09-30T09:17:14Z</time>
      </trkpt>
      <trkpt lat="43.20523" lon="0.1464">
        <ele>392</ele>
        <time>2018-09-30T09:17:15Z</time>
      </trkpt>
      <trkpt lat="43.20523" lon="0.1464">
        <ele>392</ele>
        <time>2018-09-30T09:17:16Z</time>
      </trkpt>
      <trkpt lat="43.20523" lon="0.1464">
        <ele>392</ele>
        <time>2018-09-30T09:17:17Z</time>
      </trkpt>
      <trkpt lat="43.20523" lon="0.1464">
        <ele>392</ele>
        <time>2018-09-30T09:17:18Z</time>
      </trkpt>
      <trkpt lat="43.20514" lon="0.14645">
        <ele>392</ele>
        <time>2018-09-30T09:17:19Z</time>
      </trkpt>
      <trkpt lat="43.20514" lon="0.14645">
        <ele>392</ele>
        <time>2018-09-30T09:17:20Z</time>
      </trkpt>
      <trkpt lat="43.20514" lon="0.14645">
        <ele>392</ele>
        <time>2018-09-30T09:17:21Z</time>
      </trkpt>
      <trkpt lat="43.20514" lon="0.14645">
        <ele>392</ele>
        <time>2018-09-30T09:17:22Z</time>
      </trkpt>
      <trkpt lat="43.20514" lon="0.14645">
        <ele>392</ele>
        <time>2018-09-30T09:17:23Z</time>
      </trkpt>
      <trkpt lat="43.20514" lon="0.14645">
        <ele>392</ele>
        <time>2018-09-30T09:17:24Z</time>
      </trkpt>
      <trkpt lat="43.20514" lon="0.14645">
        <ele>392</ele>
        <time>2018-09-30T09:17:25Z</time>
      </trkpt>
      <trkpt lat="43.20514" lon="0.14645">
        <ele>393</ele>
        <time>2018-09-30T09:17:26Z</time>
      </trkpt>
      <trkpt lat="43.20514" lon="0.14645">
        <ele>393</ele>
        <time>2018-09-30T09:17:27Z</time>
      </trkpt>
      <trkpt lat="43.20514" lon="0.14645">
        <ele>393</ele>
        <time>2018-09-30T09:17:28Z</time>
      </trkpt>
      <trkpt lat="43.20514" lon="0.14645">
        <ele>393</ele>
        <time>2018-09-30T09:17:29Z</time>
      </trkpt>
      <trkpt lat="43.20514" lon="0.14645">
        <ele>394</ele>
        <time>2018-09-30T09:17:30Z</time>
      </trkpt>
      <trkpt lat="43.20511" lon="0.1465">
        <ele>394</ele>
        <time>2018-09-30T09:17:31Z</time>
      </trkpt>
      <trkpt lat="43.20511" lon="0.1465">
        <ele>394</ele>
        <time>2018-09-30T09:17:32Z</time>
      </trkpt>
      <trkpt lat="43.20511" lon="0.1465">
        <ele>394</ele>
        <time>2018-09-30T09:17:33Z</time>
      </trkpt>
      <trkpt lat="43.20511" lon="0.1465">
        <ele>394</ele>
        <time>2018-09-30T09:17:34Z</time>
      </trkpt>
      <trkpt lat="43.20511" lon="0.1465">
        <ele>394</ele>
        <time>2018-09-30T09:17:35Z</time>
      </trkpt>
      <trkpt lat="43.20511" lon="0.1465">
        <ele>394</ele>
        <time>2018-09-30T09:17:36Z</time>
      </trkpt>
      <trkpt lat="43.20511" lon="0.1465">
        <ele>394</ele>
        <time>2018-09-30T09:17:37Z</time>
      </trkpt>
      <trkpt lat="43.20511" lon="0.1465">
        <ele>394</ele>
        <time>2018-09-30T09:17:38Z</time>
      </trkpt>
      <trkpt lat="43.20511" lon="0.1465">
        <ele>394</ele>
        <time>2018-09-30T09:17:39Z</time>
      </trkpt>
      <trkpt lat="43.20511" lon="0.1465">
        <ele>394</ele>
        <time>2018-09-30T09:17:40Z</time>
      </trkpt>
      <trkpt lat="43.20511" lon="0.1465">
        <ele>394</ele>
        <time>2018-09-30T09:17:41Z</time>
      </trkpt>
      <trkpt lat="43.20511" lon="0.1465">
        <ele>394</ele>
        <time>2018-09-30T09:17:42Z</time>
      </trkpt>
      <trkpt lat="43.20511" lon="0.1465">
        <ele>394</ele>
        <time>2018-09-30T09:17:43Z</time>
      </trkpt>
      <trkpt lat="43.20511" lon="0.1465">
        <ele>394</ele>
        <time>2018-09-30T09:17:45Z</time>
      </trkpt>
      <trkpt lat="43.20511" lon="0.1465">
        <ele>394</ele>
        <time>2018-09-30T09:17:46Z</time>
      </trkpt>
      <trkpt lat="43.20511" lon="0.1465">
        <ele>394</ele>
        <time>2018-09-30T09:17:47Z</time>
      </trkpt>
      <trkpt lat="43.20511" lon="0.1465">
        <ele>394</ele>
        <time>2018-09-30T09:17:48Z</time>
      </trkpt>
      <trkpt lat="43.20511" lon="0.1465">
        <ele>394</ele>
        <time>2018-09-30T09:17:49Z</time>
      </trkpt>
      <trkpt lat="43.20511" lon="0.1465">
        <ele>394</ele>
        <time>2018-09-30T09:17:50Z</time>
      </trkpt>
      <trkpt lat="43.20511" lon="0.1465">
        <ele>394</ele>
        <time>2018-09-30T09:17:51Z</time>
      </trkpt>
      <trkpt lat="43.20511" lon="0.1465">
        <ele>394</ele>
        <time>2018-09-30T09:17:52Z</time>
      </trkpt>
      <trkpt lat="43.20511" lon="0.1465">
        <ele>394</ele>
        <time>2018-09-30T09:17:53Z</time>
      </trkpt>
      <trkpt lat="43.20511" lon="0.1465">
        <ele>394</ele>
        <time>2018-09-30T09:17:54Z</time>
      </trkpt>
      <trkpt lat="43.20511" lon="0.1465">
        <ele>394</ele>
        <time>2018-09-30T09:17:55Z</time>
      </trkpt>
      <trkpt lat="43.20511" lon="0.1465">
        <ele>394</ele>
        <time>2018-09-30T09:17:56Z</time>
      </trkpt>
      <trkpt lat="43.20511" lon="0.1465">
        <ele>394</ele>
        <time>2018-09-30T09:17:57Z</time>
      </trkpt>
      <trkpt lat="43.20511" lon="0.1465">
        <ele>394</ele>
        <time>2018-09-30T09:17:58Z</time>
      </trkpt>
      <trkpt lat="43.20511" lon="0.1465">
        <ele>394</ele>
        <time>2018-09-30T09:17:59Z</time>
      </trkpt>
      <trkpt lat="43.20511" lon="0.1465">
        <ele>395</ele>
        <time>2018-09-30T09:18:00Z</time>
      </trkpt>
      <trkpt lat="43.20511" lon="0.1465">
        <ele>395</ele>
        <time>2018-09-30T09:18:01Z</time>
      </trkpt>
      <trkpt lat="43.20511" lon="0.1465">
        <ele>395</ele>
        <time>2018-09-30T09:18:02Z</time>
      </trkpt>
      <trkpt lat="43.20511" lon="0.1465">
        <ele>395</ele>
        <time>2018-09-30T09:18:03Z</time>
      </trkpt>
      <trkpt lat="43.20511" lon="0.1465">
        <ele>395</ele>
        <time>2018-09-30T09:18:04Z</time>
      </trkpt>
      <trkpt lat="43.20511" lon="0.1465">
        <ele>395</ele>
        <time>2018-09-30T09:18:05Z</time>
      </trkpt>
      <trkpt lat="43.20511" lon="0.1465">
        <ele>395</ele>
        <time>2018-09-30T09:18:06Z</time>
      </trkpt>
      <trkpt lat="43.20511" lon="0.1465">
        <ele>395</ele>
        <time>2018-09-30T09:18:07Z</time>
      </trkpt>
      <trkpt lat="43.20511" lon="0.1465">
        <ele>395</ele>
        <time>2018-09-30T09:18:08Z</time>
      </trkpt>
      <trkpt lat="43.20511" lon="0.1465">
        <ele>395</ele>
        <time>2018-09-30T09:18:09Z</time>
      </trkpt>
      <trkpt lat="43.20511" lon="0.1465">
        <ele>395</ele>
        <time>2018-09-30T09:18:10Z</time>
      </trkpt>
      <trkpt lat="43.20511" lon="0.1465">
        <ele>395</ele>
        <time>2018-09-30T09:18:11Z</time>
      </trkpt>
      <trkpt lat="43.20511" lon="0.1465">
        <ele>395</ele>
        <time>2018-09-30T09:18:12Z</time>
      </trkpt>
      <trkpt lat="43.20511" lon="0.1465">
        <ele>395</ele>
        <time>2018-09-30T09:18:13Z</time>
      </trkpt>
      <trkpt lat="43.20511" lon="0.1465">
        <ele>395</ele>
        <time>2018-09-30T09:18:14Z</time>
      </trkpt>
      <trkpt lat="43.20511" lon="0.1465">
        <ele>395</ele>
        <time>2018-09-30T09:18:15Z</time>
      </trkpt>
      <trkpt lat="43.20511" lon="0.1465">
        <ele>395</ele>
        <time>2018-09-30T09:18:16Z</time>
      </trkpt>
      <trkpt lat="43.20511" lon="0.1465">
        <ele>395</ele>
        <time>2018-09-30T09:18:17Z</time>
      </trkpt>
      <trkpt lat="43.20511" lon="0.1465">
        <ele>395</ele>
        <time>2018-09-30T09:18:18Z</time>
      </trkpt>
      <trkpt lat="43.20511" lon="0.1465">
        <ele>395</ele>
        <time>2018-09-30T09:18:19Z</time>
      </trkpt>
      <trkpt lat="43.20511" lon="0.1465">
        <ele>395</ele>
        <time>2018-09-30T09:18:20Z</time>
      </trkpt>
      <trkpt lat="43.20507" lon="0.14653">
        <ele>395</ele>
        <time>2018-09-30T09:18:21Z</time>
      </trkpt>
      <trkpt lat="43.20507" lon="0.14653">
        <ele>395</ele>
        <time>2018-09-30T09:18:22Z</time>
      </trkpt>
      <trkpt lat="43.20507" lon="0.14653">
        <ele>395</ele>
        <time>2018-09-30T09:18:23Z</time>
      </trkpt>
      <trkpt lat="43.20507" lon="0.14653">
        <ele>395</ele>
        <time>2018-09-30T09:18:24Z</time>
      </trkpt>
      <trkpt lat="43.20507" lon="0.14653">
        <ele>395</ele>
        <time>2018-09-30T09:18:25Z</time>
      </trkpt>
      <trkpt lat="43.20507" lon="0.14653">
        <ele>395</ele>
        <time>2018-09-30T09:18:26Z</time>
      </trkpt>
      <trkpt lat="43.20507" lon="0.14653">
        <ele>395</ele>
        <time>2018-09-30T09:18:27Z</time>
      </trkpt>
      <trkpt lat="43.20507" lon="0.14653">
        <ele>395</ele>
        <time>2018-09-30T09:18:28Z</time>
      </trkpt>
      <trkpt lat="43.20507" lon="0.14653">
        <ele>395</ele>
        <time>2018-09-30T09:18:29Z</time>
      </trkpt>
      <trkpt lat="43.20507" lon="0.14653">
        <ele>395</ele>
        <time>2018-09-30T09:18:30Z</time>
      </trkpt>
      <trkpt lat="43.20507" lon="0.14653">
        <ele>395</ele>
        <time>2018-09-30T09:18:31Z</time>
      </trkpt>
      <trkpt lat="43.20507" lon="0.14653">
        <ele>395</ele>
        <time>2018-09-30T09:18:32Z</time>
      </trkpt>
      <trkpt lat="43.20507" lon="0.14653">
        <ele>395</ele>
        <time>2018-09-30T09:18:33Z</time>
      </trkpt>
      <trkpt lat="43.20507" lon="0.14653">
        <ele>395</ele>
        <time>2018-09-30T09:18:34Z</time>
      </trkpt>
      <trkpt lat="43.20507" lon="0.14653">
        <ele>395</ele>
        <time>2018-09-30T09:18:35Z</time>
      </trkpt>
      <trkpt lat="43.20507" lon="0.14653">
        <ele>395</ele>
        <time>2018-09-30T09:18:36Z</time>
      </trkpt>
      <trkpt lat="43.20507" lon="0.14653">
        <ele>395</ele>
        <time>2018-09-30T09:18:37Z</time>
      </trkpt>
      <trkpt lat="43.20507" lon="0.14653">
        <ele>396</ele>
        <time>2018-09-30T09:18:38Z</time>
      </trkpt>
      <trkpt lat="43.20507" lon="0.14653">
        <ele>396</ele>
        <time>2018-09-30T09:18:39Z</time>
      </trkpt>
      <trkpt lat="43.20507" lon="0.14653">
        <ele>396</ele>
        <time>2018-09-30T09:18:40Z</time>
      </trkpt>
      <trkpt lat="43.20507" lon="0.14653">
        <ele>396</ele>
        <time>2018-09-30T09:18:41Z</time>
      </trkpt>
      <trkpt lat="43.20507" lon="0.14653">
        <ele>396</ele>
        <time>2018-09-30T09:18:42Z</time>
      </trkpt>
      <trkpt lat="43.20507" lon="0.14653">
        <ele>396</ele>
        <time>2018-09-30T09:18:43Z</time>
      </trkpt>
      <trkpt lat="43.20507" lon="0.14653">
        <ele>396</ele>
        <time>2018-09-30T09:18:44Z</time>
      </trkpt>
      <trkpt lat="43.20507" lon="0.14653">
        <ele>396</ele>
        <time>2018-09-30T09:18:45Z</time>
      </trkpt>
      <trkpt lat="43.20507" lon="0.14653">
        <ele>396</ele>
        <time>2018-09-30T09:18:46Z</time>
      </trkpt>
      <trkpt lat="43.20507" lon="0.14653">
        <ele>396</ele>
        <time>2018-09-30T09:18:47Z</time>
      </trkpt>
      <trkpt lat="43.20507" lon="0.14653">
        <ele>396</ele>
        <time>2018-09-30T09:18:48Z</time>
      </trkpt>
      <trkpt lat="43.20507" lon="0.14653">
        <ele>396</ele>
        <time>2018-09-30T09:18:49Z</time>
      </trkpt>
      <trkpt lat="43.20507" lon="0.14653">
        <ele>396</ele>
        <time>2018-09-30T09:18:50Z</time>
      </trkpt>
      <trkpt lat="43.20507" lon="0.14653">
        <ele>396</ele>
        <time>2018-09-30T09:18:51Z</time>
      </trkpt>
      <trkpt lat="43.20507" lon="0.14653">
        <ele>396</ele>
        <time>2018-09-30T09:18:52Z</time>
      </trkpt>
      <trkpt lat="43.20507" lon="0.14653">
        <ele>396</ele>
        <time>2018-09-30T09:18:53Z</time>
      </trkpt>
      <trkpt lat="43.20507" lon="0.14653">
        <ele>396</ele>
        <time>2018-09-30T09:18:54Z</time>
      </trkpt>
      <trkpt lat="43.20507" lon="0.14653">
        <ele>396</ele>
        <time>2018-09-30T09:18:55Z</time>
      </trkpt>
      <trkpt lat="43.20507" lon="0.14653">
        <ele>396</ele>
        <time>2018-09-30T09:18:56Z</time>
      </trkpt>
      <trkpt lat="43.20507" lon="0.14653">
        <ele>396</ele>
        <time>2018-09-30T09:18:57Z</time>
      </trkpt>
      <trkpt lat="43.20507" lon="0.14653">
        <ele>396</ele>
        <time>2018-09-30T09:18:58Z</time>
      </trkpt>
      <trkpt lat="43.20507" lon="0.14653">
        <ele>396</ele>
        <time>2018-09-30T09:18:59Z</time>
      </trkpt>
      <trkpt lat="43.20507" lon="0.14653">
        <ele>396</ele>
        <time>2018-09-30T09:19:00Z</time>
      </trkpt>
      <trkpt lat="43.20507" lon="0.14653">
        <ele>396</ele>
        <time>2018-09-30T09:19:01Z</time>
      </trkpt>
      <trkpt lat="43.20507" lon="0.14653">
        <ele>396</ele>
        <time>2018-09-30T09:19:02Z</time>
      </trkpt>
      <trkpt lat="43.20507" lon="0.14653">
        <ele>396</ele>
        <time>2018-09-30T09:19:03Z</time>
      </trkpt>
      <trkpt lat="43.20507" lon="0.14653">
        <ele>396</ele>
        <time>2018-09-30T09:19:04Z</time>
      </trkpt>
      <trkpt lat="43.20507" lon="0.14653">
        <ele>396</ele>
        <time>2018-09-30T09:19:05Z</time>
      </trkpt>
      <trkpt lat="43.20507" lon="0.14653">
        <ele>396</ele>
        <time>2018-09-30T09:19:06Z</time>
      </trkpt>
      <trkpt lat="43.20507" lon="0.14653">
        <ele>396</ele>
        <time>2018-09-30T09:19:07Z</time>
      </trkpt>
      <trkpt lat="43.20507" lon="0.14653">
        <ele>396</ele>
        <time>2018-09-30T09:19:08Z</time>
      </trkpt>
      <trkpt lat="43.20503" lon="0.14652">
        <ele>396</ele>
        <time>2018-09-30T09:19:09Z</time>
      </trkpt>
      <trkpt lat="43.20503" lon="0.14652">
        <ele>396</ele>
        <time>2018-09-30T09:19:10Z</time>
      </trkpt>
      <trkpt lat="43.20503" lon="0.14652">
        <ele>396</ele>
        <time>2018-09-30T09:19:11Z</time>
      </trkpt>
      <trkpt lat="43.20503" lon="0.14652">
        <ele>396</ele>
        <time>2018-09-30T09:19:12Z</time>
      </trkpt>
      <trkpt lat="43.20503" lon="0.14652">
        <ele>396</ele>
        <time>2018-09-30T09:19:13Z</time>
      </trkpt>
      <trkpt lat="43.20503" lon="0.14652">
        <ele>396</ele>
        <time>2018-09-30T09:19:14Z</time>
      </trkpt>
      <trkpt lat="43.20503" lon="0.14652">
        <ele>396</ele>
        <time>2018-09-30T09:19:15Z</time>
      </trkpt>
      <trkpt lat="43.20503" lon="0.14652">
        <ele>396</ele>
        <time>2018-09-30T09:19:16Z</time>
      </trkpt>
      <trkpt lat="43.20503" lon="0.14652">
        <ele>396</ele>
        <time>2018-09-30T09:19:17Z</time>
      </trkpt>
      <trkpt lat="43.20497" lon="0.14655">
        <ele>396</ele>
        <time>2018-09-30T09:19:18Z</time>
      </trkpt>
      <trkpt lat="43.20497" lon="0.14655">
        <ele>397</ele>
        <time>2018-09-30T09:19:19Z</time>
      </trkpt>
      <trkpt lat="43.20495" lon="0.14656">
        <ele>398</ele>
        <time>2018-09-30T09:19:20Z</time>
      </trkpt>
      <trkpt lat="43.20495" lon="0.14656">
        <ele>398</ele>
        <time>2018-09-30T09:19:21Z</time>
      </trkpt>
      <trkpt lat="43.20495" lon="0.14656">
        <ele>398</ele>
        <time>2018-09-30T09:19:22Z</time>
      </trkpt>
      <trkpt lat="43.20495" lon="0.14656">
        <ele>398</ele>
        <time>2018-09-30T09:19:23Z</time>
      </trkpt>
      <trkpt lat="43.2049" lon="0.14662">
        <ele>398</ele>
        <time>2018-09-30T09:19:24Z</time>
      </trkpt>
      <trkpt lat="43.20488" lon="0.14663">
        <ele>398</ele>
        <time>2018-09-30T09:19:25Z</time>
      </trkpt>
      <trkpt lat="43.20487" lon="0.14663">
        <ele>398</ele>
        <time>2018-09-30T09:19:26Z</time>
      </trkpt>
      <trkpt lat="43.20487" lon="0.14663">
        <ele>398</ele>
        <time>2018-09-30T09:19:27Z</time>
      </trkpt>
      <trkpt lat="43.20487" lon="0.14663">
        <ele>398</ele>
        <time>2018-09-30T09:19:28Z</time>
      </trkpt>
      <trkpt lat="43.20487" lon="0.14663">
        <ele>399</ele>
        <time>2018-09-30T09:19:29Z</time>
      </trkpt>
      <trkpt lat="43.20487" lon="0.14663">
        <ele>399</ele>
        <time>2018-09-30T09:19:30Z</time>
      </trkpt>
      <trkpt lat="43.20481" lon="0.14664">
        <ele>399</ele>
        <time>2018-09-30T09:19:31Z</time>
      </trkpt>
      <trkpt lat="43.20481" lon="0.14664">
        <ele>399</ele>
        <time>2018-09-30T09:19:32Z</time>
      </trkpt>
      <trkpt lat="43.20478" lon="0.14665">
        <ele>399</ele>
        <time>2018-09-30T09:19:33Z</time>
      </trkpt>
      <trkpt lat="43.20478" lon="0.14665">
        <ele>399</ele>
        <time>2018-09-30T09:19:34Z</time>
      </trkpt>
      <trkpt lat="43.20476" lon="0.14667">
        <ele>399</ele>
        <time>2018-09-30T09:19:35Z</time>
      </trkpt>
      <trkpt lat="43.20476" lon="0.14667">
        <ele>399</ele>
        <time>2018-09-30T09:19:36Z</time>
      </trkpt>
      <trkpt lat="43.20476" lon="0.14667">
        <ele>399</ele>
        <time>2018-09-30T09:19:37Z</time>
      </trkpt>
      <trkpt lat="43.20476" lon="0.14667">
        <ele>399</ele>
        <time>2018-09-30T09:19:38Z</time>
      </trkpt>
      <trkpt lat="43.2047" lon="0.14671">
        <ele>399</ele>
        <time>2018-09-30T09:19:39Z</time>
      </trkpt>
      <trkpt lat="43.2047" lon="0.14671">
        <ele>399</ele>
        <time>2018-09-30T09:19:40Z</time>
      </trkpt>
      <trkpt lat="43.20468" lon="0.14673">
        <ele>399</ele>
        <time>2018-09-30T09:19:41Z</time>
      </trkpt>
      <trkpt lat="43.20467" lon="0.14674">
        <ele>399</ele>
        <time>2018-09-30T09:19:42Z</time>
      </trkpt>
      <trkpt lat="43.20465" lon="0.14676">
        <ele>398</ele>
        <time>2018-09-30T09:19:43Z</time>
      </trkpt>
      <trkpt lat="43.20464" lon="0.14678">
        <ele>398</ele>
        <time>2018-09-30T09:19:44Z</time>
      </trkpt>
      <trkpt lat="43.20462" lon="0.1468">
        <ele>398</ele>
        <time>2018-09-30T09:19:45Z</time>
      </trkpt>
      <trkpt lat="43.20461" lon="0.14682">
        <ele>398</ele>
        <time>2018-09-30T09:19:46Z</time>
      </trkpt>
      <trkpt lat="43.20459" lon="0.14685">
        <ele>398</ele>
        <time>2018-09-30T09:19:47Z</time>
      </trkpt>
      <trkpt lat="43.20457" lon="0.14687">
        <ele>398</ele>
        <time>2018-09-30T09:19:48Z</time>
      </trkpt>
      <trkpt lat="43.20455" lon="0.1469">
        <ele>398</ele>
        <time>2018-09-30T09:19:49Z</time>
      </trkpt>
      <trkpt lat="43.20453" lon="0.14692">
        <ele>398</ele>
        <time>2018-09-30T09:19:50Z</time>
      </trkpt>
      <trkpt lat="43.2045" lon="0.14694">
        <ele>398</ele>
        <time>2018-09-30T09:19:51Z</time>
      </trkpt>
      <trkpt lat="43.20448" lon="0.14695">
        <ele>398</ele>
        <time>2018-09-30T09:19:52Z</time>
      </trkpt>
      <trkpt lat="43.20446" lon="0.14696">
        <ele>398</ele>
        <time>2018-09-30T09:19:53Z</time>
      </trkpt>
      <trkpt lat="43.20443" lon="0.14698">
        <ele>398</ele>
        <time>2018-09-30T09:19:54Z</time>
      </trkpt>
      <trkpt lat="43.20441" lon="0.14699">
        <ele>398</ele>
        <time>2018-09-30T09:19:55Z</time>
      </trkpt>
      <trkpt lat="43.2044" lon="0.14701">
        <ele>398</ele>
        <time>2018-09-30T09:19:56Z</time>
      </trkpt>
      <trkpt lat="43.20438" lon="0.14703">
        <ele>398</ele>
        <time>2018-09-30T09:19:57Z</time>
      </trkpt>
      <trkpt lat="43.20436" lon="0.14705">
        <ele>398</ele>
        <time>2018-09-30T09:19:58Z</time>
      </trkpt>
      <trkpt lat="43.20434" lon="0.14705">
        <ele>398</ele>
        <time>2018-09-30T09:19:59Z</time>
      </trkpt>
      <trkpt lat="43.20432" lon="0.14707">
        <ele>398</ele>
        <time>2018-09-30T09:20:00Z</time>
      </trkpt>
      <trkpt lat="43.2043" lon="0.14708">
        <ele>398</ele>
        <time>2018-09-30T09:20:01Z</time>
      </trkpt>
      <trkpt lat="43.20428" lon="0.14709">
        <ele>399</ele>
        <time>2018-09-30T09:20:02Z</time>
      </trkpt>
      <trkpt lat="43.20426" lon="0.14711">
        <ele>399</ele>
        <time>2018-09-30T09:20:03Z</time>
      </trkpt>
      <trkpt lat="43.20424" lon="0.14713">
        <ele>399</ele>
        <time>2018-09-30T09:20:04Z</time>
      </trkpt>
      <trkpt lat="43.20422" lon="0.14715">
        <ele>399</ele>
        <time>2018-09-30T09:20:05Z</time>
      </trkpt>
      <trkpt lat="43.20421" lon="0.14716">
        <ele>399</ele>
        <time>2018-09-30T09:20:06Z</time>
      </trkpt>
      <trkpt lat="43.20419" lon="0.14719">
        <ele>399</ele>
        <time>2018-09-30T09:20:07Z</time>
      </trkpt>
      <trkpt lat="43.20417" lon="0.1472">
        <ele>399</ele>
        <time>2018-09-30T09:20:08Z</time>
      </trkpt>
      <trkpt lat="43.20415" lon="0.14722">
        <ele>399</ele>
        <time>2018-09-30T09:20:09Z</time>
      </trkpt>
      <trkpt lat="43.20413" lon="0.14725">
        <ele>399</ele>
        <time>2018-09-30T09:20:10Z</time>
      </trkpt>
      <trkpt lat="43.20412" lon="0.14726">
        <ele>399</ele>
        <time>2018-09-30T09:20:11Z</time>
      </trkpt>
      <trkpt lat="43.2041" lon="0.14728">
        <ele>399</ele>
        <time>2018-09-30T09:20:12Z</time>
      </trkpt>
      <trkpt lat="43.20408" lon="0.14729">
        <ele>400</ele>
        <time>2018-09-30T09:20:13Z</time>
      </trkpt>
      <trkpt lat="43.20407" lon="0.14731">
        <ele>400</ele>
        <time>2018-09-30T09:20:14Z</time>
      </trkpt>
      <trkpt lat="43.20406" lon="0.14733">
        <ele>400</ele>
        <time>2018-09-30T09:20:15Z</time>
      </trkpt>
      <trkpt lat="43.20404" lon="0.14735">
        <ele>400</ele>
        <time>2018-09-30T09:20:16Z</time>
      </trkpt>
      <trkpt lat="43.20402" lon="0.14736">
        <ele>400</ele>
        <time>2018-09-30T09:20:17Z</time>
      </trkpt>
      <trkpt lat="43.204" lon="0.14738">
        <ele>400</ele>
        <time>2018-09-30T09:20:18Z</time>
      </trkpt>
      <trkpt lat="43.20399" lon="0.1474">
        <ele>400</ele>
        <time>2018-09-30T09:20:19Z</time>
      </trkpt>
      <trkpt lat="43.20398" lon="0.14741">
        <ele>400</ele>
        <time>2018-09-30T09:20:20Z</time>
      </trkpt>
      <trkpt lat="43.20397" lon="0.14743">
        <ele>400</ele>
        <time>2018-09-30T09:20:21Z</time>
      </trkpt>
      <trkpt lat="43.20395" lon="0.14745">
        <ele>400</ele>
        <time>2018-09-30T09:20:22Z</time>
      </trkpt>
      <trkpt lat="43.20394" lon="0.14747">
        <ele>401</ele>
        <time>2018-09-30T09:20:23Z</time>
      </trkpt>
      <trkpt lat="43.20393" lon="0.14749">
        <ele>401</ele>
        <time>2018-09-30T09:20:24Z</time>
      </trkpt>
      <trkpt lat="43.20392" lon="0.14751">
        <ele>401</ele>
        <time>2018-09-30T09:20:25Z</time>
      </trkpt>
      <trkpt lat="43.2039" lon="0.14753">
        <ele>401</ele>
        <time>2018-09-30T09:20:26Z</time>
      </trkpt>
      <trkpt lat="43.20389" lon="0.14755">
        <ele>401</ele>
        <time>2018-09-30T09:20:27Z</time>
      </trkpt>
      <trkpt lat="43.20388" lon="0.14758">
        <ele>401</ele>
        <time>2018-09-30T09:20:28Z</time>
      </trkpt>
      <trkpt lat="43.20387" lon="0.1476">
        <ele>401</ele>
        <time>2018-09-30T09:20:29Z</time>
      </trkpt>
      <trkpt lat="43.20386" lon="0.14763">
        <ele>401</ele>
        <time>2018-09-30T09:20:30Z</time>
      </trkpt>
      <trkpt lat="43.20385" lon="0.14766">
        <ele>401</ele>
        <time>2018-09-30T09:20:31Z</time>
      </trkpt>
      <trkpt lat="43.20384" lon="0.14768">
        <ele>401</ele>
        <time>2018-09-30T09:20:32Z</time>
      </trkpt>
      <trkpt lat="43.20383" lon="0.1477">
        <ele>402</ele>
        <time>2018-09-30T09:20:33Z</time>
      </trkpt>
      <trkpt lat="43.20383" lon="0.14773">
        <ele>402</ele>
        <time>2018-09-30T09:20:34Z</time>
      </trkpt>
      <trkpt lat="43.20382" lon="0.14775">
        <ele>402</ele>
        <time>2018-09-30T09:20:35Z</time>
      </trkpt>
      <trkpt lat="43.20381" lon="0.14777">
        <ele>402</ele>
        <time>2018-09-30T09:20:36Z</time>
      </trkpt>
      <trkpt lat="43.2038" lon="0.14779">
        <ele>402</ele>
        <time>2018-09-30T09:20:37Z</time>
      </trkpt>
      <trkpt lat="43.20379" lon="0.14781">
        <ele>402</ele>
        <time>2018-09-30T09:20:38Z</time>
      </trkpt>
      <trkpt lat="43.20378" lon="0.14782">
        <ele>402</ele>
        <time>2018-09-30T09:20:39Z</time>
      </trkpt>
      <trkpt lat="43.20377" lon="0.14784">
        <ele>402</ele>
        <time>2018-09-30T09:20:40Z</time>
      </trkpt>
      <trkpt lat="43.20376" lon="0.14786">
        <ele>403</ele>
        <time>2018-09-30T09:20:41Z</time>
      </trkpt>
      <trkpt lat="43.20375" lon="0.14788">
        <ele>403</ele>
        <time>2018-09-30T09:20:42Z</time>
      </trkpt>
      <trkpt lat="43.20374" lon="0.1479">
        <ele>403</ele>
        <time>2018-09-30T09:20:43Z</time>
      </trkpt>
      <trkpt lat="43.20373" lon="0.14791">
        <ele>403</ele>
        <time>2018-09-30T09:20:44Z</time>
      </trkpt>
      <trkpt lat="43.20372" lon="0.14793">
        <ele>403</ele>
        <time>2018-09-30T09:20:45Z</time>
      </trkpt>
      <trkpt lat="43.20371" lon="0.14795">
        <ele>403</ele>
        <time>2018-09-30T09:20:46Z</time>
      </trkpt>
      <trkpt lat="43.20371" lon="0.14797">
        <ele>403</ele>
        <time>2018-09-30T09:20:47Z</time>
      </trkpt>
      <trkpt lat="43.2037" lon="0.14799">
        <ele>404</ele>
        <time>2018-09-30T09:20:48Z</time>
      </trkpt>
      <trkpt lat="43.20369" lon="0.14801">
        <ele>404</ele>
        <time>2018-09-30T09:20:49Z</time>
      </trkpt>
      <trkpt lat="43.20369" lon="0.14804">
        <ele>404</ele>
        <time>2018-09-30T09:20:50Z</time>
      </trkpt>
      <trkpt lat="43.20369" lon="0.14806">
        <ele>404</ele>
        <time>2018-09-30T09:20:51Z</time>
      </trkpt>
      <trkpt lat="43.20368" lon="0.14809">
        <ele>404</ele>
        <time>2018-09-30T09:20:52Z</time>
      </trkpt>
      <trkpt lat="43.20367" lon="0.14811">
        <ele>404</ele>
        <time>2018-09-30T09:20:53Z</time>
      </trkpt>
      <trkpt lat="43.20366" lon="0.14813">
        <ele>404</ele>
        <time>2018-09-30T09:20:54Z</time>
      </trkpt>
      <trkpt lat="43.20365" lon="0.14815">
        <ele>405</ele>
        <time>2018-09-30T09:20:55Z</time>
      </trkpt>
      <trkpt lat="43.20363" lon="0.14818">
        <ele>405</ele>
        <time>2018-09-30T09:20:56Z</time>
      </trkpt>
      <trkpt lat="43.20361" lon="0.14821">
        <ele>405</ele>
        <time>2018-09-30T09:20:57Z</time>
      </trkpt>
      <trkpt lat="43.2036" lon="0.14824">
        <ele>405</ele>
        <time>2018-09-30T09:20:58Z</time>
      </trkpt>
      <trkpt lat="43.20358" lon="0.14825">
        <ele>406</ele>
        <time>2018-09-30T09:20:59Z</time>
      </trkpt>
      <trkpt lat="43.20357" lon="0.14827">
        <ele>406</ele>
        <time>2018-09-30T09:21:00Z</time>
      </trkpt>
      <trkpt lat="43.20356" lon="0.14828">
        <ele>406</ele>
        <time>2018-09-30T09:21:01Z</time>
      </trkpt>
      <trkpt lat="43.20356" lon="0.14828">
        <ele>406</ele>
        <time>2018-09-30T09:21:02Z</time>
      </trkpt>
      <trkpt lat="43.20356" lon="0.14829">
        <ele>406</ele>
        <time>2018-09-30T09:21:03Z</time>
      </trkpt>
      <trkpt lat="43.20356" lon="0.14829">
        <ele>406</ele>
        <time>2018-09-30T09:21:04Z</time>
      </trkpt>
      <trkpt lat="43.20356" lon="0.14829">
        <ele>406</ele>
        <time>2018-09-30T09:21:05Z</time>
      </trkpt>
      <trkpt lat="43.20356" lon="0.14829">
        <ele>406</ele>
        <time>2018-09-30T09:21:06Z</time>
      </trkpt>
      <trkpt lat="43.20356" lon="0.14829">
        <ele>406</ele>
        <time>2018-09-30T09:21:07Z</time>
      </trkpt>
      <trkpt lat="43.20356" lon="0.14829">
        <ele>406</ele>
        <time>2018-09-30T09:21:08Z</time>
      </trkpt>
      <trkpt lat="43.20356" lon="0.1483">
        <ele>406</ele>
        <time>2018-09-30T09:21:09Z</time>
      </trkpt>
      <trkpt lat="43.20356" lon="0.1483">
        <ele>406</ele>
        <time>2018-09-30T09:21:10Z</time>
      </trkpt>
      <trkpt lat="43.20356" lon="0.1483">
        <ele>406</ele>
        <time>2018-09-30T09:21:11Z</time>
      </trkpt>
      <trkpt lat="43.20356" lon="0.1483">
        <ele>406</ele>
        <time>2018-09-30T09:21:12Z</time>
      </trkpt>
      <trkpt lat="43.20356" lon="0.14831">
        <ele>406</ele>
        <time>2018-09-30T09:21:13Z</time>
      </trkpt>
      <trkpt lat="43.20355" lon="0.14832">
        <ele>407</ele>
        <time>2018-09-30T09:21:14Z</time>
      </trkpt>
      <trkpt lat="43.20355" lon="0.14833">
        <ele>407</ele>
        <time>2018-09-30T09:21:15Z</time>
      </trkpt>
      <trkpt lat="43.20354" lon="0.14835">
        <ele>407</ele>
        <time>2018-09-30T09:21:16Z</time>
      </trkpt>
      <trkpt lat="43.20353" lon="0.14837">
        <ele>407</ele>
        <time>2018-09-30T09:21:17Z</time>
      </trkpt>
      <trkpt lat="43.20351" lon="0.14839">
        <ele>408</ele>
        <time>2018-09-30T09:21:18Z</time>
      </trkpt>
      <trkpt lat="43.2035" lon="0.1484">
        <ele>408</ele>
        <time>2018-09-30T09:21:19Z</time>
      </trkpt>
      <trkpt lat="43.20348" lon="0.14842">
        <ele>408</ele>
        <time>2018-09-30T09:21:20Z</time>
      </trkpt>
      <trkpt lat="43.20346" lon="0.14844">
        <ele>408</ele>
        <time>2018-09-30T09:21:21Z</time>
      </trkpt>
      <trkpt lat="43.20344" lon="0.14846">
        <ele>408</ele>
        <time>2018-09-30T09:21:22Z</time>
      </trkpt>
      <trkpt lat="43.20342" lon="0.14848">
        <ele>409</ele>
        <time>2018-09-30T09:21:23Z</time>
      </trkpt>
      <trkpt lat="43.20341" lon="0.1485">
        <ele>409</ele>
        <time>2018-09-30T09:21:24Z</time>
      </trkpt>
      <trkpt lat="43.20339" lon="0.14851">
        <ele>409</ele>
        <time>2018-09-30T09:21:25Z</time>
      </trkpt>
      <trkpt lat="43.20337" lon="0.14853">
        <ele>410</ele>
        <time>2018-09-30T09:21:26Z</time>
      </trkpt>
      <trkpt lat="43.20336" lon="0.14855">
        <ele>410</ele>
        <time>2018-09-30T09:21:27Z</time>
      </trkpt>
      <trkpt lat="43.20335" lon="0.14857">
        <ele>410</ele>
        <time>2018-09-30T09:21:28Z</time>
      </trkpt>
      <trkpt lat="43.20333" lon="0.14858">
        <ele>410</ele>
        <time>2018-09-30T09:21:29Z</time>
      </trkpt>
      <trkpt lat="43.20332" lon="0.1486">
        <ele>411</ele>
        <time>2018-09-30T09:21:30Z</time>
      </trkpt>
      <trkpt lat="43.2033" lon="0.14862">
        <ele>411</ele>
        <time>2018-09-30T09:21:31Z</time>
      </trkpt>
      <trkpt lat="43.20329" lon="0.14863">
        <ele>411</ele>
        <time>2018-09-30T09:21:32Z</time>
      </trkpt>
      <trkpt lat="43.20327" lon="0.14864">
        <ele>411</ele>
        <time>2018-09-30T09:21:33Z</time>
      </trkpt>
      <trkpt lat="43.20326" lon="0.14866">
        <ele>412</ele>
        <time>2018-09-30T09:21:34Z</time>
      </trkpt>
      <trkpt lat="43.20324" lon="0.14868">
        <ele>412</ele>
        <time>2018-09-30T09:21:35Z</time>
      </trkpt>
      <trkpt lat="43.20323" lon="0.14869">
        <ele>412</ele>
        <time>2018-09-30T09:21:36Z</time>
      </trkpt>
      <trkpt lat="43.20322" lon="0.1487">
        <ele>412</ele>
        <time>2018-09-30T09:21:37Z</time>
      </trkpt>
      <trkpt lat="43.2032" lon="0.14871">
        <ele>413</ele>
        <time>2018-09-30T09:21:38Z</time>
      </trkpt>
      <trkpt lat="43.20319" lon="0.14873">
        <ele>413</ele>
        <time>2018-09-30T09:21:39Z</time>
      </trkpt>
      <trkpt lat="43.20317" lon="0.14874">
        <ele>413</ele>
        <time>2018-09-30T09:21:40Z</time>
      </trkpt>
      <trkpt lat="43.20316" lon="0.14876">
        <ele>414</ele>
        <time>2018-09-30T09:21:41Z</time>
      </trkpt>
      <trkpt lat="43.20314" lon="0.14878">
        <ele>414</ele>
        <time>2018-09-30T09:21:42Z</time>
      </trkpt>
      <trkpt lat="43.20313" lon="0.1488">
        <ele>414</ele>
        <time>2018-09-30T09:21:43Z</time>
      </trkpt>
      <trkpt lat="43.20311" lon="0.14882">
        <ele>414</ele>
        <time>2018-09-30T09:21:44Z</time>
      </trkpt>
      <trkpt lat="43.20309" lon="0.14883">
        <ele>415</ele>
        <time>2018-09-30T09:21:45Z</time>
      </trkpt>
      <trkpt lat="43.20308" lon="0.14885">
        <ele>415</ele>
        <time>2018-09-30T09:21:46Z</time>
      </trkpt>
      <trkpt lat="43.20306" lon="0.14887">
        <ele>415</ele>
        <time>2018-09-30T09:21:47Z</time>
      </trkpt>
      <trkpt lat="43.20304" lon="0.14889">
        <ele>415</ele>
        <time>2018-09-30T09:21:48Z</time>
      </trkpt>
      <trkpt lat="43.20302" lon="0.14891">
        <ele>416</ele>
        <time>2018-09-30T09:21:49Z</time>
      </trkpt>
      <trkpt lat="43.20301" lon="0.14893">
        <ele>416</ele>
        <time>2018-09-30T09:21:50Z</time>
      </trkpt>
      <trkpt lat="43.20299" lon="0.14896">
        <ele>416</ele>
        <time>2018-09-30T09:21:51Z</time>
      </trkpt>
      <trkpt lat="43.20298" lon="0.14898">
        <ele>417</ele>
        <time>2018-09-30T09:21:52Z</time>
      </trkpt>
      <trkpt lat="43.20296" lon="0.14899">
        <ele>417</ele>
        <time>2018-09-30T09:21:53Z</time>
      </trkpt>
      <trkpt lat="43.20295" lon="0.14901">
        <ele>417</ele>
        <time>2018-09-30T09:21:54Z</time>
      </trkpt>
      <trkpt lat="43.20294" lon="0.14904">
        <ele>418</ele>
        <time>2018-09-30T09:21:55Z</time>
      </trkpt>
      <trkpt lat="43.20292" lon="0.14907">
        <ele>418</ele>
        <time>2018-09-30T09:21:56Z</time>
      </trkpt>
      <trkpt lat="43.20291" lon="0.1491">
        <ele>418</ele>
        <time>2018-09-30T09:21:57Z</time>
      </trkpt>
      <trkpt lat="43.20289" lon="0.14913">
        <ele>418</ele>
        <time>2018-09-30T09:21:58Z</time>
      </trkpt>
      <trkpt lat="43.20288" lon="0.14917">
        <ele>418</ele>
        <time>2018-09-30T09:21:59Z</time>
      </trkpt>
      <trkpt lat="43.20288" lon="0.14921">
        <ele>419</ele>
        <time>2018-09-30T09:22:00Z</time>
      </trkpt>
      <trkpt lat="43.20289" lon="0.14925">
        <ele>419</ele>
        <time>2018-09-30T09:22:01Z</time>
      </trkpt>
      <trkpt lat="43.2029" lon="0.14927">
        <ele>419</ele>
        <time>2018-09-30T09:22:02Z</time>
      </trkpt>
      <trkpt lat="43.20293" lon="0.14927">
        <ele>419</ele>
        <time>2018-09-30T09:22:03Z</time>
      </trkpt>
      <trkpt lat="43.20296" lon="0.14928">
        <ele>419</ele>
        <time>2018-09-30T09:22:04Z</time>
      </trkpt>
      <trkpt lat="43.20299" lon="0.14929">
        <ele>420</ele>
        <time>2018-09-30T09:22:05Z</time>
      </trkpt>
      <trkpt lat="43.20302" lon="0.1493">
        <ele>420</ele>
        <time>2018-09-30T09:22:06Z</time>
      </trkpt>
      <trkpt lat="43.20306" lon="0.14931">
        <ele>420</ele>
        <time>2018-09-30T09:22:07Z</time>
      </trkpt>
      <trkpt lat="43.2031" lon="0.14931">
        <ele>421</ele>
        <time>2018-09-30T09:22:08Z</time>
      </trkpt>
      <trkpt lat="43.20314" lon="0.14932">
        <ele>422</ele>
        <time>2018-09-30T09:22:09Z</time>
      </trkpt>
      <trkpt lat="43.20318" lon="0.14933">
        <ele>422</ele>
        <time>2018-09-30T09:22:10Z</time>
      </trkpt>
      <trkpt lat="43.20322" lon="0.14933">
        <ele>424</ele>
        <time>2018-09-30T09:22:11Z</time>
      </trkpt>
      <trkpt lat="43.20327" lon="0.14934">
        <ele>424</ele>
        <time>2018-09-30T09:22:12Z</time>
      </trkpt>
      <trkpt lat="43.20331" lon="0.14934">
        <ele>425</ele>
        <time>2018-09-30T09:22:13Z</time>
      </trkpt>
      <trkpt lat="43.20336" lon="0.14935">
        <ele>425</ele>
        <time>2018-09-30T09:22:14Z</time>
      </trkpt>
      <trkpt lat="43.2034" lon="0.14936">
        <ele>426</ele>
        <time>2018-09-30T09:22:15Z</time>
      </trkpt>
      <trkpt lat="43.20345" lon="0.14937">
        <ele>426</ele>
        <time>2018-09-30T09:22:16Z</time>
      </trkpt>
      <trkpt lat="43.20349" lon="0.14938">
        <ele>426</ele>
        <time>2018-09-30T09:22:17Z</time>
      </trkpt>
      <trkpt lat="43.20353" lon="0.14938">
        <ele>426</ele>
        <time>2018-09-30T09:22:18Z</time>
      </trkpt>
      <trkpt lat="43.20357" lon="0.14939">
        <ele>426</ele>
        <time>2018-09-30T09:22:19Z</time>
      </trkpt>
      <trkpt lat="43.20362" lon="0.14939">
        <ele>426</ele>
        <time>2018-09-30T09:22:20Z</time>
      </trkpt>
      <trkpt lat="43.20366" lon="0.14939">
        <ele>426</ele>
        <time>2018-09-30T09:22:21Z</time>
      </trkpt>
      <trkpt lat="43.2037" lon="0.14939">
        <ele>426</ele>
        <time>2018-09-30T09:22:22Z</time>
      </trkpt>
      <trkpt lat="43.20374" lon="0.1494">
        <ele>426</ele>
        <time>2018-09-30T09:22:23Z</time>
      </trkpt>
      <trkpt lat="43.20378" lon="0.1494">
        <ele>426</ele>
        <time>2018-09-30T09:22:24Z</time>
      </trkpt>
      <trkpt lat="43.20382" lon="0.14939">
        <ele>426</ele>
        <time>2018-09-30T09:22:25Z</time>
      </trkpt>
      <trkpt lat="43.20385" lon="0.14939">
        <ele>426</ele>
        <time>2018-09-30T09:22:26Z</time>
      </trkpt>
      <trkpt lat="43.20389" lon="0.14939">
        <ele>426</ele>
        <time>2018-09-30T09:22:27Z</time>
      </trkpt>
      <trkpt lat="43.20393" lon="0.14939">
        <ele>426</ele>
        <time>2018-09-30T09:22:28Z</time>
      </trkpt>
      <trkpt lat="43.20396" lon="0.14939">
        <ele>426</ele>
        <time>2018-09-30T09:22:29Z</time>
      </trkpt>
      <trkpt lat="43.204" lon="0.14939">
        <ele>426</ele>
        <time>2018-09-30T09:22:30Z</time>
      </trkpt>
      <trkpt lat="43.20404" lon="0.1494">
        <ele>426</ele>
        <time>2018-09-30T09:22:31Z</time>
      </trkpt>
      <trkpt lat="43.20408" lon="0.14939">
        <ele>426</ele>
        <time>2018-09-30T09:22:32Z</time>
      </trkpt>
      <trkpt lat="43.20412" lon="0.14939">
        <ele>426</ele>
        <time>2018-09-30T09:22:33Z</time>
      </trkpt>
      <trkpt lat="43.20416" lon="0.14939">
        <ele>426</ele>
        <time>2018-09-30T09:22:34Z</time>
      </trkpt>
      <trkpt lat="43.20419" lon="0.14939">
        <ele>427</ele>
        <time>2018-09-30T09:22:35Z</time>
      </trkpt>
      <trkpt lat="43.20422" lon="0.14939">
        <ele>427</ele>
        <time>2018-09-30T09:22:36Z</time>
      </trkpt>
      <trkpt lat="43.20426" lon="0.14938">
        <ele>427</ele>
        <time>2018-09-30T09:22:37Z</time>
      </trkpt>
      <trkpt lat="43.20429" lon="0.14938">
        <ele>427</ele>
        <time>2018-09-30T09:22:38Z</time>
      </trkpt>
      <trkpt lat="43.20433" lon="0.14938">
        <ele>427</ele>
        <time>2018-09-30T09:22:39Z</time>
      </trkpt>
      <trkpt lat="43.20435" lon="0.14938">
        <ele>426</ele>
        <time>2018-09-30T09:22:40Z</time>
      </trkpt>
      <trkpt lat="43.20439" lon="0.14938">
        <ele>426</ele>
        <time>2018-09-30T09:22:41Z</time>
      </trkpt>
      <trkpt lat="43.20442" lon="0.14938">
        <ele>426</ele>
        <time>2018-09-30T09:22:42Z</time>
      </trkpt>
      <trkpt lat="43.20444" lon="0.14938">
        <ele>426</ele>
        <time>2018-09-30T09:22:43Z</time>
      </trkpt>
      <trkpt lat="43.20447" lon="0.14938">
        <ele>426</ele>
        <time>2018-09-30T09:22:44Z</time>
      </trkpt>
      <trkpt lat="43.2045" lon="0.14938">
        <ele>426</ele>
        <time>2018-09-30T09:22:45Z</time>
      </trkpt>
      <trkpt lat="43.20453" lon="0.14938">
        <ele>426</ele>
        <time>2018-09-30T09:22:46Z</time>
      </trkpt>
      <trkpt lat="43.20455" lon="0.14938">
        <ele>426</ele>
        <time>2018-09-30T09:22:47Z</time>
      </trkpt>
      <trkpt lat="43.20458" lon="0.14938">
        <ele>426</ele>
        <time>2018-09-30T09:22:48Z</time>
      </trkpt>
      <trkpt lat="43.20461" lon="0.14938">
        <ele>426</ele>
        <time>2018-09-30T09:22:49Z</time>
      </trkpt>
      <trkpt lat="43.20464" lon="0.14937">
        <ele>426</ele>
        <time>2018-09-30T09:22:50Z</time>
      </trkpt>
      <trkpt lat="43.20468" lon="0.14936">
        <ele>426</ele>
        <time>2018-09-30T09:22:51Z</time>
      </trkpt>
      <trkpt lat="43.20471" lon="0.14936">
        <ele>426</ele>
        <time>2018-09-30T09:22:52Z</time>
      </trkpt>
      <trkpt lat="43.20474" lon="0.14936">
        <ele>426</ele>
        <time>2018-09-30T09:22:53Z</time>
      </trkpt>
      <trkpt lat="43.20477" lon="0.14936">
        <ele>426</ele>
        <time>2018-09-30T09:22:54Z</time>
      </trkpt>
      <trkpt lat="43.2048" lon="0.14935">
        <ele>426</ele>
        <time>2018-09-30T09:22:55Z</time>
      </trkpt>
      <trkpt lat="43.20483" lon="0.14934">
        <ele>426</ele>
        <time>2018-09-30T09:22:56Z</time>
      </trkpt>
      <trkpt lat="43.20486" lon="0.14934">
        <ele>426</ele>
        <time>2018-09-30T09:22:57Z</time>
      </trkpt>
      <trkpt lat="43.2049" lon="0.14935">
        <ele>426</ele>
        <time>2018-09-30T09:22:58Z</time>
      </trkpt>
      <trkpt lat="43.20494" lon="0.14935">
        <ele>426</ele>
        <time>2018-09-30T09:22:59Z</time>
      </trkpt>
      <trkpt lat="43.20498" lon="0.14935">
        <ele>426</ele>
        <time>2018-09-30T09:23:00Z</time>
      </trkpt>
      <trkpt lat="43.20501" lon="0.14935">
        <ele>426</ele>
        <time>2018-09-30T09:23:01Z</time>
      </trkpt>
      <trkpt lat="43.20505" lon="0.14935">
        <ele>426</ele>
        <time>2018-09-30T09:23:02Z</time>
      </trkpt>
      <trkpt lat="43.20509" lon="0.14935">
        <ele>426</ele>
        <time>2018-09-30T09:23:03Z</time>
      </trkpt>
      <trkpt lat="43.20512" lon="0.14935">
        <ele>426</ele>
        <time>2018-09-30T09:23:04Z</time>
      </trkpt>
      <trkpt lat="43.20516" lon="0.14934">
        <ele>426</ele>
        <time>2018-09-30T09:23:05Z</time>
      </trkpt>
      <trkpt lat="43.2052" lon="0.14934">
        <ele>426</ele>
        <time>2018-09-30T09:23:06Z</time>
      </trkpt>
      <trkpt lat="43.20524" lon="0.14934">
        <ele>426</ele>
        <time>2018-09-30T09:23:07Z</time>
      </trkpt>
      <trkpt lat="43.20529" lon="0.14934">
        <ele>425</ele>
        <time>2018-09-30T09:23:08Z</time>
      </trkpt>
      <trkpt lat="43.20534" lon="0.14933">
        <ele>425</ele>
        <time>2018-09-30T09:23:09Z</time>
      </trkpt>
      <trkpt lat="43.20539" lon="0.14933">
        <ele>425</ele>
        <time>2018-09-30T09:23:10Z</time>
      </trkpt>
      <trkpt lat="43.20544" lon="0.14933">
        <ele>424</ele>
        <time>2018-09-30T09:23:11Z</time>
      </trkpt>
      <trkpt lat="43.20549" lon="0.14933">
        <ele>424</ele>
        <time>2018-09-30T09:23:12Z</time>
      </trkpt>
      <trkpt lat="43.20555" lon="0.14933">
        <ele>424</ele>
        <time>2018-09-30T09:23:13Z</time>
      </trkpt>
      <trkpt lat="43.2056" lon="0.14934">
        <ele>424</ele>
        <time>2018-09-30T09:23:14Z</time>
      </trkpt>
      <trkpt lat="43.20565" lon="0.14935">
        <ele>424</ele>
        <time>2018-09-30T09:23:15Z</time>
      </trkpt>
      <trkpt lat="43.2057" lon="0.14937">
        <ele>424</ele>
        <time>2018-09-30T09:23:16Z</time>
      </trkpt>
      <trkpt lat="43.20575" lon="0.14941">
        <ele>424</ele>
        <time>2018-09-30T09:23:17Z</time>
      </trkpt>
      <trkpt lat="43.20578" lon="0.14945">
        <ele>424</ele>
        <time>2018-09-30T09:23:18Z</time>
      </trkpt>
      <trkpt lat="43.20581" lon="0.14949">
        <ele>424</ele>
        <time>2018-09-30T09:23:19Z</time>
      </trkpt>
      <trkpt lat="43.20584" lon="0.14953">
        <ele>424</ele>
        <time>2018-09-30T09:23:20Z</time>
      </trkpt>
      <trkpt lat="43.20586" lon="0.14958">
        <ele>424</ele>
        <time>2018-09-30T09:23:21Z</time>
      </trkpt>
      <trkpt lat="43.20588" lon="0.14963">
        <ele>424</ele>
        <time>2018-09-30T09:23:22Z</time>
      </trkpt>
      <trkpt lat="43.20589" lon="0.1497">
        <ele>424</ele>
        <time>2018-09-30T09:23:23Z</time>
      </trkpt>
      <trkpt lat="43.2059" lon="0.14975">
        <ele>424</ele>
        <time>2018-09-30T09:23:24Z</time>
      </trkpt>
      <trkpt lat="43.20591" lon="0.14982">
        <ele>424</ele>
        <time>2018-09-30T09:23:25Z</time>
      </trkpt>
      <trkpt lat="43.20592" lon="0.14989">
        <ele>424</ele>
        <time>2018-09-30T09:23:26Z</time>
      </trkpt>
      <trkpt lat="43.20594" lon="0.14995">
        <ele>424</ele>
        <time>2018-09-30T09:23:27Z</time>
      </trkpt>
      <trkpt lat="43.20595" lon="0.15">
        <ele>424</ele>
        <time>2018-09-30T09:23:28Z</time>
      </trkpt>
      <trkpt lat="43.20595" lon="0.15006">
        <ele>424</ele>
        <time>2018-09-30T09:23:29Z</time>
      </trkpt>
      <trkpt lat="43.20595" lon="0.1501">
        <ele>424</ele>
        <time>2018-09-30T09:23:30Z</time>
      </trkpt>
      <trkpt lat="43.20595" lon="0.15016">
        <ele>425</ele>
        <time>2018-09-30T09:23:31Z</time>
      </trkpt>
      <trkpt lat="43.20595" lon="0.15022">
        <ele>425</ele>
        <time>2018-09-30T09:23:32Z</time>
      </trkpt>
      <trkpt lat="43.20594" lon="0.15026">
        <ele>425</ele>
        <time>2018-09-30T09:23:33Z</time>
      </trkpt>
      <trkpt lat="43.20594" lon="0.15031">
        <ele>425</ele>
        <time>2018-09-30T09:23:34Z</time>
      </trkpt>
      <trkpt lat="43.20594" lon="0.15035">
        <ele>425</ele>
        <time>2018-09-30T09:23:35Z</time>
      </trkpt>
      <trkpt lat="43.20595" lon="0.1504">
        <ele>425</ele>
        <time>2018-09-30T09:23:36Z</time>
      </trkpt>
      <trkpt lat="43.20597" lon="0.15048">
        <ele>425</ele>
        <time>2018-09-30T09:23:37Z</time>
      </trkpt>
      <trkpt lat="43.20597" lon="0.15053">
        <ele>426</ele>
        <time>2018-09-30T09:23:38Z</time>
      </trkpt>
      <trkpt lat="43.20598" lon="0.15059">
        <ele>427</ele>
        <time>2018-09-30T09:23:39Z</time>
      </trkpt>
      <trkpt lat="43.20599" lon="0.15064">
        <ele>427</ele>
        <time>2018-09-30T09:23:40Z</time>
      </trkpt>
      <trkpt lat="43.20602" lon="0.1507">
        <ele>427</ele>
        <time>2018-09-30T09:23:41Z</time>
      </trkpt>
      <trkpt lat="43.20603" lon="0.15079">
        <ele>427</ele>
        <time>2018-09-30T09:23:42Z</time>
      </trkpt>
      <trkpt lat="43.20604" lon="0.15087">
        <ele>427</ele>
        <time>2018-09-30T09:23:43Z</time>
      </trkpt>
      <trkpt lat="43.20605" lon="0.15095">
        <ele>426</ele>
        <time>2018-09-30T09:23:44Z</time>
      </trkpt>
      <trkpt lat="43.20607" lon="0.15106">
        <ele>426</ele>
        <time>2018-09-30T09:23:45Z</time>
      </trkpt>
      <trkpt lat="43.2061" lon="0.15117">
        <ele>425</ele>
        <time>2018-09-30T09:23:46Z</time>
      </trkpt>
      <trkpt lat="43.20612" lon="0.15126">
        <ele>425</ele>
        <time>2018-09-30T09:23:47Z</time>
      </trkpt>
      <trkpt lat="43.20612" lon="0.15137">
        <ele>424</ele>
        <time>2018-09-30T09:23:48Z</time>
      </trkpt>
      <trkpt lat="43.20611" lon="0.15148">
        <ele>424</ele>
        <time>2018-09-30T09:23:49Z</time>
      </trkpt>
      <trkpt lat="43.20609" lon="0.15159">
        <ele>423</ele>
        <time>2018-09-30T09:23:50Z</time>
      </trkpt>
      <trkpt lat="43.20607" lon="0.15168">
        <ele>423</ele>
        <time>2018-09-30T09:23:51Z</time>
      </trkpt>
      <trkpt lat="43.20605" lon="0.15177">
        <ele>422</ele>
        <time>2018-09-30T09:23:52Z</time>
      </trkpt>
      <trkpt lat="43.20603" lon="0.15185">
        <ele>422</ele>
        <time>2018-09-30T09:23:53Z</time>
      </trkpt>
      <trkpt lat="43.20602" lon="0.15193">
        <ele>422</ele>
        <time>2018-09-30T09:23:54Z</time>
      </trkpt>
      <trkpt lat="43.20601" lon="0.15199">
        <ele>421</ele>
        <time>2018-09-30T09:23:55Z</time>
      </trkpt>
      <trkpt lat="43.20601" lon="0.15203">
        <ele>421</ele>
        <time>2018-09-30T09:23:56Z</time>
      </trkpt>
      <trkpt lat="43.20602" lon="0.15205">
        <ele>421</ele>
        <time>2018-09-30T09:23:57Z</time>
      </trkpt>
      <trkpt lat="43.20602" lon="0.15207">
        <ele>421</ele>
        <time>2018-09-30T09:23:58Z</time>
      </trkpt>
      <trkpt lat="43.20604" lon="0.15207">
        <ele>421</ele>
        <time>2018-09-30T09:23:59Z</time>
      </trkpt>
      <trkpt lat="43.20604" lon="0.15205">
        <ele>421</ele>
        <time>2018-09-30T09:24:00Z</time>
      </trkpt>
      <trkpt lat="43.20605" lon="0.15202">
        <ele>421</ele>
        <time>2018-09-30T09:24:01Z</time>
      </trkpt>
      <trkpt lat="43.20605" lon="0.15199">
        <ele>421</ele>
        <time>2018-09-30T09:24:02Z</time>
      </trkpt>
      <trkpt lat="43.20606" lon="0.15195">
        <ele>421</ele>
        <time>2018-09-30T09:24:03Z</time>
      </trkpt>
      <trkpt lat="43.20608" lon="0.15191">
        <ele>421</ele>
        <time>2018-09-30T09:24:04Z</time>
      </trkpt>
      <trkpt lat="43.20609" lon="0.15187">
        <ele>421</ele>
        <time>2018-09-30T09:24:05Z</time>
      </trkpt>
      <trkpt lat="43.20611" lon="0.15182">
        <ele>420</ele>
        <time>2018-09-30T09:24:06Z</time>
      </trkpt>
      <trkpt lat="43.20612" lon="0.15177">
        <ele>420</ele>
        <time>2018-09-30T09:24:07Z</time>
      </trkpt>
      <trkpt lat="43.20614" lon="0.15172">
        <ele>419</ele>
        <time>2018-09-30T09:24:08Z</time>
      </trkpt>
      <trkpt lat="43.20615" lon="0.15167">
        <ele>419</ele>
        <time>2018-09-30T09:24:09Z</time>
      </trkpt>
      <trkpt lat="43.20617" lon="0.15161">
        <ele>418</ele>
        <time>2018-09-30T09:24:10Z</time>
      </trkpt>
      <trkpt lat="43.20618" lon="0.15156">
        <ele>418</ele>
        <time>2018-09-30T09:24:11Z</time>
      </trkpt>
      <trkpt lat="43.20619" lon="0.1515">
        <ele>417</ele>
        <time>2018-09-30T09:24:12Z</time>
      </trkpt>
      <trkpt lat="43.20621" lon="0.15144">
        <ele>417</ele>
        <time>2018-09-30T09:24:13Z</time>
      </trkpt>
      <trkpt lat="43.20623" lon="0.15139">
        <ele>416</ele>
        <time>2018-09-30T09:24:14Z</time>
      </trkpt>
      <trkpt lat="43.20625" lon="0.15134">
        <ele>416</ele>
        <time>2018-09-30T09:24:15Z</time>
      </trkpt>
      <trkpt lat="43.20627" lon="0.15128">
        <ele>416</ele>
        <time>2018-09-30T09:24:16Z</time>
      </trkpt>
      <trkpt lat="43.20629" lon="0.15123">
        <ele>416</ele>
        <time>2018-09-30T09:24:17Z</time>
      </trkpt>
      <trkpt lat="43.2063" lon="0.15119">
        <ele>416</ele>
        <time>2018-09-30T09:24:18Z</time>
      </trkpt>
      <trkpt lat="43.2063" lon="0.15114">
        <ele>416</ele>
        <time>2018-09-30T09:24:19Z</time>
      </trkpt>
      <trkpt lat="43.2063" lon="0.15109">
        <ele>416</ele>
        <time>2018-09-30T09:24:20Z</time>
      </trkpt>
      <trkpt lat="43.20633" lon="0.15103">
        <ele>416</ele>
        <time>2018-09-30T09:24:21Z</time>
      </trkpt>
      <trkpt lat="43.20632" lon="0.15098">
        <ele>416</ele>
        <time>2018-09-30T09:24:22Z</time>
      </trkpt>
      <trkpt lat="43.20632" lon="0.15094">
        <ele>415</ele>
        <time>2018-09-30T09:24:23Z</time>
      </trkpt>
      <trkpt lat="43.20632" lon="0.15089">
        <ele>415</ele>
        <time>2018-09-30T09:24:24Z</time>
      </trkpt>
      <trkpt lat="43.20633" lon="0.15086">
        <ele>415</ele>
        <time>2018-09-30T09:24:25Z</time>
      </trkpt>
      <trkpt lat="43.20633" lon="0.15082">
        <ele>415</ele>
        <time>2018-09-30T09:24:26Z</time>
      </trkpt>
      <trkpt lat="43.20634" lon="0.15078">
        <ele>415</ele>
        <time>2018-09-30T09:24:27Z</time>
      </trkpt>
      <trkpt lat="43.20634" lon="0.15073">
        <ele>415</ele>
        <time>2018-09-30T09:24:28Z</time>
      </trkpt>
      <trkpt lat="43.20634" lon="0.15068">
        <ele>415</ele>
        <time>2018-09-30T09:24:29Z</time>
      </trkpt>
      <trkpt lat="43.20637" lon="0.15064">
        <ele>415</ele>
        <time>2018-09-30T09:24:30Z</time>
      </trkpt>
      <trkpt lat="43.20638" lon="0.15061">
        <ele>415</ele>
        <time>2018-09-30T09:24:31Z</time>
      </trkpt>
      <trkpt lat="43.2064" lon="0.15058">
        <ele>415</ele>
        <time>2018-09-30T09:24:32Z</time>
      </trkpt>
      <trkpt lat="43.20641" lon="0.15053">
        <ele>415</ele>
        <time>2018-09-30T09:24:33Z</time>
      </trkpt>
      <trkpt lat="43.20643" lon="0.15047">
        <ele>415</ele>
        <time>2018-09-30T09:24:34Z</time>
      </trkpt>
      <trkpt lat="43.20646" lon="0.1504">
        <ele>415</ele>
        <time>2018-09-30T09:24:35Z</time>
      </trkpt>
      <trkpt lat="43.20649" lon="0.15034">
        <ele>414</ele>
        <time>2018-09-30T09:24:36Z</time>
      </trkpt>
      <trkpt lat="43.20652" lon="0.15026">
        <ele>413</ele>
        <time>2018-09-30T09:24:37Z</time>
      </trkpt>
      <trkpt lat="43.20653" lon="0.15019">
        <ele>413</ele>
        <time>2018-09-30T09:24:38Z</time>
      </trkpt>
      <trkpt lat="43.20655" lon="0.15012">
        <ele>412</ele>
        <time>2018-09-30T09:24:39Z</time>
      </trkpt>
      <trkpt lat="43.20657" lon="0.15006">
        <ele>412</ele>
        <time>2018-09-30T09:24:40Z</time>
      </trkpt>
      <trkpt lat="43.20659" lon="0.14999">
        <ele>411</ele>
        <time>2018-09-30T09:24:41Z</time>
      </trkpt>
      <trkpt lat="43.20661" lon="0.14993">
        <ele>411</ele>
        <time>2018-09-30T09:24:42Z</time>
      </trkpt>
      <trkpt lat="43.20663" lon="0.14987">
        <ele>411</ele>
        <time>2018-09-30T09:24:43Z</time>
      </trkpt>
      <trkpt lat="43.20665" lon="0.14982">
        <ele>411</ele>
        <time>2018-09-30T09:24:44Z</time>
      </trkpt>
      <trkpt lat="43.20666" lon="0.14976">
        <ele>411</ele>
        <time>2018-09-30T09:24:45Z</time>
      </trkpt>
      <trkpt lat="43.20668" lon="0.14971">
        <ele>411</ele>
        <time>2018-09-30T09:24:46Z</time>
      </trkpt>
      <trkpt lat="43.2067" lon="0.14966">
        <ele>410</ele>
        <time>2018-09-30T09:24:47Z</time>
      </trkpt>
      <trkpt lat="43.20672" lon="0.14961">
        <ele>410</ele>
        <time>2018-09-30T09:24:48Z</time>
      </trkpt>
      <trkpt lat="43.20672" lon="0.14957">
        <ele>410</ele>
        <time>2018-09-30T09:24:49Z</time>
      </trkpt>
      <trkpt lat="43.20673" lon="0.14952">
        <ele>410</ele>
        <time>2018-09-30T09:24:50Z</time>
      </trkpt>
      <trkpt lat="43.20674" lon="0.14947">
        <ele>410</ele>
        <time>2018-09-30T09:24:51Z</time>
      </trkpt>
      <trkpt lat="43.20675" lon="0.14942">
        <ele>410</ele>
        <time>2018-09-30T09:24:52Z</time>
      </trkpt>
      <trkpt lat="43.20677" lon="0.14936">
        <ele>410</ele>
        <time>2018-09-30T09:24:53Z</time>
      </trkpt>
      <trkpt lat="43.20679" lon="0.14931">
        <ele>410</ele>
        <time>2018-09-30T09:24:54Z</time>
      </trkpt>
      <trkpt lat="43.2068" lon="0.14926">
        <ele>410</ele>
        <time>2018-09-30T09:24:55Z</time>
      </trkpt>
      <trkpt lat="43.20681" lon="0.14921">
        <ele>410</ele>
        <time>2018-09-30T09:24:56Z</time>
      </trkpt>
      <trkpt lat="43.20682" lon="0.14917">
        <ele>410</ele>
        <time>2018-09-30T09:24:57Z</time>
      </trkpt>
      <trkpt lat="43.20681" lon="0.14914">
        <ele>410</ele>
        <time>2018-09-30T09:24:58Z</time>
      </trkpt>
      <trkpt lat="43.20681" lon="0.14911">
        <ele>410</ele>
        <time>2018-09-30T09:24:59Z</time>
      </trkpt>
      <trkpt lat="43.20681" lon="0.14908">
        <ele>410</ele>
        <time>2018-09-30T09:25:00Z</time>
      </trkpt>
      <trkpt lat="43.20681" lon="0.14905">
        <ele>410</ele>
        <time>2018-09-30T09:25:01Z</time>
      </trkpt>
      <trkpt lat="43.20681" lon="0.14903">
        <ele>410</ele>
        <time>2018-09-30T09:25:02Z</time>
      </trkpt>
      <trkpt lat="43.20682" lon="0.149">
        <ele>410</ele>
        <time>2018-09-30T09:25:03Z</time>
      </trkpt>
      <trkpt lat="43.20682" lon="0.149">
        <ele>410</ele>
        <time>2018-09-30T09:25:04Z</time>
      </trkpt>
      <trkpt lat="43.20682" lon="0.149">
        <ele>410</ele>
        <time>2018-09-30T09:25:05Z</time>
      </trkpt>
      <trkpt lat="43.20682" lon="0.149">
        <ele>410</ele>
        <time>2018-09-30T09:25:06Z</time>
      </trkpt>
      <trkpt lat="43.20682" lon="0.149">
        <ele>410</ele>
        <time>2018-09-30T09:25:07Z</time>
      </trkpt>
      <trkpt lat="43.20682" lon="0.149">
        <ele>410</ele>
        <time>2018-09-30T09:25:08Z</time>
      </trkpt>
      <trkpt lat="43.20682" lon="0.149">
        <ele>410</ele>
        <time>2018-09-30T09:25:09Z</time>
      </trkpt>
      <trkpt lat="43.20682" lon="0.149">
        <ele>410</ele>
        <time>2018-09-30T09:25:10Z</time>
      </trkpt>
      <trkpt lat="43.20682" lon="0.149">
        <ele>410</ele>
        <time>2018-09-30T09:25:11Z</time>
      </trkpt>
      <trkpt lat="43.20682" lon="0.149">
        <ele>410</ele>
        <time>2018-09-30T09:25:12Z</time>
      </trkpt>
      <trkpt lat="43.20682" lon="0.149">
        <ele>410</ele>
        <time>2018-09-30T09:25:13Z</time>
      </trkpt>
      <trkpt lat="43.20682" lon="0.149">
        <ele>410</ele>
        <time>2018-09-30T09:25:14Z</time>
      </trkpt>
      <trkpt lat="43.20682" lon="0.149">
        <ele>410</ele>
        <time>2018-09-30T09:25:15Z</time>
      </trkpt>
      <trkpt lat="43.20682" lon="0.149">
        <ele>410</ele>
        <time>2018-09-30T09:25:16Z</time>
      </trkpt>
      <trkpt lat="43.20682" lon="0.149">
        <ele>410</ele>
        <time>2018-09-30T09:25:17Z</time>
      </trkpt>
      <trkpt lat="43.20682" lon="0.149">
        <ele>410</ele>
        <time>2018-09-30T09:25:18Z</time>
      </trkpt>
      <trkpt lat="43.20682" lon="0.149">
        <ele>410</ele>
        <time>2018-09-30T09:25:19Z</time>
      </trkpt>
      <trkpt lat="43.20682" lon="0.149">
        <ele>410</ele>
        <time>2018-09-30T09:25:20Z</time>
      </trkpt>
      <trkpt lat="43.20682" lon="0.149">
        <ele>410</ele>
        <time>2018-09-30T09:25:21Z</time>
      </trkpt>
      <trkpt lat="43.20682" lon="0.149">
        <ele>410</ele>
        <time>2018-09-30T09:25:22Z</time>
      </trkpt>
      <trkpt lat="43.20682" lon="0.149">
        <ele>410</ele>
        <time>2018-09-30T09:25:23Z</time>
      </trkpt>
      <trkpt lat="43.20682" lon="0.149">
        <ele>410</ele>
        <time>2018-09-30T09:25:24Z</time>
      </trkpt>
      <trkpt lat="43.20682" lon="0.149">
        <ele>410</ele>
        <time>2018-09-30T09:25:25Z</time>
      </trkpt>
      <trkpt lat="43.20682" lon="0.149">
        <ele>410</ele>
        <time>2018-09-30T09:25:26Z</time>
      </trkpt>
      <trkpt lat="43.20682" lon="0.149">
        <ele>410</ele>
        <time>2018-09-30T09:25:27Z</time>
      </trkpt>
      <trkpt lat="43.20682" lon="0.149">
        <ele>410</ele>
        <time>2018-09-30T09:25:28Z</time>
      </trkpt>
      <trkpt lat="43.20682" lon="0.149">
        <ele>410</ele>
        <time>2018-09-30T09:25:29Z</time>
      </trkpt>
      <trkpt lat="43.20685" lon="0.14895">
        <ele>410</ele>
        <time>2018-09-30T09:25:30Z</time>
      </trkpt>
      <trkpt lat="43.20685" lon="0.14895">
        <ele>410</ele>
        <time>2018-09-30T09:25:31Z</time>
      </trkpt>
      <trkpt lat="43.20685" lon="0.14895">
        <ele>410</ele>
        <time>2018-09-30T09:25:32Z</time>
      </trkpt>
      <trkpt lat="43.20685" lon="0.14895">
        <ele>410</ele>
        <time>2018-09-30T09:25:33Z</time>
      </trkpt>
      <trkpt lat="43.20685" lon="0.14895">
        <ele>410</ele>
        <time>2018-09-30T09:25:34Z</time>
      </trkpt>
      <trkpt lat="43.20685" lon="0.14895">
        <ele>410</ele>
        <time>2018-09-30T09:25:35Z</time>
      </trkpt>
      <trkpt lat="43.20685" lon="0.14895">
        <ele>410</ele>
        <time>2018-09-30T09:25:36Z</time>
      </trkpt>
      <trkpt lat="43.20685" lon="0.14895">
        <ele>410</ele>
        <time>2018-09-30T09:25:37Z</time>
      </trkpt>
      <trkpt lat="43.20685" lon="0.14895">
        <ele>410</ele>
        <time>2018-09-30T09:25:38Z</time>
      </trkpt>
      <trkpt lat="43.20685" lon="0.14895">
        <ele>410</ele>
        <time>2018-09-30T09:25:39Z</time>
      </trkpt>
      <trkpt lat="43.20685" lon="0.14895">
        <ele>410</ele>
        <time>2018-09-30T09:25:40Z</time>
      </trkpt>
      <trkpt lat="43.20685" lon="0.14895">
        <ele>410</ele>
        <time>2018-09-30T09:25:41Z</time>
      </trkpt>
      <trkpt lat="43.20685" lon="0.14895">
        <ele>410</ele>
        <time>2018-09-30T09:25:42Z</time>
      </trkpt>
      <trkpt lat="43.20685" lon="0.14895">
        <ele>410</ele>
        <time>2018-09-30T09:25:43Z</time>
      </trkpt>
      <trkpt lat="43.20685" lon="0.14895">
        <ele>410</ele>
        <time>2018-09-30T09:25:44Z</time>
      </trkpt>
      <trkpt lat="43.20685" lon="0.14895">
        <ele>410</ele>
        <time>2018-09-30T09:25:45Z</time>
      </trkpt>
      <trkpt lat="43.20685" lon="0.14895">
        <ele>410</ele>
        <time>2018-09-30T09:25:46Z</time>
      </trkpt>
      <trkpt lat="43.20685" lon="0.14895">
        <ele>410</ele>
        <time>2018-09-30T09:25:47Z</time>
      </trkpt>
      <trkpt lat="43.20685" lon="0.14895">
        <ele>410</ele>
        <time>2018-09-30T09:25:48Z</time>
      </trkpt>
      <trkpt lat="43.20685" lon="0.14895">
        <ele>410</ele>
        <time>2018-09-30T09:25:49Z</time>
      </trkpt>
      <trkpt lat="43.20685" lon="0.14895">
        <ele>410</ele>
        <time>2018-09-30T09:25:50Z</time>
      </trkpt>
      <trkpt lat="43.20685" lon="0.14895">
        <ele>410</ele>
        <time>2018-09-30T09:25:51Z</time>
      </trkpt>
      <trkpt lat="43.20685" lon="0.14895">
        <ele>410</ele>
        <time>2018-09-30T09:25:52Z</time>
      </trkpt>
      <trkpt lat="43.20685" lon="0.14895">
        <ele>410</ele>
        <time>2018-09-30T09:25:53Z</time>
      </trkpt>
      <trkpt lat="43.20685" lon="0.14895">
        <ele>410</ele>
        <time>2018-09-30T09:25:54Z</time>
      </trkpt>
      <trkpt lat="43.20685" lon="0.14895">
        <ele>410</ele>
        <time>2018-09-30T09:25:55Z</time>
      </trkpt>
      <trkpt lat="43.20685" lon="0.14895">
        <ele>410</ele>
        <time>2018-09-30T09:25:56Z</time>
      </trkpt>
      <trkpt lat="43.20685" lon="0.14895">
        <ele>410</ele>
        <time>2018-09-30T09:25:57Z</time>
      </trkpt>
      <trkpt lat="43.20685" lon="0.14895">
        <ele>410</ele>
        <time>2018-09-30T09:25:58Z</time>
      </trkpt>
      <trkpt lat="43.20685" lon="0.14895">
        <ele>410</ele>
        <time>2018-09-30T09:25:59Z</time>
      </trkpt>
      <trkpt lat="43.20685" lon="0.14895">
        <ele>410</ele>
        <time>2018-09-30T09:26:00Z</time>
      </trkpt>
      <trkpt lat="43.20685" lon="0.14895">
        <ele>410</ele>
        <time>2018-09-30T09:26:01Z</time>
      </trkpt>
      <trkpt lat="43.20685" lon="0.14895">
        <ele>410</ele>
        <time>2018-09-30T09:26:02Z</time>
      </trkpt>
      <trkpt lat="43.20685" lon="0.14895">
        <ele>410</ele>
        <time>2018-09-30T09:26:03Z</time>
      </trkpt>
      <trkpt lat="43.20685" lon="0.14895">
        <ele>410</ele>
        <time>2018-09-30T09:26:04Z</time>
      </trkpt>
      <trkpt lat="43.20685" lon="0.14895">
        <ele>410</ele>
        <time>2018-09-30T09:26:05Z</time>
      </trkpt>
      <trkpt lat="43.20685" lon="0.14895">
        <ele>410</ele>
        <time>2018-09-30T09:26:06Z</time>
      </trkpt>
      <trkpt lat="43.20685" lon="0.14895">
        <ele>410</ele>
        <time>2018-09-30T09:26:07Z</time>
      </trkpt>
      <trkpt lat="43.20685" lon="0.14895">
        <ele>410</ele>
        <time>2018-09-30T09:26:08Z</time>
      </trkpt>
      <trkpt lat="43.20685" lon="0.14895">
        <ele>410</ele>
        <time>2018-09-30T09:26:09Z</time>
      </trkpt>
      <trkpt lat="43.20685" lon="0.14895">
        <ele>410</ele>
        <time>2018-09-30T09:26:10Z</time>
      </trkpt>
      <trkpt lat="43.20685" lon="0.14895">
        <ele>410</ele>
        <time>2018-09-30T09:26:11Z</time>
      </trkpt>
      <trkpt lat="43.20685" lon="0.14895">
        <ele>410</ele>
        <time>2018-09-30T09:26:12Z</time>
      </trkpt>
      <trkpt lat="43.20685" lon="0.14895">
        <ele>410</ele>
        <time>2018-09-30T09:26:13Z</time>
      </trkpt>
      <trkpt lat="43.20685" lon="0.14895">
        <ele>410</ele>
        <time>2018-09-30T09:26:14Z</time>
      </trkpt>
      <trkpt lat="43.20685" lon="0.14895">
        <ele>410</ele>
        <time>2018-09-30T09:26:15Z</time>
      </trkpt>
      <trkpt lat="43.20685" lon="0.14895">
        <ele>410</ele>
        <time>2018-09-30T09:26:16Z</time>
      </trkpt>
      <trkpt lat="43.20685" lon="0.14895">
        <ele>410</ele>
        <time>2018-09-30T09:26:17Z</time>
      </trkpt>
      <trkpt lat="43.20685" lon="0.14895">
        <ele>410</ele>
        <time>2018-09-30T09:26:18Z</time>
      </trkpt>
      <trkpt lat="43.20685" lon="0.14895">
        <ele>410</ele>
        <time>2018-09-30T09:26:19Z</time>
      </trkpt>
      <trkpt lat="43.20685" lon="0.14895">
        <ele>410</ele>
        <time>2018-09-30T09:26:20Z</time>
      </trkpt>
      <trkpt lat="43.20685" lon="0.14895">
        <ele>410</ele>
        <time>2018-09-30T09:26:21Z</time>
      </trkpt>
      <trkpt lat="43.20685" lon="0.14895">
        <ele>410</ele>
        <time>2018-09-30T09:26:22Z</time>
      </trkpt>
      <trkpt lat="43.20685" lon="0.14895">
        <ele>410</ele>
        <time>2018-09-30T09:26:23Z</time>
      </trkpt>
      <trkpt lat="43.20685" lon="0.14895">
        <ele>410</ele>
        <time>2018-09-30T09:26:24Z</time>
      </trkpt>
      <trkpt lat="43.20685" lon="0.14895">
        <ele>410</ele>
        <time>2018-09-30T09:26:25Z</time>
      </trkpt>
      <trkpt lat="43.20685" lon="0.14895">
        <ele>410</ele>
        <time>2018-09-30T09:26:26Z</time>
      </trkpt>
      <trkpt lat="43.20685" lon="0.14895">
        <ele>410</ele>
        <time>2018-09-30T09:26:27Z</time>
      </trkpt>
      <trkpt lat="43.20685" lon="0.14895">
        <ele>410</ele>
        <time>2018-09-30T09:26:28Z</time>
      </trkpt>
      <trkpt lat="43.20685" lon="0.14895">
        <ele>410</ele>
        <time>2018-09-30T09:26:29Z</time>
      </trkpt>
      <trkpt lat="43.20685" lon="0.14895">
        <ele>410</ele>
        <time>2018-09-30T09:26:30Z</time>
      </trkpt>
      <trkpt lat="43.20685" lon="0.14895">
        <ele>410</ele>
        <time>2018-09-30T09:26:31Z</time>
      </trkpt>
      <trkpt lat="43.20685" lon="0.14895">
        <ele>410</ele>
        <time>2018-09-30T09:26:32Z</time>
      </trkpt>
      <trkpt lat="43.20685" lon="0.14895">
        <ele>410</ele>
        <time>2018-09-30T09:26:33Z</time>
      </trkpt>
      <trkpt lat="43.20685" lon="0.14895">
        <ele>410</ele>
        <time>2018-09-30T09:26:34Z</time>
      </trkpt>
      <trkpt lat="43.20685" lon="0.14895">
        <ele>410</ele>
        <time>2018-09-30T09:26:35Z</time>
      </trkpt>
      <trkpt lat="43.20685" lon="0.14895">
        <ele>410</ele>
        <time>2018-09-30T09:26:36Z</time>
      </trkpt>
      <trkpt lat="43.20685" lon="0.14895">
        <ele>410</ele>
        <time>2018-09-30T09:26:37Z</time>
      </trkpt>
      <trkpt lat="43.20685" lon="0.14895">
        <ele>410</ele>
        <time>2018-09-30T09:26:38Z</time>
      </trkpt>
      <trkpt lat="43.20685" lon="0.14895">
        <ele>410</ele>
        <time>2018-09-30T09:26:39Z</time>
      </trkpt>
      <trkpt lat="43.20685" lon="0.14895">
        <ele>410</ele>
        <time>2018-09-30T09:26:40Z</time>
      </trkpt>
      <trkpt lat="43.20685" lon="0.14895">
        <ele>410</ele>
        <time>2018-09-30T09:26:41Z</time>
      </trkpt>
      <trkpt lat="43.20685" lon="0.14895">
        <ele>410</ele>
        <time>2018-09-30T09:26:42Z</time>
      </trkpt>
      <trkpt lat="43.20685" lon="0.14895">
        <ele>410</ele>
        <time>2018-09-30T09:26:43Z</time>
      </trkpt>
      <trkpt lat="43.20685" lon="0.14895">
        <ele>410</ele>
        <time>2018-09-30T09:26:44Z</time>
      </trkpt>
      <trkpt lat="43.20685" lon="0.14895">
        <ele>410</ele>
        <time>2018-09-30T09:26:45Z</time>
      </trkpt>
      <trkpt lat="43.20685" lon="0.14895">
        <ele>410</ele>
        <time>2018-09-30T09:26:46Z</time>
      </trkpt>
      <trkpt lat="43.20685" lon="0.14895">
        <ele>410</ele>
        <time>2018-09-30T09:26:47Z</time>
      </trkpt>
      <trkpt lat="43.20685" lon="0.14895">
        <ele>410</ele>
        <time>2018-09-30T09:26:48Z</time>
      </trkpt>
      <trkpt lat="43.20685" lon="0.14895">
        <ele>410</ele>
        <time>2018-09-30T09:26:49Z</time>
      </trkpt>
      <trkpt lat="43.20685" lon="0.14895">
        <ele>410</ele>
        <time>2018-09-30T09:26:50Z</time>
      </trkpt>
      <trkpt lat="43.20685" lon="0.14895">
        <ele>410</ele>
        <time>2018-09-30T09:26:51Z</time>
      </trkpt>
      <trkpt lat="43.20685" lon="0.14895">
        <ele>410</ele>
        <time>2018-09-30T09:26:52Z</time>
      </trkpt>
      <trkpt lat="43.20685" lon="0.14895">
        <ele>410</ele>
        <time>2018-09-30T09:26:53Z</time>
      </trkpt>
      <trkpt lat="43.20685" lon="0.14895">
        <ele>410</ele>
        <time>2018-09-30T09:26:54Z</time>
      </trkpt>
      <trkpt lat="43.20689" lon="0.14892">
        <ele>410</ele>
        <time>2018-09-30T09:26:55Z</time>
      </trkpt>
      <trkpt lat="43.20689" lon="0.14892">
        <ele>410</ele>
        <time>2018-09-30T09:26:56Z</time>
      </trkpt>
      <trkpt lat="43.20689" lon="0.14892">
        <ele>410</ele>
        <time>2018-09-30T09:26:57Z</time>
      </trkpt>
      <trkpt lat="43.20689" lon="0.14892">
        <ele>410</ele>
        <time>2018-09-30T09:26:58Z</time>
      </trkpt>
      <trkpt lat="43.20689" lon="0.14892">
        <ele>410</ele>
        <time>2018-09-30T09:26:59Z</time>
      </trkpt>
      <trkpt lat="43.20689" lon="0.14892">
        <ele>410</ele>
        <time>2018-09-30T09:27:00Z</time>
      </trkpt>
      <trkpt lat="43.20689" lon="0.14892">
        <ele>410</ele>
        <time>2018-09-30T09:27:01Z</time>
      </trkpt>
      <trkpt lat="43.20689" lon="0.14892">
        <ele>410</ele>
        <time>2018-09-30T09:27:02Z</time>
      </trkpt>
      <trkpt lat="43.20689" lon="0.14892">
        <ele>410</ele>
        <time>2018-09-30T09:27:03Z</time>
      </trkpt>
      <trkpt lat="43.20689" lon="0.14892">
        <ele>410</ele>
        <time>2018-09-30T09:27:04Z</time>
      </trkpt>
      <trkpt lat="43.20689" lon="0.14892">
        <ele>410</ele>
        <time>2018-09-30T09:27:05Z</time>
      </trkpt>
      <trkpt lat="43.20689" lon="0.14892">
        <ele>410</ele>
        <time>2018-09-30T09:27:06Z</time>
      </trkpt>
      <trkpt lat="43.20689" lon="0.14892">
        <ele>410</ele>
        <time>2018-09-30T09:27:07Z</time>
      </trkpt>
      <trkpt lat="43.20689" lon="0.14892">
        <ele>410</ele>
        <time>2018-09-30T09:27:08Z</time>
      </trkpt>
      <trkpt lat="43.20689" lon="0.14892">
        <ele>410</ele>
        <time>2018-09-30T09:27:09Z</time>
      </trkpt>
      <trkpt lat="43.20689" lon="0.14892">
        <ele>410</ele>
        <time>2018-09-30T09:27:10Z</time>
      </trkpt>
      <trkpt lat="43.20689" lon="0.14892">
        <ele>410</ele>
        <time>2018-09-30T09:27:11Z</time>
      </trkpt>
      <trkpt lat="43.20689" lon="0.14892">
        <ele>410</ele>
        <time>2018-09-30T09:27:12Z</time>
      </trkpt>
      <trkpt lat="43.20689" lon="0.14892">
        <ele>410</ele>
        <time>2018-09-30T09:27:13Z</time>
      </trkpt>
      <trkpt lat="43.20689" lon="0.14892">
        <ele>410</ele>
        <time>2018-09-30T09:27:14Z</time>
      </trkpt>
      <trkpt lat="43.20689" lon="0.14892">
        <ele>410</ele>
        <time>2018-09-30T09:27:15Z</time>
      </trkpt>
      <trkpt lat="43.20689" lon="0.14892">
        <ele>410</ele>
        <time>2018-09-30T09:27:16Z</time>
      </trkpt>
      <trkpt lat="43.20689" lon="0.14892">
        <ele>410</ele>
        <time>2018-09-30T09:27:17Z</time>
      </trkpt>
      <trkpt lat="43.20689" lon="0.14892">
        <ele>410</ele>
        <time>2018-09-30T09:27:18Z</time>
      </trkpt>
      <trkpt lat="43.20689" lon="0.14892">
        <ele>410</ele>
        <time>2018-09-30T09:27:19Z</time>
      </trkpt>
      <trkpt lat="43.20689" lon="0.14892">
        <ele>410</ele>
        <time>2018-09-30T09:27:20Z</time>
      </trkpt>
      <trkpt lat="43.20689" lon="0.14892">
        <ele>410</ele>
        <time>2018-09-30T09:27:21Z</time>
      </trkpt>
      <trkpt lat="43.20689" lon="0.14892">
        <ele>410</ele>
        <time>2018-09-30T09:27:22Z</time>
      </trkpt>
      <trkpt lat="43.20689" lon="0.14892">
        <ele>410</ele>
        <time>2018-09-30T09:27:23Z</time>
      </trkpt>
      <trkpt lat="43.20689" lon="0.14892">
        <ele>410</ele>
        <time>2018-09-30T09:27:24Z</time>
      </trkpt>
      <trkpt lat="43.20689" lon="0.14892">
        <ele>410</ele>
        <time>2018-09-30T09:27:25Z</time>
      </trkpt>
      <trkpt lat="43.20689" lon="0.14892">
        <ele>410</ele>
        <time>2018-09-30T09:27:26Z</time>
      </trkpt>
      <trkpt lat="43.20689" lon="0.14892">
        <ele>410</ele>
        <time>2018-09-30T09:27:27Z</time>
      </trkpt>
      <trkpt lat="43.20689" lon="0.14892">
        <ele>410</ele>
        <time>2018-09-30T09:27:28Z</time>
      </trkpt>
      <trkpt lat="43.20689" lon="0.14892">
        <ele>410</ele>
        <time>2018-09-30T09:27:29Z</time>
      </trkpt>
      <trkpt lat="43.20689" lon="0.14892">
        <ele>410</ele>
        <time>2018-09-30T09:27:30Z</time>
      </trkpt>
      <trkpt lat="43.20689" lon="0.14892">
        <ele>410</ele>
        <time>2018-09-30T09:27:31Z</time>
      </trkpt>
      <trkpt lat="43.20689" lon="0.14892">
        <ele>410</ele>
        <time>2018-09-30T09:27:32Z</time>
      </trkpt>
      <trkpt lat="43.20689" lon="0.14892">
        <ele>410</ele>
        <time>2018-09-30T09:27:33Z</time>
      </trkpt>
      <trkpt lat="43.20689" lon="0.14892">
        <ele>410</ele>
        <time>2018-09-30T09:27:34Z</time>
      </trkpt>
      <trkpt lat="43.20689" lon="0.14892">
        <ele>410</ele>
        <time>2018-09-30T09:27:35Z</time>
      </trkpt>
      <trkpt lat="43.20689" lon="0.14892">
        <ele>410</ele>
        <time>2018-09-30T09:27:36Z</time>
      </trkpt>
      <trkpt lat="43.20689" lon="0.14892">
        <ele>410</ele>
        <time>2018-09-30T09:27:37Z</time>
      </trkpt>
      <trkpt lat="43.20689" lon="0.14892">
        <ele>410</ele>
        <time>2018-09-30T09:27:38Z</time>
      </trkpt>
      <trkpt lat="43.20689" lon="0.14892">
        <ele>410</ele>
        <time>2018-09-30T09:27:39Z</time>
      </trkpt>
      <trkpt lat="43.20689" lon="0.14892">
        <ele>410</ele>
        <time>2018-09-30T09:27:40Z</time>
      </trkpt>
      <trkpt lat="43.20689" lon="0.14892">
        <ele>410</ele>
        <time>2018-09-30T09:27:41Z</time>
      </trkpt>
      <trkpt lat="43.20689" lon="0.14892">
        <ele>410</ele>
        <time>2018-09-30T09:27:42Z</time>
      </trkpt>
      <trkpt lat="43.20689" lon="0.14892">
        <ele>410</ele>
        <time>2018-09-30T09:27:43Z</time>
      </trkpt>
      <trkpt lat="43.20689" lon="0.14892">
        <ele>410</ele>
        <time>2018-09-30T09:27:44Z</time>
      </trkpt>
      <trkpt lat="43.20689" lon="0.14892">
        <ele>410</ele>
        <time>2018-09-30T09:27:45Z</time>
      </trkpt>
      <trkpt lat="43.20689" lon="0.14892">
        <ele>410</ele>
        <time>2018-09-30T09:27:46Z</time>
      </trkpt>
      <trkpt lat="43.20689" lon="0.14892">
        <ele>410</ele>
        <time>2018-09-30T09:27:47Z</time>
      </trkpt>
      <trkpt lat="43.20689" lon="0.14892">
        <ele>410</ele>
        <time>2018-09-30T09:27:48Z</time>
      </trkpt>
      <trkpt lat="43.20689" lon="0.14892">
        <ele>410</ele>
        <time>2018-09-30T09:27:49Z</time>
      </trkpt>
      <trkpt lat="43.20689" lon="0.14892">
        <ele>410</ele>
        <time>2018-09-30T09:27:50Z</time>
      </trkpt>
      <trkpt lat="43.20689" lon="0.14892">
        <ele>410</ele>
        <time>2018-09-30T09:27:51Z</time>
      </trkpt>
      <trkpt lat="43.20689" lon="0.14892">
        <ele>410</ele>
        <time>2018-09-30T09:27:52Z</time>
      </trkpt>
      <trkpt lat="43.20689" lon="0.14892">
        <ele>410</ele>
        <time>2018-09-30T09:27:53Z</time>
      </trkpt>
      <trkpt lat="43.20689" lon="0.14892">
        <ele>410</ele>
        <time>2018-09-30T09:27:54Z</time>
      </trkpt>
      <trkpt lat="43.20689" lon="0.14892">
        <ele>410</ele>
        <time>2018-09-30T09:27:55Z</time>
      </trkpt>
      <trkpt lat="43.20689" lon="0.14892">
        <ele>410</ele>
        <time>2018-09-30T09:27:56Z</time>
      </trkpt>
      <trkpt lat="43.20689" lon="0.14892">
        <ele>410</ele>
        <time>2018-09-30T09:27:57Z</time>
      </trkpt>
      <trkpt lat="43.20689" lon="0.14892">
        <ele>410</ele>
        <time>2018-09-30T09:27:58Z</time>
      </trkpt>
      <trkpt lat="43.20689" lon="0.14892">
        <ele>410</ele>
        <time>2018-09-30T09:27:59Z</time>
      </trkpt>
      <trkpt lat="43.20689" lon="0.14892">
        <ele>410</ele>
        <time>2018-09-30T09:28:00Z</time>
      </trkpt>
      <trkpt lat="43.20689" lon="0.14892">
        <ele>410</ele>
        <time>2018-09-30T09:28:01Z</time>
      </trkpt>
      <trkpt lat="43.20689" lon="0.14892">
        <ele>410</ele>
        <time>2018-09-30T09:28:02Z</time>
      </trkpt>
      <trkpt lat="43.20689" lon="0.14892">
        <ele>410</ele>
        <time>2018-09-30T09:28:03Z</time>
      </trkpt>
      <trkpt lat="43.20689" lon="0.14892">
        <ele>410</ele>
        <time>2018-09-30T09:28:04Z</time>
      </trkpt>
      <trkpt lat="43.20689" lon="0.14892">
        <ele>410</ele>
        <time>2018-09-30T09:28:05Z</time>
      </trkpt>
      <trkpt lat="43.20689" lon="0.14892">
        <ele>410</ele>
        <time>2018-09-30T09:28:06Z</time>
      </trkpt>
      <trkpt lat="43.20689" lon="0.14892">
        <ele>410</ele>
        <time>2018-09-30T09:28:07Z</time>
      </trkpt>
      <trkpt lat="43.20689" lon="0.14892">
        <ele>410</ele>
        <time>2018-09-30T09:28:08Z</time>
      </trkpt>
      <trkpt lat="43.20689" lon="0.14892">
        <ele>410</ele>
        <time>2018-09-30T09:28:09Z</time>
      </trkpt>
      <trkpt lat="43.20689" lon="0.14892">
        <ele>410</ele>
        <time>2018-09-30T09:28:10Z</time>
      </trkpt>
      <trkpt lat="43.20689" lon="0.14892">
        <ele>410</ele>
        <time>2018-09-30T09:28:11Z</time>
      </trkpt>
      <trkpt lat="43.20689" lon="0.14892">
        <ele>410</ele>
        <time>2018-09-30T09:28:12Z</time>
      </trkpt>
      <trkpt lat="43.20689" lon="0.14892">
        <ele>410</ele>
        <time>2018-09-30T09:28:13Z</time>
      </trkpt>
      <trkpt lat="43.20689" lon="0.14892">
        <ele>410</ele>
        <time>2018-09-30T09:28:14Z</time>
      </trkpt>
      <trkpt lat="43.20689" lon="0.14892">
        <ele>410</ele>
        <time>2018-09-30T09:28:15Z</time>
      </trkpt>
      <trkpt lat="43.20689" lon="0.14892">
        <ele>410</ele>
        <time>2018-09-30T09:28:16Z</time>
      </trkpt>
      <trkpt lat="43.20689" lon="0.14892">
        <ele>410</ele>
        <time>2018-09-30T09:28:17Z</time>
      </trkpt>
      <trkpt lat="43.20689" lon="0.14892">
        <ele>410</ele>
        <time>2018-09-30T09:28:18Z</time>
      </trkpt>
      <trkpt lat="43.20689" lon="0.14892">
        <ele>410</ele>
        <time>2018-09-30T09:28:19Z</time>
      </trkpt>
      <trkpt lat="43.20689" lon="0.14892">
        <ele>410</ele>
        <time>2018-09-30T09:28:20Z</time>
      </trkpt>
      <trkpt lat="43.20689" lon="0.14892">
        <ele>410</ele>
        <time>2018-09-30T09:28:21Z</time>
      </trkpt>
      <trkpt lat="43.20689" lon="0.14892">
        <ele>410</ele>
        <time>2018-09-30T09:28:22Z</time>
      </trkpt>
      <trkpt lat="43.20689" lon="0.14892">
        <ele>410</ele>
        <time>2018-09-30T09:28:23Z</time>
      </trkpt>
      <trkpt lat="43.20689" lon="0.14892">
        <ele>410</ele>
        <time>2018-09-30T09:28:24Z</time>
      </trkpt>
      <trkpt lat="43.20689" lon="0.14892">
        <ele>410</ele>
        <time>2018-09-30T09:28:25Z</time>
      </trkpt>
      <trkpt lat="43.20689" lon="0.14892">
        <ele>410</ele>
        <time>2018-09-30T09:28:26Z</time>
      </trkpt>
      <trkpt lat="43.20689" lon="0.14892">
        <ele>410</ele>
        <time>2018-09-30T09:28:27Z</time>
      </trkpt>
      <trkpt lat="43.20689" lon="0.14892">
        <ele>410</ele>
        <time>2018-09-30T09:28:28Z</time>
      </trkpt>
      <trkpt lat="43.20689" lon="0.14892">
        <ele>410</ele>
        <time>2018-09-30T09:28:29Z</time>
      </trkpt>
      <trkpt lat="43.20689" lon="0.14892">
        <ele>410</ele>
        <time>2018-09-30T09:28:30Z</time>
      </trkpt>
      <trkpt lat="43.20689" lon="0.14892">
        <ele>410</ele>
        <time>2018-09-30T09:28:31Z</time>
      </trkpt>
      <trkpt lat="43.20689" lon="0.14892">
        <ele>410</ele>
        <time>2018-09-30T09:28:32Z</time>
      </trkpt>
      <trkpt lat="43.20689" lon="0.14892">
        <ele>410</ele>
        <time>2018-09-30T09:28:33Z</time>
      </trkpt>
      <trkpt lat="43.20689" lon="0.14892">
        <ele>410</ele>
        <time>2018-09-30T09:28:34Z</time>
      </trkpt>
      <trkpt lat="43.20689" lon="0.14892">
        <ele>410</ele>
        <time>2018-09-30T09:28:35Z</time>
      </trkpt>
      <trkpt lat="43.20689" lon="0.14892">
        <ele>410</ele>
        <time>2018-09-30T09:28:36Z</time>
      </trkpt>
      <trkpt lat="43.20689" lon="0.14892">
        <ele>410</ele>
        <time>2018-09-30T09:28:37Z</time>
      </trkpt>
      <trkpt lat="43.20689" lon="0.14892">
        <ele>410</ele>
        <time>2018-09-30T09:28:38Z</time>
      </trkpt>
      <trkpt lat="43.20689" lon="0.14892">
        <ele>410</ele>
        <time>2018-09-30T09:28:39Z</time>
      </trkpt>
      <trkpt lat="43.20689" lon="0.14892">
        <ele>410</ele>
        <time>2018-09-30T09:28:40Z</time>
      </trkpt>
      <trkpt lat="43.20689" lon="0.14892">
        <ele>410</ele>
        <time>2018-09-30T09:28:41Z</time>
      </trkpt>
      <trkpt lat="43.20689" lon="0.14892">
        <ele>410</ele>
        <time>2018-09-30T09:28:42Z</time>
      </trkpt>
      <trkpt lat="43.20689" lon="0.14892">
        <ele>410</ele>
        <time>2018-09-30T09:28:43Z</time>
      </trkpt>
      <trkpt lat="43.20689" lon="0.14892">
        <ele>410</ele>
        <time>2018-09-30T09:28:44Z</time>
      </trkpt>
      <trkpt lat="43.20689" lon="0.14892">
        <ele>410</ele>
        <time>2018-09-30T09:28:45Z</time>
      </trkpt>
      <trkpt lat="43.20689" lon="0.14892">
        <ele>410</ele>
        <time>2018-09-30T09:28:46Z</time>
      </trkpt>
      <trkpt lat="43.20689" lon="0.14892">
        <ele>410</ele>
        <time>2018-09-30T09:28:47Z</time>
      </trkpt>
      <trkpt lat="43.20689" lon="0.14892">
        <ele>410</ele>
        <time>2018-09-30T09:28:48Z</time>
      </trkpt>
      <trkpt lat="43.20689" lon="0.14892">
        <ele>410</ele>
        <time>2018-09-30T09:28:49Z</time>
      </trkpt>
      <trkpt lat="43.20689" lon="0.14892">
        <ele>410</ele>
        <time>2018-09-30T09:28:50Z</time>
      </trkpt>
      <trkpt lat="43.20689" lon="0.14892">
        <ele>410</ele>
        <time>2018-09-30T09:28:51Z</time>
      </trkpt>
      <trkpt lat="43.20689" lon="0.14892">
        <ele>410</ele>
        <time>2018-09-30T09:28:52Z</time>
      </trkpt>
      <trkpt lat="43.20689" lon="0.14892">
        <ele>410</ele>
        <time>2018-09-30T09:28:53Z</time>
      </trkpt>
      <trkpt lat="43.20693" lon="0.14892">
        <ele>410</ele>
        <time>2018-09-30T09:28:54Z</time>
      </trkpt>
      <trkpt lat="43.20693" lon="0.14892">
        <ele>410</ele>
        <time>2018-09-30T09:28:55Z</time>
      </trkpt>
      <trkpt lat="43.20693" lon="0.14892">
        <ele>410</ele>
        <time>2018-09-30T09:28:56Z</time>
      </trkpt>
      <trkpt lat="43.20693" lon="0.14892">
        <ele>410</ele>
        <time>2018-09-30T09:28:57Z</time>
      </trkpt>
      <trkpt lat="43.20693" lon="0.14892">
        <ele>410</ele>
        <time>2018-09-30T09:28:58Z</time>
      </trkpt>
      <trkpt lat="43.20694" lon="0.14892">
        <ele>410</ele>
        <time>2018-09-30T09:28:59Z</time>
      </trkpt>
      <trkpt lat="43.20694" lon="0.14892">
        <ele>410</ele>
        <time>2018-09-30T09:29:00Z</time>
      </trkpt>
      <trkpt lat="43.20694" lon="0.14892">
        <ele>410</ele>
        <time>2018-09-30T09:29:01Z</time>
      </trkpt>
      <trkpt lat="43.20694" lon="0.14892">
        <ele>410</ele>
        <time>2018-09-30T09:29:02Z</time>
      </trkpt>
      <trkpt lat="43.20694" lon="0.14892">
        <ele>410</ele>
        <time>2018-09-30T09:29:03Z</time>
      </trkpt>
      <trkpt lat="43.20694" lon="0.14892">
        <ele>410</ele>
        <time>2018-09-30T09:29:04Z</time>
      </trkpt>
      <trkpt lat="43.20694" lon="0.14892">
        <ele>410</ele>
        <time>2018-09-30T09:29:05Z</time>
      </trkpt>
      <trkpt lat="43.20694" lon="0.14892">
        <ele>410</ele>
        <time>2018-09-30T09:29:06Z</time>
      </trkpt>
      <trkpt lat="43.20694" lon="0.14892">
        <ele>410</ele>
        <time>2018-09-30T09:29:07Z</time>
      </trkpt>
      <trkpt lat="43.20694" lon="0.14892">
        <ele>410</ele>
        <time>2018-09-30T09:29:08Z</time>
      </trkpt>
      <trkpt lat="43.20694" lon="0.14892">
        <ele>410</ele>
        <time>2018-09-30T09:29:09Z</time>
      </trkpt>
      <trkpt lat="43.20694" lon="0.14892">
        <ele>410</ele>
        <time>2018-09-30T09:29:10Z</time>
      </trkpt>
      <trkpt lat="43.20694" lon="0.14892">
        <ele>410</ele>
        <time>2018-09-30T09:29:11Z</time>
      </trkpt>
      <trkpt lat="43.20694" lon="0.14892">
        <ele>410</ele>
        <time>2018-09-30T09:29:12Z</time>
      </trkpt>
      <trkpt lat="43.20694" lon="0.14892">
        <ele>410</ele>
        <time>2018-09-30T09:29:13Z</time>
      </trkpt>
      <trkpt lat="43.20694" lon="0.14892">
        <ele>410</ele>
        <time>2018-09-30T09:29:14Z</time>
      </trkpt>
      <trkpt lat="43.20694" lon="0.14892">
        <ele>410</ele>
        <time>2018-09-30T09:29:15Z</time>
      </trkpt>
      <trkpt lat="43.20694" lon="0.14892">
        <ele>410</ele>
        <time>2018-09-30T09:29:16Z</time>
      </trkpt>
      <trkpt lat="43.20694" lon="0.14892">
        <ele>410</ele>
        <time>2018-09-30T09:29:17Z</time>
      </trkpt>
      <trkpt lat="43.20694" lon="0.14892">
        <ele>410</ele>
        <time>2018-09-30T09:29:18Z</time>
      </trkpt>
      <trkpt lat="43.20694" lon="0.14892">
        <ele>410</ele>
        <time>2018-09-30T09:29:19Z</time>
      </trkpt>
      <trkpt lat="43.20694" lon="0.14892">
        <ele>410</ele>
        <time>2018-09-30T09:29:20Z</time>
      </trkpt>
      <trkpt lat="43.20694" lon="0.14892">
        <ele>410</ele>
        <time>2018-09-30T09:29:21Z</time>
      </trkpt>
      <trkpt lat="43.20694" lon="0.14892">
        <ele>410</ele>
        <time>2018-09-30T09:29:22Z</time>
      </trkpt>
      <trkpt lat="43.20694" lon="0.14892">
        <ele>410</ele>
        <time>2018-09-30T09:29:23Z</time>
      </trkpt>
      <trkpt lat="43.20694" lon="0.14892">
        <ele>410</ele>
        <time>2018-09-30T09:29:24Z</time>
      </trkpt>
      <trkpt lat="43.20694" lon="0.14892">
        <ele>410</ele>
        <time>2018-09-30T09:29:25Z</time>
      </trkpt>
      <trkpt lat="43.20694" lon="0.14892">
        <ele>410</ele>
        <time>2018-09-30T09:29:26Z</time>
      </trkpt>
      <trkpt lat="43.20694" lon="0.14892">
        <ele>410</ele>
        <time>2018-09-30T09:29:27Z</time>
      </trkpt>
      <trkpt lat="43.20694" lon="0.14892">
        <ele>410</ele>
        <time>2018-09-30T09:29:28Z</time>
      </trkpt>
      <trkpt lat="43.20694" lon="0.14892">
        <ele>410</ele>
        <time>2018-09-30T09:29:29Z</time>
      </trkpt>
      <trkpt lat="43.20694" lon="0.14892">
        <ele>410</ele>
        <time>2018-09-30T09:29:30Z</time>
      </trkpt>
      <trkpt lat="43.20694" lon="0.14892">
        <ele>410</ele>
        <time>2018-09-30T09:29:31Z</time>
      </trkpt>
      <trkpt lat="43.20694" lon="0.14892">
        <ele>410</ele>
        <time>2018-09-30T09:29:32Z</time>
      </trkpt>
      <trkpt lat="43.20694" lon="0.14892">
        <ele>410</ele>
        <time>2018-09-30T09:29:33Z</time>
      </trkpt>
      <trkpt lat="43.20694" lon="0.14892">
        <ele>410</ele>
        <time>2018-09-30T09:29:34Z</time>
      </trkpt>
      <trkpt lat="43.20694" lon="0.14892">
        <ele>410</ele>
        <time>2018-09-30T09:29:35Z</time>
      </trkpt>
      <trkpt lat="43.20694" lon="0.14892">
        <ele>410</ele>
        <time>2018-09-30T09:29:36Z</time>
      </trkpt>
      <trkpt lat="43.20694" lon="0.14892">
        <ele>410</ele>
        <time>2018-09-30T09:29:37Z</time>
      </trkpt>
      <trkpt lat="43.20694" lon="0.14891">
        <ele>410</ele>
        <time>2018-09-30T09:29:38Z</time>
      </trkpt>
      <trkpt lat="43.20694" lon="0.14891">
        <ele>410</ele>
        <time>2018-09-30T09:29:39Z</time>
      </trkpt>
      <trkpt lat="43.20694" lon="0.14891">
        <ele>410</ele>
        <time>2018-09-30T09:29:40Z</time>
      </trkpt>
      <trkpt lat="43.20694" lon="0.14891">
        <ele>410</ele>
        <time>2018-09-30T09:29:41Z</time>
      </trkpt>
      <trkpt lat="43.20694" lon="0.14891">
        <ele>410</ele>
        <time>2018-09-30T09:29:42Z</time>
      </trkpt>
      <trkpt lat="43.20694" lon="0.14891">
        <ele>410</ele>
        <time>2018-09-30T09:29:43Z</time>
      </trkpt>
      <trkpt lat="43.20694" lon="0.14891">
        <ele>410</ele>
        <time>2018-09-30T09:29:44Z</time>
      </trkpt>
      <trkpt lat="43.20694" lon="0.14891">
        <ele>410</ele>
        <time>2018-09-30T09:29:45Z</time>
      </trkpt>
      <trkpt lat="43.20694" lon="0.14891">
        <ele>410</ele>
        <time>2018-09-30T09:29:46Z</time>
      </trkpt>
      <trkpt lat="43.20694" lon="0.14891">
        <ele>410</ele>
        <time>2018-09-30T09:29:47Z</time>
      </trkpt>
      <trkpt lat="43.20694" lon="0.14891">
        <ele>410</ele>
        <time>2018-09-30T09:29:48Z</time>
      </trkpt>
      <trkpt lat="43.20694" lon="0.14891">
        <ele>410</ele>
        <time>2018-09-30T09:29:49Z</time>
      </trkpt>
      <trkpt lat="43.20695" lon="0.14891">
        <ele>410</ele>
        <time>2018-09-30T09:29:50Z</time>
      </trkpt>
      <trkpt lat="43.20695" lon="0.14891">
        <ele>410</ele>
        <time>2018-09-30T09:29:51Z</time>
      </trkpt>
      <trkpt lat="43.20694" lon="0.14891">
        <ele>410</ele>
        <time>2018-09-30T09:29:52Z</time>
      </trkpt>
      <trkpt lat="43.20694" lon="0.14891">
        <ele>410</ele>
        <time>2018-09-30T09:29:53Z</time>
      </trkpt>
      <trkpt lat="43.20694" lon="0.14891">
        <ele>410</ele>
        <time>2018-09-30T09:29:54Z</time>
      </trkpt>
      <trkpt lat="43.20694" lon="0.14891">
        <ele>410</ele>
        <time>2018-09-30T09:29:55Z</time>
      </trkpt>
      <trkpt lat="43.20694" lon="0.14891">
        <ele>410</ele>
        <time>2018-09-30T09:29:56Z</time>
      </trkpt>
      <trkpt lat="43.20694" lon="0.14892">
        <ele>410</ele>
        <time>2018-09-30T09:29:57Z</time>
      </trkpt>
      <trkpt lat="43.20694" lon="0.14892">
        <ele>410</ele>
        <time>2018-09-30T09:29:58Z</time>
      </trkpt>
      <trkpt lat="43.20694" lon="0.14892">
        <ele>410</ele>
        <time>2018-09-30T09:29:59Z</time>
      </trkpt>
      <trkpt lat="43.20694" lon="0.14892">
        <ele>410</ele>
        <time>2018-09-30T09:30:00Z</time>
      </trkpt>
      <trkpt lat="43.20695" lon="0.14892">
        <ele>410</ele>
        <time>2018-09-30T09:30:01Z</time>
      </trkpt>
      <trkpt lat="43.20695" lon="0.14892">
        <ele>410</ele>
        <time>2018-09-30T09:30:02Z</time>
      </trkpt>
      <trkpt lat="43.20696" lon="0.14892">
        <ele>410</ele>
        <time>2018-09-30T09:30:03Z</time>
      </trkpt>
      <trkpt lat="43.20697" lon="0.14892">
        <ele>410</ele>
        <time>2018-09-30T09:30:04Z</time>
      </trkpt>
      <trkpt lat="43.20699" lon="0.14892">
        <ele>410</ele>
        <time>2018-09-30T09:30:05Z</time>
      </trkpt>
      <trkpt lat="43.20701" lon="0.14891">
        <ele>410</ele>
        <time>2018-09-30T09:30:06Z</time>
      </trkpt>
      <trkpt lat="43.20704" lon="0.14891">
        <ele>410</ele>
        <time>2018-09-30T09:30:07Z</time>
      </trkpt>
      <trkpt lat="43.20705" lon="0.1489">
        <ele>410</ele>
        <time>2018-09-30T09:30:08Z</time>
      </trkpt>
      <trkpt lat="43.20707" lon="0.14888">
        <ele>410</ele>
        <time>2018-09-30T09:30:09Z</time>
      </trkpt>
      <trkpt lat="43.20709" lon="0.14887">
        <ele>411</ele>
        <time>2018-09-30T09:30:10Z</time>
      </trkpt>
      <trkpt lat="43.2071" lon="0.14885">
        <ele>411</ele>
        <time>2018-09-30T09:30:11Z</time>
      </trkpt>
      <trkpt lat="43.20712" lon="0.14884">
        <ele>411</ele>
        <time>2018-09-30T09:30:12Z</time>
      </trkpt>
      <trkpt lat="43.20713" lon="0.14883">
        <ele>411</ele>
        <time>2018-09-30T09:30:13Z</time>
      </trkpt>
      <trkpt lat="43.20715" lon="0.14883">
        <ele>411</ele>
        <time>2018-09-30T09:30:14Z</time>
      </trkpt>
      <trkpt lat="43.20718" lon="0.14882">
        <ele>411</ele>
        <time>2018-09-30T09:30:15Z</time>
      </trkpt>
      <trkpt lat="43.2072" lon="0.14881">
        <ele>411</ele>
        <time>2018-09-30T09:30:16Z</time>
      </trkpt>
      <trkpt lat="43.20722" lon="0.14878">
        <ele>411</ele>
        <time>2018-09-30T09:30:17Z</time>
      </trkpt>
      <trkpt lat="43.20725" lon="0.14875">
        <ele>411</ele>
        <time>2018-09-30T09:30:18Z</time>
      </trkpt>
      <trkpt lat="43.20728" lon="0.14872">
        <ele>411</ele>
        <time>2018-09-30T09:30:19Z</time>
      </trkpt>
      <trkpt lat="43.20733" lon="0.1487">
        <ele>411</ele>
        <time>2018-09-30T09:30:20Z</time>
      </trkpt>
      <trkpt lat="43.20737" lon="0.14868">
        <ele>411</ele>
        <time>2018-09-30T09:30:21Z</time>
      </trkpt>
      <trkpt lat="43.20742" lon="0.14865">
        <ele>410</ele>
        <time>2018-09-30T09:30:22Z</time>
      </trkpt>
      <trkpt lat="43.20747" lon="0.14863">
        <ele>410</ele>
        <time>2018-09-30T09:30:23Z</time>
      </trkpt>
      <trkpt lat="43.20752" lon="0.1486">
        <ele>410</ele>
        <time>2018-09-30T09:30:24Z</time>
      </trkpt>
      <trkpt lat="43.20757" lon="0.14858">
        <ele>409</ele>
        <time>2018-09-30T09:30:25Z</time>
      </trkpt>
      <trkpt lat="43.20761" lon="0.14856">
        <ele>409</ele>
        <time>2018-09-30T09:30:26Z</time>
      </trkpt>
      <trkpt lat="43.20766" lon="0.14854">
        <ele>408</ele>
        <time>2018-09-30T09:30:27Z</time>
      </trkpt>
      <trkpt lat="43.20771" lon="0.14852">
        <ele>408</ele>
        <time>2018-09-30T09:30:28Z</time>
      </trkpt>
      <trkpt lat="43.20775" lon="0.1485">
        <ele>408</ele>
        <time>2018-09-30T09:30:29Z</time>
      </trkpt>
      <trkpt lat="43.20779" lon="0.14848">
        <ele>407</ele>
        <time>2018-09-30T09:30:30Z</time>
      </trkpt>
      <trkpt lat="43.20782" lon="0.14846">
        <ele>407</ele>
        <time>2018-09-30T09:30:31Z</time>
      </trkpt>
      <trkpt lat="43.20786" lon="0.14844">
        <ele>407</ele>
        <time>2018-09-30T09:30:32Z</time>
      </trkpt>
      <trkpt lat="43.2079" lon="0.14843">
        <ele>407</ele>
        <time>2018-09-30T09:30:33Z</time>
      </trkpt>
      <trkpt lat="43.20793" lon="0.14843">
        <ele>407</ele>
        <time>2018-09-30T09:30:34Z</time>
      </trkpt>
      <trkpt lat="43.20797" lon="0.14841">
        <ele>407</ele>
        <time>2018-09-30T09:30:35Z</time>
      </trkpt>
      <trkpt lat="43.20801" lon="0.14839">
        <ele>408</ele>
        <time>2018-09-30T09:30:36Z</time>
      </trkpt>
      <trkpt lat="43.20805" lon="0.14839">
        <ele>408</ele>
        <time>2018-09-30T09:30:37Z</time>
      </trkpt>
      <trkpt lat="43.2081" lon="0.1484">
        <ele>408</ele>
        <time>2018-09-30T09:30:38Z</time>
      </trkpt>
      <trkpt lat="43.20815" lon="0.1484">
        <ele>408</ele>
        <time>2018-09-30T09:30:39Z</time>
      </trkpt>
      <trkpt lat="43.20819" lon="0.1484">
        <ele>408</ele>
        <time>2018-09-30T09:30:40Z</time>
      </trkpt>
      <trkpt lat="43.20823" lon="0.1484">
        <ele>408</ele>
        <time>2018-09-30T09:30:41Z</time>
      </trkpt>
      <trkpt lat="43.20827" lon="0.14839">
        <ele>408</ele>
        <time>2018-09-30T09:30:42Z</time>
      </trkpt>
      <trkpt lat="43.2083" lon="0.14838">
        <ele>408</ele>
        <time>2018-09-30T09:30:43Z</time>
      </trkpt>
      <trkpt lat="43.20834" lon="0.14838">
        <ele>408</ele>
        <time>2018-09-30T09:30:44Z</time>
      </trkpt>
      <trkpt lat="43.20837" lon="0.14837">
        <ele>409</ele>
        <time>2018-09-30T09:30:45Z</time>
      </trkpt>
      <trkpt lat="43.20841" lon="0.14837">
        <ele>409</ele>
        <time>2018-09-30T09:30:46Z</time>
      </trkpt>
      <trkpt lat="43.20845" lon="0.14836">
        <ele>409</ele>
        <time>2018-09-30T09:30:47Z</time>
      </trkpt>
      <trkpt lat="43.20848" lon="0.14835">
        <ele>409</ele>
        <time>2018-09-30T09:30:48Z</time>
      </trkpt>
      <trkpt lat="43.20853" lon="0.14834">
        <ele>409</ele>
        <time>2018-09-30T09:30:49Z</time>
      </trkpt>
      <trkpt lat="43.20857" lon="0.14833">
        <ele>409</ele>
        <time>2018-09-30T09:30:50Z</time>
      </trkpt>
      <trkpt lat="43.2086" lon="0.14832">
        <ele>409</ele>
        <time>2018-09-30T09:30:51Z</time>
      </trkpt>
      <trkpt lat="43.20865" lon="0.14832">
        <ele>409</ele>
        <time>2018-09-30T09:30:52Z</time>
      </trkpt>
      <trkpt lat="43.2087" lon="0.14832">
        <ele>409</ele>
        <time>2018-09-30T09:30:53Z</time>
      </trkpt>
      <trkpt lat="43.20874" lon="0.14832">
        <ele>409</ele>
        <time>2018-09-30T09:30:54Z</time>
      </trkpt>
      <trkpt lat="43.20877" lon="0.14832">
        <ele>408</ele>
        <time>2018-09-30T09:30:55Z</time>
      </trkpt>
      <trkpt lat="43.2088" lon="0.14831">
        <ele>408</ele>
        <time>2018-09-30T09:30:56Z</time>
      </trkpt>
      <trkpt lat="43.20884" lon="0.1483">
        <ele>408</ele>
        <time>2018-09-30T09:30:57Z</time>
      </trkpt>
      <trkpt lat="43.20889" lon="0.1483">
        <ele>408</ele>
        <time>2018-09-30T09:30:58Z</time>
      </trkpt>
      <trkpt lat="43.20892" lon="0.14829">
        <ele>407</ele>
        <time>2018-09-30T09:30:59Z</time>
      </trkpt>
      <trkpt lat="43.20897" lon="0.14829">
        <ele>407</ele>
        <time>2018-09-30T09:31:00Z</time>
      </trkpt>
      <trkpt lat="43.209" lon="0.14828">
        <ele>407</ele>
        <time>2018-09-30T09:31:01Z</time>
      </trkpt>
      <trkpt lat="43.20904" lon="0.14827">
        <ele>406</ele>
        <time>2018-09-30T09:31:02Z</time>
      </trkpt>
      <trkpt lat="43.20908" lon="0.14826">
        <ele>406</ele>
        <time>2018-09-30T09:31:03Z</time>
      </trkpt>
      <trkpt lat="43.20913" lon="0.14823">
        <ele>405</ele>
        <time>2018-09-30T09:31:04Z</time>
      </trkpt>
      <trkpt lat="43.20917" lon="0.14821">
        <ele>405</ele>
        <time>2018-09-30T09:31:05Z</time>
      </trkpt>
      <trkpt lat="43.20921" lon="0.14817">
        <ele>404</ele>
        <time>2018-09-30T09:31:06Z</time>
      </trkpt>
      <trkpt lat="43.20925" lon="0.14815">
        <ele>404</ele>
        <time>2018-09-30T09:31:07Z</time>
      </trkpt>
      <trkpt lat="43.20929" lon="0.14813">
        <ele>404</ele>
        <time>2018-09-30T09:31:08Z</time>
      </trkpt>
      <trkpt lat="43.20934" lon="0.14812">
        <ele>404</ele>
        <time>2018-09-30T09:31:09Z</time>
      </trkpt>
      <trkpt lat="43.20938" lon="0.14812">
        <ele>404</ele>
        <time>2018-09-30T09:31:10Z</time>
      </trkpt>
      <trkpt lat="43.20942" lon="0.14813">
        <ele>404</ele>
        <time>2018-09-30T09:31:11Z</time>
      </trkpt>
      <trkpt lat="43.20945" lon="0.14814">
        <ele>404</ele>
        <time>2018-09-30T09:31:12Z</time>
      </trkpt>
      <trkpt lat="43.20948" lon="0.14813">
        <ele>405</ele>
        <time>2018-09-30T09:31:13Z</time>
      </trkpt>
      <trkpt lat="43.20951" lon="0.14813">
        <ele>405</ele>
        <time>2018-09-30T09:31:14Z</time>
      </trkpt>
      <trkpt lat="43.20956" lon="0.14813">
        <ele>405</ele>
        <time>2018-09-30T09:31:15Z</time>
      </trkpt>
      <trkpt lat="43.20961" lon="0.14812">
        <ele>405</ele>
        <time>2018-09-30T09:31:16Z</time>
      </trkpt>
      <trkpt lat="43.20965" lon="0.14812">
        <ele>405</ele>
        <time>2018-09-30T09:31:17Z</time>
      </trkpt>
      <trkpt lat="43.20969" lon="0.14811">
        <ele>405</ele>
        <time>2018-09-30T09:31:18Z</time>
      </trkpt>
      <trkpt lat="43.20972" lon="0.14811">
        <ele>405</ele>
        <time>2018-09-30T09:31:19Z</time>
      </trkpt>
      <trkpt lat="43.20976" lon="0.1481">
        <ele>405</ele>
        <time>2018-09-30T09:31:20Z</time>
      </trkpt>
      <trkpt lat="43.20982" lon="0.14809">
        <ele>405</ele>
        <time>2018-09-30T09:31:21Z</time>
      </trkpt>
      <trkpt lat="43.20986" lon="0.14808">
        <ele>405</ele>
        <time>2018-09-30T09:31:22Z</time>
      </trkpt>
      <trkpt lat="43.2099" lon="0.14807">
        <ele>406</ele>
        <time>2018-09-30T09:31:23Z</time>
      </trkpt>
      <trkpt lat="43.20993" lon="0.14805">
        <ele>406</ele>
        <time>2018-09-30T09:31:24Z</time>
      </trkpt>
      <trkpt lat="43.20995" lon="0.14802">
        <ele>406</ele>
        <time>2018-09-30T09:31:25Z</time>
      </trkpt>
      <trkpt lat="43.20998" lon="0.14801">
        <ele>406</ele>
        <time>2018-09-30T09:31:26Z</time>
      </trkpt>
      <trkpt lat="43.21002" lon="0.148">
        <ele>406</ele>
        <time>2018-09-30T09:31:27Z</time>
      </trkpt>
      <trkpt lat="43.21007" lon="0.14799">
        <ele>406</ele>
        <time>2018-09-30T09:31:28Z</time>
      </trkpt>
      <trkpt lat="43.21011" lon="0.14798">
        <ele>407</ele>
        <time>2018-09-30T09:31:29Z</time>
      </trkpt>
      <trkpt lat="43.21014" lon="0.14798">
        <ele>407</ele>
        <time>2018-09-30T09:31:30Z</time>
      </trkpt>
      <trkpt lat="43.21019" lon="0.14798">
        <ele>408</ele>
        <time>2018-09-30T09:31:31Z</time>
      </trkpt>
      <trkpt lat="43.21023" lon="0.14798">
        <ele>408</ele>
        <time>2018-09-30T09:31:32Z</time>
      </trkpt>
      <trkpt lat="43.21027" lon="0.14798">
        <ele>409</ele>
        <time>2018-09-30T09:31:33Z</time>
      </trkpt>
      <trkpt lat="43.2103" lon="0.14799">
        <ele>409</ele>
        <time>2018-09-30T09:31:34Z</time>
      </trkpt>
      <trkpt lat="43.21032" lon="0.14801">
        <ele>409</ele>
        <time>2018-09-30T09:31:35Z</time>
      </trkpt>
      <trkpt lat="43.21035" lon="0.14803">
        <ele>410</ele>
        <time>2018-09-30T09:31:36Z</time>
      </trkpt>
      <trkpt lat="43.21039" lon="0.14804">
        <ele>410</ele>
        <time>2018-09-30T09:31:37Z</time>
      </trkpt>
      <trkpt lat="43.21042" lon="0.14806">
        <ele>410</ele>
        <time>2018-09-30T09:31:38Z</time>
      </trkpt>
      <trkpt lat="43.21045" lon="0.14807">
        <ele>410</ele>
        <time>2018-09-30T09:31:39Z</time>
      </trkpt>
      <trkpt lat="43.21047" lon="0.14808">
        <ele>410</ele>
        <time>2018-09-30T09:31:40Z</time>
      </trkpt>
      <trkpt lat="43.21049" lon="0.1481">
        <ele>410</ele>
        <time>2018-09-30T09:31:41Z</time>
      </trkpt>
      <trkpt lat="43.21052" lon="0.1481">
        <ele>411</ele>
        <time>2018-09-30T09:31:42Z</time>
      </trkpt>
      <trkpt lat="43.21056" lon="0.1481">
        <ele>411</ele>
        <time>2018-09-30T09:31:43Z</time>
      </trkpt>
      <trkpt lat="43.2106" lon="0.14811">
        <ele>411</ele>
        <time>2018-09-30T09:31:44Z</time>
      </trkpt>
      <trkpt lat="43.21065" lon="0.1481">
        <ele>412</ele>
        <time>2018-09-30T09:31:45Z</time>
      </trkpt>
      <trkpt lat="43.2107" lon="0.1481">
        <ele>412</ele>
        <time>2018-09-30T09:31:46Z</time>
      </trkpt>
      <trkpt lat="43.21074" lon="0.14812">
        <ele>412</ele>
        <time>2018-09-30T09:31:47Z</time>
      </trkpt>
      <trkpt lat="43.21079" lon="0.14816">
        <ele>412</ele>
        <time>2018-09-30T09:31:48Z</time>
      </trkpt>
      <trkpt lat="43.21084" lon="0.14821">
        <ele>411</ele>
        <time>2018-09-30T09:31:49Z</time>
      </trkpt>
      <trkpt lat="43.21089" lon="0.14828">
        <ele>409</ele>
        <time>2018-09-30T09:31:50Z</time>
      </trkpt>
      <trkpt lat="43.21093" lon="0.14833">
        <ele>408</ele>
        <time>2018-09-30T09:31:51Z</time>
      </trkpt>
      <trkpt lat="43.21099" lon="0.14842">
        <ele>406</ele>
        <time>2018-09-30T09:31:52Z</time>
      </trkpt>
      <trkpt lat="43.21104" lon="0.14846">
        <ele>406</ele>
        <time>2018-09-30T09:31:53Z</time>
      </trkpt>
      <trkpt lat="43.21109" lon="0.14849">
        <ele>404</ele>
        <time>2018-09-30T09:31:54Z</time>
      </trkpt>
      <trkpt lat="43.21115" lon="0.14853">
        <ele>403</ele>
        <time>2018-09-30T09:31:55Z</time>
      </trkpt>
      <trkpt lat="43.21121" lon="0.14858">
        <ele>402</ele>
        <time>2018-09-30T09:31:56Z</time>
      </trkpt>
      <trkpt lat="43.21126" lon="0.14862">
        <ele>402</ele>
        <time>2018-09-30T09:31:57Z</time>
      </trkpt>
      <trkpt lat="43.21131" lon="0.14867">
        <ele>402</ele>
        <time>2018-09-30T09:31:58Z</time>
      </trkpt>
      <trkpt lat="43.21136" lon="0.14871">
        <ele>401</ele>
        <time>2018-09-30T09:31:59Z</time>
      </trkpt>
      <trkpt lat="43.21141" lon="0.14876">
        <ele>400</ele>
        <time>2018-09-30T09:32:00Z</time>
      </trkpt>
      <trkpt lat="43.21146" lon="0.14882">
        <ele>400</ele>
        <time>2018-09-30T09:32:01Z</time>
      </trkpt>
      <trkpt lat="43.21151" lon="0.14886">
        <ele>399</ele>
        <time>2018-09-30T09:32:02Z</time>
      </trkpt>
      <trkpt lat="43.21156" lon="0.14892">
        <ele>399</ele>
        <time>2018-09-30T09:32:03Z</time>
      </trkpt>
      <trkpt lat="43.21159" lon="0.14897">
        <ele>399</ele>
        <time>2018-09-30T09:32:04Z</time>
      </trkpt>
      <trkpt lat="43.21164" lon="0.14902">
        <ele>398</ele>
        <time>2018-09-30T09:32:05Z</time>
      </trkpt>
      <trkpt lat="43.21168" lon="0.14908">
        <ele>398</ele>
        <time>2018-09-30T09:32:06Z</time>
      </trkpt>
      <trkpt lat="43.21172" lon="0.14911">
        <ele>398</ele>
        <time>2018-09-30T09:32:07Z</time>
      </trkpt>
      <trkpt lat="43.21176" lon="0.14916">
        <ele>398</ele>
        <time>2018-09-30T09:32:08Z</time>
      </trkpt>
      <trkpt lat="43.2118" lon="0.14921">
        <ele>398</ele>
        <time>2018-09-30T09:32:09Z</time>
      </trkpt>
      <trkpt lat="43.21184" lon="0.14925">
        <ele>398</ele>
        <time>2018-09-30T09:32:10Z</time>
      </trkpt>
      <trkpt lat="43.21188" lon="0.14928">
        <ele>398</ele>
        <time>2018-09-30T09:32:11Z</time>
      </trkpt>
      <trkpt lat="43.21192" lon="0.14931">
        <ele>398</ele>
        <time>2018-09-30T09:32:12Z</time>
      </trkpt>
      <trkpt lat="43.21196" lon="0.14933">
        <ele>398</ele>
        <time>2018-09-30T09:32:13Z</time>
      </trkpt>
      <trkpt lat="43.212" lon="0.14935">
        <ele>398</ele>
        <time>2018-09-30T09:32:14Z</time>
      </trkpt>
      <trkpt lat="43.21204" lon="0.14936">
        <ele>398</ele>
        <time>2018-09-30T09:32:15Z</time>
      </trkpt>
      <trkpt lat="43.21208" lon="0.14937">
        <ele>398</ele>
        <time>2018-09-30T09:32:16Z</time>
      </trkpt>
      <trkpt lat="43.21213" lon="0.14938">
        <ele>398</ele>
        <time>2018-09-30T09:32:17Z</time>
      </trkpt>
      <trkpt lat="43.21217" lon="0.14938">
        <ele>398</ele>
        <time>2018-09-30T09:32:18Z</time>
      </trkpt>
      <trkpt lat="43.21222" lon="0.14937">
        <ele>397</ele>
        <time>2018-09-30T09:32:19Z</time>
      </trkpt>
      <trkpt lat="43.21227" lon="0.14937">
        <ele>397</ele>
        <time>2018-09-30T09:32:20Z</time>
      </trkpt>
      <trkpt lat="43.21231" lon="0.14937">
        <ele>397</ele>
        <time>2018-09-30T09:32:21Z</time>
      </trkpt>
      <trkpt lat="43.21235" lon="0.14937">
        <ele>397</ele>
        <time>2018-09-30T09:32:22Z</time>
      </trkpt>
      <trkpt lat="43.21238" lon="0.14938">
        <ele>397</ele>
        <time>2018-09-30T09:32:23Z</time>
      </trkpt>
      <trkpt lat="43.21244" lon="0.1494">
        <ele>397</ele>
        <time>2018-09-30T09:32:24Z</time>
      </trkpt>
      <trkpt lat="43.21247" lon="0.14944">
        <ele>397</ele>
        <time>2018-09-30T09:32:25Z</time>
      </trkpt>
      <trkpt lat="43.21251" lon="0.14948">
        <ele>397</ele>
        <time>2018-09-30T09:32:26Z</time>
      </trkpt>
      <trkpt lat="43.21254" lon="0.14953">
        <ele>397</ele>
        <time>2018-09-30T09:32:27Z</time>
      </trkpt>
      <trkpt lat="43.21257" lon="0.14957">
        <ele>397</ele>
        <time>2018-09-30T09:32:28Z</time>
      </trkpt>
      <trkpt lat="43.2126" lon="0.14962">
        <ele>397</ele>
        <time>2018-09-30T09:32:29Z</time>
      </trkpt>
      <trkpt lat="43.21262" lon="0.14966">
        <ele>397</ele>
        <time>2018-09-30T09:32:30Z</time>
      </trkpt>
      <trkpt lat="43.21266" lon="0.14971">
        <ele>397</ele>
        <time>2018-09-30T09:32:31Z</time>
      </trkpt>
      <trkpt lat="43.21269" lon="0.14975">
        <ele>397</ele>
        <time>2018-09-30T09:32:32Z</time>
      </trkpt>
      <trkpt lat="43.21273" lon="0.1498">
        <ele>397</ele>
        <time>2018-09-30T09:32:33Z</time>
      </trkpt>
      <trkpt lat="43.21278" lon="0.14985">
        <ele>396</ele>
        <time>2018-09-30T09:32:34Z</time>
      </trkpt>
      <trkpt lat="43.21282" lon="0.14989">
        <ele>396</ele>
        <time>2018-09-30T09:32:35Z</time>
      </trkpt>
      <trkpt lat="43.21287" lon="0.14994">
        <ele>395</ele>
        <time>2018-09-30T09:32:36Z</time>
      </trkpt>
      <trkpt lat="43.21291" lon="0.14998">
        <ele>395</ele>
        <time>2018-09-30T09:32:37Z</time>
      </trkpt>
      <trkpt lat="43.21295" lon="0.15001">
        <ele>395</ele>
        <time>2018-09-30T09:32:38Z</time>
      </trkpt>
      <trkpt lat="43.21299" lon="0.15004">
        <ele>395</ele>
        <time>2018-09-30T09:32:39Z</time>
      </trkpt>
      <trkpt lat="43.21303" lon="0.15007">
        <ele>394</ele>
        <time>2018-09-30T09:32:40Z</time>
      </trkpt>
      <trkpt lat="43.21308" lon="0.1501">
        <ele>394</ele>
        <time>2018-09-30T09:32:41Z</time>
      </trkpt>
      <trkpt lat="43.21312" lon="0.15013">
        <ele>394</ele>
        <time>2018-09-30T09:32:42Z</time>
      </trkpt>
      <trkpt lat="43.21316" lon="0.15015">
        <ele>394</ele>
        <time>2018-09-30T09:32:43Z</time>
      </trkpt>
      <trkpt lat="43.2132" lon="0.15018">
        <ele>394</ele>
        <time>2018-09-30T09:32:44Z</time>
      </trkpt>
      <trkpt lat="43.21323" lon="0.1502">
        <ele>394</ele>
        <time>2018-09-30T09:32:45Z</time>
      </trkpt>
      <trkpt lat="43.21326" lon="0.15022">
        <ele>394</ele>
        <time>2018-09-30T09:32:46Z</time>
      </trkpt>
      <trkpt lat="43.21329" lon="0.15023">
        <ele>394</ele>
        <time>2018-09-30T09:32:47Z</time>
      </trkpt>
      <trkpt lat="43.21331" lon="0.15026">
        <ele>394</ele>
        <time>2018-09-30T09:32:48Z</time>
      </trkpt>
      <trkpt lat="43.21334" lon="0.15029">
        <ele>394</ele>
        <time>2018-09-30T09:32:49Z</time>
      </trkpt>
      <trkpt lat="43.21336" lon="0.15032">
        <ele>394</ele>
        <time>2018-09-30T09:32:50Z</time>
      </trkpt>
      <trkpt lat="43.21339" lon="0.15033">
        <ele>394</ele>
        <time>2018-09-30T09:32:51Z</time>
      </trkpt>
      <trkpt lat="43.21342" lon="0.15032">
        <ele>394</ele>
        <time>2018-09-30T09:32:52Z</time>
      </trkpt>
      <trkpt lat="43.21345" lon="0.15029">
        <ele>394</ele>
        <time>2018-09-30T09:32:53Z</time>
      </trkpt>
      <trkpt lat="43.21347" lon="0.15025">
        <ele>394</ele>
        <time>2018-09-30T09:32:54Z</time>
      </trkpt>
      <trkpt lat="43.21349" lon="0.15019">
        <ele>394</ele>
        <time>2018-09-30T09:32:55Z</time>
      </trkpt>
      <trkpt lat="43.2135" lon="0.15015">
        <ele>394</ele>
        <time>2018-09-30T09:32:56Z</time>
      </trkpt>
      <trkpt lat="43.21351" lon="0.15011">
        <ele>394</ele>
        <time>2018-09-30T09:32:57Z</time>
      </trkpt>
      <trkpt lat="43.21353" lon="0.15008">
        <ele>394</ele>
        <time>2018-09-30T09:32:58Z</time>
      </trkpt>
      <trkpt lat="43.21353" lon="0.15004">
        <ele>394</ele>
        <time>2018-09-30T09:32:59Z</time>
      </trkpt>
      <trkpt lat="43.21351" lon="0.14999">
        <ele>394</ele>
        <time>2018-09-30T09:33:00Z</time>
      </trkpt>
      <trkpt lat="43.21349" lon="0.14995">
        <ele>394</ele>
        <time>2018-09-30T09:33:01Z</time>
      </trkpt>
      <trkpt lat="43.21349" lon="0.14993">
        <ele>394</ele>
        <time>2018-09-30T09:33:02Z</time>
      </trkpt>
      <trkpt lat="43.21348" lon="0.14991">
        <ele>394</ele>
        <time>2018-09-30T09:33:03Z</time>
      </trkpt>
      <trkpt lat="43.21346" lon="0.14989">
        <ele>394</ele>
        <time>2018-09-30T09:33:04Z</time>
      </trkpt>
      <trkpt lat="43.21346" lon="0.14989">
        <ele>394</ele>
        <time>2018-09-30T09:33:05Z</time>
      </trkpt>
      <trkpt lat="43.21345" lon="0.14987">
        <ele>394</ele>
        <time>2018-09-30T09:33:06Z</time>
      </trkpt>
      <trkpt lat="43.21344" lon="0.14986">
        <ele>394</ele>
        <time>2018-09-30T09:33:07Z</time>
      </trkpt>
      <trkpt lat="43.21344" lon="0.14983">
        <ele>394</ele>
        <time>2018-09-30T09:33:08Z</time>
      </trkpt>
      <trkpt lat="43.21343" lon="0.14982">
        <ele>394</ele>
        <time>2018-09-30T09:33:09Z</time>
      </trkpt>
      <trkpt lat="43.21343" lon="0.14981">
        <ele>394</ele>
        <time>2018-09-30T09:33:10Z</time>
      </trkpt>
      <trkpt lat="43.21343" lon="0.14979">
        <ele>394</ele>
        <time>2018-09-30T09:33:11Z</time>
      </trkpt>
      <trkpt lat="43.21343" lon="0.14977">
        <ele>394</ele>
        <time>2018-09-30T09:33:12Z</time>
      </trkpt>
      <trkpt lat="43.21342" lon="0.14975">
        <ele>394</ele>
        <time>2018-09-30T09:33:13Z</time>
      </trkpt>
      <trkpt lat="43.2134" lon="0.14973">
        <ele>394</ele>
        <time>2018-09-30T09:33:14Z</time>
      </trkpt>
      <trkpt lat="43.21338" lon="0.14971">
        <ele>394</ele>
        <time>2018-09-30T09:33:15Z</time>
      </trkpt>
      <trkpt lat="43.21336" lon="0.14968">
        <ele>394</ele>
        <time>2018-09-30T09:33:16Z</time>
      </trkpt>
      <trkpt lat="43.21335" lon="0.14966">
        <ele>395</ele>
        <time>2018-09-30T09:33:17Z</time>
      </trkpt>
      <trkpt lat="43.21333" lon="0.14965">
        <ele>395</ele>
        <time>2018-09-30T09:33:18Z</time>
      </trkpt>
      <trkpt lat="43.21331" lon="0.14963">
        <ele>395</ele>
        <time>2018-09-30T09:33:19Z</time>
      </trkpt>
      <trkpt lat="43.21329" lon="0.14961">
        <ele>395</ele>
        <time>2018-09-30T09:33:20Z</time>
      </trkpt>
      <trkpt lat="43.21328" lon="0.14959">
        <ele>394</ele>
        <time>2018-09-30T09:33:21Z</time>
      </trkpt>
      <trkpt lat="43.21327" lon="0.14957">
        <ele>394</ele>
        <time>2018-09-30T09:33:22Z</time>
      </trkpt>
      <trkpt lat="43.21325" lon="0.14954">
        <ele>394</ele>
        <time>2018-09-30T09:33:23Z</time>
      </trkpt>
      <trkpt lat="43.21323" lon="0.14951">
        <ele>394</ele>
        <time>2018-09-30T09:33:24Z</time>
      </trkpt>
      <trkpt lat="43.21321" lon="0.14945">
        <ele>394</ele>
        <time>2018-09-30T09:33:25Z</time>
      </trkpt>
      <trkpt lat="43.21318" lon="0.1494">
        <ele>394</ele>
        <time>2018-09-30T09:33:26Z</time>
      </trkpt>
      <trkpt lat="43.21316" lon="0.14935">
        <ele>393</ele>
        <time>2018-09-30T09:33:27Z</time>
      </trkpt>
      <trkpt lat="43.21314" lon="0.1493">
        <ele>393</ele>
        <time>2018-09-30T09:33:28Z</time>
      </trkpt>
      <trkpt lat="43.21311" lon="0.14924">
        <ele>393</ele>
        <time>2018-09-30T09:33:29Z</time>
      </trkpt>
      <trkpt lat="43.21309" lon="0.14922">
        <ele>392</ele>
        <time>2018-09-30T09:33:30Z</time>
      </trkpt>
      <trkpt lat="43.21308" lon="0.1492">
        <ele>392</ele>
        <time>2018-09-30T09:33:31Z</time>
      </trkpt>
      <trkpt lat="43.21306" lon="0.14915">
        <ele>392</ele>
        <time>2018-09-30T09:33:32Z</time>
      </trkpt>
      <trkpt lat="43.21304" lon="0.14911">
        <ele>392</ele>
        <time>2018-09-30T09:33:33Z</time>
      </trkpt>
      <trkpt lat="43.21301" lon="0.14906">
        <ele>392</ele>
        <time>2018-09-30T09:33:34Z</time>
      </trkpt>
      <trkpt lat="43.21298" lon="0.14901">
        <ele>391</ele>
        <time>2018-09-30T09:33:35Z</time>
      </trkpt>
      <trkpt lat="43.21295" lon="0.14896">
        <ele>391</ele>
        <time>2018-09-30T09:33:36Z</time>
      </trkpt>
      <trkpt lat="43.21293" lon="0.14891">
        <ele>391</ele>
        <time>2018-09-30T09:33:37Z</time>
      </trkpt>
      <trkpt lat="43.2129" lon="0.14885">
        <ele>391</ele>
        <time>2018-09-30T09:33:38Z</time>
      </trkpt>
      <trkpt lat="43.21284" lon="0.14875">
        <ele>390</ele>
        <time>2018-09-30T09:33:39Z</time>
      </trkpt>
      <trkpt lat="43.21282" lon="0.14871">
        <ele>388</ele>
        <time>2018-09-30T09:33:40Z</time>
      </trkpt>
      <trkpt lat="43.2128" lon="0.14867">
        <ele>387</ele>
        <time>2018-09-30T09:33:41Z</time>
      </trkpt>
      <trkpt lat="43.21277" lon="0.14865">
        <ele>387</ele>
        <time>2018-09-30T09:33:42Z</time>
      </trkpt>
      <trkpt lat="43.21276" lon="0.14863">
        <ele>386</ele>
        <time>2018-09-30T09:33:43Z</time>
      </trkpt>
      <trkpt lat="43.21271" lon="0.14858">
        <ele>386</ele>
        <time>2018-09-30T09:33:44Z</time>
      </trkpt>
      <trkpt lat="43.21268" lon="0.14856">
        <ele>385</ele>
        <time>2018-09-30T09:33:45Z</time>
      </trkpt>
      <trkpt lat="43.21266" lon="0.14851">
        <ele>385</ele>
        <time>2018-09-30T09:33:46Z</time>
      </trkpt>
      <trkpt lat="43.2126" lon="0.14842">
        <ele>384</ele>
        <time>2018-09-30T09:33:47Z</time>
      </trkpt>
      <trkpt lat="43.21259" lon="0.14837">
        <ele>384</ele>
        <time>2018-09-30T09:33:48Z</time>
      </trkpt>
      <trkpt lat="43.21258" lon="0.14832">
        <ele>384</ele>
        <time>2018-09-30T09:33:49Z</time>
      </trkpt>
      <trkpt lat="43.21257" lon="0.14826">
        <ele>383</ele>
        <time>2018-09-30T09:33:50Z</time>
      </trkpt>
      <trkpt lat="43.21257" lon="0.1482">
        <ele>383</ele>
        <time>2018-09-30T09:33:51Z</time>
      </trkpt>
      <trkpt lat="43.21254" lon="0.14813">
        <ele>383</ele>
        <time>2018-09-30T09:33:52Z</time>
      </trkpt>
      <trkpt lat="43.21252" lon="0.14808">
        <ele>383</ele>
        <time>2018-09-30T09:33:53Z</time>
      </trkpt>
      <trkpt lat="43.21249" lon="0.14802">
        <ele>380</ele>
        <time>2018-09-30T09:33:54Z</time>
      </trkpt>
      <trkpt lat="43.21242" lon="0.14794">
        <ele>379</ele>
        <time>2018-09-30T09:33:55Z</time>
      </trkpt>
      <trkpt lat="43.21236" lon="0.14787">
        <ele>378</ele>
        <time>2018-09-30T09:33:56Z</time>
      </trkpt>
      <trkpt lat="43.21232" lon="0.14782">
        <ele>378</ele>
        <time>2018-09-30T09:33:57Z</time>
      </trkpt>
      <trkpt lat="43.21228" lon="0.14777">
        <ele>377</ele>
        <time>2018-09-30T09:33:58Z</time>
      </trkpt>
      <trkpt lat="43.21223" lon="0.14768">
        <ele>377</ele>
        <time>2018-09-30T09:33:59Z</time>
      </trkpt>
      <trkpt lat="43.21221" lon="0.14763">
        <ele>377</ele>
        <time>2018-09-30T09:34:00Z</time>
      </trkpt>
      <trkpt lat="43.21218" lon="0.14757">
        <ele>376</ele>
        <time>2018-09-30T09:34:01Z</time>
      </trkpt>
      <trkpt lat="43.21216" lon="0.14752">
        <ele>376</ele>
        <time>2018-09-30T09:34:02Z</time>
      </trkpt>
      <trkpt lat="43.21214" lon="0.14748">
        <ele>376</ele>
        <time>2018-09-30T09:34:03Z</time>
      </trkpt>
      <trkpt lat="43.21212" lon="0.14742">
        <ele>376</ele>
        <time>2018-09-30T09:34:04Z</time>
      </trkpt>
      <trkpt lat="43.21211" lon="0.14737">
        <ele>374</ele>
        <time>2018-09-30T09:34:05Z</time>
      </trkpt>
      <trkpt lat="43.21209" lon="0.14734">
        <ele>373</ele>
        <time>2018-09-30T09:34:06Z</time>
      </trkpt>
      <trkpt lat="43.21205" lon="0.14727">
        <ele>373</ele>
        <time>2018-09-30T09:34:07Z</time>
      </trkpt>
      <trkpt lat="43.21202" lon="0.14723">
        <ele>372</ele>
        <time>2018-09-30T09:34:08Z</time>
      </trkpt>
      <trkpt lat="43.21197" lon="0.14715">
        <ele>372</ele>
        <time>2018-09-30T09:34:09Z</time>
      </trkpt>
      <trkpt lat="43.21193" lon="0.1471">
        <ele>372</ele>
        <time>2018-09-30T09:34:10Z</time>
      </trkpt>
      <trkpt lat="43.21189" lon="0.14707">
        <ele>371</ele>
        <time>2018-09-30T09:34:11Z</time>
      </trkpt>
      <trkpt lat="43.21186" lon="0.14704">
        <ele>371</ele>
        <time>2018-09-30T09:34:12Z</time>
      </trkpt>
      <trkpt lat="43.21182" lon="0.14701">
        <ele>371</ele>
        <time>2018-09-30T09:34:13Z</time>
      </trkpt>
      <trkpt lat="43.2118" lon="0.14699">
        <ele>371</ele>
        <time>2018-09-30T09:34:14Z</time>
      </trkpt>
      <trkpt lat="43.21178" lon="0.14695">
        <ele>371</ele>
        <time>2018-09-30T09:34:15Z</time>
      </trkpt>
      <trkpt lat="43.21169" lon="0.14687">
        <ele>370</ele>
        <time>2018-09-30T09:34:16Z</time>
      </trkpt>
      <trkpt lat="43.21163" lon="0.14682">
        <ele>369</ele>
        <time>2018-09-30T09:34:17Z</time>
      </trkpt>
      <trkpt lat="43.21159" lon="0.14678">
        <ele>368</ele>
        <time>2018-09-30T09:34:18Z</time>
      </trkpt>
      <trkpt lat="43.21153" lon="0.14672">
        <ele>368</ele>
        <time>2018-09-30T09:34:19Z</time>
      </trkpt>
      <trkpt lat="43.21149" lon="0.14667">
        <ele>368</ele>
        <time>2018-09-30T09:34:20Z</time>
      </trkpt>
      <trkpt lat="43.21145" lon="0.14663">
        <ele>367</ele>
        <time>2018-09-30T09:34:21Z</time>
      </trkpt>
      <trkpt lat="43.21143" lon="0.14661">
        <ele>367</ele>
        <time>2018-09-30T09:34:22Z</time>
      </trkpt>
      <trkpt lat="43.21142" lon="0.14659">
        <ele>367</ele>
        <time>2018-09-30T09:34:23Z</time>
      </trkpt>
      <trkpt lat="43.21137" lon="0.14653">
        <ele>367</ele>
        <time>2018-09-30T09:34:24Z</time>
      </trkpt>
      <trkpt lat="43.21136" lon="0.14651">
        <ele>367</ele>
        <time>2018-09-30T09:34:25Z</time>
      </trkpt>
      <trkpt lat="43.21135" lon="0.14647">
        <ele>366</ele>
        <time>2018-09-30T09:34:26Z</time>
      </trkpt>
      <trkpt lat="43.21134" lon="0.14643">
        <ele>366</ele>
        <time>2018-09-30T09:34:27Z</time>
      </trkpt>
      <trkpt lat="43.21133" lon="0.14639">
        <ele>366</ele>
        <time>2018-09-30T09:34:28Z</time>
      </trkpt>
      <trkpt lat="43.21132" lon="0.14636">
        <ele>366</ele>
        <time>2018-09-30T09:34:29Z</time>
      </trkpt>
      <trkpt lat="43.21131" lon="0.14633">
        <ele>365</ele>
        <time>2018-09-30T09:34:30Z</time>
      </trkpt>
      <trkpt lat="43.2113" lon="0.1463">
        <ele>365</ele>
        <time>2018-09-30T09:34:31Z</time>
      </trkpt>
      <trkpt lat="43.21126" lon="0.14622">
        <ele>365</ele>
        <time>2018-09-30T09:34:32Z</time>
      </trkpt>
      <trkpt lat="43.21125" lon="0.1462">
        <ele>362</ele>
        <time>2018-09-30T09:34:33Z</time>
      </trkpt>
      <trkpt lat="43.21122" lon="0.14614">
        <ele>361</ele>
        <time>2018-09-30T09:34:34Z</time>
      </trkpt>
      <trkpt lat="43.21121" lon="0.1461">
        <ele>361</ele>
        <time>2018-09-30T09:34:35Z</time>
      </trkpt>
      <trkpt lat="43.2112" lon="0.14606">
        <ele>360</ele>
        <time>2018-09-30T09:34:36Z</time>
      </trkpt>
      <trkpt lat="43.21119" lon="0.14603">
        <ele>360</ele>
        <time>2018-09-30T09:34:37Z</time>
      </trkpt>
      <trkpt lat="43.21117" lon="0.14597">
        <ele>360</ele>
        <time>2018-09-30T09:34:38Z</time>
      </trkpt>
      <trkpt lat="43.21116" lon="0.14594">
        <ele>360</ele>
        <time>2018-09-30T09:34:39Z</time>
      </trkpt>
      <trkpt lat="43.21116" lon="0.14591">
        <ele>359</ele>
        <time>2018-09-30T09:34:40Z</time>
      </trkpt>
      <trkpt lat="43.21117" lon="0.14588">
        <ele>359</ele>
        <time>2018-09-30T09:34:41Z</time>
      </trkpt>
      <trkpt lat="43.21118" lon="0.14586">
        <ele>359</ele>
        <time>2018-09-30T09:34:42Z</time>
      </trkpt>
      <trkpt lat="43.21118" lon="0.14585">
        <ele>359</ele>
        <time>2018-09-30T09:34:43Z</time>
      </trkpt>
      <trkpt lat="43.21118" lon="0.14584">
        <ele>359</ele>
        <time>2018-09-30T09:34:44Z</time>
      </trkpt>
      <trkpt lat="43.21119" lon="0.14583">
        <ele>359</ele>
        <time>2018-09-30T09:34:45Z</time>
      </trkpt>
      <trkpt lat="43.21119" lon="0.14581">
        <ele>359</ele>
        <time>2018-09-30T09:34:46Z</time>
      </trkpt>
      <trkpt lat="43.21118" lon="0.14579">
        <ele>359</ele>
        <time>2018-09-30T09:34:47Z</time>
      </trkpt>
      <trkpt lat="43.21117" lon="0.14577">
        <ele>359</ele>
        <time>2018-09-30T09:34:48Z</time>
      </trkpt>
      <trkpt lat="43.21115" lon="0.14575">
        <ele>359</ele>
        <time>2018-09-30T09:34:49Z</time>
      </trkpt>
      <trkpt lat="43.21113" lon="0.14572">
        <ele>359</ele>
        <time>2018-09-30T09:34:50Z</time>
      </trkpt>
      <trkpt lat="43.21111" lon="0.14569">
        <ele>359</ele>
        <time>2018-09-30T09:34:51Z</time>
      </trkpt>
      <trkpt lat="43.21109" lon="0.14567">
        <ele>359</ele>
        <time>2018-09-30T09:34:52Z</time>
      </trkpt>
      <trkpt lat="43.21107" lon="0.14565">
        <ele>359</ele>
        <time>2018-09-30T09:34:53Z</time>
      </trkpt>
      <trkpt lat="43.21105" lon="0.14564">
        <ele>359</ele>
        <time>2018-09-30T09:34:54Z</time>
      </trkpt>
      <trkpt lat="43.21103" lon="0.14563">
        <ele>359</ele>
        <time>2018-09-30T09:34:55Z</time>
      </trkpt>
      <trkpt lat="43.21101" lon="0.14562">
        <ele>359</ele>
        <time>2018-09-30T09:34:56Z</time>
      </trkpt>
      <trkpt lat="43.21099" lon="0.1456">
        <ele>359</ele>
        <time>2018-09-30T09:34:57Z</time>
      </trkpt>
      <trkpt lat="43.21098" lon="0.14557">
        <ele>359</ele>
        <time>2018-09-30T09:34:58Z</time>
      </trkpt>
      <trkpt lat="43.21097" lon="0.14556">
        <ele>359</ele>
        <time>2018-09-30T09:34:59Z</time>
      </trkpt>
      <trkpt lat="43.21097" lon="0.14554">
        <ele>359</ele>
        <time>2018-09-30T09:35:00Z</time>
      </trkpt>
      <trkpt lat="43.21097" lon="0.14552">
        <ele>359</ele>
        <time>2018-09-30T09:35:01Z</time>
      </trkpt>
      <trkpt lat="43.21098" lon="0.1455">
        <ele>359</ele>
        <time>2018-09-30T09:35:02Z</time>
      </trkpt>
      <trkpt lat="43.21099" lon="0.14549">
        <ele>359</ele>
        <time>2018-09-30T09:35:03Z</time>
      </trkpt>
      <trkpt lat="43.211" lon="0.14548">
        <ele>359</ele>
        <time>2018-09-30T09:35:04Z</time>
      </trkpt>
      <trkpt lat="43.211" lon="0.14547">
        <ele>359</ele>
        <time>2018-09-30T09:35:05Z</time>
      </trkpt>
      <trkpt lat="43.21099" lon="0.14545">
        <ele>360</ele>
        <time>2018-09-30T09:35:06Z</time>
      </trkpt>
      <trkpt lat="43.211" lon="0.14544">
        <ele>360</ele>
        <time>2018-09-30T09:35:07Z</time>
      </trkpt>
      <trkpt lat="43.21101" lon="0.14542">
        <ele>360</ele>
        <time>2018-09-30T09:35:08Z</time>
      </trkpt>
      <trkpt lat="43.21101" lon="0.1454">
        <ele>360</ele>
        <time>2018-09-30T09:35:09Z</time>
      </trkpt>
      <trkpt lat="43.21101" lon="0.14538">
        <ele>360</ele>
        <time>2018-09-30T09:35:10Z</time>
      </trkpt>
      <trkpt lat="43.211" lon="0.14535">
        <ele>360</ele>
        <time>2018-09-30T09:35:11Z</time>
      </trkpt>
      <trkpt lat="43.21099" lon="0.14532">
        <ele>360</ele>
        <time>2018-09-30T09:35:12Z</time>
      </trkpt>
      <trkpt lat="43.21098" lon="0.14528">
        <ele>360</ele>
        <time>2018-09-30T09:35:13Z</time>
      </trkpt>
      <trkpt lat="43.21098" lon="0.14524">
        <ele>360</ele>
        <time>2018-09-30T09:35:14Z</time>
      </trkpt>
      <trkpt lat="43.21098" lon="0.1452">
        <ele>360</ele>
        <time>2018-09-30T09:35:15Z</time>
      </trkpt>
      <trkpt lat="43.21097" lon="0.14516">
        <ele>360</ele>
        <time>2018-09-30T09:35:16Z</time>
      </trkpt>
      <trkpt lat="43.21096" lon="0.14513">
        <ele>360</ele>
        <time>2018-09-30T09:35:17Z</time>
      </trkpt>
      <trkpt lat="43.21096" lon="0.14508">
        <ele>360</ele>
        <time>2018-09-30T09:35:18Z</time>
      </trkpt>
      <trkpt lat="43.21095" lon="0.14506">
        <ele>360</ele>
        <time>2018-09-30T09:35:19Z</time>
      </trkpt>
      <trkpt lat="43.21095" lon="0.14504">
        <ele>360</ele>
        <time>2018-09-30T09:35:20Z</time>
      </trkpt>
      <trkpt lat="43.21093" lon="0.14498">
        <ele>360</ele>
        <time>2018-09-30T09:35:21Z</time>
      </trkpt>
      <trkpt lat="43.21093" lon="0.14494">
        <ele>360</ele>
        <time>2018-09-30T09:35:22Z</time>
      </trkpt>
      <trkpt lat="43.21092" lon="0.1449">
        <ele>361</ele>
        <time>2018-09-30T09:35:23Z</time>
      </trkpt>
      <trkpt lat="43.21092" lon="0.14485">
        <ele>361</ele>
        <time>2018-09-30T09:35:24Z</time>
      </trkpt>
      <trkpt lat="43.21091" lon="0.14479">
        <ele>361</ele>
        <time>2018-09-30T09:35:25Z</time>
      </trkpt>
      <trkpt lat="43.21091" lon="0.14473">
        <ele>361</ele>
        <time>2018-09-30T09:35:26Z</time>
      </trkpt>
      <trkpt lat="43.2109" lon="0.14467">
        <ele>360</ele>
        <time>2018-09-30T09:35:27Z</time>
      </trkpt>
      <trkpt lat="43.21089" lon="0.14462">
        <ele>360</ele>
        <time>2018-09-30T09:35:28Z</time>
      </trkpt>
      <trkpt lat="43.21089" lon="0.14456">
        <ele>360</ele>
        <time>2018-09-30T09:35:29Z</time>
      </trkpt>
      <trkpt lat="43.21087" lon="0.14449">
        <ele>360</ele>
        <time>2018-09-30T09:35:30Z</time>
      </trkpt>
      <trkpt lat="43.21087" lon="0.14441">
        <ele>360</ele>
        <time>2018-09-30T09:35:31Z</time>
      </trkpt>
      <trkpt lat="43.21085" lon="0.14436">
        <ele>360</ele>
        <time>2018-09-30T09:35:32Z</time>
      </trkpt>
      <trkpt lat="43.21085" lon="0.1443">
        <ele>360</ele>
        <time>2018-09-30T09:35:33Z</time>
      </trkpt>
      <trkpt lat="43.21085" lon="0.14422">
        <ele>360</ele>
        <time>2018-09-30T09:35:34Z</time>
      </trkpt>
      <trkpt lat="43.21083" lon="0.14409">
        <ele>359</ele>
        <time>2018-09-30T09:35:35Z</time>
      </trkpt>
      <trkpt lat="43.21082" lon="0.14399">
        <ele>359</ele>
        <time>2018-09-30T09:35:36Z</time>
      </trkpt>
      <trkpt lat="43.21082" lon="0.14393">
        <ele>359</ele>
        <time>2018-09-30T09:35:37Z</time>
      </trkpt>
      <trkpt lat="43.21081" lon="0.14387">
        <ele>358</ele>
        <time>2018-09-30T09:35:38Z</time>
      </trkpt>
      <trkpt lat="43.2108" lon="0.14382">
        <ele>358</ele>
        <time>2018-09-30T09:35:39Z</time>
      </trkpt>
      <trkpt lat="43.2108" lon="0.14377">
        <ele>358</ele>
        <time>2018-09-30T09:35:40Z</time>
      </trkpt>
      <trkpt lat="43.21081" lon="0.14371">
        <ele>358</ele>
        <time>2018-09-30T09:35:41Z</time>
      </trkpt>
      <trkpt lat="43.21082" lon="0.14367">
        <ele>358</ele>
        <time>2018-09-30T09:35:42Z</time>
      </trkpt>
      <trkpt lat="43.21082" lon="0.14362">
        <ele>358</ele>
        <time>2018-09-30T09:35:43Z</time>
      </trkpt>
      <trkpt lat="43.21082" lon="0.14357">
        <ele>357</ele>
        <time>2018-09-30T09:35:44Z</time>
      </trkpt>
      <trkpt lat="43.21082" lon="0.14351">
        <ele>357</ele>
        <time>2018-09-30T09:35:45Z</time>
      </trkpt>
      <trkpt lat="43.21082" lon="0.14345">
        <ele>357</ele>
        <time>2018-09-30T09:35:46Z</time>
      </trkpt>
      <trkpt lat="43.21082" lon="0.1434">
        <ele>357</ele>
        <time>2018-09-30T09:35:47Z</time>
      </trkpt>
      <trkpt lat="43.21082" lon="0.14333">
        <ele>357</ele>
        <time>2018-09-30T09:35:48Z</time>
      </trkpt>
      <trkpt lat="43.21082" lon="0.14327">
        <ele>357</ele>
        <time>2018-09-30T09:35:49Z</time>
      </trkpt>
      <trkpt lat="43.21081" lon="0.14322">
        <ele>357</ele>
        <time>2018-09-30T09:35:50Z</time>
      </trkpt>
      <trkpt lat="43.21079" lon="0.14311">
        <ele>357</ele>
        <time>2018-09-30T09:35:51Z</time>
      </trkpt>
      <trkpt lat="43.21077" lon="0.14301">
        <ele>356</ele>
        <time>2018-09-30T09:35:52Z</time>
      </trkpt>
      <trkpt lat="43.21075" lon="0.14295">
        <ele>356</ele>
        <time>2018-09-30T09:35:53Z</time>
      </trkpt>
      <trkpt lat="43.21074" lon="0.14288">
        <ele>356</ele>
        <time>2018-09-30T09:35:54Z</time>
      </trkpt>
      <trkpt lat="43.21073" lon="0.14282">
        <ele>356</ele>
        <time>2018-09-30T09:35:55Z</time>
      </trkpt>
      <trkpt lat="43.21073" lon="0.14278">
        <ele>356</ele>
        <time>2018-09-30T09:35:56Z</time>
      </trkpt>
      <trkpt lat="43.21073" lon="0.14276">
        <ele>356</ele>
        <time>2018-09-30T09:35:57Z</time>
      </trkpt>
      <trkpt lat="43.21073" lon="0.14273">
        <ele>356</ele>
        <time>2018-09-30T09:35:58Z</time>
      </trkpt>
      <trkpt lat="43.21073" lon="0.14269">
        <ele>356</ele>
        <time>2018-09-30T09:35:59Z</time>
      </trkpt>
      <trkpt lat="43.21072" lon="0.14266">
        <ele>356</ele>
        <time>2018-09-30T09:36:00Z</time>
      </trkpt>
      <trkpt lat="43.21072" lon="0.14262">
        <ele>356</ele>
        <time>2018-09-30T09:36:01Z</time>
      </trkpt>
      <trkpt lat="43.21072" lon="0.14258">
        <ele>356</ele>
        <time>2018-09-30T09:36:02Z</time>
      </trkpt>
      <trkpt lat="43.21072" lon="0.14255">
        <ele>356</ele>
        <time>2018-09-30T09:36:03Z</time>
      </trkpt>
      <trkpt lat="43.21072" lon="0.14251">
        <ele>356</ele>
        <time>2018-09-30T09:36:04Z</time>
      </trkpt>
      <trkpt lat="43.21072" lon="0.14247">
        <ele>356</ele>
        <time>2018-09-30T09:36:05Z</time>
      </trkpt>
      <trkpt lat="43.21071" lon="0.14243">
        <ele>356</ele>
        <time>2018-09-30T09:36:06Z</time>
      </trkpt>
      <trkpt lat="43.2107" lon="0.14237">
        <ele>356</ele>
        <time>2018-09-30T09:36:07Z</time>
      </trkpt>
      <trkpt lat="43.21069" lon="0.14233">
        <ele>356</ele>
        <time>2018-09-30T09:36:08Z</time>
      </trkpt>
      <trkpt lat="43.21068" lon="0.14226">
        <ele>356</ele>
        <time>2018-09-30T09:36:09Z</time>
      </trkpt>
      <trkpt lat="43.21067" lon="0.14219">
        <ele>355</ele>
        <time>2018-09-30T09:36:10Z</time>
      </trkpt>
      <trkpt lat="43.21066" lon="0.14213">
        <ele>355</ele>
        <time>2018-09-30T09:36:11Z</time>
      </trkpt>
      <trkpt lat="43.21066" lon="0.14207">
        <ele>355</ele>
        <time>2018-09-30T09:36:12Z</time>
      </trkpt>
      <trkpt lat="43.21065" lon="0.142">
        <ele>355</ele>
        <time>2018-09-30T09:36:13Z</time>
      </trkpt>
      <trkpt lat="43.21063" lon="0.14189">
        <ele>355</ele>
        <time>2018-09-30T09:36:14Z</time>
      </trkpt>
      <trkpt lat="43.21063" lon="0.14186">
        <ele>355</ele>
        <time>2018-09-30T09:36:15Z</time>
      </trkpt>
      <trkpt lat="43.21062" lon="0.1418">
        <ele>355</ele>
        <time>2018-09-30T09:36:16Z</time>
      </trkpt>
      <trkpt lat="43.21062" lon="0.14175">
        <ele>355</ele>
        <time>2018-09-30T09:36:17Z</time>
      </trkpt>
      <trkpt lat="43.21061" lon="0.1417">
        <ele>354</ele>
        <time>2018-09-30T09:36:18Z</time>
      </trkpt>
      <trkpt lat="43.21061" lon="0.14165">
        <ele>354</ele>
        <time>2018-09-30T09:36:19Z</time>
      </trkpt>
      <trkpt lat="43.21059" lon="0.14154">
        <ele>354</ele>
        <time>2018-09-30T09:36:20Z</time>
      </trkpt>
      <trkpt lat="43.21059" lon="0.14145">
        <ele>354</ele>
        <time>2018-09-30T09:36:21Z</time>
      </trkpt>
      <trkpt lat="43.21058" lon="0.14138">
        <ele>353</ele>
        <time>2018-09-30T09:36:22Z</time>
      </trkpt>
      <trkpt lat="43.21058" lon="0.14131">
        <ele>353</ele>
        <time>2018-09-30T09:36:23Z</time>
      </trkpt>
      <trkpt lat="43.21057" lon="0.14126">
        <ele>353</ele>
        <time>2018-09-30T09:36:24Z</time>
      </trkpt>
      <trkpt lat="43.21056" lon="0.14121">
        <ele>353</ele>
        <time>2018-09-30T09:36:25Z</time>
      </trkpt>
      <trkpt lat="43.21056" lon="0.14116">
        <ele>353</ele>
        <time>2018-09-30T09:36:26Z</time>
      </trkpt>
      <trkpt lat="43.21055" lon="0.14112">
        <ele>353</ele>
        <time>2018-09-30T09:36:27Z</time>
      </trkpt>
      <trkpt lat="43.21054" lon="0.14109">
        <ele>353</ele>
        <time>2018-09-30T09:36:28Z</time>
      </trkpt>
      <trkpt lat="43.21053" lon="0.14106">
        <ele>353</ele>
        <time>2018-09-30T09:36:29Z</time>
      </trkpt>
      <trkpt lat="43.21052" lon="0.14102">
        <ele>354</ele>
        <time>2018-09-30T09:36:30Z</time>
      </trkpt>
      <trkpt lat="43.21052" lon="0.14098">
        <ele>354</ele>
        <time>2018-09-30T09:36:31Z</time>
      </trkpt>
      <trkpt lat="43.21052" lon="0.14094">
        <ele>354</ele>
        <time>2018-09-30T09:36:32Z</time>
      </trkpt>
      <trkpt lat="43.21052" lon="0.14089">
        <ele>354</ele>
        <time>2018-09-30T09:36:33Z</time>
      </trkpt>
      <trkpt lat="43.21052" lon="0.14086">
        <ele>354</ele>
        <time>2018-09-30T09:36:34Z</time>
      </trkpt>
      <trkpt lat="43.21052" lon="0.14083">
        <ele>354</ele>
        <time>2018-09-30T09:36:35Z</time>
      </trkpt>
      <trkpt lat="43.21053" lon="0.1408">
        <ele>354</ele>
        <time>2018-09-30T09:36:36Z</time>
      </trkpt>
      <trkpt lat="43.21053" lon="0.14076">
        <ele>354</ele>
        <time>2018-09-30T09:36:37Z</time>
      </trkpt>
      <trkpt lat="43.21053" lon="0.14073">
        <ele>354</ele>
        <time>2018-09-30T09:36:38Z</time>
      </trkpt>
      <trkpt lat="43.21053" lon="0.14069">
        <ele>355</ele>
        <time>2018-09-30T09:36:39Z</time>
      </trkpt>
      <trkpt lat="43.21053" lon="0.14066">
        <ele>355</ele>
        <time>2018-09-30T09:36:40Z</time>
      </trkpt>
      <trkpt lat="43.21053" lon="0.14061">
        <ele>355</ele>
        <time>2018-09-30T09:36:41Z</time>
      </trkpt>
      <trkpt lat="43.21053" lon="0.14057">
        <ele>356</ele>
        <time>2018-09-30T09:36:42Z</time>
      </trkpt>
      <trkpt lat="43.21054" lon="0.14054">
        <ele>357</ele>
        <time>2018-09-30T09:36:43Z</time>
      </trkpt>
      <trkpt lat="43.21054" lon="0.1405">
        <ele>357</ele>
        <time>2018-09-30T09:36:44Z</time>
      </trkpt>
      <trkpt lat="43.21053" lon="0.14045">
        <ele>358</ele>
        <time>2018-09-30T09:36:45Z</time>
      </trkpt>
      <trkpt lat="43.21053" lon="0.14042">
        <ele>358</ele>
        <time>2018-09-30T09:36:46Z</time>
      </trkpt>
      <trkpt lat="43.21051" lon="0.14036">
        <ele>358</ele>
        <time>2018-09-30T09:36:47Z</time>
      </trkpt>
      <trkpt lat="43.2105" lon="0.14031">
        <ele>358</ele>
        <time>2018-09-30T09:36:48Z</time>
      </trkpt>
      <trkpt lat="43.2105" lon="0.14027">
        <ele>358</ele>
        <time>2018-09-30T09:36:49Z</time>
      </trkpt>
      <trkpt lat="43.2105" lon="0.14023">
        <ele>358</ele>
        <time>2018-09-30T09:36:50Z</time>
      </trkpt>
      <trkpt lat="43.2105" lon="0.14019">
        <ele>358</ele>
        <time>2018-09-30T09:36:51Z</time>
      </trkpt>
      <trkpt lat="43.2105" lon="0.14014">
        <ele>359</ele>
        <time>2018-09-30T09:36:52Z</time>
      </trkpt>
      <trkpt lat="43.21049" lon="0.14008">
        <ele>359</ele>
        <time>2018-09-30T09:36:53Z</time>
      </trkpt>
      <trkpt lat="43.21049" lon="0.14002">
        <ele>359</ele>
        <time>2018-09-30T09:36:54Z</time>
      </trkpt>
      <trkpt lat="43.21048" lon="0.13997">
        <ele>359</ele>
        <time>2018-09-30T09:36:55Z</time>
      </trkpt>
      <trkpt lat="43.21047" lon="0.13993">
        <ele>359</ele>
        <time>2018-09-30T09:36:56Z</time>
      </trkpt>
      <trkpt lat="43.21046" lon="0.13988">
        <ele>359</ele>
        <time>2018-09-30T09:36:57Z</time>
      </trkpt>
      <trkpt lat="43.21044" lon="0.13984">
        <ele>359</ele>
        <time>2018-09-30T09:36:58Z</time>
      </trkpt>
      <trkpt lat="43.21042" lon="0.13979">
        <ele>360</ele>
        <time>2018-09-30T09:36:59Z</time>
      </trkpt>
      <trkpt lat="43.21042" lon="0.13976">
        <ele>361</ele>
        <time>2018-09-30T09:37:00Z</time>
      </trkpt>
      <trkpt lat="43.21041" lon="0.13971">
        <ele>361</ele>
        <time>2018-09-30T09:37:01Z</time>
      </trkpt>
      <trkpt lat="43.2104" lon="0.13968">
        <ele>361</ele>
        <time>2018-09-30T09:37:02Z</time>
      </trkpt>
      <trkpt lat="43.21039" lon="0.13963">
        <ele>362</ele>
        <time>2018-09-30T09:37:03Z</time>
      </trkpt>
      <trkpt lat="43.21038" lon="0.13959">
        <ele>362</ele>
        <time>2018-09-30T09:37:04Z</time>
      </trkpt>
      <trkpt lat="43.21037" lon="0.13955">
        <ele>362</ele>
        <time>2018-09-30T09:37:05Z</time>
      </trkpt>
      <trkpt lat="43.21036" lon="0.13952">
        <ele>362</ele>
        <time>2018-09-30T09:37:06Z</time>
      </trkpt>
      <trkpt lat="43.21036" lon="0.13949">
        <ele>363</ele>
        <time>2018-09-30T09:37:07Z</time>
      </trkpt>
      <trkpt lat="43.21036" lon="0.13947">
        <ele>363</ele>
        <time>2018-09-30T09:37:08Z</time>
      </trkpt>
      <trkpt lat="43.21035" lon="0.13944">
        <ele>363</ele>
        <time>2018-09-30T09:37:09Z</time>
      </trkpt>
      <trkpt lat="43.21035" lon="0.13942">
        <ele>363</ele>
        <time>2018-09-30T09:37:10Z</time>
      </trkpt>
      <trkpt lat="43.21035" lon="0.13939">
        <ele>363</ele>
        <time>2018-09-30T09:37:11Z</time>
      </trkpt>
      <trkpt lat="43.21034" lon="0.13937">
        <ele>364</ele>
        <time>2018-09-30T09:37:12Z</time>
      </trkpt>
      <trkpt lat="43.21033" lon="0.13935">
        <ele>364</ele>
        <time>2018-09-30T09:37:13Z</time>
      </trkpt>
      <trkpt lat="43.21033" lon="0.13932">
        <ele>364</ele>
        <time>2018-09-30T09:37:14Z</time>
      </trkpt>
      <trkpt lat="43.21032" lon="0.13929">
        <ele>364</ele>
        <time>2018-09-30T09:37:15Z</time>
      </trkpt>
      <trkpt lat="43.21032" lon="0.13927">
        <ele>365</ele>
        <time>2018-09-30T09:37:16Z</time>
      </trkpt>
      <trkpt lat="43.21031" lon="0.13925">
        <ele>365</ele>
        <time>2018-09-30T09:37:17Z</time>
      </trkpt>
      <trkpt lat="43.21031" lon="0.13923">
        <ele>365</ele>
        <time>2018-09-30T09:37:18Z</time>
      </trkpt>
      <trkpt lat="43.21031" lon="0.13921">
        <ele>365</ele>
        <time>2018-09-30T09:37:19Z</time>
      </trkpt>
      <trkpt lat="43.2103" lon="0.13919">
        <ele>365</ele>
        <time>2018-09-30T09:37:20Z</time>
      </trkpt>
      <trkpt lat="43.2103" lon="0.13917">
        <ele>366</ele>
        <time>2018-09-30T09:37:21Z</time>
      </trkpt>
      <trkpt lat="43.2103" lon="0.13915">
        <ele>366</ele>
        <time>2018-09-30T09:37:22Z</time>
      </trkpt>
      <trkpt lat="43.2103" lon="0.13913">
        <ele>366</ele>
        <time>2018-09-30T09:37:23Z</time>
      </trkpt>
      <trkpt lat="43.2103" lon="0.13911">
        <ele>366</ele>
        <time>2018-09-30T09:37:24Z</time>
      </trkpt>
      <trkpt lat="43.21029" lon="0.1391">
        <ele>367</ele>
        <time>2018-09-30T09:37:25Z</time>
      </trkpt>
      <trkpt lat="43.21029" lon="0.13908">
        <ele>367</ele>
        <time>2018-09-30T09:37:26Z</time>
      </trkpt>
      <trkpt lat="43.21029" lon="0.13907">
        <ele>367</ele>
        <time>2018-09-30T09:37:27Z</time>
      </trkpt>
      <trkpt lat="43.21029" lon="0.13906">
        <ele>368</ele>
        <time>2018-09-30T09:37:28Z</time>
      </trkpt>
      <trkpt lat="43.21029" lon="0.13905">
        <ele>368</ele>
        <time>2018-09-30T09:37:29Z</time>
      </trkpt>
      <trkpt lat="43.21029" lon="0.13903">
        <ele>368</ele>
        <time>2018-09-30T09:37:30Z</time>
      </trkpt>
      <trkpt lat="43.21029" lon="0.13901">
        <ele>373</ele>
        <time>2018-09-30T09:37:31Z</time>
      </trkpt>
      <trkpt lat="43.21029" lon="0.13899">
        <ele>375</ele>
        <time>2018-09-30T09:37:32Z</time>
      </trkpt>
      <trkpt lat="43.21029" lon="0.13896">
        <ele>376</ele>
        <time>2018-09-30T09:37:33Z</time>
      </trkpt>
      <trkpt lat="43.21029" lon="0.13894">
        <ele>376</ele>
        <time>2018-09-30T09:37:34Z</time>
      </trkpt>
      <trkpt lat="43.21029" lon="0.13892">
        <ele>377</ele>
        <time>2018-09-30T09:37:35Z</time>
      </trkpt>
      <trkpt lat="43.21029" lon="0.1389">
        <ele>377</ele>
        <time>2018-09-30T09:37:36Z</time>
      </trkpt>
      <trkpt lat="43.21029" lon="0.13887">
        <ele>378</ele>
        <time>2018-09-30T09:37:37Z</time>
      </trkpt>
      <trkpt lat="43.21029" lon="0.13884">
        <ele>378</ele>
        <time>2018-09-30T09:37:38Z</time>
      </trkpt>
      <trkpt lat="43.21029" lon="0.13882">
        <ele>378</ele>
        <time>2018-09-30T09:37:39Z</time>
      </trkpt>
      <trkpt lat="43.21029" lon="0.13878">
        <ele>379</ele>
        <time>2018-09-30T09:37:40Z</time>
      </trkpt>
      <trkpt lat="43.21029" lon="0.13874">
        <ele>379</ele>
        <time>2018-09-30T09:37:41Z</time>
      </trkpt>
      <trkpt lat="43.21029" lon="0.13871">
        <ele>379</ele>
        <time>2018-09-30T09:37:42Z</time>
      </trkpt>
      <trkpt lat="43.21029" lon="0.13867">
        <ele>380</ele>
        <time>2018-09-30T09:37:43Z</time>
      </trkpt>
      <trkpt lat="43.21029" lon="0.13864">
        <ele>380</ele>
        <time>2018-09-30T09:37:44Z</time>
      </trkpt>
      <trkpt lat="43.21029" lon="0.13862">
        <ele>380</ele>
        <time>2018-09-30T09:37:45Z</time>
      </trkpt>
      <trkpt lat="43.21029" lon="0.13859">
        <ele>380</ele>
        <time>2018-09-30T09:37:46Z</time>
      </trkpt>
      <trkpt lat="43.21028" lon="0.13856">
        <ele>381</ele>
        <time>2018-09-30T09:37:47Z</time>
      </trkpt>
      <trkpt lat="43.21028" lon="0.13853">
        <ele>381</ele>
        <time>2018-09-30T09:37:48Z</time>
      </trkpt>
      <trkpt lat="43.21028" lon="0.1385">
        <ele>381</ele>
        <time>2018-09-30T09:37:49Z</time>
      </trkpt>
      <trkpt lat="43.21027" lon="0.13848">
        <ele>381</ele>
        <time>2018-09-30T09:37:50Z</time>
      </trkpt>
      <trkpt lat="43.21027" lon="0.13846">
        <ele>381</ele>
        <time>2018-09-30T09:37:51Z</time>
      </trkpt>
      <trkpt lat="43.21026" lon="0.13843">
        <ele>382</ele>
        <time>2018-09-30T09:37:52Z</time>
      </trkpt>
      <trkpt lat="43.21025" lon="0.1384">
        <ele>382</ele>
        <time>2018-09-30T09:37:53Z</time>
      </trkpt>
      <trkpt lat="43.21025" lon="0.13836">
        <ele>382</ele>
        <time>2018-09-30T09:37:54Z</time>
      </trkpt>
      <trkpt lat="43.21024" lon="0.13832">
        <ele>382</ele>
        <time>2018-09-30T09:37:55Z</time>
      </trkpt>
      <trkpt lat="43.21023" lon="0.13829">
        <ele>383</ele>
        <time>2018-09-30T09:37:56Z</time>
      </trkpt>
      <trkpt lat="43.21023" lon="0.13826">
        <ele>383</ele>
        <time>2018-09-30T09:37:57Z</time>
      </trkpt>
      <trkpt lat="43.21023" lon="0.13823">
        <ele>383</ele>
        <time>2018-09-30T09:37:58Z</time>
      </trkpt>
      <trkpt lat="43.21022" lon="0.13819">
        <ele>386</ele>
        <time>2018-09-30T09:37:59Z</time>
      </trkpt>
      <trkpt lat="43.21021" lon="0.13816">
        <ele>387</ele>
        <time>2018-09-30T09:38:00Z</time>
      </trkpt>
      <trkpt lat="43.21021" lon="0.13813">
        <ele>388</ele>
        <time>2018-09-30T09:38:01Z</time>
      </trkpt>
      <trkpt lat="43.21021" lon="0.1381">
        <ele>388</ele>
        <time>2018-09-30T09:38:02Z</time>
      </trkpt>
      <trkpt lat="43.21022" lon="0.13808">
        <ele>389</ele>
        <time>2018-09-30T09:38:03Z</time>
      </trkpt>
      <trkpt lat="43.21024" lon="0.13805">
        <ele>389</ele>
        <time>2018-09-30T09:38:04Z</time>
      </trkpt>
      <trkpt lat="43.21024" lon="0.13803">
        <ele>389</ele>
        <time>2018-09-30T09:38:05Z</time>
      </trkpt>
      <trkpt lat="43.21025" lon="0.138">
        <ele>390</ele>
        <time>2018-09-30T09:38:06Z</time>
      </trkpt>
      <trkpt lat="43.21025" lon="0.13798">
        <ele>390</ele>
        <time>2018-09-30T09:38:07Z</time>
      </trkpt>
      <trkpt lat="43.21026" lon="0.13795">
        <ele>390</ele>
        <time>2018-09-30T09:38:08Z</time>
      </trkpt>
      <trkpt lat="43.21026" lon="0.13793">
        <ele>390</ele>
        <time>2018-09-30T09:38:09Z</time>
      </trkpt>
      <trkpt lat="43.21025" lon="0.1379">
        <ele>391</ele>
        <time>2018-09-30T09:38:10Z</time>
      </trkpt>
      <trkpt lat="43.21025" lon="0.13787">
        <ele>391</ele>
        <time>2018-09-30T09:38:11Z</time>
      </trkpt>
      <trkpt lat="43.21025" lon="0.13785">
        <ele>391</ele>
        <time>2018-09-30T09:38:12Z</time>
      </trkpt>
      <trkpt lat="43.21024" lon="0.13783">
        <ele>391</ele>
        <time>2018-09-30T09:38:13Z</time>
      </trkpt>
      <trkpt lat="43.21025" lon="0.13777">
        <ele>391</ele>
        <time>2018-09-30T09:38:14Z</time>
      </trkpt>
      <trkpt lat="43.21024" lon="0.1377">
        <ele>392</ele>
        <time>2018-09-30T09:38:15Z</time>
      </trkpt>
      <trkpt lat="43.21024" lon="0.13764">
        <ele>392</ele>
        <time>2018-09-30T09:38:16Z</time>
      </trkpt>
      <trkpt lat="43.21024" lon="0.13758">
        <ele>392</ele>
        <time>2018-09-30T09:38:17Z</time>
      </trkpt>
      <trkpt lat="43.21023" lon="0.13753">
        <ele>392</ele>
        <time>2018-09-30T09:38:18Z</time>
      </trkpt>
      <trkpt lat="43.21023" lon="0.13749">
        <ele>392</ele>
        <time>2018-09-30T09:38:19Z</time>
      </trkpt>
      <trkpt lat="43.21024" lon="0.13745">
        <ele>392</ele>
        <time>2018-09-30T09:38:20Z</time>
      </trkpt>
      <trkpt lat="43.21024" lon="0.13741">
        <ele>392</ele>
        <time>2018-09-30T09:38:21Z</time>
      </trkpt>
      <trkpt lat="43.21025" lon="0.13738">
        <ele>394</ele>
        <time>2018-09-30T09:38:22Z</time>
      </trkpt>
      <trkpt lat="43.21025" lon="0.13734">
        <ele>395</ele>
        <time>2018-09-30T09:38:23Z</time>
      </trkpt>
      <trkpt lat="43.21025" lon="0.13731">
        <ele>395</ele>
        <time>2018-09-30T09:38:24Z</time>
      </trkpt>
      <trkpt lat="43.21026" lon="0.13727">
        <ele>395</ele>
        <time>2018-09-30T09:38:25Z</time>
      </trkpt>
      <trkpt lat="43.21026" lon="0.13724">
        <ele>395</ele>
        <time>2018-09-30T09:38:26Z</time>
      </trkpt>
      <trkpt lat="43.21026" lon="0.13721">
        <ele>396</ele>
        <time>2018-09-30T09:38:27Z</time>
      </trkpt>
      <trkpt lat="43.21027" lon="0.13717">
        <ele>396</ele>
        <time>2018-09-30T09:38:28Z</time>
      </trkpt>
      <trkpt lat="43.21027" lon="0.13713">
        <ele>396</ele>
        <time>2018-09-30T09:38:29Z</time>
      </trkpt>
      <trkpt lat="43.21027" lon="0.1371">
        <ele>396</ele>
        <time>2018-09-30T09:38:30Z</time>
      </trkpt>
      <trkpt lat="43.21027" lon="0.13707">
        <ele>396</ele>
        <time>2018-09-30T09:38:31Z</time>
      </trkpt>
      <trkpt lat="43.21027" lon="0.13704">
        <ele>396</ele>
        <time>2018-09-30T09:38:32Z</time>
      </trkpt>
      <trkpt lat="43.21027" lon="0.13701">
        <ele>397</ele>
        <time>2018-09-30T09:38:33Z</time>
      </trkpt>
      <trkpt lat="43.21027" lon="0.13699">
        <ele>397</ele>
        <time>2018-09-30T09:38:34Z</time>
      </trkpt>
      <trkpt lat="43.21027" lon="0.13695">
        <ele>397</ele>
        <time>2018-09-30T09:38:35Z</time>
      </trkpt>
      <trkpt lat="43.21025" lon="0.13691">
        <ele>397</ele>
        <time>2018-09-30T09:38:36Z</time>
      </trkpt>
      <trkpt lat="43.21025" lon="0.13689">
        <ele>397</ele>
        <time>2018-09-30T09:38:37Z</time>
      </trkpt>
      <trkpt lat="43.21025" lon="0.13687">
        <ele>397</ele>
        <time>2018-09-30T09:38:38Z</time>
      </trkpt>
      <trkpt lat="43.21024" lon="0.13685">
        <ele>397</ele>
        <time>2018-09-30T09:38:39Z</time>
      </trkpt>
      <trkpt lat="43.21024" lon="0.13684">
        <ele>398</ele>
        <time>2018-09-30T09:38:40Z</time>
      </trkpt>
      <trkpt lat="43.21023" lon="0.13682">
        <ele>398</ele>
        <time>2018-09-30T09:38:41Z</time>
      </trkpt>
      <trkpt lat="43.21023" lon="0.13681">
        <ele>398</ele>
        <time>2018-09-30T09:38:42Z</time>
      </trkpt>
      <trkpt lat="43.21022" lon="0.13678">
        <ele>398</ele>
        <time>2018-09-30T09:38:43Z</time>
      </trkpt>
      <trkpt lat="43.21022" lon="0.13675">
        <ele>398</ele>
        <time>2018-09-30T09:38:44Z</time>
      </trkpt>
      <trkpt lat="43.21021" lon="0.13673">
        <ele>398</ele>
        <time>2018-09-30T09:38:45Z</time>
      </trkpt>
      <trkpt lat="43.2102" lon="0.1367">
        <ele>398</ele>
        <time>2018-09-30T09:38:46Z</time>
      </trkpt>
      <trkpt lat="43.2102" lon="0.13667">
        <ele>398</ele>
        <time>2018-09-30T09:38:47Z</time>
      </trkpt>
      <trkpt lat="43.21019" lon="0.13665">
        <ele>399</ele>
        <time>2018-09-30T09:38:48Z</time>
      </trkpt>
      <trkpt lat="43.21019" lon="0.13662">
        <ele>399</ele>
        <time>2018-09-30T09:38:49Z</time>
      </trkpt>
      <trkpt lat="43.21019" lon="0.13659">
        <ele>400</ele>
        <time>2018-09-30T09:38:50Z</time>
      </trkpt>
      <trkpt lat="43.21018" lon="0.13655">
        <ele>401</ele>
        <time>2018-09-30T09:38:51Z</time>
      </trkpt>
      <trkpt lat="43.21018" lon="0.13652">
        <ele>401</ele>
        <time>2018-09-30T09:38:52Z</time>
      </trkpt>
      <trkpt lat="43.21018" lon="0.13648">
        <ele>401</ele>
        <time>2018-09-30T09:38:53Z</time>
      </trkpt>
      <trkpt lat="43.21017" lon="0.13644">
        <ele>401</ele>
        <time>2018-09-30T09:38:54Z</time>
      </trkpt>
      <trkpt lat="43.21016" lon="0.13639">
        <ele>401</ele>
        <time>2018-09-30T09:38:55Z</time>
      </trkpt>
      <trkpt lat="43.21016" lon="0.13636">
        <ele>401</ele>
        <time>2018-09-30T09:38:56Z</time>
      </trkpt>
      <trkpt lat="43.21015" lon="0.13632">
        <ele>401</ele>
        <time>2018-09-30T09:38:57Z</time>
      </trkpt>
      <trkpt lat="43.21015" lon="0.13629">
        <ele>401</ele>
        <time>2018-09-30T09:38:58Z</time>
      </trkpt>
      <trkpt lat="43.21015" lon="0.13624">
        <ele>401</ele>
        <time>2018-09-30T09:38:59Z</time>
      </trkpt>
      <trkpt lat="43.21014" lon="0.13618">
        <ele>401</ele>
        <time>2018-09-30T09:39:00Z</time>
      </trkpt>
      <trkpt lat="43.21013" lon="0.13612">
        <ele>401</ele>
        <time>2018-09-30T09:39:01Z</time>
      </trkpt>
      <trkpt lat="43.21012" lon="0.13607">
        <ele>401</ele>
        <time>2018-09-30T09:39:02Z</time>
      </trkpt>
      <trkpt lat="43.21011" lon="0.13602">
        <ele>401</ele>
        <time>2018-09-30T09:39:03Z</time>
      </trkpt>
      <trkpt lat="43.2101" lon="0.13597">
        <ele>401</ele>
        <time>2018-09-30T09:39:04Z</time>
      </trkpt>
      <trkpt lat="43.2101" lon="0.13592">
        <ele>401</ele>
        <time>2018-09-30T09:39:05Z</time>
      </trkpt>
      <trkpt lat="43.21009" lon="0.13588">
        <ele>401</ele>
        <time>2018-09-30T09:39:06Z</time>
      </trkpt>
      <trkpt lat="43.21009" lon="0.13584">
        <ele>401</ele>
        <time>2018-09-30T09:39:07Z</time>
      </trkpt>
      <trkpt lat="43.21008" lon="0.1358">
        <ele>401</ele>
        <time>2018-09-30T09:39:08Z</time>
      </trkpt>
      <trkpt lat="43.21008" lon="0.13577">
        <ele>401</ele>
        <time>2018-09-30T09:39:09Z</time>
      </trkpt>
      <trkpt lat="43.21007" lon="0.13573">
        <ele>401</ele>
        <time>2018-09-30T09:39:10Z</time>
      </trkpt>
      <trkpt lat="43.21006" lon="0.13569">
        <ele>401</ele>
        <time>2018-09-30T09:39:11Z</time>
      </trkpt>
      <trkpt lat="43.21006" lon="0.13565">
        <ele>401</ele>
        <time>2018-09-30T09:39:12Z</time>
      </trkpt>
      <trkpt lat="43.21005" lon="0.13561">
        <ele>401</ele>
        <time>2018-09-30T09:39:13Z</time>
      </trkpt>
      <trkpt lat="43.21005" lon="0.13558">
        <ele>401</ele>
        <time>2018-09-30T09:39:14Z</time>
      </trkpt>
      <trkpt lat="43.21004" lon="0.13553">
        <ele>401</ele>
        <time>2018-09-30T09:39:15Z</time>
      </trkpt>
      <trkpt lat="43.21004" lon="0.13549">
        <ele>401</ele>
        <time>2018-09-30T09:39:16Z</time>
      </trkpt>
      <trkpt lat="43.21003" lon="0.13544">
        <ele>401</ele>
        <time>2018-09-30T09:39:17Z</time>
      </trkpt>
      <trkpt lat="43.21002" lon="0.13539">
        <ele>401</ele>
        <time>2018-09-30T09:39:18Z</time>
      </trkpt>
      <trkpt lat="43.21001" lon="0.13534">
        <ele>401</ele>
        <time>2018-09-30T09:39:19Z</time>
      </trkpt>
      <trkpt lat="43.21" lon="0.13529">
        <ele>401</ele>
        <time>2018-09-30T09:39:20Z</time>
      </trkpt>
      <trkpt lat="43.20999" lon="0.13524">
        <ele>401</ele>
        <time>2018-09-30T09:39:21Z</time>
      </trkpt>
      <trkpt lat="43.20998" lon="0.13518">
        <ele>401</ele>
        <time>2018-09-30T09:39:22Z</time>
      </trkpt>
      <trkpt lat="43.20997" lon="0.13512">
        <ele>401</ele>
        <time>2018-09-30T09:39:23Z</time>
      </trkpt>
      <trkpt lat="43.20996" lon="0.13508">
        <ele>401</ele>
        <time>2018-09-30T09:39:24Z</time>
      </trkpt>
      <trkpt lat="43.20996" lon="0.13504">
        <ele>402</ele>
        <time>2018-09-30T09:39:25Z</time>
      </trkpt>
      <trkpt lat="43.20996" lon="0.13501">
        <ele>402</ele>
        <time>2018-09-30T09:39:26Z</time>
      </trkpt>
      <trkpt lat="43.20996" lon="0.13498">
        <ele>403</ele>
        <time>2018-09-30T09:39:27Z</time>
      </trkpt>
      <trkpt lat="43.20997" lon="0.13494">
        <ele>403</ele>
        <time>2018-09-30T09:39:28Z</time>
      </trkpt>
      <trkpt lat="43.20997" lon="0.1349">
        <ele>403</ele>
        <time>2018-09-30T09:39:29Z</time>
      </trkpt>
      <trkpt lat="43.20998" lon="0.13485">
        <ele>403</ele>
        <time>2018-09-30T09:39:30Z</time>
      </trkpt>
      <trkpt lat="43.20998" lon="0.13479">
        <ele>403</ele>
        <time>2018-09-30T09:39:31Z</time>
      </trkpt>
      <trkpt lat="43.20999" lon="0.13473">
        <ele>403</ele>
        <time>2018-09-30T09:39:32Z</time>
      </trkpt>
      <trkpt lat="43.20997" lon="0.13463">
        <ele>403</ele>
        <time>2018-09-30T09:39:33Z</time>
      </trkpt>
      <trkpt lat="43.20998" lon="0.13458">
        <ele>403</ele>
        <time>2018-09-30T09:39:34Z</time>
      </trkpt>
      <trkpt lat="43.20998" lon="0.13454">
        <ele>403</ele>
        <time>2018-09-30T09:39:35Z</time>
      </trkpt>
      <trkpt lat="43.20998" lon="0.13449">
        <ele>403</ele>
        <time>2018-09-30T09:39:36Z</time>
      </trkpt>
      <trkpt lat="43.20998" lon="0.13444">
        <ele>403</ele>
        <time>2018-09-30T09:39:37Z</time>
      </trkpt>
      <trkpt lat="43.20997" lon="0.13439">
        <ele>403</ele>
        <time>2018-09-30T09:39:38Z</time>
      </trkpt>
      <trkpt lat="43.20996" lon="0.13431">
        <ele>403</ele>
        <time>2018-09-30T09:39:39Z</time>
      </trkpt>
      <trkpt lat="43.20995" lon="0.13426">
        <ele>404</ele>
        <time>2018-09-30T09:39:40Z</time>
      </trkpt>
      <trkpt lat="43.20995" lon="0.13423">
        <ele>404</ele>
        <time>2018-09-30T09:39:41Z</time>
      </trkpt>
      <trkpt lat="43.20994" lon="0.1342">
        <ele>404</ele>
        <time>2018-09-30T09:39:42Z</time>
      </trkpt>
      <trkpt lat="43.20994" lon="0.13417">
        <ele>404</ele>
        <time>2018-09-30T09:39:43Z</time>
      </trkpt>
      <trkpt lat="43.20995" lon="0.13415">
        <ele>404</ele>
        <time>2018-09-30T09:39:44Z</time>
      </trkpt>
      <trkpt lat="43.20995" lon="0.13413">
        <ele>404</ele>
        <time>2018-09-30T09:39:45Z</time>
      </trkpt>
      <trkpt lat="43.20996" lon="0.13411">
        <ele>404</ele>
        <time>2018-09-30T09:39:46Z</time>
      </trkpt>
      <trkpt lat="43.20996" lon="0.13409">
        <ele>404</ele>
        <time>2018-09-30T09:39:47Z</time>
      </trkpt>
      <trkpt lat="43.20996" lon="0.13407">
        <ele>404</ele>
        <time>2018-09-30T09:39:48Z</time>
      </trkpt>
      <trkpt lat="43.20996" lon="0.13405">
        <ele>404</ele>
        <time>2018-09-30T09:39:49Z</time>
      </trkpt>
      <trkpt lat="43.20997" lon="0.13403">
        <ele>404</ele>
        <time>2018-09-30T09:39:50Z</time>
      </trkpt>
      <trkpt lat="43.20998" lon="0.13402">
        <ele>404</ele>
        <time>2018-09-30T09:39:51Z</time>
      </trkpt>
      <trkpt lat="43.20999" lon="0.134">
        <ele>404</ele>
        <time>2018-09-30T09:39:52Z</time>
      </trkpt>
      <trkpt lat="43.21" lon="0.13398">
        <ele>405</ele>
        <time>2018-09-30T09:39:53Z</time>
      </trkpt>
      <trkpt lat="43.21001" lon="0.13397">
        <ele>405</ele>
        <time>2018-09-30T09:39:54Z</time>
      </trkpt>
      <trkpt lat="43.21002" lon="0.13396">
        <ele>405</ele>
        <time>2018-09-30T09:39:55Z</time>
      </trkpt>
      <trkpt lat="43.21002" lon="0.13395">
        <ele>405</ele>
        <time>2018-09-30T09:39:56Z</time>
      </trkpt>
      <trkpt lat="43.21003" lon="0.13394">
        <ele>405</ele>
        <time>2018-09-30T09:39:57Z</time>
      </trkpt>
      <trkpt lat="43.21004" lon="0.13393">
        <ele>405</ele>
        <time>2018-09-30T09:39:58Z</time>
      </trkpt>
      <trkpt lat="43.21005" lon="0.13392">
        <ele>405</ele>
        <time>2018-09-30T09:39:59Z</time>
      </trkpt>
      <trkpt lat="43.21005" lon="0.13392">
        <ele>405</ele>
        <time>2018-09-30T09:40:00Z</time>
      </trkpt>
      <trkpt lat="43.21005" lon="0.13392">
        <ele>406</ele>
        <time>2018-09-30T09:40:01Z</time>
      </trkpt>
      <trkpt lat="43.21007" lon="0.13391">
        <ele>406</ele>
        <time>2018-09-30T09:40:02Z</time>
      </trkpt>
      <trkpt lat="43.21008" lon="0.13391">
        <ele>406</ele>
        <time>2018-09-30T09:40:03Z</time>
      </trkpt>
      <trkpt lat="43.2101" lon="0.1339">
        <ele>406</ele>
        <time>2018-09-30T09:40:04Z</time>
      </trkpt>
      <trkpt lat="43.21011" lon="0.1339">
        <ele>406</ele>
        <time>2018-09-30T09:40:05Z</time>
      </trkpt>
      <trkpt lat="43.21012" lon="0.13389">
        <ele>406</ele>
        <time>2018-09-30T09:40:06Z</time>
      </trkpt>
      <trkpt lat="43.21014" lon="0.13389">
        <ele>406</ele>
        <time>2018-09-30T09:40:07Z</time>
      </trkpt>
      <trkpt lat="43.21016" lon="0.13388">
        <ele>407</ele>
        <time>2018-09-30T09:40:08Z</time>
      </trkpt>
      <trkpt lat="43.21018" lon="0.13388">
        <ele>407</ele>
        <time>2018-09-30T09:40:09Z</time>
      </trkpt>
      <trkpt lat="43.21019" lon="0.13387">
        <ele>407</ele>
        <time>2018-09-30T09:40:10Z</time>
      </trkpt>
      <trkpt lat="43.21021" lon="0.13386">
        <ele>407</ele>
        <time>2018-09-30T09:40:11Z</time>
      </trkpt>
      <trkpt lat="43.21024" lon="0.13386">
        <ele>407</ele>
        <time>2018-09-30T09:40:12Z</time>
      </trkpt>
      <trkpt lat="43.21026" lon="0.13385">
        <ele>407</ele>
        <time>2018-09-30T09:40:13Z</time>
      </trkpt>
      <trkpt lat="43.21028" lon="0.13385">
        <ele>407</ele>
        <time>2018-09-30T09:40:14Z</time>
      </trkpt>
      <trkpt lat="43.2103" lon="0.13384">
        <ele>408</ele>
        <time>2018-09-30T09:40:15Z</time>
      </trkpt>
      <trkpt lat="43.21031" lon="0.13382">
        <ele>408</ele>
        <time>2018-09-30T09:40:16Z</time>
      </trkpt>
      <trkpt lat="43.21033" lon="0.1338">
        <ele>408</ele>
        <time>2018-09-30T09:40:17Z</time>
      </trkpt>
      <trkpt lat="43.21035" lon="0.13378">
        <ele>408</ele>
        <time>2018-09-30T09:40:18Z</time>
      </trkpt>
      <trkpt lat="43.21036" lon="0.13377">
        <ele>408</ele>
        <time>2018-09-30T09:40:19Z</time>
      </trkpt>
      <trkpt lat="43.21038" lon="0.13376">
        <ele>408</ele>
        <time>2018-09-30T09:40:20Z</time>
      </trkpt>
      <trkpt lat="43.2104" lon="0.13374">
        <ele>409</ele>
        <time>2018-09-30T09:40:21Z</time>
      </trkpt>
      <trkpt lat="43.21042" lon="0.13372">
        <ele>412</ele>
        <time>2018-09-30T09:40:22Z</time>
      </trkpt>
      <trkpt lat="43.21043" lon="0.13371">
        <ele>414</ele>
        <time>2018-09-30T09:40:23Z</time>
      </trkpt>
      <trkpt lat="43.21045" lon="0.13369">
        <ele>414</ele>
        <time>2018-09-30T09:40:24Z</time>
      </trkpt>
      <trkpt lat="43.21047" lon="0.13367">
        <ele>415</ele>
        <time>2018-09-30T09:40:25Z</time>
      </trkpt>
      <trkpt lat="43.21049" lon="0.13364">
        <ele>415</ele>
        <time>2018-09-30T09:40:26Z</time>
      </trkpt>
      <trkpt lat="43.2105" lon="0.13362">
        <ele>416</ele>
        <time>2018-09-30T09:40:27Z</time>
      </trkpt>
      <trkpt lat="43.21052" lon="0.1336">
        <ele>416</ele>
        <time>2018-09-30T09:40:28Z</time>
      </trkpt>
      <trkpt lat="43.21054" lon="0.13357">
        <ele>416</ele>
        <time>2018-09-30T09:40:29Z</time>
      </trkpt>
      <trkpt lat="43.21055" lon="0.13355">
        <ele>417</ele>
        <time>2018-09-30T09:40:30Z</time>
      </trkpt>
      <trkpt lat="43.21057" lon="0.13353">
        <ele>417</ele>
        <time>2018-09-30T09:40:31Z</time>
      </trkpt>
      <trkpt lat="43.21059" lon="0.13351">
        <ele>417</ele>
        <time>2018-09-30T09:40:32Z</time>
      </trkpt>
      <trkpt lat="43.2106" lon="0.13349">
        <ele>417</ele>
        <time>2018-09-30T09:40:33Z</time>
      </trkpt>
      <trkpt lat="43.21062" lon="0.13347">
        <ele>418</ele>
        <time>2018-09-30T09:40:34Z</time>
      </trkpt>
      <trkpt lat="43.21063" lon="0.13346">
        <ele>418</ele>
        <time>2018-09-30T09:40:35Z</time>
      </trkpt>
      <trkpt lat="43.21065" lon="0.13344">
        <ele>418</ele>
        <time>2018-09-30T09:40:36Z</time>
      </trkpt>
      <trkpt lat="43.21066" lon="0.13343">
        <ele>419</ele>
        <time>2018-09-30T09:40:37Z</time>
      </trkpt>
      <trkpt lat="43.21067" lon="0.13342">
        <ele>419</ele>
        <time>2018-09-30T09:40:38Z</time>
      </trkpt>
      <trkpt lat="43.21069" lon="0.13342">
        <ele>419</ele>
        <time>2018-09-30T09:40:39Z</time>
      </trkpt>
      <trkpt lat="43.2107" lon="0.13341">
        <ele>419</ele>
        <time>2018-09-30T09:40:40Z</time>
      </trkpt>
      <trkpt lat="43.21071" lon="0.1334">
        <ele>420</ele>
        <time>2018-09-30T09:40:41Z</time>
      </trkpt>
      <trkpt lat="43.21073" lon="0.13339">
        <ele>420</ele>
        <time>2018-09-30T09:40:42Z</time>
      </trkpt>
      <trkpt lat="43.21074" lon="0.13338">
        <ele>420</ele>
        <time>2018-09-30T09:40:43Z</time>
      </trkpt>
      <trkpt lat="43.21076" lon="0.13337">
        <ele>420</ele>
        <time>2018-09-30T09:40:44Z</time>
      </trkpt>
      <trkpt lat="43.21078" lon="0.13337">
        <ele>421</ele>
        <time>2018-09-30T09:40:45Z</time>
      </trkpt>
      <trkpt lat="43.2108" lon="0.13336">
        <ele>421</ele>
        <time>2018-09-30T09:40:46Z</time>
      </trkpt>
      <trkpt lat="43.21083" lon="0.13336">
        <ele>421</ele>
        <time>2018-09-30T09:40:47Z</time>
      </trkpt>
      <trkpt lat="43.21085" lon="0.13337">
        <ele>422</ele>
        <time>2018-09-30T09:40:48Z</time>
      </trkpt>
      <trkpt lat="43.21087" lon="0.13337">
        <ele>422</ele>
        <time>2018-09-30T09:40:49Z</time>
      </trkpt>
      <trkpt lat="43.2109" lon="0.13336">
        <ele>422</ele>
        <time>2018-09-30T09:40:50Z</time>
      </trkpt>
      <trkpt lat="43.21092" lon="0.13335">
        <ele>422</ele>
        <time>2018-09-30T09:40:51Z</time>
      </trkpt>
      <trkpt lat="43.21094" lon="0.13334">
        <ele>427</ele>
        <time>2018-09-30T09:40:52Z</time>
      </trkpt>
      <trkpt lat="43.21097" lon="0.13333">
        <ele>429</ele>
        <time>2018-09-30T09:40:53Z</time>
      </trkpt>
      <trkpt lat="43.21099" lon="0.13332">
        <ele>430</ele>
        <time>2018-09-30T09:40:54Z</time>
      </trkpt>
      <trkpt lat="43.21102" lon="0.13331">
        <ele>430</ele>
        <time>2018-09-30T09:40:55Z</time>
      </trkpt>
      <trkpt lat="43.21105" lon="0.1333">
        <ele>431</ele>
        <time>2018-09-30T09:40:56Z</time>
      </trkpt>
      <trkpt lat="43.21108" lon="0.13329">
        <ele>431</ele>
        <time>2018-09-30T09:40:57Z</time>
      </trkpt>
      <trkpt lat="43.21112" lon="0.13328">
        <ele>431</ele>
        <time>2018-09-30T09:40:58Z</time>
      </trkpt>
      <trkpt lat="43.21116" lon="0.13328">
        <ele>432</ele>
        <time>2018-09-30T09:40:59Z</time>
      </trkpt>
      <trkpt lat="43.2112" lon="0.13327">
        <ele>432</ele>
        <time>2018-09-30T09:41:00Z</time>
      </trkpt>
      <trkpt lat="43.21123" lon="0.13327">
        <ele>432</ele>
        <time>2018-09-30T09:41:01Z</time>
      </trkpt>
      <trkpt lat="43.21127" lon="0.13327">
        <ele>432</ele>
        <time>2018-09-30T09:41:02Z</time>
      </trkpt>
      <trkpt lat="43.21131" lon="0.13328">
        <ele>433</ele>
        <time>2018-09-30T09:41:03Z</time>
      </trkpt>
      <trkpt lat="43.21135" lon="0.13328">
        <ele>433</ele>
        <time>2018-09-30T09:41:04Z</time>
      </trkpt>
      <trkpt lat="43.2114" lon="0.13328">
        <ele>433</ele>
        <time>2018-09-30T09:41:05Z</time>
      </trkpt>
      <trkpt lat="43.21145" lon="0.13329">
        <ele>433</ele>
        <time>2018-09-30T09:41:06Z</time>
      </trkpt>
      <trkpt lat="43.2115" lon="0.1333">
        <ele>434</ele>
        <time>2018-09-30T09:41:07Z</time>
      </trkpt>
      <trkpt lat="43.21155" lon="0.13332">
        <ele>436</ele>
        <time>2018-09-30T09:41:08Z</time>
      </trkpt>
      <trkpt lat="43.21161" lon="0.13335">
        <ele>437</ele>
        <time>2018-09-30T09:41:09Z</time>
      </trkpt>
      <trkpt lat="43.21167" lon="0.13339">
        <ele>438</ele>
        <time>2018-09-30T09:41:10Z</time>
      </trkpt>
      <trkpt lat="43.21173" lon="0.13343">
        <ele>438</ele>
        <time>2018-09-30T09:41:11Z</time>
      </trkpt>
      <trkpt lat="43.21178" lon="0.13346">
        <ele>438</ele>
        <time>2018-09-30T09:41:12Z</time>
      </trkpt>
      <trkpt lat="43.21184" lon="0.1335">
        <ele>438</ele>
        <time>2018-09-30T09:41:13Z</time>
      </trkpt>
      <trkpt lat="43.21189" lon="0.13356">
        <ele>438</ele>
        <time>2018-09-30T09:41:14Z</time>
      </trkpt>
      <trkpt lat="43.21193" lon="0.13362">
        <ele>438</ele>
        <time>2018-09-30T09:41:15Z</time>
      </trkpt>
      <trkpt lat="43.21201" lon="0.13373">
        <ele>438</ele>
        <time>2018-09-30T09:41:16Z</time>
      </trkpt>
      <trkpt lat="43.21206" lon="0.13382">
        <ele>438</ele>
        <time>2018-09-30T09:41:17Z</time>
      </trkpt>
      <trkpt lat="43.2121" lon="0.1339">
        <ele>438</ele>
        <time>2018-09-30T09:41:18Z</time>
      </trkpt>
      <trkpt lat="43.21214" lon="0.13396">
        <ele>437</ele>
        <time>2018-09-30T09:41:19Z</time>
      </trkpt>
      <trkpt lat="43.21218" lon="0.134">
        <ele>437</ele>
        <time>2018-09-30T09:41:20Z</time>
      </trkpt>
      <trkpt lat="43.2122" lon="0.13401">
        <ele>437</ele>
        <time>2018-09-30T09:41:21Z</time>
      </trkpt>
      <trkpt lat="43.21223" lon="0.134">
        <ele>437</ele>
        <time>2018-09-30T09:41:22Z</time>
      </trkpt>
      <trkpt lat="43.21225" lon="0.13397">
        <ele>437</ele>
        <time>2018-09-30T09:41:23Z</time>
      </trkpt>
      <trkpt lat="43.21227" lon="0.13393">
        <ele>437</ele>
        <time>2018-09-30T09:41:24Z</time>
      </trkpt>
      <trkpt lat="43.21229" lon="0.13389">
        <ele>437</ele>
        <time>2018-09-30T09:41:25Z</time>
      </trkpt>
      <trkpt lat="43.21231" lon="0.13386">
        <ele>437</ele>
        <time>2018-09-30T09:41:26Z</time>
      </trkpt>
      <trkpt lat="43.21233" lon="0.13383">
        <ele>437</ele>
        <time>2018-09-30T09:41:27Z</time>
      </trkpt>
      <trkpt lat="43.21235" lon="0.13379">
        <ele>437</ele>
        <time>2018-09-30T09:41:28Z</time>
      </trkpt>
      <trkpt lat="43.21237" lon="0.13377">
        <ele>437</ele>
        <time>2018-09-30T09:41:29Z</time>
      </trkpt>
      <trkpt lat="43.21238" lon="0.13374">
        <ele>437</ele>
        <time>2018-09-30T09:41:30Z</time>
      </trkpt>
      <trkpt lat="43.21239" lon="0.13372">
        <ele>437</ele>
        <time>2018-09-30T09:41:31Z</time>
      </trkpt>
      <trkpt lat="43.21241" lon="0.1337">
        <ele>437</ele>
        <time>2018-09-30T09:41:32Z</time>
      </trkpt>
      <trkpt lat="43.21243" lon="0.13369">
        <ele>437</ele>
        <time>2018-09-30T09:41:33Z</time>
      </trkpt>
      <trkpt lat="43.21245" lon="0.13371">
        <ele>437</ele>
        <time>2018-09-30T09:41:34Z</time>
      </trkpt>
      <trkpt lat="43.21247" lon="0.13372">
        <ele>437</ele>
        <time>2018-09-30T09:41:35Z</time>
      </trkpt>
      <trkpt lat="43.2125" lon="0.13375">
        <ele>437</ele>
        <time>2018-09-30T09:41:36Z</time>
      </trkpt>
      <trkpt lat="43.21253" lon="0.13378">
        <ele>437</ele>
        <time>2018-09-30T09:41:38Z</time>
      </trkpt>
      <trkpt lat="43.21256" lon="0.13382">
        <ele>436</ele>
        <time>2018-09-30T09:41:39Z</time>
      </trkpt>
      <trkpt lat="43.21258" lon="0.13387">
        <ele>436</ele>
        <time>2018-09-30T09:41:40Z</time>
      </trkpt>
      <trkpt lat="43.21261" lon="0.13392">
        <ele>436</ele>
        <time>2018-09-30T09:41:41Z</time>
      </trkpt>
      <trkpt lat="43.21265" lon="0.13398">
        <ele>435</ele>
        <time>2018-09-30T09:41:42Z</time>
      </trkpt>
      <trkpt lat="43.21269" lon="0.13403">
        <ele>435</ele>
        <time>2018-09-30T09:41:43Z</time>
      </trkpt>
      <trkpt lat="43.21272" lon="0.13408">
        <ele>434</ele>
        <time>2018-09-30T09:41:44Z</time>
      </trkpt>
      <trkpt lat="43.21276" lon="0.13413">
        <ele>434</ele>
        <time>2018-09-30T09:41:45Z</time>
      </trkpt>
      <trkpt lat="43.2128" lon="0.13418">
        <ele>434</ele>
        <time>2018-09-30T09:41:46Z</time>
      </trkpt>
      <trkpt lat="43.21284" lon="0.13422">
        <ele>433</ele>
        <time>2018-09-30T09:41:47Z</time>
      </trkpt>
      <trkpt lat="43.21288" lon="0.13426">
        <ele>433</ele>
        <time>2018-09-30T09:41:48Z</time>
      </trkpt>
      <trkpt lat="43.21293" lon="0.1343">
        <ele>433</ele>
        <time>2018-09-30T09:41:49Z</time>
      </trkpt>
      <trkpt lat="43.21297" lon="0.13434">
        <ele>433</ele>
        <time>2018-09-30T09:41:50Z</time>
      </trkpt>
      <trkpt lat="43.21302" lon="0.13438">
        <ele>433</ele>
        <time>2018-09-30T09:41:51Z</time>
      </trkpt>
      <trkpt lat="43.21306" lon="0.13442">
        <ele>433</ele>
        <time>2018-09-30T09:41:52Z</time>
      </trkpt>
      <trkpt lat="43.21311" lon="0.13446">
        <ele>433</ele>
        <time>2018-09-30T09:41:53Z</time>
      </trkpt>
      <trkpt lat="43.21315" lon="0.13449">
        <ele>433</ele>
        <time>2018-09-30T09:41:54Z</time>
      </trkpt>
      <trkpt lat="43.2132" lon="0.13453">
        <ele>433</ele>
        <time>2018-09-30T09:41:55Z</time>
      </trkpt>
      <trkpt lat="43.21324" lon="0.13457">
        <ele>433</ele>
        <time>2018-09-30T09:41:56Z</time>
      </trkpt>
      <trkpt lat="43.21328" lon="0.13461">
        <ele>433</ele>
        <time>2018-09-30T09:41:57Z</time>
      </trkpt>
      <trkpt lat="43.21333" lon="0.13465">
        <ele>433</ele>
        <time>2018-09-30T09:41:58Z</time>
      </trkpt>
      <trkpt lat="43.21337" lon="0.13468">
        <ele>433</ele>
        <time>2018-09-30T09:41:59Z</time>
      </trkpt>
      <trkpt lat="43.21342" lon="0.13473">
        <ele>434</ele>
        <time>2018-09-30T09:42:00Z</time>
      </trkpt>
      <trkpt lat="43.21346" lon="0.13478">
        <ele>434</ele>
        <time>2018-09-30T09:42:01Z</time>
      </trkpt>
      <trkpt lat="43.21351" lon="0.13484">
        <ele>434</ele>
        <time>2018-09-30T09:42:02Z</time>
      </trkpt>
      <trkpt lat="43.21356" lon="0.13489">
        <ele>434</ele>
        <time>2018-09-30T09:42:03Z</time>
      </trkpt>
      <trkpt lat="43.2136" lon="0.13497">
        <ele>435</ele>
        <time>2018-09-30T09:42:04Z</time>
      </trkpt>
      <trkpt lat="43.21365" lon="0.13503">
        <ele>436</ele>
        <time>2018-09-30T09:42:05Z</time>
      </trkpt>
      <trkpt lat="43.2137" lon="0.13509">
        <ele>436</ele>
        <time>2018-09-30T09:42:06Z</time>
      </trkpt>
      <trkpt lat="43.21375" lon="0.13515">
        <ele>436</ele>
        <time>2018-09-30T09:42:07Z</time>
      </trkpt>
      <trkpt lat="43.21379" lon="0.13523">
        <ele>436</ele>
        <time>2018-09-30T09:42:08Z</time>
      </trkpt>
      <trkpt lat="43.21381" lon="0.13531">
        <ele>436</ele>
        <time>2018-09-30T09:42:09Z</time>
      </trkpt>
      <trkpt lat="43.21384" lon="0.1354">
        <ele>436</ele>
        <time>2018-09-30T09:42:10Z</time>
      </trkpt>
      <trkpt lat="43.21386" lon="0.13548">
        <ele>436</ele>
        <time>2018-09-30T09:42:11Z</time>
      </trkpt>
      <trkpt lat="43.21388" lon="0.13555">
        <ele>436</ele>
        <time>2018-09-30T09:42:12Z</time>
      </trkpt>
      <trkpt lat="43.21392" lon="0.13564">
        <ele>437</ele>
        <time>2018-09-30T09:42:13Z</time>
      </trkpt>
      <trkpt lat="43.21397" lon="0.13573">
        <ele>437</ele>
        <time>2018-09-30T09:42:14Z</time>
      </trkpt>
      <trkpt lat="43.21404" lon="0.13587">
        <ele>437</ele>
        <time>2018-09-30T09:42:15Z</time>
      </trkpt>
      <trkpt lat="43.21409" lon="0.13593">
        <ele>436</ele>
        <time>2018-09-30T09:42:16Z</time>
      </trkpt>
      <trkpt lat="43.21414" lon="0.136">
        <ele>436</ele>
        <time>2018-09-30T09:42:17Z</time>
      </trkpt>
      <trkpt lat="43.21419" lon="0.13606">
        <ele>436</ele>
        <time>2018-09-30T09:42:18Z</time>
      </trkpt>
      <trkpt lat="43.21426" lon="0.13616">
        <ele>436</ele>
        <time>2018-09-30T09:42:19Z</time>
      </trkpt>
      <trkpt lat="43.2143" lon="0.13621">
        <ele>435</ele>
        <time>2018-09-30T09:42:20Z</time>
      </trkpt>
      <trkpt lat="43.21435" lon="0.13628">
        <ele>434</ele>
        <time>2018-09-30T09:42:21Z</time>
      </trkpt>
      <trkpt lat="43.2144" lon="0.13633">
        <ele>433</ele>
        <time>2018-09-30T09:42:22Z</time>
      </trkpt>
      <trkpt lat="43.21443" lon="0.13639">
        <ele>432</ele>
        <time>2018-09-30T09:42:23Z</time>
      </trkpt>
      <trkpt lat="43.21447" lon="0.13645">
        <ele>432</ele>
        <time>2018-09-30T09:42:24Z</time>
      </trkpt>
      <trkpt lat="43.21449" lon="0.1365">
        <ele>432</ele>
        <time>2018-09-30T09:42:25Z</time>
      </trkpt>
      <trkpt lat="43.21451" lon="0.13655">
        <ele>432</ele>
        <time>2018-09-30T09:42:26Z</time>
      </trkpt>
      <trkpt lat="43.21453" lon="0.1366">
        <ele>431</ele>
        <time>2018-09-30T09:42:27Z</time>
      </trkpt>
      <trkpt lat="43.21455" lon="0.13665">
        <ele>431</ele>
        <time>2018-09-30T09:42:28Z</time>
      </trkpt>
      <trkpt lat="43.21457" lon="0.13672">
        <ele>431</ele>
        <time>2018-09-30T09:42:29Z</time>
      </trkpt>
      <trkpt lat="43.2146" lon="0.13681">
        <ele>430</ele>
        <time>2018-09-30T09:42:30Z</time>
      </trkpt>
      <trkpt lat="43.21462" lon="0.13692">
        <ele>430</ele>
        <time>2018-09-30T09:42:31Z</time>
      </trkpt>
      <trkpt lat="43.21464" lon="0.13699">
        <ele>426</ele>
        <time>2018-09-30T09:42:32Z</time>
      </trkpt>
      <trkpt lat="43.21468" lon="0.13707">
        <ele>424</ele>
        <time>2018-09-30T09:42:33Z</time>
      </trkpt>
      <trkpt lat="43.21471" lon="0.13714">
        <ele>423</ele>
        <time>2018-09-30T09:42:34Z</time>
      </trkpt>
      <trkpt lat="43.21475" lon="0.13723">
        <ele>423</ele>
        <time>2018-09-30T09:42:35Z</time>
      </trkpt>
      <trkpt lat="43.21481" lon="0.13734">
        <ele>422</ele>
        <time>2018-09-30T09:42:36Z</time>
      </trkpt>
      <trkpt lat="43.21485" lon="0.13741">
        <ele>422</ele>
        <time>2018-09-30T09:42:37Z</time>
      </trkpt>
      <trkpt lat="43.21488" lon="0.13749">
        <ele>422</ele>
        <time>2018-09-30T09:42:38Z</time>
      </trkpt>
      <trkpt lat="43.2149" lon="0.13754">
        <ele>421</ele>
        <time>2018-09-30T09:42:39Z</time>
      </trkpt>
      <trkpt lat="43.2149" lon="0.13759">
        <ele>421</ele>
        <time>2018-09-30T09:42:40Z</time>
      </trkpt>
      <trkpt lat="43.2149" lon="0.13766">
        <ele>421</ele>
        <time>2018-09-30T09:42:41Z</time>
      </trkpt>
      <trkpt lat="43.2149" lon="0.13773">
        <ele>418</ele>
        <time>2018-09-30T09:42:42Z</time>
      </trkpt>
      <trkpt lat="43.21491" lon="0.13779">
        <ele>416</ele>
        <time>2018-09-30T09:42:43Z</time>
      </trkpt>
      <trkpt lat="43.21492" lon="0.13784">
        <ele>415</ele>
        <time>2018-09-30T09:42:44Z</time>
      </trkpt>
      <trkpt lat="43.21494" lon="0.13791">
        <ele>415</ele>
        <time>2018-09-30T09:42:45Z</time>
      </trkpt>
      <trkpt lat="43.21496" lon="0.13799">
        <ele>415</ele>
        <time>2018-09-30T09:42:46Z</time>
      </trkpt>
      <trkpt lat="43.21497" lon="0.13805">
        <ele>414</ele>
        <time>2018-09-30T09:42:47Z</time>
      </trkpt>
      <trkpt lat="43.21499" lon="0.13812">
        <ele>413</ele>
        <time>2018-09-30T09:42:48Z</time>
      </trkpt>
      <trkpt lat="43.21502" lon="0.1382">
        <ele>413</ele>
        <time>2018-09-30T09:42:49Z</time>
      </trkpt>
      <trkpt lat="43.21503" lon="0.13823">
        <ele>413</ele>
        <time>2018-09-30T09:42:50Z</time>
      </trkpt>
      <trkpt lat="43.21504" lon="0.13826">
        <ele>413</ele>
        <time>2018-09-30T09:42:51Z</time>
      </trkpt>
      <trkpt lat="43.21504" lon="0.13828">
        <ele>413</ele>
        <time>2018-09-30T09:42:52Z</time>
      </trkpt>
      <trkpt lat="43.21505" lon="0.1383">
        <ele>413</ele>
        <time>2018-09-30T09:42:53Z</time>
      </trkpt>
      <trkpt lat="43.21505" lon="0.13834">
        <ele>413</ele>
        <time>2018-09-30T09:42:54Z</time>
      </trkpt>
      <trkpt lat="43.21504" lon="0.13839">
        <ele>412</ele>
        <time>2018-09-30T09:42:55Z</time>
      </trkpt>
      <trkpt lat="43.21503" lon="0.13843">
        <ele>412</ele>
        <time>2018-09-30T09:42:56Z</time>
      </trkpt>
      <trkpt lat="43.21502" lon="0.13848">
        <ele>412</ele>
        <time>2018-09-30T09:42:57Z</time>
      </trkpt>
      <trkpt lat="43.21501" lon="0.13852">
        <ele>412</ele>
        <time>2018-09-30T09:42:58Z</time>
      </trkpt>
      <trkpt lat="43.215" lon="0.13856">
        <ele>412</ele>
        <time>2018-09-30T09:42:59Z</time>
      </trkpt>
      <trkpt lat="43.21499" lon="0.1386">
        <ele>411</ele>
        <time>2018-09-30T09:43:00Z</time>
      </trkpt>
      <trkpt lat="43.21498" lon="0.13865">
        <ele>411</ele>
        <time>2018-09-30T09:43:01Z</time>
      </trkpt>
      <trkpt lat="43.21497" lon="0.13868">
        <ele>411</ele>
        <time>2018-09-30T09:43:02Z</time>
      </trkpt>
      <trkpt lat="43.21496" lon="0.13872">
        <ele>411</ele>
        <time>2018-09-30T09:43:03Z</time>
      </trkpt>
      <trkpt lat="43.21494" lon="0.13876">
        <ele>411</ele>
        <time>2018-09-30T09:43:04Z</time>
      </trkpt>
      <trkpt lat="43.21493" lon="0.13879">
        <ele>411</ele>
        <time>2018-09-30T09:43:05Z</time>
      </trkpt>
      <trkpt lat="43.21491" lon="0.13883">
        <ele>411</ele>
        <time>2018-09-30T09:43:06Z</time>
      </trkpt>
      <trkpt lat="43.21489" lon="0.13885">
        <ele>411</ele>
        <time>2018-09-30T09:43:07Z</time>
      </trkpt>
      <trkpt lat="43.21488" lon="0.13888">
        <ele>410</ele>
        <time>2018-09-30T09:43:08Z</time>
      </trkpt>
      <trkpt lat="43.21487" lon="0.13892">
        <ele>410</ele>
        <time>2018-09-30T09:43:09Z</time>
      </trkpt>
      <trkpt lat="43.21486" lon="0.13896">
        <ele>409</ele>
        <time>2018-09-30T09:43:10Z</time>
      </trkpt>
      <trkpt lat="43.21485" lon="0.139">
        <ele>409</ele>
        <time>2018-09-30T09:43:11Z</time>
      </trkpt>
      <trkpt lat="43.21486" lon="0.13905">
        <ele>409</ele>
        <time>2018-09-30T09:43:12Z</time>
      </trkpt>
      <trkpt lat="43.21486" lon="0.1391">
        <ele>408</ele>
        <time>2018-09-30T09:43:13Z</time>
      </trkpt>
      <trkpt lat="43.21489" lon="0.13916">
        <ele>408</ele>
        <time>2018-09-30T09:43:14Z</time>
      </trkpt>
      <trkpt lat="43.21491" lon="0.13922">
        <ele>407</ele>
        <time>2018-09-30T09:43:15Z</time>
      </trkpt>
      <trkpt lat="43.21492" lon="0.13928">
        <ele>402</ele>
        <time>2018-09-30T09:43:16Z</time>
      </trkpt>
      <trkpt lat="43.21493" lon="0.13935">
        <ele>400</ele>
        <time>2018-09-30T09:43:17Z</time>
      </trkpt>
      <trkpt lat="43.21496" lon="0.13943">
        <ele>398</ele>
        <time>2018-09-30T09:43:18Z</time>
      </trkpt>
      <trkpt lat="43.21499" lon="0.13949">
        <ele>397</ele>
        <time>2018-09-30T09:43:19Z</time>
      </trkpt>
      <trkpt lat="43.21502" lon="0.13955">
        <ele>396</ele>
        <time>2018-09-30T09:43:20Z</time>
      </trkpt>
      <trkpt lat="43.21504" lon="0.13967">
        <ele>395</ele>
        <time>2018-09-30T09:43:21Z</time>
      </trkpt>
      <trkpt lat="43.21507" lon="0.13975">
        <ele>395</ele>
        <time>2018-09-30T09:43:22Z</time>
      </trkpt>
      <trkpt lat="43.2151" lon="0.13986">
        <ele>394</ele>
        <time>2018-09-30T09:43:23Z</time>
      </trkpt>
      <trkpt lat="43.21517" lon="0.14009">
        <ele>391</ele>
        <time>2018-09-30T09:43:24Z</time>
      </trkpt>
      <trkpt lat="43.21523" lon="0.14018">
        <ele>391</ele>
        <time>2018-09-30T09:43:25Z</time>
      </trkpt>
      <trkpt lat="43.21527" lon="0.14024">
        <ele>391</ele>
        <time>2018-09-30T09:43:26Z</time>
      </trkpt>
      <trkpt lat="43.21531" lon="0.14031">
        <ele>391</ele>
        <time>2018-09-30T09:43:27Z</time>
      </trkpt>
      <trkpt lat="43.21535" lon="0.14038">
        <ele>391</ele>
        <time>2018-09-30T09:43:28Z</time>
      </trkpt>
      <trkpt lat="43.21538" lon="0.14045">
        <ele>391</ele>
        <time>2018-09-30T09:43:29Z</time>
      </trkpt>
      <trkpt lat="43.21542" lon="0.14052">
        <ele>391</ele>
        <time>2018-09-30T09:43:30Z</time>
      </trkpt>
      <trkpt lat="43.21546" lon="0.14058">
        <ele>391</ele>
        <time>2018-09-30T09:43:31Z</time>
      </trkpt>
      <trkpt lat="43.2155" lon="0.14064">
        <ele>391</ele>
        <time>2018-09-30T09:43:32Z</time>
      </trkpt>
      <trkpt lat="43.21555" lon="0.14069">
        <ele>392</ele>
        <time>2018-09-30T09:43:33Z</time>
      </trkpt>
      <trkpt lat="43.2156" lon="0.14073">
        <ele>392</ele>
        <time>2018-09-30T09:43:34Z</time>
      </trkpt>
      <trkpt lat="43.21565" lon="0.14076">
        <ele>392</ele>
        <time>2018-09-30T09:43:35Z</time>
      </trkpt>
      <trkpt lat="43.21571" lon="0.1408">
        <ele>392</ele>
        <time>2018-09-30T09:43:36Z</time>
      </trkpt>
      <trkpt lat="43.21577" lon="0.14085">
        <ele>392</ele>
        <time>2018-09-30T09:43:37Z</time>
      </trkpt>
      <trkpt lat="43.21581" lon="0.14091">
        <ele>392</ele>
        <time>2018-09-30T09:43:38Z</time>
      </trkpt>
      <trkpt lat="43.21585" lon="0.14096">
        <ele>392</ele>
        <time>2018-09-30T09:43:39Z</time>
      </trkpt>
      <trkpt lat="43.21588" lon="0.14101">
        <ele>392</ele>
        <time>2018-09-30T09:43:40Z</time>
      </trkpt>
      <trkpt lat="43.21589" lon="0.14107">
        <ele>392</ele>
        <time>2018-09-30T09:43:41Z</time>
      </trkpt>
      <trkpt lat="43.21591" lon="0.14113">
        <ele>392</ele>
        <time>2018-09-30T09:43:42Z</time>
      </trkpt>
      <trkpt lat="43.2159" lon="0.14118">
        <ele>392</ele>
        <time>2018-09-30T09:43:43Z</time>
      </trkpt>
      <trkpt lat="43.21588" lon="0.14124">
        <ele>392</ele>
        <time>2018-09-30T09:43:44Z</time>
      </trkpt>
      <trkpt lat="43.21585" lon="0.14128">
        <ele>392</ele>
        <time>2018-09-30T09:43:45Z</time>
      </trkpt>
      <trkpt lat="43.21582" lon="0.14131">
        <ele>392</ele>
        <time>2018-09-30T09:43:46Z</time>
      </trkpt>
      <trkpt lat="43.2158" lon="0.14135">
        <ele>392</ele>
        <time>2018-09-30T09:43:47Z</time>
      </trkpt>
      <trkpt lat="43.21577" lon="0.1414">
        <ele>391</ele>
        <time>2018-09-30T09:43:48Z</time>
      </trkpt>
      <trkpt lat="43.21574" lon="0.14143">
        <ele>391</ele>
        <time>2018-09-30T09:43:49Z</time>
      </trkpt>
      <trkpt lat="43.21571" lon="0.14145">
        <ele>391</ele>
        <time>2018-09-30T09:43:50Z</time>
      </trkpt>
      <trkpt lat="43.2157" lon="0.14146">
        <ele>391</ele>
        <time>2018-09-30T09:43:51Z</time>
      </trkpt>
      <trkpt lat="43.21568" lon="0.14148">
        <ele>391</ele>
        <time>2018-09-30T09:43:52Z</time>
      </trkpt>
      <trkpt lat="43.21565" lon="0.14152">
        <ele>391</ele>
        <time>2018-09-30T09:43:53Z</time>
      </trkpt>
      <trkpt lat="43.21564" lon="0.14157">
        <ele>390</ele>
        <time>2018-09-30T09:43:54Z</time>
      </trkpt>
      <trkpt lat="43.21564" lon="0.14161">
        <ele>390</ele>
        <time>2018-09-30T09:43:55Z</time>
      </trkpt>
      <trkpt lat="43.21564" lon="0.14167">
        <ele>390</ele>
        <time>2018-09-30T09:43:56Z</time>
      </trkpt>
      <trkpt lat="43.21564" lon="0.14174">
        <ele>389</ele>
        <time>2018-09-30T09:43:57Z</time>
      </trkpt>
      <trkpt lat="43.21565" lon="0.14181">
        <ele>388</ele>
        <time>2018-09-30T09:43:58Z</time>
      </trkpt>
      <trkpt lat="43.21565" lon="0.14188">
        <ele>388</ele>
        <time>2018-09-30T09:43:59Z</time>
      </trkpt>
      <trkpt lat="43.21565" lon="0.14195">
        <ele>387</ele>
        <time>2018-09-30T09:44:00Z</time>
      </trkpt>
      <trkpt lat="43.21564" lon="0.14201">
        <ele>386</ele>
        <time>2018-09-30T09:44:01Z</time>
      </trkpt>
      <trkpt lat="43.21564" lon="0.14206">
        <ele>385</ele>
        <time>2018-09-30T09:44:02Z</time>
      </trkpt>
      <trkpt lat="43.21564" lon="0.14214">
        <ele>384</ele>
        <time>2018-09-30T09:44:03Z</time>
      </trkpt>
      <trkpt lat="43.21564" lon="0.14221">
        <ele>383</ele>
        <time>2018-09-30T09:44:04Z</time>
      </trkpt>
      <trkpt lat="43.21565" lon="0.14228">
        <ele>375</ele>
        <time>2018-09-30T09:44:05Z</time>
      </trkpt>
      <trkpt lat="43.21565" lon="0.14234">
        <ele>372</ele>
        <time>2018-09-30T09:44:06Z</time>
      </trkpt>
      <trkpt lat="43.21564" lon="0.14241">
        <ele>371</ele>
        <time>2018-09-30T09:44:07Z</time>
      </trkpt>
      <trkpt lat="43.21565" lon="0.14273">
        <ele>370</ele>
        <time>2018-09-30T09:44:08Z</time>
      </trkpt>
      <trkpt lat="43.21565" lon="0.14278">
        <ele>370</ele>
        <time>2018-09-30T09:44:09Z</time>
      </trkpt>
      <trkpt lat="43.21565" lon="0.14282">
        <ele>369</ele>
        <time>2018-09-30T09:44:10Z</time>
      </trkpt>
      <trkpt lat="43.21566" lon="0.14285">
        <ele>369</ele>
        <time>2018-09-30T09:44:11Z</time>
      </trkpt>
      <trkpt lat="43.21568" lon="0.14288">
        <ele>369</ele>
        <time>2018-09-30T09:44:12Z</time>
      </trkpt>
      <trkpt lat="43.2157" lon="0.14292">
        <ele>369</ele>
        <time>2018-09-30T09:44:13Z</time>
      </trkpt>
      <trkpt lat="43.21573" lon="0.14296">
        <ele>368</ele>
        <time>2018-09-30T09:44:14Z</time>
      </trkpt>
      <trkpt lat="43.21575" lon="0.143">
        <ele>368</ele>
        <time>2018-09-30T09:44:15Z</time>
      </trkpt>
      <trkpt lat="43.21576" lon="0.14304">
        <ele>368</ele>
        <time>2018-09-30T09:44:16Z</time>
      </trkpt>
      <trkpt lat="43.21577" lon="0.14307">
        <ele>367</ele>
        <time>2018-09-30T09:44:17Z</time>
      </trkpt>
      <trkpt lat="43.21577" lon="0.14311">
        <ele>366</ele>
        <time>2018-09-30T09:44:18Z</time>
      </trkpt>
      <trkpt lat="43.21578" lon="0.14314">
        <ele>366</ele>
        <time>2018-09-30T09:44:19Z</time>
      </trkpt>
      <trkpt lat="43.2158" lon="0.14318">
        <ele>366</ele>
        <time>2018-09-30T09:44:20Z</time>
      </trkpt>
      <trkpt lat="43.21582" lon="0.14324">
        <ele>365</ele>
        <time>2018-09-30T09:44:21Z</time>
      </trkpt>
      <trkpt lat="43.21584" lon="0.14331">
        <ele>365</ele>
        <time>2018-09-30T09:44:22Z</time>
      </trkpt>
      <trkpt lat="43.21587" lon="0.14337">
        <ele>365</ele>
        <time>2018-09-30T09:44:23Z</time>
      </trkpt>
      <trkpt lat="43.21591" lon="0.14344">
        <ele>364</ele>
        <time>2018-09-30T09:44:24Z</time>
      </trkpt>
      <trkpt lat="43.21594" lon="0.14351">
        <ele>363</ele>
        <time>2018-09-30T09:44:25Z</time>
      </trkpt>
      <trkpt lat="43.21596" lon="0.14358">
        <ele>362</ele>
        <time>2018-09-30T09:44:26Z</time>
      </trkpt>
      <trkpt lat="43.21599" lon="0.14365">
        <ele>361</ele>
        <time>2018-09-30T09:44:27Z</time>
      </trkpt>
      <trkpt lat="43.21603" lon="0.14392">
        <ele>356</ele>
        <time>2018-09-30T09:44:28Z</time>
      </trkpt>
      <trkpt lat="43.21614" lon="0.1444">
        <ele>356</ele>
        <time>2018-09-30T09:44:29Z</time>
      </trkpt>
      <trkpt lat="43.21619" lon="0.14454">
        <ele>356</ele>
        <time>2018-09-30T09:44:30Z</time>
      </trkpt>
      <trkpt lat="43.21622" lon="0.14461">
        <ele>356</ele>
        <time>2018-09-30T09:44:31Z</time>
      </trkpt>
      <trkpt lat="43.21624" lon="0.14469">
        <ele>357</ele>
        <time>2018-09-30T09:44:32Z</time>
      </trkpt>
      <trkpt lat="43.21624" lon="0.14474">
        <ele>357</ele>
        <time>2018-09-30T09:44:33Z</time>
      </trkpt>
      <trkpt lat="43.21625" lon="0.14482">
        <ele>357</ele>
        <time>2018-09-30T09:44:34Z</time>
      </trkpt>
      <trkpt lat="43.21627" lon="0.14488">
        <ele>357</ele>
        <time>2018-09-30T09:44:35Z</time>
      </trkpt>
      <trkpt lat="43.21629" lon="0.14494">
        <ele>357</ele>
        <time>2018-09-30T09:44:36Z</time>
      </trkpt>
      <trkpt lat="43.2163" lon="0.145">
        <ele>358</ele>
        <time>2018-09-30T09:44:37Z</time>
      </trkpt>
      <trkpt lat="43.21632" lon="0.14506">
        <ele>358</ele>
        <time>2018-09-30T09:44:38Z</time>
      </trkpt>
      <trkpt lat="43.21633" lon="0.14511">
        <ele>358</ele>
        <time>2018-09-30T09:44:39Z</time>
      </trkpt>
      <trkpt lat="43.21636" lon="0.14519">
        <ele>358</ele>
        <time>2018-09-30T09:44:40Z</time>
      </trkpt>
      <trkpt lat="43.21639" lon="0.14524">
        <ele>358</ele>
        <time>2018-09-30T09:44:41Z</time>
      </trkpt>
      <trkpt lat="43.21641" lon="0.1453">
        <ele>358</ele>
        <time>2018-09-30T09:44:42Z</time>
      </trkpt>
      <trkpt lat="43.21645" lon="0.14539">
        <ele>359</ele>
        <time>2018-09-30T09:44:43Z</time>
      </trkpt>
      <trkpt lat="43.21648" lon="0.14545">
        <ele>360</ele>
        <time>2018-09-30T09:44:44Z</time>
      </trkpt>
      <trkpt lat="43.21651" lon="0.14549">
        <ele>361</ele>
        <time>2018-09-30T09:44:45Z</time>
      </trkpt>
      <trkpt lat="43.21655" lon="0.14558">
        <ele>361</ele>
        <time>2018-09-30T09:44:46Z</time>
      </trkpt>
      <trkpt lat="43.21658" lon="0.14562">
        <ele>361</ele>
        <time>2018-09-30T09:44:47Z</time>
      </trkpt>
      <trkpt lat="43.21663" lon="0.1457">
        <ele>362</ele>
        <time>2018-09-30T09:44:48Z</time>
      </trkpt>
      <trkpt lat="43.21667" lon="0.14576">
        <ele>362</ele>
        <time>2018-09-30T09:44:49Z</time>
      </trkpt>
      <trkpt lat="43.21672" lon="0.14581">
        <ele>362</ele>
        <time>2018-09-30T09:44:50Z</time>
      </trkpt>
      <trkpt lat="43.21677" lon="0.14584">
        <ele>362</ele>
        <time>2018-09-30T09:44:51Z</time>
      </trkpt>
      <trkpt lat="43.21681" lon="0.14588">
        <ele>362</ele>
        <time>2018-09-30T09:44:52Z</time>
      </trkpt>
      <trkpt lat="43.21684" lon="0.14593">
        <ele>363</ele>
        <time>2018-09-30T09:44:53Z</time>
      </trkpt>
      <trkpt lat="43.21688" lon="0.14599">
        <ele>363</ele>
        <time>2018-09-30T09:44:54Z</time>
      </trkpt>
      <trkpt lat="43.21693" lon="0.14603">
        <ele>363</ele>
        <time>2018-09-30T09:44:55Z</time>
      </trkpt>
      <trkpt lat="43.21698" lon="0.14606">
        <ele>364</ele>
        <time>2018-09-30T09:44:56Z</time>
      </trkpt>
      <trkpt lat="43.21704" lon="0.14609">
        <ele>364</ele>
        <time>2018-09-30T09:44:57Z</time>
      </trkpt>
      <trkpt lat="43.21709" lon="0.14609">
        <ele>364</ele>
        <time>2018-09-30T09:44:58Z</time>
      </trkpt>
      <trkpt lat="43.21713" lon="0.14609">
        <ele>364</ele>
        <time>2018-09-30T09:44:59Z</time>
      </trkpt>
      <trkpt lat="43.21716" lon="0.14609">
        <ele>364</ele>
        <time>2018-09-30T09:45:00Z</time>
      </trkpt>
      <trkpt lat="43.21719" lon="0.14607">
        <ele>364</ele>
        <time>2018-09-30T09:45:01Z</time>
      </trkpt>
      <trkpt lat="43.21721" lon="0.14606">
        <ele>364</ele>
        <time>2018-09-30T09:45:02Z</time>
      </trkpt>
      <trkpt lat="43.21724" lon="0.14604">
        <ele>364</ele>
        <time>2018-09-30T09:45:03Z</time>
      </trkpt>
      <trkpt lat="43.21727" lon="0.14602">
        <ele>364</ele>
        <time>2018-09-30T09:45:04Z</time>
      </trkpt>
      <trkpt lat="43.21729" lon="0.146">
        <ele>363</ele>
        <time>2018-09-30T09:45:05Z</time>
      </trkpt>
      <trkpt lat="43.21732" lon="0.14597">
        <ele>363</ele>
        <time>2018-09-30T09:45:06Z</time>
      </trkpt>
      <trkpt lat="43.21736" lon="0.14594">
        <ele>363</ele>
        <time>2018-09-30T09:45:07Z</time>
      </trkpt>
      <trkpt lat="43.21739" lon="0.14591">
        <ele>363</ele>
        <time>2018-09-30T09:45:08Z</time>
      </trkpt>
      <trkpt lat="43.21742" lon="0.14587">
        <ele>363</ele>
        <time>2018-09-30T09:45:09Z</time>
      </trkpt>
      <trkpt lat="43.21744" lon="0.14584">
        <ele>363</ele>
        <time>2018-09-30T09:45:10Z</time>
      </trkpt>
      <trkpt lat="43.21749" lon="0.14579">
        <ele>363</ele>
        <time>2018-09-30T09:45:11Z</time>
      </trkpt>
      <trkpt lat="43.21754" lon="0.14576">
        <ele>363</ele>
        <time>2018-09-30T09:45:12Z</time>
      </trkpt>
      <trkpt lat="43.21758" lon="0.14573">
        <ele>363</ele>
        <time>2018-09-30T09:45:13Z</time>
      </trkpt>
      <trkpt lat="43.21762" lon="0.14572">
        <ele>363</ele>
        <time>2018-09-30T09:45:14Z</time>
      </trkpt>
      <trkpt lat="43.21767" lon="0.14571">
        <ele>363</ele>
        <time>2018-09-30T09:45:15Z</time>
      </trkpt>
      <trkpt lat="43.21772" lon="0.14572">
        <ele>362</ele>
        <time>2018-09-30T09:45:16Z</time>
      </trkpt>
      <trkpt lat="43.21778" lon="0.14574">
        <ele>362</ele>
        <time>2018-09-30T09:45:17Z</time>
      </trkpt>
      <trkpt lat="43.21784" lon="0.14575">
        <ele>362</ele>
        <time>2018-09-30T09:45:18Z</time>
      </trkpt>
      <trkpt lat="43.21791" lon="0.14577">
        <ele>362</ele>
        <time>2018-09-30T09:45:19Z</time>
      </trkpt>
      <trkpt lat="43.21798" lon="0.1458">
        <ele>361</ele>
        <time>2018-09-30T09:45:20Z</time>
      </trkpt>
      <trkpt lat="43.21805" lon="0.14584">
        <ele>361</ele>
        <time>2018-09-30T09:45:21Z</time>
      </trkpt>
      <trkpt lat="43.21811" lon="0.14588">
        <ele>359</ele>
        <time>2018-09-30T09:45:22Z</time>
      </trkpt>
      <trkpt lat="43.21818" lon="0.14592">
        <ele>358</ele>
        <time>2018-09-30T09:45:23Z</time>
      </trkpt>
      <trkpt lat="43.21825" lon="0.14595">
        <ele>357</ele>
        <time>2018-09-30T09:45:24Z</time>
      </trkpt>
      <trkpt lat="43.21832" lon="0.14599">
        <ele>356</ele>
        <time>2018-09-30T09:45:25Z</time>
      </trkpt>
      <trkpt lat="43.21838" lon="0.14602">
        <ele>356</ele>
        <time>2018-09-30T09:45:26Z</time>
      </trkpt>
      <trkpt lat="43.21843" lon="0.14604">
        <ele>355</ele>
        <time>2018-09-30T09:45:27Z</time>
      </trkpt>
      <trkpt lat="43.2185" lon="0.14605">
        <ele>355</ele>
        <time>2018-09-30T09:45:28Z</time>
      </trkpt>
      <trkpt lat="43.21856" lon="0.14606">
        <ele>355</ele>
        <time>2018-09-30T09:45:29Z</time>
      </trkpt>
      <trkpt lat="43.21863" lon="0.14606">
        <ele>354</ele>
        <time>2018-09-30T09:45:30Z</time>
      </trkpt>
      <trkpt lat="43.21868" lon="0.14604">
        <ele>353</ele>
        <time>2018-09-30T09:45:31Z</time>
      </trkpt>
      <trkpt lat="43.21872" lon="0.14601">
        <ele>352</ele>
        <time>2018-09-30T09:45:32Z</time>
      </trkpt>
      <trkpt lat="43.21877" lon="0.14597">
        <ele>352</ele>
        <time>2018-09-30T09:45:33Z</time>
      </trkpt>
      <trkpt lat="43.21881" lon="0.14594">
        <ele>352</ele>
        <time>2018-09-30T09:45:34Z</time>
      </trkpt>
      <trkpt lat="43.21885" lon="0.14591">
        <ele>352</ele>
        <time>2018-09-30T09:45:35Z</time>
      </trkpt>
      <trkpt lat="43.21889" lon="0.14589">
        <ele>352</ele>
        <time>2018-09-30T09:45:36Z</time>
      </trkpt>
      <trkpt lat="43.21892" lon="0.14586">
        <ele>352</ele>
        <time>2018-09-30T09:45:37Z</time>
      </trkpt>
      <trkpt lat="43.21896" lon="0.14583">
        <ele>352</ele>
        <time>2018-09-30T09:45:38Z</time>
      </trkpt>
      <trkpt lat="43.219" lon="0.14579">
        <ele>352</ele>
        <time>2018-09-30T09:45:39Z</time>
      </trkpt>
      <trkpt lat="43.21904" lon="0.14575">
        <ele>352</ele>
        <time>2018-09-30T09:45:40Z</time>
      </trkpt>
      <trkpt lat="43.21908" lon="0.14572">
        <ele>352</ele>
        <time>2018-09-30T09:45:41Z</time>
      </trkpt>
      <trkpt lat="43.21912" lon="0.14569">
        <ele>352</ele>
        <time>2018-09-30T09:45:42Z</time>
      </trkpt>
      <trkpt lat="43.21916" lon="0.14566">
        <ele>352</ele>
        <time>2018-09-30T09:45:43Z</time>
      </trkpt>
      <trkpt lat="43.21921" lon="0.14563">
        <ele>351</ele>
        <time>2018-09-30T09:45:44Z</time>
      </trkpt>
      <trkpt lat="43.21924" lon="0.14562">
        <ele>351</ele>
        <time>2018-09-30T09:45:45Z</time>
      </trkpt>
      <trkpt lat="43.2193" lon="0.14561">
        <ele>351</ele>
        <time>2018-09-30T09:45:46Z</time>
      </trkpt>
      <trkpt lat="43.21939" lon="0.14558">
        <ele>351</ele>
        <time>2018-09-30T09:45:47Z</time>
      </trkpt>
      <trkpt lat="43.21946" lon="0.14557">
        <ele>351</ele>
        <time>2018-09-30T09:45:48Z</time>
      </trkpt>
      <trkpt lat="43.21952" lon="0.14558">
        <ele>351</ele>
        <time>2018-09-30T09:45:49Z</time>
      </trkpt>
      <trkpt lat="43.21958" lon="0.14559">
        <ele>351</ele>
        <time>2018-09-30T09:45:50Z</time>
      </trkpt>
      <trkpt lat="43.21963" lon="0.14561">
        <ele>351</ele>
        <time>2018-09-30T09:45:51Z</time>
      </trkpt>
      <trkpt lat="43.21966" lon="0.14563">
        <ele>351</ele>
        <time>2018-09-30T09:45:52Z</time>
      </trkpt>
      <trkpt lat="43.2197" lon="0.14564">
        <ele>351</ele>
        <time>2018-09-30T09:45:53Z</time>
      </trkpt>
      <trkpt lat="43.21974" lon="0.14563">
        <ele>351</ele>
        <time>2018-09-30T09:45:54Z</time>
      </trkpt>
      <trkpt lat="43.21977" lon="0.14563">
        <ele>351</ele>
        <time>2018-09-30T09:45:55Z</time>
      </trkpt>
      <trkpt lat="43.2198" lon="0.14561">
        <ele>351</ele>
        <time>2018-09-30T09:45:56Z</time>
      </trkpt>
      <trkpt lat="43.21984" lon="0.1456">
        <ele>351</ele>
        <time>2018-09-30T09:45:57Z</time>
      </trkpt>
      <trkpt lat="43.21987" lon="0.14557">
        <ele>351</ele>
        <time>2018-09-30T09:45:58Z</time>
      </trkpt>
      <trkpt lat="43.21992" lon="0.14555">
        <ele>351</ele>
        <time>2018-09-30T09:45:59Z</time>
      </trkpt>
      <trkpt lat="43.21996" lon="0.14554">
        <ele>351</ele>
        <time>2018-09-30T09:46:00Z</time>
      </trkpt>
      <trkpt lat="43.21999" lon="0.14553">
        <ele>351</ele>
        <time>2018-09-30T09:46:01Z</time>
      </trkpt>
      <trkpt lat="43.22003" lon="0.14551">
        <ele>351</ele>
        <time>2018-09-30T09:46:02Z</time>
      </trkpt>
      <trkpt lat="43.22008" lon="0.14549">
        <ele>351</ele>
        <time>2018-09-30T09:46:03Z</time>
      </trkpt>
      <trkpt lat="43.22012" lon="0.14548">
        <ele>351</ele>
        <time>2018-09-30T09:46:04Z</time>
      </trkpt>
      <trkpt lat="43.22017" lon="0.14545">
        <ele>351</ele>
        <time>2018-09-30T09:46:05Z</time>
      </trkpt>
      <trkpt lat="43.2202" lon="0.14544">
        <ele>351</ele>
        <time>2018-09-30T09:46:06Z</time>
      </trkpt>
      <trkpt lat="43.22024" lon="0.14543">
        <ele>351</ele>
        <time>2018-09-30T09:46:07Z</time>
      </trkpt>
      <trkpt lat="43.22029" lon="0.14542">
        <ele>351</ele>
        <time>2018-09-30T09:46:08Z</time>
      </trkpt>
      <trkpt lat="43.22033" lon="0.14541">
        <ele>351</ele>
        <time>2018-09-30T09:46:09Z</time>
      </trkpt>
      <trkpt lat="43.22038" lon="0.14539">
        <ele>351</ele>
        <time>2018-09-30T09:46:10Z</time>
      </trkpt>
      <trkpt lat="43.22042" lon="0.14536">
        <ele>350</ele>
        <time>2018-09-30T09:46:11Z</time>
      </trkpt>
      <trkpt lat="43.22046" lon="0.14534">
        <ele>350</ele>
        <time>2018-09-30T09:46:12Z</time>
      </trkpt>
      <trkpt lat="43.22051" lon="0.14532">
        <ele>350</ele>
        <time>2018-09-30T09:46:13Z</time>
      </trkpt>
      <trkpt lat="43.22055" lon="0.14532">
        <ele>350</ele>
        <time>2018-09-30T09:46:14Z</time>
      </trkpt>
      <trkpt lat="43.22058" lon="0.14533">
        <ele>350</ele>
        <time>2018-09-30T09:46:15Z</time>
      </trkpt>
      <trkpt lat="43.22061" lon="0.14534">
        <ele>350</ele>
        <time>2018-09-30T09:46:16Z</time>
      </trkpt>
      <trkpt lat="43.22065" lon="0.14536">
        <ele>350</ele>
        <time>2018-09-30T09:46:17Z</time>
      </trkpt>
      <trkpt lat="43.22069" lon="0.14538">
        <ele>350</ele>
        <time>2018-09-30T09:46:18Z</time>
      </trkpt>
      <trkpt lat="43.22074" lon="0.14543">
        <ele>350</ele>
        <time>2018-09-30T09:46:19Z</time>
      </trkpt>
      <trkpt lat="43.22079" lon="0.14549">
        <ele>350</ele>
        <time>2018-09-30T09:46:20Z</time>
      </trkpt>
      <trkpt lat="43.22085" lon="0.14552">
        <ele>349</ele>
        <time>2018-09-30T09:46:21Z</time>
      </trkpt>
      <trkpt lat="43.22092" lon="0.14555">
        <ele>349</ele>
        <time>2018-09-30T09:46:22Z</time>
      </trkpt>
      <trkpt lat="43.22098" lon="0.14557">
        <ele>346</ele>
        <time>2018-09-30T09:46:23Z</time>
      </trkpt>
      <trkpt lat="43.22103" lon="0.14561">
        <ele>346</ele>
        <time>2018-09-30T09:46:24Z</time>
      </trkpt>
      <trkpt lat="43.22107" lon="0.14564">
        <ele>345</ele>
        <time>2018-09-30T09:46:25Z</time>
      </trkpt>
      <trkpt lat="43.22112" lon="0.14565">
        <ele>345</ele>
        <time>2018-09-30T09:46:26Z</time>
      </trkpt>
      <trkpt lat="43.22116" lon="0.14567">
        <ele>345</ele>
        <time>2018-09-30T09:46:27Z</time>
      </trkpt>
      <trkpt lat="43.22121" lon="0.14567">
        <ele>345</ele>
        <time>2018-09-30T09:46:28Z</time>
      </trkpt>
      <trkpt lat="43.22127" lon="0.14568">
        <ele>345</ele>
        <time>2018-09-30T09:46:29Z</time>
      </trkpt>
      <trkpt lat="43.22133" lon="0.14569">
        <ele>345</ele>
        <time>2018-09-30T09:46:30Z</time>
      </trkpt>
      <trkpt lat="43.22138" lon="0.14569">
        <ele>344</ele>
        <time>2018-09-30T09:46:31Z</time>
      </trkpt>
      <trkpt lat="43.22143" lon="0.14568">
        <ele>344</ele>
        <time>2018-09-30T09:46:32Z</time>
      </trkpt>
      <trkpt lat="43.22148" lon="0.14568">
        <ele>344</ele>
        <time>2018-09-30T09:46:33Z</time>
      </trkpt>
      <trkpt lat="43.22152" lon="0.14569">
        <ele>344</ele>
        <time>2018-09-30T09:46:34Z</time>
      </trkpt>
      <trkpt lat="43.22156" lon="0.1457">
        <ele>344</ele>
        <time>2018-09-30T09:46:35Z</time>
      </trkpt>
      <trkpt lat="43.22161" lon="0.14572">
        <ele>344</ele>
        <time>2018-09-30T09:46:36Z</time>
      </trkpt>
      <trkpt lat="43.22164" lon="0.14574">
        <ele>344</ele>
        <time>2018-09-30T09:46:37Z</time>
      </trkpt>
      <trkpt lat="43.22168" lon="0.14576">
        <ele>344</ele>
        <time>2018-09-30T09:46:38Z</time>
      </trkpt>
      <trkpt lat="43.22171" lon="0.14578">
        <ele>344</ele>
        <time>2018-09-30T09:46:39Z</time>
      </trkpt>
      <trkpt lat="43.22174" lon="0.14579">
        <ele>344</ele>
        <time>2018-09-30T09:46:40Z</time>
      </trkpt>
      <trkpt lat="43.22178" lon="0.1458">
        <ele>344</ele>
        <time>2018-09-30T09:46:41Z</time>
      </trkpt>
      <trkpt lat="43.22182" lon="0.14581">
        <ele>344</ele>
        <time>2018-09-30T09:46:42Z</time>
      </trkpt>
      <trkpt lat="43.22185" lon="0.14581">
        <ele>344</ele>
        <time>2018-09-30T09:46:43Z</time>
      </trkpt>
      <trkpt lat="43.2219" lon="0.14581">
        <ele>345</ele>
        <time>2018-09-30T09:46:44Z</time>
      </trkpt>
      <trkpt lat="43.22193" lon="0.14582">
        <ele>345</ele>
        <time>2018-09-30T09:46:45Z</time>
      </trkpt>
      <trkpt lat="43.22197" lon="0.14583">
        <ele>345</ele>
        <time>2018-09-30T09:46:46Z</time>
      </trkpt>
      <trkpt lat="43.22201" lon="0.14583">
        <ele>345</ele>
        <time>2018-09-30T09:46:47Z</time>
      </trkpt>
      <trkpt lat="43.22204" lon="0.14584">
        <ele>345</ele>
        <time>2018-09-30T09:46:48Z</time>
      </trkpt>
      <trkpt lat="43.22207" lon="0.14584">
        <ele>345</ele>
        <time>2018-09-30T09:46:49Z</time>
      </trkpt>
      <trkpt lat="43.22209" lon="0.14585">
        <ele>345</ele>
        <time>2018-09-30T09:46:50Z</time>
      </trkpt>
      <trkpt lat="43.22211" lon="0.14587">
        <ele>345</ele>
        <time>2018-09-30T09:46:51Z</time>
      </trkpt>
      <trkpt lat="43.22213" lon="0.14589">
        <ele>346</ele>
        <time>2018-09-30T09:46:52Z</time>
      </trkpt>
      <trkpt lat="43.22215" lon="0.14591">
        <ele>346</ele>
        <time>2018-09-30T09:46:53Z</time>
      </trkpt>
      <trkpt lat="43.22218" lon="0.14593">
        <ele>347</ele>
        <time>2018-09-30T09:46:54Z</time>
      </trkpt>
      <trkpt lat="43.22221" lon="0.14595">
        <ele>347</ele>
        <time>2018-09-30T09:46:55Z</time>
      </trkpt>
      <trkpt lat="43.22224" lon="0.14594">
        <ele>347</ele>
        <time>2018-09-30T09:46:56Z</time>
      </trkpt>
      <trkpt lat="43.22226" lon="0.14593">
        <ele>347</ele>
        <time>2018-09-30T09:46:57Z</time>
      </trkpt>
      <trkpt lat="43.22228" lon="0.14592">
        <ele>347</ele>
        <time>2018-09-30T09:46:58Z</time>
      </trkpt>
      <trkpt lat="43.2223" lon="0.1459">
        <ele>347</ele>
        <time>2018-09-30T09:46:59Z</time>
      </trkpt>
      <trkpt lat="43.22232" lon="0.14588">
        <ele>348</ele>
        <time>2018-09-30T09:47:00Z</time>
      </trkpt>
      <trkpt lat="43.22235" lon="0.14586">
        <ele>348</ele>
        <time>2018-09-30T09:47:01Z</time>
      </trkpt>
      <trkpt lat="43.22238" lon="0.14584">
        <ele>348</ele>
        <time>2018-09-30T09:47:02Z</time>
      </trkpt>
      <trkpt lat="43.22242" lon="0.14581">
        <ele>348</ele>
        <time>2018-09-30T09:47:03Z</time>
      </trkpt>
      <trkpt lat="43.22246" lon="0.14578">
        <ele>348</ele>
        <time>2018-09-30T09:47:04Z</time>
      </trkpt>
      <trkpt lat="43.2225" lon="0.14575">
        <ele>348</ele>
        <time>2018-09-30T09:47:05Z</time>
      </trkpt>
      <trkpt lat="43.22254" lon="0.14572">
        <ele>348</ele>
        <time>2018-09-30T09:47:06Z</time>
      </trkpt>
      <trkpt lat="43.22258" lon="0.14569">
        <ele>348</ele>
        <time>2018-09-30T09:47:07Z</time>
      </trkpt>
      <trkpt lat="43.22262" lon="0.14566">
        <ele>348</ele>
        <time>2018-09-30T09:47:08Z</time>
      </trkpt>
      <trkpt lat="43.22265" lon="0.14564">
        <ele>348</ele>
        <time>2018-09-30T09:47:09Z</time>
      </trkpt>
      <trkpt lat="43.22267" lon="0.1456">
        <ele>350</ele>
        <time>2018-09-30T09:47:10Z</time>
      </trkpt>
      <trkpt lat="43.22271" lon="0.14556">
        <ele>350</ele>
        <time>2018-09-30T09:47:11Z</time>
      </trkpt>
      <trkpt lat="43.22274" lon="0.14552">
        <ele>351</ele>
        <time>2018-09-30T09:47:12Z</time>
      </trkpt>
      <trkpt lat="43.22278" lon="0.14548">
        <ele>352</ele>
        <time>2018-09-30T09:47:13Z</time>
      </trkpt>
      <trkpt lat="43.22281" lon="0.14542">
        <ele>352</ele>
        <time>2018-09-30T09:47:14Z</time>
      </trkpt>
      <trkpt lat="43.22285" lon="0.14536">
        <ele>353</ele>
        <time>2018-09-30T09:47:15Z</time>
      </trkpt>
      <trkpt lat="43.22288" lon="0.14532">
        <ele>353</ele>
        <time>2018-09-30T09:47:16Z</time>
      </trkpt>
      <trkpt lat="43.22293" lon="0.14527">
        <ele>353</ele>
        <time>2018-09-30T09:47:17Z</time>
      </trkpt>
      <trkpt lat="43.22295" lon="0.14523">
        <ele>353</ele>
        <time>2018-09-30T09:47:18Z</time>
      </trkpt>
      <trkpt lat="43.223" lon="0.14519">
        <ele>354</ele>
        <time>2018-09-30T09:47:19Z</time>
      </trkpt>
      <trkpt lat="43.22305" lon="0.14515">
        <ele>354</ele>
        <time>2018-09-30T09:47:20Z</time>
      </trkpt>
      <trkpt lat="43.2231" lon="0.14511">
        <ele>354</ele>
        <time>2018-09-30T09:47:21Z</time>
      </trkpt>
      <trkpt lat="43.22313" lon="0.14508">
        <ele>354</ele>
        <time>2018-09-30T09:47:22Z</time>
      </trkpt>
      <trkpt lat="43.22315" lon="0.14506">
        <ele>355</ele>
        <time>2018-09-30T09:47:23Z</time>
      </trkpt>
      <trkpt lat="43.22317" lon="0.14502">
        <ele>355</ele>
        <time>2018-09-30T09:47:24Z</time>
      </trkpt>
      <trkpt lat="43.22319" lon="0.14497">
        <ele>355</ele>
        <time>2018-09-30T09:47:25Z</time>
      </trkpt>
      <trkpt lat="43.22321" lon="0.14494">
        <ele>355</ele>
        <time>2018-09-30T09:47:26Z</time>
      </trkpt>
      <trkpt lat="43.22324" lon="0.14491">
        <ele>355</ele>
        <time>2018-09-30T09:47:27Z</time>
      </trkpt>
      <trkpt lat="43.22327" lon="0.14489">
        <ele>355</ele>
        <time>2018-09-30T09:47:28Z</time>
      </trkpt>
      <trkpt lat="43.2233" lon="0.14488">
        <ele>355</ele>
        <time>2018-09-30T09:47:29Z</time>
      </trkpt>
      <trkpt lat="43.22332" lon="0.14486">
        <ele>355</ele>
        <time>2018-09-30T09:47:30Z</time>
      </trkpt>
      <trkpt lat="43.22334" lon="0.14485">
        <ele>355</ele>
        <time>2018-09-30T09:47:31Z</time>
      </trkpt>
      <trkpt lat="43.22335" lon="0.14485">
        <ele>355</ele>
        <time>2018-09-30T09:47:32Z</time>
      </trkpt>
      <trkpt lat="43.22335" lon="0.14485">
        <ele>354</ele>
        <time>2018-09-30T09:47:33Z</time>
      </trkpt>
      <trkpt lat="43.22338" lon="0.14485">
        <ele>354</ele>
        <time>2018-09-30T09:47:34Z</time>
      </trkpt>
      <trkpt lat="43.22342" lon="0.1448">
        <ele>354</ele>
        <time>2018-09-30T09:47:35Z</time>
      </trkpt>
      <trkpt lat="43.22345" lon="0.14475">
        <ele>354</ele>
        <time>2018-09-30T09:47:36Z</time>
      </trkpt>
      <trkpt lat="43.22348" lon="0.14469">
        <ele>354</ele>
        <time>2018-09-30T09:47:37Z</time>
      </trkpt>
      <trkpt lat="43.2235" lon="0.14461">
        <ele>354</ele>
        <time>2018-09-30T09:47:38Z</time>
      </trkpt>
      <trkpt lat="43.22353" lon="0.14454">
        <ele>354</ele>
        <time>2018-09-30T09:47:39Z</time>
      </trkpt>
      <trkpt lat="43.22355" lon="0.14448">
        <ele>349</ele>
        <time>2018-09-30T09:47:40Z</time>
      </trkpt>
      <trkpt lat="43.2236" lon="0.14441">
        <ele>348</ele>
        <time>2018-09-30T09:47:41Z</time>
      </trkpt>
      <trkpt lat="43.22363" lon="0.14434">
        <ele>346</ele>
        <time>2018-09-30T09:47:42Z</time>
      </trkpt>
      <trkpt lat="43.22368" lon="0.1443">
        <ele>346</ele>
        <time>2018-09-30T09:47:43Z</time>
      </trkpt>
      <trkpt lat="43.22371" lon="0.14426">
        <ele>345</ele>
        <time>2018-09-30T09:47:44Z</time>
      </trkpt>
      <trkpt lat="43.22373" lon="0.1442">
        <ele>345</ele>
        <time>2018-09-30T09:47:45Z</time>
      </trkpt>
      <trkpt lat="43.22378" lon="0.14414">
        <ele>344</ele>
        <time>2018-09-30T09:47:46Z</time>
      </trkpt>
      <trkpt lat="43.22382" lon="0.14409">
        <ele>344</ele>
        <time>2018-09-30T09:47:47Z</time>
      </trkpt>
      <trkpt lat="43.22387" lon="0.14406">
        <ele>343</ele>
        <time>2018-09-30T09:47:48Z</time>
      </trkpt>
      <trkpt lat="43.22391" lon="0.14403">
        <ele>343</ele>
        <time>2018-09-30T09:47:49Z</time>
      </trkpt>
      <trkpt lat="43.22395" lon="0.14399">
        <ele>343</ele>
        <time>2018-09-30T09:47:50Z</time>
      </trkpt>
      <trkpt lat="43.22398" lon="0.14394">
        <ele>341</ele>
        <time>2018-09-30T09:47:51Z</time>
      </trkpt>
      <trkpt lat="43.22402" lon="0.14389">
        <ele>340</ele>
        <time>2018-09-30T09:47:52Z</time>
      </trkpt>
      <trkpt lat="43.22407" lon="0.14383">
        <ele>339</ele>
        <time>2018-09-30T09:47:53Z</time>
      </trkpt>
      <trkpt lat="43.2241" lon="0.14379">
        <ele>338</ele>
        <time>2018-09-30T09:47:54Z</time>
      </trkpt>
      <trkpt lat="43.22414" lon="0.14372">
        <ele>338</ele>
        <time>2018-09-30T09:47:55Z</time>
      </trkpt>
      <trkpt lat="43.22418" lon="0.14366">
        <ele>338</ele>
        <time>2018-09-30T09:47:56Z</time>
      </trkpt>
      <trkpt lat="43.22421" lon="0.1436">
        <ele>337</ele>
        <time>2018-09-30T09:47:57Z</time>
      </trkpt>
      <trkpt lat="43.22424" lon="0.14356">
        <ele>337</ele>
        <time>2018-09-30T09:47:58Z</time>
      </trkpt>
      <trkpt lat="43.22428" lon="0.14353">
        <ele>337</ele>
        <time>2018-09-30T09:47:59Z</time>
      </trkpt>
      <trkpt lat="43.22431" lon="0.14349">
        <ele>337</ele>
        <time>2018-09-30T09:48:00Z</time>
      </trkpt>
      <trkpt lat="43.22434" lon="0.14345">
        <ele>337</ele>
        <time>2018-09-30T09:48:01Z</time>
      </trkpt>
      <trkpt lat="43.22438" lon="0.1434">
        <ele>337</ele>
        <time>2018-09-30T09:48:02Z</time>
      </trkpt>
      <trkpt lat="43.2244" lon="0.14335">
        <ele>336</ele>
        <time>2018-09-30T09:48:03Z</time>
      </trkpt>
      <trkpt lat="43.22444" lon="0.14331">
        <ele>335</ele>
        <time>2018-09-30T09:48:04Z</time>
      </trkpt>
      <trkpt lat="43.22445" lon="0.14327">
        <ele>335</ele>
        <time>2018-09-30T09:48:05Z</time>
      </trkpt>
      <trkpt lat="43.22447" lon="0.14324">
        <ele>335</ele>
        <time>2018-09-30T09:48:06Z</time>
      </trkpt>
      <trkpt lat="43.2245" lon="0.1432">
        <ele>335</ele>
        <time>2018-09-30T09:48:07Z</time>
      </trkpt>
      <trkpt lat="43.22453" lon="0.14315">
        <ele>335</ele>
        <time>2018-09-30T09:48:08Z</time>
      </trkpt>
      <trkpt lat="43.22458" lon="0.1431">
        <ele>335</ele>
        <time>2018-09-30T09:48:09Z</time>
      </trkpt>
      <trkpt lat="43.22462" lon="0.14307">
        <ele>335</ele>
        <time>2018-09-30T09:48:10Z</time>
      </trkpt>
      <trkpt lat="43.22466" lon="0.14304">
        <ele>335</ele>
        <time>2018-09-30T09:48:11Z</time>
      </trkpt>
      <trkpt lat="43.22471" lon="0.14301">
        <ele>335</ele>
        <time>2018-09-30T09:48:12Z</time>
      </trkpt>
      <trkpt lat="43.22477" lon="0.14297">
        <ele>335</ele>
        <time>2018-09-30T09:48:13Z</time>
      </trkpt>
      <trkpt lat="43.22482" lon="0.14292">
        <ele>335</ele>
        <time>2018-09-30T09:48:14Z</time>
      </trkpt>
      <trkpt lat="43.22487" lon="0.14289">
        <ele>335</ele>
        <time>2018-09-30T09:48:15Z</time>
      </trkpt>
      <trkpt lat="43.22494" lon="0.14284">
        <ele>335</ele>
        <time>2018-09-30T09:48:16Z</time>
      </trkpt>
      <trkpt lat="43.22499" lon="0.14281">
        <ele>335</ele>
        <time>2018-09-30T09:48:17Z</time>
      </trkpt>
      <trkpt lat="43.22503" lon="0.14279">
        <ele>335</ele>
        <time>2018-09-30T09:48:18Z</time>
      </trkpt>
      <trkpt lat="43.2251" lon="0.14274">
        <ele>335</ele>
        <time>2018-09-30T09:48:19Z</time>
      </trkpt>
      <trkpt lat="43.22517" lon="0.14271">
        <ele>335</ele>
        <time>2018-09-30T09:48:20Z</time>
      </trkpt>
      <trkpt lat="43.22524" lon="0.14268">
        <ele>335</ele>
        <time>2018-09-30T09:48:21Z</time>
      </trkpt>
      <trkpt lat="43.22529" lon="0.14265">
        <ele>335</ele>
        <time>2018-09-30T09:48:22Z</time>
      </trkpt>
      <trkpt lat="43.22534" lon="0.14262">
        <ele>335</ele>
        <time>2018-09-30T09:48:23Z</time>
      </trkpt>
      <trkpt lat="43.22539" lon="0.14259">
        <ele>334</ele>
        <time>2018-09-30T09:48:24Z</time>
      </trkpt>
      <trkpt lat="43.22543" lon="0.14256">
        <ele>334</ele>
        <time>2018-09-30T09:48:25Z</time>
      </trkpt>
      <trkpt lat="43.22545" lon="0.14254">
        <ele>334</ele>
        <time>2018-09-30T09:48:26Z</time>
      </trkpt>
      <trkpt lat="43.2255" lon="0.1425">
        <ele>334</ele>
        <time>2018-09-30T09:48:27Z</time>
      </trkpt>
      <trkpt lat="43.22554" lon="0.14245">
        <ele>334</ele>
        <time>2018-09-30T09:48:28Z</time>
      </trkpt>
      <trkpt lat="43.22556" lon="0.14241">
        <ele>334</ele>
        <time>2018-09-30T09:48:29Z</time>
      </trkpt>
      <trkpt lat="43.22558" lon="0.14236">
        <ele>334</ele>
        <time>2018-09-30T09:48:30Z</time>
      </trkpt>
      <trkpt lat="43.2256" lon="0.14231">
        <ele>334</ele>
        <time>2018-09-30T09:48:31Z</time>
      </trkpt>
      <trkpt lat="43.2256" lon="0.14226">
        <ele>333</ele>
        <time>2018-09-30T09:48:32Z</time>
      </trkpt>
      <trkpt lat="43.2256" lon="0.1422">
        <ele>333</ele>
        <time>2018-09-30T09:48:33Z</time>
      </trkpt>
      <trkpt lat="43.22558" lon="0.14214">
        <ele>333</ele>
        <time>2018-09-30T09:48:34Z</time>
      </trkpt>
      <trkpt lat="43.22557" lon="0.1421">
        <ele>333</ele>
        <time>2018-09-30T09:48:35Z</time>
      </trkpt>
      <trkpt lat="43.22555" lon="0.14205">
        <ele>333</ele>
        <time>2018-09-30T09:48:36Z</time>
      </trkpt>
      <trkpt lat="43.22553" lon="0.142">
        <ele>333</ele>
        <time>2018-09-30T09:48:37Z</time>
      </trkpt>
      <trkpt lat="43.22551" lon="0.14195">
        <ele>333</ele>
        <time>2018-09-30T09:48:38Z</time>
      </trkpt>
      <trkpt lat="43.22548" lon="0.1419">
        <ele>333</ele>
        <time>2018-09-30T09:48:39Z</time>
      </trkpt>
      <trkpt lat="43.22545" lon="0.14184">
        <ele>333</ele>
        <time>2018-09-30T09:48:40Z</time>
      </trkpt>
      <trkpt lat="43.22543" lon="0.14178">
        <ele>333</ele>
        <time>2018-09-30T09:48:41Z</time>
      </trkpt>
      <trkpt lat="43.22539" lon="0.14172">
        <ele>332</ele>
        <time>2018-09-30T09:48:42Z</time>
      </trkpt>
      <trkpt lat="43.22536" lon="0.14167">
        <ele>332</ele>
        <time>2018-09-30T09:48:43Z</time>
      </trkpt>
      <trkpt lat="43.22534" lon="0.14162">
        <ele>332</ele>
        <time>2018-09-30T09:48:44Z</time>
      </trkpt>
      <trkpt lat="43.22531" lon="0.14157">
        <ele>332</ele>
        <time>2018-09-30T09:48:45Z</time>
      </trkpt>
      <trkpt lat="43.22528" lon="0.14152">
        <ele>332</ele>
        <time>2018-09-30T09:48:46Z</time>
      </trkpt>
      <trkpt lat="43.22526" lon="0.14148">
        <ele>332</ele>
        <time>2018-09-30T09:48:47Z</time>
      </trkpt>
      <trkpt lat="43.22523" lon="0.14143">
        <ele>332</ele>
        <time>2018-09-30T09:48:48Z</time>
      </trkpt>
      <trkpt lat="43.22521" lon="0.14139">
        <ele>332</ele>
        <time>2018-09-30T09:48:49Z</time>
      </trkpt>
      <trkpt lat="43.22519" lon="0.14135">
        <ele>332</ele>
        <time>2018-09-30T09:48:50Z</time>
      </trkpt>
      <trkpt lat="43.22516" lon="0.14131">
        <ele>332</ele>
        <time>2018-09-30T09:48:51Z</time>
      </trkpt>
      <trkpt lat="43.22514" lon="0.14126">
        <ele>332</ele>
        <time>2018-09-30T09:48:52Z</time>
      </trkpt>
      <trkpt lat="43.22511" lon="0.14122">
        <ele>332</ele>
        <time>2018-09-30T09:48:53Z</time>
      </trkpt>
      <trkpt lat="43.22509" lon="0.14118">
        <ele>332</ele>
        <time>2018-09-30T09:48:54Z</time>
      </trkpt>
      <trkpt lat="43.22507" lon="0.14114">
        <ele>332</ele>
        <time>2018-09-30T09:48:55Z</time>
      </trkpt>
      <trkpt lat="43.22505" lon="0.1411">
        <ele>332</ele>
        <time>2018-09-30T09:48:56Z</time>
      </trkpt>
      <trkpt lat="43.22502" lon="0.14106">
        <ele>333</ele>
        <time>2018-09-30T09:48:57Z</time>
      </trkpt>
      <trkpt lat="43.225" lon="0.14102">
        <ele>333</ele>
        <time>2018-09-30T09:48:58Z</time>
      </trkpt>
      <trkpt lat="43.22498" lon="0.14098">
        <ele>333</ele>
        <time>2018-09-30T09:48:59Z</time>
      </trkpt>
      <trkpt lat="43.22496" lon="0.14094">
        <ele>333</ele>
        <time>2018-09-30T09:49:00Z</time>
      </trkpt>
      <trkpt lat="43.22494" lon="0.1409">
        <ele>333</ele>
        <time>2018-09-30T09:49:01Z</time>
      </trkpt>
      <trkpt lat="43.22492" lon="0.14086">
        <ele>333</ele>
        <time>2018-09-30T09:49:02Z</time>
      </trkpt>
      <trkpt lat="43.2249" lon="0.14082">
        <ele>333</ele>
        <time>2018-09-30T09:49:03Z</time>
      </trkpt>
      <trkpt lat="43.22488" lon="0.14078">
        <ele>333</ele>
        <time>2018-09-30T09:49:04Z</time>
      </trkpt>
      <trkpt lat="43.22486" lon="0.14074">
        <ele>333</ele>
        <time>2018-09-30T09:49:05Z</time>
      </trkpt>
      <trkpt lat="43.22484" lon="0.1407">
        <ele>334</ele>
        <time>2018-09-30T09:49:06Z</time>
      </trkpt>
      <trkpt lat="43.22482" lon="0.14066">
        <ele>334</ele>
        <time>2018-09-30T09:49:07Z</time>
      </trkpt>
      <trkpt lat="43.2248" lon="0.14062">
        <ele>334</ele>
        <time>2018-09-30T09:49:08Z</time>
      </trkpt>
      <trkpt lat="43.22478" lon="0.14058">
        <ele>334</ele>
        <time>2018-09-30T09:49:09Z</time>
      </trkpt>
      <trkpt lat="43.22476" lon="0.14054">
        <ele>334</ele>
        <time>2018-09-30T09:49:10Z</time>
      </trkpt>
      <trkpt lat="43.22473" lon="0.1405">
        <ele>334</ele>
        <time>2018-09-30T09:49:11Z</time>
      </trkpt>
      <trkpt lat="43.22471" lon="0.14046">
        <ele>334</ele>
        <time>2018-09-30T09:49:12Z</time>
      </trkpt>
      <trkpt lat="43.2247" lon="0.14043">
        <ele>335</ele>
        <time>2018-09-30T09:49:13Z</time>
      </trkpt>
      <trkpt lat="43.22469" lon="0.1404">
        <ele>336</ele>
        <time>2018-09-30T09:49:14Z</time>
      </trkpt>
      <trkpt lat="43.22467" lon="0.14037">
        <ele>336</ele>
        <time>2018-09-30T09:49:15Z</time>
      </trkpt>
      <trkpt lat="43.22466" lon="0.14034">
        <ele>336</ele>
        <time>2018-09-30T09:49:16Z</time>
      </trkpt>
      <trkpt lat="43.22465" lon="0.14032">
        <ele>336</ele>
        <time>2018-09-30T09:49:17Z</time>
      </trkpt>
      <trkpt lat="43.22463" lon="0.14029">
        <ele>337</ele>
        <time>2018-09-30T09:49:18Z</time>
      </trkpt>
      <trkpt lat="43.22462" lon="0.14026">
        <ele>337</ele>
        <time>2018-09-30T09:49:19Z</time>
      </trkpt>
      <trkpt lat="43.2246" lon="0.14023">
        <ele>337</ele>
        <time>2018-09-30T09:49:20Z</time>
      </trkpt>
      <trkpt lat="43.22459" lon="0.14019">
        <ele>337</ele>
        <time>2018-09-30T09:49:21Z</time>
      </trkpt>
      <trkpt lat="43.22457" lon="0.14015">
        <ele>337</ele>
        <time>2018-09-30T09:49:22Z</time>
      </trkpt>
      <trkpt lat="43.22456" lon="0.14011">
        <ele>337</ele>
        <time>2018-09-30T09:49:23Z</time>
      </trkpt>
      <trkpt lat="43.22454" lon="0.14007">
        <ele>337</ele>
        <time>2018-09-30T09:49:24Z</time>
      </trkpt>
      <trkpt lat="43.22452" lon="0.14003">
        <ele>337</ele>
        <time>2018-09-30T09:49:25Z</time>
      </trkpt>
      <trkpt lat="43.2245" lon="0.14">
        <ele>337</ele>
        <time>2018-09-30T09:49:26Z</time>
      </trkpt>
      <trkpt lat="43.22448" lon="0.13997">
        <ele>338</ele>
        <time>2018-09-30T09:49:27Z</time>
      </trkpt>
      <trkpt lat="43.22447" lon="0.13994">
        <ele>338</ele>
        <time>2018-09-30T09:49:28Z</time>
      </trkpt>
      <trkpt lat="43.22445" lon="0.13991">
        <ele>338</ele>
        <time>2018-09-30T09:49:29Z</time>
      </trkpt>
      <trkpt lat="43.22443" lon="0.13988">
        <ele>338</ele>
        <time>2018-09-30T09:49:30Z</time>
      </trkpt>
      <trkpt lat="43.22441" lon="0.13984">
        <ele>338</ele>
        <time>2018-09-30T09:49:31Z</time>
      </trkpt>
      <trkpt lat="43.22439" lon="0.1398">
        <ele>338</ele>
        <time>2018-09-30T09:49:32Z</time>
      </trkpt>
      <trkpt lat="43.22437" lon="0.13976">
        <ele>338</ele>
        <time>2018-09-30T09:49:33Z</time>
      </trkpt>
      <trkpt lat="43.22435" lon="0.13972">
        <ele>339</ele>
        <time>2018-09-30T09:49:34Z</time>
      </trkpt>
      <trkpt lat="43.22433" lon="0.13968">
        <ele>340</ele>
        <time>2018-09-30T09:49:35Z</time>
      </trkpt>
      <trkpt lat="43.22431" lon="0.13964">
        <ele>340</ele>
        <time>2018-09-30T09:49:36Z</time>
      </trkpt>
      <trkpt lat="43.22429" lon="0.13961">
        <ele>340</ele>
        <time>2018-09-30T09:49:37Z</time>
      </trkpt>
      <trkpt lat="43.22427" lon="0.13957">
        <ele>340</ele>
        <time>2018-09-30T09:49:38Z</time>
      </trkpt>
      <trkpt lat="43.22425" lon="0.13953">
        <ele>340</ele>
        <time>2018-09-30T09:49:39Z</time>
      </trkpt>
      <trkpt lat="43.22423" lon="0.1395">
        <ele>340</ele>
        <time>2018-09-30T09:49:40Z</time>
      </trkpt>
      <trkpt lat="43.22421" lon="0.13947">
        <ele>340</ele>
        <time>2018-09-30T09:49:41Z</time>
      </trkpt>
      <trkpt lat="43.22419" lon="0.13944">
        <ele>340</ele>
        <time>2018-09-30T09:49:42Z</time>
      </trkpt>
      <trkpt lat="43.22417" lon="0.13941">
        <ele>341</ele>
        <time>2018-09-30T09:49:43Z</time>
      </trkpt>
      <trkpt lat="43.22415" lon="0.13938">
        <ele>341</ele>
        <time>2018-09-30T09:49:44Z</time>
      </trkpt>
      <trkpt lat="43.22414" lon="0.13934">
        <ele>341</ele>
        <time>2018-09-30T09:49:45Z</time>
      </trkpt>
      <trkpt lat="43.22412" lon="0.13931">
        <ele>341</ele>
        <time>2018-09-30T09:49:46Z</time>
      </trkpt>
      <trkpt lat="43.22411" lon="0.13928">
        <ele>341</ele>
        <time>2018-09-30T09:49:47Z</time>
      </trkpt>
      <trkpt lat="43.22409" lon="0.13924">
        <ele>341</ele>
        <time>2018-09-30T09:49:48Z</time>
      </trkpt>
      <trkpt lat="43.22407" lon="0.1392">
        <ele>341</ele>
        <time>2018-09-30T09:49:49Z</time>
      </trkpt>
      <trkpt lat="43.22406" lon="0.13917">
        <ele>341</ele>
        <time>2018-09-30T09:49:50Z</time>
      </trkpt>
      <trkpt lat="43.22404" lon="0.13914">
        <ele>341</ele>
        <time>2018-09-30T09:49:51Z</time>
      </trkpt>
      <trkpt lat="43.22403" lon="0.1391">
        <ele>342</ele>
        <time>2018-09-30T09:49:52Z</time>
      </trkpt>
      <trkpt lat="43.22401" lon="0.13906">
        <ele>343</ele>
        <time>2018-09-30T09:49:53Z</time>
      </trkpt>
      <trkpt lat="43.22399" lon="0.13903">
        <ele>343</ele>
        <time>2018-09-30T09:49:54Z</time>
      </trkpt>
      <trkpt lat="43.22397" lon="0.13899">
        <ele>343</ele>
        <time>2018-09-30T09:49:55Z</time>
      </trkpt>
      <trkpt lat="43.22396" lon="0.13896">
        <ele>344</ele>
        <time>2018-09-30T09:49:56Z</time>
      </trkpt>
      <trkpt lat="43.22394" lon="0.13892">
        <ele>344</ele>
        <time>2018-09-30T09:49:57Z</time>
      </trkpt>
      <trkpt lat="43.22392" lon="0.13888">
        <ele>344</ele>
        <time>2018-09-30T09:49:58Z</time>
      </trkpt>
      <trkpt lat="43.2239" lon="0.13884">
        <ele>344</ele>
        <time>2018-09-30T09:49:59Z</time>
      </trkpt>
      <trkpt lat="43.22388" lon="0.13881">
        <ele>344</ele>
        <time>2018-09-30T09:50:00Z</time>
      </trkpt>
      <trkpt lat="43.22386" lon="0.13877">
        <ele>344</ele>
        <time>2018-09-30T09:50:01Z</time>
      </trkpt>
      <trkpt lat="43.22385" lon="0.13873">
        <ele>344</ele>
        <time>2018-09-30T09:50:02Z</time>
      </trkpt>
      <trkpt lat="43.22383" lon="0.1387">
        <ele>345</ele>
        <time>2018-09-30T09:50:03Z</time>
      </trkpt>
      <trkpt lat="43.22381" lon="0.13866">
        <ele>345</ele>
        <time>2018-09-30T09:50:04Z</time>
      </trkpt>
      <trkpt lat="43.22379" lon="0.13862">
        <ele>345</ele>
        <time>2018-09-30T09:50:05Z</time>
      </trkpt>
      <trkpt lat="43.22377" lon="0.13859">
        <ele>345</ele>
        <time>2018-09-30T09:50:06Z</time>
      </trkpt>
      <trkpt lat="43.22375" lon="0.13855">
        <ele>345</ele>
        <time>2018-09-30T09:50:07Z</time>
      </trkpt>
      <trkpt lat="43.22373" lon="0.13851">
        <ele>345</ele>
        <time>2018-09-30T09:50:08Z</time>
      </trkpt>
      <trkpt lat="43.22372" lon="0.13847">
        <ele>345</ele>
        <time>2018-09-30T09:50:09Z</time>
      </trkpt>
      <trkpt lat="43.2237" lon="0.13844">
        <ele>345</ele>
        <time>2018-09-30T09:50:10Z</time>
      </trkpt>
      <trkpt lat="43.22368" lon="0.1384">
        <ele>347</ele>
        <time>2018-09-30T09:50:11Z</time>
      </trkpt>
      <trkpt lat="43.22366" lon="0.13837">
        <ele>347</ele>
        <time>2018-09-30T09:50:12Z</time>
      </trkpt>
      <trkpt lat="43.22364" lon="0.13833">
        <ele>347</ele>
        <time>2018-09-30T09:50:13Z</time>
      </trkpt>
      <trkpt lat="43.22362" lon="0.13829">
        <ele>348</ele>
        <time>2018-09-30T09:50:14Z</time>
      </trkpt>
      <trkpt lat="43.2236" lon="0.13825">
        <ele>348</ele>
        <time>2018-09-30T09:50:15Z</time>
      </trkpt>
      <trkpt lat="43.22358" lon="0.13821">
        <ele>348</ele>
        <time>2018-09-30T09:50:16Z</time>
      </trkpt>
      <trkpt lat="43.22356" lon="0.13817">
        <ele>348</ele>
        <time>2018-09-30T09:50:17Z</time>
      </trkpt>
      <trkpt lat="43.22354" lon="0.13814">
        <ele>348</ele>
        <time>2018-09-30T09:50:18Z</time>
      </trkpt>
      <trkpt lat="43.22352" lon="0.1381">
        <ele>348</ele>
        <time>2018-09-30T09:50:19Z</time>
      </trkpt>
      <trkpt lat="43.2235" lon="0.13807">
        <ele>348</ele>
        <time>2018-09-30T09:50:20Z</time>
      </trkpt>
      <trkpt lat="43.22348" lon="0.13803">
        <ele>348</ele>
        <time>2018-09-30T09:50:21Z</time>
      </trkpt>
      <trkpt lat="43.22347" lon="0.13799">
        <ele>349</ele>
        <time>2018-09-30T09:50:22Z</time>
      </trkpt>
      <trkpt lat="43.22345" lon="0.13796">
        <ele>349</ele>
        <time>2018-09-30T09:50:23Z</time>
      </trkpt>
      <trkpt lat="43.22343" lon="0.13793">
        <ele>349</ele>
        <time>2018-09-30T09:50:24Z</time>
      </trkpt>
      <trkpt lat="43.22341" lon="0.13789">
        <ele>349</ele>
        <time>2018-09-30T09:50:25Z</time>
      </trkpt>
      <trkpt lat="43.22339" lon="0.13786">
        <ele>349</ele>
        <time>2018-09-30T09:50:26Z</time>
      </trkpt>
      <trkpt lat="43.22337" lon="0.13783">
        <ele>349</ele>
        <time>2018-09-30T09:50:27Z</time>
      </trkpt>
      <trkpt lat="43.22335" lon="0.13779">
        <ele>349</ele>
        <time>2018-09-30T09:50:28Z</time>
      </trkpt>
      <trkpt lat="43.22333" lon="0.13777">
        <ele>350</ele>
        <time>2018-09-30T09:50:29Z</time>
      </trkpt>
      <trkpt lat="43.22331" lon="0.13776">
        <ele>351</ele>
        <time>2018-09-30T09:50:30Z</time>
      </trkpt>
      <trkpt lat="43.22328" lon="0.13778">
        <ele>351</ele>
        <time>2018-09-30T09:50:31Z</time>
      </trkpt>
      <trkpt lat="43.22325" lon="0.1378">
        <ele>351</ele>
        <time>2018-09-30T09:50:32Z</time>
      </trkpt>
      <trkpt lat="43.22322" lon="0.13782">
        <ele>351</ele>
        <time>2018-09-30T09:50:33Z</time>
      </trkpt>
      <trkpt lat="43.2232" lon="0.13785">
        <ele>351</ele>
        <time>2018-09-30T09:50:34Z</time>
      </trkpt>
      <trkpt lat="43.22317" lon="0.13787">
        <ele>351</ele>
        <time>2018-09-30T09:50:35Z</time>
      </trkpt>
      <trkpt lat="43.22314" lon="0.1379">
        <ele>352</ele>
        <time>2018-09-30T09:50:36Z</time>
      </trkpt>
      <trkpt lat="43.2231" lon="0.13792">
        <ele>352</ele>
        <time>2018-09-30T09:50:37Z</time>
      </trkpt>
      <trkpt lat="43.22307" lon="0.13795">
        <ele>353</ele>
        <time>2018-09-30T09:50:38Z</time>
      </trkpt>
      <trkpt lat="43.22304" lon="0.13798">
        <ele>353</ele>
        <time>2018-09-30T09:50:39Z</time>
      </trkpt>
      <trkpt lat="43.223" lon="0.13802">
        <ele>353</ele>
        <time>2018-09-30T09:50:40Z</time>
      </trkpt>
      <trkpt lat="43.22297" lon="0.13804">
        <ele>354</ele>
        <time>2018-09-30T09:50:41Z</time>
      </trkpt>
      <trkpt lat="43.22293" lon="0.13807">
        <ele>354</ele>
        <time>2018-09-30T09:50:42Z</time>
      </trkpt>
      <trkpt lat="43.22289" lon="0.1381">
        <ele>355</ele>
        <time>2018-09-30T09:50:43Z</time>
      </trkpt>
      <trkpt lat="43.22286" lon="0.13814">
        <ele>355</ele>
        <time>2018-09-30T09:50:44Z</time>
      </trkpt>
      <trkpt lat="43.22281" lon="0.13817">
        <ele>358</ele>
        <time>2018-09-30T09:50:45Z</time>
      </trkpt>
      <trkpt lat="43.22277" lon="0.13821">
        <ele>359</ele>
        <time>2018-09-30T09:50:46Z</time>
      </trkpt>
      <trkpt lat="43.22273" lon="0.13825">
        <ele>360</ele>
        <time>2018-09-30T09:50:47Z</time>
      </trkpt>
      <trkpt lat="43.22269" lon="0.13829">
        <ele>360</ele>
        <time>2018-09-30T09:50:48Z</time>
      </trkpt>
      <trkpt lat="43.22264" lon="0.13833">
        <ele>360</ele>
        <time>2018-09-30T09:50:49Z</time>
      </trkpt>
      <trkpt lat="43.2226" lon="0.13837">
        <ele>360</ele>
        <time>2018-09-30T09:50:50Z</time>
      </trkpt>
      <trkpt lat="43.22255" lon="0.13841">
        <ele>360</ele>
        <time>2018-09-30T09:50:51Z</time>
      </trkpt>
      <trkpt lat="43.22251" lon="0.13845">
        <ele>361</ele>
        <time>2018-09-30T09:50:52Z</time>
      </trkpt>
      <trkpt lat="43.22246" lon="0.1385">
        <ele>361</ele>
        <time>2018-09-30T09:50:53Z</time>
      </trkpt>
      <trkpt lat="43.22241" lon="0.13854">
        <ele>361</ele>
        <time>2018-09-30T09:50:54Z</time>
      </trkpt>
      <trkpt lat="43.22237" lon="0.13858">
        <ele>361</ele>
        <time>2018-09-30T09:50:55Z</time>
      </trkpt>
      <trkpt lat="43.22232" lon="0.13863">
        <ele>361</ele>
        <time>2018-09-30T09:50:56Z</time>
      </trkpt>
      <trkpt lat="43.22227" lon="0.13868">
        <ele>361</ele>
        <time>2018-09-30T09:50:57Z</time>
      </trkpt>
      <trkpt lat="43.22222" lon="0.13873">
        <ele>361</ele>
        <time>2018-09-30T09:50:58Z</time>
      </trkpt>
      <trkpt lat="43.22217" lon="0.13878">
        <ele>361</ele>
        <time>2018-09-30T09:50:59Z</time>
      </trkpt>
      <trkpt lat="43.22211" lon="0.13884">
        <ele>361</ele>
        <time>2018-09-30T09:51:00Z</time>
      </trkpt>
      <trkpt lat="43.22205" lon="0.13889">
        <ele>360</ele>
        <time>2018-09-30T09:51:01Z</time>
      </trkpt>
      <trkpt lat="43.22199" lon="0.13894">
        <ele>360</ele>
        <time>2018-09-30T09:51:02Z</time>
      </trkpt>
      <trkpt lat="43.22194" lon="0.13899">
        <ele>360</ele>
        <time>2018-09-30T09:51:03Z</time>
      </trkpt>
      <trkpt lat="43.22188" lon="0.13904">
        <ele>359</ele>
        <time>2018-09-30T09:51:04Z</time>
      </trkpt>
      <trkpt lat="43.22182" lon="0.13908">
        <ele>359</ele>
        <time>2018-09-30T09:51:05Z</time>
      </trkpt>
      <trkpt lat="43.22178" lon="0.13912">
        <ele>359</ele>
        <time>2018-09-30T09:51:06Z</time>
      </trkpt>
      <trkpt lat="43.22173" lon="0.13915">
        <ele>359</ele>
        <time>2018-09-30T09:51:07Z</time>
      </trkpt>
      <trkpt lat="43.2217" lon="0.13917">
        <ele>359</ele>
        <time>2018-09-30T09:51:08Z</time>
      </trkpt>
      <trkpt lat="43.22166" lon="0.13918">
        <ele>358</ele>
        <time>2018-09-30T09:51:09Z</time>
      </trkpt>
      <trkpt lat="43.22163" lon="0.13921">
        <ele>358</ele>
        <time>2018-09-30T09:51:10Z</time>
      </trkpt>
      <trkpt lat="43.22159" lon="0.13923">
        <ele>358</ele>
        <time>2018-09-30T09:51:11Z</time>
      </trkpt>
      <trkpt lat="43.22155" lon="0.13927">
        <ele>358</ele>
        <time>2018-09-30T09:51:12Z</time>
      </trkpt>
      <trkpt lat="43.22152" lon="0.13929">
        <ele>358</ele>
        <time>2018-09-30T09:51:13Z</time>
      </trkpt>
      <trkpt lat="43.22149" lon="0.13932">
        <ele>358</ele>
        <time>2018-09-30T09:51:14Z</time>
      </trkpt>
      <trkpt lat="43.22147" lon="0.13936">
        <ele>358</ele>
        <time>2018-09-30T09:51:15Z</time>
      </trkpt>
      <trkpt lat="43.22146" lon="0.13941">
        <ele>358</ele>
        <time>2018-09-30T09:51:16Z</time>
      </trkpt>
      <trkpt lat="43.22143" lon="0.13945">
        <ele>358</ele>
        <time>2018-09-30T09:51:17Z</time>
      </trkpt>
      <trkpt lat="43.22142" lon="0.13949">
        <ele>358</ele>
        <time>2018-09-30T09:51:18Z</time>
      </trkpt>
      <trkpt lat="43.2214" lon="0.13952">
        <ele>358</ele>
        <time>2018-09-30T09:51:19Z</time>
      </trkpt>
      <trkpt lat="43.22138" lon="0.13955">
        <ele>358</ele>
        <time>2018-09-30T09:51:20Z</time>
      </trkpt>
      <trkpt lat="43.22136" lon="0.13958">
        <ele>358</ele>
        <time>2018-09-30T09:51:21Z</time>
      </trkpt>
      <trkpt lat="43.22135" lon="0.13961">
        <ele>358</ele>
        <time>2018-09-30T09:51:22Z</time>
      </trkpt>
      <trkpt lat="43.22134" lon="0.13962">
        <ele>358</ele>
        <time>2018-09-30T09:51:23Z</time>
      </trkpt>
      <trkpt lat="43.22132" lon="0.1396">
        <ele>358</ele>
        <time>2018-09-30T09:51:24Z</time>
      </trkpt>
      <trkpt lat="43.22132" lon="0.1396">
        <ele>358</ele>
        <time>2018-09-30T09:51:25Z</time>
      </trkpt>
      <trkpt lat="43.2213" lon="0.13958">
        <ele>358</ele>
        <time>2018-09-30T09:51:26Z</time>
      </trkpt>
      <trkpt lat="43.22128" lon="0.13955">
        <ele>358</ele>
        <time>2018-09-30T09:51:27Z</time>
      </trkpt>
      <trkpt lat="43.22123" lon="0.13958">
        <ele>358</ele>
        <time>2018-09-30T09:51:28Z</time>
      </trkpt>
      <trkpt lat="43.22116" lon="0.13966">
        <ele>358</ele>
        <time>2018-09-30T09:51:29Z</time>
      </trkpt>
      <trkpt lat="43.2211" lon="0.13964">
        <ele>358</ele>
        <time>2018-09-30T09:51:30Z</time>
      </trkpt>
      <trkpt lat="43.22105" lon="0.13961">
        <ele>358</ele>
        <time>2018-09-30T09:51:31Z</time>
      </trkpt>
      <trkpt lat="43.221" lon="0.13957">
        <ele>358</ele>
        <time>2018-09-30T09:51:32Z</time>
      </trkpt>
      <trkpt lat="43.22093" lon="0.13951">
        <ele>358</ele>
        <time>2018-09-30T09:51:33Z</time>
      </trkpt>
      <trkpt lat="43.22089" lon="0.13947">
        <ele>358</ele>
        <time>2018-09-30T09:51:34Z</time>
      </trkpt>
      <trkpt lat="43.22084" lon="0.13942">
        <ele>358</ele>
        <time>2018-09-30T09:51:35Z</time>
      </trkpt>
      <trkpt lat="43.2208" lon="0.13938">
        <ele>357</ele>
        <time>2018-09-30T09:51:36Z</time>
      </trkpt>
      <trkpt lat="43.22075" lon="0.13935">
        <ele>357</ele>
        <time>2018-09-30T09:51:37Z</time>
      </trkpt>
      <trkpt lat="43.2207" lon="0.13932">
        <ele>357</ele>
        <time>2018-09-30T09:51:38Z</time>
      </trkpt>
      <trkpt lat="43.22067" lon="0.13931">
        <ele>357</ele>
        <time>2018-09-30T09:51:39Z</time>
      </trkpt>
      <trkpt lat="43.22063" lon="0.13931">
        <ele>357</ele>
        <time>2018-09-30T09:51:40Z</time>
      </trkpt>
      <trkpt lat="43.2206" lon="0.13932">
        <ele>358</ele>
        <time>2018-09-30T09:51:41Z</time>
      </trkpt>
      <trkpt lat="43.22057" lon="0.13932">
        <ele>358</ele>
        <time>2018-09-30T09:51:42Z</time>
      </trkpt>
      <trkpt lat="43.22053" lon="0.13933">
        <ele>358</ele>
        <time>2018-09-30T09:51:43Z</time>
      </trkpt>
      <trkpt lat="43.22048" lon="0.13934">
        <ele>358</ele>
        <time>2018-09-30T09:51:44Z</time>
      </trkpt>
      <trkpt lat="43.22044" lon="0.13933">
        <ele>358</ele>
        <time>2018-09-30T09:51:45Z</time>
      </trkpt>
      <trkpt lat="43.22039" lon="0.13933">
        <ele>358</ele>
        <time>2018-09-30T09:51:46Z</time>
      </trkpt>
      <trkpt lat="43.22036" lon="0.13932">
        <ele>358</ele>
        <time>2018-09-30T09:51:47Z</time>
      </trkpt>
      <trkpt lat="43.22031" lon="0.13929">
        <ele>358</ele>
        <time>2018-09-30T09:51:48Z</time>
      </trkpt>
      <trkpt lat="43.22027" lon="0.13926">
        <ele>358</ele>
        <time>2018-09-30T09:51:49Z</time>
      </trkpt>
      <trkpt lat="43.22024" lon="0.13921">
        <ele>358</ele>
        <time>2018-09-30T09:51:50Z</time>
      </trkpt>
      <trkpt lat="43.22021" lon="0.13915">
        <ele>359</ele>
        <time>2018-09-30T09:51:51Z</time>
      </trkpt>
      <trkpt lat="43.22018" lon="0.13909">
        <ele>359</ele>
        <time>2018-09-30T09:51:52Z</time>
      </trkpt>
      <trkpt lat="43.22017" lon="0.13905">
        <ele>359</ele>
        <time>2018-09-30T09:51:53Z</time>
      </trkpt>
      <trkpt lat="43.22018" lon="0.13901">
        <ele>359</ele>
        <time>2018-09-30T09:51:54Z</time>
      </trkpt>
      <trkpt lat="43.22017" lon="0.13895">
        <ele>359</ele>
        <time>2018-09-30T09:51:55Z</time>
      </trkpt>
      <trkpt lat="43.22016" lon="0.1389">
        <ele>359</ele>
        <time>2018-09-30T09:51:56Z</time>
      </trkpt>
      <trkpt lat="43.22015" lon="0.13886">
        <ele>359</ele>
        <time>2018-09-30T09:51:57Z</time>
      </trkpt>
      <trkpt lat="43.22014" lon="0.13882">
        <ele>359</ele>
        <time>2018-09-30T09:51:58Z</time>
      </trkpt>
      <trkpt lat="43.22014" lon="0.13878">
        <ele>359</ele>
        <time>2018-09-30T09:51:59Z</time>
      </trkpt>
      <trkpt lat="43.22012" lon="0.13873">
        <ele>359</ele>
        <time>2018-09-30T09:52:00Z</time>
      </trkpt>
      <trkpt lat="43.22012" lon="0.13871">
        <ele>360</ele>
        <time>2018-09-30T09:52:01Z</time>
      </trkpt>
      <trkpt lat="43.22011" lon="0.13867">
        <ele>360</ele>
        <time>2018-09-30T09:52:02Z</time>
      </trkpt>
      <trkpt lat="43.22009" lon="0.13864">
        <ele>360</ele>
        <time>2018-09-30T09:52:03Z</time>
      </trkpt>
      <trkpt lat="43.22009" lon="0.13864">
        <ele>360</ele>
        <time>2018-09-30T09:52:04Z</time>
      </trkpt>
      <trkpt lat="43.22009" lon="0.13864">
        <ele>360</ele>
        <time>2018-09-30T09:52:05Z</time>
      </trkpt>
      <trkpt lat="43.22006" lon="0.13853">
        <ele>360</ele>
        <time>2018-09-30T09:52:06Z</time>
      </trkpt>
      <trkpt lat="43.22006" lon="0.1385">
        <ele>360</ele>
        <time>2018-09-30T09:52:07Z</time>
      </trkpt>
      <trkpt lat="43.22005" lon="0.13845">
        <ele>360</ele>
        <time>2018-09-30T09:52:08Z</time>
      </trkpt>
      <trkpt lat="43.22004" lon="0.13842">
        <ele>360</ele>
        <time>2018-09-30T09:52:09Z</time>
      </trkpt>
      <trkpt lat="43.22003" lon="0.13837">
        <ele>360</ele>
        <time>2018-09-30T09:52:10Z</time>
      </trkpt>
      <trkpt lat="43.22002" lon="0.13833">
        <ele>361</ele>
        <time>2018-09-30T09:52:11Z</time>
      </trkpt>
      <trkpt lat="43.22" lon="0.13827">
        <ele>361</ele>
        <time>2018-09-30T09:52:12Z</time>
      </trkpt>
      <trkpt lat="43.21999" lon="0.13823">
        <ele>361</ele>
        <time>2018-09-30T09:52:13Z</time>
      </trkpt>
      <trkpt lat="43.21996" lon="0.13818">
        <ele>361</ele>
        <time>2018-09-30T09:52:14Z</time>
      </trkpt>
      <trkpt lat="43.21994" lon="0.13815">
        <ele>362</ele>
        <time>2018-09-30T09:52:15Z</time>
      </trkpt>
      <trkpt lat="43.21991" lon="0.1381">
        <ele>362</ele>
        <time>2018-09-30T09:52:16Z</time>
      </trkpt>
      <trkpt lat="43.21989" lon="0.13806">
        <ele>362</ele>
        <time>2018-09-30T09:52:17Z</time>
      </trkpt>
      <trkpt lat="43.21987" lon="0.13803">
        <ele>362</ele>
        <time>2018-09-30T09:52:18Z</time>
      </trkpt>
      <trkpt lat="43.21986" lon="0.13799">
        <ele>363</ele>
        <time>2018-09-30T09:52:19Z</time>
      </trkpt>
      <trkpt lat="43.21982" lon="0.13791">
        <ele>363</ele>
        <time>2018-09-30T09:52:20Z</time>
      </trkpt>
      <trkpt lat="43.21981" lon="0.13786">
        <ele>363</ele>
        <time>2018-09-30T09:52:21Z</time>
      </trkpt>
      <trkpt lat="43.21979" lon="0.13783">
        <ele>363</ele>
        <time>2018-09-30T09:52:22Z</time>
      </trkpt>
      <trkpt lat="43.21977" lon="0.1378">
        <ele>364</ele>
        <time>2018-09-30T09:52:23Z</time>
      </trkpt>
      <trkpt lat="43.21974" lon="0.13778">
        <ele>364</ele>
        <time>2018-09-30T09:52:24Z</time>
      </trkpt>
      <trkpt lat="43.21971" lon="0.13777">
        <ele>364</ele>
        <time>2018-09-30T09:52:25Z</time>
      </trkpt>
      <trkpt lat="43.21969" lon="0.13777">
        <ele>364</ele>
        <time>2018-09-30T09:52:26Z</time>
      </trkpt>
      <trkpt lat="43.21966" lon="0.13777">
        <ele>364</ele>
        <time>2018-09-30T09:52:27Z</time>
      </trkpt>
      <trkpt lat="43.21964" lon="0.13778">
        <ele>364</ele>
        <time>2018-09-30T09:52:28Z</time>
      </trkpt>
      <trkpt lat="43.21962" lon="0.13778">
        <ele>364</ele>
        <time>2018-09-30T09:52:29Z</time>
      </trkpt>
      <trkpt lat="43.21959" lon="0.13781">
        <ele>365</ele>
        <time>2018-09-30T09:52:30Z</time>
      </trkpt>
      <trkpt lat="43.21956" lon="0.13784">
        <ele>366</ele>
        <time>2018-09-30T09:52:31Z</time>
      </trkpt>
      <trkpt lat="43.21953" lon="0.13788">
        <ele>366</ele>
        <time>2018-09-30T09:52:32Z</time>
      </trkpt>
      <trkpt lat="43.2195" lon="0.13791">
        <ele>367</ele>
        <time>2018-09-30T09:52:33Z</time>
      </trkpt>
      <trkpt lat="43.21948" lon="0.13794">
        <ele>367</ele>
        <time>2018-09-30T09:52:34Z</time>
      </trkpt>
      <trkpt lat="43.21944" lon="0.13797">
        <ele>367</ele>
        <time>2018-09-30T09:52:35Z</time>
      </trkpt>
      <trkpt lat="43.21941" lon="0.13798">
        <ele>367</ele>
        <time>2018-09-30T09:52:36Z</time>
      </trkpt>
      <trkpt lat="43.21938" lon="0.138">
        <ele>368</ele>
        <time>2018-09-30T09:52:37Z</time>
      </trkpt>
      <trkpt lat="43.21935" lon="0.13803">
        <ele>368</ele>
        <time>2018-09-30T09:52:38Z</time>
      </trkpt>
      <trkpt lat="43.21932" lon="0.13802">
        <ele>368</ele>
        <time>2018-09-30T09:52:39Z</time>
      </trkpt>
      <trkpt lat="43.21929" lon="0.13804">
        <ele>368</ele>
        <time>2018-09-30T09:52:40Z</time>
      </trkpt>
      <trkpt lat="43.21927" lon="0.13805">
        <ele>369</ele>
        <time>2018-09-30T09:52:41Z</time>
      </trkpt>
      <trkpt lat="43.21924" lon="0.13806">
        <ele>369</ele>
        <time>2018-09-30T09:52:42Z</time>
      </trkpt>
      <trkpt lat="43.2192" lon="0.13807">
        <ele>369</ele>
        <time>2018-09-30T09:52:43Z</time>
      </trkpt>
      <trkpt lat="43.21916" lon="0.13807">
        <ele>369</ele>
        <time>2018-09-30T09:52:44Z</time>
      </trkpt>
      <trkpt lat="43.21912" lon="0.13807">
        <ele>369</ele>
        <time>2018-09-30T09:52:45Z</time>
      </trkpt>
      <trkpt lat="43.21908" lon="0.13806">
        <ele>370</ele>
        <time>2018-09-30T09:52:46Z</time>
      </trkpt>
      <trkpt lat="43.21905" lon="0.13805">
        <ele>370</ele>
        <time>2018-09-30T09:52:47Z</time>
      </trkpt>
      <trkpt lat="43.21902" lon="0.13805">
        <ele>370</ele>
        <time>2018-09-30T09:52:48Z</time>
      </trkpt>
      <trkpt lat="43.21899" lon="0.13805">
        <ele>370</ele>
        <time>2018-09-30T09:52:49Z</time>
      </trkpt>
      <trkpt lat="43.21896" lon="0.13803">
        <ele>370</ele>
        <time>2018-09-30T09:52:50Z</time>
      </trkpt>
      <trkpt lat="43.21891" lon="0.13803">
        <ele>371</ele>
        <time>2018-09-30T09:52:51Z</time>
      </trkpt>
      <trkpt lat="43.21887" lon="0.13806">
        <ele>372</ele>
        <time>2018-09-30T09:52:52Z</time>
      </trkpt>
      <trkpt lat="43.21883" lon="0.13809">
        <ele>373</ele>
        <time>2018-09-30T09:52:53Z</time>
      </trkpt>
      <trkpt lat="43.2188" lon="0.13812">
        <ele>374</ele>
        <time>2018-09-30T09:52:54Z</time>
      </trkpt>
      <trkpt lat="43.21877" lon="0.13814">
        <ele>375</ele>
        <time>2018-09-30T09:52:55Z</time>
      </trkpt>
      <trkpt lat="43.21874" lon="0.13815">
        <ele>375</ele>
        <time>2018-09-30T09:52:56Z</time>
      </trkpt>
      <trkpt lat="43.21872" lon="0.13817">
        <ele>375</ele>
        <time>2018-09-30T09:52:57Z</time>
      </trkpt>
      <trkpt lat="43.21868" lon="0.13819">
        <ele>375</ele>
        <time>2018-09-30T09:52:58Z</time>
      </trkpt>
      <trkpt lat="43.21865" lon="0.13821">
        <ele>376</ele>
        <time>2018-09-30T09:52:59Z</time>
      </trkpt>
      <trkpt lat="43.21862" lon="0.13823">
        <ele>376</ele>
        <time>2018-09-30T09:53:00Z</time>
      </trkpt>
      <trkpt lat="43.2186" lon="0.13825">
        <ele>376</ele>
        <time>2018-09-30T09:53:01Z</time>
      </trkpt>
      <trkpt lat="43.21859" lon="0.13824">
        <ele>376</ele>
        <time>2018-09-30T09:53:02Z</time>
      </trkpt>
      <trkpt lat="43.21857" lon="0.13822">
        <ele>376</ele>
        <time>2018-09-30T09:53:03Z</time>
      </trkpt>
      <trkpt lat="43.21855" lon="0.1382">
        <ele>376</ele>
        <time>2018-09-30T09:53:04Z</time>
      </trkpt>
      <trkpt lat="43.21854" lon="0.13818">
        <ele>377</ele>
        <time>2018-09-30T09:53:05Z</time>
      </trkpt>
      <trkpt lat="43.21852" lon="0.13814">
        <ele>377</ele>
        <time>2018-09-30T09:53:06Z</time>
      </trkpt>
      <trkpt lat="43.21851" lon="0.13809">
        <ele>377</ele>
        <time>2018-09-30T09:53:07Z</time>
      </trkpt>
      <trkpt lat="43.2184" lon="0.13823">
        <ele>377</ele>
        <time>2018-09-30T09:53:08Z</time>
      </trkpt>
      <trkpt lat="43.21836" lon="0.13824">
        <ele>377</ele>
        <time>2018-09-30T09:53:09Z</time>
      </trkpt>
      <trkpt lat="43.21833" lon="0.13823">
        <ele>377</ele>
        <time>2018-09-30T09:53:10Z</time>
      </trkpt>
      <trkpt lat="43.21831" lon="0.13819">
        <ele>376</ele>
        <time>2018-09-30T09:53:11Z</time>
      </trkpt>
      <trkpt lat="43.2183" lon="0.13815">
        <ele>376</ele>
        <time>2018-09-30T09:53:12Z</time>
      </trkpt>
      <trkpt lat="43.2183" lon="0.1381">
        <ele>376</ele>
        <time>2018-09-30T09:53:13Z</time>
      </trkpt>
      <trkpt lat="43.21829" lon="0.13804">
        <ele>376</ele>
        <time>2018-09-30T09:53:14Z</time>
      </trkpt>
      <trkpt lat="43.21826" lon="0.13796">
        <ele>376</ele>
        <time>2018-09-30T09:53:15Z</time>
      </trkpt>
      <trkpt lat="43.21822" lon="0.13789">
        <ele>376</ele>
        <time>2018-09-30T09:53:16Z</time>
      </trkpt>
      <trkpt lat="43.21818" lon="0.13781">
        <ele>375</ele>
        <time>2018-09-30T09:53:17Z</time>
      </trkpt>
      <trkpt lat="43.21816" lon="0.13775">
        <ele>375</ele>
        <time>2018-09-30T09:53:18Z</time>
      </trkpt>
      <trkpt lat="43.21814" lon="0.13769">
        <ele>375</ele>
        <time>2018-09-30T09:53:19Z</time>
      </trkpt>
      <trkpt lat="43.21812" lon="0.13764">
        <ele>375</ele>
        <time>2018-09-30T09:53:20Z</time>
      </trkpt>
      <trkpt lat="43.2181" lon="0.13759">
        <ele>374</ele>
        <time>2018-09-30T09:53:21Z</time>
      </trkpt>
      <trkpt lat="43.21809" lon="0.13752">
        <ele>372</ele>
        <time>2018-09-30T09:53:22Z</time>
      </trkpt>
      <trkpt lat="43.21807" lon="0.13745">
        <ele>372</ele>
        <time>2018-09-30T09:53:23Z</time>
      </trkpt>
      <trkpt lat="43.21805" lon="0.13737">
        <ele>371</ele>
        <time>2018-09-30T09:53:24Z</time>
      </trkpt>
      <trkpt lat="43.21801" lon="0.13729">
        <ele>371</ele>
        <time>2018-09-30T09:53:25Z</time>
      </trkpt>
      <trkpt lat="43.21799" lon="0.13723">
        <ele>371</ele>
        <time>2018-09-30T09:53:26Z</time>
      </trkpt>
      <trkpt lat="43.21797" lon="0.13715">
        <ele>371</ele>
        <time>2018-09-30T09:53:27Z</time>
      </trkpt>
      <trkpt lat="43.21794" lon="0.13707">
        <ele>370</ele>
        <time>2018-09-30T09:53:28Z</time>
      </trkpt>
      <trkpt lat="43.21792" lon="0.13701">
        <ele>370</ele>
        <time>2018-09-30T09:53:29Z</time>
      </trkpt>
      <trkpt lat="43.21791" lon="0.13694">
        <ele>370</ele>
        <time>2018-09-30T09:53:30Z</time>
      </trkpt>
      <trkpt lat="43.21788" lon="0.13688">
        <ele>370</ele>
        <time>2018-09-30T09:53:31Z</time>
      </trkpt>
      <trkpt lat="43.21786" lon="0.1368">
        <ele>370</ele>
        <time>2018-09-30T09:53:32Z</time>
      </trkpt>
      <trkpt lat="43.21785" lon="0.13678">
        <ele>369</ele>
        <time>2018-09-30T09:53:33Z</time>
      </trkpt>
      <trkpt lat="43.21783" lon="0.13673">
        <ele>369</ele>
        <time>2018-09-30T09:53:34Z</time>
      </trkpt>
      <trkpt lat="43.21781" lon="0.13668">
        <ele>368</ele>
        <time>2018-09-30T09:53:35Z</time>
      </trkpt>
      <trkpt lat="43.21779" lon="0.13663">
        <ele>368</ele>
        <time>2018-09-30T09:53:36Z</time>
      </trkpt>
      <trkpt lat="43.21776" lon="0.13657">
        <ele>368</ele>
        <time>2018-09-30T09:53:37Z</time>
      </trkpt>
      <trkpt lat="43.21774" lon="0.13652">
        <ele>368</ele>
        <time>2018-09-30T09:53:38Z</time>
      </trkpt>
      <trkpt lat="43.21772" lon="0.13647">
        <ele>368</ele>
        <time>2018-09-30T09:53:39Z</time>
      </trkpt>
      <trkpt lat="43.2177" lon="0.13641">
        <ele>368</ele>
        <time>2018-09-30T09:53:40Z</time>
      </trkpt>
      <trkpt lat="43.21767" lon="0.13632">
        <ele>368</ele>
        <time>2018-09-30T09:53:41Z</time>
      </trkpt>
      <trkpt lat="43.21764" lon="0.13626">
        <ele>368</ele>
        <time>2018-09-30T09:53:42Z</time>
      </trkpt>
      <trkpt lat="43.21762" lon="0.13621">
        <ele>368</ele>
        <time>2018-09-30T09:53:43Z</time>
      </trkpt>
      <trkpt lat="43.21759" lon="0.13612">
        <ele>368</ele>
        <time>2018-09-30T09:53:44Z</time>
      </trkpt>
      <trkpt lat="43.21756" lon="0.13605">
        <ele>368</ele>
        <time>2018-09-30T09:53:45Z</time>
      </trkpt>
      <trkpt lat="43.21753" lon="0.13598">
        <ele>369</ele>
        <time>2018-09-30T09:53:46Z</time>
      </trkpt>
      <trkpt lat="43.21751" lon="0.13594">
        <ele>369</ele>
        <time>2018-09-30T09:53:47Z</time>
      </trkpt>
      <trkpt lat="43.21749" lon="0.1359">
        <ele>369</ele>
        <time>2018-09-30T09:53:48Z</time>
      </trkpt>
      <trkpt lat="43.21747" lon="0.13586">
        <ele>369</ele>
        <time>2018-09-30T09:53:49Z</time>
      </trkpt>
      <trkpt lat="43.21745" lon="0.13583">
        <ele>369</ele>
        <time>2018-09-30T09:53:50Z</time>
      </trkpt>
      <trkpt lat="43.21745" lon="0.1358">
        <ele>369</ele>
        <time>2018-09-30T09:53:51Z</time>
      </trkpt>
      <trkpt lat="43.21744" lon="0.13576">
        <ele>370</ele>
        <time>2018-09-30T09:53:52Z</time>
      </trkpt>
      <trkpt lat="43.21744" lon="0.13572">
        <ele>370</ele>
        <time>2018-09-30T09:53:53Z</time>
      </trkpt>
      <trkpt lat="43.21743" lon="0.13567">
        <ele>370</ele>
        <time>2018-09-30T09:53:54Z</time>
      </trkpt>
      <trkpt lat="43.21742" lon="0.13562">
        <ele>370</ele>
        <time>2018-09-30T09:53:55Z</time>
      </trkpt>
      <trkpt lat="43.2174" lon="0.13557">
        <ele>370</ele>
        <time>2018-09-30T09:53:56Z</time>
      </trkpt>
      <trkpt lat="43.21738" lon="0.13551">
        <ele>370</ele>
        <time>2018-09-30T09:53:57Z</time>
      </trkpt>
      <trkpt lat="43.21736" lon="0.13545">
        <ele>370</ele>
        <time>2018-09-30T09:53:58Z</time>
      </trkpt>
      <trkpt lat="43.21734" lon="0.13539">
        <ele>371</ele>
        <time>2018-09-30T09:53:59Z</time>
      </trkpt>
      <trkpt lat="43.21732" lon="0.13535">
        <ele>371</ele>
        <time>2018-09-30T09:54:00Z</time>
      </trkpt>
      <trkpt lat="43.2173" lon="0.13529">
        <ele>373</ele>
        <time>2018-09-30T09:54:01Z</time>
      </trkpt>
      <trkpt lat="43.21728" lon="0.13526">
        <ele>373</ele>
        <time>2018-09-30T09:54:02Z</time>
      </trkpt>
      <trkpt lat="43.21727" lon="0.13521">
        <ele>374</ele>
        <time>2018-09-30T09:54:03Z</time>
      </trkpt>
      <trkpt lat="43.21725" lon="0.13517">
        <ele>374</ele>
        <time>2018-09-30T09:54:04Z</time>
      </trkpt>
      <trkpt lat="43.21722" lon="0.13513">
        <ele>374</ele>
        <time>2018-09-30T09:54:05Z</time>
      </trkpt>
      <trkpt lat="43.21719" lon="0.13507">
        <ele>374</ele>
        <time>2018-09-30T09:54:06Z</time>
      </trkpt>
      <trkpt lat="43.21717" lon="0.13503">
        <ele>375</ele>
        <time>2018-09-30T09:54:07Z</time>
      </trkpt>
      <trkpt lat="43.21716" lon="0.13501">
        <ele>375</ele>
        <time>2018-09-30T09:54:08Z</time>
      </trkpt>
      <trkpt lat="43.21715" lon="0.13497">
        <ele>375</ele>
        <time>2018-09-30T09:54:09Z</time>
      </trkpt>
      <trkpt lat="43.21713" lon="0.13494">
        <ele>376</ele>
        <time>2018-09-30T09:54:10Z</time>
      </trkpt>
      <trkpt lat="43.21712" lon="0.13491">
        <ele>376</ele>
        <time>2018-09-30T09:54:11Z</time>
      </trkpt>
      <trkpt lat="43.2171" lon="0.13488">
        <ele>376</ele>
        <time>2018-09-30T09:54:12Z</time>
      </trkpt>
      <trkpt lat="43.21708" lon="0.13483">
        <ele>376</ele>
        <time>2018-09-30T09:54:13Z</time>
      </trkpt>
      <trkpt lat="43.21707" lon="0.13479">
        <ele>377</ele>
        <time>2018-09-30T09:54:14Z</time>
      </trkpt>
      <trkpt lat="43.21708" lon="0.13476">
        <ele>377</ele>
        <time>2018-09-30T09:54:15Z</time>
      </trkpt>
      <trkpt lat="43.21708" lon="0.13472">
        <ele>377</ele>
        <time>2018-09-30T09:54:16Z</time>
      </trkpt>
      <trkpt lat="43.2171" lon="0.1347">
        <ele>378</ele>
        <time>2018-09-30T09:54:17Z</time>
      </trkpt>
      <trkpt lat="43.21712" lon="0.13468">
        <ele>378</ele>
        <time>2018-09-30T09:54:18Z</time>
      </trkpt>
      <trkpt lat="43.21714" lon="0.13467">
        <ele>378</ele>
        <time>2018-09-30T09:54:19Z</time>
      </trkpt>
      <trkpt lat="43.21717" lon="0.13464">
        <ele>378</ele>
        <time>2018-09-30T09:54:20Z</time>
      </trkpt>
      <trkpt lat="43.2172" lon="0.13461">
        <ele>379</ele>
        <time>2018-09-30T09:54:21Z</time>
      </trkpt>
      <trkpt lat="43.21723" lon="0.13459">
        <ele>379</ele>
        <time>2018-09-30T09:54:22Z</time>
      </trkpt>
      <trkpt lat="43.21725" lon="0.13456">
        <ele>379</ele>
        <time>2018-09-30T09:54:23Z</time>
      </trkpt>
      <trkpt lat="43.21727" lon="0.13454">
        <ele>380</ele>
        <time>2018-09-30T09:54:24Z</time>
      </trkpt>
      <trkpt lat="43.2173" lon="0.13451">
        <ele>380</ele>
        <time>2018-09-30T09:54:25Z</time>
      </trkpt>
      <trkpt lat="43.21732" lon="0.1345">
        <ele>384</ele>
        <time>2018-09-30T09:54:26Z</time>
      </trkpt>
      <trkpt lat="43.21734" lon="0.13447">
        <ele>385</ele>
        <time>2018-09-30T09:54:27Z</time>
      </trkpt>
      <trkpt lat="43.21736" lon="0.13445">
        <ele>386</ele>
        <time>2018-09-30T09:54:28Z</time>
      </trkpt>
      <trkpt lat="43.21738" lon="0.13443">
        <ele>386</ele>
        <time>2018-09-30T09:54:29Z</time>
      </trkpt>
      <trkpt lat="43.2174" lon="0.13441">
        <ele>387</ele>
        <time>2018-09-30T09:54:30Z</time>
      </trkpt>
      <trkpt lat="43.21743" lon="0.1344">
        <ele>387</ele>
        <time>2018-09-30T09:54:31Z</time>
      </trkpt>
      <trkpt lat="43.21745" lon="0.13438">
        <ele>388</ele>
        <time>2018-09-30T09:54:32Z</time>
      </trkpt>
      <trkpt lat="43.21748" lon="0.13435">
        <ele>388</ele>
        <time>2018-09-30T09:54:33Z</time>
      </trkpt>
      <trkpt lat="43.21749" lon="0.13433">
        <ele>388</ele>
        <time>2018-09-30T09:54:34Z</time>
      </trkpt>
      <trkpt lat="43.2175" lon="0.1343">
        <ele>389</ele>
        <time>2018-09-30T09:54:35Z</time>
      </trkpt>
      <trkpt lat="43.21751" lon="0.13426">
        <ele>389</ele>
        <time>2018-09-30T09:54:36Z</time>
      </trkpt>
      <trkpt lat="43.21752" lon="0.13423">
        <ele>389</ele>
        <time>2018-09-30T09:54:37Z</time>
      </trkpt>
      <trkpt lat="43.21752" lon="0.1342">
        <ele>390</ele>
        <time>2018-09-30T09:54:38Z</time>
      </trkpt>
      <trkpt lat="43.21752" lon="0.13417">
        <ele>390</ele>
        <time>2018-09-30T09:54:39Z</time>
      </trkpt>
      <trkpt lat="43.2175" lon="0.13413">
        <ele>390</ele>
        <time>2018-09-30T09:54:40Z</time>
      </trkpt>
      <trkpt lat="43.21748" lon="0.13409">
        <ele>391</ele>
        <time>2018-09-30T09:54:41Z</time>
      </trkpt>
      <trkpt lat="43.21744" lon="0.13404">
        <ele>391</ele>
        <time>2018-09-30T09:54:42Z</time>
      </trkpt>
      <trkpt lat="43.21741" lon="0.13399">
        <ele>391</ele>
        <time>2018-09-30T09:54:43Z</time>
      </trkpt>
      <trkpt lat="43.21738" lon="0.13394">
        <ele>391</ele>
        <time>2018-09-30T09:54:44Z</time>
      </trkpt>
      <trkpt lat="43.21735" lon="0.13391">
        <ele>392</ele>
        <time>2018-09-30T09:54:45Z</time>
      </trkpt>
      <trkpt lat="43.21734" lon="0.13388">
        <ele>392</ele>
        <time>2018-09-30T09:54:46Z</time>
      </trkpt>
      <trkpt lat="43.21733" lon="0.13384">
        <ele>392</ele>
        <time>2018-09-30T09:54:47Z</time>
      </trkpt>
      <trkpt lat="43.2173" lon="0.1338">
        <ele>392</ele>
        <time>2018-09-30T09:54:48Z</time>
      </trkpt>
      <trkpt lat="43.21728" lon="0.13375">
        <ele>392</ele>
        <time>2018-09-30T09:54:49Z</time>
      </trkpt>
      <trkpt lat="43.21727" lon="0.13373">
        <ele>393</ele>
        <time>2018-09-30T09:54:50Z</time>
      </trkpt>
      <trkpt lat="43.21725" lon="0.1337">
        <ele>396</ele>
        <time>2018-09-30T09:54:51Z</time>
      </trkpt>
      <trkpt lat="43.21725" lon="0.1337">
        <ele>397</ele>
        <time>2018-09-30T09:54:52Z</time>
      </trkpt>
      <trkpt lat="43.21725" lon="0.1337">
        <ele>397</ele>
        <time>2018-09-30T09:54:53Z</time>
      </trkpt>
      <trkpt lat="43.2172" lon="0.13363">
        <ele>398</ele>
        <time>2018-09-30T09:54:54Z</time>
      </trkpt>
      <trkpt lat="43.2172" lon="0.13363">
        <ele>398</ele>
        <time>2018-09-30T09:54:55Z</time>
      </trkpt>
      <trkpt lat="43.2172" lon="0.13363">
        <ele>398</ele>
        <time>2018-09-30T09:54:56Z</time>
      </trkpt>
      <trkpt lat="43.21717" lon="0.13357">
        <ele>399</ele>
        <time>2018-09-30T09:54:57Z</time>
      </trkpt>
      <trkpt lat="43.21717" lon="0.13357">
        <ele>399</ele>
        <time>2018-09-30T09:54:58Z</time>
      </trkpt>
      <trkpt lat="43.21714" lon="0.13352">
        <ele>399</ele>
        <time>2018-09-30T09:54:59Z</time>
      </trkpt>
      <trkpt lat="43.21713" lon="0.13349">
        <ele>399</ele>
        <time>2018-09-30T09:55:00Z</time>
      </trkpt>
      <trkpt lat="43.21711" lon="0.13347">
        <ele>399</ele>
        <time>2018-09-30T09:55:01Z</time>
      </trkpt>
      <trkpt lat="43.2171" lon="0.13343">
        <ele>399</ele>
        <time>2018-09-30T09:55:02Z</time>
      </trkpt>
      <trkpt lat="43.21708" lon="0.13339">
        <ele>400</ele>
        <time>2018-09-30T09:55:03Z</time>
      </trkpt>
      <trkpt lat="43.21708" lon="0.13339">
        <ele>400</ele>
        <time>2018-09-30T09:55:04Z</time>
      </trkpt>
      <trkpt lat="43.21708" lon="0.13339">
        <ele>400</ele>
        <time>2018-09-30T09:55:05Z</time>
      </trkpt>
      <trkpt lat="43.21704" lon="0.13334">
        <ele>400</ele>
        <time>2018-09-30T09:55:06Z</time>
      </trkpt>
      <trkpt lat="43.21703" lon="0.13332">
        <ele>400</ele>
        <time>2018-09-30T09:55:07Z</time>
      </trkpt>
      <trkpt lat="43.21702" lon="0.1333">
        <ele>401</ele>
        <time>2018-09-30T09:55:08Z</time>
      </trkpt>
      <trkpt lat="43.217" lon="0.13326">
        <ele>401</ele>
        <time>2018-09-30T09:55:09Z</time>
      </trkpt>
      <trkpt lat="43.21697" lon="0.13322">
        <ele>401</ele>
        <time>2018-09-30T09:55:10Z</time>
      </trkpt>
      <trkpt lat="43.21695" lon="0.13318">
        <ele>401</ele>
        <time>2018-09-30T09:55:11Z</time>
      </trkpt>
      <trkpt lat="43.21692" lon="0.13314">
        <ele>401</ele>
        <time>2018-09-30T09:55:12Z</time>
      </trkpt>
      <trkpt lat="43.2169" lon="0.1331">
        <ele>401</ele>
        <time>2018-09-30T09:55:13Z</time>
      </trkpt>
      <trkpt lat="43.21688" lon="0.13306">
        <ele>404</ele>
        <time>2018-09-30T09:55:14Z</time>
      </trkpt>
      <trkpt lat="43.21687" lon="0.13303">
        <ele>405</ele>
        <time>2018-09-30T09:55:15Z</time>
      </trkpt>
      <trkpt lat="43.21686" lon="0.13301">
        <ele>405</ele>
        <time>2018-09-30T09:55:16Z</time>
      </trkpt>
      <trkpt lat="43.21684" lon="0.13298">
        <ele>405</ele>
        <time>2018-09-30T09:55:17Z</time>
      </trkpt>
      <trkpt lat="43.21683" lon="0.13296">
        <ele>406</ele>
        <time>2018-09-30T09:55:18Z</time>
      </trkpt>
      <trkpt lat="43.21682" lon="0.13292">
        <ele>406</ele>
        <time>2018-09-30T09:55:19Z</time>
      </trkpt>
      <trkpt lat="43.2168" lon="0.13289">
        <ele>406</ele>
        <time>2018-09-30T09:55:20Z</time>
      </trkpt>
      <trkpt lat="43.21679" lon="0.13287">
        <ele>406</ele>
        <time>2018-09-30T09:55:21Z</time>
      </trkpt>
      <trkpt lat="43.21678" lon="0.13283">
        <ele>407</ele>
        <time>2018-09-30T09:55:22Z</time>
      </trkpt>
      <trkpt lat="43.21678" lon="0.13283">
        <ele>407</ele>
        <time>2018-09-30T09:55:23Z</time>
      </trkpt>
      <trkpt lat="43.21678" lon="0.13283">
        <ele>407</ele>
        <time>2018-09-30T09:55:24Z</time>
      </trkpt>
      <trkpt lat="43.21678" lon="0.13283">
        <ele>407</ele>
        <time>2018-09-30T09:55:25Z</time>
      </trkpt>
      <trkpt lat="43.21675" lon="0.1327">
        <ele>407</ele>
        <time>2018-09-30T09:55:26Z</time>
      </trkpt>
      <trkpt lat="43.21673" lon="0.13266">
        <ele>407</ele>
        <time>2018-09-30T09:55:27Z</time>
      </trkpt>
      <trkpt lat="43.21671" lon="0.13263">
        <ele>408</ele>
        <time>2018-09-30T09:55:28Z</time>
      </trkpt>
      <trkpt lat="43.2167" lon="0.1326">
        <ele>408</ele>
        <time>2018-09-30T09:55:29Z</time>
      </trkpt>
      <trkpt lat="43.2167" lon="0.1326">
        <ele>408</ele>
        <time>2018-09-30T09:55:30Z</time>
      </trkpt>
      <trkpt lat="43.2167" lon="0.1326">
        <ele>408</ele>
        <time>2018-09-30T09:55:31Z</time>
      </trkpt>
      <trkpt lat="43.21664" lon="0.1325">
        <ele>408</ele>
        <time>2018-09-30T09:55:32Z</time>
      </trkpt>
      <trkpt lat="43.21662" lon="0.13247">
        <ele>408</ele>
        <time>2018-09-30T09:55:33Z</time>
      </trkpt>
      <trkpt lat="43.21662" lon="0.13247">
        <ele>408</ele>
        <time>2018-09-30T09:55:34Z</time>
      </trkpt>
      <trkpt lat="43.21662" lon="0.13247">
        <ele>409</ele>
        <time>2018-09-30T09:55:35Z</time>
      </trkpt>
      <trkpt lat="43.21655" lon="0.13237">
        <ele>411</ele>
        <time>2018-09-30T09:55:36Z</time>
      </trkpt>
      <trkpt lat="43.21655" lon="0.13237">
        <ele>411</ele>
        <time>2018-09-30T09:55:37Z</time>
      </trkpt>
      <trkpt lat="43.21649" lon="0.13227">
        <ele>412</ele>
        <time>2018-09-30T09:55:38Z</time>
      </trkpt>
      <trkpt lat="43.21649" lon="0.13227">
        <ele>412</ele>
        <time>2018-09-30T09:55:39Z</time>
      </trkpt>
      <trkpt lat="43.21649" lon="0.13227">
        <ele>412</ele>
        <time>2018-09-30T09:55:40Z</time>
      </trkpt>
      <trkpt lat="43.21644" lon="0.13215">
        <ele>412</ele>
        <time>2018-09-30T09:55:41Z</time>
      </trkpt>
      <trkpt lat="43.21641" lon="0.13211">
        <ele>413</ele>
        <time>2018-09-30T09:55:42Z</time>
      </trkpt>
      <trkpt lat="43.21639" lon="0.13208">
        <ele>413</ele>
        <time>2018-09-30T09:55:43Z</time>
      </trkpt>
      <trkpt lat="43.21639" lon="0.13208">
        <ele>413</ele>
        <time>2018-09-30T09:55:44Z</time>
      </trkpt>
      <trkpt lat="43.21639" lon="0.13208">
        <ele>413</ele>
        <time>2018-09-30T09:55:45Z</time>
      </trkpt>
      <trkpt lat="43.21639" lon="0.13208">
        <ele>413</ele>
        <time>2018-09-30T09:55:46Z</time>
      </trkpt>
      <trkpt lat="43.21639" lon="0.13208">
        <ele>414</ele>
        <time>2018-09-30T09:55:47Z</time>
      </trkpt>
      <trkpt lat="43.21634" lon="0.13198">
        <ele>414</ele>
        <time>2018-09-30T09:55:48Z</time>
      </trkpt>
      <trkpt lat="43.21634" lon="0.13198">
        <ele>414</ele>
        <time>2018-09-30T09:55:49Z</time>
      </trkpt>
      <trkpt lat="43.21634" lon="0.13198">
        <ele>414</ele>
        <time>2018-09-30T09:55:50Z</time>
      </trkpt>
      <trkpt lat="43.21634" lon="0.13198">
        <ele>414</ele>
        <time>2018-09-30T09:55:51Z</time>
      </trkpt>
      <trkpt lat="43.21634" lon="0.13198">
        <ele>414</ele>
        <time>2018-09-30T09:55:52Z</time>
      </trkpt>
      <trkpt lat="43.21634" lon="0.13198">
        <ele>415</ele>
        <time>2018-09-30T09:55:53Z</time>
      </trkpt>
      <trkpt lat="43.21634" lon="0.13198">
        <ele>415</ele>
        <time>2018-09-30T09:55:54Z</time>
      </trkpt>
      <trkpt lat="43.21634" lon="0.13198">
        <ele>415</ele>
        <time>2018-09-30T09:55:55Z</time>
      </trkpt>
      <trkpt lat="43.21634" lon="0.13198">
        <ele>415</ele>
        <time>2018-09-30T09:55:56Z</time>
      </trkpt>
      <trkpt lat="43.21634" lon="0.13198">
        <ele>415</ele>
        <time>2018-09-30T09:55:57Z</time>
      </trkpt>
      <trkpt lat="43.21634" lon="0.13198">
        <ele>415</ele>
        <time>2018-09-30T09:55:58Z</time>
      </trkpt>
      <trkpt lat="43.21634" lon="0.13198">
        <ele>416</ele>
        <time>2018-09-30T09:55:59Z</time>
      </trkpt>
      <trkpt lat="43.21643" lon="0.13195">
        <ele>416</ele>
        <time>2018-09-30T09:56:00Z</time>
      </trkpt>
      <trkpt lat="43.21643" lon="0.13195">
        <ele>418</ele>
        <time>2018-09-30T09:56:01Z</time>
      </trkpt>
      <trkpt lat="43.21643" lon="0.13195">
        <ele>418</ele>
        <time>2018-09-30T09:56:02Z</time>
      </trkpt>
      <trkpt lat="43.21643" lon="0.13195">
        <ele>419</ele>
        <time>2018-09-30T09:56:03Z</time>
      </trkpt>
      <trkpt lat="43.21643" lon="0.13195">
        <ele>419</ele>
        <time>2018-09-30T09:56:04Z</time>
      </trkpt>
      <trkpt lat="43.21643" lon="0.13195">
        <ele>419</ele>
        <time>2018-09-30T09:56:05Z</time>
      </trkpt>
      <trkpt lat="43.21653" lon="0.13195">
        <ele>420</ele>
        <time>2018-09-30T09:56:06Z</time>
      </trkpt>
      <trkpt lat="43.21654" lon="0.13194">
        <ele>420</ele>
        <time>2018-09-30T09:56:07Z</time>
      </trkpt>
      <trkpt lat="43.21655" lon="0.13194">
        <ele>420</ele>
        <time>2018-09-30T09:56:08Z</time>
      </trkpt>
      <trkpt lat="43.21657" lon="0.13194">
        <ele>420</ele>
        <time>2018-09-30T09:56:09Z</time>
      </trkpt>
      <trkpt lat="43.21659" lon="0.13194">
        <ele>420</ele>
        <time>2018-09-30T09:56:10Z</time>
      </trkpt>
      <trkpt lat="43.21661" lon="0.13193">
        <ele>420</ele>
        <time>2018-09-30T09:56:11Z</time>
      </trkpt>
      <trkpt lat="43.21662" lon="0.13193">
        <ele>420</ele>
        <time>2018-09-30T09:56:12Z</time>
      </trkpt>
      <trkpt lat="43.21663" lon="0.13193">
        <ele>420</ele>
        <time>2018-09-30T09:56:13Z</time>
      </trkpt>
      <trkpt lat="43.21665" lon="0.13193">
        <ele>420</ele>
        <time>2018-09-30T09:56:14Z</time>
      </trkpt>
      <trkpt lat="43.21667" lon="0.13194">
        <ele>421</ele>
        <time>2018-09-30T09:56:15Z</time>
      </trkpt>
      <trkpt lat="43.21669" lon="0.13194">
        <ele>421</ele>
        <time>2018-09-30T09:56:16Z</time>
      </trkpt>
      <trkpt lat="43.21671" lon="0.13195">
        <ele>421</ele>
        <time>2018-09-30T09:56:17Z</time>
      </trkpt>
      <trkpt lat="43.21673" lon="0.13195">
        <ele>421</ele>
        <time>2018-09-30T09:56:18Z</time>
      </trkpt>
      <trkpt lat="43.21675" lon="0.13196">
        <ele>422</ele>
        <time>2018-09-30T09:56:19Z</time>
      </trkpt>
      <trkpt lat="43.21676" lon="0.13197">
        <ele>422</ele>
        <time>2018-09-30T09:56:20Z</time>
      </trkpt>
      <trkpt lat="43.21678" lon="0.13197">
        <ele>422</ele>
        <time>2018-09-30T09:56:21Z</time>
      </trkpt>
      <trkpt lat="43.21679" lon="0.13197">
        <ele>422</ele>
        <time>2018-09-30T09:56:22Z</time>
      </trkpt>
      <trkpt lat="43.21681" lon="0.13197">
        <ele>422</ele>
        <time>2018-09-30T09:56:23Z</time>
      </trkpt>
      <trkpt lat="43.21681" lon="0.13197">
        <ele>422</ele>
        <time>2018-09-30T09:56:24Z</time>
      </trkpt>
      <trkpt lat="43.21682" lon="0.13197">
        <ele>422</ele>
        <time>2018-09-30T09:56:25Z</time>
      </trkpt>
      <trkpt lat="43.21688" lon="0.13199">
        <ele>422</ele>
        <time>2018-09-30T09:56:26Z</time>
      </trkpt>
      <trkpt lat="43.21692" lon="0.132">
        <ele>422</ele>
        <time>2018-09-30T09:56:27Z</time>
      </trkpt>
      <trkpt lat="43.21694" lon="0.132">
        <ele>422</ele>
        <time>2018-09-30T09:56:28Z</time>
      </trkpt>
      <trkpt lat="43.21697" lon="0.13199">
        <ele>422</ele>
        <time>2018-09-30T09:56:29Z</time>
      </trkpt>
      <trkpt lat="43.21699" lon="0.13198">
        <ele>422</ele>
        <time>2018-09-30T09:56:30Z</time>
      </trkpt>
      <trkpt lat="43.21702" lon="0.13197">
        <ele>422</ele>
        <time>2018-09-30T09:56:31Z</time>
      </trkpt>
      <trkpt lat="43.21703" lon="0.13197">
        <ele>422</ele>
        <time>2018-09-30T09:56:32Z</time>
      </trkpt>
      <trkpt lat="43.21706" lon="0.13197">
        <ele>422</ele>
        <time>2018-09-30T09:56:33Z</time>
      </trkpt>
      <trkpt lat="43.21708" lon="0.13196">
        <ele>422</ele>
        <time>2018-09-30T09:56:34Z</time>
      </trkpt>
      <trkpt lat="43.2171" lon="0.13195">
        <ele>422</ele>
        <time>2018-09-30T09:56:35Z</time>
      </trkpt>
      <trkpt lat="43.21712" lon="0.13194">
        <ele>422</ele>
        <time>2018-09-30T09:56:36Z</time>
      </trkpt>
      <trkpt lat="43.21715" lon="0.13193">
        <ele>422</ele>
        <time>2018-09-30T09:56:37Z</time>
      </trkpt>
      <trkpt lat="43.21717" lon="0.13191">
        <ele>422</ele>
        <time>2018-09-30T09:56:38Z</time>
      </trkpt>
      <trkpt lat="43.2172" lon="0.1319">
        <ele>422</ele>
        <time>2018-09-30T09:56:39Z</time>
      </trkpt>
      <trkpt lat="43.21722" lon="0.13188">
        <ele>422</ele>
        <time>2018-09-30T09:56:40Z</time>
      </trkpt>
      <trkpt lat="43.21724" lon="0.13186">
        <ele>422</ele>
        <time>2018-09-30T09:56:41Z</time>
      </trkpt>
      <trkpt lat="43.21727" lon="0.13185">
        <ele>422</ele>
        <time>2018-09-30T09:56:42Z</time>
      </trkpt>
      <trkpt lat="43.21729" lon="0.13185">
        <ele>422</ele>
        <time>2018-09-30T09:56:43Z</time>
      </trkpt>
      <trkpt lat="43.21731" lon="0.13184">
        <ele>422</ele>
        <time>2018-09-30T09:56:44Z</time>
      </trkpt>
      <trkpt lat="43.21733" lon="0.13183">
        <ele>422</ele>
        <time>2018-09-30T09:56:45Z</time>
      </trkpt>
      <trkpt lat="43.21735" lon="0.13182">
        <ele>422</ele>
        <time>2018-09-30T09:56:46Z</time>
      </trkpt>
      <trkpt lat="43.21736" lon="0.1318">
        <ele>422</ele>
        <time>2018-09-30T09:56:47Z</time>
      </trkpt>
      <trkpt lat="43.21739" lon="0.13178">
        <ele>422</ele>
        <time>2018-09-30T09:56:48Z</time>
      </trkpt>
      <trkpt lat="43.21741" lon="0.13174">
        <ele>422</ele>
        <time>2018-09-30T09:56:49Z</time>
      </trkpt>
      <trkpt lat="43.21744" lon="0.1317">
        <ele>422</ele>
        <time>2018-09-30T09:56:50Z</time>
      </trkpt>
      <trkpt lat="43.21746" lon="0.13167">
        <ele>422</ele>
        <time>2018-09-30T09:56:51Z</time>
      </trkpt>
      <trkpt lat="43.21749" lon="0.13164">
        <ele>422</ele>
        <time>2018-09-30T09:56:52Z</time>
      </trkpt>
      <trkpt lat="43.2175" lon="0.13162">
        <ele>422</ele>
        <time>2018-09-30T09:56:53Z</time>
      </trkpt>
      <trkpt lat="43.21752" lon="0.13161">
        <ele>422</ele>
        <time>2018-09-30T09:56:54Z</time>
      </trkpt>
      <trkpt lat="43.21754" lon="0.1316">
        <ele>422</ele>
        <time>2018-09-30T09:56:55Z</time>
      </trkpt>
      <trkpt lat="43.21756" lon="0.13158">
        <ele>422</ele>
        <time>2018-09-30T09:56:56Z</time>
      </trkpt>
      <trkpt lat="43.21758" lon="0.13156">
        <ele>422</ele>
        <time>2018-09-30T09:56:57Z</time>
      </trkpt>
      <trkpt lat="43.2176" lon="0.13155">
        <ele>422</ele>
        <time>2018-09-30T09:56:58Z</time>
      </trkpt>
      <trkpt lat="43.21763" lon="0.13153">
        <ele>422</ele>
        <time>2018-09-30T09:56:59Z</time>
      </trkpt>
      <trkpt lat="43.21765" lon="0.13152">
        <ele>422</ele>
        <time>2018-09-30T09:57:00Z</time>
      </trkpt>
      <trkpt lat="43.21768" lon="0.13151">
        <ele>422</ele>
        <time>2018-09-30T09:57:01Z</time>
      </trkpt>
      <trkpt lat="43.21771" lon="0.13148">
        <ele>422</ele>
        <time>2018-09-30T09:57:02Z</time>
      </trkpt>
      <trkpt lat="43.21779" lon="0.13144">
        <ele>422</ele>
        <time>2018-09-30T09:57:03Z</time>
      </trkpt>
      <trkpt lat="43.21785" lon="0.13141">
        <ele>421</ele>
        <time>2018-09-30T09:57:04Z</time>
      </trkpt>
      <trkpt lat="43.2179" lon="0.13138">
        <ele>421</ele>
        <time>2018-09-30T09:57:05Z</time>
      </trkpt>
      <trkpt lat="43.21794" lon="0.13136">
        <ele>421</ele>
        <time>2018-09-30T09:57:06Z</time>
      </trkpt>
      <trkpt lat="43.21798" lon="0.13135">
        <ele>420</ele>
        <time>2018-09-30T09:57:07Z</time>
      </trkpt>
      <trkpt lat="43.21802" lon="0.13133">
        <ele>420</ele>
        <time>2018-09-30T09:57:08Z</time>
      </trkpt>
      <trkpt lat="43.21806" lon="0.13132">
        <ele>419</ele>
        <time>2018-09-30T09:57:09Z</time>
      </trkpt>
      <trkpt lat="43.21809" lon="0.13132">
        <ele>419</ele>
        <time>2018-09-30T09:57:10Z</time>
      </trkpt>
      <trkpt lat="43.21812" lon="0.1313">
        <ele>419</ele>
        <time>2018-09-30T09:57:11Z</time>
      </trkpt>
      <trkpt lat="43.21815" lon="0.1313">
        <ele>419</ele>
        <time>2018-09-30T09:57:12Z</time>
      </trkpt>
      <trkpt lat="43.21817" lon="0.13128">
        <ele>418</ele>
        <time>2018-09-30T09:57:13Z</time>
      </trkpt>
      <trkpt lat="43.21819" lon="0.13128">
        <ele>418</ele>
        <time>2018-09-30T09:57:14Z</time>
      </trkpt>
      <trkpt lat="43.21822" lon="0.13127">
        <ele>418</ele>
        <time>2018-09-30T09:57:15Z</time>
      </trkpt>
      <trkpt lat="43.21823" lon="0.13126">
        <ele>418</ele>
        <time>2018-09-30T09:57:16Z</time>
      </trkpt>
      <trkpt lat="43.21825" lon="0.13125">
        <ele>418</ele>
        <time>2018-09-30T09:57:17Z</time>
      </trkpt>
      <trkpt lat="43.21826" lon="0.13124">
        <ele>418</ele>
        <time>2018-09-30T09:57:18Z</time>
      </trkpt>
      <trkpt lat="43.21827" lon="0.13123">
        <ele>417</ele>
        <time>2018-09-30T09:57:19Z</time>
      </trkpt>
      <trkpt lat="43.21828" lon="0.13123">
        <ele>417</ele>
        <time>2018-09-30T09:57:20Z</time>
      </trkpt>
      <trkpt lat="43.21829" lon="0.13122">
        <ele>417</ele>
        <time>2018-09-30T09:57:21Z</time>
      </trkpt>
      <trkpt lat="43.2183" lon="0.13122">
        <ele>417</ele>
        <time>2018-09-30T09:57:22Z</time>
      </trkpt>
      <trkpt lat="43.21831" lon="0.13121">
        <ele>417</ele>
        <time>2018-09-30T09:57:23Z</time>
      </trkpt>
      <trkpt lat="43.21832" lon="0.13121">
        <ele>417</ele>
        <time>2018-09-30T09:57:24Z</time>
      </trkpt>
      <trkpt lat="43.21833" lon="0.1312">
        <ele>417</ele>
        <time>2018-09-30T09:57:25Z</time>
      </trkpt>
      <trkpt lat="43.21834" lon="0.13119">
        <ele>417</ele>
        <time>2018-09-30T09:57:26Z</time>
      </trkpt>
      <trkpt lat="43.21835" lon="0.13119">
        <ele>416</ele>
        <time>2018-09-30T09:57:27Z</time>
      </trkpt>
      <trkpt lat="43.21837" lon="0.13118">
        <ele>416</ele>
        <time>2018-09-30T09:57:28Z</time>
      </trkpt>
      <trkpt lat="43.21839" lon="0.13118">
        <ele>416</ele>
        <time>2018-09-30T09:57:29Z</time>
      </trkpt>
      <trkpt lat="43.21841" lon="0.13117">
        <ele>416</ele>
        <time>2018-09-30T09:57:30Z</time>
      </trkpt>
      <trkpt lat="43.21842" lon="0.13116">
        <ele>416</ele>
        <time>2018-09-30T09:57:31Z</time>
      </trkpt>
      <trkpt lat="43.21844" lon="0.13115">
        <ele>416</ele>
        <time>2018-09-30T09:57:32Z</time>
      </trkpt>
      <trkpt lat="43.21846" lon="0.13114">
        <ele>416</ele>
        <time>2018-09-30T09:57:33Z</time>
      </trkpt>
      <trkpt lat="43.21847" lon="0.13113">
        <ele>416</ele>
        <time>2018-09-30T09:57:34Z</time>
      </trkpt>
      <trkpt lat="43.21848" lon="0.13111">
        <ele>416</ele>
        <time>2018-09-30T09:57:35Z</time>
      </trkpt>
      <trkpt lat="43.2185" lon="0.1311">
        <ele>415</ele>
        <time>2018-09-30T09:57:36Z</time>
      </trkpt>
      <trkpt lat="43.21851" lon="0.13108">
        <ele>415</ele>
        <time>2018-09-30T09:57:37Z</time>
      </trkpt>
      <trkpt lat="43.21852" lon="0.13107">
        <ele>415</ele>
        <time>2018-09-30T09:57:38Z</time>
      </trkpt>
      <trkpt lat="43.21853" lon="0.13106">
        <ele>413</ele>
        <time>2018-09-30T09:57:39Z</time>
      </trkpt>
      <trkpt lat="43.21855" lon="0.13106">
        <ele>412</ele>
        <time>2018-09-30T09:57:40Z</time>
      </trkpt>
      <trkpt lat="43.21857" lon="0.13105">
        <ele>412</ele>
        <time>2018-09-30T09:57:41Z</time>
      </trkpt>
      <trkpt lat="43.21859" lon="0.13104">
        <ele>412</ele>
        <time>2018-09-30T09:57:42Z</time>
      </trkpt>
      <trkpt lat="43.21861" lon="0.13104">
        <ele>411</ele>
        <time>2018-09-30T09:57:43Z</time>
      </trkpt>
      <trkpt lat="43.21863" lon="0.13104">
        <ele>411</ele>
        <time>2018-09-30T09:57:44Z</time>
      </trkpt>
      <trkpt lat="43.21865" lon="0.13103">
        <ele>411</ele>
        <time>2018-09-30T09:57:45Z</time>
      </trkpt>
      <trkpt lat="43.21867" lon="0.13102">
        <ele>411</ele>
        <time>2018-09-30T09:57:46Z</time>
      </trkpt>
      <trkpt lat="43.2187" lon="0.13101">
        <ele>411</ele>
        <time>2018-09-30T09:57:47Z</time>
      </trkpt>
      <trkpt lat="43.21872" lon="0.13101">
        <ele>411</ele>
        <time>2018-09-30T09:57:48Z</time>
      </trkpt>
      <trkpt lat="43.21875" lon="0.131">
        <ele>411</ele>
        <time>2018-09-30T09:57:49Z</time>
      </trkpt>
      <trkpt lat="43.21877" lon="0.13099">
        <ele>410</ele>
        <time>2018-09-30T09:57:50Z</time>
      </trkpt>
      <trkpt lat="43.2188" lon="0.13099">
        <ele>410</ele>
        <time>2018-09-30T09:57:51Z</time>
      </trkpt>
      <trkpt lat="43.21882" lon="0.13099">
        <ele>410</ele>
        <time>2018-09-30T09:57:52Z</time>
      </trkpt>
      <trkpt lat="43.21885" lon="0.13098">
        <ele>410</ele>
        <time>2018-09-30T09:57:53Z</time>
      </trkpt>
      <trkpt lat="43.21887" lon="0.13098">
        <ele>410</ele>
        <time>2018-09-30T09:57:54Z</time>
      </trkpt>
      <trkpt lat="43.21889" lon="0.13098">
        <ele>410</ele>
        <time>2018-09-30T09:57:55Z</time>
      </trkpt>
      <trkpt lat="43.21891" lon="0.13098">
        <ele>410</ele>
        <time>2018-09-30T09:57:56Z</time>
      </trkpt>
      <trkpt lat="43.21893" lon="0.13098">
        <ele>410</ele>
        <time>2018-09-30T09:57:57Z</time>
      </trkpt>
      <trkpt lat="43.21896" lon="0.13098">
        <ele>410</ele>
        <time>2018-09-30T09:57:58Z</time>
      </trkpt>
      <trkpt lat="43.21898" lon="0.13098">
        <ele>410</ele>
        <time>2018-09-30T09:57:59Z</time>
      </trkpt>
      <trkpt lat="43.21902" lon="0.13099">
        <ele>409</ele>
        <time>2018-09-30T09:58:00Z</time>
      </trkpt>
      <trkpt lat="43.21905" lon="0.13099">
        <ele>409</ele>
        <time>2018-09-30T09:58:01Z</time>
      </trkpt>
      <trkpt lat="43.21908" lon="0.131">
        <ele>409</ele>
        <time>2018-09-30T09:58:02Z</time>
      </trkpt>
      <trkpt lat="43.21912" lon="0.13101">
        <ele>408</ele>
        <time>2018-09-30T09:58:03Z</time>
      </trkpt>
      <trkpt lat="43.21915" lon="0.13102">
        <ele>408</ele>
        <time>2018-09-30T09:58:04Z</time>
      </trkpt>
      <trkpt lat="43.21918" lon="0.13103">
        <ele>408</ele>
        <time>2018-09-30T09:58:05Z</time>
      </trkpt>
      <trkpt lat="43.21922" lon="0.13103">
        <ele>407</ele>
        <time>2018-09-30T09:58:06Z</time>
      </trkpt>
      <trkpt lat="43.21925" lon="0.13104">
        <ele>407</ele>
        <time>2018-09-30T09:58:07Z</time>
      </trkpt>
      <trkpt lat="43.21929" lon="0.13104">
        <ele>407</ele>
        <time>2018-09-30T09:58:08Z</time>
      </trkpt>
      <trkpt lat="43.21932" lon="0.13105">
        <ele>407</ele>
        <time>2018-09-30T09:58:09Z</time>
      </trkpt>
      <trkpt lat="43.21935" lon="0.13105">
        <ele>407</ele>
        <time>2018-09-30T09:58:10Z</time>
      </trkpt>
      <trkpt lat="43.21939" lon="0.13105">
        <ele>407</ele>
        <time>2018-09-30T09:58:11Z</time>
      </trkpt>
      <trkpt lat="43.21943" lon="0.13105">
        <ele>407</ele>
        <time>2018-09-30T09:58:12Z</time>
      </trkpt>
      <trkpt lat="43.21947" lon="0.13104">
        <ele>407</ele>
        <time>2018-09-30T09:58:13Z</time>
      </trkpt>
      <trkpt lat="43.21953" lon="0.13103">
        <ele>408</ele>
        <time>2018-09-30T09:58:14Z</time>
      </trkpt>
      <trkpt lat="43.21959" lon="0.13101">
        <ele>408</ele>
        <time>2018-09-30T09:58:15Z</time>
      </trkpt>
      <trkpt lat="43.21964" lon="0.13101">
        <ele>408</ele>
        <time>2018-09-30T09:58:16Z</time>
      </trkpt>
      <trkpt lat="43.21969" lon="0.131">
        <ele>408</ele>
        <time>2018-09-30T09:58:17Z</time>
      </trkpt>
      <trkpt lat="43.21973" lon="0.131">
        <ele>408</ele>
        <time>2018-09-30T09:58:18Z</time>
      </trkpt>
      <trkpt lat="43.21977" lon="0.13099">
        <ele>408</ele>
        <time>2018-09-30T09:58:19Z</time>
      </trkpt>
      <trkpt lat="43.21981" lon="0.13099">
        <ele>409</ele>
        <time>2018-09-30T09:58:20Z</time>
      </trkpt>
      <trkpt lat="43.21985" lon="0.13098">
        <ele>409</ele>
        <time>2018-09-30T09:58:21Z</time>
      </trkpt>
      <trkpt lat="43.21988" lon="0.13098">
        <ele>409</ele>
        <time>2018-09-30T09:58:22Z</time>
      </trkpt>
      <trkpt lat="43.21991" lon="0.13098">
        <ele>409</ele>
        <time>2018-09-30T09:58:23Z</time>
      </trkpt>
      <trkpt lat="43.21994" lon="0.13099">
        <ele>409</ele>
        <time>2018-09-30T09:58:24Z</time>
      </trkpt>
      <trkpt lat="43.21998" lon="0.13099">
        <ele>409</ele>
        <time>2018-09-30T09:58:25Z</time>
      </trkpt>
      <trkpt lat="43.22003" lon="0.13099">
        <ele>409</ele>
        <time>2018-09-30T09:58:26Z</time>
      </trkpt>
      <trkpt lat="43.22008" lon="0.13098">
        <ele>409</ele>
        <time>2018-09-30T09:58:27Z</time>
      </trkpt>
      <trkpt lat="43.22012" lon="0.13097">
        <ele>409</ele>
        <time>2018-09-30T09:58:28Z</time>
      </trkpt>
      <trkpt lat="43.22016" lon="0.13097">
        <ele>409</ele>
        <time>2018-09-30T09:58:29Z</time>
      </trkpt>
      <trkpt lat="43.22019" lon="0.13096">
        <ele>409</ele>
        <time>2018-09-30T09:58:30Z</time>
      </trkpt>
      <trkpt lat="43.22022" lon="0.13095">
        <ele>409</ele>
        <time>2018-09-30T09:58:31Z</time>
      </trkpt>
      <trkpt lat="43.22025" lon="0.13095">
        <ele>409</ele>
        <time>2018-09-30T09:58:32Z</time>
      </trkpt>
      <trkpt lat="43.22028" lon="0.13094">
        <ele>409</ele>
        <time>2018-09-30T09:58:33Z</time>
      </trkpt>
      <trkpt lat="43.22031" lon="0.13093">
        <ele>409</ele>
        <time>2018-09-30T09:58:34Z</time>
      </trkpt>
      <trkpt lat="43.22034" lon="0.13092">
        <ele>409</ele>
        <time>2018-09-30T09:58:35Z</time>
      </trkpt>
      <trkpt lat="43.22037" lon="0.13091">
        <ele>409</ele>
        <time>2018-09-30T09:58:36Z</time>
      </trkpt>
      <trkpt lat="43.2204" lon="0.13091">
        <ele>409</ele>
        <time>2018-09-30T09:58:37Z</time>
      </trkpt>
      <trkpt lat="43.22043" lon="0.1309">
        <ele>409</ele>
        <time>2018-09-30T09:58:38Z</time>
      </trkpt>
      <trkpt lat="43.22046" lon="0.13089">
        <ele>409</ele>
        <time>2018-09-30T09:58:39Z</time>
      </trkpt>
      <trkpt lat="43.22048" lon="0.13089">
        <ele>409</ele>
        <time>2018-09-30T09:58:40Z</time>
      </trkpt>
      <trkpt lat="43.22051" lon="0.13088">
        <ele>409</ele>
        <time>2018-09-30T09:58:41Z</time>
      </trkpt>
      <trkpt lat="43.22053" lon="0.13088">
        <ele>409</ele>
        <time>2018-09-30T09:58:42Z</time>
      </trkpt>
      <trkpt lat="43.22056" lon="0.13087">
        <ele>409</ele>
        <time>2018-09-30T09:58:43Z</time>
      </trkpt>
      <trkpt lat="43.22058" lon="0.13086">
        <ele>409</ele>
        <time>2018-09-30T09:58:44Z</time>
      </trkpt>
      <trkpt lat="43.22061" lon="0.13085">
        <ele>409</ele>
        <time>2018-09-30T09:58:45Z</time>
      </trkpt>
      <trkpt lat="43.22063" lon="0.13084">
        <ele>409</ele>
        <time>2018-09-30T09:58:46Z</time>
      </trkpt>
      <trkpt lat="43.22066" lon="0.13084">
        <ele>410</ele>
        <time>2018-09-30T09:58:47Z</time>
      </trkpt>
      <trkpt lat="43.22068" lon="0.13083">
        <ele>410</ele>
        <time>2018-09-30T09:58:48Z</time>
      </trkpt>
      <trkpt lat="43.2207" lon="0.13083">
        <ele>410</ele>
        <time>2018-09-30T09:58:49Z</time>
      </trkpt>
      <trkpt lat="43.22074" lon="0.13082">
        <ele>410</ele>
        <time>2018-09-30T09:58:50Z</time>
      </trkpt>
      <trkpt lat="43.22076" lon="0.13081">
        <ele>410</ele>
        <time>2018-09-30T09:58:51Z</time>
      </trkpt>
      <trkpt lat="43.22078" lon="0.13081">
        <ele>410</ele>
        <time>2018-09-30T09:58:52Z</time>
      </trkpt>
      <trkpt lat="43.2208" lon="0.1308">
        <ele>410</ele>
        <time>2018-09-30T09:58:53Z</time>
      </trkpt>
      <trkpt lat="43.22082" lon="0.13079">
        <ele>410</ele>
        <time>2018-09-30T09:58:54Z</time>
      </trkpt>
      <trkpt lat="43.22084" lon="0.13078">
        <ele>410</ele>
        <time>2018-09-30T09:58:55Z</time>
      </trkpt>
      <trkpt lat="43.22085" lon="0.13076">
        <ele>411</ele>
        <time>2018-09-30T09:58:56Z</time>
      </trkpt>
      <trkpt lat="43.22087" lon="0.13075">
        <ele>411</ele>
        <time>2018-09-30T09:58:57Z</time>
      </trkpt>
      <trkpt lat="43.2209" lon="0.13071">
        <ele>411</ele>
        <time>2018-09-30T09:58:58Z</time>
      </trkpt>
      <trkpt lat="43.22092" lon="0.13067">
        <ele>411</ele>
        <time>2018-09-30T09:58:59Z</time>
      </trkpt>
      <trkpt lat="43.22093" lon="0.13064">
        <ele>411</ele>
        <time>2018-09-30T09:59:00Z</time>
      </trkpt>
      <trkpt lat="43.22093" lon="0.1306">
        <ele>411</ele>
        <time>2018-09-30T09:59:01Z</time>
      </trkpt>
      <trkpt lat="43.22093" lon="0.13058">
        <ele>411</ele>
        <time>2018-09-30T09:59:02Z</time>
      </trkpt>
      <trkpt lat="43.22092" lon="0.13055">
        <ele>411</ele>
        <time>2018-09-30T09:59:03Z</time>
      </trkpt>
      <trkpt lat="43.22091" lon="0.13052">
        <ele>411</ele>
        <time>2018-09-30T09:59:04Z</time>
      </trkpt>
      <trkpt lat="43.22091" lon="0.1305">
        <ele>412</ele>
        <time>2018-09-30T09:59:05Z</time>
      </trkpt>
      <trkpt lat="43.22091" lon="0.13048">
        <ele>412</ele>
        <time>2018-09-30T09:59:06Z</time>
      </trkpt>
      <trkpt lat="43.2209" lon="0.13046">
        <ele>412</ele>
        <time>2018-09-30T09:59:07Z</time>
      </trkpt>
      <trkpt lat="43.2209" lon="0.13044">
        <ele>412</ele>
        <time>2018-09-30T09:59:08Z</time>
      </trkpt>
      <trkpt lat="43.2209" lon="0.13042">
        <ele>412</ele>
        <time>2018-09-30T09:59:09Z</time>
      </trkpt>
      <trkpt lat="43.2209" lon="0.13042">
        <ele>412</ele>
        <time>2018-09-30T09:59:10Z</time>
      </trkpt>
      <trkpt lat="43.2209" lon="0.13042">
        <ele>412</ele>
        <time>2018-09-30T09:59:11Z</time>
      </trkpt>
      <trkpt lat="43.2209" lon="0.13042">
        <ele>412</ele>
        <time>2018-09-30T09:59:12Z</time>
      </trkpt>
      <trkpt lat="43.2209" lon="0.13042">
        <ele>412</ele>
        <time>2018-09-30T09:59:13Z</time>
      </trkpt>
      <trkpt lat="43.2209" lon="0.13042">
        <ele>412</ele>
        <time>2018-09-30T09:59:14Z</time>
      </trkpt>
      <trkpt lat="43.22089" lon="0.13042">
        <ele>412</ele>
        <time>2018-09-30T09:59:15Z</time>
      </trkpt>
      <trkpt lat="43.22089" lon="0.13042">
        <ele>412</ele>
        <time>2018-09-30T09:59:16Z</time>
      </trkpt>
      <trkpt lat="43.22089" lon="0.13042">
        <ele>412</ele>
        <time>2018-09-30T09:59:17Z</time>
      </trkpt>
      <trkpt lat="43.22089" lon="0.13042">
        <ele>412</ele>
        <time>2018-09-30T09:59:18Z</time>
      </trkpt>
      <trkpt lat="43.22089" lon="0.13042">
        <ele>412</ele>
        <time>2018-09-30T09:59:19Z</time>
      </trkpt>
      <trkpt lat="43.22089" lon="0.13042">
        <ele>412</ele>
        <time>2018-09-30T09:59:20Z</time>
      </trkpt>
      <trkpt lat="43.22089" lon="0.13042">
        <ele>412</ele>
        <time>2018-09-30T09:59:21Z</time>
      </trkpt>
      <trkpt lat="43.22089" lon="0.13042">
        <ele>412</ele>
        <time>2018-09-30T09:59:22Z</time>
      </trkpt>
      <trkpt lat="43.22089" lon="0.13042">
        <ele>412</ele>
        <time>2018-09-30T09:59:23Z</time>
      </trkpt>
      <trkpt lat="43.22089" lon="0.13042">
        <ele>412</ele>
        <time>2018-09-30T09:59:24Z</time>
      </trkpt>
      <trkpt lat="43.22089" lon="0.13042">
        <ele>412</ele>
        <time>2018-09-30T09:59:25Z</time>
      </trkpt>
      <trkpt lat="43.22089" lon="0.13042">
        <ele>412</ele>
        <time>2018-09-30T09:59:26Z</time>
      </trkpt>
      <trkpt lat="43.22089" lon="0.13042">
        <ele>412</ele>
        <time>2018-09-30T09:59:27Z</time>
      </trkpt>
      <trkpt lat="43.22089" lon="0.13042">
        <ele>412</ele>
        <time>2018-09-30T09:59:28Z</time>
      </trkpt>
      <trkpt lat="43.22089" lon="0.13042">
        <ele>412</ele>
        <time>2018-09-30T09:59:29Z</time>
      </trkpt>
      <trkpt lat="43.22089" lon="0.13042">
        <ele>412</ele>
        <time>2018-09-30T09:59:30Z</time>
      </trkpt>
      <trkpt lat="43.22089" lon="0.13041">
        <ele>412</ele>
        <time>2018-09-30T09:59:31Z</time>
      </trkpt>
      <trkpt lat="43.22089" lon="0.13041">
        <ele>412</ele>
        <time>2018-09-30T09:59:32Z</time>
      </trkpt>
      <trkpt lat="43.22088" lon="0.13041">
        <ele>412</ele>
        <time>2018-09-30T09:59:33Z</time>
      </trkpt>
      <trkpt lat="43.22088" lon="0.13041">
        <ele>412</ele>
        <time>2018-09-30T09:59:34Z</time>
      </trkpt>
      <trkpt lat="43.22088" lon="0.13041">
        <ele>412</ele>
        <time>2018-09-30T09:59:35Z</time>
      </trkpt>
      <trkpt lat="43.22088" lon="0.13041">
        <ele>412</ele>
        <time>2018-09-30T09:59:36Z</time>
      </trkpt>
      <trkpt lat="43.22088" lon="0.13041">
        <ele>412</ele>
        <time>2018-09-30T09:59:37Z</time>
      </trkpt>
      <trkpt lat="43.22088" lon="0.13041">
        <ele>412</ele>
        <time>2018-09-30T09:59:38Z</time>
      </trkpt>
      <trkpt lat="43.22088" lon="0.13041">
        <ele>412</ele>
        <time>2018-09-30T09:59:39Z</time>
      </trkpt>
      <trkpt lat="43.22088" lon="0.13041">
        <ele>412</ele>
        <time>2018-09-30T09:59:40Z</time>
      </trkpt>
      <trkpt lat="43.22087" lon="0.13041">
        <ele>412</ele>
        <time>2018-09-30T09:59:41Z</time>
      </trkpt>
      <trkpt lat="43.22087" lon="0.13041">
        <ele>412</ele>
        <time>2018-09-30T09:59:42Z</time>
      </trkpt>
      <trkpt lat="43.22087" lon="0.13041">
        <ele>412</ele>
        <time>2018-09-30T09:59:43Z</time>
      </trkpt>
      <trkpt lat="43.22087" lon="0.13041">
        <ele>412</ele>
        <time>2018-09-30T09:59:44Z</time>
      </trkpt>
      <trkpt lat="43.22087" lon="0.13041">
        <ele>412</ele>
        <time>2018-09-30T09:59:45Z</time>
      </trkpt>
      <trkpt lat="43.22087" lon="0.13041">
        <ele>412</ele>
        <time>2018-09-30T09:59:46Z</time>
      </trkpt>
      <trkpt lat="43.22087" lon="0.13041">
        <ele>412</ele>
        <time>2018-09-30T09:59:47Z</time>
      </trkpt>
      <trkpt lat="43.22087" lon="0.13041">
        <ele>412</ele>
        <time>2018-09-30T09:59:48Z</time>
      </trkpt>
      <trkpt lat="43.22087" lon="0.13041">
        <ele>412</ele>
        <time>2018-09-30T09:59:49Z</time>
      </trkpt>
      <trkpt lat="43.22087" lon="0.13041">
        <ele>412</ele>
        <time>2018-09-30T09:59:50Z</time>
      </trkpt>
      <trkpt lat="43.22087" lon="0.13041">
        <ele>412</ele>
        <time>2018-09-30T09:59:51Z</time>
      </trkpt>
      <trkpt lat="43.22087" lon="0.13041">
        <ele>412</ele>
        <time>2018-09-30T09:59:52Z</time>
      </trkpt>
      <trkpt lat="43.22087" lon="0.13041">
        <ele>412</ele>
        <time>2018-09-30T09:59:53Z</time>
      </trkpt>
      <trkpt lat="43.22087" lon="0.13041">
        <ele>412</ele>
        <time>2018-09-30T09:59:54Z</time>
      </trkpt>
      <trkpt lat="43.22087" lon="0.13041">
        <ele>412</ele>
        <time>2018-09-30T09:59:55Z</time>
      </trkpt>
      <trkpt lat="43.22087" lon="0.13041">
        <ele>412</ele>
        <time>2018-09-30T09:59:56Z</time>
      </trkpt>
      <trkpt lat="43.22087" lon="0.13041">
        <ele>412</ele>
        <time>2018-09-30T09:59:57Z</time>
      </trkpt>
      <trkpt lat="43.22087" lon="0.13041">
        <ele>412</ele>
        <time>2018-09-30T09:59:58Z</time>
      </trkpt>
      <trkpt lat="43.22087" lon="0.13041">
        <ele>412</ele>
        <time>2018-09-30T09:59:59Z</time>
      </trkpt>
      <trkpt lat="43.22087" lon="0.13041">
        <ele>412</ele>
        <time>2018-09-30T10:00:00Z</time>
      </trkpt>
      <trkpt lat="43.22087" lon="0.13041">
        <ele>412</ele>
        <time>2018-09-30T10:00:01Z</time>
      </trkpt>
      <trkpt lat="43.22087" lon="0.13041">
        <ele>412</ele>
        <time>2018-09-30T10:00:02Z</time>
      </trkpt>
      <trkpt lat="43.22087" lon="0.13041">
        <ele>412</ele>
        <time>2018-09-30T10:00:03Z</time>
      </trkpt>
      <trkpt lat="43.22087" lon="0.13042">
        <ele>412</ele>
        <time>2018-09-30T10:00:04Z</time>
      </trkpt>
      <trkpt lat="43.22088" lon="0.13042">
        <ele>412</ele>
        <time>2018-09-30T10:00:05Z</time>
      </trkpt>
      <trkpt lat="43.22087" lon="0.1304">
        <ele>413</ele>
        <time>2018-09-30T10:00:06Z</time>
      </trkpt>
      <trkpt lat="43.22087" lon="0.13039">
        <ele>413</ele>
        <time>2018-09-30T10:00:07Z</time>
      </trkpt>
      <trkpt lat="43.22087" lon="0.13036">
        <ele>413</ele>
        <time>2018-09-30T10:00:08Z</time>
      </trkpt>
      <trkpt lat="43.22086" lon="0.13033">
        <ele>413</ele>
        <time>2018-09-30T10:00:09Z</time>
      </trkpt>
      <trkpt lat="43.22087" lon="0.1303">
        <ele>413</ele>
        <time>2018-09-30T10:00:10Z</time>
      </trkpt>
      <trkpt lat="43.22085" lon="0.13026">
        <ele>413</ele>
        <time>2018-09-30T10:00:11Z</time>
      </trkpt>
      <trkpt lat="43.22084" lon="0.13022">
        <ele>413</ele>
        <time>2018-09-30T10:00:12Z</time>
      </trkpt>
      <trkpt lat="43.22083" lon="0.13017">
        <ele>413</ele>
        <time>2018-09-30T10:00:13Z</time>
      </trkpt>
      <trkpt lat="43.22083" lon="0.13013">
        <ele>413</ele>
        <time>2018-09-30T10:00:14Z</time>
      </trkpt>
      <trkpt lat="43.22083" lon="0.13009">
        <ele>413</ele>
        <time>2018-09-30T10:00:15Z</time>
      </trkpt>
      <trkpt lat="43.22082" lon="0.13004">
        <ele>413</ele>
        <time>2018-09-30T10:00:16Z</time>
      </trkpt>
      <trkpt lat="43.22082" lon="0.12999">
        <ele>413</ele>
        <time>2018-09-30T10:00:17Z</time>
      </trkpt>
      <trkpt lat="43.22081" lon="0.12994">
        <ele>413</ele>
        <time>2018-09-30T10:00:18Z</time>
      </trkpt>
      <trkpt lat="43.22081" lon="0.12989">
        <ele>413</ele>
        <time>2018-09-30T10:00:19Z</time>
      </trkpt>
      <trkpt lat="43.22081" lon="0.12984">
        <ele>414</ele>
        <time>2018-09-30T10:00:20Z</time>
      </trkpt>
      <trkpt lat="43.22081" lon="0.12978">
        <ele>414</ele>
        <time>2018-09-30T10:00:21Z</time>
      </trkpt>
      <trkpt lat="43.2208" lon="0.12972">
        <ele>414</ele>
        <time>2018-09-30T10:00:22Z</time>
      </trkpt>
      <trkpt lat="43.2208" lon="0.12965">
        <ele>413</ele>
        <time>2018-09-30T10:00:23Z</time>
      </trkpt>
      <trkpt lat="43.2208" lon="0.12959">
        <ele>413</ele>
        <time>2018-09-30T10:00:24Z</time>
      </trkpt>
      <trkpt lat="43.22079" lon="0.12952">
        <ele>413</ele>
        <time>2018-09-30T10:00:25Z</time>
      </trkpt>
      <trkpt lat="43.22079" lon="0.12947">
        <ele>413</ele>
        <time>2018-09-30T10:00:26Z</time>
      </trkpt>
      <trkpt lat="43.22078" lon="0.12942">
        <ele>413</ele>
        <time>2018-09-30T10:00:27Z</time>
      </trkpt>
      <trkpt lat="43.22078" lon="0.12936">
        <ele>412</ele>
        <time>2018-09-30T10:00:28Z</time>
      </trkpt>
      <trkpt lat="43.22077" lon="0.1293">
        <ele>412</ele>
        <time>2018-09-30T10:00:29Z</time>
      </trkpt>
      <trkpt lat="43.22076" lon="0.12922">
        <ele>411</ele>
        <time>2018-09-30T10:00:30Z</time>
      </trkpt>
      <trkpt lat="43.22075" lon="0.12916">
        <ele>411</ele>
        <time>2018-09-30T10:00:31Z</time>
      </trkpt>
      <trkpt lat="43.22074" lon="0.1291">
        <ele>410</ele>
        <time>2018-09-30T10:00:32Z</time>
      </trkpt>
      <trkpt lat="43.22074" lon="0.12904">
        <ele>410</ele>
        <time>2018-09-30T10:00:33Z</time>
      </trkpt>
      <trkpt lat="43.22073" lon="0.129">
        <ele>410</ele>
        <time>2018-09-30T10:00:34Z</time>
      </trkpt>
      <trkpt lat="43.22073" lon="0.12895">
        <ele>410</ele>
        <time>2018-09-30T10:00:35Z</time>
      </trkpt>
      <trkpt lat="43.22071" lon="0.12888">
        <ele>410</ele>
        <time>2018-09-30T10:00:36Z</time>
      </trkpt>
      <trkpt lat="43.22071" lon="0.12882">
        <ele>410</ele>
        <time>2018-09-30T10:00:37Z</time>
      </trkpt>
      <trkpt lat="43.2207" lon="0.12876">
        <ele>409</ele>
        <time>2018-09-30T10:00:38Z</time>
      </trkpt>
      <trkpt lat="43.22069" lon="0.12871">
        <ele>409</ele>
        <time>2018-09-30T10:00:39Z</time>
      </trkpt>
      <trkpt lat="43.22069" lon="0.12866">
        <ele>409</ele>
        <time>2018-09-30T10:00:40Z</time>
      </trkpt>
      <trkpt lat="43.22069" lon="0.1286">
        <ele>409</ele>
        <time>2018-09-30T10:00:41Z</time>
      </trkpt>
      <trkpt lat="43.22069" lon="0.12855">
        <ele>409</ele>
        <time>2018-09-30T10:00:42Z</time>
      </trkpt>
      <trkpt lat="43.22068" lon="0.1285">
        <ele>409</ele>
        <time>2018-09-30T10:00:43Z</time>
      </trkpt>
      <trkpt lat="43.22068" lon="0.12845">
        <ele>409</ele>
        <time>2018-09-30T10:00:44Z</time>
      </trkpt>
      <trkpt lat="43.22066" lon="0.1284">
        <ele>409</ele>
        <time>2018-09-30T10:00:45Z</time>
      </trkpt>
      <trkpt lat="43.22066" lon="0.12836">
        <ele>409</ele>
        <time>2018-09-30T10:00:46Z</time>
      </trkpt>
      <trkpt lat="43.22065" lon="0.12831">
        <ele>409</ele>
        <time>2018-09-30T10:00:47Z</time>
      </trkpt>
      <trkpt lat="43.22064" lon="0.12826">
        <ele>409</ele>
        <time>2018-09-30T10:00:48Z</time>
      </trkpt>
      <trkpt lat="43.22064" lon="0.12823">
        <ele>409</ele>
        <time>2018-09-30T10:00:49Z</time>
      </trkpt>
      <trkpt lat="43.22063" lon="0.12819">
        <ele>409</ele>
        <time>2018-09-30T10:00:50Z</time>
      </trkpt>
      <trkpt lat="43.22061" lon="0.12816">
        <ele>409</ele>
        <time>2018-09-30T10:00:51Z</time>
      </trkpt>
      <trkpt lat="43.2206" lon="0.12815">
        <ele>409</ele>
        <time>2018-09-30T10:00:52Z</time>
      </trkpt>
      <trkpt lat="43.22057" lon="0.12814">
        <ele>410</ele>
        <time>2018-09-30T10:00:53Z</time>
      </trkpt>
      <trkpt lat="43.22055" lon="0.12814">
        <ele>410</ele>
        <time>2018-09-30T10:00:54Z</time>
      </trkpt>
      <trkpt lat="43.22053" lon="0.12815">
        <ele>410</ele>
        <time>2018-09-30T10:00:55Z</time>
      </trkpt>
      <trkpt lat="43.2205" lon="0.12815">
        <ele>410</ele>
        <time>2018-09-30T10:00:56Z</time>
      </trkpt>
      <trkpt lat="43.22047" lon="0.12815">
        <ele>410</ele>
        <time>2018-09-30T10:00:57Z</time>
      </trkpt>
      <trkpt lat="43.22045" lon="0.12815">
        <ele>410</ele>
        <time>2018-09-30T10:00:58Z</time>
      </trkpt>
      <trkpt lat="43.22043" lon="0.12816">
        <ele>410</ele>
        <time>2018-09-30T10:00:59Z</time>
      </trkpt>
      <trkpt lat="43.2204" lon="0.12817">
        <ele>410</ele>
        <time>2018-09-30T10:01:00Z</time>
      </trkpt>
      <trkpt lat="43.22038" lon="0.12818">
        <ele>411</ele>
        <time>2018-09-30T10:01:01Z</time>
      </trkpt>
      <trkpt lat="43.22035" lon="0.12819">
        <ele>411</ele>
        <time>2018-09-30T10:01:02Z</time>
      </trkpt>
      <trkpt lat="43.22032" lon="0.12821">
        <ele>411</ele>
        <time>2018-09-30T10:01:03Z</time>
      </trkpt>
      <trkpt lat="43.22029" lon="0.12823">
        <ele>411</ele>
        <time>2018-09-30T10:01:04Z</time>
      </trkpt>
      <trkpt lat="43.22026" lon="0.12824">
        <ele>411</ele>
        <time>2018-09-30T10:01:05Z</time>
      </trkpt>
      <trkpt lat="43.22022" lon="0.12825">
        <ele>411</ele>
        <time>2018-09-30T10:01:06Z</time>
      </trkpt>
      <trkpt lat="43.22019" lon="0.12825">
        <ele>412</ele>
        <time>2018-09-30T10:01:07Z</time>
      </trkpt>
      <trkpt lat="43.22015" lon="0.12826">
        <ele>412</ele>
        <time>2018-09-30T10:01:08Z</time>
      </trkpt>
      <trkpt lat="43.22011" lon="0.12826">
        <ele>412</ele>
        <time>2018-09-30T10:01:09Z</time>
      </trkpt>
      <trkpt lat="43.22007" lon="0.12828">
        <ele>412</ele>
        <time>2018-09-30T10:01:10Z</time>
      </trkpt>
      <trkpt lat="43.22003" lon="0.12828">
        <ele>412</ele>
        <time>2018-09-30T10:01:11Z</time>
      </trkpt>
      <trkpt lat="43.21998" lon="0.12829">
        <ele>412</ele>
        <time>2018-09-30T10:01:12Z</time>
      </trkpt>
      <trkpt lat="43.21992" lon="0.12832">
        <ele>412</ele>
        <time>2018-09-30T10:01:13Z</time>
      </trkpt>
      <trkpt lat="43.21987" lon="0.12834">
        <ele>412</ele>
        <time>2018-09-30T10:01:14Z</time>
      </trkpt>
      <trkpt lat="43.21982" lon="0.12837">
        <ele>413</ele>
        <time>2018-09-30T10:01:15Z</time>
      </trkpt>
      <trkpt lat="43.21977" lon="0.1284">
        <ele>413</ele>
        <time>2018-09-30T10:01:16Z</time>
      </trkpt>
      <trkpt lat="43.21974" lon="0.12841">
        <ele>413</ele>
        <time>2018-09-30T10:01:17Z</time>
      </trkpt>
      <trkpt lat="43.2197" lon="0.12842">
        <ele>413</ele>
        <time>2018-09-30T10:01:18Z</time>
      </trkpt>
      <trkpt lat="43.21962" lon="0.12843">
        <ele>413</ele>
        <time>2018-09-30T10:01:19Z</time>
      </trkpt>
      <trkpt lat="43.21955" lon="0.12845">
        <ele>413</ele>
        <time>2018-09-30T10:01:20Z</time>
      </trkpt>
      <trkpt lat="43.2195" lon="0.12847">
        <ele>413</ele>
        <time>2018-09-30T10:01:21Z</time>
      </trkpt>
      <trkpt lat="43.21944" lon="0.12851">
        <ele>413</ele>
        <time>2018-09-30T10:01:22Z</time>
      </trkpt>
      <trkpt lat="43.21938" lon="0.12853">
        <ele>414</ele>
        <time>2018-09-30T10:01:23Z</time>
      </trkpt>
      <trkpt lat="43.21933" lon="0.12856">
        <ele>414</ele>
        <time>2018-09-30T10:01:24Z</time>
      </trkpt>
      <trkpt lat="43.21927" lon="0.12859">
        <ele>414</ele>
        <time>2018-09-30T10:01:25Z</time>
      </trkpt>
      <trkpt lat="43.21922" lon="0.12862">
        <ele>415</ele>
        <time>2018-09-30T10:01:26Z</time>
      </trkpt>
      <trkpt lat="43.21917" lon="0.12865">
        <ele>415</ele>
        <time>2018-09-30T10:01:27Z</time>
      </trkpt>
      <trkpt lat="43.21912" lon="0.12867">
        <ele>415</ele>
        <time>2018-09-30T10:01:28Z</time>
      </trkpt>
      <trkpt lat="43.21906" lon="0.12868">
        <ele>415</ele>
        <time>2018-09-30T10:01:29Z</time>
      </trkpt>
      <trkpt lat="43.21901" lon="0.1287">
        <ele>415</ele>
        <time>2018-09-30T10:01:30Z</time>
      </trkpt>
      <trkpt lat="43.21895" lon="0.12871">
        <ele>416</ele>
        <time>2018-09-30T10:01:31Z</time>
      </trkpt>
      <trkpt lat="43.2189" lon="0.12872">
        <ele>416</ele>
        <time>2018-09-30T10:01:32Z</time>
      </trkpt>
      <trkpt lat="43.21884" lon="0.12874">
        <ele>417</ele>
        <time>2018-09-30T10:01:33Z</time>
      </trkpt>
      <trkpt lat="43.21879" lon="0.12875">
        <ele>417</ele>
        <time>2018-09-30T10:01:34Z</time>
      </trkpt>
      <trkpt lat="43.21874" lon="0.12876">
        <ele>418</ele>
        <time>2018-09-30T10:01:35Z</time>
      </trkpt>
      <trkpt lat="43.21869" lon="0.12877">
        <ele>418</ele>
        <time>2018-09-30T10:01:36Z</time>
      </trkpt>
      <trkpt lat="43.21866" lon="0.12877">
        <ele>418</ele>
        <time>2018-09-30T10:01:37Z</time>
      </trkpt>
      <trkpt lat="43.21863" lon="0.12876">
        <ele>418</ele>
        <time>2018-09-30T10:01:38Z</time>
      </trkpt>
      <trkpt lat="43.2186" lon="0.12875">
        <ele>418</ele>
        <time>2018-09-30T10:01:39Z</time>
      </trkpt>
      <trkpt lat="43.21857" lon="0.12874">
        <ele>418</ele>
        <time>2018-09-30T10:01:40Z</time>
      </trkpt>
      <trkpt lat="43.21853" lon="0.12873">
        <ele>418</ele>
        <time>2018-09-30T10:01:41Z</time>
      </trkpt>
      <trkpt lat="43.21849" lon="0.12875">
        <ele>418</ele>
        <time>2018-09-30T10:01:42Z</time>
      </trkpt>
      <trkpt lat="43.21844" lon="0.12876">
        <ele>418</ele>
        <time>2018-09-30T10:01:43Z</time>
      </trkpt>
      <trkpt lat="43.21839" lon="0.12877">
        <ele>417</ele>
        <time>2018-09-30T10:01:44Z</time>
      </trkpt>
      <trkpt lat="43.21834" lon="0.12876">
        <ele>417</ele>
        <time>2018-09-30T10:01:45Z</time>
      </trkpt>
      <trkpt lat="43.21829" lon="0.12877">
        <ele>417</ele>
        <time>2018-09-30T10:01:46Z</time>
      </trkpt>
      <trkpt lat="43.21823" lon="0.12879">
        <ele>416</ele>
        <time>2018-09-30T10:01:47Z</time>
      </trkpt>
      <trkpt lat="43.21818" lon="0.1288">
        <ele>416</ele>
        <time>2018-09-30T10:01:48Z</time>
      </trkpt>
      <trkpt lat="43.21813" lon="0.12881">
        <ele>415</ele>
        <time>2018-09-30T10:01:49Z</time>
      </trkpt>
      <trkpt lat="43.21808" lon="0.12883">
        <ele>415</ele>
        <time>2018-09-30T10:01:50Z</time>
      </trkpt>
      <trkpt lat="43.21804" lon="0.12884">
        <ele>414</ele>
        <time>2018-09-30T10:01:51Z</time>
      </trkpt>
      <trkpt lat="43.218" lon="0.12886">
        <ele>414</ele>
        <time>2018-09-30T10:01:52Z</time>
      </trkpt>
      <trkpt lat="43.21796" lon="0.12887">
        <ele>414</ele>
        <time>2018-09-30T10:01:53Z</time>
      </trkpt>
      <trkpt lat="43.21791" lon="0.12888">
        <ele>414</ele>
        <time>2018-09-30T10:01:54Z</time>
      </trkpt>
      <trkpt lat="43.21787" lon="0.1289">
        <ele>414</ele>
        <time>2018-09-30T10:01:55Z</time>
      </trkpt>
      <trkpt lat="43.21782" lon="0.12892">
        <ele>414</ele>
        <time>2018-09-30T10:01:56Z</time>
      </trkpt>
      <trkpt lat="43.21777" lon="0.12894">
        <ele>414</ele>
        <time>2018-09-30T10:01:57Z</time>
      </trkpt>
      <trkpt lat="43.21773" lon="0.12895">
        <ele>414</ele>
        <time>2018-09-30T10:01:58Z</time>
      </trkpt>
      <trkpt lat="43.21769" lon="0.12897">
        <ele>414</ele>
        <time>2018-09-30T10:01:59Z</time>
      </trkpt>
      <trkpt lat="43.21764" lon="0.12898">
        <ele>414</ele>
        <time>2018-09-30T10:02:00Z</time>
      </trkpt>
      <trkpt lat="43.2176" lon="0.129">
        <ele>414</ele>
        <time>2018-09-30T10:02:01Z</time>
      </trkpt>
      <trkpt lat="43.21756" lon="0.12901">
        <ele>414</ele>
        <time>2018-09-30T10:02:02Z</time>
      </trkpt>
      <trkpt lat="43.21752" lon="0.12901">
        <ele>414</ele>
        <time>2018-09-30T10:02:03Z</time>
      </trkpt>
      <trkpt lat="43.21747" lon="0.12902">
        <ele>414</ele>
        <time>2018-09-30T10:02:04Z</time>
      </trkpt>
      <trkpt lat="43.21743" lon="0.12903">
        <ele>414</ele>
        <time>2018-09-30T10:02:05Z</time>
      </trkpt>
      <trkpt lat="43.21738" lon="0.12905">
        <ele>414</ele>
        <time>2018-09-30T10:02:06Z</time>
      </trkpt>
      <trkpt lat="43.21733" lon="0.12906">
        <ele>414</ele>
        <time>2018-09-30T10:02:07Z</time>
      </trkpt>
      <trkpt lat="43.21728" lon="0.12906">
        <ele>414</ele>
        <time>2018-09-30T10:02:08Z</time>
      </trkpt>
      <trkpt lat="43.21723" lon="0.12907">
        <ele>415</ele>
        <time>2018-09-30T10:02:09Z</time>
      </trkpt>
      <trkpt lat="43.21719" lon="0.12908">
        <ele>415</ele>
        <time>2018-09-30T10:02:10Z</time>
      </trkpt>
      <trkpt lat="43.21715" lon="0.12909">
        <ele>415</ele>
        <time>2018-09-30T10:02:11Z</time>
      </trkpt>
      <trkpt lat="43.21711" lon="0.1291">
        <ele>416</ele>
        <time>2018-09-30T10:02:12Z</time>
      </trkpt>
      <trkpt lat="43.21706" lon="0.12911">
        <ele>416</ele>
        <time>2018-09-30T10:02:13Z</time>
      </trkpt>
      <trkpt lat="43.21702" lon="0.12912">
        <ele>416</ele>
        <time>2018-09-30T10:02:14Z</time>
      </trkpt>
      <trkpt lat="43.21697" lon="0.12913">
        <ele>416</ele>
        <time>2018-09-30T10:02:15Z</time>
      </trkpt>
      <trkpt lat="43.21692" lon="0.12914">
        <ele>416</ele>
        <time>2018-09-30T10:02:16Z</time>
      </trkpt>
      <trkpt lat="43.21687" lon="0.12915">
        <ele>416</ele>
        <time>2018-09-30T10:02:17Z</time>
      </trkpt>
      <trkpt lat="43.21682" lon="0.12917">
        <ele>416</ele>
        <time>2018-09-30T10:02:18Z</time>
      </trkpt>
      <trkpt lat="43.21677" lon="0.12918">
        <ele>416</ele>
        <time>2018-09-30T10:02:19Z</time>
      </trkpt>
      <trkpt lat="43.21672" lon="0.1292">
        <ele>416</ele>
        <time>2018-09-30T10:02:20Z</time>
      </trkpt>
      <trkpt lat="43.21667" lon="0.12921">
        <ele>416</ele>
        <time>2018-09-30T10:02:21Z</time>
      </trkpt>
      <trkpt lat="43.21663" lon="0.12923">
        <ele>416</ele>
        <time>2018-09-30T10:02:22Z</time>
      </trkpt>
      <trkpt lat="43.21662" lon="0.12924">
        <ele>416</ele>
        <time>2018-09-30T10:02:23Z</time>
      </trkpt>
      <trkpt lat="43.2166" lon="0.12926">
        <ele>416</ele>
        <time>2018-09-30T10:02:24Z</time>
      </trkpt>
      <trkpt lat="43.2166" lon="0.12927">
        <ele>416</ele>
        <time>2018-09-30T10:02:25Z</time>
      </trkpt>
      <trkpt lat="43.2166" lon="0.12928">
        <ele>416</ele>
        <time>2018-09-30T10:02:26Z</time>
      </trkpt>
      <trkpt lat="43.2166" lon="0.12928">
        <ele>416</ele>
        <time>2018-09-30T10:02:27Z</time>
      </trkpt>
      <trkpt lat="43.2166" lon="0.12928">
        <ele>416</ele>
        <time>2018-09-30T10:02:28Z</time>
      </trkpt>
      <trkpt lat="43.2166" lon="0.12928">
        <ele>416</ele>
        <time>2018-09-30T10:02:29Z</time>
      </trkpt>
      <trkpt lat="43.2166" lon="0.12928">
        <ele>416</ele>
        <time>2018-09-30T10:02:30Z</time>
      </trkpt>
      <trkpt lat="43.2166" lon="0.12928">
        <ele>416</ele>
        <time>2018-09-30T10:02:31Z</time>
      </trkpt>
      <trkpt lat="43.21659" lon="0.12928">
        <ele>416</ele>
        <time>2018-09-30T10:02:32Z</time>
      </trkpt>
      <trkpt lat="43.21659" lon="0.12928">
        <ele>416</ele>
        <time>2018-09-30T10:02:33Z</time>
      </trkpt>
      <trkpt lat="43.21659" lon="0.12929">
        <ele>416</ele>
        <time>2018-09-30T10:02:34Z</time>
      </trkpt>
      <trkpt lat="43.21659" lon="0.1293">
        <ele>417</ele>
        <time>2018-09-30T10:02:35Z</time>
      </trkpt>
      <trkpt lat="43.21659" lon="0.12932">
        <ele>417</ele>
        <time>2018-09-30T10:02:36Z</time>
      </trkpt>
      <trkpt lat="43.21659" lon="0.12933">
        <ele>417</ele>
        <time>2018-09-30T10:02:37Z</time>
      </trkpt>
      <trkpt lat="43.2166" lon="0.12936">
        <ele>417</ele>
        <time>2018-09-30T10:02:38Z</time>
      </trkpt>
      <trkpt lat="43.2166" lon="0.12938">
        <ele>417</ele>
        <time>2018-09-30T10:02:39Z</time>
      </trkpt>
      <trkpt lat="43.21661" lon="0.12942">
        <ele>417</ele>
        <time>2018-09-30T10:02:40Z</time>
      </trkpt>
      <trkpt lat="43.21661" lon="0.12945">
        <ele>417</ele>
        <time>2018-09-30T10:02:41Z</time>
      </trkpt>
      <trkpt lat="43.21661" lon="0.12948">
        <ele>417</ele>
        <time>2018-09-30T10:02:42Z</time>
      </trkpt>
      <trkpt lat="43.21661" lon="0.12951">
        <ele>417</ele>
        <time>2018-09-30T10:02:43Z</time>
      </trkpt>
      <trkpt lat="43.21661" lon="0.12955">
        <ele>417</ele>
        <time>2018-09-30T10:02:44Z</time>
      </trkpt>
      <trkpt lat="43.2166" lon="0.12959">
        <ele>417</ele>
        <time>2018-09-30T10:02:45Z</time>
      </trkpt>
      <trkpt lat="43.2166" lon="0.12962">
        <ele>417</ele>
        <time>2018-09-30T10:02:46Z</time>
      </trkpt>
      <trkpt lat="43.21659" lon="0.12965">
        <ele>417</ele>
        <time>2018-09-30T10:02:47Z</time>
      </trkpt>
      <trkpt lat="43.21659" lon="0.12967">
        <ele>418</ele>
        <time>2018-09-30T10:02:48Z</time>
      </trkpt>
      <trkpt lat="43.2166" lon="0.1297">
        <ele>418</ele>
        <time>2018-09-30T10:02:49Z</time>
      </trkpt>
      <trkpt lat="43.2166" lon="0.12973">
        <ele>418</ele>
        <time>2018-09-30T10:02:50Z</time>
      </trkpt>
      <trkpt lat="43.2166" lon="0.12976">
        <ele>418</ele>
        <time>2018-09-30T10:02:51Z</time>
      </trkpt>
      <trkpt lat="43.2166" lon="0.1298">
        <ele>419</ele>
        <time>2018-09-30T10:02:52Z</time>
      </trkpt>
      <trkpt lat="43.2166" lon="0.12983">
        <ele>419</ele>
        <time>2018-09-30T10:02:53Z</time>
      </trkpt>
      <trkpt lat="43.21659" lon="0.12985">
        <ele>419</ele>
        <time>2018-09-30T10:02:54Z</time>
      </trkpt>
      <trkpt lat="43.21659" lon="0.12988">
        <ele>420</ele>
        <time>2018-09-30T10:02:55Z</time>
      </trkpt>
      <trkpt lat="43.21659" lon="0.12992">
        <ele>420</ele>
        <time>2018-09-30T10:02:56Z</time>
      </trkpt>
      <trkpt lat="43.2166" lon="0.12995">
        <ele>420</ele>
        <time>2018-09-30T10:02:57Z</time>
      </trkpt>
      <trkpt lat="43.2166" lon="0.12998">
        <ele>421</ele>
        <time>2018-09-30T10:02:58Z</time>
      </trkpt>
      <trkpt lat="43.21659" lon="0.13">
        <ele>421</ele>
        <time>2018-09-30T10:02:59Z</time>
      </trkpt>
      <trkpt lat="43.21658" lon="0.13001">
        <ele>421</ele>
        <time>2018-09-30T10:03:00Z</time>
      </trkpt>
      <trkpt lat="43.21658" lon="0.13003">
        <ele>422</ele>
        <time>2018-09-30T10:03:01Z</time>
      </trkpt>
      <trkpt lat="43.21656" lon="0.13005">
        <ele>422</ele>
        <time>2018-09-30T10:03:02Z</time>
      </trkpt>
      <trkpt lat="43.21655" lon="0.13007">
        <ele>422</ele>
        <time>2018-09-30T10:03:03Z</time>
      </trkpt>
      <trkpt lat="43.21655" lon="0.13009">
        <ele>422</ele>
        <time>2018-09-30T10:03:04Z</time>
      </trkpt>
      <trkpt lat="43.21654" lon="0.1301">
        <ele>423</ele>
        <time>2018-09-30T10:03:05Z</time>
      </trkpt>
      <trkpt lat="43.21653" lon="0.13011">
        <ele>423</ele>
        <time>2018-09-30T10:03:06Z</time>
      </trkpt>
      <trkpt lat="43.21651" lon="0.13012">
        <ele>423</ele>
        <time>2018-09-30T10:03:07Z</time>
      </trkpt>
      <trkpt lat="43.2165" lon="0.13013">
        <ele>423</ele>
        <time>2018-09-30T10:03:08Z</time>
      </trkpt>
      <trkpt lat="43.21648" lon="0.13014">
        <ele>424</ele>
        <time>2018-09-30T10:03:09Z</time>
      </trkpt>
      <trkpt lat="43.21646" lon="0.13015">
        <ele>424</ele>
        <time>2018-09-30T10:03:10Z</time>
      </trkpt>
      <trkpt lat="43.21645" lon="0.13015">
        <ele>424</ele>
        <time>2018-09-30T10:03:11Z</time>
      </trkpt>
      <trkpt lat="43.21643" lon="0.13018">
        <ele>424</ele>
        <time>2018-09-30T10:03:12Z</time>
      </trkpt>
      <trkpt lat="43.21641" lon="0.13021">
        <ele>424</ele>
        <time>2018-09-30T10:03:13Z</time>
      </trkpt>
      <trkpt lat="43.21639" lon="0.13023">
        <ele>424</ele>
        <time>2018-09-30T10:03:14Z</time>
      </trkpt>
      <trkpt lat="43.21637" lon="0.13025">
        <ele>425</ele>
        <time>2018-09-30T10:03:15Z</time>
      </trkpt>
      <trkpt lat="43.21635" lon="0.13026">
        <ele>425</ele>
        <time>2018-09-30T10:03:16Z</time>
      </trkpt>
      <trkpt lat="43.21634" lon="0.13027">
        <ele>425</ele>
        <time>2018-09-30T10:03:17Z</time>
      </trkpt>
      <trkpt lat="43.21633" lon="0.13028">
        <ele>425</ele>
        <time>2018-09-30T10:03:18Z</time>
      </trkpt>
      <trkpt lat="43.21632" lon="0.1303">
        <ele>425</ele>
        <time>2018-09-30T10:03:19Z</time>
      </trkpt>
      <trkpt lat="43.21631" lon="0.13031">
        <ele>425</ele>
        <time>2018-09-30T10:03:20Z</time>
      </trkpt>
      <trkpt lat="43.21628" lon="0.13032">
        <ele>425</ele>
        <time>2018-09-30T10:03:21Z</time>
      </trkpt>
      <trkpt lat="43.21627" lon="0.13032">
        <ele>425</ele>
        <time>2018-09-30T10:03:22Z</time>
      </trkpt>
      <trkpt lat="43.21625" lon="0.13033">
        <ele>425</ele>
        <time>2018-09-30T10:03:23Z</time>
      </trkpt>
      <trkpt lat="43.21623" lon="0.13032">
        <ele>425</ele>
        <time>2018-09-30T10:03:24Z</time>
      </trkpt>
      <trkpt lat="43.21623" lon="0.13033">
        <ele>425</ele>
        <time>2018-09-30T10:03:25Z</time>
      </trkpt>
      <trkpt lat="43.2162" lon="0.13037">
        <ele>425</ele>
        <time>2018-09-30T10:03:26Z</time>
      </trkpt>
      <trkpt lat="43.21615" lon="0.13037">
        <ele>425</ele>
        <time>2018-09-30T10:03:27Z</time>
      </trkpt>
      <trkpt lat="43.21611" lon="0.13035">
        <ele>425</ele>
        <time>2018-09-30T10:03:28Z</time>
      </trkpt>
      <trkpt lat="43.21609" lon="0.13033">
        <ele>425</ele>
        <time>2018-09-30T10:03:29Z</time>
      </trkpt>
      <trkpt lat="43.21607" lon="0.13029">
        <ele>425</ele>
        <time>2018-09-30T10:03:30Z</time>
      </trkpt>
      <trkpt lat="43.21605" lon="0.13024">
        <ele>425</ele>
        <time>2018-09-30T10:03:31Z</time>
      </trkpt>
      <trkpt lat="43.21603" lon="0.13018">
        <ele>425</ele>
        <time>2018-09-30T10:03:32Z</time>
      </trkpt>
      <trkpt lat="43.21601" lon="0.13012">
        <ele>425</ele>
        <time>2018-09-30T10:03:33Z</time>
      </trkpt>
      <trkpt lat="43.216" lon="0.13008">
        <ele>425</ele>
        <time>2018-09-30T10:03:34Z</time>
      </trkpt>
      <trkpt lat="43.21599" lon="0.13004">
        <ele>425</ele>
        <time>2018-09-30T10:03:35Z</time>
      </trkpt>
      <trkpt lat="43.21597" lon="0.12999">
        <ele>424</ele>
        <time>2018-09-30T10:03:36Z</time>
      </trkpt>
      <trkpt lat="43.21595" lon="0.12993">
        <ele>424</ele>
        <time>2018-09-30T10:03:37Z</time>
      </trkpt>
      <trkpt lat="43.21594" lon="0.12987">
        <ele>424</ele>
        <time>2018-09-30T10:03:38Z</time>
      </trkpt>
      <trkpt lat="43.21593" lon="0.12979">
        <ele>424</ele>
        <time>2018-09-30T10:03:39Z</time>
      </trkpt>
      <trkpt lat="43.21591" lon="0.1297">
        <ele>424</ele>
        <time>2018-09-30T10:03:40Z</time>
      </trkpt>
      <trkpt lat="43.21589" lon="0.12959">
        <ele>424</ele>
        <time>2018-09-30T10:03:41Z</time>
      </trkpt>
      <trkpt lat="43.21587" lon="0.12944">
        <ele>423</ele>
        <time>2018-09-30T10:03:42Z</time>
      </trkpt>
      <trkpt lat="43.21586" lon="0.12932">
        <ele>423</ele>
        <time>2018-09-30T10:03:43Z</time>
      </trkpt>
      <trkpt lat="43.21585" lon="0.12923">
        <ele>422</ele>
        <time>2018-09-30T10:03:44Z</time>
      </trkpt>
      <trkpt lat="43.21584" lon="0.12915">
        <ele>422</ele>
        <time>2018-09-30T10:03:45Z</time>
      </trkpt>
      <trkpt lat="43.21584" lon="0.12907">
        <ele>421</ele>
        <time>2018-09-30T10:03:46Z</time>
      </trkpt>
      <trkpt lat="43.21584" lon="0.12898">
        <ele>421</ele>
        <time>2018-09-30T10:03:47Z</time>
      </trkpt>
      <trkpt lat="43.21583" lon="0.12892">
        <ele>421</ele>
        <time>2018-09-30T10:03:48Z</time>
      </trkpt>
      <trkpt lat="43.21583" lon="0.12886">
        <ele>420</ele>
        <time>2018-09-30T10:03:49Z</time>
      </trkpt>
      <trkpt lat="43.21584" lon="0.12879">
        <ele>420</ele>
        <time>2018-09-30T10:03:50Z</time>
      </trkpt>
      <trkpt lat="43.21585" lon="0.12873">
        <ele>420</ele>
        <time>2018-09-30T10:03:51Z</time>
      </trkpt>
      <trkpt lat="43.21586" lon="0.12862">
        <ele>417</ele>
        <time>2018-09-30T10:03:52Z</time>
      </trkpt>
      <trkpt lat="43.21587" lon="0.12849">
        <ele>416</ele>
        <time>2018-09-30T10:03:53Z</time>
      </trkpt>
      <trkpt lat="43.21589" lon="0.12834">
        <ele>416</ele>
        <time>2018-09-30T10:03:54Z</time>
      </trkpt>
      <trkpt lat="43.21591" lon="0.12822">
        <ele>415</ele>
        <time>2018-09-30T10:03:55Z</time>
      </trkpt>
      <trkpt lat="43.21592" lon="0.12809">
        <ele>414</ele>
        <time>2018-09-30T10:03:56Z</time>
      </trkpt>
      <trkpt lat="43.21593" lon="0.12799">
        <ele>413</ele>
        <time>2018-09-30T10:03:57Z</time>
      </trkpt>
      <trkpt lat="43.21595" lon="0.1279">
        <ele>413</ele>
        <time>2018-09-30T10:03:58Z</time>
      </trkpt>
      <trkpt lat="43.21596" lon="0.12785">
        <ele>410</ele>
        <time>2018-09-30T10:03:59Z</time>
      </trkpt>
      <trkpt lat="43.21597" lon="0.12779">
        <ele>410</ele>
        <time>2018-09-30T10:04:00Z</time>
      </trkpt>
      <trkpt lat="43.21598" lon="0.12774">
        <ele>409</ele>
        <time>2018-09-30T10:04:01Z</time>
      </trkpt>
      <trkpt lat="43.216" lon="0.12764">
        <ele>409</ele>
        <time>2018-09-30T10:04:02Z</time>
      </trkpt>
      <trkpt lat="43.21603" lon="0.12757">
        <ele>409</ele>
        <time>2018-09-30T10:04:03Z</time>
      </trkpt>
      <trkpt lat="43.21605" lon="0.12749">
        <ele>409</ele>
        <time>2018-09-30T10:04:04Z</time>
      </trkpt>
      <trkpt lat="43.21607" lon="0.12742">
        <ele>407</ele>
        <time>2018-09-30T10:04:05Z</time>
      </trkpt>
      <trkpt lat="43.21609" lon="0.12736">
        <ele>407</ele>
        <time>2018-09-30T10:04:06Z</time>
      </trkpt>
      <trkpt lat="43.2161" lon="0.12728">
        <ele>406</ele>
        <time>2018-09-30T10:04:07Z</time>
      </trkpt>
      <trkpt lat="43.21611" lon="0.1272">
        <ele>406</ele>
        <time>2018-09-30T10:04:08Z</time>
      </trkpt>
      <trkpt lat="43.21613" lon="0.12715">
        <ele>406</ele>
        <time>2018-09-30T10:04:09Z</time>
      </trkpt>
      <trkpt lat="43.21616" lon="0.12707">
        <ele>406</ele>
        <time>2018-09-30T10:04:10Z</time>
      </trkpt>
      <trkpt lat="43.21618" lon="0.12701">
        <ele>405</ele>
        <time>2018-09-30T10:04:11Z</time>
      </trkpt>
      <trkpt lat="43.21619" lon="0.12693">
        <ele>405</ele>
        <time>2018-09-30T10:04:12Z</time>
      </trkpt>
      <trkpt lat="43.2162" lon="0.12686">
        <ele>405</ele>
        <time>2018-09-30T10:04:13Z</time>
      </trkpt>
      <trkpt lat="43.21621" lon="0.12679">
        <ele>405</ele>
        <time>2018-09-30T10:04:14Z</time>
      </trkpt>
      <trkpt lat="43.21622" lon="0.12673">
        <ele>405</ele>
        <time>2018-09-30T10:04:15Z</time>
      </trkpt>
      <trkpt lat="43.21625" lon="0.12668">
        <ele>405</ele>
        <time>2018-09-30T10:04:16Z</time>
      </trkpt>
      <trkpt lat="43.21629" lon="0.12663">
        <ele>406</ele>
        <time>2018-09-30T10:04:17Z</time>
      </trkpt>
      <trkpt lat="43.21633" lon="0.12657">
        <ele>406</ele>
        <time>2018-09-30T10:04:18Z</time>
      </trkpt>
      <trkpt lat="43.21636" lon="0.12653">
        <ele>406</ele>
        <time>2018-09-30T10:04:19Z</time>
      </trkpt>
      <trkpt lat="43.2164" lon="0.12649">
        <ele>406</ele>
        <time>2018-09-30T10:04:20Z</time>
      </trkpt>
      <trkpt lat="43.21643" lon="0.12645">
        <ele>406</ele>
        <time>2018-09-30T10:04:21Z</time>
      </trkpt>
      <trkpt lat="43.21645" lon="0.12641">
        <ele>406</ele>
        <time>2018-09-30T10:04:22Z</time>
      </trkpt>
      <trkpt lat="43.21649" lon="0.12637">
        <ele>406</ele>
        <time>2018-09-30T10:04:23Z</time>
      </trkpt>
      <trkpt lat="43.21653" lon="0.12633">
        <ele>406</ele>
        <time>2018-09-30T10:04:24Z</time>
      </trkpt>
      <trkpt lat="43.21657" lon="0.1263">
        <ele>406</ele>
        <time>2018-09-30T10:04:25Z</time>
      </trkpt>
      <trkpt lat="43.21661" lon="0.12628">
        <ele>406</ele>
        <time>2018-09-30T10:04:26Z</time>
      </trkpt>
      <trkpt lat="43.21665" lon="0.12626">
        <ele>406</ele>
        <time>2018-09-30T10:04:27Z</time>
      </trkpt>
      <trkpt lat="43.21669" lon="0.12624">
        <ele>406</ele>
        <time>2018-09-30T10:04:28Z</time>
      </trkpt>
      <trkpt lat="43.21673" lon="0.12622">
        <ele>406</ele>
        <time>2018-09-30T10:04:29Z</time>
      </trkpt>
      <trkpt lat="43.21677" lon="0.12621">
        <ele>406</ele>
        <time>2018-09-30T10:04:30Z</time>
      </trkpt>
      <trkpt lat="43.21681" lon="0.1262">
        <ele>406</ele>
        <time>2018-09-30T10:04:31Z</time>
      </trkpt>
      <trkpt lat="43.21685" lon="0.12618">
        <ele>406</ele>
        <time>2018-09-30T10:04:32Z</time>
      </trkpt>
      <trkpt lat="43.21689" lon="0.12616">
        <ele>407</ele>
        <time>2018-09-30T10:04:33Z</time>
      </trkpt>
      <trkpt lat="43.21693" lon="0.12613">
        <ele>407</ele>
        <time>2018-09-30T10:04:34Z</time>
      </trkpt>
      <trkpt lat="43.21699" lon="0.1261">
        <ele>407</ele>
        <time>2018-09-30T10:04:35Z</time>
      </trkpt>
      <trkpt lat="43.21704" lon="0.12607">
        <ele>407</ele>
        <time>2018-09-30T10:04:36Z</time>
      </trkpt>
      <trkpt lat="43.21707" lon="0.12604">
        <ele>407</ele>
        <time>2018-09-30T10:04:37Z</time>
      </trkpt>
      <trkpt lat="43.21711" lon="0.12601">
        <ele>407</ele>
        <time>2018-09-30T10:04:38Z</time>
      </trkpt>
      <trkpt lat="43.21713" lon="0.12599">
        <ele>407</ele>
        <time>2018-09-30T10:04:39Z</time>
      </trkpt>
      <trkpt lat="43.21717" lon="0.12596">
        <ele>407</ele>
        <time>2018-09-30T10:04:40Z</time>
      </trkpt>
      <trkpt lat="43.21722" lon="0.12592">
        <ele>407</ele>
        <time>2018-09-30T10:04:41Z</time>
      </trkpt>
      <trkpt lat="43.21726" lon="0.12587">
        <ele>407</ele>
        <time>2018-09-30T10:04:42Z</time>
      </trkpt>
      <trkpt lat="43.2173" lon="0.12586">
        <ele>407</ele>
        <time>2018-09-30T10:04:43Z</time>
      </trkpt>
      <trkpt lat="43.21734" lon="0.12581">
        <ele>407</ele>
        <time>2018-09-30T10:04:44Z</time>
      </trkpt>
      <trkpt lat="43.21738" lon="0.12575">
        <ele>406</ele>
        <time>2018-09-30T10:04:45Z</time>
      </trkpt>
      <trkpt lat="43.21744" lon="0.12571">
        <ele>405</ele>
        <time>2018-09-30T10:04:46Z</time>
      </trkpt>
      <trkpt lat="43.21748" lon="0.12569">
        <ele>405</ele>
        <time>2018-09-30T10:04:47Z</time>
      </trkpt>
      <trkpt lat="43.21752" lon="0.12566">
        <ele>405</ele>
        <time>2018-09-30T10:04:48Z</time>
      </trkpt>
      <trkpt lat="43.21756" lon="0.12564">
        <ele>404</ele>
        <time>2018-09-30T10:04:49Z</time>
      </trkpt>
      <trkpt lat="43.21762" lon="0.12564">
        <ele>404</ele>
        <time>2018-09-30T10:04:50Z</time>
      </trkpt>
      <trkpt lat="43.21767" lon="0.12564">
        <ele>403</ele>
        <time>2018-09-30T10:04:51Z</time>
      </trkpt>
      <trkpt lat="43.2177" lon="0.12562">
        <ele>403</ele>
        <time>2018-09-30T10:04:52Z</time>
      </trkpt>
      <trkpt lat="43.21774" lon="0.12559">
        <ele>403</ele>
        <time>2018-09-30T10:04:53Z</time>
      </trkpt>
      <trkpt lat="43.21777" lon="0.12554">
        <ele>403</ele>
        <time>2018-09-30T10:04:54Z</time>
      </trkpt>
      <trkpt lat="43.21779" lon="0.12551">
        <ele>403</ele>
        <time>2018-09-30T10:04:55Z</time>
      </trkpt>
      <trkpt lat="43.2178" lon="0.12549">
        <ele>403</ele>
        <time>2018-09-30T10:04:56Z</time>
      </trkpt>
      <trkpt lat="43.2178" lon="0.12547">
        <ele>403</ele>
        <time>2018-09-30T10:04:57Z</time>
      </trkpt>
      <trkpt lat="43.21781" lon="0.12545">
        <ele>403</ele>
        <time>2018-09-30T10:04:58Z</time>
      </trkpt>
      <trkpt lat="43.21783" lon="0.12542">
        <ele>403</ele>
        <time>2018-09-30T10:04:59Z</time>
      </trkpt>
      <trkpt lat="43.21786" lon="0.12541">
        <ele>403</ele>
        <time>2018-09-30T10:05:00Z</time>
      </trkpt>
      <trkpt lat="43.21789" lon="0.1254">
        <ele>402</ele>
        <time>2018-09-30T10:05:01Z</time>
      </trkpt>
      <trkpt lat="43.21793" lon="0.1254">
        <ele>401</ele>
        <time>2018-09-30T10:05:02Z</time>
      </trkpt>
      <trkpt lat="43.21798" lon="0.1254">
        <ele>401</ele>
        <time>2018-09-30T10:05:03Z</time>
      </trkpt>
      <trkpt lat="43.21802" lon="0.12537">
        <ele>401</ele>
        <time>2018-09-30T10:05:04Z</time>
      </trkpt>
      <trkpt lat="43.21806" lon="0.12534">
        <ele>400</ele>
        <time>2018-09-30T10:05:05Z</time>
      </trkpt>
      <trkpt lat="43.2181" lon="0.12532">
        <ele>400</ele>
        <time>2018-09-30T10:05:06Z</time>
      </trkpt>
      <trkpt lat="43.21814" lon="0.12531">
        <ele>399</ele>
        <time>2018-09-30T10:05:07Z</time>
      </trkpt>
      <trkpt lat="43.21819" lon="0.12529">
        <ele>399</ele>
        <time>2018-09-30T10:05:08Z</time>
      </trkpt>
      <trkpt lat="43.21825" lon="0.12525">
        <ele>399</ele>
        <time>2018-09-30T10:05:09Z</time>
      </trkpt>
      <trkpt lat="43.21829" lon="0.12522">
        <ele>398</ele>
        <time>2018-09-30T10:05:10Z</time>
      </trkpt>
      <trkpt lat="43.21834" lon="0.12518">
        <ele>398</ele>
        <time>2018-09-30T10:05:11Z</time>
      </trkpt>
      <trkpt lat="43.21839" lon="0.12515">
        <ele>398</ele>
        <time>2018-09-30T10:05:12Z</time>
      </trkpt>
      <trkpt lat="43.21844" lon="0.12513">
        <ele>398</ele>
        <time>2018-09-30T10:05:13Z</time>
      </trkpt>
      <trkpt lat="43.21851" lon="0.1251">
        <ele>397</ele>
        <time>2018-09-30T10:05:14Z</time>
      </trkpt>
      <trkpt lat="43.21856" lon="0.12507">
        <ele>396</ele>
        <time>2018-09-30T10:05:15Z</time>
      </trkpt>
      <trkpt lat="43.2186" lon="0.12505">
        <ele>396</ele>
        <time>2018-09-30T10:05:16Z</time>
      </trkpt>
      <trkpt lat="43.21863" lon="0.12501">
        <ele>396</ele>
        <time>2018-09-30T10:05:17Z</time>
      </trkpt>
      <trkpt lat="43.21866" lon="0.12498">
        <ele>396</ele>
        <time>2018-09-30T10:05:18Z</time>
      </trkpt>
      <trkpt lat="43.21869" lon="0.12493">
        <ele>396</ele>
        <time>2018-09-30T10:05:19Z</time>
      </trkpt>
      <trkpt lat="43.21874" lon="0.1249">
        <ele>396</ele>
        <time>2018-09-30T10:05:20Z</time>
      </trkpt>
      <trkpt lat="43.21888" lon="0.12484">
        <ele>396</ele>
        <time>2018-09-30T10:05:21Z</time>
      </trkpt>
      <trkpt lat="43.21897" lon="0.12485">
        <ele>396</ele>
        <time>2018-09-30T10:05:22Z</time>
      </trkpt>
      <trkpt lat="43.21904" lon="0.12486">
        <ele>396</ele>
        <time>2018-09-30T10:05:23Z</time>
      </trkpt>
      <trkpt lat="43.2191" lon="0.12487">
        <ele>395</ele>
        <time>2018-09-30T10:05:24Z</time>
      </trkpt>
      <trkpt lat="43.21915" lon="0.12487">
        <ele>395</ele>
        <time>2018-09-30T10:05:25Z</time>
      </trkpt>
      <trkpt lat="43.21922" lon="0.12484">
        <ele>395</ele>
        <time>2018-09-30T10:05:26Z</time>
      </trkpt>
      <trkpt lat="43.21926" lon="0.12479">
        <ele>395</ele>
        <time>2018-09-30T10:05:27Z</time>
      </trkpt>
      <trkpt lat="43.2193" lon="0.12474">
        <ele>395</ele>
        <time>2018-09-30T10:05:28Z</time>
      </trkpt>
      <trkpt lat="43.21932" lon="0.12469">
        <ele>395</ele>
        <time>2018-09-30T10:05:29Z</time>
      </trkpt>
      <trkpt lat="43.21934" lon="0.12465">
        <ele>395</ele>
        <time>2018-09-30T10:05:30Z</time>
      </trkpt>
      <trkpt lat="43.21938" lon="0.12461">
        <ele>395</ele>
        <time>2018-09-30T10:05:31Z</time>
      </trkpt>
      <trkpt lat="43.21941" lon="0.12457">
        <ele>395</ele>
        <time>2018-09-30T10:05:32Z</time>
      </trkpt>
      <trkpt lat="43.21945" lon="0.12453">
        <ele>395</ele>
        <time>2018-09-30T10:05:33Z</time>
      </trkpt>
      <trkpt lat="43.21948" lon="0.12451">
        <ele>395</ele>
        <time>2018-09-30T10:05:34Z</time>
      </trkpt>
      <trkpt lat="43.21953" lon="0.1245">
        <ele>395</ele>
        <time>2018-09-30T10:05:35Z</time>
      </trkpt>
      <trkpt lat="43.21957" lon="0.1245">
        <ele>395</ele>
        <time>2018-09-30T10:05:36Z</time>
      </trkpt>
      <trkpt lat="43.21965" lon="0.12445">
        <ele>396</ele>
        <time>2018-09-30T10:05:37Z</time>
      </trkpt>
      <trkpt lat="43.21969" lon="0.12441">
        <ele>396</ele>
        <time>2018-09-30T10:05:38Z</time>
      </trkpt>
      <trkpt lat="43.21973" lon="0.1244">
        <ele>397</ele>
        <time>2018-09-30T10:05:39Z</time>
      </trkpt>
      <trkpt lat="43.21978" lon="0.12442">
        <ele>397</ele>
        <time>2018-09-30T10:05:40Z</time>
      </trkpt>
      <trkpt lat="43.2198" lon="0.12446">
        <ele>397</ele>
        <time>2018-09-30T10:05:41Z</time>
      </trkpt>
      <trkpt lat="43.21982" lon="0.1245">
        <ele>397</ele>
        <time>2018-09-30T10:05:42Z</time>
      </trkpt>
      <trkpt lat="43.21985" lon="0.12452">
        <ele>397</ele>
        <time>2018-09-30T10:05:43Z</time>
      </trkpt>
      <trkpt lat="43.21988" lon="0.12453">
        <ele>397</ele>
        <time>2018-09-30T10:05:44Z</time>
      </trkpt>
      <trkpt lat="43.21992" lon="0.12454">
        <ele>397</ele>
        <time>2018-09-30T10:05:45Z</time>
      </trkpt>
      <trkpt lat="43.21998" lon="0.12453">
        <ele>397</ele>
        <time>2018-09-30T10:05:46Z</time>
      </trkpt>
      <trkpt lat="43.22003" lon="0.12453">
        <ele>397</ele>
        <time>2018-09-30T10:05:47Z</time>
      </trkpt>
      <trkpt lat="43.22008" lon="0.12456">
        <ele>396</ele>
        <time>2018-09-30T10:05:48Z</time>
      </trkpt>
      <trkpt lat="43.22012" lon="0.1246">
        <ele>396</ele>
        <time>2018-09-30T10:05:49Z</time>
      </trkpt>
      <trkpt lat="43.22015" lon="0.12464">
        <ele>396</ele>
        <time>2018-09-30T10:05:50Z</time>
      </trkpt>
      <trkpt lat="43.22018" lon="0.1247">
        <ele>396</ele>
        <time>2018-09-30T10:05:51Z</time>
      </trkpt>
      <trkpt lat="43.22022" lon="0.12474">
        <ele>395</ele>
        <time>2018-09-30T10:05:52Z</time>
      </trkpt>
      <trkpt lat="43.22025" lon="0.12479">
        <ele>395</ele>
        <time>2018-09-30T10:05:53Z</time>
      </trkpt>
      <trkpt lat="43.22027" lon="0.12483">
        <ele>395</ele>
        <time>2018-09-30T10:05:54Z</time>
      </trkpt>
      <trkpt lat="43.2203" lon="0.12484">
        <ele>395</ele>
        <time>2018-09-30T10:05:55Z</time>
      </trkpt>
      <trkpt lat="43.22032" lon="0.12484">
        <ele>395</ele>
        <time>2018-09-30T10:05:56Z</time>
      </trkpt>
      <trkpt lat="43.22037" lon="0.12483">
        <ele>395</ele>
        <time>2018-09-30T10:05:57Z</time>
      </trkpt>
      <trkpt lat="43.22041" lon="0.12482">
        <ele>395</ele>
        <time>2018-09-30T10:05:58Z</time>
      </trkpt>
      <trkpt lat="43.22046" lon="0.12482">
        <ele>394</ele>
        <time>2018-09-30T10:05:59Z</time>
      </trkpt>
      <trkpt lat="43.22049" lon="0.12481">
        <ele>394</ele>
        <time>2018-09-30T10:06:00Z</time>
      </trkpt>
      <trkpt lat="43.22051" lon="0.1248">
        <ele>394</ele>
        <time>2018-09-30T10:06:01Z</time>
      </trkpt>
      <trkpt lat="43.22055" lon="0.12478">
        <ele>394</ele>
        <time>2018-09-30T10:06:02Z</time>
      </trkpt>
      <trkpt lat="43.22057" lon="0.12476">
        <ele>394</ele>
        <time>2018-09-30T10:06:03Z</time>
      </trkpt>
      <trkpt lat="43.22057" lon="0.12473">
        <ele>394</ele>
        <time>2018-09-30T10:06:04Z</time>
      </trkpt>
      <trkpt lat="43.22058" lon="0.12469">
        <ele>394</ele>
        <time>2018-09-30T10:06:05Z</time>
      </trkpt>
      <trkpt lat="43.2206" lon="0.12465">
        <ele>394</ele>
        <time>2018-09-30T10:06:06Z</time>
      </trkpt>
      <trkpt lat="43.22061" lon="0.12462">
        <ele>394</ele>
        <time>2018-09-30T10:06:07Z</time>
      </trkpt>
      <trkpt lat="43.22062" lon="0.12459">
        <ele>394</ele>
        <time>2018-09-30T10:06:08Z</time>
      </trkpt>
      <trkpt lat="43.22064" lon="0.12454">
        <ele>394</ele>
        <time>2018-09-30T10:06:09Z</time>
      </trkpt>
      <trkpt lat="43.22066" lon="0.12449">
        <ele>394</ele>
        <time>2018-09-30T10:06:10Z</time>
      </trkpt>
      <trkpt lat="43.22067" lon="0.1244">
        <ele>394</ele>
        <time>2018-09-30T10:06:11Z</time>
      </trkpt>
      <trkpt lat="43.22068" lon="0.1243">
        <ele>394</ele>
        <time>2018-09-30T10:06:12Z</time>
      </trkpt>
      <trkpt lat="43.22071" lon="0.1242">
        <ele>393</ele>
        <time>2018-09-30T10:06:13Z</time>
      </trkpt>
      <trkpt lat="43.22074" lon="0.12413">
        <ele>392</ele>
        <time>2018-09-30T10:06:14Z</time>
      </trkpt>
      <trkpt lat="43.22078" lon="0.1241">
        <ele>392</ele>
        <time>2018-09-30T10:06:15Z</time>
      </trkpt>
      <trkpt lat="43.22082" lon="0.12404">
        <ele>392</ele>
        <time>2018-09-30T10:06:16Z</time>
      </trkpt>
      <trkpt lat="43.22086" lon="0.12399">
        <ele>392</ele>
        <time>2018-09-30T10:06:17Z</time>
      </trkpt>
      <trkpt lat="43.22089" lon="0.12393">
        <ele>392</ele>
        <time>2018-09-30T10:06:18Z</time>
      </trkpt>
      <trkpt lat="43.22093" lon="0.12388">
        <ele>392</ele>
        <time>2018-09-30T10:06:19Z</time>
      </trkpt>
      <trkpt lat="43.22097" lon="0.12384">
        <ele>391</ele>
        <time>2018-09-30T10:06:20Z</time>
      </trkpt>
      <trkpt lat="43.22099" lon="0.1238">
        <ele>391</ele>
        <time>2018-09-30T10:06:21Z</time>
      </trkpt>
      <trkpt lat="43.22104" lon="0.12374">
        <ele>391</ele>
        <time>2018-09-30T10:06:22Z</time>
      </trkpt>
      <trkpt lat="43.22106" lon="0.1237">
        <ele>391</ele>
        <time>2018-09-30T10:06:23Z</time>
      </trkpt>
      <trkpt lat="43.22108" lon="0.12366">
        <ele>391</ele>
        <time>2018-09-30T10:06:24Z</time>
      </trkpt>
      <trkpt lat="43.2211" lon="0.12361">
        <ele>391</ele>
        <time>2018-09-30T10:06:25Z</time>
      </trkpt>
      <trkpt lat="43.22111" lon="0.12358">
        <ele>391</ele>
        <time>2018-09-30T10:06:26Z</time>
      </trkpt>
      <trkpt lat="43.22114" lon="0.12353">
        <ele>391</ele>
        <time>2018-09-30T10:06:27Z</time>
      </trkpt>
      <trkpt lat="43.22117" lon="0.12349">
        <ele>391</ele>
        <time>2018-09-30T10:06:28Z</time>
      </trkpt>
      <trkpt lat="43.22118" lon="0.12345">
        <ele>391</ele>
        <time>2018-09-30T10:06:29Z</time>
      </trkpt>
      <trkpt lat="43.2212" lon="0.12341">
        <ele>390</ele>
        <time>2018-09-30T10:06:30Z</time>
      </trkpt>
      <trkpt lat="43.2212" lon="0.12338">
        <ele>390</ele>
        <time>2018-09-30T10:06:31Z</time>
      </trkpt>
      <trkpt lat="43.22122" lon="0.12336">
        <ele>390</ele>
        <time>2018-09-30T10:06:32Z</time>
      </trkpt>
      <trkpt lat="43.22124" lon="0.12331">
        <ele>390</ele>
        <time>2018-09-30T10:06:33Z</time>
      </trkpt>
      <trkpt lat="43.22127" lon="0.12328">
        <ele>390</ele>
        <time>2018-09-30T10:06:34Z</time>
      </trkpt>
      <trkpt lat="43.22128" lon="0.12325">
        <ele>390</ele>
        <time>2018-09-30T10:06:35Z</time>
      </trkpt>
      <trkpt lat="43.22129" lon="0.12323">
        <ele>390</ele>
        <time>2018-09-30T10:06:36Z</time>
      </trkpt>
      <trkpt lat="43.22131" lon="0.1232">
        <ele>390</ele>
        <time>2018-09-30T10:06:37Z</time>
      </trkpt>
      <trkpt lat="43.22132" lon="0.12315">
        <ele>390</ele>
        <time>2018-09-30T10:06:38Z</time>
      </trkpt>
      <trkpt lat="43.22133" lon="0.12311">
        <ele>389</ele>
        <time>2018-09-30T10:06:39Z</time>
      </trkpt>
      <trkpt lat="43.22136" lon="0.12309">
        <ele>389</ele>
        <time>2018-09-30T10:06:40Z</time>
      </trkpt>
      <trkpt lat="43.22141" lon="0.12308">
        <ele>389</ele>
        <time>2018-09-30T10:06:41Z</time>
      </trkpt>
      <trkpt lat="43.22143" lon="0.12306">
        <ele>389</ele>
        <time>2018-09-30T10:06:42Z</time>
      </trkpt>
      <trkpt lat="43.22145" lon="0.12305">
        <ele>389</ele>
        <time>2018-09-30T10:06:43Z</time>
      </trkpt>
      <trkpt lat="43.22151" lon="0.12304">
        <ele>387</ele>
        <time>2018-09-30T10:06:44Z</time>
      </trkpt>
      <trkpt lat="43.22159" lon="0.12302">
        <ele>387</ele>
        <time>2018-09-30T10:06:45Z</time>
      </trkpt>
      <trkpt lat="43.22165" lon="0.123">
        <ele>387</ele>
        <time>2018-09-30T10:06:46Z</time>
      </trkpt>
      <trkpt lat="43.2217" lon="0.12299">
        <ele>386</ele>
        <time>2018-09-30T10:06:47Z</time>
      </trkpt>
      <trkpt lat="43.22174" lon="0.12298">
        <ele>386</ele>
        <time>2018-09-30T10:06:48Z</time>
      </trkpt>
      <trkpt lat="43.22177" lon="0.12296">
        <ele>386</ele>
        <time>2018-09-30T10:06:49Z</time>
      </trkpt>
      <trkpt lat="43.2218" lon="0.12294">
        <ele>386</ele>
        <time>2018-09-30T10:06:50Z</time>
      </trkpt>
      <trkpt lat="43.22183" lon="0.12291">
        <ele>386</ele>
        <time>2018-09-30T10:06:51Z</time>
      </trkpt>
      <trkpt lat="43.22185" lon="0.12287">
        <ele>385</ele>
        <time>2018-09-30T10:06:52Z</time>
      </trkpt>
      <trkpt lat="43.22186" lon="0.12284">
        <ele>385</ele>
        <time>2018-09-30T10:06:53Z</time>
      </trkpt>
      <trkpt lat="43.22185" lon="0.12282">
        <ele>385</ele>
        <time>2018-09-30T10:06:54Z</time>
      </trkpt>
      <trkpt lat="43.22185" lon="0.1228">
        <ele>385</ele>
        <time>2018-09-30T10:06:55Z</time>
      </trkpt>
      <trkpt lat="43.22184" lon="0.12279">
        <ele>385</ele>
        <time>2018-09-30T10:06:56Z</time>
      </trkpt>
      <trkpt lat="43.22182" lon="0.12277">
        <ele>382</ele>
        <time>2018-09-30T10:06:56Z</time>
      </trkpt>
      <trkpt lat="43.22179" lon="0.12274">
        <ele>382</ele>
        <time>2018-09-30T10:06:57Z</time>
      </trkpt>
      <trkpt lat="43.22176" lon="0.12271">
        <ele>382</ele>
        <time>2018-09-30T10:06:58Z</time>
      </trkpt>
      <trkpt lat="43.22175" lon="0.12266">
        <ele>381</ele>
        <time>2018-09-30T10:06:59Z</time>
      </trkpt>
      <trkpt lat="43.22173" lon="0.12262">
        <ele>381</ele>
        <time>2018-09-30T10:07:00Z</time>
      </trkpt>
      <trkpt lat="43.2217" lon="0.12261">
        <ele>381</ele>
        <time>2018-09-30T10:07:01Z</time>
      </trkpt>
      <trkpt lat="43.22167" lon="0.12261">
        <ele>381</ele>
        <time>2018-09-30T10:07:02Z</time>
      </trkpt>
      <trkpt lat="43.22163" lon="0.12259">
        <ele>380</ele>
        <time>2018-09-30T10:07:03Z</time>
      </trkpt>
      <trkpt lat="43.2216" lon="0.12257">
        <ele>380</ele>
        <time>2018-09-30T10:07:04Z</time>
      </trkpt>
      <trkpt lat="43.22157" lon="0.12256">
        <ele>380</ele>
        <time>2018-09-30T10:07:05Z</time>
      </trkpt>
      <trkpt lat="43.22154" lon="0.12254">
        <ele>380</ele>
        <time>2018-09-30T10:07:06Z</time>
      </trkpt>
      <trkpt lat="43.22152" lon="0.1225">
        <ele>379</ele>
        <time>2018-09-30T10:07:07Z</time>
      </trkpt>
      <trkpt lat="43.2215" lon="0.12246">
        <ele>379</ele>
        <time>2018-09-30T10:07:08Z</time>
      </trkpt>
      <trkpt lat="43.22147" lon="0.12241">
        <ele>379</ele>
        <time>2018-09-30T10:07:09Z</time>
      </trkpt>
      <trkpt lat="43.22143" lon="0.12235">
        <ele>378</ele>
        <time>2018-09-30T10:07:10Z</time>
      </trkpt>
      <trkpt lat="43.22139" lon="0.12226">
        <ele>377</ele>
        <time>2018-09-30T10:07:11Z</time>
      </trkpt>
      <trkpt lat="43.22137" lon="0.1222">
        <ele>372</ele>
        <time>2018-09-30T10:07:12Z</time>
      </trkpt>
      <trkpt lat="43.22134" lon="0.12216">
        <ele>370</ele>
        <time>2018-09-30T10:07:13Z</time>
      </trkpt>
      <trkpt lat="43.22131" lon="0.12208">
        <ele>369</ele>
        <time>2018-09-30T10:07:14Z</time>
      </trkpt>
      <trkpt lat="43.22129" lon="0.12202">
        <ele>369</ele>
        <time>2018-09-30T10:07:15Z</time>
      </trkpt>
      <trkpt lat="43.22128" lon="0.12195">
        <ele>368</ele>
        <time>2018-09-30T10:07:16Z</time>
      </trkpt>
      <trkpt lat="43.22127" lon="0.12188">
        <ele>368</ele>
        <time>2018-09-30T10:07:17Z</time>
      </trkpt>
      <trkpt lat="43.22127" lon="0.12184">
        <ele>367</ele>
        <time>2018-09-30T10:07:18Z</time>
      </trkpt>
      <trkpt lat="43.22128" lon="0.12178">
        <ele>367</ele>
        <time>2018-09-30T10:07:19Z</time>
      </trkpt>
      <trkpt lat="43.22131" lon="0.12172">
        <ele>367</ele>
        <time>2018-09-30T10:07:20Z</time>
      </trkpt>
      <trkpt lat="43.22135" lon="0.12167">
        <ele>366</ele>
        <time>2018-09-30T10:07:21Z</time>
      </trkpt>
      <trkpt lat="43.22139" lon="0.12163">
        <ele>365</ele>
        <time>2018-09-30T10:07:22Z</time>
      </trkpt>
      <trkpt lat="43.22143" lon="0.1216">
        <ele>365</ele>
        <time>2018-09-30T10:07:23Z</time>
      </trkpt>
      <trkpt lat="43.22146" lon="0.12158">
        <ele>365</ele>
        <time>2018-09-30T10:07:24Z</time>
      </trkpt>
      <trkpt lat="43.22147" lon="0.12156">
        <ele>364</ele>
        <time>2018-09-30T10:07:25Z</time>
      </trkpt>
      <trkpt lat="43.22149" lon="0.12152">
        <ele>364</ele>
        <time>2018-09-30T10:07:26Z</time>
      </trkpt>
      <trkpt lat="43.22149" lon="0.12148">
        <ele>364</ele>
        <time>2018-09-30T10:07:27Z</time>
      </trkpt>
      <trkpt lat="43.2215" lon="0.12142">
        <ele>361</ele>
        <time>2018-09-30T10:07:28Z</time>
      </trkpt>
      <trkpt lat="43.22148" lon="0.12137">
        <ele>360</ele>
        <time>2018-09-30T10:07:29Z</time>
      </trkpt>
      <trkpt lat="43.22147" lon="0.12133">
        <ele>359</ele>
        <time>2018-09-30T10:07:30Z</time>
      </trkpt>
      <trkpt lat="43.22145" lon="0.12131">
        <ele>359</ele>
        <time>2018-09-30T10:07:31Z</time>
      </trkpt>
      <trkpt lat="43.22143" lon="0.1213">
        <ele>358</ele>
        <time>2018-09-30T10:07:32Z</time>
      </trkpt>
      <trkpt lat="43.22139" lon="0.12129">
        <ele>358</ele>
        <time>2018-09-30T10:07:33Z</time>
      </trkpt>
      <trkpt lat="43.22132" lon="0.12129">
        <ele>358</ele>
        <time>2018-09-30T10:07:34Z</time>
      </trkpt>
      <trkpt lat="43.22126" lon="0.1213">
        <ele>357</ele>
        <time>2018-09-30T10:07:35Z</time>
      </trkpt>
      <trkpt lat="43.2212" lon="0.12132">
        <ele>357</ele>
        <time>2018-09-30T10:07:36Z</time>
      </trkpt>
      <trkpt lat="43.22115" lon="0.12133">
        <ele>357</ele>
        <time>2018-09-30T10:07:37Z</time>
      </trkpt>
      <trkpt lat="43.22109" lon="0.12135">
        <ele>357</ele>
        <time>2018-09-30T10:07:38Z</time>
      </trkpt>
      <trkpt lat="43.22103" lon="0.12136">
        <ele>356</ele>
        <time>2018-09-30T10:07:39Z</time>
      </trkpt>
      <trkpt lat="43.22098" lon="0.12136">
        <ele>356</ele>
        <time>2018-09-30T10:07:40Z</time>
      </trkpt>
      <trkpt lat="43.22095" lon="0.12135">
        <ele>356</ele>
        <time>2018-09-30T10:07:41Z</time>
      </trkpt>
      <trkpt lat="43.22092" lon="0.12134">
        <ele>354</ele>
        <time>2018-09-30T10:07:42Z</time>
      </trkpt>
      <trkpt lat="43.22089" lon="0.12133">
        <ele>354</ele>
        <time>2018-09-30T10:07:43Z</time>
      </trkpt>
      <trkpt lat="43.22087" lon="0.12132">
        <ele>353</ele>
        <time>2018-09-30T10:07:44Z</time>
      </trkpt>
      <trkpt lat="43.22083" lon="0.12129">
        <ele>353</ele>
        <time>2018-09-30T10:07:45Z</time>
      </trkpt>
      <trkpt lat="43.2208" lon="0.12126">
        <ele>353</ele>
        <time>2018-09-30T10:07:46Z</time>
      </trkpt>
      <trkpt lat="43.22078" lon="0.12123">
        <ele>352</ele>
        <time>2018-09-30T10:07:47Z</time>
      </trkpt>
      <trkpt lat="43.22077" lon="0.12119">
        <ele>352</ele>
        <time>2018-09-30T10:07:48Z</time>
      </trkpt>
      <trkpt lat="43.22075" lon="0.12115">
        <ele>351</ele>
        <time>2018-09-30T10:07:49Z</time>
      </trkpt>
      <trkpt lat="43.22069" lon="0.12106">
        <ele>350</ele>
        <time>2018-09-30T10:07:50Z</time>
      </trkpt>
      <trkpt lat="43.22065" lon="0.12097">
        <ele>349</ele>
        <time>2018-09-30T10:07:51Z</time>
      </trkpt>
      <trkpt lat="43.2206" lon="0.1209">
        <ele>348</ele>
        <time>2018-09-30T10:07:52Z</time>
      </trkpt>
      <trkpt lat="43.22056" lon="0.12086">
        <ele>347</ele>
        <time>2018-09-30T10:07:53Z</time>
      </trkpt>
      <trkpt lat="43.22052" lon="0.12082">
        <ele>347</ele>
        <time>2018-09-30T10:07:54Z</time>
      </trkpt>
      <trkpt lat="43.22047" lon="0.12079">
        <ele>340</ele>
        <time>2018-09-30T10:07:55Z</time>
      </trkpt>
      <trkpt lat="43.22043" lon="0.12076">
        <ele>338</ele>
        <time>2018-09-30T10:07:56Z</time>
      </trkpt>
      <trkpt lat="43.22038" lon="0.12073">
        <ele>337</ele>
        <time>2018-09-30T10:07:57Z</time>
      </trkpt>
      <trkpt lat="43.22034" lon="0.1207">
        <ele>336</ele>
        <time>2018-09-30T10:07:58Z</time>
      </trkpt>
      <trkpt lat="43.2203" lon="0.12068">
        <ele>336</ele>
        <time>2018-09-30T10:07:59Z</time>
      </trkpt>
      <trkpt lat="43.22026" lon="0.12065">
        <ele>335</ele>
        <time>2018-09-30T10:08:00Z</time>
      </trkpt>
      <trkpt lat="43.22023" lon="0.12063">
        <ele>335</ele>
        <time>2018-09-30T10:08:01Z</time>
      </trkpt>
      <trkpt lat="43.22019" lon="0.1206">
        <ele>335</ele>
        <time>2018-09-30T10:08:02Z</time>
      </trkpt>
      <trkpt lat="43.22015" lon="0.12058">
        <ele>335</ele>
        <time>2018-09-30T10:08:03Z</time>
      </trkpt>
      <trkpt lat="43.22011" lon="0.12057">
        <ele>334</ele>
        <time>2018-09-30T10:08:04Z</time>
      </trkpt>
      <trkpt lat="43.22005" lon="0.12056">
        <ele>333</ele>
        <time>2018-09-30T10:08:05Z</time>
      </trkpt>
      <trkpt lat="43.21999" lon="0.12054">
        <ele>333</ele>
        <time>2018-09-30T10:08:06Z</time>
      </trkpt>
      <trkpt lat="43.2199" lon="0.12052">
        <ele>328</ele>
        <time>2018-09-30T10:08:07Z</time>
      </trkpt>
      <trkpt lat="43.21985" lon="0.12052">
        <ele>327</ele>
        <time>2018-09-30T10:08:08Z</time>
      </trkpt>
      <trkpt lat="43.21979" lon="0.12053">
        <ele>326</ele>
        <time>2018-09-30T10:08:09Z</time>
      </trkpt>
      <trkpt lat="43.21974" lon="0.12054">
        <ele>326</ele>
        <time>2018-09-30T10:08:10Z</time>
      </trkpt>
      <trkpt lat="43.21969" lon="0.12055">
        <ele>326</ele>
        <time>2018-09-30T10:08:11Z</time>
      </trkpt>
      <trkpt lat="43.21965" lon="0.12055">
        <ele>326</ele>
        <time>2018-09-30T10:08:12Z</time>
      </trkpt>
      <trkpt lat="43.21959" lon="0.12054">
        <ele>326</ele>
        <time>2018-09-30T10:08:13Z</time>
      </trkpt>
      <trkpt lat="43.21955" lon="0.12054">
        <ele>326</ele>
        <time>2018-09-30T10:08:14Z</time>
      </trkpt>
      <trkpt lat="43.21949" lon="0.12053">
        <ele>326</ele>
        <time>2018-09-30T10:08:15Z</time>
      </trkpt>
      <trkpt lat="43.21944" lon="0.12053">
        <ele>326</ele>
        <time>2018-09-30T10:08:16Z</time>
      </trkpt>
      <trkpt lat="43.2194" lon="0.12052">
        <ele>326</ele>
        <time>2018-09-30T10:08:17Z</time>
      </trkpt>
      <trkpt lat="43.21937" lon="0.12052">
        <ele>326</ele>
        <time>2018-09-30T10:08:18Z</time>
      </trkpt>
      <trkpt lat="43.21934" lon="0.12053">
        <ele>326</ele>
        <time>2018-09-30T10:08:19Z</time>
      </trkpt>
      <trkpt lat="43.21931" lon="0.12054">
        <ele>326</ele>
        <time>2018-09-30T10:08:20Z</time>
      </trkpt>
      <trkpt lat="43.21928" lon="0.12054">
        <ele>327</ele>
        <time>2018-09-30T10:08:21Z</time>
      </trkpt>
      <trkpt lat="43.21926" lon="0.12055">
        <ele>327</ele>
        <time>2018-09-30T10:08:22Z</time>
      </trkpt>
      <trkpt lat="43.21923" lon="0.12055">
        <ele>327</ele>
        <time>2018-09-30T10:08:23Z</time>
      </trkpt>
      <trkpt lat="43.2192" lon="0.12055">
        <ele>327</ele>
        <time>2018-09-30T10:08:24Z</time>
      </trkpt>
      <trkpt lat="43.21917" lon="0.12055">
        <ele>328</ele>
        <time>2018-09-30T10:08:25Z</time>
      </trkpt>
      <trkpt lat="43.21914" lon="0.12055">
        <ele>328</ele>
        <time>2018-09-30T10:08:26Z</time>
      </trkpt>
      <trkpt lat="43.21911" lon="0.12056">
        <ele>328</ele>
        <time>2018-09-30T10:08:27Z</time>
      </trkpt>
      <trkpt lat="43.21909" lon="0.12055">
        <ele>328</ele>
        <time>2018-09-30T10:08:28Z</time>
      </trkpt>
      <trkpt lat="43.21906" lon="0.12054">
        <ele>328</ele>
        <time>2018-09-30T10:08:29Z</time>
      </trkpt>
      <trkpt lat="43.21904" lon="0.12051">
        <ele>328</ele>
        <time>2018-09-30T10:08:30Z</time>
      </trkpt>
      <trkpt lat="43.21905" lon="0.12048">
        <ele>328</ele>
        <time>2018-09-30T10:08:31Z</time>
      </trkpt>
      <trkpt lat="43.21907" lon="0.12045">
        <ele>328</ele>
        <time>2018-09-30T10:08:32Z</time>
      </trkpt>
      <trkpt lat="43.21908" lon="0.12042">
        <ele>328</ele>
        <time>2018-09-30T10:08:33Z</time>
      </trkpt>
      <trkpt lat="43.21909" lon="0.12038">
        <ele>328</ele>
        <time>2018-09-30T10:08:34Z</time>
      </trkpt>
      <trkpt lat="43.2191" lon="0.12033">
        <ele>328</ele>
        <time>2018-09-30T10:08:35Z</time>
      </trkpt>
      <trkpt lat="43.2191" lon="0.12028">
        <ele>329</ele>
        <time>2018-09-30T10:08:36Z</time>
      </trkpt>
      <trkpt lat="43.2191" lon="0.12021">
        <ele>329</ele>
        <time>2018-09-30T10:08:37Z</time>
      </trkpt>
      <trkpt lat="43.21911" lon="0.12015">
        <ele>329</ele>
        <time>2018-09-30T10:08:38Z</time>
      </trkpt>
      <trkpt lat="43.21911" lon="0.12008">
        <ele>329</ele>
        <time>2018-09-30T10:08:39Z</time>
      </trkpt>
      <trkpt lat="43.21912" lon="0.12001">
        <ele>329</ele>
        <time>2018-09-30T10:08:40Z</time>
      </trkpt>
      <trkpt lat="43.21913" lon="0.11995">
        <ele>329</ele>
        <time>2018-09-30T10:08:41Z</time>
      </trkpt>
      <trkpt lat="43.21913" lon="0.11987">
        <ele>329</ele>
        <time>2018-09-30T10:08:42Z</time>
      </trkpt>
      <trkpt lat="43.21914" lon="0.1198">
        <ele>329</ele>
        <time>2018-09-30T10:08:43Z</time>
      </trkpt>
      <trkpt lat="43.21914" lon="0.11974">
        <ele>330</ele>
        <time>2018-09-30T10:08:44Z</time>
      </trkpt>
      <trkpt lat="43.21914" lon="0.11966">
        <ele>330</ele>
        <time>2018-09-30T10:08:45Z</time>
      </trkpt>
      <trkpt lat="43.21915" lon="0.1196">
        <ele>330</ele>
        <time>2018-09-30T10:08:46Z</time>
      </trkpt>
      <trkpt lat="43.21916" lon="0.11955">
        <ele>330</ele>
        <time>2018-09-30T10:08:47Z</time>
      </trkpt>
      <trkpt lat="43.21917" lon="0.11953">
        <ele>330</ele>
        <time>2018-09-30T10:08:48Z</time>
      </trkpt>
      <trkpt lat="43.21921" lon="0.11951">
        <ele>330</ele>
        <time>2018-09-30T10:08:49Z</time>
      </trkpt>
      <trkpt lat="43.21924" lon="0.11949">
        <ele>330</ele>
        <time>2018-09-30T10:08:50Z</time>
      </trkpt>
      <trkpt lat="43.21929" lon="0.11947">
        <ele>330</ele>
        <time>2018-09-30T10:08:51Z</time>
      </trkpt>
      <trkpt lat="43.21934" lon="0.11944">
        <ele>330</ele>
        <time>2018-09-30T10:08:52Z</time>
      </trkpt>
      <trkpt lat="43.21939" lon="0.11941">
        <ele>330</ele>
        <time>2018-09-30T10:08:53Z</time>
      </trkpt>
      <trkpt lat="43.21943" lon="0.11938">
        <ele>330</ele>
        <time>2018-09-30T10:08:54Z</time>
      </trkpt>
      <trkpt lat="43.21948" lon="0.11934">
        <ele>330</ele>
        <time>2018-09-30T10:08:55Z</time>
      </trkpt>
      <trkpt lat="43.21952" lon="0.1193">
        <ele>330</ele>
        <time>2018-09-30T10:08:56Z</time>
      </trkpt>
      <trkpt lat="43.21957" lon="0.11926">
        <ele>330</ele>
        <time>2018-09-30T10:08:57Z</time>
      </trkpt>
      <trkpt lat="43.21961" lon="0.11922">
        <ele>331</ele>
        <time>2018-09-30T10:08:58Z</time>
      </trkpt>
      <trkpt lat="43.21964" lon="0.11919">
        <ele>331</ele>
        <time>2018-09-30T10:08:59Z</time>
      </trkpt>
      <trkpt lat="43.21968" lon="0.11915">
        <ele>331</ele>
        <time>2018-09-30T10:09:00Z</time>
      </trkpt>
      <trkpt lat="43.21971" lon="0.11911">
        <ele>331</ele>
        <time>2018-09-30T10:09:01Z</time>
      </trkpt>
      <trkpt lat="43.21974" lon="0.11908">
        <ele>331</ele>
        <time>2018-09-30T10:09:02Z</time>
      </trkpt>
      <trkpt lat="43.21978" lon="0.11905">
        <ele>331</ele>
        <time>2018-09-30T10:09:03Z</time>
      </trkpt>
      <trkpt lat="43.21981" lon="0.11901">
        <ele>331</ele>
        <time>2018-09-30T10:09:04Z</time>
      </trkpt>
      <trkpt lat="43.21983" lon="0.11897">
        <ele>331</ele>
        <time>2018-09-30T10:09:05Z</time>
      </trkpt>
      <trkpt lat="43.21984" lon="0.11892">
        <ele>331</ele>
        <time>2018-09-30T10:09:06Z</time>
      </trkpt>
      <trkpt lat="43.21985" lon="0.11889">
        <ele>331</ele>
        <time>2018-09-30T10:09:07Z</time>
      </trkpt>
      <trkpt lat="43.21985" lon="0.11885">
        <ele>331</ele>
        <time>2018-09-30T10:09:08Z</time>
      </trkpt>
      <trkpt lat="43.21986" lon="0.11881">
        <ele>331</ele>
        <time>2018-09-30T10:09:09Z</time>
      </trkpt>
      <trkpt lat="43.21986" lon="0.11877">
        <ele>331</ele>
        <time>2018-09-30T10:09:10Z</time>
      </trkpt>
      <trkpt lat="43.21988" lon="0.11873">
        <ele>331</ele>
        <time>2018-09-30T10:09:11Z</time>
      </trkpt>
      <trkpt lat="43.21989" lon="0.11869">
        <ele>331</ele>
        <time>2018-09-30T10:09:12Z</time>
      </trkpt>
      <trkpt lat="43.2199" lon="0.11865">
        <ele>331</ele>
        <time>2018-09-30T10:09:13Z</time>
      </trkpt>
      <trkpt lat="43.2199" lon="0.11861">
        <ele>331</ele>
        <time>2018-09-30T10:09:14Z</time>
      </trkpt>
      <trkpt lat="43.21989" lon="0.11858">
        <ele>331</ele>
        <time>2018-09-30T10:09:15Z</time>
      </trkpt>
      <trkpt lat="43.21987" lon="0.11856">
        <ele>331</ele>
        <time>2018-09-30T10:09:16Z</time>
      </trkpt>
      <trkpt lat="43.21986" lon="0.11853">
        <ele>331</ele>
        <time>2018-09-30T10:09:17Z</time>
      </trkpt>
      <trkpt lat="43.21983" lon="0.11849">
        <ele>330</ele>
        <time>2018-09-30T10:09:18Z</time>
      </trkpt>
      <trkpt lat="43.21983" lon="0.11845">
        <ele>330</ele>
        <time>2018-09-30T10:09:19Z</time>
      </trkpt>
      <trkpt lat="43.21982" lon="0.11839">
        <ele>330</ele>
        <time>2018-09-30T10:09:20Z</time>
      </trkpt>
      <trkpt lat="43.21982" lon="0.11833">
        <ele>330</ele>
        <time>2018-09-30T10:09:21Z</time>
      </trkpt>
      <trkpt lat="43.21983" lon="0.11827">
        <ele>330</ele>
        <time>2018-09-30T10:09:22Z</time>
      </trkpt>
      <trkpt lat="43.21983" lon="0.11822">
        <ele>330</ele>
        <time>2018-09-30T10:09:23Z</time>
      </trkpt>
      <trkpt lat="43.21984" lon="0.11817">
        <ele>330</ele>
        <time>2018-09-30T10:09:24Z</time>
      </trkpt>
      <trkpt lat="43.21985" lon="0.11813">
        <ele>330</ele>
        <time>2018-09-30T10:09:25Z</time>
      </trkpt>
      <trkpt lat="43.21987" lon="0.11808">
        <ele>330</ele>
        <time>2018-09-30T10:09:26Z</time>
      </trkpt>
      <trkpt lat="43.21989" lon="0.11802">
        <ele>330</ele>
        <time>2018-09-30T10:09:27Z</time>
      </trkpt>
      <trkpt lat="43.2199" lon="0.11796">
        <ele>330</ele>
        <time>2018-09-30T10:09:28Z</time>
      </trkpt>
      <trkpt lat="43.2199" lon="0.11791">
        <ele>330</ele>
        <time>2018-09-30T10:09:29Z</time>
      </trkpt>
      <trkpt lat="43.21991" lon="0.11786">
        <ele>330</ele>
        <time>2018-09-30T10:09:30Z</time>
      </trkpt>
      <trkpt lat="43.21992" lon="0.11782">
        <ele>330</ele>
        <time>2018-09-30T10:09:31Z</time>
      </trkpt>
      <trkpt lat="43.21992" lon="0.11779">
        <ele>330</ele>
        <time>2018-09-30T10:09:32Z</time>
      </trkpt>
      <trkpt lat="43.21993" lon="0.11775">
        <ele>330</ele>
        <time>2018-09-30T10:09:33Z</time>
      </trkpt>
      <trkpt lat="43.21994" lon="0.11773">
        <ele>330</ele>
        <time>2018-09-30T10:09:34Z</time>
      </trkpt>
      <trkpt lat="43.21996" lon="0.11771">
        <ele>330</ele>
        <time>2018-09-30T10:09:35Z</time>
      </trkpt>
      <trkpt lat="43.21997" lon="0.11768">
        <ele>330</ele>
        <time>2018-09-30T10:09:36Z</time>
      </trkpt>
      <trkpt lat="43.21997" lon="0.11763">
        <ele>330</ele>
        <time>2018-09-30T10:09:37Z</time>
      </trkpt>
      <trkpt lat="43.21998" lon="0.11757">
        <ele>330</ele>
        <time>2018-09-30T10:09:38Z</time>
      </trkpt>
      <trkpt lat="43.21998" lon="0.11752">
        <ele>330</ele>
        <time>2018-09-30T10:09:39Z</time>
      </trkpt>
      <trkpt lat="43.21998" lon="0.11746">
        <ele>330</ele>
        <time>2018-09-30T10:09:40Z</time>
      </trkpt>
      <trkpt lat="43.21999" lon="0.11739">
        <ele>330</ele>
        <time>2018-09-30T10:09:41Z</time>
      </trkpt>
      <trkpt lat="43.21999" lon="0.11732">
        <ele>330</ele>
        <time>2018-09-30T10:09:42Z</time>
      </trkpt>
      <trkpt lat="43.21999" lon="0.11726">
        <ele>330</ele>
        <time>2018-09-30T10:09:43Z</time>
      </trkpt>
      <trkpt lat="43.21998" lon="0.11719">
        <ele>330</ele>
        <time>2018-09-30T10:09:44Z</time>
      </trkpt>
      <trkpt lat="43.21997" lon="0.11712">
        <ele>329</ele>
        <time>2018-09-30T10:09:45Z</time>
      </trkpt>
      <trkpt lat="43.21996" lon="0.11704">
        <ele>329</ele>
        <time>2018-09-30T10:09:46Z</time>
      </trkpt>
      <trkpt lat="43.21996" lon="0.11697">
        <ele>329</ele>
        <time>2018-09-30T10:09:47Z</time>
      </trkpt>
      <trkpt lat="43.21996" lon="0.1169">
        <ele>328</ele>
        <time>2018-09-30T10:09:48Z</time>
      </trkpt>
      <trkpt lat="43.21996" lon="0.11683">
        <ele>328</ele>
        <time>2018-09-30T10:09:49Z</time>
      </trkpt>
      <trkpt lat="43.21996" lon="0.11675">
        <ele>328</ele>
        <time>2018-09-30T10:09:50Z</time>
      </trkpt>
      <trkpt lat="43.21996" lon="0.11668">
        <ele>328</ele>
        <time>2018-09-30T10:09:51Z</time>
      </trkpt>
      <trkpt lat="43.21996" lon="0.1166">
        <ele>328</ele>
        <time>2018-09-30T10:09:52Z</time>
      </trkpt>
      <trkpt lat="43.21996" lon="0.11652">
        <ele>327</ele>
        <time>2018-09-30T10:09:53Z</time>
      </trkpt>
      <trkpt lat="43.21996" lon="0.11645">
        <ele>327</ele>
        <time>2018-09-30T10:09:54Z</time>
      </trkpt>
      <trkpt lat="43.21996" lon="0.11637">
        <ele>327</ele>
        <time>2018-09-30T10:09:55Z</time>
      </trkpt>
      <trkpt lat="43.21996" lon="0.1163">
        <ele>327</ele>
        <time>2018-09-30T10:09:56Z</time>
      </trkpt>
      <trkpt lat="43.21995" lon="0.11624">
        <ele>327</ele>
        <time>2018-09-30T10:09:57Z</time>
      </trkpt>
      <trkpt lat="43.21995" lon="0.11618">
        <ele>327</ele>
        <time>2018-09-30T10:09:58Z</time>
      </trkpt>
      <trkpt lat="43.21995" lon="0.11611">
        <ele>326</ele>
        <time>2018-09-30T10:09:59Z</time>
      </trkpt>
      <trkpt lat="43.21995" lon="0.11606">
        <ele>326</ele>
        <time>2018-09-30T10:10:00Z</time>
      </trkpt>
      <trkpt lat="43.21995" lon="0.11599">
        <ele>326</ele>
        <time>2018-09-30T10:10:01Z</time>
      </trkpt>
      <trkpt lat="43.21995" lon="0.11594">
        <ele>326</ele>
        <time>2018-09-30T10:10:02Z</time>
      </trkpt>
      <trkpt lat="43.21994" lon="0.11587">
        <ele>326</ele>
        <time>2018-09-30T10:10:03Z</time>
      </trkpt>
      <trkpt lat="43.21994" lon="0.11582">
        <ele>326</ele>
        <time>2018-09-30T10:10:04Z</time>
      </trkpt>
      <trkpt lat="43.21994" lon="0.11577">
        <ele>326</ele>
        <time>2018-09-30T10:10:05Z</time>
      </trkpt>
      <trkpt lat="43.21994" lon="0.11571">
        <ele>326</ele>
        <time>2018-09-30T10:10:06Z</time>
      </trkpt>
      <trkpt lat="43.21993" lon="0.11565">
        <ele>326</ele>
        <time>2018-09-30T10:10:07Z</time>
      </trkpt>
      <trkpt lat="43.21992" lon="0.11559">
        <ele>326</ele>
        <time>2018-09-30T10:10:08Z</time>
      </trkpt>
      <trkpt lat="43.21991" lon="0.11553">
        <ele>326</ele>
        <time>2018-09-30T10:10:09Z</time>
      </trkpt>
      <trkpt lat="43.21991" lon="0.11547">
        <ele>326</ele>
        <time>2018-09-30T10:10:10Z</time>
      </trkpt>
      <trkpt lat="43.2199" lon="0.11541">
        <ele>326</ele>
        <time>2018-09-30T10:10:11Z</time>
      </trkpt>
      <trkpt lat="43.21988" lon="0.11535">
        <ele>326</ele>
        <time>2018-09-30T10:10:12Z</time>
      </trkpt>
      <trkpt lat="43.21985" lon="0.11531">
        <ele>326</ele>
        <time>2018-09-30T10:10:13Z</time>
      </trkpt>
      <trkpt lat="43.21982" lon="0.11529">
        <ele>326</ele>
        <time>2018-09-30T10:10:14Z</time>
      </trkpt>
      <trkpt lat="43.21979" lon="0.11527">
        <ele>326</ele>
        <time>2018-09-30T10:10:15Z</time>
      </trkpt>
      <trkpt lat="43.21975" lon="0.11526">
        <ele>326</ele>
        <time>2018-09-30T10:10:16Z</time>
      </trkpt>
      <trkpt lat="43.21971" lon="0.11524">
        <ele>326</ele>
        <time>2018-09-30T10:10:17Z</time>
      </trkpt>
      <trkpt lat="43.21966" lon="0.11524">
        <ele>326</ele>
        <time>2018-09-30T10:10:18Z</time>
      </trkpt>
      <trkpt lat="43.21962" lon="0.11525">
        <ele>326</ele>
        <time>2018-09-30T10:10:19Z</time>
      </trkpt>
      <trkpt lat="43.21958" lon="0.11526">
        <ele>326</ele>
        <time>2018-09-30T10:10:20Z</time>
      </trkpt>
      <trkpt lat="43.21954" lon="0.11527">
        <ele>326</ele>
        <time>2018-09-30T10:10:21Z</time>
      </trkpt>
      <trkpt lat="43.2195" lon="0.11528">
        <ele>326</ele>
        <time>2018-09-30T10:10:22Z</time>
      </trkpt>
      <trkpt lat="43.21945" lon="0.11529">
        <ele>326</ele>
        <time>2018-09-30T10:10:23Z</time>
      </trkpt>
      <trkpt lat="43.21941" lon="0.1153">
        <ele>326</ele>
        <time>2018-09-30T10:10:24Z</time>
      </trkpt>
      <trkpt lat="43.21937" lon="0.11531">
        <ele>326</ele>
        <time>2018-09-30T10:10:25Z</time>
      </trkpt>
      <trkpt lat="43.21932" lon="0.11531">
        <ele>326</ele>
        <time>2018-09-30T10:10:26Z</time>
      </trkpt>
      <trkpt lat="43.21928" lon="0.11532">
        <ele>325</ele>
        <time>2018-09-30T10:10:27Z</time>
      </trkpt>
      <trkpt lat="43.21923" lon="0.11533">
        <ele>325</ele>
        <time>2018-09-30T10:10:28Z</time>
      </trkpt>
      <trkpt lat="43.21919" lon="0.11534">
        <ele>325</ele>
        <time>2018-09-30T10:10:29Z</time>
      </trkpt>
      <trkpt lat="43.21914" lon="0.11535">
        <ele>325</ele>
        <time>2018-09-30T10:10:30Z</time>
      </trkpt>
      <trkpt lat="43.21908" lon="0.11535">
        <ele>325</ele>
        <time>2018-09-30T10:10:31Z</time>
      </trkpt>
      <trkpt lat="43.21904" lon="0.11536">
        <ele>325</ele>
        <time>2018-09-30T10:10:32Z</time>
      </trkpt>
      <trkpt lat="43.21899" lon="0.11536">
        <ele>325</ele>
        <time>2018-09-30T10:10:33Z</time>
      </trkpt>
      <trkpt lat="43.21895" lon="0.11537">
        <ele>325</ele>
        <time>2018-09-30T10:10:34Z</time>
      </trkpt>
      <trkpt lat="43.2189" lon="0.11537">
        <ele>325</ele>
        <time>2018-09-30T10:10:35Z</time>
      </trkpt>
      <trkpt lat="43.21886" lon="0.11537">
        <ele>326</ele>
        <time>2018-09-30T10:10:36Z</time>
      </trkpt>
      <trkpt lat="43.21881" lon="0.11537">
        <ele>326</ele>
        <time>2018-09-30T10:10:37Z</time>
      </trkpt>
      <trkpt lat="43.21877" lon="0.11537">
        <ele>326</ele>
        <time>2018-09-30T10:10:38Z</time>
      </trkpt>
      <trkpt lat="43.21873" lon="0.11538">
        <ele>326</ele>
        <time>2018-09-30T10:10:39Z</time>
      </trkpt>
      <trkpt lat="43.21869" lon="0.11538">
        <ele>326</ele>
        <time>2018-09-30T10:10:40Z</time>
      </trkpt>
      <trkpt lat="43.21865" lon="0.11538">
        <ele>327</ele>
        <time>2018-09-30T10:10:41Z</time>
      </trkpt>
      <trkpt lat="43.21861" lon="0.11538">
        <ele>327</ele>
        <time>2018-09-30T10:10:42Z</time>
      </trkpt>
      <trkpt lat="43.21858" lon="0.11539">
        <ele>327</ele>
        <time>2018-09-30T10:10:43Z</time>
      </trkpt>
      <trkpt lat="43.21855" lon="0.11539">
        <ele>327</ele>
        <time>2018-09-30T10:10:44Z</time>
      </trkpt>
      <trkpt lat="43.21852" lon="0.1154">
        <ele>327</ele>
        <time>2018-09-30T10:10:45Z</time>
      </trkpt>
      <trkpt lat="43.2185" lon="0.1154">
        <ele>327</ele>
        <time>2018-09-30T10:10:46Z</time>
      </trkpt>
      <trkpt lat="43.21849" lon="0.11541">
        <ele>327</ele>
        <time>2018-09-30T10:10:47Z</time>
      </trkpt>
      <trkpt lat="43.21848" lon="0.11543">
        <ele>327</ele>
        <time>2018-09-30T10:10:48Z</time>
      </trkpt>
      <trkpt lat="43.21848" lon="0.11544">
        <ele>327</ele>
        <time>2018-09-30T10:10:49Z</time>
      </trkpt>
      <trkpt lat="43.21848" lon="0.11546">
        <ele>327</ele>
        <time>2018-09-30T10:10:50Z</time>
      </trkpt>
      <trkpt lat="43.21847" lon="0.11549">
        <ele>327</ele>
        <time>2018-09-30T10:10:51Z</time>
      </trkpt>
      <trkpt lat="43.21847" lon="0.11552">
        <ele>327</ele>
        <time>2018-09-30T10:10:52Z</time>
      </trkpt>
      <trkpt lat="43.21846" lon="0.11556">
        <ele>327</ele>
        <time>2018-09-30T10:10:53Z</time>
      </trkpt>
      <trkpt lat="43.21844" lon="0.11559">
        <ele>327</ele>
        <time>2018-09-30T10:10:54Z</time>
      </trkpt>
      <trkpt lat="43.21842" lon="0.11561">
        <ele>327</ele>
        <time>2018-09-30T10:10:55Z</time>
      </trkpt>
      <trkpt lat="43.21841" lon="0.11563">
        <ele>327</ele>
        <time>2018-09-30T10:10:56Z</time>
      </trkpt>
      <trkpt lat="43.21839" lon="0.11564">
        <ele>327</ele>
        <time>2018-09-30T10:10:57Z</time>
      </trkpt>
      <trkpt lat="43.21837" lon="0.11565">
        <ele>327</ele>
        <time>2018-09-30T10:10:58Z</time>
      </trkpt>
      <trkpt lat="43.21835" lon="0.11566">
        <ele>327</ele>
        <time>2018-09-30T10:10:59Z</time>
      </trkpt>
      <trkpt lat="43.21832" lon="0.11567">
        <ele>327</ele>
        <time>2018-09-30T10:11:00Z</time>
      </trkpt>
      <trkpt lat="43.2183" lon="0.11567">
        <ele>327</ele>
        <time>2018-09-30T10:11:01Z</time>
      </trkpt>
      <trkpt lat="43.21827" lon="0.11568">
        <ele>327</ele>
        <time>2018-09-30T10:11:02Z</time>
      </trkpt>
      <trkpt lat="43.21824" lon="0.11569">
        <ele>327</ele>
        <time>2018-09-30T10:11:03Z</time>
      </trkpt>
      <trkpt lat="43.21822" lon="0.1157">
        <ele>327</ele>
        <time>2018-09-30T10:11:04Z</time>
      </trkpt>
      <trkpt lat="43.2182" lon="0.11571">
        <ele>327</ele>
        <time>2018-09-30T10:11:05Z</time>
      </trkpt>
      <trkpt lat="43.21818" lon="0.11572">
        <ele>327</ele>
        <time>2018-09-30T10:11:06Z</time>
      </trkpt>
      <trkpt lat="43.21816" lon="0.11572">
        <ele>328</ele>
        <time>2018-09-30T10:11:07Z</time>
      </trkpt>
      <trkpt lat="43.21814" lon="0.11573">
        <ele>328</ele>
        <time>2018-09-30T10:11:08Z</time>
      </trkpt>
      <trkpt lat="43.21812" lon="0.11574">
        <ele>328</ele>
        <time>2018-09-30T10:11:09Z</time>
      </trkpt>
      <trkpt lat="43.21809" lon="0.11574">
        <ele>328</ele>
        <time>2018-09-30T10:11:10Z</time>
      </trkpt>
      <trkpt lat="43.21807" lon="0.11576">
        <ele>328</ele>
        <time>2018-09-30T10:11:11Z</time>
      </trkpt>
      <trkpt lat="43.21805" lon="0.11578">
        <ele>328</ele>
        <time>2018-09-30T10:11:12Z</time>
      </trkpt>
      <trkpt lat="43.21803" lon="0.11579">
        <ele>328</ele>
        <time>2018-09-30T10:11:13Z</time>
      </trkpt>
      <trkpt lat="43.218" lon="0.11581">
        <ele>328</ele>
        <time>2018-09-30T10:11:14Z</time>
      </trkpt>
      <trkpt lat="43.21798" lon="0.11582">
        <ele>328</ele>
        <time>2018-09-30T10:11:15Z</time>
      </trkpt>
      <trkpt lat="43.21796" lon="0.11583">
        <ele>328</ele>
        <time>2018-09-30T10:11:16Z</time>
      </trkpt>
      <trkpt lat="43.21793" lon="0.11585">
        <ele>328</ele>
        <time>2018-09-30T10:11:17Z</time>
      </trkpt>
      <trkpt lat="43.2179" lon="0.11586">
        <ele>328</ele>
        <time>2018-09-30T10:11:18Z</time>
      </trkpt>
      <trkpt lat="43.21787" lon="0.11587">
        <ele>328</ele>
        <time>2018-09-30T10:11:19Z</time>
      </trkpt>
      <trkpt lat="43.21784" lon="0.11589">
        <ele>328</ele>
        <time>2018-09-30T10:11:20Z</time>
      </trkpt>
      <trkpt lat="43.21781" lon="0.11589">
        <ele>328</ele>
        <time>2018-09-30T10:11:21Z</time>
      </trkpt>
      <trkpt lat="43.21778" lon="0.11589">
        <ele>328</ele>
        <time>2018-09-30T10:11:22Z</time>
      </trkpt>
      <trkpt lat="43.21775" lon="0.11589">
        <ele>328</ele>
        <time>2018-09-30T10:11:23Z</time>
      </trkpt>
      <trkpt lat="43.21771" lon="0.11588">
        <ele>328</ele>
        <time>2018-09-30T10:11:24Z</time>
      </trkpt>
      <trkpt lat="43.21769" lon="0.11587">
        <ele>328</ele>
        <time>2018-09-30T10:11:25Z</time>
      </trkpt>
      <trkpt lat="43.21766" lon="0.11587">
        <ele>328</ele>
        <time>2018-09-30T10:11:26Z</time>
      </trkpt>
      <trkpt lat="43.21763" lon="0.11587">
        <ele>328</ele>
        <time>2018-09-30T10:11:27Z</time>
      </trkpt>
      <trkpt lat="43.2176" lon="0.11587">
        <ele>328</ele>
        <time>2018-09-30T10:11:28Z</time>
      </trkpt>
      <trkpt lat="43.21758" lon="0.11587">
        <ele>329</ele>
        <time>2018-09-30T10:11:29Z</time>
      </trkpt>
      <trkpt lat="43.21755" lon="0.11588">
        <ele>329</ele>
        <time>2018-09-30T10:11:30Z</time>
      </trkpt>
      <trkpt lat="43.21752" lon="0.11589">
        <ele>329</ele>
        <time>2018-09-30T10:11:31Z</time>
      </trkpt>
      <trkpt lat="43.2175" lon="0.11589">
        <ele>329</ele>
        <time>2018-09-30T10:11:32Z</time>
      </trkpt>
      <trkpt lat="43.21748" lon="0.11593">
        <ele>329</ele>
        <time>2018-09-30T10:11:33Z</time>
      </trkpt>
      <trkpt lat="43.21745" lon="0.11596">
        <ele>329</ele>
        <time>2018-09-30T10:11:34Z</time>
      </trkpt>
      <trkpt lat="43.21742" lon="0.116">
        <ele>329</ele>
        <time>2018-09-30T10:11:35Z</time>
      </trkpt>
      <trkpt lat="43.2174" lon="0.11603">
        <ele>329</ele>
        <time>2018-09-30T10:11:36Z</time>
      </trkpt>
      <trkpt lat="43.21737" lon="0.11606">
        <ele>329</ele>
        <time>2018-09-30T10:11:37Z</time>
      </trkpt>
      <trkpt lat="43.21733" lon="0.11612">
        <ele>329</ele>
        <time>2018-09-30T10:11:38Z</time>
      </trkpt>
      <trkpt lat="43.2173" lon="0.11618">
        <ele>329</ele>
        <time>2018-09-30T10:11:39Z</time>
      </trkpt>
      <trkpt lat="43.21729" lon="0.11623">
        <ele>329</ele>
        <time>2018-09-30T10:11:40Z</time>
      </trkpt>
      <trkpt lat="43.21726" lon="0.11631">
        <ele>329</ele>
        <time>2018-09-30T10:11:41Z</time>
      </trkpt>
      <trkpt lat="43.21722" lon="0.11637">
        <ele>329</ele>
        <time>2018-09-30T10:11:42Z</time>
      </trkpt>
      <trkpt lat="43.2172" lon="0.11641">
        <ele>329</ele>
        <time>2018-09-30T10:11:43Z</time>
      </trkpt>
      <trkpt lat="43.21717" lon="0.11646">
        <ele>329</ele>
        <time>2018-09-30T10:11:44Z</time>
      </trkpt>
      <trkpt lat="43.21714" lon="0.11653">
        <ele>329</ele>
        <time>2018-09-30T10:11:45Z</time>
      </trkpt>
      <trkpt lat="43.21712" lon="0.11658">
        <ele>329</ele>
        <time>2018-09-30T10:11:46Z</time>
      </trkpt>
      <trkpt lat="43.21709" lon="0.11662">
        <ele>329</ele>
        <time>2018-09-30T10:11:47Z</time>
      </trkpt>
      <trkpt lat="43.21706" lon="0.11666">
        <ele>329</ele>
        <time>2018-09-30T10:11:48Z</time>
      </trkpt>
      <trkpt lat="43.21702" lon="0.11671">
        <ele>329</ele>
        <time>2018-09-30T10:11:49Z</time>
      </trkpt>
      <trkpt lat="43.21699" lon="0.11676">
        <ele>329</ele>
        <time>2018-09-30T10:11:50Z</time>
      </trkpt>
      <trkpt lat="43.21696" lon="0.11679">
        <ele>329</ele>
        <time>2018-09-30T10:11:51Z</time>
      </trkpt>
      <trkpt lat="43.21693" lon="0.11685">
        <ele>329</ele>
        <time>2018-09-30T10:11:52Z</time>
      </trkpt>
      <trkpt lat="43.2169" lon="0.1169">
        <ele>329</ele>
        <time>2018-09-30T10:11:53Z</time>
      </trkpt>
      <trkpt lat="43.21687" lon="0.11696">
        <ele>329</ele>
        <time>2018-09-30T10:11:54Z</time>
      </trkpt>
      <trkpt lat="43.21684" lon="0.117">
        <ele>329</ele>
        <time>2018-09-30T10:11:55Z</time>
      </trkpt>
      <trkpt lat="43.21681" lon="0.11704">
        <ele>329</ele>
        <time>2018-09-30T10:11:56Z</time>
      </trkpt>
      <trkpt lat="43.21678" lon="0.11708">
        <ele>329</ele>
        <time>2018-09-30T10:11:57Z</time>
      </trkpt>
      <trkpt lat="43.21675" lon="0.11713">
        <ele>329</ele>
        <time>2018-09-30T10:11:58Z</time>
      </trkpt>
      <trkpt lat="43.21672" lon="0.11716">
        <ele>329</ele>
        <time>2018-09-30T10:11:59Z</time>
      </trkpt>
      <trkpt lat="43.2167" lon="0.11722">
        <ele>329</ele>
        <time>2018-09-30T10:12:00Z</time>
      </trkpt>
      <trkpt lat="43.21667" lon="0.11727">
        <ele>329</ele>
        <time>2018-09-30T10:12:01Z</time>
      </trkpt>
      <trkpt lat="43.21664" lon="0.1173">
        <ele>328</ele>
        <time>2018-09-30T10:12:02Z</time>
      </trkpt>
      <trkpt lat="43.21662" lon="0.11732">
        <ele>328</ele>
        <time>2018-09-30T10:12:03Z</time>
      </trkpt>
      <trkpt lat="43.21659" lon="0.11735">
        <ele>328</ele>
        <time>2018-09-30T10:12:04Z</time>
      </trkpt>
      <trkpt lat="43.21658" lon="0.11741">
        <ele>328</ele>
        <time>2018-09-30T10:12:05Z</time>
      </trkpt>
      <trkpt lat="43.21657" lon="0.11752">
        <ele>328</ele>
        <time>2018-09-30T10:12:06Z</time>
      </trkpt>
      <trkpt lat="43.21656" lon="0.11759">
        <ele>328</ele>
        <time>2018-09-30T10:12:07Z</time>
      </trkpt>
      <trkpt lat="43.21653" lon="0.11763">
        <ele>328</ele>
        <time>2018-09-30T10:12:08Z</time>
      </trkpt>
      <trkpt lat="43.21651" lon="0.11766">
        <ele>328</ele>
        <time>2018-09-30T10:12:09Z</time>
      </trkpt>
      <trkpt lat="43.21647" lon="0.11771">
        <ele>328</ele>
        <time>2018-09-30T10:12:10Z</time>
      </trkpt>
      <trkpt lat="43.21645" lon="0.11777">
        <ele>328</ele>
        <time>2018-09-30T10:12:11Z</time>
      </trkpt>
      <trkpt lat="43.21645" lon="0.11782">
        <ele>328</ele>
        <time>2018-09-30T10:12:12Z</time>
      </trkpt>
      <trkpt lat="43.21647" lon="0.11787">
        <ele>328</ele>
        <time>2018-09-30T10:12:13Z</time>
      </trkpt>
      <trkpt lat="43.2165" lon="0.11792">
        <ele>329</ele>
        <time>2018-09-30T10:12:14Z</time>
      </trkpt>
      <trkpt lat="43.21651" lon="0.11798">
        <ele>330</ele>
        <time>2018-09-30T10:12:15Z</time>
      </trkpt>
      <trkpt lat="43.21653" lon="0.11805">
        <ele>331</ele>
        <time>2018-09-30T10:12:16Z</time>
      </trkpt>
      <trkpt lat="43.21654" lon="0.11811">
        <ele>332</ele>
        <time>2018-09-30T10:12:17Z</time>
      </trkpt>
      <trkpt lat="43.21656" lon="0.11817">
        <ele>334</ele>
        <time>2018-09-30T10:12:18Z</time>
      </trkpt>
      <trkpt lat="43.21657" lon="0.11824">
        <ele>335</ele>
        <time>2018-09-30T10:12:19Z</time>
      </trkpt>
      <trkpt lat="43.21659" lon="0.11832">
        <ele>336</ele>
        <time>2018-09-30T10:12:20Z</time>
      </trkpt>
      <trkpt lat="43.2166" lon="0.11839">
        <ele>336</ele>
        <time>2018-09-30T10:12:21Z</time>
      </trkpt>
      <trkpt lat="43.21662" lon="0.11848">
        <ele>337</ele>
        <time>2018-09-30T10:12:22Z</time>
      </trkpt>
      <trkpt lat="43.21664" lon="0.11856">
        <ele>337</ele>
        <time>2018-09-30T10:12:23Z</time>
      </trkpt>
      <trkpt lat="43.21666" lon="0.11863">
        <ele>337</ele>
        <time>2018-09-30T10:12:24Z</time>
      </trkpt>
      <trkpt lat="43.21667" lon="0.11871">
        <ele>337</ele>
        <time>2018-09-30T10:12:25Z</time>
      </trkpt>
      <trkpt lat="43.21668" lon="0.11879">
        <ele>337</ele>
        <time>2018-09-30T10:12:26Z</time>
      </trkpt>
      <trkpt lat="43.2167" lon="0.11887">
        <ele>336</ele>
        <time>2018-09-30T10:12:27Z</time>
      </trkpt>
      <trkpt lat="43.21671" lon="0.11895">
        <ele>336</ele>
        <time>2018-09-30T10:12:28Z</time>
      </trkpt>
      <trkpt lat="43.21672" lon="0.11903">
        <ele>336</ele>
        <time>2018-09-30T10:12:29Z</time>
      </trkpt>
      <trkpt lat="43.21673" lon="0.11911">
        <ele>336</ele>
        <time>2018-09-30T10:12:30Z</time>
      </trkpt>
      <trkpt lat="43.21675" lon="0.11919">
        <ele>335</ele>
        <time>2018-09-30T10:12:31Z</time>
      </trkpt>
      <trkpt lat="43.21676" lon="0.11927">
        <ele>335</ele>
        <time>2018-09-30T10:12:32Z</time>
      </trkpt>
      <trkpt lat="43.21677" lon="0.11934">
        <ele>335</ele>
        <time>2018-09-30T10:12:33Z</time>
      </trkpt>
      <trkpt lat="43.21678" lon="0.11942">
        <ele>335</ele>
        <time>2018-09-30T10:12:34Z</time>
      </trkpt>
      <trkpt lat="43.2168" lon="0.11949">
        <ele>335</ele>
        <time>2018-09-30T10:12:35Z</time>
      </trkpt>
      <trkpt lat="43.21681" lon="0.11957">
        <ele>335</ele>
        <time>2018-09-30T10:12:36Z</time>
      </trkpt>
      <trkpt lat="43.21682" lon="0.11965">
        <ele>335</ele>
        <time>2018-09-30T10:12:37Z</time>
      </trkpt>
      <trkpt lat="43.21683" lon="0.11973">
        <ele>335</ele>
        <time>2018-09-30T10:12:38Z</time>
      </trkpt>
      <trkpt lat="43.21684" lon="0.1198">
        <ele>335</ele>
        <time>2018-09-30T10:12:39Z</time>
      </trkpt>
      <trkpt lat="43.21684" lon="0.11988">
        <ele>336</ele>
        <time>2018-09-30T10:12:40Z</time>
      </trkpt>
      <trkpt lat="43.21685" lon="0.11995">
        <ele>336</ele>
        <time>2018-09-30T10:12:41Z</time>
      </trkpt>
      <trkpt lat="43.21686" lon="0.12003">
        <ele>336</ele>
        <time>2018-09-30T10:12:42Z</time>
      </trkpt>
      <trkpt lat="43.21687" lon="0.1201">
        <ele>336</ele>
        <time>2018-09-30T10:12:43Z</time>
      </trkpt>
      <trkpt lat="43.21687" lon="0.12018">
        <ele>336</ele>
        <time>2018-09-30T10:12:44Z</time>
      </trkpt>
      <trkpt lat="43.21687" lon="0.12025">
        <ele>337</ele>
        <time>2018-09-30T10:12:45Z</time>
      </trkpt>
      <trkpt lat="43.21688" lon="0.12032">
        <ele>337</ele>
        <time>2018-09-30T10:12:46Z</time>
      </trkpt>
      <trkpt lat="43.21689" lon="0.12039">
        <ele>338</ele>
        <time>2018-09-30T10:12:47Z</time>
      </trkpt>
      <trkpt lat="43.2169" lon="0.12045">
        <ele>338</ele>
        <time>2018-09-30T10:12:48Z</time>
      </trkpt>
      <trkpt lat="43.2169" lon="0.12051">
        <ele>338</ele>
        <time>2018-09-30T10:12:49Z</time>
      </trkpt>
      <trkpt lat="43.21691" lon="0.12057">
        <ele>338</ele>
        <time>2018-09-30T10:12:50Z</time>
      </trkpt>
      <trkpt lat="43.21691" lon="0.12064">
        <ele>338</ele>
        <time>2018-09-30T10:12:51Z</time>
      </trkpt>
      <trkpt lat="43.21691" lon="0.12069">
        <ele>338</ele>
        <time>2018-09-30T10:12:52Z</time>
      </trkpt>
      <trkpt lat="43.21691" lon="0.12075">
        <ele>339</ele>
        <time>2018-09-30T10:12:53Z</time>
      </trkpt>
      <trkpt lat="43.21691" lon="0.1208">
        <ele>339</ele>
        <time>2018-09-30T10:12:54Z</time>
      </trkpt>
      <trkpt lat="43.21691" lon="0.12086">
        <ele>339</ele>
        <time>2018-09-30T10:12:55Z</time>
      </trkpt>
      <trkpt lat="43.21691" lon="0.12091">
        <ele>339</ele>
        <time>2018-09-30T10:12:56Z</time>
      </trkpt>
      <trkpt lat="43.21691" lon="0.12095">
        <ele>339</ele>
        <time>2018-09-30T10:12:57Z</time>
      </trkpt>
      <trkpt lat="43.2169" lon="0.12099">
        <ele>339</ele>
        <time>2018-09-30T10:12:58Z</time>
      </trkpt>
      <trkpt lat="43.2169" lon="0.12104">
        <ele>340</ele>
        <time>2018-09-30T10:12:59Z</time>
      </trkpt>
      <trkpt lat="43.2169" lon="0.12107">
        <ele>340</ele>
        <time>2018-09-30T10:13:00Z</time>
      </trkpt>
      <trkpt lat="43.21688" lon="0.1211">
        <ele>340</ele>
        <time>2018-09-30T10:13:01Z</time>
      </trkpt>
      <trkpt lat="43.21688" lon="0.12114">
        <ele>340</ele>
        <time>2018-09-30T10:13:02Z</time>
      </trkpt>
      <trkpt lat="43.21686" lon="0.12118">
        <ele>340</ele>
        <time>2018-09-30T10:13:03Z</time>
      </trkpt>
      <trkpt lat="43.21685" lon="0.12122">
        <ele>341</ele>
        <time>2018-09-30T10:13:04Z</time>
      </trkpt>
      <trkpt lat="43.21684" lon="0.12126">
        <ele>341</ele>
        <time>2018-09-30T10:13:05Z</time>
      </trkpt>
      <trkpt lat="43.21682" lon="0.12129">
        <ele>341</ele>
        <time>2018-09-30T10:13:06Z</time>
      </trkpt>
      <trkpt lat="43.21681" lon="0.12132">
        <ele>341</ele>
        <time>2018-09-30T10:13:07Z</time>
      </trkpt>
      <trkpt lat="43.21679" lon="0.12133">
        <ele>341</ele>
        <time>2018-09-30T10:13:08Z</time>
      </trkpt>
      <trkpt lat="43.21678" lon="0.12135">
        <ele>342</ele>
        <time>2018-09-30T10:13:09Z</time>
      </trkpt>
      <trkpt lat="43.21676" lon="0.12136">
        <ele>342</ele>
        <time>2018-09-30T10:13:10Z</time>
      </trkpt>
      <trkpt lat="43.21675" lon="0.12138">
        <ele>342</ele>
        <time>2018-09-30T10:13:11Z</time>
      </trkpt>
      <trkpt lat="43.21673" lon="0.12139">
        <ele>342</ele>
        <time>2018-09-30T10:13:12Z</time>
      </trkpt>
      <trkpt lat="43.2167" lon="0.1214">
        <ele>343</ele>
        <time>2018-09-30T10:13:13Z</time>
      </trkpt>
      <trkpt lat="43.21668" lon="0.12142">
        <ele>343</ele>
        <time>2018-09-30T10:13:14Z</time>
      </trkpt>
      <trkpt lat="43.21665" lon="0.12144">
        <ele>343</ele>
        <time>2018-09-30T10:13:15Z</time>
      </trkpt>
      <trkpt lat="43.21663" lon="0.12146">
        <ele>343</ele>
        <time>2018-09-30T10:13:16Z</time>
      </trkpt>
      <trkpt lat="43.21661" lon="0.12148">
        <ele>344</ele>
        <time>2018-09-30T10:13:17Z</time>
      </trkpt>
      <trkpt lat="43.21659" lon="0.1215">
        <ele>344</ele>
        <time>2018-09-30T10:13:18Z</time>
      </trkpt>
      <trkpt lat="43.21657" lon="0.12151">
        <ele>344</ele>
        <time>2018-09-30T10:13:19Z</time>
      </trkpt>
      <trkpt lat="43.21655" lon="0.12153">
        <ele>344</ele>
        <time>2018-09-30T10:13:20Z</time>
      </trkpt>
      <trkpt lat="43.21653" lon="0.12155">
        <ele>345</ele>
        <time>2018-09-30T10:13:21Z</time>
      </trkpt>
      <trkpt lat="43.21652" lon="0.12157">
        <ele>345</ele>
        <time>2018-09-30T10:13:22Z</time>
      </trkpt>
      <trkpt lat="43.2165" lon="0.12158">
        <ele>345</ele>
        <time>2018-09-30T10:13:23Z</time>
      </trkpt>
      <trkpt lat="43.21648" lon="0.1216">
        <ele>345</ele>
        <time>2018-09-30T10:13:24Z</time>
      </trkpt>
      <trkpt lat="43.21646" lon="0.12161">
        <ele>346</ele>
        <time>2018-09-30T10:13:25Z</time>
      </trkpt>
      <trkpt lat="43.21644" lon="0.12163">
        <ele>346</ele>
        <time>2018-09-30T10:13:26Z</time>
      </trkpt>
      <trkpt lat="43.21641" lon="0.12165">
        <ele>346</ele>
        <time>2018-09-30T10:13:27Z</time>
      </trkpt>
      <trkpt lat="43.21639" lon="0.12167">
        <ele>347</ele>
        <time>2018-09-30T10:13:28Z</time>
      </trkpt>
      <trkpt lat="43.21636" lon="0.12169">
        <ele>347</ele>
        <time>2018-09-30T10:13:29Z</time>
      </trkpt>
      <trkpt lat="43.21634" lon="0.12171">
        <ele>347</ele>
        <time>2018-09-30T10:13:30Z</time>
      </trkpt>
      <trkpt lat="43.21631" lon="0.12174">
        <ele>348</ele>
        <time>2018-09-30T10:13:31Z</time>
      </trkpt>
      <trkpt lat="43.21629" lon="0.12176">
        <ele>348</ele>
        <time>2018-09-30T10:13:32Z</time>
      </trkpt>
      <trkpt lat="43.21627" lon="0.12179">
        <ele>348</ele>
        <time>2018-09-30T10:13:33Z</time>
      </trkpt>
      <trkpt lat="43.21625" lon="0.12182">
        <ele>349</ele>
        <time>2018-09-30T10:13:34Z</time>
      </trkpt>
      <trkpt lat="43.21624" lon="0.12185">
        <ele>349</ele>
        <time>2018-09-30T10:13:35Z</time>
      </trkpt>
      <trkpt lat="43.21622" lon="0.12186">
        <ele>350</ele>
        <time>2018-09-30T10:13:36Z</time>
      </trkpt>
      <trkpt lat="43.2162" lon="0.12188">
        <ele>350</ele>
        <time>2018-09-30T10:13:37Z</time>
      </trkpt>
      <trkpt lat="43.21619" lon="0.12191">
        <ele>350</ele>
        <time>2018-09-30T10:13:38Z</time>
      </trkpt>
      <trkpt lat="43.21617" lon="0.12193">
        <ele>351</ele>
        <time>2018-09-30T10:13:39Z</time>
      </trkpt>
      <trkpt lat="43.21615" lon="0.12196">
        <ele>351</ele>
        <time>2018-09-30T10:13:40Z</time>
      </trkpt>
      <trkpt lat="43.21614" lon="0.12199">
        <ele>351</ele>
        <time>2018-09-30T10:13:41Z</time>
      </trkpt>
      <trkpt lat="43.21613" lon="0.12202">
        <ele>352</ele>
        <time>2018-09-30T10:13:42Z</time>
      </trkpt>
      <trkpt lat="43.21611" lon="0.12204">
        <ele>352</ele>
        <time>2018-09-30T10:13:43Z</time>
      </trkpt>
      <trkpt lat="43.2161" lon="0.12206">
        <ele>352</ele>
        <time>2018-09-30T10:13:44Z</time>
      </trkpt>
      <trkpt lat="43.2161" lon="0.12209">
        <ele>353</ele>
        <time>2018-09-30T10:13:45Z</time>
      </trkpt>
      <trkpt lat="43.21609" lon="0.12211">
        <ele>353</ele>
        <time>2018-09-30T10:13:46Z</time>
      </trkpt>
      <trkpt lat="43.21607" lon="0.12213">
        <ele>353</ele>
        <time>2018-09-30T10:13:47Z</time>
      </trkpt>
      <trkpt lat="43.21605" lon="0.12214">
        <ele>354</ele>
        <time>2018-09-30T10:13:48Z</time>
      </trkpt>
      <trkpt lat="43.21604" lon="0.12215">
        <ele>354</ele>
        <time>2018-09-30T10:13:49Z</time>
      </trkpt>
      <trkpt lat="43.21601" lon="0.12219">
        <ele>354</ele>
        <time>2018-09-30T10:13:50Z</time>
      </trkpt>
      <trkpt lat="43.21599" lon="0.12221">
        <ele>354</ele>
        <time>2018-09-30T10:13:51Z</time>
      </trkpt>
      <trkpt lat="43.21597" lon="0.12224">
        <ele>354</ele>
        <time>2018-09-30T10:13:52Z</time>
      </trkpt>
      <trkpt lat="43.21594" lon="0.12225">
        <ele>354</ele>
        <time>2018-09-30T10:13:53Z</time>
      </trkpt>
      <trkpt lat="43.21591" lon="0.12227">
        <ele>354</ele>
        <time>2018-09-30T10:13:54Z</time>
      </trkpt>
      <trkpt lat="43.21588" lon="0.12227">
        <ele>354</ele>
        <time>2018-09-30T10:13:55Z</time>
      </trkpt>
      <trkpt lat="43.21585" lon="0.12228">
        <ele>354</ele>
        <time>2018-09-30T10:13:56Z</time>
      </trkpt>
      <trkpt lat="43.21581" lon="0.12229">
        <ele>354</ele>
        <time>2018-09-30T10:13:57Z</time>
      </trkpt>
      <trkpt lat="43.21578" lon="0.12229">
        <ele>353</ele>
        <time>2018-09-30T10:13:58Z</time>
      </trkpt>
      <trkpt lat="43.21575" lon="0.1223">
        <ele>353</ele>
        <time>2018-09-30T10:13:59Z</time>
      </trkpt>
      <trkpt lat="43.21572" lon="0.1223">
        <ele>353</ele>
        <time>2018-09-30T10:14:00Z</time>
      </trkpt>
      <trkpt lat="43.21568" lon="0.1223">
        <ele>353</ele>
        <time>2018-09-30T10:14:01Z</time>
      </trkpt>
      <trkpt lat="43.21565" lon="0.12231">
        <ele>352</ele>
        <time>2018-09-30T10:14:02Z</time>
      </trkpt>
      <trkpt lat="43.21562" lon="0.12231">
        <ele>352</ele>
        <time>2018-09-30T10:14:03Z</time>
      </trkpt>
      <trkpt lat="43.21558" lon="0.12231">
        <ele>352</ele>
        <time>2018-09-30T10:14:04Z</time>
      </trkpt>
      <trkpt lat="43.21555" lon="0.12231">
        <ele>352</ele>
        <time>2018-09-30T10:14:05Z</time>
      </trkpt>
      <trkpt lat="43.21551" lon="0.12231">
        <ele>352</ele>
        <time>2018-09-30T10:14:06Z</time>
      </trkpt>
      <trkpt lat="43.21548" lon="0.12231">
        <ele>351</ele>
        <time>2018-09-30T10:14:07Z</time>
      </trkpt>
      <trkpt lat="43.21545" lon="0.12231">
        <ele>351</ele>
        <time>2018-09-30T10:14:08Z</time>
      </trkpt>
      <trkpt lat="43.21542" lon="0.12231">
        <ele>351</ele>
        <time>2018-09-30T10:14:09Z</time>
      </trkpt>
      <trkpt lat="43.21539" lon="0.12232">
        <ele>351</ele>
        <time>2018-09-30T10:14:10Z</time>
      </trkpt>
      <trkpt lat="43.21536" lon="0.12232">
        <ele>351</ele>
        <time>2018-09-30T10:14:11Z</time>
      </trkpt>
      <trkpt lat="43.21533" lon="0.12232">
        <ele>351</ele>
        <time>2018-09-30T10:14:12Z</time>
      </trkpt>
      <trkpt lat="43.21531" lon="0.12233">
        <ele>351</ele>
        <time>2018-09-30T10:14:13Z</time>
      </trkpt>
      <trkpt lat="43.21528" lon="0.12235">
        <ele>351</ele>
        <time>2018-09-30T10:14:14Z</time>
      </trkpt>
      <trkpt lat="43.21524" lon="0.12236">
        <ele>351</ele>
        <time>2018-09-30T10:14:15Z</time>
      </trkpt>
      <trkpt lat="43.21522" lon="0.12237">
        <ele>351</ele>
        <time>2018-09-30T10:14:16Z</time>
      </trkpt>
      <trkpt lat="43.21518" lon="0.12237">
        <ele>351</ele>
        <time>2018-09-30T10:14:17Z</time>
      </trkpt>
      <trkpt lat="43.21515" lon="0.12237">
        <ele>350</ele>
        <time>2018-09-30T10:14:18Z</time>
      </trkpt>
      <trkpt lat="43.21513" lon="0.12239">
        <ele>350</ele>
        <time>2018-09-30T10:14:19Z</time>
      </trkpt>
      <trkpt lat="43.2151" lon="0.1224">
        <ele>350</ele>
        <time>2018-09-30T10:14:20Z</time>
      </trkpt>
      <trkpt lat="43.21507" lon="0.1224">
        <ele>350</ele>
        <time>2018-09-30T10:14:21Z</time>
      </trkpt>
      <trkpt lat="43.21504" lon="0.12241">
        <ele>350</ele>
        <time>2018-09-30T10:14:22Z</time>
      </trkpt>
      <trkpt lat="43.21501" lon="0.12242">
        <ele>350</ele>
        <time>2018-09-30T10:14:23Z</time>
      </trkpt>
      <trkpt lat="43.21497" lon="0.12243">
        <ele>350</ele>
        <time>2018-09-30T10:14:24Z</time>
      </trkpt>
      <trkpt lat="43.21494" lon="0.12244">
        <ele>349</ele>
        <time>2018-09-30T10:14:25Z</time>
      </trkpt>
      <trkpt lat="43.2149" lon="0.12245">
        <ele>349</ele>
        <time>2018-09-30T10:14:26Z</time>
      </trkpt>
      <trkpt lat="43.21487" lon="0.12248">
        <ele>349</ele>
        <time>2018-09-30T10:14:27Z</time>
      </trkpt>
      <trkpt lat="43.21482" lon="0.12249">
        <ele>349</ele>
        <time>2018-09-30T10:14:28Z</time>
      </trkpt>
      <trkpt lat="43.21478" lon="0.1225">
        <ele>349</ele>
        <time>2018-09-30T10:14:29Z</time>
      </trkpt>
      <trkpt lat="43.21474" lon="0.12252">
        <ele>348</ele>
        <time>2018-09-30T10:14:30Z</time>
      </trkpt>
      <trkpt lat="43.2147" lon="0.12252">
        <ele>348</ele>
        <time>2018-09-30T10:14:31Z</time>
      </trkpt>
      <trkpt lat="43.21466" lon="0.12252">
        <ele>348</ele>
        <time>2018-09-30T10:14:32Z</time>
      </trkpt>
      <trkpt lat="43.21463" lon="0.1225">
        <ele>348</ele>
        <time>2018-09-30T10:14:33Z</time>
      </trkpt>
      <trkpt lat="43.21459" lon="0.12247">
        <ele>347</ele>
        <time>2018-09-30T10:14:34Z</time>
      </trkpt>
      <trkpt lat="43.21456" lon="0.12244">
        <ele>346</ele>
        <time>2018-09-30T10:14:35Z</time>
      </trkpt>
      <trkpt lat="43.21453" lon="0.1224">
        <ele>345</ele>
        <time>2018-09-30T10:14:36Z</time>
      </trkpt>
      <trkpt lat="43.2145" lon="0.12236">
        <ele>345</ele>
        <time>2018-09-30T10:14:37Z</time>
      </trkpt>
      <trkpt lat="43.21447" lon="0.12232">
        <ele>344</ele>
        <time>2018-09-30T10:14:38Z</time>
      </trkpt>
      <trkpt lat="43.21445" lon="0.12228">
        <ele>344</ele>
        <time>2018-09-30T10:14:39Z</time>
      </trkpt>
      <trkpt lat="43.21443" lon="0.12223">
        <ele>343</ele>
        <time>2018-09-30T10:14:40Z</time>
      </trkpt>
      <trkpt lat="43.2144" lon="0.12218">
        <ele>343</ele>
        <time>2018-09-30T10:14:41Z</time>
      </trkpt>
      <trkpt lat="43.21439" lon="0.12214">
        <ele>343</ele>
        <time>2018-09-30T10:14:42Z</time>
      </trkpt>
      <trkpt lat="43.21437" lon="0.12209">
        <ele>342</ele>
        <time>2018-09-30T10:14:43Z</time>
      </trkpt>
      <trkpt lat="43.21436" lon="0.12204">
        <ele>342</ele>
        <time>2018-09-30T10:14:44Z</time>
      </trkpt>
      <trkpt lat="43.21434" lon="0.12198">
        <ele>342</ele>
        <time>2018-09-30T10:14:45Z</time>
      </trkpt>
      <trkpt lat="43.21431" lon="0.12193">
        <ele>339</ele>
        <time>2018-09-30T10:14:46Z</time>
      </trkpt>
      <trkpt lat="43.21427" lon="0.12185">
        <ele>338</ele>
        <time>2018-09-30T10:14:47Z</time>
      </trkpt>
      <trkpt lat="43.21423" lon="0.1218">
        <ele>337</ele>
        <time>2018-09-30T10:14:48Z</time>
      </trkpt>
      <trkpt lat="43.21419" lon="0.12175">
        <ele>336</ele>
        <time>2018-09-30T10:14:49Z</time>
      </trkpt>
      <trkpt lat="43.21415" lon="0.12172">
        <ele>336</ele>
        <time>2018-09-30T10:14:50Z</time>
      </trkpt>
      <trkpt lat="43.2141" lon="0.12167">
        <ele>335</ele>
        <time>2018-09-30T10:14:51Z</time>
      </trkpt>
      <trkpt lat="43.21404" lon="0.12162">
        <ele>335</ele>
        <time>2018-09-30T10:14:52Z</time>
      </trkpt>
      <trkpt lat="43.21399" lon="0.12158">
        <ele>335</ele>
        <time>2018-09-30T10:14:53Z</time>
      </trkpt>
      <trkpt lat="43.21395" lon="0.12156">
        <ele>334</ele>
        <time>2018-09-30T10:14:54Z</time>
      </trkpt>
      <trkpt lat="43.21393" lon="0.12156">
        <ele>334</ele>
        <time>2018-09-30T10:14:55Z</time>
      </trkpt>
      <trkpt lat="43.21391" lon="0.12156">
        <ele>334</ele>
        <time>2018-09-30T10:14:56Z</time>
      </trkpt>
      <trkpt lat="43.21388" lon="0.12156">
        <ele>334</ele>
        <time>2018-09-30T10:14:57Z</time>
      </trkpt>
      <trkpt lat="43.21385" lon="0.12156">
        <ele>334</ele>
        <time>2018-09-30T10:14:58Z</time>
      </trkpt>
      <trkpt lat="43.21382" lon="0.12154">
        <ele>334</ele>
        <time>2018-09-30T10:14:59Z</time>
      </trkpt>
      <trkpt lat="43.21379" lon="0.12152">
        <ele>333</ele>
        <time>2018-09-30T10:15:00Z</time>
      </trkpt>
      <trkpt lat="43.21374" lon="0.12151">
        <ele>331</ele>
        <time>2018-09-30T10:15:01Z</time>
      </trkpt>
      <trkpt lat="43.21365" lon="0.12149">
        <ele>329</ele>
        <time>2018-09-30T10:15:02Z</time>
      </trkpt>
      <trkpt lat="43.21355" lon="0.12144">
        <ele>328</ele>
        <time>2018-09-30T10:15:03Z</time>
      </trkpt>
      <trkpt lat="43.21345" lon="0.1214">
        <ele>327</ele>
        <time>2018-09-30T10:15:04Z</time>
      </trkpt>
      <trkpt lat="43.21337" lon="0.12136">
        <ele>326</ele>
        <time>2018-09-30T10:15:05Z</time>
      </trkpt>
      <trkpt lat="43.21331" lon="0.12133">
        <ele>325</ele>
        <time>2018-09-30T10:15:06Z</time>
      </trkpt>
      <trkpt lat="43.21327" lon="0.12133">
        <ele>325</ele>
        <time>2018-09-30T10:15:07Z</time>
      </trkpt>
      <trkpt lat="43.21322" lon="0.1213">
        <ele>323</ele>
        <time>2018-09-30T10:15:08Z</time>
      </trkpt>
      <trkpt lat="43.21317" lon="0.12128">
        <ele>323</ele>
        <time>2018-09-30T10:15:09Z</time>
      </trkpt>
      <trkpt lat="43.21313" lon="0.12126">
        <ele>322</ele>
        <time>2018-09-30T10:15:10Z</time>
      </trkpt>
      <trkpt lat="43.21309" lon="0.12123">
        <ele>322</ele>
        <time>2018-09-30T10:15:11Z</time>
      </trkpt>
      <trkpt lat="43.21306" lon="0.12121">
        <ele>322</ele>
        <time>2018-09-30T10:15:12Z</time>
      </trkpt>
      <trkpt lat="43.21303" lon="0.1212">
        <ele>322</ele>
        <time>2018-09-30T10:15:13Z</time>
      </trkpt>
      <trkpt lat="43.21301" lon="0.12119">
        <ele>322</ele>
        <time>2018-09-30T10:15:14Z</time>
      </trkpt>
      <trkpt lat="43.21299" lon="0.12118">
        <ele>322</ele>
        <time>2018-09-30T10:15:15Z</time>
      </trkpt>
      <trkpt lat="43.21295" lon="0.12117">
        <ele>323</ele>
        <time>2018-09-30T10:15:16Z</time>
      </trkpt>
      <trkpt lat="43.21292" lon="0.12116">
        <ele>323</ele>
        <time>2018-09-30T10:15:17Z</time>
      </trkpt>
      <trkpt lat="43.21289" lon="0.12115">
        <ele>323</ele>
        <time>2018-09-30T10:15:18Z</time>
      </trkpt>
      <trkpt lat="43.21285" lon="0.12115">
        <ele>323</ele>
        <time>2018-09-30T10:15:19Z</time>
      </trkpt>
      <trkpt lat="43.21281" lon="0.12114">
        <ele>323</ele>
        <time>2018-09-30T10:15:20Z</time>
      </trkpt>
      <trkpt lat="43.21276" lon="0.12113">
        <ele>323</ele>
        <time>2018-09-30T10:15:21Z</time>
      </trkpt>
      <trkpt lat="43.2127" lon="0.12113">
        <ele>323</ele>
        <time>2018-09-30T10:15:22Z</time>
      </trkpt>
      <trkpt lat="43.21262" lon="0.12111">
        <ele>323</ele>
        <time>2018-09-30T10:15:23Z</time>
      </trkpt>
      <trkpt lat="43.21256" lon="0.1211">
        <ele>323</ele>
        <time>2018-09-30T10:15:24Z</time>
      </trkpt>
      <trkpt lat="43.2125" lon="0.12111">
        <ele>324</ele>
        <time>2018-09-30T10:15:25Z</time>
      </trkpt>
      <trkpt lat="43.21244" lon="0.1211">
        <ele>324</ele>
        <time>2018-09-30T10:15:26Z</time>
      </trkpt>
      <trkpt lat="43.21238" lon="0.1211">
        <ele>325</ele>
        <time>2018-09-30T10:15:27Z</time>
      </trkpt>
      <trkpt lat="43.21232" lon="0.12111">
        <ele>326</ele>
        <time>2018-09-30T10:15:28Z</time>
      </trkpt>
      <trkpt lat="43.21227" lon="0.12112">
        <ele>327</ele>
        <time>2018-09-30T10:15:29Z</time>
      </trkpt>
      <trkpt lat="43.21223" lon="0.12113">
        <ele>328</ele>
        <time>2018-09-30T10:15:30Z</time>
      </trkpt>
      <trkpt lat="43.21218" lon="0.12114">
        <ele>328</ele>
        <time>2018-09-30T10:15:31Z</time>
      </trkpt>
      <trkpt lat="43.21213" lon="0.12114">
        <ele>328</ele>
        <time>2018-09-30T10:15:32Z</time>
      </trkpt>
      <trkpt lat="43.21208" lon="0.12114">
        <ele>329</ele>
        <time>2018-09-30T10:15:33Z</time>
      </trkpt>
      <trkpt lat="43.21204" lon="0.12114">
        <ele>331</ele>
        <time>2018-09-30T10:15:34Z</time>
      </trkpt>
      <trkpt lat="43.21199" lon="0.12114">
        <ele>332</ele>
        <time>2018-09-30T10:15:35Z</time>
      </trkpt>
      <trkpt lat="43.21194" lon="0.12115">
        <ele>332</ele>
        <time>2018-09-30T10:15:36Z</time>
      </trkpt>
      <trkpt lat="43.21189" lon="0.12115">
        <ele>333</ele>
        <time>2018-09-30T10:15:37Z</time>
      </trkpt>
      <trkpt lat="43.21184" lon="0.12115">
        <ele>334</ele>
        <time>2018-09-30T10:15:38Z</time>
      </trkpt>
      <trkpt lat="43.21179" lon="0.12116">
        <ele>334</ele>
        <time>2018-09-30T10:15:39Z</time>
      </trkpt>
      <trkpt lat="43.21174" lon="0.12116">
        <ele>335</ele>
        <time>2018-09-30T10:15:40Z</time>
      </trkpt>
      <trkpt lat="43.21169" lon="0.12116">
        <ele>335</ele>
        <time>2018-09-30T10:15:41Z</time>
      </trkpt>
      <trkpt lat="43.21164" lon="0.12115">
        <ele>335</ele>
        <time>2018-09-30T10:15:42Z</time>
      </trkpt>
      <trkpt lat="43.21159" lon="0.12112">
        <ele>336</ele>
        <time>2018-09-30T10:15:43Z</time>
      </trkpt>
      <trkpt lat="43.21153" lon="0.12108">
        <ele>336</ele>
        <time>2018-09-30T10:15:44Z</time>
      </trkpt>
      <trkpt lat="43.21149" lon="0.12102">
        <ele>336</ele>
        <time>2018-09-30T10:15:45Z</time>
      </trkpt>
      <trkpt lat="43.21145" lon="0.12097">
        <ele>338</ele>
        <time>2018-09-30T10:15:46Z</time>
      </trkpt>
      <trkpt lat="43.21142" lon="0.12092">
        <ele>339</ele>
        <time>2018-09-30T10:15:47Z</time>
      </trkpt>
      <trkpt lat="43.21138" lon="0.12087">
        <ele>339</ele>
        <time>2018-09-30T10:15:48Z</time>
      </trkpt>
      <trkpt lat="43.21134" lon="0.12083">
        <ele>339</ele>
        <time>2018-09-30T10:15:49Z</time>
      </trkpt>
      <trkpt lat="43.21131" lon="0.12082">
        <ele>339</ele>
        <time>2018-09-30T10:15:50Z</time>
      </trkpt>
      <trkpt lat="43.21129" lon="0.12082">
        <ele>340</ele>
        <time>2018-09-30T10:15:51Z</time>
      </trkpt>
      <trkpt lat="43.21126" lon="0.12083">
        <ele>340</ele>
        <time>2018-09-30T10:15:52Z</time>
      </trkpt>
      <trkpt lat="43.21125" lon="0.12085">
        <ele>340</ele>
        <time>2018-09-30T10:15:53Z</time>
      </trkpt>
      <trkpt lat="43.21124" lon="0.12088">
        <ele>340</ele>
        <time>2018-09-30T10:15:54Z</time>
      </trkpt>
      <trkpt lat="43.21124" lon="0.12091">
        <ele>340</ele>
        <time>2018-09-30T10:15:55Z</time>
      </trkpt>
      <trkpt lat="43.21124" lon="0.12096">
        <ele>340</ele>
        <time>2018-09-30T10:15:56Z</time>
      </trkpt>
      <trkpt lat="43.21124" lon="0.121">
        <ele>340</ele>
        <time>2018-09-30T10:15:57Z</time>
      </trkpt>
      <trkpt lat="43.21124" lon="0.12105">
        <ele>340</ele>
        <time>2018-09-30T10:15:58Z</time>
      </trkpt>
      <trkpt lat="43.21125" lon="0.12111">
        <ele>340</ele>
        <time>2018-09-30T10:15:59Z</time>
      </trkpt>
      <trkpt lat="43.21126" lon="0.12117">
        <ele>340</ele>
        <time>2018-09-30T10:16:00Z</time>
      </trkpt>
      <trkpt lat="43.21127" lon="0.12123">
        <ele>340</ele>
        <time>2018-09-30T10:16:01Z</time>
      </trkpt>
      <trkpt lat="43.21126" lon="0.12127">
        <ele>340</ele>
        <time>2018-09-30T10:16:02Z</time>
      </trkpt>
      <trkpt lat="43.21127" lon="0.12131">
        <ele>340</ele>
        <time>2018-09-30T10:16:03Z</time>
      </trkpt>
      <trkpt lat="43.21127" lon="0.12136">
        <ele>340</ele>
        <time>2018-09-30T10:16:04Z</time>
      </trkpt>
      <trkpt lat="43.21126" lon="0.12141">
        <ele>340</ele>
        <time>2018-09-30T10:16:05Z</time>
      </trkpt>
      <trkpt lat="43.21125" lon="0.12145">
        <ele>340</ele>
        <time>2018-09-30T10:16:06Z</time>
      </trkpt>
      <trkpt lat="43.21124" lon="0.12149">
        <ele>340</ele>
        <time>2018-09-30T10:16:07Z</time>
      </trkpt>
      <trkpt lat="43.21121" lon="0.12152">
        <ele>340</ele>
        <time>2018-09-30T10:16:08Z</time>
      </trkpt>
      <trkpt lat="43.21118" lon="0.12155">
        <ele>340</ele>
        <time>2018-09-30T10:16:09Z</time>
      </trkpt>
      <trkpt lat="43.21115" lon="0.12158">
        <ele>340</ele>
        <time>2018-09-30T10:16:10Z</time>
      </trkpt>
      <trkpt lat="43.21112" lon="0.1216">
        <ele>340</ele>
        <time>2018-09-30T10:16:11Z</time>
      </trkpt>
      <trkpt lat="43.21108" lon="0.12162">
        <ele>340</ele>
        <time>2018-09-30T10:16:12Z</time>
      </trkpt>
      <trkpt lat="43.21104" lon="0.12163">
        <ele>340</ele>
        <time>2018-09-30T10:16:13Z</time>
      </trkpt>
      <trkpt lat="43.211" lon="0.12164">
        <ele>340</ele>
        <time>2018-09-30T10:16:14Z</time>
      </trkpt>
      <trkpt lat="43.21096" lon="0.12165">
        <ele>340</ele>
        <time>2018-09-30T10:16:15Z</time>
      </trkpt>
      <trkpt lat="43.21092" lon="0.12166">
        <ele>340</ele>
        <time>2018-09-30T10:16:16Z</time>
      </trkpt>
      <trkpt lat="43.21088" lon="0.12167">
        <ele>340</ele>
        <time>2018-09-30T10:16:17Z</time>
      </trkpt>
      <trkpt lat="43.21084" lon="0.12167">
        <ele>340</ele>
        <time>2018-09-30T10:16:18Z</time>
      </trkpt>
      <trkpt lat="43.21079" lon="0.12168">
        <ele>341</ele>
        <time>2018-09-30T10:16:19Z</time>
      </trkpt>
      <trkpt lat="43.21075" lon="0.12169">
        <ele>341</ele>
        <time>2018-09-30T10:16:20Z</time>
      </trkpt>
      <trkpt lat="43.2107" lon="0.1217">
        <ele>341</ele>
        <time>2018-09-30T10:16:21Z</time>
      </trkpt>
      <trkpt lat="43.21066" lon="0.12171">
        <ele>342</ele>
        <time>2018-09-30T10:16:22Z</time>
      </trkpt>
      <trkpt lat="43.21061" lon="0.12172">
        <ele>342</ele>
        <time>2018-09-30T10:16:23Z</time>
      </trkpt>
      <trkpt lat="43.21057" lon="0.12173">
        <ele>343</ele>
        <time>2018-09-30T10:16:24Z</time>
      </trkpt>
      <trkpt lat="43.21053" lon="0.12174">
        <ele>343</ele>
        <time>2018-09-30T10:16:25Z</time>
      </trkpt>
      <trkpt lat="43.2105" lon="0.12175">
        <ele>345</ele>
        <time>2018-09-30T10:16:26Z</time>
      </trkpt>
      <trkpt lat="43.21047" lon="0.12175">
        <ele>346</ele>
        <time>2018-09-30T10:16:27Z</time>
      </trkpt>
      <trkpt lat="43.21044" lon="0.12176">
        <ele>346</ele>
        <time>2018-09-30T10:16:28Z</time>
      </trkpt>
      <trkpt lat="43.2104" lon="0.12176">
        <ele>347</ele>
        <time>2018-09-30T10:16:29Z</time>
      </trkpt>
      <trkpt lat="43.21035" lon="0.12176">
        <ele>347</ele>
        <time>2018-09-30T10:16:30Z</time>
      </trkpt>
      <trkpt lat="43.21031" lon="0.12177">
        <ele>347</ele>
        <time>2018-09-30T10:16:31Z</time>
      </trkpt>
      <trkpt lat="43.21027" lon="0.12178">
        <ele>347</ele>
        <time>2018-09-30T10:16:32Z</time>
      </trkpt>
      <trkpt lat="43.21023" lon="0.12179">
        <ele>348</ele>
        <time>2018-09-30T10:16:33Z</time>
      </trkpt>
      <trkpt lat="43.21019" lon="0.12181">
        <ele>348</ele>
        <time>2018-09-30T10:16:34Z</time>
      </trkpt>
      <trkpt lat="43.21014" lon="0.12183">
        <ele>348</ele>
        <time>2018-09-30T10:16:35Z</time>
      </trkpt>
      <trkpt lat="43.2101" lon="0.12184">
        <ele>349</ele>
        <time>2018-09-30T10:16:36Z</time>
      </trkpt>
      <trkpt lat="43.21006" lon="0.12185">
        <ele>349</ele>
        <time>2018-09-30T10:16:37Z</time>
      </trkpt>
      <trkpt lat="43.21002" lon="0.12186">
        <ele>349</ele>
        <time>2018-09-30T10:16:38Z</time>
      </trkpt>
      <trkpt lat="43.20998" lon="0.12187">
        <ele>349</ele>
        <time>2018-09-30T10:16:39Z</time>
      </trkpt>
      <trkpt lat="43.20994" lon="0.12187">
        <ele>349</ele>
        <time>2018-09-30T10:16:40Z</time>
      </trkpt>
      <trkpt lat="43.20989" lon="0.12187">
        <ele>351</ele>
        <time>2018-09-30T10:16:41Z</time>
      </trkpt>
      <trkpt lat="43.20985" lon="0.12187">
        <ele>351</ele>
        <time>2018-09-30T10:16:42Z</time>
      </trkpt>
      <trkpt lat="43.2098" lon="0.12187">
        <ele>352</ele>
        <time>2018-09-30T10:16:43Z</time>
      </trkpt>
      <trkpt lat="43.20976" lon="0.12187">
        <ele>352</ele>
        <time>2018-09-30T10:16:44Z</time>
      </trkpt>
      <trkpt lat="43.20972" lon="0.12187">
        <ele>352</ele>
        <time>2018-09-30T10:16:45Z</time>
      </trkpt>
      <trkpt lat="43.20967" lon="0.12186">
        <ele>352</ele>
        <time>2018-09-30T10:16:46Z</time>
      </trkpt>
      <trkpt lat="43.20962" lon="0.12186">
        <ele>352</ele>
        <time>2018-09-30T10:16:47Z</time>
      </trkpt>
      <trkpt lat="43.20958" lon="0.12186">
        <ele>353</ele>
        <time>2018-09-30T10:16:48Z</time>
      </trkpt>
      <trkpt lat="43.20953" lon="0.12185">
        <ele>353</ele>
        <time>2018-09-30T10:16:49Z</time>
      </trkpt>
      <trkpt lat="43.20948" lon="0.12185">
        <ele>353</ele>
        <time>2018-09-30T10:16:50Z</time>
      </trkpt>
      <trkpt lat="43.20943" lon="0.12184">
        <ele>353</ele>
        <time>2018-09-30T10:16:51Z</time>
      </trkpt>
      <trkpt lat="43.20939" lon="0.12184">
        <ele>353</ele>
        <time>2018-09-30T10:16:52Z</time>
      </trkpt>
      <trkpt lat="43.20933" lon="0.12184">
        <ele>353</ele>
        <time>2018-09-30T10:16:53Z</time>
      </trkpt>
      <trkpt lat="43.20928" lon="0.12183">
        <ele>353</ele>
        <time>2018-09-30T10:16:54Z</time>
      </trkpt>
      <trkpt lat="43.20924" lon="0.12182">
        <ele>353</ele>
        <time>2018-09-30T10:16:55Z</time>
      </trkpt>
      <trkpt lat="43.20919" lon="0.12182">
        <ele>353</ele>
        <time>2018-09-30T10:16:56Z</time>
      </trkpt>
      <trkpt lat="43.20914" lon="0.12181">
        <ele>353</ele>
        <time>2018-09-30T10:16:57Z</time>
      </trkpt>
      <trkpt lat="43.20909" lon="0.1218">
        <ele>353</ele>
        <time>2018-09-30T10:16:58Z</time>
      </trkpt>
      <trkpt lat="43.20904" lon="0.1218">
        <ele>353</ele>
        <time>2018-09-30T10:16:59Z</time>
      </trkpt>
      <trkpt lat="43.20899" lon="0.12179">
        <ele>353</ele>
        <time>2018-09-30T10:17:00Z</time>
      </trkpt>
      <trkpt lat="43.20895" lon="0.12179">
        <ele>353</ele>
        <time>2018-09-30T10:17:01Z</time>
      </trkpt>
      <trkpt lat="43.2089" lon="0.12178">
        <ele>353</ele>
        <time>2018-09-30T10:17:02Z</time>
      </trkpt>
      <trkpt lat="43.20886" lon="0.12178">
        <ele>353</ele>
        <time>2018-09-30T10:17:03Z</time>
      </trkpt>
      <trkpt lat="43.20881" lon="0.12178">
        <ele>353</ele>
        <time>2018-09-30T10:17:04Z</time>
      </trkpt>
      <trkpt lat="43.20877" lon="0.12178">
        <ele>353</ele>
        <time>2018-09-30T10:17:05Z</time>
      </trkpt>
      <trkpt lat="43.20872" lon="0.12178">
        <ele>353</ele>
        <time>2018-09-30T10:17:06Z</time>
      </trkpt>
      <trkpt lat="43.20868" lon="0.12179">
        <ele>353</ele>
        <time>2018-09-30T10:17:07Z</time>
      </trkpt>
      <trkpt lat="43.20864" lon="0.1218">
        <ele>353</ele>
        <time>2018-09-30T10:17:08Z</time>
      </trkpt>
      <trkpt lat="43.20859" lon="0.12181">
        <ele>353</ele>
        <time>2018-09-30T10:17:09Z</time>
      </trkpt>
      <trkpt lat="43.20854" lon="0.12183">
        <ele>353</ele>
        <time>2018-09-30T10:17:10Z</time>
      </trkpt>
      <trkpt lat="43.20849" lon="0.12184">
        <ele>353</ele>
        <time>2018-09-30T10:17:11Z</time>
      </trkpt>
      <trkpt lat="43.20844" lon="0.12186">
        <ele>353</ele>
        <time>2018-09-30T10:17:12Z</time>
      </trkpt>
      <trkpt lat="43.20839" lon="0.12188">
        <ele>353</ele>
        <time>2018-09-30T10:17:13Z</time>
      </trkpt>
      <trkpt lat="43.20834" lon="0.12189">
        <ele>353</ele>
        <time>2018-09-30T10:17:14Z</time>
      </trkpt>
      <trkpt lat="43.20829" lon="0.12191">
        <ele>353</ele>
        <time>2018-09-30T10:17:15Z</time>
      </trkpt>
      <trkpt lat="43.20825" lon="0.12193">
        <ele>353</ele>
        <time>2018-09-30T10:17:16Z</time>
      </trkpt>
      <trkpt lat="43.20821" lon="0.12195">
        <ele>353</ele>
        <time>2018-09-30T10:17:17Z</time>
      </trkpt>
      <trkpt lat="43.20816" lon="0.12197">
        <ele>353</ele>
        <time>2018-09-30T10:17:18Z</time>
      </trkpt>
      <trkpt lat="43.20811" lon="0.12199">
        <ele>353</ele>
        <time>2018-09-30T10:17:19Z</time>
      </trkpt>
      <trkpt lat="43.20806" lon="0.12201">
        <ele>353</ele>
        <time>2018-09-30T10:17:20Z</time>
      </trkpt>
      <trkpt lat="43.20802" lon="0.12203">
        <ele>353</ele>
        <time>2018-09-30T10:17:21Z</time>
      </trkpt>
      <trkpt lat="43.20797" lon="0.12206">
        <ele>353</ele>
        <time>2018-09-30T10:17:22Z</time>
      </trkpt>
      <trkpt lat="43.20793" lon="0.12208">
        <ele>353</ele>
        <time>2018-09-30T10:17:23Z</time>
      </trkpt>
      <trkpt lat="43.20788" lon="0.1221">
        <ele>353</ele>
        <time>2018-09-30T10:17:24Z</time>
      </trkpt>
      <trkpt lat="43.20783" lon="0.12211">
        <ele>352</ele>
        <time>2018-09-30T10:17:25Z</time>
      </trkpt>
      <trkpt lat="43.20778" lon="0.12213">
        <ele>352</ele>
        <time>2018-09-30T10:17:26Z</time>
      </trkpt>
      <trkpt lat="43.20774" lon="0.12215">
        <ele>352</ele>
        <time>2018-09-30T10:17:27Z</time>
      </trkpt>
      <trkpt lat="43.20769" lon="0.12218">
        <ele>352</ele>
        <time>2018-09-30T10:17:28Z</time>
      </trkpt>
      <trkpt lat="43.20765" lon="0.1222">
        <ele>352</ele>
        <time>2018-09-30T10:17:29Z</time>
      </trkpt>
      <trkpt lat="43.2076" lon="0.12222">
        <ele>352</ele>
        <time>2018-09-30T10:17:30Z</time>
      </trkpt>
      <trkpt lat="43.20756" lon="0.12225">
        <ele>353</ele>
        <time>2018-09-30T10:17:31Z</time>
      </trkpt>
      <trkpt lat="43.20751" lon="0.12227">
        <ele>353</ele>
        <time>2018-09-30T10:17:32Z</time>
      </trkpt>
      <trkpt lat="43.20747" lon="0.12229">
        <ele>353</ele>
        <time>2018-09-30T10:17:33Z</time>
      </trkpt>
      <trkpt lat="43.20742" lon="0.12231">
        <ele>353</ele>
        <time>2018-09-30T10:17:34Z</time>
      </trkpt>
      <trkpt lat="43.20738" lon="0.12233">
        <ele>353</ele>
        <time>2018-09-30T10:17:35Z</time>
      </trkpt>
      <trkpt lat="43.20733" lon="0.12235">
        <ele>353</ele>
        <time>2018-09-30T10:17:36Z</time>
      </trkpt>
      <trkpt lat="43.20729" lon="0.12237">
        <ele>353</ele>
        <time>2018-09-30T10:17:37Z</time>
      </trkpt>
      <trkpt lat="43.20724" lon="0.12239">
        <ele>353</ele>
        <time>2018-09-30T10:17:38Z</time>
      </trkpt>
      <trkpt lat="43.20719" lon="0.12241">
        <ele>353</ele>
        <time>2018-09-30T10:17:39Z</time>
      </trkpt>
      <trkpt lat="43.20714" lon="0.12242">
        <ele>353</ele>
        <time>2018-09-30T10:17:40Z</time>
      </trkpt>
      <trkpt lat="43.2071" lon="0.12244">
        <ele>354</ele>
        <time>2018-09-30T10:17:41Z</time>
      </trkpt>
      <trkpt lat="43.20705" lon="0.12246">
        <ele>354</ele>
        <time>2018-09-30T10:17:42Z</time>
      </trkpt>
      <trkpt lat="43.207" lon="0.12248">
        <ele>355</ele>
        <time>2018-09-30T10:17:43Z</time>
      </trkpt>
      <trkpt lat="43.20696" lon="0.1225">
        <ele>355</ele>
        <time>2018-09-30T10:17:44Z</time>
      </trkpt>
      <trkpt lat="43.20692" lon="0.12252">
        <ele>355</ele>
        <time>2018-09-30T10:17:45Z</time>
      </trkpt>
      <trkpt lat="43.20687" lon="0.12254">
        <ele>356</ele>
        <time>2018-09-30T10:17:46Z</time>
      </trkpt>
      <trkpt lat="43.20682" lon="0.12255">
        <ele>356</ele>
        <time>2018-09-30T10:17:47Z</time>
      </trkpt>
      <trkpt lat="43.20677" lon="0.12258">
        <ele>356</ele>
        <time>2018-09-30T10:17:48Z</time>
      </trkpt>
      <trkpt lat="43.20672" lon="0.1226">
        <ele>356</ele>
        <time>2018-09-30T10:17:49Z</time>
      </trkpt>
      <trkpt lat="43.20667" lon="0.12262">
        <ele>356</ele>
        <time>2018-09-30T10:17:50Z</time>
      </trkpt>
      <trkpt lat="43.20661" lon="0.12266">
        <ele>356</ele>
        <time>2018-09-30T10:17:51Z</time>
      </trkpt>
      <trkpt lat="43.20656" lon="0.12269">
        <ele>356</ele>
        <time>2018-09-30T10:17:52Z</time>
      </trkpt>
      <trkpt lat="43.2065" lon="0.12273">
        <ele>356</ele>
        <time>2018-09-30T10:17:53Z</time>
      </trkpt>
      <trkpt lat="43.20645" lon="0.12277">
        <ele>357</ele>
        <time>2018-09-30T10:17:54Z</time>
      </trkpt>
      <trkpt lat="43.20638" lon="0.12282">
        <ele>357</ele>
        <time>2018-09-30T10:17:55Z</time>
      </trkpt>
      <trkpt lat="43.20632" lon="0.12287">
        <ele>357</ele>
        <time>2018-09-30T10:17:56Z</time>
      </trkpt>
      <trkpt lat="43.20625" lon="0.12292">
        <ele>357</ele>
        <time>2018-09-30T10:17:57Z</time>
      </trkpt>
      <trkpt lat="43.20618" lon="0.12298">
        <ele>357</ele>
        <time>2018-09-30T10:17:58Z</time>
      </trkpt>
      <trkpt lat="43.2061" lon="0.12303">
        <ele>357</ele>
        <time>2018-09-30T10:17:59Z</time>
      </trkpt>
      <trkpt lat="43.20602" lon="0.12307">
        <ele>357</ele>
        <time>2018-09-30T10:18:00Z</time>
      </trkpt>
      <trkpt lat="43.20595" lon="0.12311">
        <ele>357</ele>
        <time>2018-09-30T10:18:01Z</time>
      </trkpt>
      <trkpt lat="43.20587" lon="0.12315">
        <ele>357</ele>
        <time>2018-09-30T10:18:02Z</time>
      </trkpt>
      <trkpt lat="43.2058" lon="0.12317">
        <ele>357</ele>
        <time>2018-09-30T10:18:03Z</time>
      </trkpt>
      <trkpt lat="43.20572" lon="0.12319">
        <ele>357</ele>
        <time>2018-09-30T10:18:04Z</time>
      </trkpt>
      <trkpt lat="43.20564" lon="0.12321">
        <ele>357</ele>
        <time>2018-09-30T10:18:05Z</time>
      </trkpt>
      <trkpt lat="43.20557" lon="0.12323">
        <ele>357</ele>
        <time>2018-09-30T10:18:06Z</time>
      </trkpt>
      <trkpt lat="43.20549" lon="0.12324">
        <ele>357</ele>
        <time>2018-09-30T10:18:07Z</time>
      </trkpt>
      <trkpt lat="43.20542" lon="0.12324">
        <ele>357</ele>
        <time>2018-09-30T10:18:08Z</time>
      </trkpt>
      <trkpt lat="43.20535" lon="0.12323">
        <ele>357</ele>
        <time>2018-09-30T10:18:09Z</time>
      </trkpt>
      <trkpt lat="43.20529" lon="0.1232">
        <ele>357</ele>
        <time>2018-09-30T10:18:10Z</time>
      </trkpt>
      <trkpt lat="43.20524" lon="0.12316">
        <ele>357</ele>
        <time>2018-09-30T10:18:11Z</time>
      </trkpt>
      <trkpt lat="43.20521" lon="0.12309">
        <ele>356</ele>
        <time>2018-09-30T10:18:12Z</time>
      </trkpt>
      <trkpt lat="43.20519" lon="0.123">
        <ele>356</ele>
        <time>2018-09-30T10:18:13Z</time>
      </trkpt>
      <trkpt lat="43.20516" lon="0.12289">
        <ele>356</ele>
        <time>2018-09-30T10:18:14Z</time>
      </trkpt>
      <trkpt lat="43.20511" lon="0.1228">
        <ele>356</ele>
        <time>2018-09-30T10:18:15Z</time>
      </trkpt>
      <trkpt lat="43.20507" lon="0.12271">
        <ele>355</ele>
        <time>2018-09-30T10:18:16Z</time>
      </trkpt>
      <trkpt lat="43.20502" lon="0.12262">
        <ele>355</ele>
        <time>2018-09-30T10:18:17Z</time>
      </trkpt>
      <trkpt lat="43.20498" lon="0.12254">
        <ele>353</ele>
        <time>2018-09-30T10:18:18Z</time>
      </trkpt>
      <trkpt lat="43.20493" lon="0.12247">
        <ele>353</ele>
        <time>2018-09-30T10:18:19Z</time>
      </trkpt>
      <trkpt lat="43.20489" lon="0.1224">
        <ele>353</ele>
        <time>2018-09-30T10:18:20Z</time>
      </trkpt>
      <trkpt lat="43.20484" lon="0.12234">
        <ele>352</ele>
        <time>2018-09-30T10:18:21Z</time>
      </trkpt>
      <trkpt lat="43.2048" lon="0.12231">
        <ele>352</ele>
        <time>2018-09-30T10:18:22Z</time>
      </trkpt>
      <trkpt lat="43.20477" lon="0.12229">
        <ele>352</ele>
        <time>2018-09-30T10:18:23Z</time>
      </trkpt>
      <trkpt lat="43.20473" lon="0.12227">
        <ele>352</ele>
        <time>2018-09-30T10:18:24Z</time>
      </trkpt>
      <trkpt lat="43.2047" lon="0.12227">
        <ele>352</ele>
        <time>2018-09-30T10:18:25Z</time>
      </trkpt>
      <trkpt lat="43.20467" lon="0.12229">
        <ele>352</ele>
        <time>2018-09-30T10:18:26Z</time>
      </trkpt>
      <trkpt lat="43.20465" lon="0.12232">
        <ele>352</ele>
        <time>2018-09-30T10:18:27Z</time>
      </trkpt>
      <trkpt lat="43.20462" lon="0.12234">
        <ele>352</ele>
        <time>2018-09-30T10:18:28Z</time>
      </trkpt>
      <trkpt lat="43.2046" lon="0.12237">
        <ele>352</ele>
        <time>2018-09-30T10:18:29Z</time>
      </trkpt>
      <trkpt lat="43.20459" lon="0.12242">
        <ele>352</ele>
        <time>2018-09-30T10:18:30Z</time>
      </trkpt>
      <trkpt lat="43.20458" lon="0.12247">
        <ele>352</ele>
        <time>2018-09-30T10:18:31Z</time>
      </trkpt>
      <trkpt lat="43.20457" lon="0.12254">
        <ele>352</ele>
        <time>2018-09-30T10:18:32Z</time>
      </trkpt>
      <trkpt lat="43.20456" lon="0.12259">
        <ele>352</ele>
        <time>2018-09-30T10:18:33Z</time>
      </trkpt>
      <trkpt lat="43.20455" lon="0.12265">
        <ele>352</ele>
        <time>2018-09-30T10:18:34Z</time>
      </trkpt>
      <trkpt lat="43.20455" lon="0.12271">
        <ele>352</ele>
        <time>2018-09-30T10:18:35Z</time>
      </trkpt>
      <trkpt lat="43.20454" lon="0.12277">
        <ele>352</ele>
        <time>2018-09-30T10:18:36Z</time>
      </trkpt>
      <trkpt lat="43.20454" lon="0.12283">
        <ele>352</ele>
        <time>2018-09-30T10:18:37Z</time>
      </trkpt>
      <trkpt lat="43.20454" lon="0.12289">
        <ele>352</ele>
        <time>2018-09-30T10:18:38Z</time>
      </trkpt>
      <trkpt lat="43.20454" lon="0.12295">
        <ele>352</ele>
        <time>2018-09-30T10:18:39Z</time>
      </trkpt>
      <trkpt lat="43.20454" lon="0.123">
        <ele>352</ele>
        <time>2018-09-30T10:18:40Z</time>
      </trkpt>
      <trkpt lat="43.20453" lon="0.12305">
        <ele>352</ele>
        <time>2018-09-30T10:18:41Z</time>
      </trkpt>
      <trkpt lat="43.2045" lon="0.12309">
        <ele>352</ele>
        <time>2018-09-30T10:18:42Z</time>
      </trkpt>
      <trkpt lat="43.20446" lon="0.12313">
        <ele>353</ele>
        <time>2018-09-30T10:18:43Z</time>
      </trkpt>
      <trkpt lat="43.20442" lon="0.12316">
        <ele>353</ele>
        <time>2018-09-30T10:18:44Z</time>
      </trkpt>
      <trkpt lat="43.20438" lon="0.1232">
        <ele>353</ele>
        <time>2018-09-30T10:18:45Z</time>
      </trkpt>
      <trkpt lat="43.20435" lon="0.12323">
        <ele>353</ele>
        <time>2018-09-30T10:18:46Z</time>
      </trkpt>
      <trkpt lat="43.20431" lon="0.12326">
        <ele>353</ele>
        <time>2018-09-30T10:18:47Z</time>
      </trkpt>
      <trkpt lat="43.20427" lon="0.12328">
        <ele>353</ele>
        <time>2018-09-30T10:18:48Z</time>
      </trkpt>
      <trkpt lat="43.20423" lon="0.12329">
        <ele>353</ele>
        <time>2018-09-30T10:18:49Z</time>
      </trkpt>
      <trkpt lat="43.20418" lon="0.1233">
        <ele>353</ele>
        <time>2018-09-30T10:18:50Z</time>
      </trkpt>
      <trkpt lat="43.20413" lon="0.1233">
        <ele>353</ele>
        <time>2018-09-30T10:18:51Z</time>
      </trkpt>
      <trkpt lat="43.20409" lon="0.12331">
        <ele>353</ele>
        <time>2018-09-30T10:18:52Z</time>
      </trkpt>
      <trkpt lat="43.20404" lon="0.12331">
        <ele>353</ele>
        <time>2018-09-30T10:18:53Z</time>
      </trkpt>
      <trkpt lat="43.20399" lon="0.12332">
        <ele>354</ele>
        <time>2018-09-30T10:18:54Z</time>
      </trkpt>
      <trkpt lat="43.20393" lon="0.12333">
        <ele>354</ele>
        <time>2018-09-30T10:18:55Z</time>
      </trkpt>
      <trkpt lat="43.20388" lon="0.12335">
        <ele>354</ele>
        <time>2018-09-30T10:18:56Z</time>
      </trkpt>
      <trkpt lat="43.20383" lon="0.12335">
        <ele>354</ele>
        <time>2018-09-30T10:18:57Z</time>
      </trkpt>
      <trkpt lat="43.20378" lon="0.12336">
        <ele>354</ele>
        <time>2018-09-30T10:18:58Z</time>
      </trkpt>
      <trkpt lat="43.20372" lon="0.12336">
        <ele>354</ele>
        <time>2018-09-30T10:18:59Z</time>
      </trkpt>
      <trkpt lat="43.20367" lon="0.12337">
        <ele>354</ele>
        <time>2018-09-30T10:19:00Z</time>
      </trkpt>
      <trkpt lat="43.20362" lon="0.12337">
        <ele>354</ele>
        <time>2018-09-30T10:19:01Z</time>
      </trkpt>
      <trkpt lat="43.20357" lon="0.12338">
        <ele>354</ele>
        <time>2018-09-30T10:19:02Z</time>
      </trkpt>
      <trkpt lat="43.20351" lon="0.12339">
        <ele>354</ele>
        <time>2018-09-30T10:19:03Z</time>
      </trkpt>
      <trkpt lat="43.20346" lon="0.12339">
        <ele>354</ele>
        <time>2018-09-30T10:19:04Z</time>
      </trkpt>
      <trkpt lat="43.20341" lon="0.1234">
        <ele>354</ele>
        <time>2018-09-30T10:19:05Z</time>
      </trkpt>
      <trkpt lat="43.20336" lon="0.1234">
        <ele>354</ele>
        <time>2018-09-30T10:19:06Z</time>
      </trkpt>
      <trkpt lat="43.20331" lon="0.12341">
        <ele>354</ele>
        <time>2018-09-30T10:19:07Z</time>
      </trkpt>
      <trkpt lat="43.20327" lon="0.12341">
        <ele>354</ele>
        <time>2018-09-30T10:19:08Z</time>
      </trkpt>
      <trkpt lat="43.20322" lon="0.12341">
        <ele>354</ele>
        <time>2018-09-30T10:19:09Z</time>
      </trkpt>
      <trkpt lat="43.20318" lon="0.12341">
        <ele>354</ele>
        <time>2018-09-30T10:19:10Z</time>
      </trkpt>
      <trkpt lat="43.20313" lon="0.12342">
        <ele>354</ele>
        <time>2018-09-30T10:19:11Z</time>
      </trkpt>
      <trkpt lat="43.20309" lon="0.12342">
        <ele>354</ele>
        <time>2018-09-30T10:19:12Z</time>
      </trkpt>
      <trkpt lat="43.20304" lon="0.12342">
        <ele>354</ele>
        <time>2018-09-30T10:19:13Z</time>
      </trkpt>
      <trkpt lat="43.20299" lon="0.12342">
        <ele>354</ele>
        <time>2018-09-30T10:19:14Z</time>
      </trkpt>
      <trkpt lat="43.20295" lon="0.12343">
        <ele>354</ele>
        <time>2018-09-30T10:19:15Z</time>
      </trkpt>
      <trkpt lat="43.2029" lon="0.12343">
        <ele>354</ele>
        <time>2018-09-30T10:19:16Z</time>
      </trkpt>
      <trkpt lat="43.20285" lon="0.12344">
        <ele>354</ele>
        <time>2018-09-30T10:19:17Z</time>
      </trkpt>
      <trkpt lat="43.20281" lon="0.12345">
        <ele>354</ele>
        <time>2018-09-30T10:19:18Z</time>
      </trkpt>
      <trkpt lat="43.20276" lon="0.12345">
        <ele>354</ele>
        <time>2018-09-30T10:19:19Z</time>
      </trkpt>
      <trkpt lat="43.20272" lon="0.12346">
        <ele>354</ele>
        <time>2018-09-30T10:19:20Z</time>
      </trkpt>
      <trkpt lat="43.20268" lon="0.12347">
        <ele>354</ele>
        <time>2018-09-30T10:19:21Z</time>
      </trkpt>
      <trkpt lat="43.20263" lon="0.12347">
        <ele>354</ele>
        <time>2018-09-30T10:19:22Z</time>
      </trkpt>
      <trkpt lat="43.20259" lon="0.12347">
        <ele>354</ele>
        <time>2018-09-30T10:19:23Z</time>
      </trkpt>
      <trkpt lat="43.20255" lon="0.12348">
        <ele>354</ele>
        <time>2018-09-30T10:19:24Z</time>
      </trkpt>
      <trkpt lat="43.2025" lon="0.12348">
        <ele>354</ele>
        <time>2018-09-30T10:19:25Z</time>
      </trkpt>
      <trkpt lat="43.20246" lon="0.12348">
        <ele>355</ele>
        <time>2018-09-30T10:19:26Z</time>
      </trkpt>
      <trkpt lat="43.20242" lon="0.12349">
        <ele>355</ele>
        <time>2018-09-30T10:19:27Z</time>
      </trkpt>
      <trkpt lat="43.20237" lon="0.12349">
        <ele>355</ele>
        <time>2018-09-30T10:19:28Z</time>
      </trkpt>
      <trkpt lat="43.20233" lon="0.1235">
        <ele>355</ele>
        <time>2018-09-30T10:19:29Z</time>
      </trkpt>
      <trkpt lat="43.20229" lon="0.1235">
        <ele>355</ele>
        <time>2018-09-30T10:19:30Z</time>
      </trkpt>
      <trkpt lat="43.20224" lon="0.12351">
        <ele>355</ele>
        <time>2018-09-30T10:19:31Z</time>
      </trkpt>
      <trkpt lat="43.2022" lon="0.12351">
        <ele>355</ele>
        <time>2018-09-30T10:19:32Z</time>
      </trkpt>
      <trkpt lat="43.20215" lon="0.12352">
        <ele>356</ele>
        <time>2018-09-30T10:19:33Z</time>
      </trkpt>
      <trkpt lat="43.20211" lon="0.12352">
        <ele>356</ele>
        <time>2018-09-30T10:19:34Z</time>
      </trkpt>
      <trkpt lat="43.20207" lon="0.12353">
        <ele>356</ele>
        <time>2018-09-30T10:19:35Z</time>
      </trkpt>
      <trkpt lat="43.20204" lon="0.12354">
        <ele>356</ele>
        <time>2018-09-30T10:19:36Z</time>
      </trkpt>
      <trkpt lat="43.202" lon="0.12353">
        <ele>356</ele>
        <time>2018-09-30T10:19:37Z</time>
      </trkpt>
      <trkpt lat="43.20196" lon="0.12354">
        <ele>356</ele>
        <time>2018-09-30T10:19:38Z</time>
      </trkpt>
      <trkpt lat="43.20192" lon="0.12354">
        <ele>356</ele>
        <time>2018-09-30T10:19:39Z</time>
      </trkpt>
      <trkpt lat="43.20187" lon="0.12354">
        <ele>356</ele>
        <time>2018-09-30T10:19:40Z</time>
      </trkpt>
      <trkpt lat="43.20183" lon="0.12355">
        <ele>357</ele>
        <time>2018-09-30T10:19:41Z</time>
      </trkpt>
      <trkpt lat="43.20179" lon="0.12355">
        <ele>357</ele>
        <time>2018-09-30T10:19:42Z</time>
      </trkpt>
      <trkpt lat="43.20175" lon="0.12356">
        <ele>357</ele>
        <time>2018-09-30T10:19:43Z</time>
      </trkpt>
      <trkpt lat="43.2017" lon="0.12356">
        <ele>357</ele>
        <time>2018-09-30T10:19:44Z</time>
      </trkpt>
      <trkpt lat="43.20166" lon="0.12356">
        <ele>357</ele>
        <time>2018-09-30T10:19:45Z</time>
      </trkpt>
      <trkpt lat="43.20162" lon="0.12357">
        <ele>358</ele>
        <time>2018-09-30T10:19:46Z</time>
      </trkpt>
      <trkpt lat="43.20157" lon="0.12357">
        <ele>358</ele>
        <time>2018-09-30T10:19:47Z</time>
      </trkpt>
      <trkpt lat="43.20152" lon="0.12357">
        <ele>358</ele>
        <time>2018-09-30T10:19:48Z</time>
      </trkpt>
      <trkpt lat="43.20147" lon="0.12357">
        <ele>359</ele>
        <time>2018-09-30T10:19:49Z</time>
      </trkpt>
      <trkpt lat="43.20143" lon="0.12358">
        <ele>359</ele>
        <time>2018-09-30T10:19:50Z</time>
      </trkpt>
      <trkpt lat="43.20138" lon="0.12358">
        <ele>359</ele>
        <time>2018-09-30T10:19:51Z</time>
      </trkpt>
      <trkpt lat="43.20134" lon="0.12358">
        <ele>359</ele>
        <time>2018-09-30T10:19:52Z</time>
      </trkpt>
      <trkpt lat="43.2013" lon="0.12358">
        <ele>359</ele>
        <time>2018-09-30T10:19:53Z</time>
      </trkpt>
      <trkpt lat="43.20126" lon="0.12358">
        <ele>360</ele>
        <time>2018-09-30T10:19:54Z</time>
      </trkpt>
      <trkpt lat="43.20122" lon="0.12359">
        <ele>360</ele>
        <time>2018-09-30T10:19:55Z</time>
      </trkpt>
      <trkpt lat="43.20117" lon="0.1236">
        <ele>360</ele>
        <time>2018-09-30T10:19:56Z</time>
      </trkpt>
      <trkpt lat="43.20113" lon="0.1236">
        <ele>360</ele>
        <time>2018-09-30T10:19:57Z</time>
      </trkpt>
      <trkpt lat="43.20109" lon="0.12361">
        <ele>360</ele>
        <time>2018-09-30T10:19:58Z</time>
      </trkpt>
      <trkpt lat="43.20104" lon="0.12362">
        <ele>360</ele>
        <time>2018-09-30T10:19:59Z</time>
      </trkpt>
      <trkpt lat="43.201" lon="0.12362">
        <ele>361</ele>
        <time>2018-09-30T10:20:00Z</time>
      </trkpt>
      <trkpt lat="43.20095" lon="0.12362">
        <ele>361</ele>
        <time>2018-09-30T10:20:01Z</time>
      </trkpt>
      <trkpt lat="43.20091" lon="0.12363">
        <ele>361</ele>
        <time>2018-09-30T10:20:02Z</time>
      </trkpt>
      <trkpt lat="43.20086" lon="0.12363">
        <ele>361</ele>
        <time>2018-09-30T10:20:03Z</time>
      </trkpt>
      <trkpt lat="43.20082" lon="0.12364">
        <ele>361</ele>
        <time>2018-09-30T10:20:04Z</time>
      </trkpt>
      <trkpt lat="43.20078" lon="0.12364">
        <ele>361</ele>
        <time>2018-09-30T10:20:05Z</time>
      </trkpt>
      <trkpt lat="43.20073" lon="0.12364">
        <ele>361</ele>
        <time>2018-09-30T10:20:06Z</time>
      </trkpt>
      <trkpt lat="43.20069" lon="0.12365">
        <ele>362</ele>
        <time>2018-09-30T10:20:07Z</time>
      </trkpt>
      <trkpt lat="43.20064" lon="0.12365">
        <ele>362</ele>
        <time>2018-09-30T10:20:08Z</time>
      </trkpt>
      <trkpt lat="43.2006" lon="0.12365">
        <ele>362</ele>
        <time>2018-09-30T10:20:09Z</time>
      </trkpt>
      <trkpt lat="43.20055" lon="0.12366">
        <ele>362</ele>
        <time>2018-09-30T10:20:10Z</time>
      </trkpt>
      <trkpt lat="43.20051" lon="0.12366">
        <ele>362</ele>
        <time>2018-09-30T10:20:11Z</time>
      </trkpt>
      <trkpt lat="43.20046" lon="0.12366">
        <ele>362</ele>
        <time>2018-09-30T10:20:12Z</time>
      </trkpt>
      <trkpt lat="43.20042" lon="0.12366">
        <ele>362</ele>
        <time>2018-09-30T10:20:13Z</time>
      </trkpt>
      <trkpt lat="43.20037" lon="0.12367">
        <ele>363</ele>
        <time>2018-09-30T10:20:14Z</time>
      </trkpt>
      <trkpt lat="43.20033" lon="0.12367">
        <ele>363</ele>
        <time>2018-09-30T10:20:15Z</time>
      </trkpt>
      <trkpt lat="43.20028" lon="0.12366">
        <ele>363</ele>
        <time>2018-09-30T10:20:16Z</time>
      </trkpt>
      <trkpt lat="43.20024" lon="0.12366">
        <ele>363</ele>
        <time>2018-09-30T10:20:17Z</time>
      </trkpt>
      <trkpt lat="43.2002" lon="0.12365">
        <ele>363</ele>
        <time>2018-09-30T10:20:18Z</time>
      </trkpt>
      <trkpt lat="43.20015" lon="0.12365">
        <ele>363</ele>
        <time>2018-09-30T10:20:19Z</time>
      </trkpt>
      <trkpt lat="43.20011" lon="0.12365">
        <ele>363</ele>
        <time>2018-09-30T10:20:20Z</time>
      </trkpt>
      <trkpt lat="43.20007" lon="0.12366">
        <ele>363</ele>
        <time>2018-09-30T10:20:21Z</time>
      </trkpt>
      <trkpt lat="43.20003" lon="0.12367">
        <ele>363</ele>
        <time>2018-09-30T10:20:22Z</time>
      </trkpt>
      <trkpt lat="43.19998" lon="0.12368">
        <ele>363</ele>
        <time>2018-09-30T10:20:23Z</time>
      </trkpt>
      <trkpt lat="43.19994" lon="0.12368">
        <ele>363</ele>
        <time>2018-09-30T10:20:24Z</time>
      </trkpt>
      <trkpt lat="43.19991" lon="0.12369">
        <ele>363</ele>
        <time>2018-09-30T10:20:25Z</time>
      </trkpt>
      <trkpt lat="43.19988" lon="0.12371">
        <ele>363</ele>
        <time>2018-09-30T10:20:26Z</time>
      </trkpt>
      <trkpt lat="43.19985" lon="0.12374">
        <ele>363</ele>
        <time>2018-09-30T10:20:27Z</time>
      </trkpt>
      <trkpt lat="43.19983" lon="0.12377">
        <ele>363</ele>
        <time>2018-09-30T10:20:28Z</time>
      </trkpt>
      <trkpt lat="43.19982" lon="0.12381">
        <ele>363</ele>
        <time>2018-09-30T10:20:29Z</time>
      </trkpt>
      <trkpt lat="43.19982" lon="0.12386">
        <ele>363</ele>
        <time>2018-09-30T10:20:30Z</time>
      </trkpt>
      <trkpt lat="43.19983" lon="0.1239">
        <ele>363</ele>
        <time>2018-09-30T10:20:31Z</time>
      </trkpt>
      <trkpt lat="43.19984" lon="0.12395">
        <ele>363</ele>
        <time>2018-09-30T10:20:32Z</time>
      </trkpt>
      <trkpt lat="43.19986" lon="0.124">
        <ele>363</ele>
        <time>2018-09-30T10:20:33Z</time>
      </trkpt>
      <trkpt lat="43.19989" lon="0.12404">
        <ele>363</ele>
        <time>2018-09-30T10:20:34Z</time>
      </trkpt>
      <trkpt lat="43.19991" lon="0.12408">
        <ele>363</ele>
        <time>2018-09-30T10:20:35Z</time>
      </trkpt>
      <trkpt lat="43.19993" lon="0.12412">
        <ele>363</ele>
        <time>2018-09-30T10:20:36Z</time>
      </trkpt>
      <trkpt lat="43.19995" lon="0.12416">
        <ele>363</ele>
        <time>2018-09-30T10:20:37Z</time>
      </trkpt>
      <trkpt lat="43.19996" lon="0.1242">
        <ele>363</ele>
        <time>2018-09-30T10:20:38Z</time>
      </trkpt>
      <trkpt lat="43.19996" lon="0.12424">
        <ele>363</ele>
        <time>2018-09-30T10:20:39Z</time>
      </trkpt>
      <trkpt lat="43.19995" lon="0.12428">
        <ele>364</ele>
        <time>2018-09-30T10:20:40Z</time>
      </trkpt>
      <trkpt lat="43.19993" lon="0.1243">
        <ele>364</ele>
        <time>2018-09-30T10:20:41Z</time>
      </trkpt>
      <trkpt lat="43.19989" lon="0.12432">
        <ele>364</ele>
        <time>2018-09-30T10:20:42Z</time>
      </trkpt>
      <trkpt lat="43.19986" lon="0.12433">
        <ele>364</ele>
        <time>2018-09-30T10:20:43Z</time>
      </trkpt>
      <trkpt lat="43.19983" lon="0.12434">
        <ele>364</ele>
        <time>2018-09-30T10:20:44Z</time>
      </trkpt>
      <trkpt lat="43.1998" lon="0.12434">
        <ele>364</ele>
        <time>2018-09-30T10:20:45Z</time>
      </trkpt>
      <trkpt lat="43.19977" lon="0.12435">
        <ele>364</ele>
        <time>2018-09-30T10:20:46Z</time>
      </trkpt>
      <trkpt lat="43.19973" lon="0.12435">
        <ele>364</ele>
        <time>2018-09-30T10:20:47Z</time>
      </trkpt>
      <trkpt lat="43.19969" lon="0.12435">
        <ele>364</ele>
        <time>2018-09-30T10:20:48Z</time>
      </trkpt>
      <trkpt lat="43.19966" lon="0.12435">
        <ele>364</ele>
        <time>2018-09-30T10:20:49Z</time>
      </trkpt>
      <trkpt lat="43.19963" lon="0.12435">
        <ele>364</ele>
        <time>2018-09-30T10:20:50Z</time>
      </trkpt>
      <trkpt lat="43.19959" lon="0.12434">
        <ele>364</ele>
        <time>2018-09-30T10:20:51Z</time>
      </trkpt>
      <trkpt lat="43.19956" lon="0.12434">
        <ele>365</ele>
        <time>2018-09-30T10:20:52Z</time>
      </trkpt>
      <trkpt lat="43.19952" lon="0.12434">
        <ele>365</ele>
        <time>2018-09-30T10:20:53Z</time>
      </trkpt>
      <trkpt lat="43.19948" lon="0.12434">
        <ele>365</ele>
        <time>2018-09-30T10:20:54Z</time>
      </trkpt>
      <trkpt lat="43.19945" lon="0.12436">
        <ele>365</ele>
        <time>2018-09-30T10:20:55Z</time>
      </trkpt>
      <trkpt lat="43.19941" lon="0.12438">
        <ele>365</ele>
        <time>2018-09-30T10:20:56Z</time>
      </trkpt>
      <trkpt lat="43.19936" lon="0.12439">
        <ele>366</ele>
        <time>2018-09-30T10:20:57Z</time>
      </trkpt>
      <trkpt lat="43.19932" lon="0.12441">
        <ele>367</ele>
        <time>2018-09-30T10:20:58Z</time>
      </trkpt>
      <trkpt lat="43.19928" lon="0.12444">
        <ele>368</ele>
        <time>2018-09-30T10:20:59Z</time>
      </trkpt>
      <trkpt lat="43.19924" lon="0.12447">
        <ele>370</ele>
        <time>2018-09-30T10:21:00Z</time>
      </trkpt>
      <trkpt lat="43.19919" lon="0.1245">
        <ele>370</ele>
        <time>2018-09-30T10:21:01Z</time>
      </trkpt>
      <trkpt lat="43.19915" lon="0.12453">
        <ele>371</ele>
        <time>2018-09-30T10:21:02Z</time>
      </trkpt>
      <trkpt lat="43.19911" lon="0.12456">
        <ele>372</ele>
        <time>2018-09-30T10:21:03Z</time>
      </trkpt>
      <trkpt lat="43.19908" lon="0.12458">
        <ele>373</ele>
        <time>2018-09-30T10:21:04Z</time>
      </trkpt>
      <trkpt lat="43.19904" lon="0.12461">
        <ele>373</ele>
        <time>2018-09-30T10:21:05Z</time>
      </trkpt>
      <trkpt lat="43.199" lon="0.12464">
        <ele>373</ele>
        <time>2018-09-30T10:21:06Z</time>
      </trkpt>
      <trkpt lat="43.19896" lon="0.12467">
        <ele>374</ele>
        <time>2018-09-30T10:21:07Z</time>
      </trkpt>
      <trkpt lat="43.19891" lon="0.1247">
        <ele>374</ele>
        <time>2018-09-30T10:21:08Z</time>
      </trkpt>
      <trkpt lat="43.19887" lon="0.12473">
        <ele>374</ele>
        <time>2018-09-30T10:21:09Z</time>
      </trkpt>
      <trkpt lat="43.19883" lon="0.12476">
        <ele>374</ele>
        <time>2018-09-30T10:21:10Z</time>
      </trkpt>
      <trkpt lat="43.1988" lon="0.12478">
        <ele>374</ele>
        <time>2018-09-30T10:21:11Z</time>
      </trkpt>
      <trkpt lat="43.19876" lon="0.12481">
        <ele>374</ele>
        <time>2018-09-30T10:21:12Z</time>
      </trkpt>
      <trkpt lat="43.19873" lon="0.12484">
        <ele>374</ele>
        <time>2018-09-30T10:21:13Z</time>
      </trkpt>
      <trkpt lat="43.19871" lon="0.12486">
        <ele>375</ele>
        <time>2018-09-30T10:21:14Z</time>
      </trkpt>
      <trkpt lat="43.19868" lon="0.12489">
        <ele>375</ele>
        <time>2018-09-30T10:21:15Z</time>
      </trkpt>
      <trkpt lat="43.19865" lon="0.1249">
        <ele>375</ele>
        <time>2018-09-30T10:21:16Z</time>
      </trkpt>
      <trkpt lat="43.19862" lon="0.12492">
        <ele>375</ele>
        <time>2018-09-30T10:21:17Z</time>
      </trkpt>
      <trkpt lat="43.19859" lon="0.12494">
        <ele>375</ele>
        <time>2018-09-30T10:21:18Z</time>
      </trkpt>
      <trkpt lat="43.19856" lon="0.12495">
        <ele>375</ele>
        <time>2018-09-30T10:21:19Z</time>
      </trkpt>
      <trkpt lat="43.19853" lon="0.12497">
        <ele>375</ele>
        <time>2018-09-30T10:21:20Z</time>
      </trkpt>
      <trkpt lat="43.1985" lon="0.12499">
        <ele>374</ele>
        <time>2018-09-30T10:21:21Z</time>
      </trkpt>
      <trkpt lat="43.19847" lon="0.12501">
        <ele>374</ele>
        <time>2018-09-30T10:21:22Z</time>
      </trkpt>
      <trkpt lat="43.19845" lon="0.12503">
        <ele>374</ele>
        <time>2018-09-30T10:21:23Z</time>
      </trkpt>
      <trkpt lat="43.19843" lon="0.12505">
        <ele>374</ele>
        <time>2018-09-30T10:21:24Z</time>
      </trkpt>
      <trkpt lat="43.19841" lon="0.12507">
        <ele>374</ele>
        <time>2018-09-30T10:21:25Z</time>
      </trkpt>
      <trkpt lat="43.1984" lon="0.1251">
        <ele>374</ele>
        <time>2018-09-30T10:21:26Z</time>
      </trkpt>
      <trkpt lat="43.19838" lon="0.12512">
        <ele>374</ele>
        <time>2018-09-30T10:21:27Z</time>
      </trkpt>
      <trkpt lat="43.19837" lon="0.12515">
        <ele>374</ele>
        <time>2018-09-30T10:21:28Z</time>
      </trkpt>
      <trkpt lat="43.19835" lon="0.12518">
        <ele>374</ele>
        <time>2018-09-30T10:21:29Z</time>
      </trkpt>
      <trkpt lat="43.19833" lon="0.12521">
        <ele>374</ele>
        <time>2018-09-30T10:21:30Z</time>
      </trkpt>
      <trkpt lat="43.1983" lon="0.12525">
        <ele>374</ele>
        <time>2018-09-30T10:21:31Z</time>
      </trkpt>
      <trkpt lat="43.19828" lon="0.12529">
        <ele>374</ele>
        <time>2018-09-30T10:21:32Z</time>
      </trkpt>
      <trkpt lat="43.19825" lon="0.12532">
        <ele>374</ele>
        <time>2018-09-30T10:21:33Z</time>
      </trkpt>
      <trkpt lat="43.19822" lon="0.12535">
        <ele>374</ele>
        <time>2018-09-30T10:21:34Z</time>
      </trkpt>
      <trkpt lat="43.19819" lon="0.12537">
        <ele>374</ele>
        <time>2018-09-30T10:21:35Z</time>
      </trkpt>
      <trkpt lat="43.19815" lon="0.1254">
        <ele>374</ele>
        <time>2018-09-30T10:21:36Z</time>
      </trkpt>
      <trkpt lat="43.19812" lon="0.12542">
        <ele>374</ele>
        <time>2018-09-30T10:21:37Z</time>
      </trkpt>
      <trkpt lat="43.19809" lon="0.12543">
        <ele>374</ele>
        <time>2018-09-30T10:21:38Z</time>
      </trkpt>
      <trkpt lat="43.19806" lon="0.12545">
        <ele>374</ele>
        <time>2018-09-30T10:21:39Z</time>
      </trkpt>
      <trkpt lat="43.19803" lon="0.12547">
        <ele>374</ele>
        <time>2018-09-30T10:21:40Z</time>
      </trkpt>
      <trkpt lat="43.198" lon="0.12549">
        <ele>374</ele>
        <time>2018-09-30T10:21:41Z</time>
      </trkpt>
      <trkpt lat="43.19797" lon="0.12551">
        <ele>374</ele>
        <time>2018-09-30T10:21:42Z</time>
      </trkpt>
      <trkpt lat="43.19794" lon="0.12552">
        <ele>374</ele>
        <time>2018-09-30T10:21:43Z</time>
      </trkpt>
      <trkpt lat="43.19791" lon="0.12554">
        <ele>374</ele>
        <time>2018-09-30T10:21:44Z</time>
      </trkpt>
      <trkpt lat="43.19788" lon="0.12556">
        <ele>375</ele>
        <time>2018-09-30T10:21:45Z</time>
      </trkpt>
      <trkpt lat="43.19785" lon="0.12557">
        <ele>375</ele>
        <time>2018-09-30T10:21:46Z</time>
      </trkpt>
      <trkpt lat="43.19781" lon="0.12559">
        <ele>375</ele>
        <time>2018-09-30T10:21:47Z</time>
      </trkpt>
      <trkpt lat="43.19778" lon="0.1256">
        <ele>375</ele>
        <time>2018-09-30T10:21:48Z</time>
      </trkpt>
      <trkpt lat="43.19775" lon="0.12562">
        <ele>375</ele>
        <time>2018-09-30T10:21:49Z</time>
      </trkpt>
      <trkpt lat="43.19772" lon="0.12564">
        <ele>375</ele>
        <time>2018-09-30T10:21:50Z</time>
      </trkpt>
      <trkpt lat="43.19769" lon="0.12566">
        <ele>375</ele>
        <time>2018-09-30T10:21:51Z</time>
      </trkpt>
      <trkpt lat="43.19766" lon="0.12567">
        <ele>375</ele>
        <time>2018-09-30T10:21:52Z</time>
      </trkpt>
      <trkpt lat="43.19763" lon="0.12568">
        <ele>375</ele>
        <time>2018-09-30T10:21:53Z</time>
      </trkpt>
      <trkpt lat="43.1976" lon="0.12569">
        <ele>375</ele>
        <time>2018-09-30T10:21:54Z</time>
      </trkpt>
      <trkpt lat="43.19757" lon="0.1257">
        <ele>375</ele>
        <time>2018-09-30T10:21:55Z</time>
      </trkpt>
      <trkpt lat="43.19754" lon="0.12571">
        <ele>375</ele>
        <time>2018-09-30T10:21:56Z</time>
      </trkpt>
      <trkpt lat="43.19751" lon="0.12572">
        <ele>375</ele>
        <time>2018-09-30T10:21:57Z</time>
      </trkpt>
      <trkpt lat="43.19748" lon="0.12574">
        <ele>375</ele>
        <time>2018-09-30T10:21:58Z</time>
      </trkpt>
      <trkpt lat="43.19745" lon="0.12577">
        <ele>375</ele>
        <time>2018-09-30T10:21:59Z</time>
      </trkpt>
      <trkpt lat="43.19742" lon="0.12579">
        <ele>375</ele>
        <time>2018-09-30T10:22:00Z</time>
      </trkpt>
      <trkpt lat="43.1974" lon="0.12581">
        <ele>375</ele>
        <time>2018-09-30T10:22:01Z</time>
      </trkpt>
      <trkpt lat="43.19738" lon="0.12584">
        <ele>375</ele>
        <time>2018-09-30T10:22:02Z</time>
      </trkpt>
      <trkpt lat="43.19736" lon="0.12586">
        <ele>375</ele>
        <time>2018-09-30T10:22:03Z</time>
      </trkpt>
      <trkpt lat="43.19734" lon="0.12588">
        <ele>375</ele>
        <time>2018-09-30T10:22:04Z</time>
      </trkpt>
      <trkpt lat="43.19732" lon="0.1259">
        <ele>375</ele>
        <time>2018-09-30T10:22:05Z</time>
      </trkpt>
      <trkpt lat="43.1973" lon="0.12593">
        <ele>376</ele>
        <time>2018-09-30T10:22:06Z</time>
      </trkpt>
      <trkpt lat="43.19728" lon="0.12595">
        <ele>376</ele>
        <time>2018-09-30T10:22:07Z</time>
      </trkpt>
      <trkpt lat="43.19727" lon="0.12597">
        <ele>376</ele>
        <time>2018-09-30T10:22:08Z</time>
      </trkpt>
      <trkpt lat="43.19726" lon="0.126">
        <ele>376</ele>
        <time>2018-09-30T10:22:09Z</time>
      </trkpt>
      <trkpt lat="43.19725" lon="0.12601">
        <ele>376</ele>
        <time>2018-09-30T10:22:10Z</time>
      </trkpt>
      <trkpt lat="43.19724" lon="0.12603">
        <ele>376</ele>
        <time>2018-09-30T10:22:11Z</time>
      </trkpt>
      <trkpt lat="43.19724" lon="0.12603">
        <ele>376</ele>
        <time>2018-09-30T10:22:12Z</time>
      </trkpt>
      <trkpt lat="43.19722" lon="0.12607">
        <ele>376</ele>
        <time>2018-09-30T10:22:13Z</time>
      </trkpt>
      <trkpt lat="43.19721" lon="0.1261">
        <ele>376</ele>
        <time>2018-09-30T10:22:14Z</time>
      </trkpt>
      <trkpt lat="43.1972" lon="0.12613">
        <ele>376</ele>
        <time>2018-09-30T10:22:15Z</time>
      </trkpt>
      <trkpt lat="43.19719" lon="0.12615">
        <ele>376</ele>
        <time>2018-09-30T10:22:16Z</time>
      </trkpt>
      <trkpt lat="43.19718" lon="0.12618">
        <ele>376</ele>
        <time>2018-09-30T10:22:17Z</time>
      </trkpt>
      <trkpt lat="43.19717" lon="0.1262">
        <ele>377</ele>
        <time>2018-09-30T10:22:18Z</time>
      </trkpt>
      <trkpt lat="43.19715" lon="0.12622">
        <ele>377</ele>
        <time>2018-09-30T10:22:19Z</time>
      </trkpt>
      <trkpt lat="43.19714" lon="0.12625">
        <ele>377</ele>
        <time>2018-09-30T10:22:20Z</time>
      </trkpt>
      <trkpt lat="43.19713" lon="0.12627">
        <ele>377</ele>
        <time>2018-09-30T10:22:21Z</time>
      </trkpt>
      <trkpt lat="43.19712" lon="0.1263">
        <ele>377</ele>
        <time>2018-09-30T10:22:22Z</time>
      </trkpt>
      <trkpt lat="43.1971" lon="0.12632">
        <ele>377</ele>
        <time>2018-09-30T10:22:23Z</time>
      </trkpt>
      <trkpt lat="43.19708" lon="0.12634">
        <ele>378</ele>
        <time>2018-09-30T10:22:24Z</time>
      </trkpt>
      <trkpt lat="43.19706" lon="0.12636">
        <ele>378</ele>
        <time>2018-09-30T10:22:25Z</time>
      </trkpt>
      <trkpt lat="43.19704" lon="0.12638">
        <ele>378</ele>
        <time>2018-09-30T10:22:26Z</time>
      </trkpt>
      <trkpt lat="43.19701" lon="0.1264">
        <ele>378</ele>
        <time>2018-09-30T10:22:27Z</time>
      </trkpt>
      <trkpt lat="43.19699" lon="0.12641">
        <ele>378</ele>
        <time>2018-09-30T10:22:28Z</time>
      </trkpt>
      <trkpt lat="43.19697" lon="0.12643">
        <ele>379</ele>
        <time>2018-09-30T10:22:29Z</time>
      </trkpt>
      <trkpt lat="43.19694" lon="0.12644">
        <ele>379</ele>
        <time>2018-09-30T10:22:30Z</time>
      </trkpt>
      <trkpt lat="43.19692" lon="0.12645">
        <ele>379</ele>
        <time>2018-09-30T10:22:31Z</time>
      </trkpt>
      <trkpt lat="43.19689" lon="0.12647">
        <ele>379</ele>
        <time>2018-09-30T10:22:32Z</time>
      </trkpt>
      <trkpt lat="43.19687" lon="0.12648">
        <ele>380</ele>
        <time>2018-09-30T10:22:33Z</time>
      </trkpt>
      <trkpt lat="43.19685" lon="0.1265">
        <ele>380</ele>
        <time>2018-09-30T10:22:34Z</time>
      </trkpt>
      <trkpt lat="43.19683" lon="0.12651">
        <ele>380</ele>
        <time>2018-09-30T10:22:35Z</time>
      </trkpt>
      <trkpt lat="43.1968" lon="0.12653">
        <ele>380</ele>
        <time>2018-09-30T10:22:36Z</time>
      </trkpt>
      <trkpt lat="43.19679" lon="0.12654">
        <ele>380</ele>
        <time>2018-09-30T10:22:37Z</time>
      </trkpt>
      <trkpt lat="43.19677" lon="0.12656">
        <ele>381</ele>
        <time>2018-09-30T10:22:38Z</time>
      </trkpt>
      <trkpt lat="43.19674" lon="0.12658">
        <ele>381</ele>
        <time>2018-09-30T10:22:39Z</time>
      </trkpt>
      <trkpt lat="43.19672" lon="0.12661">
        <ele>381</ele>
        <time>2018-09-30T10:22:40Z</time>
      </trkpt>
      <trkpt lat="43.19671" lon="0.12664">
        <ele>382</ele>
        <time>2018-09-30T10:22:41Z</time>
      </trkpt>
      <trkpt lat="43.19669" lon="0.12667">
        <ele>382</ele>
        <time>2018-09-30T10:22:42Z</time>
      </trkpt>
      <trkpt lat="43.19667" lon="0.1267">
        <ele>382</ele>
        <time>2018-09-30T10:22:43Z</time>
      </trkpt>
      <trkpt lat="43.19665" lon="0.12674">
        <ele>382</ele>
        <time>2018-09-30T10:22:44Z</time>
      </trkpt>
      <trkpt lat="43.19661" lon="0.12677">
        <ele>382</ele>
        <time>2018-09-30T10:22:45Z</time>
      </trkpt>
      <trkpt lat="43.19658" lon="0.12681">
        <ele>382</ele>
        <time>2018-09-30T10:22:46Z</time>
      </trkpt>
      <trkpt lat="43.19656" lon="0.12685">
        <ele>383</ele>
        <time>2018-09-30T10:22:47Z</time>
      </trkpt>
      <trkpt lat="43.19653" lon="0.12688">
        <ele>383</ele>
        <time>2018-09-30T10:22:48Z</time>
      </trkpt>
      <trkpt lat="43.19652" lon="0.12691">
        <ele>383</ele>
        <time>2018-09-30T10:22:49Z</time>
      </trkpt>
      <trkpt lat="43.19652" lon="0.12691">
        <ele>383</ele>
        <time>2018-09-30T10:22:50Z</time>
      </trkpt>
      <trkpt lat="43.19649" lon="0.12697">
        <ele>383</ele>
        <time>2018-09-30T10:22:51Z</time>
      </trkpt>
      <trkpt lat="43.19648" lon="0.12699">
        <ele>383</ele>
        <time>2018-09-30T10:22:52Z</time>
      </trkpt>
      <trkpt lat="43.19647" lon="0.12702">
        <ele>383</ele>
        <time>2018-09-30T10:22:53Z</time>
      </trkpt>
      <trkpt lat="43.19647" lon="0.12706">
        <ele>383</ele>
        <time>2018-09-30T10:22:54Z</time>
      </trkpt>
      <trkpt lat="43.19646" lon="0.12709">
        <ele>383</ele>
        <time>2018-09-30T10:22:55Z</time>
      </trkpt>
      <trkpt lat="43.19645" lon="0.12711">
        <ele>383</ele>
        <time>2018-09-30T10:22:56Z</time>
      </trkpt>
      <trkpt lat="43.19644" lon="0.12714">
        <ele>383</ele>
        <time>2018-09-30T10:22:57Z</time>
      </trkpt>
      <trkpt lat="43.1964" lon="0.12717">
        <ele>383</ele>
        <time>2018-09-30T10:22:58Z</time>
      </trkpt>
      <trkpt lat="43.1964" lon="0.12717">
        <ele>383</ele>
        <time>2018-09-30T10:22:59Z</time>
      </trkpt>
      <trkpt lat="43.19637" lon="0.12723">
        <ele>383</ele>
        <time>2018-09-30T10:23:00Z</time>
      </trkpt>
      <trkpt lat="43.19636" lon="0.12726">
        <ele>383</ele>
        <time>2018-09-30T10:23:01Z</time>
      </trkpt>
      <trkpt lat="43.19636" lon="0.12726">
        <ele>383</ele>
        <time>2018-09-30T10:23:02Z</time>
      </trkpt>
      <trkpt lat="43.19636" lon="0.12726">
        <ele>383</ele>
        <time>2018-09-30T10:23:03Z</time>
      </trkpt>
      <trkpt lat="43.19636" lon="0.12726">
        <ele>383</ele>
        <time>2018-09-30T10:23:04Z</time>
      </trkpt>
      <trkpt lat="43.19636" lon="0.12726">
        <ele>383</ele>
        <time>2018-09-30T10:23:05Z</time>
      </trkpt>
      <trkpt lat="43.19635" lon="0.12734">
        <ele>383</ele>
        <time>2018-09-30T10:23:06Z</time>
      </trkpt>
      <trkpt lat="43.19635" lon="0.12734">
        <ele>384</ele>
        <time>2018-09-30T10:23:07Z</time>
      </trkpt>
      <trkpt lat="43.19636" lon="0.12742">
        <ele>384</ele>
        <time>2018-09-30T10:23:08Z</time>
      </trkpt>
      <trkpt lat="43.19638" lon="0.12746">
        <ele>384</ele>
        <time>2018-09-30T10:23:09Z</time>
      </trkpt>
      <trkpt lat="43.19638" lon="0.12746">
        <ele>384</ele>
        <time>2018-09-30T10:23:10Z</time>
      </trkpt>
      <trkpt lat="43.19638" lon="0.12746">
        <ele>384</ele>
        <time>2018-09-30T10:23:11Z</time>
      </trkpt>
      <trkpt lat="43.19638" lon="0.12754">
        <ele>385</ele>
        <time>2018-09-30T10:23:12Z</time>
      </trkpt>
      <trkpt lat="43.19638" lon="0.12758">
        <ele>385</ele>
        <time>2018-09-30T10:23:13Z</time>
      </trkpt>
      <trkpt lat="43.19636" lon="0.12761">
        <ele>385</ele>
        <time>2018-09-30T10:23:14Z</time>
      </trkpt>
      <trkpt lat="43.19636" lon="0.12765">
        <ele>385</ele>
        <time>2018-09-30T10:23:15Z</time>
      </trkpt>
      <trkpt lat="43.19636" lon="0.12768">
        <ele>386</ele>
        <time>2018-09-30T10:23:16Z</time>
      </trkpt>
      <trkpt lat="43.19636" lon="0.12771">
        <ele>386</ele>
        <time>2018-09-30T10:23:17Z</time>
      </trkpt>
      <trkpt lat="43.19637" lon="0.12774">
        <ele>386</ele>
        <time>2018-09-30T10:23:18Z</time>
      </trkpt>
      <trkpt lat="43.19637" lon="0.12777">
        <ele>387</ele>
        <time>2018-09-30T10:23:19Z</time>
      </trkpt>
      <trkpt lat="43.19638" lon="0.1278">
        <ele>387</ele>
        <time>2018-09-30T10:23:20Z</time>
      </trkpt>
      <trkpt lat="43.19638" lon="0.12784">
        <ele>388</ele>
        <time>2018-09-30T10:23:21Z</time>
      </trkpt>
      <trkpt lat="43.1964" lon="0.1279">
        <ele>388</ele>
        <time>2018-09-30T10:23:22Z</time>
      </trkpt>
      <trkpt lat="43.19642" lon="0.12794">
        <ele>389</ele>
        <time>2018-09-30T10:23:23Z</time>
      </trkpt>
      <trkpt lat="43.19643" lon="0.12798">
        <ele>389</ele>
        <time>2018-09-30T10:23:24Z</time>
      </trkpt>
      <trkpt lat="43.19643" lon="0.12802">
        <ele>389</ele>
        <time>2018-09-30T10:23:25Z</time>
      </trkpt>
      <trkpt lat="43.19642" lon="0.12805">
        <ele>390</ele>
        <time>2018-09-30T10:23:26Z</time>
      </trkpt>
      <trkpt lat="43.19641" lon="0.12807">
        <ele>390</ele>
        <time>2018-09-30T10:23:27Z</time>
      </trkpt>
      <trkpt lat="43.19641" lon="0.1281">
        <ele>391</ele>
        <time>2018-09-30T10:23:28Z</time>
      </trkpt>
      <trkpt lat="43.19641" lon="0.12814">
        <ele>391</ele>
        <time>2018-09-30T10:23:29Z</time>
      </trkpt>
      <trkpt lat="43.1964" lon="0.12817">
        <ele>391</ele>
        <time>2018-09-30T10:23:30Z</time>
      </trkpt>
      <trkpt lat="43.1964" lon="0.1282">
        <ele>392</ele>
        <time>2018-09-30T10:23:31Z</time>
      </trkpt>
      <trkpt lat="43.1964" lon="0.12823">
        <ele>392</ele>
        <time>2018-09-30T10:23:32Z</time>
      </trkpt>
      <trkpt lat="43.19639" lon="0.12825">
        <ele>392</ele>
        <time>2018-09-30T10:23:33Z</time>
      </trkpt>
      <trkpt lat="43.19639" lon="0.12829">
        <ele>393</ele>
        <time>2018-09-30T10:23:34Z</time>
      </trkpt>
      <trkpt lat="43.19639" lon="0.12831">
        <ele>393</ele>
        <time>2018-09-30T10:23:35Z</time>
      </trkpt>
      <trkpt lat="43.19638" lon="0.12834">
        <ele>394</ele>
        <time>2018-09-30T10:23:36Z</time>
      </trkpt>
      <trkpt lat="43.19638" lon="0.12836">
        <ele>394</ele>
        <time>2018-09-30T10:23:37Z</time>
      </trkpt>
      <trkpt lat="43.19637" lon="0.12839">
        <ele>394</ele>
        <time>2018-09-30T10:23:38Z</time>
      </trkpt>
      <trkpt lat="43.19637" lon="0.12842">
        <ele>395</ele>
        <time>2018-09-30T10:23:39Z</time>
      </trkpt>
      <trkpt lat="43.19636" lon="0.12845">
        <ele>395</ele>
        <time>2018-09-30T10:23:40Z</time>
      </trkpt>
      <trkpt lat="43.19636" lon="0.12848">
        <ele>395</ele>
        <time>2018-09-30T10:23:41Z</time>
      </trkpt>
      <trkpt lat="43.19636" lon="0.12851">
        <ele>395</ele>
        <time>2018-09-30T10:23:42Z</time>
      </trkpt>
      <trkpt lat="43.19636" lon="0.12854">
        <ele>396</ele>
        <time>2018-09-30T10:23:43Z</time>
      </trkpt>
      <trkpt lat="43.19636" lon="0.12856">
        <ele>396</ele>
        <time>2018-09-30T10:23:44Z</time>
      </trkpt>
      <trkpt lat="43.19636" lon="0.12859">
        <ele>396</ele>
        <time>2018-09-30T10:23:45Z</time>
      </trkpt>
      <trkpt lat="43.19635" lon="0.12862">
        <ele>396</ele>
        <time>2018-09-30T10:23:46Z</time>
      </trkpt>
      <trkpt lat="43.19635" lon="0.12865">
        <ele>396</ele>
        <time>2018-09-30T10:23:47Z</time>
      </trkpt>
      <trkpt lat="43.19635" lon="0.12867">
        <ele>396</ele>
        <time>2018-09-30T10:23:48Z</time>
      </trkpt>
      <trkpt lat="43.19634" lon="0.1287">
        <ele>396</ele>
        <time>2018-09-30T10:23:49Z</time>
      </trkpt>
      <trkpt lat="43.19634" lon="0.12874">
        <ele>396</ele>
        <time>2018-09-30T10:23:50Z</time>
      </trkpt>
      <trkpt lat="43.19634" lon="0.12877">
        <ele>396</ele>
        <time>2018-09-30T10:23:51Z</time>
      </trkpt>
      <trkpt lat="43.19634" lon="0.12881">
        <ele>396</ele>
        <time>2018-09-30T10:23:52Z</time>
      </trkpt>
      <trkpt lat="43.19634" lon="0.12883">
        <ele>396</ele>
        <time>2018-09-30T10:23:53Z</time>
      </trkpt>
      <trkpt lat="43.19633" lon="0.12885">
        <ele>396</ele>
        <time>2018-09-30T10:23:54Z</time>
      </trkpt>
      <trkpt lat="43.19634" lon="0.12887">
        <ele>396</ele>
        <time>2018-09-30T10:23:55Z</time>
      </trkpt>
      <trkpt lat="43.19634" lon="0.12891">
        <ele>396</ele>
        <time>2018-09-30T10:23:56Z</time>
      </trkpt>
      <trkpt lat="43.19634" lon="0.12893">
        <ele>396</ele>
        <time>2018-09-30T10:23:57Z</time>
      </trkpt>
      <trkpt lat="43.19634" lon="0.12895">
        <ele>396</ele>
        <time>2018-09-30T10:23:58Z</time>
      </trkpt>
      <trkpt lat="43.19633" lon="0.12897">
        <ele>396</ele>
        <time>2018-09-30T10:23:59Z</time>
      </trkpt>
      <trkpt lat="43.19633" lon="0.12898">
        <ele>396</ele>
        <time>2018-09-30T10:24:00Z</time>
      </trkpt>
      <trkpt lat="43.19632" lon="0.129">
        <ele>395</ele>
        <time>2018-09-30T10:24:01Z</time>
      </trkpt>
      <trkpt lat="43.19631" lon="0.12902">
        <ele>395</ele>
        <time>2018-09-30T10:24:02Z</time>
      </trkpt>
      <trkpt lat="43.19631" lon="0.12904">
        <ele>395</ele>
        <time>2018-09-30T10:24:03Z</time>
      </trkpt>
      <trkpt lat="43.19631" lon="0.12907">
        <ele>395</ele>
        <time>2018-09-30T10:24:04Z</time>
      </trkpt>
      <trkpt lat="43.19632" lon="0.12911">
        <ele>395</ele>
        <time>2018-09-30T10:24:05Z</time>
      </trkpt>
      <trkpt lat="43.19633" lon="0.12915">
        <ele>394</ele>
        <time>2018-09-30T10:24:06Z</time>
      </trkpt>
      <trkpt lat="43.19633" lon="0.12918">
        <ele>394</ele>
        <time>2018-09-30T10:24:07Z</time>
      </trkpt>
      <trkpt lat="43.19637" lon="0.12925">
        <ele>393</ele>
        <time>2018-09-30T10:24:08Z</time>
      </trkpt>
      <trkpt lat="43.19636" lon="0.12926">
        <ele>393</ele>
        <time>2018-09-30T10:24:09Z</time>
      </trkpt>
      <trkpt lat="43.19636" lon="0.12929">
        <ele>393</ele>
        <time>2018-09-30T10:24:10Z</time>
      </trkpt>
      <trkpt lat="43.19636" lon="0.12931">
        <ele>393</ele>
        <time>2018-09-30T10:24:11Z</time>
      </trkpt>
      <trkpt lat="43.19635" lon="0.12933">
        <ele>392</ele>
        <time>2018-09-30T10:24:12Z</time>
      </trkpt>
      <trkpt lat="43.19635" lon="0.12936">
        <ele>392</ele>
        <time>2018-09-30T10:24:13Z</time>
      </trkpt>
      <trkpt lat="43.19634" lon="0.12938">
        <ele>392</ele>
        <time>2018-09-30T10:24:14Z</time>
      </trkpt>
      <trkpt lat="43.19633" lon="0.1294">
        <ele>391</ele>
        <time>2018-09-30T10:24:15Z</time>
      </trkpt>
      <trkpt lat="43.19632" lon="0.12942">
        <ele>391</ele>
        <time>2018-09-30T10:24:16Z</time>
      </trkpt>
      <trkpt lat="43.19631" lon="0.12944">
        <ele>391</ele>
        <time>2018-09-30T10:24:17Z</time>
      </trkpt>
      <trkpt lat="43.19631" lon="0.12947">
        <ele>390</ele>
        <time>2018-09-30T10:24:18Z</time>
      </trkpt>
      <trkpt lat="43.19629" lon="0.12949">
        <ele>390</ele>
        <time>2018-09-30T10:24:19Z</time>
      </trkpt>
      <trkpt lat="43.19628" lon="0.12951">
        <ele>390</ele>
        <time>2018-09-30T10:24:20Z</time>
      </trkpt>
      <trkpt lat="43.19628" lon="0.12954">
        <ele>390</ele>
        <time>2018-09-30T10:24:21Z</time>
      </trkpt>
      <trkpt lat="43.19628" lon="0.12957">
        <ele>390</ele>
        <time>2018-09-30T10:24:22Z</time>
      </trkpt>
      <trkpt lat="43.19627" lon="0.12958">
        <ele>390</ele>
        <time>2018-09-30T10:24:23Z</time>
      </trkpt>
      <trkpt lat="43.19627" lon="0.1296">
        <ele>389</ele>
        <time>2018-09-30T10:24:24Z</time>
      </trkpt>
      <trkpt lat="43.19629" lon="0.12965">
        <ele>389</ele>
        <time>2018-09-30T10:24:25Z</time>
      </trkpt>
      <trkpt lat="43.19629" lon="0.1297">
        <ele>389</ele>
        <time>2018-09-30T10:24:26Z</time>
      </trkpt>
      <trkpt lat="43.19629" lon="0.12973">
        <ele>389</ele>
        <time>2018-09-30T10:24:27Z</time>
      </trkpt>
      <trkpt lat="43.19628" lon="0.12978">
        <ele>389</ele>
        <time>2018-09-30T10:24:28Z</time>
      </trkpt>
      <trkpt lat="43.19627" lon="0.12981">
        <ele>390</ele>
        <time>2018-09-30T10:24:29Z</time>
      </trkpt>
      <trkpt lat="43.19626" lon="0.12985">
        <ele>390</ele>
        <time>2018-09-30T10:24:30Z</time>
      </trkpt>
      <trkpt lat="43.19624" lon="0.12989">
        <ele>390</ele>
        <time>2018-09-30T10:24:31Z</time>
      </trkpt>
      <trkpt lat="43.19623" lon="0.12993">
        <ele>390</ele>
        <time>2018-09-30T10:24:32Z</time>
      </trkpt>
      <trkpt lat="43.19622" lon="0.12998">
        <ele>390</ele>
        <time>2018-09-30T10:24:33Z</time>
      </trkpt>
      <trkpt lat="43.19619" lon="0.13002">
        <ele>390</ele>
        <time>2018-09-30T10:24:34Z</time>
      </trkpt>
      <trkpt lat="43.19617" lon="0.13006">
        <ele>391</ele>
        <time>2018-09-30T10:24:35Z</time>
      </trkpt>
      <trkpt lat="43.19615" lon="0.13009">
        <ele>391</ele>
        <time>2018-09-30T10:24:36Z</time>
      </trkpt>
      <trkpt lat="43.19611" lon="0.13012">
        <ele>391</ele>
        <time>2018-09-30T10:24:37Z</time>
      </trkpt>
      <trkpt lat="43.19608" lon="0.13017">
        <ele>391</ele>
        <time>2018-09-30T10:24:38Z</time>
      </trkpt>
      <trkpt lat="43.19606" lon="0.13022">
        <ele>392</ele>
        <time>2018-09-30T10:24:39Z</time>
      </trkpt>
      <trkpt lat="43.19604" lon="0.1303">
        <ele>392</ele>
        <time>2018-09-30T10:24:40Z</time>
      </trkpt>
      <trkpt lat="43.19601" lon="0.13039">
        <ele>392</ele>
        <time>2018-09-30T10:24:41Z</time>
      </trkpt>
      <trkpt lat="43.196" lon="0.13046">
        <ele>393</ele>
        <time>2018-09-30T10:24:42Z</time>
      </trkpt>
      <trkpt lat="43.19598" lon="0.13052">
        <ele>393</ele>
        <time>2018-09-30T10:24:43Z</time>
      </trkpt>
      <trkpt lat="43.19596" lon="0.13058">
        <ele>393</ele>
        <time>2018-09-30T10:24:44Z</time>
      </trkpt>
      <trkpt lat="43.19594" lon="0.13062">
        <ele>393</ele>
        <time>2018-09-30T10:24:45Z</time>
      </trkpt>
      <trkpt lat="43.19593" lon="0.13067">
        <ele>394</ele>
        <time>2018-09-30T10:24:46Z</time>
      </trkpt>
      <trkpt lat="43.19592" lon="0.13072">
        <ele>394</ele>
        <time>2018-09-30T10:24:47Z</time>
      </trkpt>
      <trkpt lat="43.1959" lon="0.13076">
        <ele>395</ele>
        <time>2018-09-30T10:24:48Z</time>
      </trkpt>
      <trkpt lat="43.19588" lon="0.13081">
        <ele>395</ele>
        <time>2018-09-30T10:24:49Z</time>
      </trkpt>
      <trkpt lat="43.19586" lon="0.13084">
        <ele>396</ele>
        <time>2018-09-30T10:24:50Z</time>
      </trkpt>
      <trkpt lat="43.19585" lon="0.13087">
        <ele>396</ele>
        <time>2018-09-30T10:24:51Z</time>
      </trkpt>
      <trkpt lat="43.19584" lon="0.13092">
        <ele>397</ele>
        <time>2018-09-30T10:24:52Z</time>
      </trkpt>
      <trkpt lat="43.19582" lon="0.13095">
        <ele>397</ele>
        <time>2018-09-30T10:24:53Z</time>
      </trkpt>
      <trkpt lat="43.1958" lon="0.13098">
        <ele>398</ele>
        <time>2018-09-30T10:24:54Z</time>
      </trkpt>
      <trkpt lat="43.19578" lon="0.13102">
        <ele>399</ele>
        <time>2018-09-30T10:24:55Z</time>
      </trkpt>
      <trkpt lat="43.19576" lon="0.13105">
        <ele>399</ele>
        <time>2018-09-30T10:24:56Z</time>
      </trkpt>
      <trkpt lat="43.19574" lon="0.13109">
        <ele>400</ele>
        <time>2018-09-30T10:24:57Z</time>
      </trkpt>
      <trkpt lat="43.19572" lon="0.13113">
        <ele>401</ele>
        <time>2018-09-30T10:24:58Z</time>
      </trkpt>
      <trkpt lat="43.19572" lon="0.13116">
        <ele>401</ele>
        <time>2018-09-30T10:24:59Z</time>
      </trkpt>
      <trkpt lat="43.19571" lon="0.13118">
        <ele>401</ele>
        <time>2018-09-30T10:25:00Z</time>
      </trkpt>
      <trkpt lat="43.1957" lon="0.13121">
        <ele>402</ele>
        <time>2018-09-30T10:25:01Z</time>
      </trkpt>
      <trkpt lat="43.19569" lon="0.13123">
        <ele>403</ele>
        <time>2018-09-30T10:25:02Z</time>
      </trkpt>
      <trkpt lat="43.19568" lon="0.13128">
        <ele>404</ele>
        <time>2018-09-30T10:25:03Z</time>
      </trkpt>
      <trkpt lat="43.19565" lon="0.13133">
        <ele>404</ele>
        <time>2018-09-30T10:25:04Z</time>
      </trkpt>
      <trkpt lat="43.19562" lon="0.13137">
        <ele>405</ele>
        <time>2018-09-30T10:25:05Z</time>
      </trkpt>
      <trkpt lat="43.1956" lon="0.13141">
        <ele>405</ele>
        <time>2018-09-30T10:25:06Z</time>
      </trkpt>
      <trkpt lat="43.19557" lon="0.13147">
        <ele>406</ele>
        <time>2018-09-30T10:25:07Z</time>
      </trkpt>
      <trkpt lat="43.19554" lon="0.13152">
        <ele>407</ele>
        <time>2018-09-30T10:25:08Z</time>
      </trkpt>
      <trkpt lat="43.19552" lon="0.13158">
        <ele>407</ele>
        <time>2018-09-30T10:25:09Z</time>
      </trkpt>
      <trkpt lat="43.19549" lon="0.13162">
        <ele>408</ele>
        <time>2018-09-30T10:25:10Z</time>
      </trkpt>
      <trkpt lat="43.19548" lon="0.13166">
        <ele>408</ele>
        <time>2018-09-30T10:25:11Z</time>
      </trkpt>
      <trkpt lat="43.19546" lon="0.13169">
        <ele>409</ele>
        <time>2018-09-30T10:25:12Z</time>
      </trkpt>
      <trkpt lat="43.19543" lon="0.13172">
        <ele>409</ele>
        <time>2018-09-30T10:25:13Z</time>
      </trkpt>
      <trkpt lat="43.19541" lon="0.13176">
        <ele>409</ele>
        <time>2018-09-30T10:25:14Z</time>
      </trkpt>
      <trkpt lat="43.1954" lon="0.1318">
        <ele>410</ele>
        <time>2018-09-30T10:25:15Z</time>
      </trkpt>
      <trkpt lat="43.19538" lon="0.13183">
        <ele>410</ele>
        <time>2018-09-30T10:25:16Z</time>
      </trkpt>
      <trkpt lat="43.19538" lon="0.13187">
        <ele>410</ele>
        <time>2018-09-30T10:25:17Z</time>
      </trkpt>
      <trkpt lat="43.19537" lon="0.13189">
        <ele>411</ele>
        <time>2018-09-30T10:25:18Z</time>
      </trkpt>
      <trkpt lat="43.19537" lon="0.13192">
        <ele>411</ele>
        <time>2018-09-30T10:25:19Z</time>
      </trkpt>
      <trkpt lat="43.19535" lon="0.13194">
        <ele>411</ele>
        <time>2018-09-30T10:25:20Z</time>
      </trkpt>
      <trkpt lat="43.19534" lon="0.13196">
        <ele>411</ele>
        <time>2018-09-30T10:25:21Z</time>
      </trkpt>
      <trkpt lat="43.19533" lon="0.13198">
        <ele>411</ele>
        <time>2018-09-30T10:25:22Z</time>
      </trkpt>
      <trkpt lat="43.19531" lon="0.13201">
        <ele>412</ele>
        <time>2018-09-30T10:25:23Z</time>
      </trkpt>
      <trkpt lat="43.1953" lon="0.13203">
        <ele>412</ele>
        <time>2018-09-30T10:25:24Z</time>
      </trkpt>
      <trkpt lat="43.1953" lon="0.13206">
        <ele>412</ele>
        <time>2018-09-30T10:25:25Z</time>
      </trkpt>
      <trkpt lat="43.19529" lon="0.13209">
        <ele>412</ele>
        <time>2018-09-30T10:25:26Z</time>
      </trkpt>
      <trkpt lat="43.19529" lon="0.13212">
        <ele>412</ele>
        <time>2018-09-30T10:25:27Z</time>
      </trkpt>
      <trkpt lat="43.19528" lon="0.13215">
        <ele>412</ele>
        <time>2018-09-30T10:25:28Z</time>
      </trkpt>
      <trkpt lat="43.19528" lon="0.13218">
        <ele>413</ele>
        <time>2018-09-30T10:25:29Z</time>
      </trkpt>
      <trkpt lat="43.19527" lon="0.13221">
        <ele>413</ele>
        <time>2018-09-30T10:25:30Z</time>
      </trkpt>
      <trkpt lat="43.19527" lon="0.13224">
        <ele>413</ele>
        <time>2018-09-30T10:25:31Z</time>
      </trkpt>
      <trkpt lat="43.19525" lon="0.13227">
        <ele>413</ele>
        <time>2018-09-30T10:25:32Z</time>
      </trkpt>
      <trkpt lat="43.19525" lon="0.13229">
        <ele>413</ele>
        <time>2018-09-30T10:25:33Z</time>
      </trkpt>
      <trkpt lat="43.19524" lon="0.13232">
        <ele>413</ele>
        <time>2018-09-30T10:25:34Z</time>
      </trkpt>
      <trkpt lat="43.19523" lon="0.13234">
        <ele>413</ele>
        <time>2018-09-30T10:25:35Z</time>
      </trkpt>
      <trkpt lat="43.19522" lon="0.13237">
        <ele>413</ele>
        <time>2018-09-30T10:25:36Z</time>
      </trkpt>
      <trkpt lat="43.19522" lon="0.1324">
        <ele>413</ele>
        <time>2018-09-30T10:25:37Z</time>
      </trkpt>
      <trkpt lat="43.19522" lon="0.13243">
        <ele>414</ele>
        <time>2018-09-30T10:25:38Z</time>
      </trkpt>
      <trkpt lat="43.19521" lon="0.13245">
        <ele>414</ele>
        <time>2018-09-30T10:25:39Z</time>
      </trkpt>
      <trkpt lat="43.1952" lon="0.13247">
        <ele>414</ele>
        <time>2018-09-30T10:25:40Z</time>
      </trkpt>
      <trkpt lat="43.19518" lon="0.13249">
        <ele>414</ele>
        <time>2018-09-30T10:25:41Z</time>
      </trkpt>
      <trkpt lat="43.19517" lon="0.13251">
        <ele>414</ele>
        <time>2018-09-30T10:25:42Z</time>
      </trkpt>
      <trkpt lat="43.19515" lon="0.13253">
        <ele>414</ele>
        <time>2018-09-30T10:25:43Z</time>
      </trkpt>
      <trkpt lat="43.19513" lon="0.13254">
        <ele>414</ele>
        <time>2018-09-30T10:25:44Z</time>
      </trkpt>
      <trkpt lat="43.19511" lon="0.13256">
        <ele>414</ele>
        <time>2018-09-30T10:25:45Z</time>
      </trkpt>
      <trkpt lat="43.1951" lon="0.13258">
        <ele>414</ele>
        <time>2018-09-30T10:25:46Z</time>
      </trkpt>
      <trkpt lat="43.19508" lon="0.1326">
        <ele>414</ele>
        <time>2018-09-30T10:25:47Z</time>
      </trkpt>
      <trkpt lat="43.19506" lon="0.13261">
        <ele>415</ele>
        <time>2018-09-30T10:25:48Z</time>
      </trkpt>
      <trkpt lat="43.19505" lon="0.13263">
        <ele>415</ele>
        <time>2018-09-30T10:25:49Z</time>
      </trkpt>
      <trkpt lat="43.19503" lon="0.13266">
        <ele>415</ele>
        <time>2018-09-30T10:25:50Z</time>
      </trkpt>
      <trkpt lat="43.19501" lon="0.13268">
        <ele>415</ele>
        <time>2018-09-30T10:25:51Z</time>
      </trkpt>
      <trkpt lat="43.19499" lon="0.13269">
        <ele>415</ele>
        <time>2018-09-30T10:25:52Z</time>
      </trkpt>
      <trkpt lat="43.19497" lon="0.13271">
        <ele>415</ele>
        <time>2018-09-30T10:25:53Z</time>
      </trkpt>
      <trkpt lat="43.19496" lon="0.13272">
        <ele>416</ele>
        <time>2018-09-30T10:25:54Z</time>
      </trkpt>
      <trkpt lat="43.19494" lon="0.13273">
        <ele>416</ele>
        <time>2018-09-30T10:25:55Z</time>
      </trkpt>
      <trkpt lat="43.19492" lon="0.13275">
        <ele>416</ele>
        <time>2018-09-30T10:25:56Z</time>
      </trkpt>
      <trkpt lat="43.19491" lon="0.13276">
        <ele>416</ele>
        <time>2018-09-30T10:25:57Z</time>
      </trkpt>
      <trkpt lat="43.1949" lon="0.13277">
        <ele>416</ele>
        <time>2018-09-30T10:25:58Z</time>
      </trkpt>
      <trkpt lat="43.19488" lon="0.13278">
        <ele>416</ele>
        <time>2018-09-30T10:25:59Z</time>
      </trkpt>
      <trkpt lat="43.19487" lon="0.13279">
        <ele>417</ele>
        <time>2018-09-30T10:26:00Z</time>
      </trkpt>
      <trkpt lat="43.19486" lon="0.1328">
        <ele>417</ele>
        <time>2018-09-30T10:26:01Z</time>
      </trkpt>
      <trkpt lat="43.19485" lon="0.13282">
        <ele>417</ele>
        <time>2018-09-30T10:26:02Z</time>
      </trkpt>
      <trkpt lat="43.19484" lon="0.13283">
        <ele>417</ele>
        <time>2018-09-30T10:26:03Z</time>
      </trkpt>
      <trkpt lat="43.19483" lon="0.13284">
        <ele>418</ele>
        <time>2018-09-30T10:26:04Z</time>
      </trkpt>
      <trkpt lat="43.19482" lon="0.13285">
        <ele>418</ele>
        <time>2018-09-30T10:26:05Z</time>
      </trkpt>
      <trkpt lat="43.1948" lon="0.13286">
        <ele>418</ele>
        <time>2018-09-30T10:26:06Z</time>
      </trkpt>
      <trkpt lat="43.19479" lon="0.13288">
        <ele>418</ele>
        <time>2018-09-30T10:26:07Z</time>
      </trkpt>
      <trkpt lat="43.19477" lon="0.13289">
        <ele>418</ele>
        <time>2018-09-30T10:26:08Z</time>
      </trkpt>
      <trkpt lat="43.19475" lon="0.13291">
        <ele>418</ele>
        <time>2018-09-30T10:26:09Z</time>
      </trkpt>
      <trkpt lat="43.19473" lon="0.13293">
        <ele>419</ele>
        <time>2018-09-30T10:26:10Z</time>
      </trkpt>
      <trkpt lat="43.19471" lon="0.13295">
        <ele>419</ele>
        <time>2018-09-30T10:26:11Z</time>
      </trkpt>
      <trkpt lat="43.19469" lon="0.13296">
        <ele>419</ele>
        <time>2018-09-30T10:26:12Z</time>
      </trkpt>
      <trkpt lat="43.19468" lon="0.13298">
        <ele>419</ele>
        <time>2018-09-30T10:26:13Z</time>
      </trkpt>
      <trkpt lat="43.19466" lon="0.133">
        <ele>420</ele>
        <time>2018-09-30T10:26:14Z</time>
      </trkpt>
      <trkpt lat="43.19465" lon="0.133">
        <ele>420</ele>
        <time>2018-09-30T10:26:15Z</time>
      </trkpt>
      <trkpt lat="43.19462" lon="0.13302">
        <ele>420</ele>
        <time>2018-09-30T10:26:16Z</time>
      </trkpt>
      <trkpt lat="43.1946" lon="0.13303">
        <ele>420</ele>
        <time>2018-09-30T10:26:17Z</time>
      </trkpt>
      <trkpt lat="43.19458" lon="0.13305">
        <ele>421</ele>
        <time>2018-09-30T10:26:18Z</time>
      </trkpt>
      <trkpt lat="43.19456" lon="0.13307">
        <ele>421</ele>
        <time>2018-09-30T10:26:19Z</time>
      </trkpt>
      <trkpt lat="43.19454" lon="0.13307">
        <ele>421</ele>
        <time>2018-09-30T10:26:20Z</time>
      </trkpt>
      <trkpt lat="43.19453" lon="0.13308">
        <ele>421</ele>
        <time>2018-09-30T10:26:21Z</time>
      </trkpt>
      <trkpt lat="43.19451" lon="0.13309">
        <ele>422</ele>
        <time>2018-09-30T10:26:22Z</time>
      </trkpt>
      <trkpt lat="43.1945" lon="0.13311">
        <ele>422</ele>
        <time>2018-09-30T10:26:23Z</time>
      </trkpt>
      <trkpt lat="43.19448" lon="0.13312">
        <ele>422</ele>
        <time>2018-09-30T10:26:24Z</time>
      </trkpt>
      <trkpt lat="43.19447" lon="0.13314">
        <ele>422</ele>
        <time>2018-09-30T10:26:25Z</time>
      </trkpt>
      <trkpt lat="43.19445" lon="0.13315">
        <ele>422</ele>
        <time>2018-09-30T10:26:26Z</time>
      </trkpt>
      <trkpt lat="43.19443" lon="0.13316">
        <ele>423</ele>
        <time>2018-09-30T10:26:27Z</time>
      </trkpt>
      <trkpt lat="43.19441" lon="0.13317">
        <ele>423</ele>
        <time>2018-09-30T10:26:28Z</time>
      </trkpt>
      <trkpt lat="43.19439" lon="0.13318">
        <ele>423</ele>
        <time>2018-09-30T10:26:29Z</time>
      </trkpt>
      <trkpt lat="43.19437" lon="0.13318">
        <ele>424</ele>
        <time>2018-09-30T10:26:30Z</time>
      </trkpt>
      <trkpt lat="43.19436" lon="0.13319">
        <ele>424</ele>
        <time>2018-09-30T10:26:31Z</time>
      </trkpt>
      <trkpt lat="43.19434" lon="0.13319">
        <ele>424</ele>
        <time>2018-09-30T10:26:32Z</time>
      </trkpt>
      <trkpt lat="43.19433" lon="0.1332">
        <ele>425</ele>
        <time>2018-09-30T10:26:33Z</time>
      </trkpt>
      <trkpt lat="43.19431" lon="0.1332">
        <ele>425</ele>
        <time>2018-09-30T10:26:34Z</time>
      </trkpt>
      <trkpt lat="43.19429" lon="0.13321">
        <ele>426</ele>
        <time>2018-09-30T10:26:35Z</time>
      </trkpt>
      <trkpt lat="43.19427" lon="0.13321">
        <ele>426</ele>
        <time>2018-09-30T10:26:36Z</time>
      </trkpt>
      <trkpt lat="43.19425" lon="0.13322">
        <ele>426</ele>
        <time>2018-09-30T10:26:37Z</time>
      </trkpt>
      <trkpt lat="43.19423" lon="0.13323">
        <ele>427</ele>
        <time>2018-09-30T10:26:38Z</time>
      </trkpt>
      <trkpt lat="43.19422" lon="0.13324">
        <ele>427</ele>
        <time>2018-09-30T10:26:39Z</time>
      </trkpt>
      <trkpt lat="43.1942" lon="0.13325">
        <ele>427</ele>
        <time>2018-09-30T10:26:40Z</time>
      </trkpt>
      <trkpt lat="43.19418" lon="0.13325">
        <ele>428</ele>
        <time>2018-09-30T10:26:41Z</time>
      </trkpt>
      <trkpt lat="43.19417" lon="0.13327">
        <ele>428</ele>
        <time>2018-09-30T10:26:42Z</time>
      </trkpt>
      <trkpt lat="43.19415" lon="0.13329">
        <ele>428</ele>
        <time>2018-09-30T10:26:43Z</time>
      </trkpt>
      <trkpt lat="43.19414" lon="0.13331">
        <ele>429</ele>
        <time>2018-09-30T10:26:44Z</time>
      </trkpt>
      <trkpt lat="43.19413" lon="0.13334">
        <ele>429</ele>
        <time>2018-09-30T10:26:45Z</time>
      </trkpt>
      <trkpt lat="43.19412" lon="0.13336">
        <ele>429</ele>
        <time>2018-09-30T10:26:46Z</time>
      </trkpt>
      <trkpt lat="43.19411" lon="0.13339">
        <ele>430</ele>
        <time>2018-09-30T10:26:47Z</time>
      </trkpt>
      <trkpt lat="43.1941" lon="0.13342">
        <ele>430</ele>
        <time>2018-09-30T10:26:48Z</time>
      </trkpt>
      <trkpt lat="43.1941" lon="0.13345">
        <ele>430</ele>
        <time>2018-09-30T10:26:49Z</time>
      </trkpt>
      <trkpt lat="43.19409" lon="0.13349">
        <ele>430</ele>
        <time>2018-09-30T10:26:50Z</time>
      </trkpt>
      <trkpt lat="43.19407" lon="0.13352">
        <ele>431</ele>
        <time>2018-09-30T10:26:51Z</time>
      </trkpt>
      <trkpt lat="43.19405" lon="0.13356">
        <ele>431</ele>
        <time>2018-09-30T10:26:52Z</time>
      </trkpt>
      <trkpt lat="43.19404" lon="0.13359">
        <ele>431</ele>
        <time>2018-09-30T10:26:53Z</time>
      </trkpt>
      <trkpt lat="43.19402" lon="0.13363">
        <ele>431</ele>
        <time>2018-09-30T10:26:54Z</time>
      </trkpt>
      <trkpt lat="43.194" lon="0.13367">
        <ele>432</ele>
        <time>2018-09-30T10:26:55Z</time>
      </trkpt>
      <trkpt lat="43.19398" lon="0.1337">
        <ele>432</ele>
        <time>2018-09-30T10:26:56Z</time>
      </trkpt>
      <trkpt lat="43.19396" lon="0.13371">
        <ele>432</ele>
        <time>2018-09-30T10:26:57Z</time>
      </trkpt>
      <trkpt lat="43.19394" lon="0.13371">
        <ele>432</ele>
        <time>2018-09-30T10:26:58Z</time>
      </trkpt>
      <trkpt lat="43.19392" lon="0.13372">
        <ele>432</ele>
        <time>2018-09-30T10:26:59Z</time>
      </trkpt>
      <trkpt lat="43.19389" lon="0.13372">
        <ele>433</ele>
        <time>2018-09-30T10:27:00Z</time>
      </trkpt>
      <trkpt lat="43.19387" lon="0.13371">
        <ele>433</ele>
        <time>2018-09-30T10:27:01Z</time>
      </trkpt>
      <trkpt lat="43.19384" lon="0.13371">
        <ele>433</ele>
        <time>2018-09-30T10:27:02Z</time>
      </trkpt>
      <trkpt lat="43.19381" lon="0.1337">
        <ele>433</ele>
        <time>2018-09-30T10:27:03Z</time>
      </trkpt>
      <trkpt lat="43.19377" lon="0.13369">
        <ele>433</ele>
        <time>2018-09-30T10:27:04Z</time>
      </trkpt>
      <trkpt lat="43.19374" lon="0.13368">
        <ele>434</ele>
        <time>2018-09-30T10:27:05Z</time>
      </trkpt>
      <trkpt lat="43.1937" lon="0.13368">
        <ele>434</ele>
        <time>2018-09-30T10:27:06Z</time>
      </trkpt>
      <trkpt lat="43.19367" lon="0.13367">
        <ele>434</ele>
        <time>2018-09-30T10:27:07Z</time>
      </trkpt>
      <trkpt lat="43.19363" lon="0.13366">
        <ele>434</ele>
        <time>2018-09-30T10:27:08Z</time>
      </trkpt>
      <trkpt lat="43.1936" lon="0.13365">
        <ele>434</ele>
        <time>2018-09-30T10:27:09Z</time>
      </trkpt>
      <trkpt lat="43.19356" lon="0.13364">
        <ele>434</ele>
        <time>2018-09-30T10:27:10Z</time>
      </trkpt>
      <trkpt lat="43.19353" lon="0.13364">
        <ele>435</ele>
        <time>2018-09-30T10:27:11Z</time>
      </trkpt>
      <trkpt lat="43.1935" lon="0.13363">
        <ele>435</ele>
        <time>2018-09-30T10:27:12Z</time>
      </trkpt>
      <trkpt lat="43.19347" lon="0.13362">
        <ele>435</ele>
        <time>2018-09-30T10:27:13Z</time>
      </trkpt>
      <trkpt lat="43.19343" lon="0.1336">
        <ele>435</ele>
        <time>2018-09-30T10:27:14Z</time>
      </trkpt>
      <trkpt lat="43.19339" lon="0.13359">
        <ele>435</ele>
        <time>2018-09-30T10:27:15Z</time>
      </trkpt>
      <trkpt lat="43.19335" lon="0.13358">
        <ele>435</ele>
        <time>2018-09-30T10:27:16Z</time>
      </trkpt>
      <trkpt lat="43.19332" lon="0.13357">
        <ele>436</ele>
        <time>2018-09-30T10:27:17Z</time>
      </trkpt>
      <trkpt lat="43.19328" lon="0.13356">
        <ele>436</ele>
        <time>2018-09-30T10:27:18Z</time>
      </trkpt>
      <trkpt lat="43.19325" lon="0.13356">
        <ele>436</ele>
        <time>2018-09-30T10:27:19Z</time>
      </trkpt>
      <trkpt lat="43.19322" lon="0.13354">
        <ele>436</ele>
        <time>2018-09-30T10:27:20Z</time>
      </trkpt>
      <trkpt lat="43.19318" lon="0.13353">
        <ele>437</ele>
        <time>2018-09-30T10:27:21Z</time>
      </trkpt>
      <trkpt lat="43.19315" lon="0.13352">
        <ele>437</ele>
        <time>2018-09-30T10:27:22Z</time>
      </trkpt>
      <trkpt lat="43.19312" lon="0.13351">
        <ele>437</ele>
        <time>2018-09-30T10:27:23Z</time>
      </trkpt>
      <trkpt lat="43.19309" lon="0.1335">
        <ele>437</ele>
        <time>2018-09-30T10:27:24Z</time>
      </trkpt>
      <trkpt lat="43.19305" lon="0.13348">
        <ele>438</ele>
        <time>2018-09-30T10:27:25Z</time>
      </trkpt>
      <trkpt lat="43.19301" lon="0.13345">
        <ele>438</ele>
        <time>2018-09-30T10:27:26Z</time>
      </trkpt>
      <trkpt lat="43.19296" lon="0.13343">
        <ele>440</ele>
        <time>2018-09-30T10:27:27Z</time>
      </trkpt>
      <trkpt lat="43.19292" lon="0.1334">
        <ele>442</ele>
        <time>2018-09-30T10:27:28Z</time>
      </trkpt>
      <trkpt lat="43.19288" lon="0.13337">
        <ele>445</ele>
        <time>2018-09-30T10:27:29Z</time>
      </trkpt>
      <trkpt lat="43.19283" lon="0.13334">
        <ele>446</ele>
        <time>2018-09-30T10:27:30Z</time>
      </trkpt>
      <trkpt lat="43.19279" lon="0.13331">
        <ele>449</ele>
        <time>2018-09-30T10:27:31Z</time>
      </trkpt>
      <trkpt lat="43.19275" lon="0.13328">
        <ele>450</ele>
        <time>2018-09-30T10:27:32Z</time>
      </trkpt>
      <trkpt lat="43.19271" lon="0.13325">
        <ele>452</ele>
        <time>2018-09-30T10:27:33Z</time>
      </trkpt>
      <trkpt lat="43.19267" lon="0.13323">
        <ele>453</ele>
        <time>2018-09-30T10:27:34Z</time>
      </trkpt>
      <trkpt lat="43.19262" lon="0.13321">
        <ele>455</ele>
        <time>2018-09-30T10:27:35Z</time>
      </trkpt>
      <trkpt lat="43.19258" lon="0.1332">
        <ele>455</ele>
        <time>2018-09-30T10:27:36Z</time>
      </trkpt>
      <trkpt lat="43.19254" lon="0.13319">
        <ele>456</ele>
        <time>2018-09-30T10:27:37Z</time>
      </trkpt>
      <trkpt lat="43.1925" lon="0.13319">
        <ele>457</ele>
        <time>2018-09-30T10:27:38Z</time>
      </trkpt>
      <trkpt lat="43.19246" lon="0.13318">
        <ele>457</ele>
        <time>2018-09-30T10:27:39Z</time>
      </trkpt>
      <trkpt lat="43.19242" lon="0.13318">
        <ele>458</ele>
        <time>2018-09-30T10:27:40Z</time>
      </trkpt>
      <trkpt lat="43.19237" lon="0.13317">
        <ele>458</ele>
        <time>2018-09-30T10:27:41Z</time>
      </trkpt>
      <trkpt lat="43.19233" lon="0.13316">
        <ele>458</ele>
        <time>2018-09-30T10:27:42Z</time>
      </trkpt>
      <trkpt lat="43.19228" lon="0.13315">
        <ele>459</ele>
        <time>2018-09-30T10:27:43Z</time>
      </trkpt>
      <trkpt lat="43.19222" lon="0.13313">
        <ele>459</ele>
        <time>2018-09-30T10:27:44Z</time>
      </trkpt>
      <trkpt lat="43.19217" lon="0.13312">
        <ele>459</ele>
        <time>2018-09-30T10:27:45Z</time>
      </trkpt>
      <trkpt lat="43.19211" lon="0.13311">
        <ele>459</ele>
        <time>2018-09-30T10:27:46Z</time>
      </trkpt>
      <trkpt lat="43.19204" lon="0.13311">
        <ele>459</ele>
        <time>2018-09-30T10:27:47Z</time>
      </trkpt>
      <trkpt lat="43.19199" lon="0.1331">
        <ele>459</ele>
        <time>2018-09-30T10:27:48Z</time>
      </trkpt>
      <trkpt lat="43.19193" lon="0.1331">
        <ele>459</ele>
        <time>2018-09-30T10:27:49Z</time>
      </trkpt>
      <trkpt lat="43.19188" lon="0.13309">
        <ele>459</ele>
        <time>2018-09-30T10:27:50Z</time>
      </trkpt>
      <trkpt lat="43.19183" lon="0.13307">
        <ele>459</ele>
        <time>2018-09-30T10:27:51Z</time>
      </trkpt>
      <trkpt lat="43.19177" lon="0.13306">
        <ele>459</ele>
        <time>2018-09-30T10:27:52Z</time>
      </trkpt>
      <trkpt lat="43.19172" lon="0.13305">
        <ele>459</ele>
        <time>2018-09-30T10:27:53Z</time>
      </trkpt>
      <trkpt lat="43.19167" lon="0.13304">
        <ele>459</ele>
        <time>2018-09-30T10:27:54Z</time>
      </trkpt>
      <trkpt lat="43.19161" lon="0.13303">
        <ele>460</ele>
        <time>2018-09-30T10:27:55Z</time>
      </trkpt>
      <trkpt lat="43.19156" lon="0.13302">
        <ele>460</ele>
        <time>2018-09-30T10:27:56Z</time>
      </trkpt>
      <trkpt lat="43.19151" lon="0.133">
        <ele>460</ele>
        <time>2018-09-30T10:27:57Z</time>
      </trkpt>
      <trkpt lat="43.19145" lon="0.13299">
        <ele>459</ele>
        <time>2018-09-30T10:27:58Z</time>
      </trkpt>
      <trkpt lat="43.19139" lon="0.13299">
        <ele>459</ele>
        <time>2018-09-30T10:27:59Z</time>
      </trkpt>
      <trkpt lat="43.19133" lon="0.13298">
        <ele>459</ele>
        <time>2018-09-30T10:28:00Z</time>
      </trkpt>
      <trkpt lat="43.19128" lon="0.13297">
        <ele>459</ele>
        <time>2018-09-30T10:28:01Z</time>
      </trkpt>
      <trkpt lat="43.19123" lon="0.13296">
        <ele>458</ele>
        <time>2018-09-30T10:28:02Z</time>
      </trkpt>
      <trkpt lat="43.19118" lon="0.13296">
        <ele>458</ele>
        <time>2018-09-30T10:28:03Z</time>
      </trkpt>
      <trkpt lat="43.19114" lon="0.13296">
        <ele>458</ele>
        <time>2018-09-30T10:28:04Z</time>
      </trkpt>
      <trkpt lat="43.1911" lon="0.13295">
        <ele>458</ele>
        <time>2018-09-30T10:28:05Z</time>
      </trkpt>
      <trkpt lat="43.19105" lon="0.13295">
        <ele>458</ele>
        <time>2018-09-30T10:28:06Z</time>
      </trkpt>
      <trkpt lat="43.19101" lon="0.13294">
        <ele>458</ele>
        <time>2018-09-30T10:28:07Z</time>
      </trkpt>
      <trkpt lat="43.19097" lon="0.13293">
        <ele>458</ele>
        <time>2018-09-30T10:28:08Z</time>
      </trkpt>
      <trkpt lat="43.19093" lon="0.13292">
        <ele>458</ele>
        <time>2018-09-30T10:28:09Z</time>
      </trkpt>
      <trkpt lat="43.19088" lon="0.13291">
        <ele>458</ele>
        <time>2018-09-30T10:28:10Z</time>
      </trkpt>
      <trkpt lat="43.19084" lon="0.1329">
        <ele>459</ele>
        <time>2018-09-30T10:28:11Z</time>
      </trkpt>
      <trkpt lat="43.19081" lon="0.13289">
        <ele>459</ele>
        <time>2018-09-30T10:28:12Z</time>
      </trkpt>
      <trkpt lat="43.19079" lon="0.13286">
        <ele>459</ele>
        <time>2018-09-30T10:28:13Z</time>
      </trkpt>
      <trkpt lat="43.19077" lon="0.13284">
        <ele>459</ele>
        <time>2018-09-30T10:28:14Z</time>
      </trkpt>
      <trkpt lat="43.19076" lon="0.1328">
        <ele>459</ele>
        <time>2018-09-30T10:28:15Z</time>
      </trkpt>
      <trkpt lat="43.19075" lon="0.13275">
        <ele>459</ele>
        <time>2018-09-30T10:28:16Z</time>
      </trkpt>
      <trkpt lat="43.19073" lon="0.13271">
        <ele>459</ele>
        <time>2018-09-30T10:28:17Z</time>
      </trkpt>
      <trkpt lat="43.19071" lon="0.13268">
        <ele>459</ele>
        <time>2018-09-30T10:28:18Z</time>
      </trkpt>
      <trkpt lat="43.19069" lon="0.13264">
        <ele>459</ele>
        <time>2018-09-30T10:28:19Z</time>
      </trkpt>
      <trkpt lat="43.19067" lon="0.13259">
        <ele>459</ele>
        <time>2018-09-30T10:28:20Z</time>
      </trkpt>
      <trkpt lat="43.19066" lon="0.13256">
        <ele>459</ele>
        <time>2018-09-30T10:28:21Z</time>
      </trkpt>
      <trkpt lat="43.19064" lon="0.1325">
        <ele>459</ele>
        <time>2018-09-30T10:28:22Z</time>
      </trkpt>
      <trkpt lat="43.19062" lon="0.13245">
        <ele>459</ele>
        <time>2018-09-30T10:28:23Z</time>
      </trkpt>
      <trkpt lat="43.1906" lon="0.1324">
        <ele>459</ele>
        <time>2018-09-30T10:28:24Z</time>
      </trkpt>
      <trkpt lat="43.19059" lon="0.13234">
        <ele>459</ele>
        <time>2018-09-30T10:28:25Z</time>
      </trkpt>
      <trkpt lat="43.19056" lon="0.13228">
        <ele>459</ele>
        <time>2018-09-30T10:28:26Z</time>
      </trkpt>
      <trkpt lat="43.19055" lon="0.13222">
        <ele>459</ele>
        <time>2018-09-30T10:28:27Z</time>
      </trkpt>
      <trkpt lat="43.19055" lon="0.13215">
        <ele>459</ele>
        <time>2018-09-30T10:28:28Z</time>
      </trkpt>
      <trkpt lat="43.19055" lon="0.13208">
        <ele>459</ele>
        <time>2018-09-30T10:28:29Z</time>
      </trkpt>
      <trkpt lat="43.19056" lon="0.132">
        <ele>459</ele>
        <time>2018-09-30T10:28:30Z</time>
      </trkpt>
      <trkpt lat="43.19057" lon="0.13193">
        <ele>459</ele>
        <time>2018-09-30T10:28:31Z</time>
      </trkpt>
      <trkpt lat="43.19058" lon="0.13186">
        <ele>459</ele>
        <time>2018-09-30T10:28:32Z</time>
      </trkpt>
      <trkpt lat="43.19058" lon="0.1318">
        <ele>459</ele>
        <time>2018-09-30T10:28:33Z</time>
      </trkpt>
      <trkpt lat="43.19058" lon="0.13174">
        <ele>460</ele>
        <time>2018-09-30T10:28:34Z</time>
      </trkpt>
      <trkpt lat="43.19058" lon="0.13168">
        <ele>460</ele>
        <time>2018-09-30T10:28:35Z</time>
      </trkpt>
      <trkpt lat="43.19057" lon="0.13164">
        <ele>460</ele>
        <time>2018-09-30T10:28:36Z</time>
      </trkpt>
      <trkpt lat="43.19056" lon="0.13161">
        <ele>460</ele>
        <time>2018-09-30T10:28:37Z</time>
      </trkpt>
      <trkpt lat="43.19054" lon="0.13159">
        <ele>460</ele>
        <time>2018-09-30T10:28:38Z</time>
      </trkpt>
      <trkpt lat="43.19051" lon="0.13156">
        <ele>460</ele>
        <time>2018-09-30T10:28:39Z</time>
      </trkpt>
      <trkpt lat="43.19047" lon="0.13153">
        <ele>460</ele>
        <time>2018-09-30T10:28:40Z</time>
      </trkpt>
      <trkpt lat="43.19043" lon="0.13151">
        <ele>460</ele>
        <time>2018-09-30T10:28:41Z</time>
      </trkpt>
      <trkpt lat="43.1904" lon="0.13149">
        <ele>460</ele>
        <time>2018-09-30T10:28:42Z</time>
      </trkpt>
      <trkpt lat="43.19038" lon="0.13147">
        <ele>460</ele>
        <time>2018-09-30T10:28:43Z</time>
      </trkpt>
      <trkpt lat="43.19036" lon="0.13145">
        <ele>460</ele>
        <time>2018-09-30T10:28:44Z</time>
      </trkpt>
      <trkpt lat="43.19034" lon="0.13143">
        <ele>460</ele>
        <time>2018-09-30T10:28:45Z</time>
      </trkpt>
      <trkpt lat="43.19032" lon="0.13141">
        <ele>460</ele>
        <time>2018-09-30T10:28:46Z</time>
      </trkpt>
      <trkpt lat="43.1903" lon="0.13139">
        <ele>460</ele>
        <time>2018-09-30T10:28:47Z</time>
      </trkpt>
      <trkpt lat="43.19028" lon="0.13136">
        <ele>460</ele>
        <time>2018-09-30T10:28:48Z</time>
      </trkpt>
      <trkpt lat="43.19026" lon="0.13133">
        <ele>460</ele>
        <time>2018-09-30T10:28:49Z</time>
      </trkpt>
      <trkpt lat="43.19024" lon="0.1313">
        <ele>460</ele>
        <time>2018-09-30T10:28:50Z</time>
      </trkpt>
      <trkpt lat="43.19022" lon="0.13126">
        <ele>460</ele>
        <time>2018-09-30T10:28:51Z</time>
      </trkpt>
      <trkpt lat="43.1902" lon="0.13124">
        <ele>460</ele>
        <time>2018-09-30T10:28:52Z</time>
      </trkpt>
      <trkpt lat="43.19018" lon="0.13121">
        <ele>460</ele>
        <time>2018-09-30T10:28:53Z</time>
      </trkpt>
      <trkpt lat="43.19016" lon="0.13119">
        <ele>460</ele>
        <time>2018-09-30T10:28:54Z</time>
      </trkpt>
      <trkpt lat="43.19014" lon="0.13117">
        <ele>460</ele>
        <time>2018-09-30T10:28:55Z</time>
      </trkpt>
      <trkpt lat="43.19012" lon="0.13114">
        <ele>460</ele>
        <time>2018-09-30T10:28:56Z</time>
      </trkpt>
      <trkpt lat="43.1901" lon="0.13111">
        <ele>460</ele>
        <time>2018-09-30T10:28:57Z</time>
      </trkpt>
      <trkpt lat="43.19007" lon="0.13108">
        <ele>460</ele>
        <time>2018-09-30T10:28:58Z</time>
      </trkpt>
      <trkpt lat="43.19005" lon="0.13104">
        <ele>460</ele>
        <time>2018-09-30T10:28:59Z</time>
      </trkpt>
      <trkpt lat="43.19003" lon="0.131">
        <ele>460</ele>
        <time>2018-09-30T10:29:00Z</time>
      </trkpt>
      <trkpt lat="43.19001" lon="0.13096">
        <ele>460</ele>
        <time>2018-09-30T10:29:01Z</time>
      </trkpt>
      <trkpt lat="43.18999" lon="0.13093">
        <ele>460</ele>
        <time>2018-09-30T10:29:02Z</time>
      </trkpt>
      <trkpt lat="43.18996" lon="0.1309">
        <ele>460</ele>
        <time>2018-09-30T10:29:03Z</time>
      </trkpt>
      <trkpt lat="43.18993" lon="0.13087">
        <ele>460</ele>
        <time>2018-09-30T10:29:04Z</time>
      </trkpt>
      <trkpt lat="43.18992" lon="0.13084">
        <ele>460</ele>
        <time>2018-09-30T10:29:05Z</time>
      </trkpt>
      <trkpt lat="43.18989" lon="0.13081">
        <ele>460</ele>
        <time>2018-09-30T10:29:06Z</time>
      </trkpt>
      <trkpt lat="43.18987" lon="0.13078">
        <ele>460</ele>
        <time>2018-09-30T10:29:07Z</time>
      </trkpt>
      <trkpt lat="43.18985" lon="0.13076">
        <ele>460</ele>
        <time>2018-09-30T10:29:08Z</time>
      </trkpt>
      <trkpt lat="43.18984" lon="0.13073">
        <ele>460</ele>
        <time>2018-09-30T10:29:09Z</time>
      </trkpt>
      <trkpt lat="43.18982" lon="0.1307">
        <ele>460</ele>
        <time>2018-09-30T10:29:10Z</time>
      </trkpt>
      <trkpt lat="43.1898" lon="0.13068">
        <ele>460</ele>
        <time>2018-09-30T10:29:11Z</time>
      </trkpt>
      <trkpt lat="43.18979" lon="0.13067">
        <ele>460</ele>
        <time>2018-09-30T10:29:12Z</time>
      </trkpt>
      <trkpt lat="43.18977" lon="0.13063">
        <ele>459</ele>
        <time>2018-09-30T10:29:13Z</time>
      </trkpt>
      <trkpt lat="43.18975" lon="0.13061">
        <ele>459</ele>
        <time>2018-09-30T10:29:14Z</time>
      </trkpt>
      <trkpt lat="43.18975" lon="0.13057">
        <ele>459</ele>
        <time>2018-09-30T10:29:15Z</time>
      </trkpt>
      <trkpt lat="43.18974" lon="0.13053">
        <ele>459</ele>
        <time>2018-09-30T10:29:16Z</time>
      </trkpt>
      <trkpt lat="43.18974" lon="0.13049">
        <ele>459</ele>
        <time>2018-09-30T10:29:17Z</time>
      </trkpt>
      <trkpt lat="43.18976" lon="0.13043">
        <ele>459</ele>
        <time>2018-09-30T10:29:18Z</time>
      </trkpt>
      <trkpt lat="43.18976" lon="0.13038">
        <ele>459</ele>
        <time>2018-09-30T10:29:19Z</time>
      </trkpt>
      <trkpt lat="43.18976" lon="0.13034">
        <ele>459</ele>
        <time>2018-09-30T10:29:20Z</time>
      </trkpt>
      <trkpt lat="43.18975" lon="0.1303">
        <ele>459</ele>
        <time>2018-09-30T10:29:21Z</time>
      </trkpt>
      <trkpt lat="43.18975" lon="0.13022">
        <ele>459</ele>
        <time>2018-09-30T10:29:22Z</time>
      </trkpt>
      <trkpt lat="43.18976" lon="0.13017">
        <ele>459</ele>
        <time>2018-09-30T10:29:23Z</time>
      </trkpt>
      <trkpt lat="43.18976" lon="0.13013">
        <ele>459</ele>
        <time>2018-09-30T10:29:24Z</time>
      </trkpt>
      <trkpt lat="43.18977" lon="0.1301">
        <ele>459</ele>
        <time>2018-09-30T10:29:25Z</time>
      </trkpt>
      <trkpt lat="43.18978" lon="0.13008">
        <ele>459</ele>
        <time>2018-09-30T10:29:26Z</time>
      </trkpt>
      <trkpt lat="43.18979" lon="0.13003">
        <ele>459</ele>
        <time>2018-09-30T10:29:27Z</time>
      </trkpt>
      <trkpt lat="43.1898" lon="0.12999">
        <ele>459</ele>
        <time>2018-09-30T10:29:28Z</time>
      </trkpt>
      <trkpt lat="43.1898" lon="0.12996">
        <ele>459</ele>
        <time>2018-09-30T10:29:29Z</time>
      </trkpt>
      <trkpt lat="43.18981" lon="0.12992">
        <ele>459</ele>
        <time>2018-09-30T10:29:30Z</time>
      </trkpt>
      <trkpt lat="43.18982" lon="0.12987">
        <ele>458</ele>
        <time>2018-09-30T10:29:31Z</time>
      </trkpt>
      <trkpt lat="43.18983" lon="0.12982">
        <ele>458</ele>
        <time>2018-09-30T10:29:32Z</time>
      </trkpt>
      <trkpt lat="43.18984" lon="0.12976">
        <ele>458</ele>
        <time>2018-09-30T10:29:33Z</time>
      </trkpt>
      <trkpt lat="43.18985" lon="0.12971">
        <ele>458</ele>
        <time>2018-09-30T10:29:34Z</time>
      </trkpt>
      <trkpt lat="43.18987" lon="0.12965">
        <ele>457</ele>
        <time>2018-09-30T10:29:35Z</time>
      </trkpt>
      <trkpt lat="43.18989" lon="0.12959">
        <ele>457</ele>
        <time>2018-09-30T10:29:36Z</time>
      </trkpt>
      <trkpt lat="43.18991" lon="0.12954">
        <ele>457</ele>
        <time>2018-09-30T10:29:37Z</time>
      </trkpt>
      <trkpt lat="43.18993" lon="0.1295">
        <ele>457</ele>
        <time>2018-09-30T10:29:38Z</time>
      </trkpt>
      <trkpt lat="43.18995" lon="0.12944">
        <ele>457</ele>
        <time>2018-09-30T10:29:39Z</time>
      </trkpt>
      <trkpt lat="43.18996" lon="0.12937">
        <ele>456</ele>
        <time>2018-09-30T10:29:40Z</time>
      </trkpt>
      <trkpt lat="43.18996" lon="0.12935">
        <ele>456</ele>
        <time>2018-09-30T10:29:41Z</time>
      </trkpt>
      <trkpt lat="43.18996" lon="0.12931">
        <ele>456</ele>
        <time>2018-09-30T10:29:42Z</time>
      </trkpt>
      <trkpt lat="43.18997" lon="0.12924">
        <ele>456</ele>
        <time>2018-09-30T10:29:43Z</time>
      </trkpt>
      <trkpt lat="43.18998" lon="0.12909">
        <ele>456</ele>
        <time>2018-09-30T10:29:44Z</time>
      </trkpt>
      <trkpt lat="43.18998" lon="0.12898">
        <ele>455</ele>
        <time>2018-09-30T10:29:45Z</time>
      </trkpt>
      <trkpt lat="43.18998" lon="0.12893">
        <ele>455</ele>
        <time>2018-09-30T10:29:46Z</time>
      </trkpt>
      <trkpt lat="43.18997" lon="0.12887">
        <ele>455</ele>
        <time>2018-09-30T10:29:47Z</time>
      </trkpt>
      <trkpt lat="43.18996" lon="0.12881">
        <ele>455</ele>
        <time>2018-09-30T10:29:48Z</time>
      </trkpt>
      <trkpt lat="43.18997" lon="0.12873">
        <ele>455</ele>
        <time>2018-09-30T10:29:49Z</time>
      </trkpt>
      <trkpt lat="43.18998" lon="0.12867">
        <ele>453</ele>
        <time>2018-09-30T10:29:50Z</time>
      </trkpt>
      <trkpt lat="43.18999" lon="0.12861">
        <ele>452</ele>
        <time>2018-09-30T10:29:51Z</time>
      </trkpt>
      <trkpt lat="43.19" lon="0.12855">
        <ele>452</ele>
        <time>2018-09-30T10:29:52Z</time>
      </trkpt>
      <trkpt lat="43.19002" lon="0.12851">
        <ele>452</ele>
        <time>2018-09-30T10:29:53Z</time>
      </trkpt>
      <trkpt lat="43.19003" lon="0.12847">
        <ele>451</ele>
        <time>2018-09-30T10:29:54Z</time>
      </trkpt>
      <trkpt lat="43.19005" lon="0.12842">
        <ele>451</ele>
        <time>2018-09-30T10:29:55Z</time>
      </trkpt>
      <trkpt lat="43.19007" lon="0.12837">
        <ele>451</ele>
        <time>2018-09-30T10:29:56Z</time>
      </trkpt>
      <trkpt lat="43.1901" lon="0.12832">
        <ele>450</ele>
        <time>2018-09-30T10:29:57Z</time>
      </trkpt>
      <trkpt lat="43.19013" lon="0.12823">
        <ele>449</ele>
        <time>2018-09-30T10:29:58Z</time>
      </trkpt>
      <trkpt lat="43.19016" lon="0.12816">
        <ele>448</ele>
        <time>2018-09-30T10:29:59Z</time>
      </trkpt>
      <trkpt lat="43.19019" lon="0.12811">
        <ele>447</ele>
        <time>2018-09-30T10:30:00Z</time>
      </trkpt>
      <trkpt lat="43.19022" lon="0.12804">
        <ele>446</ele>
        <time>2018-09-30T10:30:01Z</time>
      </trkpt>
      <trkpt lat="43.19027" lon="0.12796">
        <ele>440</ele>
        <time>2018-09-30T10:30:02Z</time>
      </trkpt>
      <trkpt lat="43.19031" lon="0.1279">
        <ele>438</ele>
        <time>2018-09-30T10:30:03Z</time>
      </trkpt>
      <trkpt lat="43.19034" lon="0.12784">
        <ele>436</ele>
        <time>2018-09-30T10:30:04Z</time>
      </trkpt>
      <trkpt lat="43.19037" lon="0.12775">
        <ele>435</ele>
        <time>2018-09-30T10:30:05Z</time>
      </trkpt>
      <trkpt lat="43.1904" lon="0.12767">
        <ele>434</ele>
        <time>2018-09-30T10:30:06Z</time>
      </trkpt>
      <trkpt lat="43.19045" lon="0.12758">
        <ele>433</ele>
        <time>2018-09-30T10:30:07Z</time>
      </trkpt>
      <trkpt lat="43.1905" lon="0.12751">
        <ele>432</ele>
        <time>2018-09-30T10:30:08Z</time>
      </trkpt>
      <trkpt lat="43.19055" lon="0.12745">
        <ele>432</ele>
        <time>2018-09-30T10:30:09Z</time>
      </trkpt>
      <trkpt lat="43.19059" lon="0.1274">
        <ele>432</ele>
        <time>2018-09-30T10:30:10Z</time>
      </trkpt>
      <trkpt lat="43.19064" lon="0.12736">
        <ele>432</ele>
        <time>2018-09-30T10:30:11Z</time>
      </trkpt>
      <trkpt lat="43.19069" lon="0.12731">
        <ele>431</ele>
        <time>2018-09-30T10:30:12Z</time>
      </trkpt>
      <trkpt lat="43.19074" lon="0.12728">
        <ele>431</ele>
        <time>2018-09-30T10:30:13Z</time>
      </trkpt>
      <trkpt lat="43.19079" lon="0.12724">
        <ele>432</ele>
        <time>2018-09-30T10:30:14Z</time>
      </trkpt>
      <trkpt lat="43.19083" lon="0.12722">
        <ele>432</ele>
        <time>2018-09-30T10:30:15Z</time>
      </trkpt>
      <trkpt lat="43.19089" lon="0.12721">
        <ele>432</ele>
        <time>2018-09-30T10:30:16Z</time>
      </trkpt>
      <trkpt lat="43.19095" lon="0.12719">
        <ele>432</ele>
        <time>2018-09-30T10:30:17Z</time>
      </trkpt>
      <trkpt lat="43.191" lon="0.12717">
        <ele>432</ele>
        <time>2018-09-30T10:30:18Z</time>
      </trkpt>
      <trkpt lat="43.19104" lon="0.12714">
        <ele>432</ele>
        <time>2018-09-30T10:30:19Z</time>
      </trkpt>
      <trkpt lat="43.19108" lon="0.1271">
        <ele>432</ele>
        <time>2018-09-30T10:30:20Z</time>
      </trkpt>
      <trkpt lat="43.19112" lon="0.12706">
        <ele>431</ele>
        <time>2018-09-30T10:30:21Z</time>
      </trkpt>
      <trkpt lat="43.19119" lon="0.12702">
        <ele>431</ele>
        <time>2018-09-30T10:30:22Z</time>
      </trkpt>
      <trkpt lat="43.19125" lon="0.12698">
        <ele>430</ele>
        <time>2018-09-30T10:30:23Z</time>
      </trkpt>
      <trkpt lat="43.19131" lon="0.12696">
        <ele>430</ele>
        <time>2018-09-30T10:30:24Z</time>
      </trkpt>
      <trkpt lat="43.19136" lon="0.12693">
        <ele>430</ele>
        <time>2018-09-30T10:30:25Z</time>
      </trkpt>
      <trkpt lat="43.19141" lon="0.1269">
        <ele>430</ele>
        <time>2018-09-30T10:30:26Z</time>
      </trkpt>
      <trkpt lat="43.19146" lon="0.12687">
        <ele>429</ele>
        <time>2018-09-30T10:30:27Z</time>
      </trkpt>
      <trkpt lat="43.19149" lon="0.12685">
        <ele>429</ele>
        <time>2018-09-30T10:30:28Z</time>
      </trkpt>
      <trkpt lat="43.19155" lon="0.12683">
        <ele>429</ele>
        <time>2018-09-30T10:30:29Z</time>
      </trkpt>
      <trkpt lat="43.1916" lon="0.12679">
        <ele>429</ele>
        <time>2018-09-30T10:30:30Z</time>
      </trkpt>
      <trkpt lat="43.19167" lon="0.12676">
        <ele>429</ele>
        <time>2018-09-30T10:30:31Z</time>
      </trkpt>
      <trkpt lat="43.1917" lon="0.12675">
        <ele>429</ele>
        <time>2018-09-30T10:30:32Z</time>
      </trkpt>
      <trkpt lat="43.19175" lon="0.12672">
        <ele>429</ele>
        <time>2018-09-30T10:30:33Z</time>
      </trkpt>
      <trkpt lat="43.19178" lon="0.1267">
        <ele>428</ele>
        <time>2018-09-30T10:30:34Z</time>
      </trkpt>
      <trkpt lat="43.19182" lon="0.12668">
        <ele>426</ele>
        <time>2018-09-30T10:30:35Z</time>
      </trkpt>
      <trkpt lat="43.19186" lon="0.12666">
        <ele>425</ele>
        <time>2018-09-30T10:30:36Z</time>
      </trkpt>
      <trkpt lat="43.1919" lon="0.12665">
        <ele>425</ele>
        <time>2018-09-30T10:30:37Z</time>
      </trkpt>
      <trkpt lat="43.19194" lon="0.12663">
        <ele>424</ele>
        <time>2018-09-30T10:30:38Z</time>
      </trkpt>
      <trkpt lat="43.19198" lon="0.12661">
        <ele>424</ele>
        <time>2018-09-30T10:30:39Z</time>
      </trkpt>
      <trkpt lat="43.19203" lon="0.12657">
        <ele>423</ele>
        <time>2018-09-30T10:30:40Z</time>
      </trkpt>
      <trkpt lat="43.19207" lon="0.12654">
        <ele>423</ele>
        <time>2018-09-30T10:30:41Z</time>
      </trkpt>
      <trkpt lat="43.1921" lon="0.12651">
        <ele>422</ele>
        <time>2018-09-30T10:30:42Z</time>
      </trkpt>
      <trkpt lat="43.19213" lon="0.12648">
        <ele>422</ele>
        <time>2018-09-30T10:30:43Z</time>
      </trkpt>
      <trkpt lat="43.19216" lon="0.12644">
        <ele>421</ele>
        <time>2018-09-30T10:30:44Z</time>
      </trkpt>
      <trkpt lat="43.1922" lon="0.12639">
        <ele>420</ele>
        <time>2018-09-30T10:30:45Z</time>
      </trkpt>
      <trkpt lat="43.19224" lon="0.12633">
        <ele>420</ele>
        <time>2018-09-30T10:30:46Z</time>
      </trkpt>
      <trkpt lat="43.19229" lon="0.12627">
        <ele>419</ele>
        <time>2018-09-30T10:30:47Z</time>
      </trkpt>
      <trkpt lat="43.19235" lon="0.12621">
        <ele>413</ele>
        <time>2018-09-30T10:30:48Z</time>
      </trkpt>
      <trkpt lat="43.1924" lon="0.12615">
        <ele>410</ele>
        <time>2018-09-30T10:30:49Z</time>
      </trkpt>
      <trkpt lat="43.1925" lon="0.12607">
        <ele>409</ele>
        <time>2018-09-30T10:30:50Z</time>
      </trkpt>
      <trkpt lat="43.19262" lon="0.12601">
        <ele>408</ele>
        <time>2018-09-30T10:30:51Z</time>
      </trkpt>
      <trkpt lat="43.19275" lon="0.12598">
        <ele>408</ele>
        <time>2018-09-30T10:30:52Z</time>
      </trkpt>
      <trkpt lat="43.19284" lon="0.12596">
        <ele>408</ele>
        <time>2018-09-30T10:30:53Z</time>
      </trkpt>
      <trkpt lat="43.19292" lon="0.12591">
        <ele>407</ele>
        <time>2018-09-30T10:30:54Z</time>
      </trkpt>
      <trkpt lat="43.19297" lon="0.12587">
        <ele>407</ele>
        <time>2018-09-30T10:30:55Z</time>
      </trkpt>
      <trkpt lat="43.19301" lon="0.12582">
        <ele>407</ele>
        <time>2018-09-30T10:30:56Z</time>
      </trkpt>
      <trkpt lat="43.19306" lon="0.12579">
        <ele>407</ele>
        <time>2018-09-30T10:30:57Z</time>
      </trkpt>
      <trkpt lat="43.19308" lon="0.12576">
        <ele>407</ele>
        <time>2018-09-30T10:30:58Z</time>
      </trkpt>
      <trkpt lat="43.19311" lon="0.12571">
        <ele>407</ele>
        <time>2018-09-30T10:30:59Z</time>
      </trkpt>
      <trkpt lat="43.19314" lon="0.12565">
        <ele>407</ele>
        <time>2018-09-30T10:31:00Z</time>
      </trkpt>
      <trkpt lat="43.19317" lon="0.12557">
        <ele>407</ele>
        <time>2018-09-30T10:31:01Z</time>
      </trkpt>
      <trkpt lat="43.19319" lon="0.1255">
        <ele>407</ele>
        <time>2018-09-30T10:31:02Z</time>
      </trkpt>
      <trkpt lat="43.1932" lon="0.12546">
        <ele>407</ele>
        <time>2018-09-30T10:31:03Z</time>
      </trkpt>
      <trkpt lat="43.19322" lon="0.12543">
        <ele>407</ele>
        <time>2018-09-30T10:31:04Z</time>
      </trkpt>
      <trkpt lat="43.19323" lon="0.1254">
        <ele>407</ele>
        <time>2018-09-30T10:31:05Z</time>
      </trkpt>
      <trkpt lat="43.19324" lon="0.12537">
        <ele>407</ele>
        <time>2018-09-30T10:31:06Z</time>
      </trkpt>
      <trkpt lat="43.19325" lon="0.12533">
        <ele>407</ele>
        <time>2018-09-30T10:31:07Z</time>
      </trkpt>
      <trkpt lat="43.19327" lon="0.12529">
        <ele>407</ele>
        <time>2018-09-30T10:31:08Z</time>
      </trkpt>
      <trkpt lat="43.19328" lon="0.12527">
        <ele>406</ele>
        <time>2018-09-30T10:31:09Z</time>
      </trkpt>
      <trkpt lat="43.19331" lon="0.12525">
        <ele>406</ele>
        <time>2018-09-30T10:31:10Z</time>
      </trkpt>
      <trkpt lat="43.19333" lon="0.12523">
        <ele>406</ele>
        <time>2018-09-30T10:31:11Z</time>
      </trkpt>
      <trkpt lat="43.19336" lon="0.12522">
        <ele>406</ele>
        <time>2018-09-30T10:31:12Z</time>
      </trkpt>
      <trkpt lat="43.19339" lon="0.1252">
        <ele>406</ele>
        <time>2018-09-30T10:31:13Z</time>
      </trkpt>
      <trkpt lat="43.19341" lon="0.12518">
        <ele>405</ele>
        <time>2018-09-30T10:31:14Z</time>
      </trkpt>
      <trkpt lat="43.19343" lon="0.12517">
        <ele>405</ele>
        <time>2018-09-30T10:31:15Z</time>
      </trkpt>
      <trkpt lat="43.19344" lon="0.12515">
        <ele>405</ele>
        <time>2018-09-30T10:31:16Z</time>
      </trkpt>
      <trkpt lat="43.19345" lon="0.12514">
        <ele>405</ele>
        <time>2018-09-30T10:31:17Z</time>
      </trkpt>
      <trkpt lat="43.19346" lon="0.12512">
        <ele>405</ele>
        <time>2018-09-30T10:31:18Z</time>
      </trkpt>
      <trkpt lat="43.19349" lon="0.12508">
        <ele>405</ele>
        <time>2018-09-30T10:31:19Z</time>
      </trkpt>
      <trkpt lat="43.1935" lon="0.12506">
        <ele>405</ele>
        <time>2018-09-30T10:31:20Z</time>
      </trkpt>
      <trkpt lat="43.19352" lon="0.12502">
        <ele>404</ele>
        <time>2018-09-30T10:31:21Z</time>
      </trkpt>
      <trkpt lat="43.19353" lon="0.125">
        <ele>404</ele>
        <time>2018-09-30T10:31:22Z</time>
      </trkpt>
      <trkpt lat="43.19357" lon="0.12499">
        <ele>404</ele>
        <time>2018-09-30T10:31:23Z</time>
      </trkpt>
      <trkpt lat="43.19358" lon="0.12497">
        <ele>404</ele>
        <time>2018-09-30T10:31:24Z</time>
      </trkpt>
      <trkpt lat="43.19359" lon="0.12494">
        <ele>404</ele>
        <time>2018-09-30T10:31:25Z</time>
      </trkpt>
      <trkpt lat="43.19361" lon="0.12492">
        <ele>404</ele>
        <time>2018-09-30T10:31:26Z</time>
      </trkpt>
      <trkpt lat="43.19363" lon="0.1249">
        <ele>403</ele>
        <time>2018-09-30T10:31:27Z</time>
      </trkpt>
      <trkpt lat="43.1937" lon="0.12487">
        <ele>403</ele>
        <time>2018-09-30T10:31:28Z</time>
      </trkpt>
      <trkpt lat="43.19378" lon="0.12484">
        <ele>401</ele>
        <time>2018-09-30T10:31:29Z</time>
      </trkpt>
      <trkpt lat="43.19383" lon="0.1248">
        <ele>400</ele>
        <time>2018-09-30T10:31:30Z</time>
      </trkpt>
      <trkpt lat="43.19385" lon="0.12478">
        <ele>400</ele>
        <time>2018-09-30T10:31:31Z</time>
      </trkpt>
      <trkpt lat="43.19387" lon="0.12475">
        <ele>400</ele>
        <time>2018-09-30T10:31:32Z</time>
      </trkpt>
      <trkpt lat="43.19389" lon="0.12472">
        <ele>399</ele>
        <time>2018-09-30T10:31:33Z</time>
      </trkpt>
      <trkpt lat="43.1939" lon="0.12469">
        <ele>399</ele>
        <time>2018-09-30T10:31:34Z</time>
      </trkpt>
      <trkpt lat="43.19393" lon="0.12465">
        <ele>399</ele>
        <time>2018-09-30T10:31:35Z</time>
      </trkpt>
      <trkpt lat="43.19393" lon="0.12461">
        <ele>398</ele>
        <time>2018-09-30T10:31:36Z</time>
      </trkpt>
      <trkpt lat="43.19393" lon="0.12458">
        <ele>398</ele>
        <time>2018-09-30T10:31:37Z</time>
      </trkpt>
      <trkpt lat="43.19394" lon="0.12455">
        <ele>398</ele>
        <time>2018-09-30T10:31:38Z</time>
      </trkpt>
      <trkpt lat="43.19394" lon="0.12451">
        <ele>397</ele>
        <time>2018-09-30T10:31:39Z</time>
      </trkpt>
      <trkpt lat="43.19395" lon="0.12445">
        <ele>397</ele>
        <time>2018-09-30T10:31:40Z</time>
      </trkpt>
      <trkpt lat="43.19396" lon="0.12441">
        <ele>397</ele>
        <time>2018-09-30T10:31:41Z</time>
      </trkpt>
      <trkpt lat="43.19396" lon="0.12438">
        <ele>396</ele>
        <time>2018-09-30T10:31:42Z</time>
      </trkpt>
      <trkpt lat="43.19399" lon="0.12428">
        <ele>396</ele>
        <time>2018-09-30T10:31:43Z</time>
      </trkpt>
      <trkpt lat="43.194" lon="0.12424">
        <ele>396</ele>
        <time>2018-09-30T10:31:44Z</time>
      </trkpt>
      <trkpt lat="43.19402" lon="0.12418">
        <ele>395</ele>
        <time>2018-09-30T10:31:45Z</time>
      </trkpt>
      <trkpt lat="43.19403" lon="0.12414">
        <ele>395</ele>
        <time>2018-09-30T10:31:46Z</time>
      </trkpt>
      <trkpt lat="43.19404" lon="0.12408">
        <ele>387</ele>
        <time>2018-09-30T10:31:47Z</time>
      </trkpt>
      <trkpt lat="43.19406" lon="0.12403">
        <ele>384</ele>
        <time>2018-09-30T10:31:48Z</time>
      </trkpt>
      <trkpt lat="43.19408" lon="0.12397">
        <ele>383</ele>
        <time>2018-09-30T10:31:49Z</time>
      </trkpt>
      <trkpt lat="43.19409" lon="0.12391">
        <ele>380</ele>
        <time>2018-09-30T10:31:50Z</time>
      </trkpt>
      <trkpt lat="43.19411" lon="0.12378">
        <ele>378</ele>
        <time>2018-09-30T10:31:51Z</time>
      </trkpt>
      <trkpt lat="43.19412" lon="0.1237">
        <ele>375</ele>
        <time>2018-09-30T10:31:52Z</time>
      </trkpt>
      <trkpt lat="43.19415" lon="0.12349">
        <ele>372</ele>
        <time>2018-09-30T10:31:53Z</time>
      </trkpt>
      <trkpt lat="43.19418" lon="0.12333">
        <ele>371</ele>
        <time>2018-09-30T10:31:54Z</time>
      </trkpt>
      <trkpt lat="43.19418" lon="0.12325">
        <ele>361</ele>
        <time>2018-09-30T10:31:55Z</time>
      </trkpt>
      <trkpt lat="43.19418" lon="0.12315">
        <ele>358</ele>
        <time>2018-09-30T10:31:56Z</time>
      </trkpt>
      <trkpt lat="43.19419" lon="0.12307">
        <ele>356</ele>
        <time>2018-09-30T10:31:57Z</time>
      </trkpt>
      <trkpt lat="43.19421" lon="0.12284">
        <ele>355</ele>
        <time>2018-09-30T10:31:58Z</time>
      </trkpt>
      <trkpt lat="43.19424" lon="0.12271">
        <ele>354</ele>
        <time>2018-09-30T10:31:59Z</time>
      </trkpt>
      <trkpt lat="43.19427" lon="0.1226">
        <ele>354</ele>
        <time>2018-09-30T10:32:00Z</time>
      </trkpt>
      <trkpt lat="43.19431" lon="0.12251">
        <ele>353</ele>
        <time>2018-09-30T10:32:01Z</time>
      </trkpt>
      <trkpt lat="43.19434" lon="0.12242">
        <ele>353</ele>
        <time>2018-09-30T10:32:02Z</time>
      </trkpt>
      <trkpt lat="43.19437" lon="0.12234">
        <ele>353</ele>
        <time>2018-09-30T10:32:03Z</time>
      </trkpt>
      <trkpt lat="43.1944" lon="0.12226">
        <ele>353</ele>
        <time>2018-09-30T10:32:04Z</time>
      </trkpt>
      <trkpt lat="43.19441" lon="0.12217">
        <ele>353</ele>
        <time>2018-09-30T10:32:05Z</time>
      </trkpt>
      <trkpt lat="43.19441" lon="0.12209">
        <ele>353</ele>
        <time>2018-09-30T10:32:06Z</time>
      </trkpt>
      <trkpt lat="43.19441" lon="0.12198">
        <ele>353</ele>
        <time>2018-09-30T10:32:07Z</time>
      </trkpt>
      <trkpt lat="43.19442" lon="0.1219">
        <ele>353</ele>
        <time>2018-09-30T10:32:08Z</time>
      </trkpt>
      <trkpt lat="43.19442" lon="0.12181">
        <ele>353</ele>
        <time>2018-09-30T10:32:09Z</time>
      </trkpt>
      <trkpt lat="43.19443" lon="0.12173">
        <ele>353</ele>
        <time>2018-09-30T10:32:10Z</time>
      </trkpt>
      <trkpt lat="43.19443" lon="0.12165">
        <ele>353</ele>
        <time>2018-09-30T10:32:11Z</time>
      </trkpt>
      <trkpt lat="43.19444" lon="0.12158">
        <ele>353</ele>
        <time>2018-09-30T10:32:12Z</time>
      </trkpt>
      <trkpt lat="43.19444" lon="0.1215">
        <ele>353</ele>
        <time>2018-09-30T10:32:13Z</time>
      </trkpt>
      <trkpt lat="43.19445" lon="0.12142">
        <ele>353</ele>
        <time>2018-09-30T10:32:14Z</time>
      </trkpt>
      <trkpt lat="43.19445" lon="0.12135">
        <ele>353</ele>
        <time>2018-09-30T10:32:15Z</time>
      </trkpt>
      <trkpt lat="43.19446" lon="0.12128">
        <ele>353</ele>
        <time>2018-09-30T10:32:16Z</time>
      </trkpt>
      <trkpt lat="43.19446" lon="0.12121">
        <ele>353</ele>
        <time>2018-09-30T10:32:17Z</time>
      </trkpt>
      <trkpt lat="43.19447" lon="0.12114">
        <ele>353</ele>
        <time>2018-09-30T10:32:18Z</time>
      </trkpt>
      <trkpt lat="43.19448" lon="0.12107">
        <ele>353</ele>
        <time>2018-09-30T10:32:19Z</time>
      </trkpt>
      <trkpt lat="43.19449" lon="0.12101">
        <ele>353</ele>
        <time>2018-09-30T10:32:20Z</time>
      </trkpt>
      <trkpt lat="43.1945" lon="0.12094">
        <ele>353</ele>
        <time>2018-09-30T10:32:21Z</time>
      </trkpt>
      <trkpt lat="43.19451" lon="0.12088">
        <ele>353</ele>
        <time>2018-09-30T10:32:22Z</time>
      </trkpt>
      <trkpt lat="43.19452" lon="0.12082">
        <ele>353</ele>
        <time>2018-09-30T10:32:23Z</time>
      </trkpt>
      <trkpt lat="43.19453" lon="0.12077">
        <ele>353</ele>
        <time>2018-09-30T10:32:24Z</time>
      </trkpt>
      <trkpt lat="43.19454" lon="0.12073">
        <ele>353</ele>
        <time>2018-09-30T10:32:25Z</time>
      </trkpt>
      <trkpt lat="43.19456" lon="0.12069">
        <ele>353</ele>
        <time>2018-09-30T10:32:26Z</time>
      </trkpt>
      <trkpt lat="43.19457" lon="0.12065">
        <ele>353</ele>
        <time>2018-09-30T10:32:27Z</time>
      </trkpt>
      <trkpt lat="43.19459" lon="0.12061">
        <ele>353</ele>
        <time>2018-09-30T10:32:28Z</time>
      </trkpt>
      <trkpt lat="43.1946" lon="0.12058">
        <ele>353</ele>
        <time>2018-09-30T10:32:29Z</time>
      </trkpt>
      <trkpt lat="43.19462" lon="0.12055">
        <ele>353</ele>
        <time>2018-09-30T10:32:30Z</time>
      </trkpt>
      <trkpt lat="43.19464" lon="0.12052">
        <ele>353</ele>
        <time>2018-09-30T10:32:31Z</time>
      </trkpt>
      <trkpt lat="43.19465" lon="0.12049">
        <ele>353</ele>
        <time>2018-09-30T10:32:32Z</time>
      </trkpt>
      <trkpt lat="43.19467" lon="0.12046">
        <ele>353</ele>
        <time>2018-09-30T10:32:33Z</time>
      </trkpt>
      <trkpt lat="43.1947" lon="0.12042">
        <ele>353</ele>
        <time>2018-09-30T10:32:34Z</time>
      </trkpt>
      <trkpt lat="43.19472" lon="0.12038">
        <ele>353</ele>
        <time>2018-09-30T10:32:35Z</time>
      </trkpt>
      <trkpt lat="43.19473" lon="0.12033">
        <ele>353</ele>
        <time>2018-09-30T10:32:36Z</time>
      </trkpt>
      <trkpt lat="43.19474" lon="0.12027">
        <ele>353</ele>
        <time>2018-09-30T10:32:37Z</time>
      </trkpt>
      <trkpt lat="43.19474" lon="0.12021">
        <ele>353</ele>
        <time>2018-09-30T10:32:38Z</time>
      </trkpt>
      <trkpt lat="43.19474" lon="0.12016">
        <ele>353</ele>
        <time>2018-09-30T10:32:39Z</time>
      </trkpt>
      <trkpt lat="43.19475" lon="0.1201">
        <ele>353</ele>
        <time>2018-09-30T10:32:40Z</time>
      </trkpt>
      <trkpt lat="43.19475" lon="0.12005">
        <ele>352</ele>
        <time>2018-09-30T10:32:41Z</time>
      </trkpt>
      <trkpt lat="43.19475" lon="0.11999">
        <ele>352</ele>
        <time>2018-09-30T10:32:42Z</time>
      </trkpt>
      <trkpt lat="43.19475" lon="0.11995">
        <ele>352</ele>
        <time>2018-09-30T10:32:43Z</time>
      </trkpt>
      <trkpt lat="43.19476" lon="0.1199">
        <ele>352</ele>
        <time>2018-09-30T10:32:44Z</time>
      </trkpt>
      <trkpt lat="43.19476" lon="0.11985">
        <ele>352</ele>
        <time>2018-09-30T10:32:45Z</time>
      </trkpt>
      <trkpt lat="43.19476" lon="0.1198">
        <ele>352</ele>
        <time>2018-09-30T10:32:46Z</time>
      </trkpt>
      <trkpt lat="43.19476" lon="0.11976">
        <ele>352</ele>
        <time>2018-09-30T10:32:47Z</time>
      </trkpt>
      <trkpt lat="43.19477" lon="0.11972">
        <ele>352</ele>
        <time>2018-09-30T10:32:48Z</time>
      </trkpt>
      <trkpt lat="43.19477" lon="0.11967">
        <ele>352</ele>
        <time>2018-09-30T10:32:49Z</time>
      </trkpt>
      <trkpt lat="43.19478" lon="0.11962">
        <ele>352</ele>
        <time>2018-09-30T10:32:50Z</time>
      </trkpt>
      <trkpt lat="43.19478" lon="0.11958">
        <ele>352</ele>
        <time>2018-09-30T10:32:51Z</time>
      </trkpt>
      <trkpt lat="43.19479" lon="0.11954">
        <ele>352</ele>
        <time>2018-09-30T10:32:52Z</time>
      </trkpt>
      <trkpt lat="43.1948" lon="0.1195">
        <ele>352</ele>
        <time>2018-09-30T10:32:53Z</time>
      </trkpt>
      <trkpt lat="43.19481" lon="0.11947">
        <ele>352</ele>
        <time>2018-09-30T10:32:54Z</time>
      </trkpt>
      <trkpt lat="43.19484" lon="0.11945">
        <ele>352</ele>
        <time>2018-09-30T10:32:55Z</time>
      </trkpt>
      <trkpt lat="43.19487" lon="0.11945">
        <ele>352</ele>
        <time>2018-09-30T10:32:56Z</time>
      </trkpt>
      <trkpt lat="43.1949" lon="0.11945">
        <ele>352</ele>
        <time>2018-09-30T10:32:57Z</time>
      </trkpt>
      <trkpt lat="43.19494" lon="0.11945">
        <ele>352</ele>
        <time>2018-09-30T10:32:59Z</time>
      </trkpt>
      <trkpt lat="43.19499" lon="0.11946">
        <ele>352</ele>
        <time>2018-09-30T10:33:00Z</time>
      </trkpt>
      <trkpt lat="43.19504" lon="0.11946">
        <ele>352</ele>
        <time>2018-09-30T10:33:01Z</time>
      </trkpt>
      <trkpt lat="43.19509" lon="0.11946">
        <ele>352</ele>
        <time>2018-09-30T10:33:02Z</time>
      </trkpt>
      <trkpt lat="43.19514" lon="0.11947">
        <ele>352</ele>
        <time>2018-09-30T10:33:03Z</time>
      </trkpt>
      <trkpt lat="43.19518" lon="0.11947">
        <ele>351</ele>
        <time>2018-09-30T10:33:04Z</time>
      </trkpt>
      <trkpt lat="43.19523" lon="0.11947">
        <ele>351</ele>
        <time>2018-09-30T10:33:05Z</time>
      </trkpt>
      <trkpt lat="43.19528" lon="0.11947">
        <ele>351</ele>
        <time>2018-09-30T10:33:06Z</time>
      </trkpt>
      <trkpt lat="43.19533" lon="0.11947">
        <ele>351</ele>
        <time>2018-09-30T10:33:07Z</time>
      </trkpt>
      <trkpt lat="43.19539" lon="0.11948">
        <ele>351</ele>
        <time>2018-09-30T10:33:08Z</time>
      </trkpt>
      <trkpt lat="43.19544" lon="0.11948">
        <ele>351</ele>
        <time>2018-09-30T10:33:09Z</time>
      </trkpt>
      <trkpt lat="43.19549" lon="0.11948">
        <ele>351</ele>
        <time>2018-09-30T10:33:10Z</time>
      </trkpt>
      <trkpt lat="43.19553" lon="0.11948">
        <ele>351</ele>
        <time>2018-09-30T10:33:11Z</time>
      </trkpt>
      <trkpt lat="43.19557" lon="0.11948">
        <ele>351</ele>
        <time>2018-09-30T10:33:12Z</time>
      </trkpt>
      <trkpt lat="43.19562" lon="0.11948">
        <ele>350</ele>
        <time>2018-09-30T10:33:13Z</time>
      </trkpt>
      <trkpt lat="43.19565" lon="0.11948">
        <ele>350</ele>
        <time>2018-09-30T10:33:14Z</time>
      </trkpt>
      <trkpt lat="43.19568" lon="0.11946">
        <ele>350</ele>
        <time>2018-09-30T10:33:15Z</time>
      </trkpt>
      <trkpt lat="43.1957" lon="0.11945">
        <ele>350</ele>
        <time>2018-09-30T10:33:16Z</time>
      </trkpt>
      <trkpt lat="43.19571" lon="0.11945">
        <ele>350</ele>
        <time>2018-09-30T10:33:17Z</time>
      </trkpt>
      <trkpt lat="43.19572" lon="0.11944">
        <ele>350</ele>
        <time>2018-09-30T10:33:18Z</time>
      </trkpt>
      <trkpt lat="43.19573" lon="0.11943">
        <ele>350</ele>
        <time>2018-09-30T10:33:19Z</time>
      </trkpt>
      <trkpt lat="43.19575" lon="0.11941">
        <ele>350</ele>
        <time>2018-09-30T10:33:20Z</time>
      </trkpt>
      <trkpt lat="43.19577" lon="0.11939">
        <ele>350</ele>
        <time>2018-09-30T10:33:21Z</time>
      </trkpt>
      <trkpt lat="43.19577" lon="0.11935">
        <ele>350</ele>
        <time>2018-09-30T10:33:22Z</time>
      </trkpt>
      <trkpt lat="43.19576" lon="0.11931">
        <ele>350</ele>
        <time>2018-09-30T10:33:23Z</time>
      </trkpt>
      <trkpt lat="43.19576" lon="0.11926">
        <ele>350</ele>
        <time>2018-09-30T10:33:24Z</time>
      </trkpt>
      <trkpt lat="43.19575" lon="0.11922">
        <ele>350</ele>
        <time>2018-09-30T10:33:25Z</time>
      </trkpt>
      <trkpt lat="43.19575" lon="0.11918">
        <ele>350</ele>
        <time>2018-09-30T10:33:26Z</time>
      </trkpt>
      <trkpt lat="43.19575" lon="0.11913">
        <ele>350</ele>
        <time>2018-09-30T10:33:27Z</time>
      </trkpt>
      <trkpt lat="43.19575" lon="0.11909">
        <ele>350</ele>
        <time>2018-09-30T10:33:28Z</time>
      </trkpt>
      <trkpt lat="43.19575" lon="0.11904">
        <ele>350</ele>
        <time>2018-09-30T10:33:29Z</time>
      </trkpt>
      <trkpt lat="43.19575" lon="0.11899">
        <ele>350</ele>
        <time>2018-09-30T10:33:30Z</time>
      </trkpt>
      <trkpt lat="43.19575" lon="0.11894">
        <ele>350</ele>
        <time>2018-09-30T10:33:31Z</time>
      </trkpt>
      <trkpt lat="43.19575" lon="0.11889">
        <ele>350</ele>
        <time>2018-09-30T10:33:32Z</time>
      </trkpt>
      <trkpt lat="43.19576" lon="0.11885">
        <ele>350</ele>
        <time>2018-09-30T10:33:33Z</time>
      </trkpt>
      <trkpt lat="43.19577" lon="0.11881">
        <ele>350</ele>
        <time>2018-09-30T10:33:34Z</time>
      </trkpt>
      <trkpt lat="43.19579" lon="0.11878">
        <ele>350</ele>
        <time>2018-09-30T10:33:35Z</time>
      </trkpt>
      <trkpt lat="43.19582" lon="0.11876">
        <ele>350</ele>
        <time>2018-09-30T10:33:36Z</time>
      </trkpt>
      <trkpt lat="43.19584" lon="0.11874">
        <ele>350</ele>
        <time>2018-09-30T10:33:37Z</time>
      </trkpt>
      <trkpt lat="43.19587" lon="0.11873">
        <ele>350</ele>
        <time>2018-09-30T10:33:38Z</time>
      </trkpt>
      <trkpt lat="43.1959" lon="0.11872">
        <ele>350</ele>
        <time>2018-09-30T10:33:39Z</time>
      </trkpt>
      <trkpt lat="43.19593" lon="0.11871">
        <ele>350</ele>
        <time>2018-09-30T10:33:40Z</time>
      </trkpt>
      <trkpt lat="43.19597" lon="0.11869">
        <ele>350</ele>
        <time>2018-09-30T10:33:41Z</time>
      </trkpt>
      <trkpt lat="43.196" lon="0.11868">
        <ele>350</ele>
        <time>2018-09-30T10:33:42Z</time>
      </trkpt>
      <trkpt lat="43.19602" lon="0.11865">
        <ele>350</ele>
        <time>2018-09-30T10:33:43Z</time>
      </trkpt>
      <trkpt lat="43.19604" lon="0.11861">
        <ele>350</ele>
        <time>2018-09-30T10:33:44Z</time>
      </trkpt>
      <trkpt lat="43.19605" lon="0.11857">
        <ele>350</ele>
        <time>2018-09-30T10:33:45Z</time>
      </trkpt>
      <trkpt lat="43.19605" lon="0.11852">
        <ele>350</ele>
        <time>2018-09-30T10:33:46Z</time>
      </trkpt>
      <trkpt lat="43.19605" lon="0.11846">
        <ele>350</ele>
        <time>2018-09-30T10:33:47Z</time>
      </trkpt>
      <trkpt lat="43.19605" lon="0.11841">
        <ele>350</ele>
        <time>2018-09-30T10:33:48Z</time>
      </trkpt>
      <trkpt lat="43.19605" lon="0.11834">
        <ele>350</ele>
        <time>2018-09-30T10:33:49Z</time>
      </trkpt>
      <trkpt lat="43.19605" lon="0.11828">
        <ele>350</ele>
        <time>2018-09-30T10:33:50Z</time>
      </trkpt>
      <trkpt lat="43.19605" lon="0.11823">
        <ele>350</ele>
        <time>2018-09-30T10:33:51Z</time>
      </trkpt>
      <trkpt lat="43.19605" lon="0.11817">
        <ele>350</ele>
        <time>2018-09-30T10:33:52Z</time>
      </trkpt>
      <trkpt lat="43.19605" lon="0.11812">
        <ele>350</ele>
        <time>2018-09-30T10:33:53Z</time>
      </trkpt>
      <trkpt lat="43.19605" lon="0.11807">
        <ele>350</ele>
        <time>2018-09-30T10:33:54Z</time>
      </trkpt>
      <trkpt lat="43.19605" lon="0.11802">
        <ele>350</ele>
        <time>2018-09-30T10:33:55Z</time>
      </trkpt>
      <trkpt lat="43.19605" lon="0.11798">
        <ele>350</ele>
        <time>2018-09-30T10:33:56Z</time>
      </trkpt>
      <trkpt lat="43.19605" lon="0.11794">
        <ele>350</ele>
        <time>2018-09-30T10:33:57Z</time>
      </trkpt>
      <trkpt lat="43.19605" lon="0.11791">
        <ele>350</ele>
        <time>2018-09-30T10:33:58Z</time>
      </trkpt>
      <trkpt lat="43.19606" lon="0.11789">
        <ele>350</ele>
        <time>2018-09-30T10:33:59Z</time>
      </trkpt>
      <trkpt lat="43.19607" lon="0.11786">
        <ele>350</ele>
        <time>2018-09-30T10:34:00Z</time>
      </trkpt>
      <trkpt lat="43.19608" lon="0.11786">
        <ele>351</ele>
        <time>2018-09-30T10:34:01Z</time>
      </trkpt>
      <trkpt lat="43.19609" lon="0.11786">
        <ele>351</ele>
        <time>2018-09-30T10:34:02Z</time>
      </trkpt>
      <trkpt lat="43.19611" lon="0.11786">
        <ele>351</ele>
        <time>2018-09-30T10:34:03Z</time>
      </trkpt>
      <trkpt lat="43.19613" lon="0.11786">
        <ele>351</ele>
        <time>2018-09-30T10:34:04Z</time>
      </trkpt>
      <trkpt lat="43.19616" lon="0.11786">
        <ele>351</ele>
        <time>2018-09-30T10:34:05Z</time>
      </trkpt>
      <trkpt lat="43.19618" lon="0.11786">
        <ele>351</ele>
        <time>2018-09-30T10:34:06Z</time>
      </trkpt>
      <trkpt lat="43.19621" lon="0.11786">
        <ele>351</ele>
        <time>2018-09-30T10:34:07Z</time>
      </trkpt>
      <trkpt lat="43.19624" lon="0.11786">
        <ele>351</ele>
        <time>2018-09-30T10:34:08Z</time>
      </trkpt>
      <trkpt lat="43.19626" lon="0.11786">
        <ele>351</ele>
        <time>2018-09-30T10:34:09Z</time>
      </trkpt>
      <trkpt lat="43.19629" lon="0.11785">
        <ele>351</ele>
        <time>2018-09-30T10:34:10Z</time>
      </trkpt>
      <trkpt lat="43.19631" lon="0.11784">
        <ele>351</ele>
        <time>2018-09-30T10:34:11Z</time>
      </trkpt>
      <trkpt lat="43.19633" lon="0.11784">
        <ele>351</ele>
        <time>2018-09-30T10:34:12Z</time>
      </trkpt>
      <trkpt lat="43.19635" lon="0.11783">
        <ele>351</ele>
        <time>2018-09-30T10:34:13Z</time>
      </trkpt>
      <trkpt lat="43.19637" lon="0.11781">
        <ele>351</ele>
        <time>2018-09-30T10:34:14Z</time>
      </trkpt>
      <trkpt lat="43.19638" lon="0.11779">
        <ele>351</ele>
        <time>2018-09-30T10:34:15Z</time>
      </trkpt>
      <trkpt lat="43.19639" lon="0.11776">
        <ele>351</ele>
        <time>2018-09-30T10:34:16Z</time>
      </trkpt>
      <trkpt lat="43.19639" lon="0.11773">
        <ele>351</ele>
        <time>2018-09-30T10:34:17Z</time>
      </trkpt>
      <trkpt lat="43.19639" lon="0.1177">
        <ele>351</ele>
        <time>2018-09-30T10:34:18Z</time>
      </trkpt>
      <trkpt lat="43.19639" lon="0.11766">
        <ele>351</ele>
        <time>2018-09-30T10:34:19Z</time>
      </trkpt>
      <trkpt lat="43.1964" lon="0.11762">
        <ele>351</ele>
        <time>2018-09-30T10:34:20Z</time>
      </trkpt>
      <trkpt lat="43.1964" lon="0.11758">
        <ele>350</ele>
        <time>2018-09-30T10:34:21Z</time>
      </trkpt>
      <trkpt lat="43.1964" lon="0.11753">
        <ele>350</ele>
        <time>2018-09-30T10:34:22Z</time>
      </trkpt>
      <trkpt lat="43.19641" lon="0.11748">
        <ele>350</ele>
        <time>2018-09-30T10:34:23Z</time>
      </trkpt>
      <trkpt lat="43.19642" lon="0.11746">
        <ele>350</ele>
        <time>2018-09-30T10:34:24Z</time>
      </trkpt>
      <trkpt lat="43.19644" lon="0.11745">
        <ele>350</ele>
        <time>2018-09-30T10:34:25Z</time>
      </trkpt>
      <trkpt lat="43.19645" lon="0.11742">
        <ele>350</ele>
        <time>2018-09-30T10:34:26Z</time>
      </trkpt>
      <trkpt lat="43.19647" lon="0.11741">
        <ele>351</ele>
        <time>2018-09-30T10:34:27Z</time>
      </trkpt>
      <trkpt lat="43.19648" lon="0.11737">
        <ele>351</ele>
        <time>2018-09-30T10:34:28Z</time>
      </trkpt>
      <trkpt lat="43.19649" lon="0.11734">
        <ele>351</ele>
        <time>2018-09-30T10:34:29Z</time>
      </trkpt>
      <trkpt lat="43.19649" lon="0.1173">
        <ele>351</ele>
        <time>2018-09-30T10:34:30Z</time>
      </trkpt>
      <trkpt lat="43.19649" lon="0.11726">
        <ele>351</ele>
        <time>2018-09-30T10:34:31Z</time>
      </trkpt>
      <trkpt lat="43.19649" lon="0.11723">
        <ele>351</ele>
        <time>2018-09-30T10:34:32Z</time>
      </trkpt>
      <trkpt lat="43.19649" lon="0.11719">
        <ele>351</ele>
        <time>2018-09-30T10:34:33Z</time>
      </trkpt>
      <trkpt lat="43.1965" lon="0.11715">
        <ele>352</ele>
        <time>2018-09-30T10:34:34Z</time>
      </trkpt>
      <trkpt lat="43.1965" lon="0.11711">
        <ele>352</ele>
        <time>2018-09-30T10:34:35Z</time>
      </trkpt>
      <trkpt lat="43.19651" lon="0.11707">
        <ele>352</ele>
        <time>2018-09-30T10:34:36Z</time>
      </trkpt>
      <trkpt lat="43.19652" lon="0.11704">
        <ele>352</ele>
        <time>2018-09-30T10:34:37Z</time>
      </trkpt>
      <trkpt lat="43.19653" lon="0.11701">
        <ele>352</ele>
        <time>2018-09-30T10:34:38Z</time>
      </trkpt>
      <trkpt lat="43.19654" lon="0.11699">
        <ele>352</ele>
        <time>2018-09-30T10:34:39Z</time>
      </trkpt>
      <trkpt lat="43.19655" lon="0.11698">
        <ele>352</ele>
        <time>2018-09-30T10:34:40Z</time>
      </trkpt>
      <trkpt lat="43.19656" lon="0.11697">
        <ele>352</ele>
        <time>2018-09-30T10:34:41Z</time>
      </trkpt>
      <trkpt lat="43.19657" lon="0.11696">
        <ele>353</ele>
        <time>2018-09-30T10:34:42Z</time>
      </trkpt>
      <trkpt lat="43.19658" lon="0.11695">
        <ele>353</ele>
        <time>2018-09-30T10:34:43Z</time>
      </trkpt>
      <trkpt lat="43.19659" lon="0.11694">
        <ele>353</ele>
        <time>2018-09-30T10:34:44Z</time>
      </trkpt>
      <trkpt lat="43.19659" lon="0.11694">
        <ele>353</ele>
        <time>2018-09-30T10:34:45Z</time>
      </trkpt>
      <trkpt lat="43.1966" lon="0.11694">
        <ele>353</ele>
        <time>2018-09-30T10:34:46Z</time>
      </trkpt>
      <trkpt lat="43.1966" lon="0.11694">
        <ele>353</ele>
        <time>2018-09-30T10:34:47Z</time>
      </trkpt>
      <trkpt lat="43.1966" lon="0.11694">
        <ele>353</ele>
        <time>2018-09-30T10:34:48Z</time>
      </trkpt>
      <trkpt lat="43.1966" lon="0.11694">
        <ele>353</ele>
        <time>2018-09-30T10:34:49Z</time>
      </trkpt>
      <trkpt lat="43.1966" lon="0.11694">
        <ele>353</ele>
        <time>2018-09-30T10:34:50Z</time>
      </trkpt>
      <trkpt lat="43.19659" lon="0.11694">
        <ele>353</ele>
        <time>2018-09-30T10:34:51Z</time>
      </trkpt>
      <trkpt lat="43.19659" lon="0.11694">
        <ele>353</ele>
        <time>2018-09-30T10:34:52Z</time>
      </trkpt>
      <trkpt lat="43.19659" lon="0.11694">
        <ele>353</ele>
        <time>2018-09-30T10:34:53Z</time>
      </trkpt>
      <trkpt lat="43.1966" lon="0.11693">
        <ele>353</ele>
        <time>2018-09-30T10:34:54Z</time>
      </trkpt>
      <trkpt lat="43.1966" lon="0.11693">
        <ele>353</ele>
        <time>2018-09-30T10:34:55Z</time>
      </trkpt>
      <trkpt lat="43.1966" lon="0.11692">
        <ele>353</ele>
        <time>2018-09-30T10:34:56Z</time>
      </trkpt>
      <trkpt lat="43.1966" lon="0.11691">
        <ele>353</ele>
        <time>2018-09-30T10:34:57Z</time>
      </trkpt>
      <trkpt lat="43.1966" lon="0.1169">
        <ele>353</ele>
        <time>2018-09-30T10:34:58Z</time>
      </trkpt>
      <trkpt lat="43.19659" lon="0.11688">
        <ele>353</ele>
        <time>2018-09-30T10:34:59Z</time>
      </trkpt>
      <trkpt lat="43.19659" lon="0.11686">
        <ele>353</ele>
        <time>2018-09-30T10:35:00Z</time>
      </trkpt>
      <trkpt lat="43.19658" lon="0.11685">
        <ele>353</ele>
        <time>2018-09-30T10:35:01Z</time>
      </trkpt>
      <trkpt lat="43.19658" lon="0.11683">
        <ele>354</ele>
        <time>2018-09-30T10:35:02Z</time>
      </trkpt>
      <trkpt lat="43.19657" lon="0.11682">
        <ele>354</ele>
        <time>2018-09-30T10:35:03Z</time>
      </trkpt>
      <trkpt lat="43.19657" lon="0.11681">
        <ele>354</ele>
        <time>2018-09-30T10:35:04Z</time>
      </trkpt>
      <trkpt lat="43.19656" lon="0.1168">
        <ele>354</ele>
        <time>2018-09-30T10:35:05Z</time>
      </trkpt>
      <trkpt lat="43.19656" lon="0.11679">
        <ele>354</ele>
        <time>2018-09-30T10:35:06Z</time>
      </trkpt>
      <trkpt lat="43.19655" lon="0.11678">
        <ele>354</ele>
        <time>2018-09-30T10:35:07Z</time>
      </trkpt>
      <trkpt lat="43.19655" lon="0.11678">
        <ele>354</ele>
        <time>2018-09-30T10:35:08Z</time>
      </trkpt>
      <trkpt lat="43.19655" lon="0.11678">
        <ele>354</ele>
        <time>2018-09-30T10:35:09Z</time>
      </trkpt>
      <trkpt lat="43.19655" lon="0.11678">
        <ele>354</ele>
        <time>2018-09-30T10:35:10Z</time>
      </trkpt>
      <trkpt lat="43.19655" lon="0.11678">
        <ele>354</ele>
        <time>2018-09-30T10:35:11Z</time>
      </trkpt>
      <trkpt lat="43.19655" lon="0.11678">
        <ele>354</ele>
        <time>2018-09-30T10:35:12Z</time>
      </trkpt>
      <trkpt lat="43.19655" lon="0.11678">
        <ele>354</ele>
        <time>2018-09-30T10:35:13Z</time>
      </trkpt>
      <trkpt lat="43.19655" lon="0.11678">
        <ele>354</ele>
        <time>2018-09-30T10:35:14Z</time>
      </trkpt>
      <trkpt lat="43.19655" lon="0.11678">
        <ele>354</ele>
        <time>2018-09-30T10:35:15Z</time>
      </trkpt>
      <trkpt lat="43.19655" lon="0.11678">
        <ele>354</ele>
        <time>2018-09-30T10:35:18Z</time>
      </trkpt>
      <trkpt lat="43.19655" lon="0.11678">
        <ele>354</ele>
        <time>2018-09-30T10:35:19Z</time>
      </trkpt>
      <trkpt lat="43.19655" lon="0.11677">
        <ele>354</ele>
        <time>2018-09-30T10:35:20Z</time>
      </trkpt>
      <trkpt lat="43.19655" lon="0.11677">
        <ele>354</ele>
        <time>2018-09-30T10:35:21Z</time>
      </trkpt>
      <trkpt lat="43.19655" lon="0.11677">
        <ele>354</ele>
        <time>2018-09-30T10:35:22Z</time>
      </trkpt>
      <trkpt lat="43.19655" lon="0.11677">
        <ele>354</ele>
        <time>2018-09-30T10:35:23Z</time>
      </trkpt>
      <trkpt lat="43.19655" lon="0.11677">
        <ele>354</ele>
        <time>2018-09-30T10:35:24Z</time>
      </trkpt>
      <trkpt lat="43.19655" lon="0.11677">
        <ele>354</ele>
        <time>2018-09-30T10:35:25Z</time>
      </trkpt>
      <trkpt lat="43.19655" lon="0.11677">
        <ele>354</ele>
        <time>2018-09-30T10:35:26Z</time>
      </trkpt>
      <trkpt lat="43.19655" lon="0.11677">
        <ele>354</ele>
        <time>2018-09-30T10:35:27Z</time>
      </trkpt>
      <trkpt lat="43.19655" lon="0.11677">
        <ele>354</ele>
        <time>2018-09-30T10:35:28Z</time>
      </trkpt>
      <trkpt lat="43.19655" lon="0.11677">
        <ele>354</ele>
        <time>2018-09-30T10:35:29Z</time>
      </trkpt>
      <trkpt lat="43.19655" lon="0.11677">
        <ele>354</ele>
        <time>2018-09-30T10:35:30Z</time>
      </trkpt>
      <trkpt lat="43.19655" lon="0.11677">
        <ele>354</ele>
        <time>2018-09-30T10:35:31Z</time>
      </trkpt>
    </trkseg>
  </trk>
</gpx>